<?xml version="1.0" encoding="UTF-8" standalone="no" ?>
<gpx xmlns="http://www.topografix.com/GPX/1/1" xmlns:xsi="http://www.w3.org/2001/XMLSchema-instance" xsi:schemaLocation="http://www.topografix.com/GPX/1/1 http://www.topografix.com/GPX/1/1/gpx.xsd" version="1.1" creator="VisuGPX - https://www.visugpx.com">
  <metadata>
    <name>Rando des 7 Collines 2025</name>
  </metadata>
  <trk>
    <name><![CDATA[Rando des 7 Collines 2025_1]]></name>
    <trkseg>
      <trkpt lat="45.19794" lon="0.69852">
        <ele>84.2</ele>
        <time>2025-06-15T06:30:26Z</time>
      </trkpt>
      <trkpt lat="45.19795" lon="0.69854">
        <ele>84.2</ele>
        <time>2025-06-15T06:30:27Z</time>
      </trkpt>
      <trkpt lat="45.19796" lon="0.69856">
        <ele>84.2</ele>
        <time>2025-06-15T06:30:28Z</time>
      </trkpt>
      <trkpt lat="45.19797" lon="0.69859">
        <ele>84.4</ele>
        <time>2025-06-15T06:30:29Z</time>
      </trkpt>
      <trkpt lat="45.19797" lon="0.69862">
        <ele>84.6</ele>
        <time>2025-06-15T06:30:30Z</time>
      </trkpt>
      <trkpt lat="45.19798" lon="0.69865">
        <ele>84.6</ele>
        <time>2025-06-15T06:30:31Z</time>
      </trkpt>
      <trkpt lat="45.19798" lon="0.69869">
        <ele>84.6</ele>
        <time>2025-06-15T06:30:32Z</time>
      </trkpt>
      <trkpt lat="45.19797" lon="0.69871">
        <ele>84.8</ele>
        <time>2025-06-15T06:30:33Z</time>
      </trkpt>
      <trkpt lat="45.19795" lon="0.69873">
        <ele>84.8</ele>
        <time>2025-06-15T06:30:34Z</time>
      </trkpt>
      <trkpt lat="45.19793" lon="0.69873">
        <ele>84.8</ele>
        <time>2025-06-15T06:30:35Z</time>
      </trkpt>
      <trkpt lat="45.19792" lon="0.69874">
        <ele>85</ele>
        <time>2025-06-15T06:30:36Z</time>
      </trkpt>
      <trkpt lat="45.1979" lon="0.69875">
        <ele>85</ele>
        <time>2025-06-15T06:30:37Z</time>
      </trkpt>
      <trkpt lat="45.19788" lon="0.69875">
        <ele>85.2</ele>
        <time>2025-06-15T06:30:38Z</time>
      </trkpt>
      <trkpt lat="45.19785" lon="0.69876">
        <ele>85.2</ele>
        <time>2025-06-15T06:30:39Z</time>
      </trkpt>
      <trkpt lat="45.19783" lon="0.69877">
        <ele>85.2</ele>
        <time>2025-06-15T06:30:40Z</time>
      </trkpt>
      <trkpt lat="45.19781" lon="0.69878">
        <ele>85.2</ele>
        <time>2025-06-15T06:30:41Z</time>
      </trkpt>
      <trkpt lat="45.19779" lon="0.69878">
        <ele>85.2</ele>
        <time>2025-06-15T06:30:42Z</time>
      </trkpt>
      <trkpt lat="45.19777" lon="0.69878">
        <ele>85.4</ele>
        <time>2025-06-15T06:30:43Z</time>
      </trkpt>
      <trkpt lat="45.19774" lon="0.69879">
        <ele>85.4</ele>
        <time>2025-06-15T06:30:44Z</time>
      </trkpt>
      <trkpt lat="45.19772" lon="0.69879">
        <ele>85.4</ele>
        <time>2025-06-15T06:30:45Z</time>
      </trkpt>
      <trkpt lat="45.19769" lon="0.6988">
        <ele>85.6</ele>
        <time>2025-06-15T06:30:46Z</time>
      </trkpt>
      <trkpt lat="45.19767" lon="0.6988">
        <ele>85.6</ele>
        <time>2025-06-15T06:30:47Z</time>
      </trkpt>
      <trkpt lat="45.19764" lon="0.6988">
        <ele>85.6</ele>
        <time>2025-06-15T06:30:48Z</time>
      </trkpt>
      <trkpt lat="45.19761" lon="0.69881">
        <ele>85.8</ele>
        <time>2025-06-15T06:30:49Z</time>
      </trkpt>
      <trkpt lat="45.19757" lon="0.69881">
        <ele>85.8</ele>
        <time>2025-06-15T06:30:50Z</time>
      </trkpt>
      <trkpt lat="45.19754" lon="0.69882">
        <ele>86</ele>
        <time>2025-06-15T06:30:51Z</time>
      </trkpt>
      <trkpt lat="45.19751" lon="0.69882">
        <ele>86</ele>
        <time>2025-06-15T06:30:52Z</time>
      </trkpt>
      <trkpt lat="45.19748" lon="0.69881">
        <ele>86.2</ele>
        <time>2025-06-15T06:30:53Z</time>
      </trkpt>
      <trkpt lat="45.19745" lon="0.69879">
        <ele>86.4</ele>
        <time>2025-06-15T06:30:54Z</time>
      </trkpt>
      <trkpt lat="45.19743" lon="0.69877">
        <ele>86.6</ele>
        <time>2025-06-15T06:30:55Z</time>
      </trkpt>
      <trkpt lat="45.1974" lon="0.69875">
        <ele>86.6</ele>
        <time>2025-06-15T06:30:56Z</time>
      </trkpt>
      <trkpt lat="45.19737" lon="0.69874">
        <ele>86.8</ele>
        <time>2025-06-15T06:30:57Z</time>
      </trkpt>
      <trkpt lat="45.19733" lon="0.69873">
        <ele>87</ele>
        <time>2025-06-15T06:30:58Z</time>
      </trkpt>
      <trkpt lat="45.19731" lon="0.69872">
        <ele>87</ele>
        <time>2025-06-15T06:30:59Z</time>
      </trkpt>
      <trkpt lat="45.19729" lon="0.69873">
        <ele>87.2</ele>
        <time>2025-06-15T06:31:00Z</time>
      </trkpt>
      <trkpt lat="45.19728" lon="0.69874">
        <ele>87.4</ele>
        <time>2025-06-15T06:31:01Z</time>
      </trkpt>
      <trkpt lat="45.19726" lon="0.69874">
        <ele>87.4</ele>
        <time>2025-06-15T06:31:02Z</time>
      </trkpt>
      <trkpt lat="45.19725" lon="0.69873">
        <ele>87.6</ele>
        <time>2025-06-15T06:31:03Z</time>
      </trkpt>
      <trkpt lat="45.19724" lon="0.69873">
        <ele>87.6</ele>
        <time>2025-06-15T06:31:04Z</time>
      </trkpt>
      <trkpt lat="45.19723" lon="0.69873">
        <ele>87.8</ele>
        <time>2025-06-15T06:31:05Z</time>
      </trkpt>
      <trkpt lat="45.19722" lon="0.69874">
        <ele>87.8</ele>
        <time>2025-06-15T06:31:06Z</time>
      </trkpt>
      <trkpt lat="45.19722" lon="0.69874">
        <ele>87.8</ele>
        <time>2025-06-15T06:31:07Z</time>
      </trkpt>
      <trkpt lat="45.1972" lon="0.69875">
        <ele>87.8</ele>
        <time>2025-06-15T06:31:08Z</time>
      </trkpt>
      <trkpt lat="45.19719" lon="0.69875">
        <ele>87.8</ele>
        <time>2025-06-15T06:31:09Z</time>
      </trkpt>
      <trkpt lat="45.19718" lon="0.69874">
        <ele>87.8</ele>
        <time>2025-06-15T06:31:10Z</time>
      </trkpt>
      <trkpt lat="45.19718" lon="0.69874">
        <ele>87.8</ele>
        <time>2025-06-15T06:31:11Z</time>
      </trkpt>
      <trkpt lat="45.19717" lon="0.69874">
        <ele>88</ele>
        <time>2025-06-15T06:31:12Z</time>
      </trkpt>
      <trkpt lat="45.19716" lon="0.69874">
        <ele>88</ele>
        <time>2025-06-15T06:31:13Z</time>
      </trkpt>
      <trkpt lat="45.19715" lon="0.69875">
        <ele>88</ele>
        <time>2025-06-15T06:31:14Z</time>
      </trkpt>
      <trkpt lat="45.19715" lon="0.69875">
        <ele>88</ele>
        <time>2025-06-15T06:31:15Z</time>
      </trkpt>
      <trkpt lat="45.19714" lon="0.69875">
        <ele>88</ele>
        <time>2025-06-15T06:31:16Z</time>
      </trkpt>
      <trkpt lat="45.19714" lon="0.69875">
        <ele>87.8</ele>
        <time>2025-06-15T06:31:17Z</time>
      </trkpt>
      <trkpt lat="45.19713" lon="0.69876">
        <ele>87.8</ele>
        <time>2025-06-15T06:31:18Z</time>
      </trkpt>
      <trkpt lat="45.19712" lon="0.69876">
        <ele>87.8</ele>
        <time>2025-06-15T06:31:19Z</time>
      </trkpt>
      <trkpt lat="45.19711" lon="0.69876">
        <ele>87.8</ele>
        <time>2025-06-15T06:31:20Z</time>
      </trkpt>
      <trkpt lat="45.19711" lon="0.69876">
        <ele>87.8</ele>
        <time>2025-06-15T06:31:21Z</time>
      </trkpt>
      <trkpt lat="45.1971" lon="0.69876">
        <ele>87.8</ele>
        <time>2025-06-15T06:31:22Z</time>
      </trkpt>
      <trkpt lat="45.1971" lon="0.69876">
        <ele>87.8</ele>
        <time>2025-06-15T06:31:23Z</time>
      </trkpt>
      <trkpt lat="45.19709" lon="0.69876">
        <ele>87.8</ele>
        <time>2025-06-15T06:31:24Z</time>
      </trkpt>
      <trkpt lat="45.19708" lon="0.69876">
        <ele>88</ele>
        <time>2025-06-15T06:31:25Z</time>
      </trkpt>
      <trkpt lat="45.19708" lon="0.69875">
        <ele>88</ele>
        <time>2025-06-15T06:31:26Z</time>
      </trkpt>
      <trkpt lat="45.19706" lon="0.69875">
        <ele>88</ele>
        <time>2025-06-15T06:31:27Z</time>
      </trkpt>
      <trkpt lat="45.19706" lon="0.69874">
        <ele>87.8</ele>
        <time>2025-06-15T06:31:28Z</time>
      </trkpt>
      <trkpt lat="45.19705" lon="0.69874">
        <ele>87.8</ele>
        <time>2025-06-15T06:31:29Z</time>
      </trkpt>
      <trkpt lat="45.19703" lon="0.69874">
        <ele>87.8</ele>
        <time>2025-06-15T06:31:30Z</time>
      </trkpt>
      <trkpt lat="45.19702" lon="0.69874">
        <ele>87.8</ele>
        <time>2025-06-15T06:31:31Z</time>
      </trkpt>
      <trkpt lat="45.197" lon="0.69873">
        <ele>87.8</ele>
        <time>2025-06-15T06:31:32Z</time>
      </trkpt>
      <trkpt lat="45.19699" lon="0.69872">
        <ele>87.8</ele>
        <time>2025-06-15T06:31:33Z</time>
      </trkpt>
      <trkpt lat="45.19697" lon="0.69871">
        <ele>87.8</ele>
        <time>2025-06-15T06:31:34Z</time>
      </trkpt>
      <trkpt lat="45.19696" lon="0.6987">
        <ele>87.8</ele>
        <time>2025-06-15T06:31:35Z</time>
      </trkpt>
      <trkpt lat="45.19695" lon="0.69869">
        <ele>87.8</ele>
        <time>2025-06-15T06:31:36Z</time>
      </trkpt>
      <trkpt lat="45.19694" lon="0.69868">
        <ele>87.8</ele>
        <time>2025-06-15T06:31:37Z</time>
      </trkpt>
      <trkpt lat="45.19694" lon="0.69867">
        <ele>87.8</ele>
        <time>2025-06-15T06:31:38Z</time>
      </trkpt>
      <trkpt lat="45.19693" lon="0.69866">
        <ele>87.8</ele>
        <time>2025-06-15T06:31:39Z</time>
      </trkpt>
      <trkpt lat="45.19691" lon="0.69866">
        <ele>87.8</ele>
        <time>2025-06-15T06:31:40Z</time>
      </trkpt>
      <trkpt lat="45.1969" lon="0.69865">
        <ele>87.8</ele>
        <time>2025-06-15T06:31:41Z</time>
      </trkpt>
      <trkpt lat="45.19689" lon="0.69864">
        <ele>88</ele>
        <time>2025-06-15T06:31:42Z</time>
      </trkpt>
      <trkpt lat="45.19688" lon="0.69863">
        <ele>88</ele>
        <time>2025-06-15T06:31:43Z</time>
      </trkpt>
      <trkpt lat="45.19687" lon="0.69862">
        <ele>88</ele>
        <time>2025-06-15T06:31:44Z</time>
      </trkpt>
      <trkpt lat="45.19686" lon="0.69861">
        <ele>88</ele>
        <time>2025-06-15T06:31:45Z</time>
      </trkpt>
      <trkpt lat="45.19684" lon="0.6986">
        <ele>88</ele>
        <time>2025-06-15T06:31:46Z</time>
      </trkpt>
      <trkpt lat="45.19682" lon="0.69858">
        <ele>87.8</ele>
        <time>2025-06-15T06:31:47Z</time>
      </trkpt>
      <trkpt lat="45.19681" lon="0.69856">
        <ele>87.8</ele>
        <time>2025-06-15T06:31:48Z</time>
      </trkpt>
      <trkpt lat="45.19679" lon="0.69854">
        <ele>87.8</ele>
        <time>2025-06-15T06:31:49Z</time>
      </trkpt>
      <trkpt lat="45.19676" lon="0.69852">
        <ele>87.8</ele>
        <time>2025-06-15T06:31:50Z</time>
      </trkpt>
      <trkpt lat="45.19674" lon="0.69849">
        <ele>87.8</ele>
        <time>2025-06-15T06:31:51Z</time>
      </trkpt>
      <trkpt lat="45.19671" lon="0.69846">
        <ele>87.8</ele>
        <time>2025-06-15T06:31:52Z</time>
      </trkpt>
      <trkpt lat="45.19669" lon="0.69843">
        <ele>87.8</ele>
        <time>2025-06-15T06:31:53Z</time>
      </trkpt>
      <trkpt lat="45.19666" lon="0.6984">
        <ele>87.8</ele>
        <time>2025-06-15T06:31:54Z</time>
      </trkpt>
      <trkpt lat="45.19664" lon="0.69837">
        <ele>87.8</ele>
        <time>2025-06-15T06:31:55Z</time>
      </trkpt>
      <trkpt lat="45.19662" lon="0.69834">
        <ele>87.8</ele>
        <time>2025-06-15T06:31:56Z</time>
      </trkpt>
      <trkpt lat="45.19659" lon="0.69831">
        <ele>87.8</ele>
        <time>2025-06-15T06:31:57Z</time>
      </trkpt>
      <trkpt lat="45.19657" lon="0.69828">
        <ele>87.8</ele>
        <time>2025-06-15T06:31:58Z</time>
      </trkpt>
      <trkpt lat="45.19655" lon="0.69825">
        <ele>87.8</ele>
        <time>2025-06-15T06:31:59Z</time>
      </trkpt>
      <trkpt lat="45.19653" lon="0.69822">
        <ele>87.8</ele>
        <time>2025-06-15T06:32:00Z</time>
      </trkpt>
      <trkpt lat="45.19651" lon="0.69818">
        <ele>87.8</ele>
        <time>2025-06-15T06:32:01Z</time>
      </trkpt>
      <trkpt lat="45.19648" lon="0.69814">
        <ele>87.8</ele>
        <time>2025-06-15T06:32:02Z</time>
      </trkpt>
      <trkpt lat="45.19646" lon="0.6981">
        <ele>87.8</ele>
        <time>2025-06-15T06:32:03Z</time>
      </trkpt>
      <trkpt lat="45.19643" lon="0.69806">
        <ele>87.8</ele>
        <time>2025-06-15T06:32:04Z</time>
      </trkpt>
      <trkpt lat="45.19641" lon="0.69802">
        <ele>87.8</ele>
        <time>2025-06-15T06:32:05Z</time>
      </trkpt>
      <trkpt lat="45.19639" lon="0.69798">
        <ele>87.8</ele>
        <time>2025-06-15T06:32:06Z</time>
      </trkpt>
      <trkpt lat="45.19637" lon="0.69793">
        <ele>87.8</ele>
        <time>2025-06-15T06:32:07Z</time>
      </trkpt>
      <trkpt lat="45.19635" lon="0.69788">
        <ele>87.8</ele>
        <time>2025-06-15T06:32:08Z</time>
      </trkpt>
      <trkpt lat="45.19633" lon="0.69783">
        <ele>87.8</ele>
        <time>2025-06-15T06:32:09Z</time>
      </trkpt>
      <trkpt lat="45.19632" lon="0.69778">
        <ele>87.8</ele>
        <time>2025-06-15T06:32:10Z</time>
      </trkpt>
      <trkpt lat="45.1963" lon="0.69773">
        <ele>87.8</ele>
        <time>2025-06-15T06:32:11Z</time>
      </trkpt>
      <trkpt lat="45.19629" lon="0.69768">
        <ele>87.8</ele>
        <time>2025-06-15T06:32:12Z</time>
      </trkpt>
      <trkpt lat="45.19628" lon="0.69763">
        <ele>87.8</ele>
        <time>2025-06-15T06:32:13Z</time>
      </trkpt>
      <trkpt lat="45.19627" lon="0.69759">
        <ele>87.8</ele>
        <time>2025-06-15T06:32:14Z</time>
      </trkpt>
      <trkpt lat="45.19626" lon="0.69755">
        <ele>87.8</ele>
        <time>2025-06-15T06:32:15Z</time>
      </trkpt>
      <trkpt lat="45.19625" lon="0.69751">
        <ele>87.8</ele>
        <time>2025-06-15T06:32:16Z</time>
      </trkpt>
      <trkpt lat="45.19624" lon="0.69746">
        <ele>87.8</ele>
        <time>2025-06-15T06:32:17Z</time>
      </trkpt>
      <trkpt lat="45.19623" lon="0.69742">
        <ele>88</ele>
        <time>2025-06-15T06:32:18Z</time>
      </trkpt>
      <trkpt lat="45.19622" lon="0.69737">
        <ele>88</ele>
        <time>2025-06-15T06:32:19Z</time>
      </trkpt>
      <trkpt lat="45.19622" lon="0.69732">
        <ele>88</ele>
        <time>2025-06-15T06:32:20Z</time>
      </trkpt>
      <trkpt lat="45.19621" lon="0.69727">
        <ele>88</ele>
        <time>2025-06-15T06:32:21Z</time>
      </trkpt>
      <trkpt lat="45.1962" lon="0.69722">
        <ele>88</ele>
        <time>2025-06-15T06:32:22Z</time>
      </trkpt>
      <trkpt lat="45.19619" lon="0.69717">
        <ele>88</ele>
        <time>2025-06-15T06:32:23Z</time>
      </trkpt>
      <trkpt lat="45.19618" lon="0.69712">
        <ele>88</ele>
        <time>2025-06-15T06:32:24Z</time>
      </trkpt>
      <trkpt lat="45.19618" lon="0.69706">
        <ele>88</ele>
        <time>2025-06-15T06:32:25Z</time>
      </trkpt>
      <trkpt lat="45.19617" lon="0.697">
        <ele>88</ele>
        <time>2025-06-15T06:32:26Z</time>
      </trkpt>
      <trkpt lat="45.19616" lon="0.69695">
        <ele>88</ele>
        <time>2025-06-15T06:32:27Z</time>
      </trkpt>
      <trkpt lat="45.19615" lon="0.6969">
        <ele>88.2</ele>
        <time>2025-06-15T06:32:28Z</time>
      </trkpt>
      <trkpt lat="45.19615" lon="0.69684">
        <ele>88.2</ele>
        <time>2025-06-15T06:32:29Z</time>
      </trkpt>
      <trkpt lat="45.19614" lon="0.69678">
        <ele>88</ele>
        <time>2025-06-15T06:32:30Z</time>
      </trkpt>
      <trkpt lat="45.19614" lon="0.69673">
        <ele>88</ele>
        <time>2025-06-15T06:32:31Z</time>
      </trkpt>
      <trkpt lat="45.19613" lon="0.69667">
        <ele>88</ele>
        <time>2025-06-15T06:32:32Z</time>
      </trkpt>
      <trkpt lat="45.19613" lon="0.69662">
        <ele>88.2</ele>
        <time>2025-06-15T06:32:33Z</time>
      </trkpt>
      <trkpt lat="45.19612" lon="0.69657">
        <ele>88.2</ele>
        <time>2025-06-15T06:32:34Z</time>
      </trkpt>
      <trkpt lat="45.19612" lon="0.69653">
        <ele>88.2</ele>
        <time>2025-06-15T06:32:35Z</time>
      </trkpt>
      <trkpt lat="45.19612" lon="0.69648">
        <ele>88.4</ele>
        <time>2025-06-15T06:32:36Z</time>
      </trkpt>
      <trkpt lat="45.19612" lon="0.69642">
        <ele>88.4</ele>
        <time>2025-06-15T06:32:37Z</time>
      </trkpt>
      <trkpt lat="45.19611" lon="0.69637">
        <ele>88.4</ele>
        <time>2025-06-15T06:32:38Z</time>
      </trkpt>
      <trkpt lat="45.19611" lon="0.69632">
        <ele>88.6</ele>
        <time>2025-06-15T06:32:39Z</time>
      </trkpt>
      <trkpt lat="45.19611" lon="0.69626">
        <ele>88.6</ele>
        <time>2025-06-15T06:32:40Z</time>
      </trkpt>
      <trkpt lat="45.19611" lon="0.69621">
        <ele>88.6</ele>
        <time>2025-06-15T06:32:41Z</time>
      </trkpt>
      <trkpt lat="45.19611" lon="0.69616">
        <ele>88.6</ele>
        <time>2025-06-15T06:32:42Z</time>
      </trkpt>
      <trkpt lat="45.19611" lon="0.69611">
        <ele>88.8</ele>
        <time>2025-06-15T06:32:43Z</time>
      </trkpt>
      <trkpt lat="45.19611" lon="0.69606">
        <ele>88.8</ele>
        <time>2025-06-15T06:32:44Z</time>
      </trkpt>
      <trkpt lat="45.1961" lon="0.69601">
        <ele>88.8</ele>
        <time>2025-06-15T06:32:45Z</time>
      </trkpt>
      <trkpt lat="45.1961" lon="0.69596">
        <ele>88.8</ele>
        <time>2025-06-15T06:32:46Z</time>
      </trkpt>
      <trkpt lat="45.1961" lon="0.6959">
        <ele>88.8</ele>
        <time>2025-06-15T06:32:47Z</time>
      </trkpt>
      <trkpt lat="45.1961" lon="0.69585">
        <ele>88.6</ele>
        <time>2025-06-15T06:32:48Z</time>
      </trkpt>
      <trkpt lat="45.1961" lon="0.69579">
        <ele>88.6</ele>
        <time>2025-06-15T06:32:49Z</time>
      </trkpt>
      <trkpt lat="45.1961" lon="0.69573">
        <ele>88.6</ele>
        <time>2025-06-15T06:32:50Z</time>
      </trkpt>
      <trkpt lat="45.19611" lon="0.69567">
        <ele>88.4</ele>
        <time>2025-06-15T06:32:51Z</time>
      </trkpt>
      <trkpt lat="45.19611" lon="0.69561">
        <ele>88.2</ele>
        <time>2025-06-15T06:32:52Z</time>
      </trkpt>
      <trkpt lat="45.19611" lon="0.69553">
        <ele>88.2</ele>
        <time>2025-06-15T06:32:53Z</time>
      </trkpt>
      <trkpt lat="45.19611" lon="0.69547">
        <ele>88</ele>
        <time>2025-06-15T06:32:54Z</time>
      </trkpt>
      <trkpt lat="45.19611" lon="0.6954">
        <ele>87.8</ele>
        <time>2025-06-15T06:32:55Z</time>
      </trkpt>
      <trkpt lat="45.19611" lon="0.69533">
        <ele>87.6</ele>
        <time>2025-06-15T06:32:56Z</time>
      </trkpt>
      <trkpt lat="45.19611" lon="0.69527">
        <ele>87.6</ele>
        <time>2025-06-15T06:32:57Z</time>
      </trkpt>
      <trkpt lat="45.19611" lon="0.69521">
        <ele>87.6</ele>
        <time>2025-06-15T06:32:58Z</time>
      </trkpt>
      <trkpt lat="45.19611" lon="0.69516">
        <ele>87.6</ele>
        <time>2025-06-15T06:32:59Z</time>
      </trkpt>
      <trkpt lat="45.19611" lon="0.6951">
        <ele>87.6</ele>
        <time>2025-06-15T06:33:00Z</time>
      </trkpt>
      <trkpt lat="45.19611" lon="0.69504">
        <ele>87.6</ele>
        <time>2025-06-15T06:33:01Z</time>
      </trkpt>
      <trkpt lat="45.19611" lon="0.69499">
        <ele>87.6</ele>
        <time>2025-06-15T06:33:02Z</time>
      </trkpt>
      <trkpt lat="45.19611" lon="0.69493">
        <ele>87.6</ele>
        <time>2025-06-15T06:33:03Z</time>
      </trkpt>
      <trkpt lat="45.19611" lon="0.69488">
        <ele>87.4</ele>
        <time>2025-06-15T06:33:04Z</time>
      </trkpt>
      <trkpt lat="45.19611" lon="0.69481">
        <ele>87.4</ele>
        <time>2025-06-15T06:33:05Z</time>
      </trkpt>
      <trkpt lat="45.1961" lon="0.69475">
        <ele>87.4</ele>
        <time>2025-06-15T06:33:06Z</time>
      </trkpt>
      <trkpt lat="45.1961" lon="0.69469">
        <ele>87.4</ele>
        <time>2025-06-15T06:33:07Z</time>
      </trkpt>
      <trkpt lat="45.1961" lon="0.69463">
        <ele>87.4</ele>
        <time>2025-06-15T06:33:08Z</time>
      </trkpt>
      <trkpt lat="45.1961" lon="0.69457">
        <ele>87.4</ele>
        <time>2025-06-15T06:33:09Z</time>
      </trkpt>
      <trkpt lat="45.19609" lon="0.69451">
        <ele>87.4</ele>
        <time>2025-06-15T06:33:10Z</time>
      </trkpt>
      <trkpt lat="45.19609" lon="0.69445">
        <ele>87.4</ele>
        <time>2025-06-15T06:33:11Z</time>
      </trkpt>
      <trkpt lat="45.19609" lon="0.69439">
        <ele>87.4</ele>
        <time>2025-06-15T06:33:12Z</time>
      </trkpt>
      <trkpt lat="45.19609" lon="0.69433">
        <ele>87.4</ele>
        <time>2025-06-15T06:33:13Z</time>
      </trkpt>
      <trkpt lat="45.19609" lon="0.69427">
        <ele>87.4</ele>
        <time>2025-06-15T06:33:14Z</time>
      </trkpt>
      <trkpt lat="45.19609" lon="0.69422">
        <ele>87.4</ele>
        <time>2025-06-15T06:33:15Z</time>
      </trkpt>
      <trkpt lat="45.19609" lon="0.69416">
        <ele>87.4</ele>
        <time>2025-06-15T06:33:16Z</time>
      </trkpt>
      <trkpt lat="45.19609" lon="0.69411">
        <ele>87.4</ele>
        <time>2025-06-15T06:33:17Z</time>
      </trkpt>
      <trkpt lat="45.19609" lon="0.69406">
        <ele>87.4</ele>
        <time>2025-06-15T06:33:18Z</time>
      </trkpt>
      <trkpt lat="45.19609" lon="0.69399">
        <ele>87.4</ele>
        <time>2025-06-15T06:33:19Z</time>
      </trkpt>
      <trkpt lat="45.19609" lon="0.69393">
        <ele>87.4</ele>
        <time>2025-06-15T06:33:20Z</time>
      </trkpt>
      <trkpt lat="45.19609" lon="0.69387">
        <ele>87.4</ele>
        <time>2025-06-15T06:33:21Z</time>
      </trkpt>
      <trkpt lat="45.19609" lon="0.6938">
        <ele>87.4</ele>
        <time>2025-06-15T06:33:22Z</time>
      </trkpt>
      <trkpt lat="45.19608" lon="0.69374">
        <ele>87.6</ele>
        <time>2025-06-15T06:33:23Z</time>
      </trkpt>
      <trkpt lat="45.19608" lon="0.69367">
        <ele>87.6</ele>
        <time>2025-06-15T06:33:24Z</time>
      </trkpt>
      <trkpt lat="45.19608" lon="0.69362">
        <ele>87.6</ele>
        <time>2025-06-15T06:33:25Z</time>
      </trkpt>
      <trkpt lat="45.19608" lon="0.69357">
        <ele>87.8</ele>
        <time>2025-06-15T06:33:26Z</time>
      </trkpt>
      <trkpt lat="45.19608" lon="0.69353">
        <ele>87.8</ele>
        <time>2025-06-15T06:33:27Z</time>
      </trkpt>
      <trkpt lat="45.19607" lon="0.6935">
        <ele>87.8</ele>
        <time>2025-06-15T06:33:28Z</time>
      </trkpt>
      <trkpt lat="45.19607" lon="0.69346">
        <ele>88</ele>
        <time>2025-06-15T06:33:29Z</time>
      </trkpt>
      <trkpt lat="45.19605" lon="0.69344">
        <ele>88</ele>
        <time>2025-06-15T06:33:30Z</time>
      </trkpt>
      <trkpt lat="45.19602" lon="0.69342">
        <ele>88</ele>
        <time>2025-06-15T06:33:31Z</time>
      </trkpt>
      <trkpt lat="45.19598" lon="0.69341">
        <ele>88.2</ele>
        <time>2025-06-15T06:33:32Z</time>
      </trkpt>
      <trkpt lat="45.19594" lon="0.69341">
        <ele>88.2</ele>
        <time>2025-06-15T06:33:33Z</time>
      </trkpt>
      <trkpt lat="45.1959" lon="0.69342">
        <ele>88.2</ele>
        <time>2025-06-15T06:33:34Z</time>
      </trkpt>
      <trkpt lat="45.19586" lon="0.69343">
        <ele>88.2</ele>
        <time>2025-06-15T06:33:35Z</time>
      </trkpt>
      <trkpt lat="45.19581" lon="0.69342">
        <ele>88.4</ele>
        <time>2025-06-15T06:33:36Z</time>
      </trkpt>
      <trkpt lat="45.19578" lon="0.69341">
        <ele>88.4</ele>
        <time>2025-06-15T06:33:37Z</time>
      </trkpt>
      <trkpt lat="45.19576" lon="0.69337">
        <ele>88.6</ele>
        <time>2025-06-15T06:33:38Z</time>
      </trkpt>
      <trkpt lat="45.19575" lon="0.69333">
        <ele>88.8</ele>
        <time>2025-06-15T06:33:39Z</time>
      </trkpt>
      <trkpt lat="45.19575" lon="0.69327">
        <ele>89</ele>
        <time>2025-06-15T06:33:40Z</time>
      </trkpt>
      <trkpt lat="45.19575" lon="0.6932">
        <ele>89.2</ele>
        <time>2025-06-15T06:33:41Z</time>
      </trkpt>
      <trkpt lat="45.19575" lon="0.69312">
        <ele>89.2</ele>
        <time>2025-06-15T06:33:42Z</time>
      </trkpt>
      <trkpt lat="45.19575" lon="0.69305">
        <ele>89.2</ele>
        <time>2025-06-15T06:33:43Z</time>
      </trkpt>
      <trkpt lat="45.19574" lon="0.69296">
        <ele>89.2</ele>
        <time>2025-06-15T06:33:44Z</time>
      </trkpt>
      <trkpt lat="45.19574" lon="0.69286">
        <ele>89.2</ele>
        <time>2025-06-15T06:33:45Z</time>
      </trkpt>
      <trkpt lat="45.19573" lon="0.69275">
        <ele>89</ele>
        <time>2025-06-15T06:33:46Z</time>
      </trkpt>
      <trkpt lat="45.19573" lon="0.69264">
        <ele>88.6</ele>
        <time>2025-06-15T06:33:47Z</time>
      </trkpt>
      <trkpt lat="45.19572" lon="0.69253">
        <ele>88.4</ele>
        <time>2025-06-15T06:33:48Z</time>
      </trkpt>
      <trkpt lat="45.19571" lon="0.69242">
        <ele>88</ele>
        <time>2025-06-15T06:33:49Z</time>
      </trkpt>
      <trkpt lat="45.19571" lon="0.69231">
        <ele>87.6</ele>
        <time>2025-06-15T06:33:50Z</time>
      </trkpt>
      <trkpt lat="45.1957" lon="0.69219">
        <ele>87.2</ele>
        <time>2025-06-15T06:33:51Z</time>
      </trkpt>
      <trkpt lat="45.19569" lon="0.69208">
        <ele>87</ele>
        <time>2025-06-15T06:33:52Z</time>
      </trkpt>
      <trkpt lat="45.19569" lon="0.69197">
        <ele>86.8</ele>
        <time>2025-06-15T06:33:53Z</time>
      </trkpt>
      <trkpt lat="45.19569" lon="0.69186">
        <ele>86.6</ele>
        <time>2025-06-15T06:33:54Z</time>
      </trkpt>
      <trkpt lat="45.19568" lon="0.69175">
        <ele>86.4</ele>
        <time>2025-06-15T06:33:55Z</time>
      </trkpt>
      <trkpt lat="45.19568" lon="0.69165">
        <ele>86.4</ele>
        <time>2025-06-15T06:33:56Z</time>
      </trkpt>
      <trkpt lat="45.19567" lon="0.69155">
        <ele>86.2</ele>
        <time>2025-06-15T06:33:57Z</time>
      </trkpt>
      <trkpt lat="45.19567" lon="0.69145">
        <ele>86.4</ele>
        <time>2025-06-15T06:33:58Z</time>
      </trkpt>
      <trkpt lat="45.19566" lon="0.69135">
        <ele>86.2</ele>
        <time>2025-06-15T06:33:59Z</time>
      </trkpt>
      <trkpt lat="45.19566" lon="0.69126">
        <ele>86.2</ele>
        <time>2025-06-15T06:34:00Z</time>
      </trkpt>
      <trkpt lat="45.19565" lon="0.69117">
        <ele>86.2</ele>
        <time>2025-06-15T06:34:01Z</time>
      </trkpt>
      <trkpt lat="45.19565" lon="0.69109">
        <ele>86.2</ele>
        <time>2025-06-15T06:34:02Z</time>
      </trkpt>
      <trkpt lat="45.19565" lon="0.691">
        <ele>86</ele>
        <time>2025-06-15T06:34:03Z</time>
      </trkpt>
      <trkpt lat="45.19564" lon="0.69092">
        <ele>86</ele>
        <time>2025-06-15T06:34:04Z</time>
      </trkpt>
      <trkpt lat="45.19563" lon="0.69083">
        <ele>86.2</ele>
        <time>2025-06-15T06:34:05Z</time>
      </trkpt>
      <trkpt lat="45.19562" lon="0.69075">
        <ele>86.2</ele>
        <time>2025-06-15T06:34:06Z</time>
      </trkpt>
      <trkpt lat="45.19562" lon="0.69067">
        <ele>86.2</ele>
        <time>2025-06-15T06:34:07Z</time>
      </trkpt>
      <trkpt lat="45.19562" lon="0.69058">
        <ele>86.2</ele>
        <time>2025-06-15T06:34:08Z</time>
      </trkpt>
      <trkpt lat="45.19561" lon="0.69049">
        <ele>86.2</ele>
        <time>2025-06-15T06:34:09Z</time>
      </trkpt>
      <trkpt lat="45.1956" lon="0.6904">
        <ele>86.4</ele>
        <time>2025-06-15T06:34:10Z</time>
      </trkpt>
      <trkpt lat="45.19559" lon="0.69031">
        <ele>86.2</ele>
        <time>2025-06-15T06:34:11Z</time>
      </trkpt>
      <trkpt lat="45.19558" lon="0.69022">
        <ele>86.2</ele>
        <time>2025-06-15T06:34:12Z</time>
      </trkpt>
      <trkpt lat="45.19557" lon="0.69013">
        <ele>86.4</ele>
        <time>2025-06-15T06:34:13Z</time>
      </trkpt>
      <trkpt lat="45.19556" lon="0.69005">
        <ele>86.4</ele>
        <time>2025-06-15T06:34:14Z</time>
      </trkpt>
      <trkpt lat="45.19554" lon="0.68996">
        <ele>86.4</ele>
        <time>2025-06-15T06:34:15Z</time>
      </trkpt>
      <trkpt lat="45.19553" lon="0.68988">
        <ele>86.4</ele>
        <time>2025-06-15T06:34:16Z</time>
      </trkpt>
      <trkpt lat="45.19552" lon="0.68979">
        <ele>86.4</ele>
        <time>2025-06-15T06:34:17Z</time>
      </trkpt>
      <trkpt lat="45.19551" lon="0.68971">
        <ele>86.4</ele>
        <time>2025-06-15T06:34:18Z</time>
      </trkpt>
      <trkpt lat="45.19551" lon="0.68963">
        <ele>86.6</ele>
        <time>2025-06-15T06:34:19Z</time>
      </trkpt>
      <trkpt lat="45.1955" lon="0.68955">
        <ele>86.6</ele>
        <time>2025-06-15T06:34:20Z</time>
      </trkpt>
      <trkpt lat="45.19548" lon="0.68947">
        <ele>86.8</ele>
        <time>2025-06-15T06:34:21Z</time>
      </trkpt>
      <trkpt lat="45.19546" lon="0.68938">
        <ele>86.8</ele>
        <time>2025-06-15T06:34:22Z</time>
      </trkpt>
      <trkpt lat="45.19544" lon="0.68929">
        <ele>86.8</ele>
        <time>2025-06-15T06:34:23Z</time>
      </trkpt>
      <trkpt lat="45.19543" lon="0.68919">
        <ele>86.6</ele>
        <time>2025-06-15T06:34:24Z</time>
      </trkpt>
      <trkpt lat="45.19541" lon="0.68911">
        <ele>86.4</ele>
        <time>2025-06-15T06:34:25Z</time>
      </trkpt>
      <trkpt lat="45.1954" lon="0.68903">
        <ele>86.2</ele>
        <time>2025-06-15T06:34:26Z</time>
      </trkpt>
      <trkpt lat="45.19539" lon="0.68896">
        <ele>86</ele>
        <time>2025-06-15T06:34:27Z</time>
      </trkpt>
      <trkpt lat="45.19538" lon="0.68891">
        <ele>85.8</ele>
        <time>2025-06-15T06:34:28Z</time>
      </trkpt>
      <trkpt lat="45.19537" lon="0.68885">
        <ele>85.8</ele>
        <time>2025-06-15T06:34:29Z</time>
      </trkpt>
      <trkpt lat="45.19536" lon="0.6888">
        <ele>85.8</ele>
        <time>2025-06-15T06:34:30Z</time>
      </trkpt>
      <trkpt lat="45.19535" lon="0.68875">
        <ele>85.8</ele>
        <time>2025-06-15T06:34:31Z</time>
      </trkpt>
      <trkpt lat="45.19534" lon="0.68872">
        <ele>85.6</ele>
        <time>2025-06-15T06:34:32Z</time>
      </trkpt>
      <trkpt lat="45.19533" lon="0.68868">
        <ele>85.6</ele>
        <time>2025-06-15T06:34:33Z</time>
      </trkpt>
      <trkpt lat="45.19533" lon="0.68864">
        <ele>85.6</ele>
        <time>2025-06-15T06:34:34Z</time>
      </trkpt>
      <trkpt lat="45.19532" lon="0.68861">
        <ele>85.6</ele>
        <time>2025-06-15T06:34:35Z</time>
      </trkpt>
      <trkpt lat="45.19531" lon="0.68857">
        <ele>85.6</ele>
        <time>2025-06-15T06:34:36Z</time>
      </trkpt>
      <trkpt lat="45.1953" lon="0.68853">
        <ele>85.6</ele>
        <time>2025-06-15T06:34:37Z</time>
      </trkpt>
      <trkpt lat="45.19528" lon="0.68848">
        <ele>85.4</ele>
        <time>2025-06-15T06:34:38Z</time>
      </trkpt>
      <trkpt lat="45.19527" lon="0.68843">
        <ele>85.4</ele>
        <time>2025-06-15T06:34:39Z</time>
      </trkpt>
      <trkpt lat="45.19526" lon="0.68838">
        <ele>85.2</ele>
        <time>2025-06-15T06:34:40Z</time>
      </trkpt>
      <trkpt lat="45.19524" lon="0.68832">
        <ele>85.2</ele>
        <time>2025-06-15T06:34:41Z</time>
      </trkpt>
      <trkpt lat="45.19522" lon="0.68826">
        <ele>85.2</ele>
        <time>2025-06-15T06:34:42Z</time>
      </trkpt>
      <trkpt lat="45.1952" lon="0.6882">
        <ele>85</ele>
        <time>2025-06-15T06:34:43Z</time>
      </trkpt>
      <trkpt lat="45.19519" lon="0.68814">
        <ele>85</ele>
        <time>2025-06-15T06:34:44Z</time>
      </trkpt>
      <trkpt lat="45.19517" lon="0.68808">
        <ele>85</ele>
        <time>2025-06-15T06:34:45Z</time>
      </trkpt>
      <trkpt lat="45.19515" lon="0.68802">
        <ele>85</ele>
        <time>2025-06-15T06:34:46Z</time>
      </trkpt>
      <trkpt lat="45.19514" lon="0.68796">
        <ele>85.2</ele>
        <time>2025-06-15T06:34:47Z</time>
      </trkpt>
      <trkpt lat="45.19513" lon="0.6879">
        <ele>85</ele>
        <time>2025-06-15T06:34:48Z</time>
      </trkpt>
      <trkpt lat="45.19511" lon="0.68784">
        <ele>85</ele>
        <time>2025-06-15T06:34:49Z</time>
      </trkpt>
      <trkpt lat="45.19509" lon="0.68777">
        <ele>85</ele>
        <time>2025-06-15T06:34:50Z</time>
      </trkpt>
      <trkpt lat="45.19507" lon="0.6877">
        <ele>85</ele>
        <time>2025-06-15T06:34:51Z</time>
      </trkpt>
      <trkpt lat="45.19505" lon="0.68764">
        <ele>85</ele>
        <time>2025-06-15T06:34:52Z</time>
      </trkpt>
      <trkpt lat="45.19503" lon="0.68756">
        <ele>85</ele>
        <time>2025-06-15T06:34:53Z</time>
      </trkpt>
      <trkpt lat="45.19501" lon="0.6875">
        <ele>84.8</ele>
        <time>2025-06-15T06:34:54Z</time>
      </trkpt>
      <trkpt lat="45.19499" lon="0.68743">
        <ele>85</ele>
        <time>2025-06-15T06:34:55Z</time>
      </trkpt>
      <trkpt lat="45.19497" lon="0.68736">
        <ele>84.8</ele>
        <time>2025-06-15T06:34:56Z</time>
      </trkpt>
      <trkpt lat="45.19495" lon="0.68729">
        <ele>84.8</ele>
        <time>2025-06-15T06:34:57Z</time>
      </trkpt>
      <trkpt lat="45.19493" lon="0.68723">
        <ele>85</ele>
        <time>2025-06-15T06:34:58Z</time>
      </trkpt>
      <trkpt lat="45.19491" lon="0.68716">
        <ele>85.2</ele>
        <time>2025-06-15T06:34:59Z</time>
      </trkpt>
      <trkpt lat="45.19489" lon="0.6871">
        <ele>85.4</ele>
        <time>2025-06-15T06:35:00Z</time>
      </trkpt>
      <trkpt lat="45.19487" lon="0.68703">
        <ele>85.6</ele>
        <time>2025-06-15T06:35:01Z</time>
      </trkpt>
      <trkpt lat="45.19486" lon="0.68696">
        <ele>85.8</ele>
        <time>2025-06-15T06:35:02Z</time>
      </trkpt>
      <trkpt lat="45.19484" lon="0.6869">
        <ele>85.8</ele>
        <time>2025-06-15T06:35:03Z</time>
      </trkpt>
      <trkpt lat="45.19482" lon="0.68684">
        <ele>86</ele>
        <time>2025-06-15T06:35:04Z</time>
      </trkpt>
      <trkpt lat="45.19481" lon="0.68678">
        <ele>86</ele>
        <time>2025-06-15T06:35:05Z</time>
      </trkpt>
      <trkpt lat="45.19479" lon="0.68671">
        <ele>86</ele>
        <time>2025-06-15T06:35:06Z</time>
      </trkpt>
      <trkpt lat="45.19477" lon="0.68664">
        <ele>86</ele>
        <time>2025-06-15T06:35:07Z</time>
      </trkpt>
      <trkpt lat="45.19475" lon="0.68657">
        <ele>86</ele>
        <time>2025-06-15T06:35:08Z</time>
      </trkpt>
      <trkpt lat="45.19472" lon="0.68649">
        <ele>86</ele>
        <time>2025-06-15T06:35:09Z</time>
      </trkpt>
      <trkpt lat="45.19469" lon="0.68641">
        <ele>85.8</ele>
        <time>2025-06-15T06:35:10Z</time>
      </trkpt>
      <trkpt lat="45.19465" lon="0.68634">
        <ele>85.8</ele>
        <time>2025-06-15T06:35:11Z</time>
      </trkpt>
      <trkpt lat="45.19459" lon="0.68628">
        <ele>85.8</ele>
        <time>2025-06-15T06:35:12Z</time>
      </trkpt>
      <trkpt lat="45.19453" lon="0.68624">
        <ele>85.8</ele>
        <time>2025-06-15T06:35:13Z</time>
      </trkpt>
      <trkpt lat="45.19448" lon="0.6862">
        <ele>85.8</ele>
        <time>2025-06-15T06:35:14Z</time>
      </trkpt>
      <trkpt lat="45.19444" lon="0.68615">
        <ele>86.2</ele>
        <time>2025-06-15T06:35:15Z</time>
      </trkpt>
      <trkpt lat="45.1944" lon="0.68611">
        <ele>86.6</ele>
        <time>2025-06-15T06:35:16Z</time>
      </trkpt>
      <trkpt lat="45.19436" lon="0.68609">
        <ele>87.2</ele>
        <time>2025-06-15T06:35:17Z</time>
      </trkpt>
      <trkpt lat="45.19432" lon="0.68606">
        <ele>88</ele>
        <time>2025-06-15T06:35:18Z</time>
      </trkpt>
      <trkpt lat="45.19428" lon="0.68603">
        <ele>88.8</ele>
        <time>2025-06-15T06:35:19Z</time>
      </trkpt>
      <trkpt lat="45.19426" lon="0.68598">
        <ele>89.4</ele>
        <time>2025-06-15T06:35:20Z</time>
      </trkpt>
      <trkpt lat="45.19423" lon="0.68591">
        <ele>89.8</ele>
        <time>2025-06-15T06:35:21Z</time>
      </trkpt>
      <trkpt lat="45.1942" lon="0.68585">
        <ele>90</ele>
        <time>2025-06-15T06:35:22Z</time>
      </trkpt>
      <trkpt lat="45.19415" lon="0.6858">
        <ele>90</ele>
        <time>2025-06-15T06:35:23Z</time>
      </trkpt>
      <trkpt lat="45.19409" lon="0.68578">
        <ele>90</ele>
        <time>2025-06-15T06:35:24Z</time>
      </trkpt>
      <trkpt lat="45.19404" lon="0.68576">
        <ele>90</ele>
        <time>2025-06-15T06:35:25Z</time>
      </trkpt>
      <trkpt lat="45.19398" lon="0.68576">
        <ele>90</ele>
        <time>2025-06-15T06:35:26Z</time>
      </trkpt>
      <trkpt lat="45.19393" lon="0.68575">
        <ele>90</ele>
        <time>2025-06-15T06:35:27Z</time>
      </trkpt>
      <trkpt lat="45.19388" lon="0.68574">
        <ele>90.2</ele>
        <time>2025-06-15T06:35:28Z</time>
      </trkpt>
      <trkpt lat="45.19382" lon="0.68573">
        <ele>90.4</ele>
        <time>2025-06-15T06:35:29Z</time>
      </trkpt>
      <trkpt lat="45.19377" lon="0.68571">
        <ele>90.4</ele>
        <time>2025-06-15T06:35:30Z</time>
      </trkpt>
      <trkpt lat="45.19371" lon="0.68571">
        <ele>90.6</ele>
        <time>2025-06-15T06:35:31Z</time>
      </trkpt>
      <trkpt lat="45.19366" lon="0.68571">
        <ele>90.8</ele>
        <time>2025-06-15T06:35:32Z</time>
      </trkpt>
      <trkpt lat="45.19361" lon="0.6857">
        <ele>91</ele>
        <time>2025-06-15T06:35:33Z</time>
      </trkpt>
      <trkpt lat="45.19356" lon="0.6857">
        <ele>91</ele>
        <time>2025-06-15T06:35:34Z</time>
      </trkpt>
      <trkpt lat="45.19351" lon="0.68569">
        <ele>91</ele>
        <time>2025-06-15T06:35:35Z</time>
      </trkpt>
      <trkpt lat="45.19346" lon="0.68567">
        <ele>91.2</ele>
        <time>2025-06-15T06:35:36Z</time>
      </trkpt>
      <trkpt lat="45.19342" lon="0.68566">
        <ele>91.2</ele>
        <time>2025-06-15T06:35:37Z</time>
      </trkpt>
      <trkpt lat="45.19337" lon="0.68565">
        <ele>91.2</ele>
        <time>2025-06-15T06:35:38Z</time>
      </trkpt>
      <trkpt lat="45.19332" lon="0.68564">
        <ele>91.2</ele>
        <time>2025-06-15T06:35:39Z</time>
      </trkpt>
      <trkpt lat="45.19328" lon="0.68563">
        <ele>91.2</ele>
        <time>2025-06-15T06:35:40Z</time>
      </trkpt>
      <trkpt lat="45.19325" lon="0.68562">
        <ele>91.2</ele>
        <time>2025-06-15T06:35:41Z</time>
      </trkpt>
      <trkpt lat="45.19321" lon="0.68562">
        <ele>91.2</ele>
        <time>2025-06-15T06:35:42Z</time>
      </trkpt>
      <trkpt lat="45.19317" lon="0.68561">
        <ele>91.2</ele>
        <time>2025-06-15T06:35:43Z</time>
      </trkpt>
      <trkpt lat="45.19313" lon="0.6856">
        <ele>91.2</ele>
        <time>2025-06-15T06:35:44Z</time>
      </trkpt>
      <trkpt lat="45.19309" lon="0.68558">
        <ele>91.4</ele>
        <time>2025-06-15T06:35:45Z</time>
      </trkpt>
      <trkpt lat="45.19304" lon="0.68558">
        <ele>91.4</ele>
        <time>2025-06-15T06:35:46Z</time>
      </trkpt>
      <trkpt lat="45.193" lon="0.68557">
        <ele>91.4</ele>
        <time>2025-06-15T06:35:47Z</time>
      </trkpt>
      <trkpt lat="45.19296" lon="0.68557">
        <ele>91.4</ele>
        <time>2025-06-15T06:35:48Z</time>
      </trkpt>
      <trkpt lat="45.19293" lon="0.68556">
        <ele>91.6</ele>
        <time>2025-06-15T06:35:49Z</time>
      </trkpt>
      <trkpt lat="45.19289" lon="0.68555">
        <ele>91.6</ele>
        <time>2025-06-15T06:35:50Z</time>
      </trkpt>
      <trkpt lat="45.19286" lon="0.68554">
        <ele>91.6</ele>
        <time>2025-06-15T06:35:51Z</time>
      </trkpt>
      <trkpt lat="45.19283" lon="0.68554">
        <ele>91.8</ele>
        <time>2025-06-15T06:35:52Z</time>
      </trkpt>
      <trkpt lat="45.19279" lon="0.68553">
        <ele>92</ele>
        <time>2025-06-15T06:35:53Z</time>
      </trkpt>
      <trkpt lat="45.19276" lon="0.68552">
        <ele>92.2</ele>
        <time>2025-06-15T06:35:54Z</time>
      </trkpt>
      <trkpt lat="45.19272" lon="0.68549">
        <ele>92.2</ele>
        <time>2025-06-15T06:35:55Z</time>
      </trkpt>
      <trkpt lat="45.1927" lon="0.68547">
        <ele>92.4</ele>
        <time>2025-06-15T06:35:56Z</time>
      </trkpt>
      <trkpt lat="45.19267" lon="0.68544">
        <ele>92.6</ele>
        <time>2025-06-15T06:35:57Z</time>
      </trkpt>
      <trkpt lat="45.19264" lon="0.68539">
        <ele>92.8</ele>
        <time>2025-06-15T06:35:58Z</time>
      </trkpt>
      <trkpt lat="45.19262" lon="0.68534">
        <ele>92.8</ele>
        <time>2025-06-15T06:35:59Z</time>
      </trkpt>
      <trkpt lat="45.1926" lon="0.68529">
        <ele>92.8</ele>
        <time>2025-06-15T06:36:00Z</time>
      </trkpt>
      <trkpt lat="45.19259" lon="0.68522">
        <ele>92.8</ele>
        <time>2025-06-15T06:36:01Z</time>
      </trkpt>
      <trkpt lat="45.19258" lon="0.68516">
        <ele>92.8</ele>
        <time>2025-06-15T06:36:02Z</time>
      </trkpt>
      <trkpt lat="45.19258" lon="0.68509">
        <ele>92.8</ele>
        <time>2025-06-15T06:36:03Z</time>
      </trkpt>
      <trkpt lat="45.19258" lon="0.68502">
        <ele>92.8</ele>
        <time>2025-06-15T06:36:04Z</time>
      </trkpt>
      <trkpt lat="45.19259" lon="0.68495">
        <ele>92.6</ele>
        <time>2025-06-15T06:36:05Z</time>
      </trkpt>
      <trkpt lat="45.1926" lon="0.68489">
        <ele>92.6</ele>
        <time>2025-06-15T06:36:06Z</time>
      </trkpt>
      <trkpt lat="45.1926" lon="0.68482">
        <ele>92.6</ele>
        <time>2025-06-15T06:36:07Z</time>
      </trkpt>
      <trkpt lat="45.1926" lon="0.68476">
        <ele>92.6</ele>
        <time>2025-06-15T06:36:08Z</time>
      </trkpt>
      <trkpt lat="45.1926" lon="0.6847">
        <ele>92.6</ele>
        <time>2025-06-15T06:36:09Z</time>
      </trkpt>
      <trkpt lat="45.1926" lon="0.68463">
        <ele>92.6</ele>
        <time>2025-06-15T06:36:10Z</time>
      </trkpt>
      <trkpt lat="45.19258" lon="0.68457">
        <ele>92.6</ele>
        <time>2025-06-15T06:36:11Z</time>
      </trkpt>
      <trkpt lat="45.19255" lon="0.68451">
        <ele>92.4</ele>
        <time>2025-06-15T06:36:12Z</time>
      </trkpt>
      <trkpt lat="45.19251" lon="0.68447">
        <ele>92.4</ele>
        <time>2025-06-15T06:36:13Z</time>
      </trkpt>
      <trkpt lat="45.19247" lon="0.68444">
        <ele>92.4</ele>
        <time>2025-06-15T06:36:14Z</time>
      </trkpt>
      <trkpt lat="45.19242" lon="0.68442">
        <ele>92.4</ele>
        <time>2025-06-15T06:36:15Z</time>
      </trkpt>
      <trkpt lat="45.19238" lon="0.68439">
        <ele>92.4</ele>
        <time>2025-06-15T06:36:16Z</time>
      </trkpt>
      <trkpt lat="45.19233" lon="0.68438">
        <ele>92.6</ele>
        <time>2025-06-15T06:36:17Z</time>
      </trkpt>
      <trkpt lat="45.19228" lon="0.68437">
        <ele>92.8</ele>
        <time>2025-06-15T06:36:18Z</time>
      </trkpt>
      <trkpt lat="45.19224" lon="0.68435">
        <ele>93.2</ele>
        <time>2025-06-15T06:36:19Z</time>
      </trkpt>
      <trkpt lat="45.1922" lon="0.68434">
        <ele>93.4</ele>
        <time>2025-06-15T06:36:20Z</time>
      </trkpt>
      <trkpt lat="45.19216" lon="0.68433">
        <ele>93.8</ele>
        <time>2025-06-15T06:36:21Z</time>
      </trkpt>
      <trkpt lat="45.19212" lon="0.68432">
        <ele>94</ele>
        <time>2025-06-15T06:36:22Z</time>
      </trkpt>
      <trkpt lat="45.19208" lon="0.6843">
        <ele>94.2</ele>
        <time>2025-06-15T06:36:23Z</time>
      </trkpt>
      <trkpt lat="45.19204" lon="0.68429">
        <ele>94.6</ele>
        <time>2025-06-15T06:36:24Z</time>
      </trkpt>
      <trkpt lat="45.192" lon="0.68427">
        <ele>94.8</ele>
        <time>2025-06-15T06:36:25Z</time>
      </trkpt>
      <trkpt lat="45.19196" lon="0.68426">
        <ele>95</ele>
        <time>2025-06-15T06:36:26Z</time>
      </trkpt>
      <trkpt lat="45.19193" lon="0.68424">
        <ele>95.2</ele>
        <time>2025-06-15T06:36:27Z</time>
      </trkpt>
      <trkpt lat="45.19189" lon="0.68422">
        <ele>95.4</ele>
        <time>2025-06-15T06:36:28Z</time>
      </trkpt>
      <trkpt lat="45.19186" lon="0.68421">
        <ele>95.8</ele>
        <time>2025-06-15T06:36:29Z</time>
      </trkpt>
      <trkpt lat="45.19183" lon="0.68419">
        <ele>96</ele>
        <time>2025-06-15T06:36:30Z</time>
      </trkpt>
      <trkpt lat="45.1918" lon="0.68417">
        <ele>96.4</ele>
        <time>2025-06-15T06:36:31Z</time>
      </trkpt>
      <trkpt lat="45.19177" lon="0.68415">
        <ele>96.6</ele>
        <time>2025-06-15T06:36:32Z</time>
      </trkpt>
      <trkpt lat="45.19173" lon="0.68413">
        <ele>96.8</ele>
        <time>2025-06-15T06:36:33Z</time>
      </trkpt>
      <trkpt lat="45.1917" lon="0.68412">
        <ele>97</ele>
        <time>2025-06-15T06:36:34Z</time>
      </trkpt>
      <trkpt lat="45.19167" lon="0.68411">
        <ele>97.2</ele>
        <time>2025-06-15T06:36:35Z</time>
      </trkpt>
      <trkpt lat="45.19164" lon="0.6841">
        <ele>97.6</ele>
        <time>2025-06-15T06:36:36Z</time>
      </trkpt>
      <trkpt lat="45.1916" lon="0.68408">
        <ele>97.8</ele>
        <time>2025-06-15T06:36:37Z</time>
      </trkpt>
      <trkpt lat="45.19158" lon="0.68408">
        <ele>98</ele>
        <time>2025-06-15T06:36:38Z</time>
      </trkpt>
      <trkpt lat="45.19155" lon="0.68406">
        <ele>98.2</ele>
        <time>2025-06-15T06:36:39Z</time>
      </trkpt>
      <trkpt lat="45.19152" lon="0.68405">
        <ele>98.6</ele>
        <time>2025-06-15T06:36:40Z</time>
      </trkpt>
      <trkpt lat="45.19149" lon="0.68404">
        <ele>98.8</ele>
        <time>2025-06-15T06:36:41Z</time>
      </trkpt>
      <trkpt lat="45.19146" lon="0.68403">
        <ele>99.2</ele>
        <time>2025-06-15T06:36:42Z</time>
      </trkpt>
      <trkpt lat="45.19144" lon="0.68401">
        <ele>99.4</ele>
        <time>2025-06-15T06:36:43Z</time>
      </trkpt>
      <trkpt lat="45.19142" lon="0.684">
        <ele>99.6</ele>
        <time>2025-06-15T06:36:44Z</time>
      </trkpt>
      <trkpt lat="45.19139" lon="0.68399">
        <ele>100</ele>
        <time>2025-06-15T06:36:45Z</time>
      </trkpt>
      <trkpt lat="45.19137" lon="0.68398">
        <ele>100.2</ele>
        <time>2025-06-15T06:36:46Z</time>
      </trkpt>
      <trkpt lat="45.19134" lon="0.68396">
        <ele>100.6</ele>
        <time>2025-06-15T06:36:47Z</time>
      </trkpt>
      <trkpt lat="45.19132" lon="0.68395">
        <ele>100.8</ele>
        <time>2025-06-15T06:36:48Z</time>
      </trkpt>
      <trkpt lat="45.19129" lon="0.68394">
        <ele>101</ele>
        <time>2025-06-15T06:36:49Z</time>
      </trkpt>
      <trkpt lat="45.19127" lon="0.68393">
        <ele>101.4</ele>
        <time>2025-06-15T06:36:50Z</time>
      </trkpt>
      <trkpt lat="45.19125" lon="0.68393">
        <ele>101.6</ele>
        <time>2025-06-15T06:36:51Z</time>
      </trkpt>
      <trkpt lat="45.19122" lon="0.68392">
        <ele>101.8</ele>
        <time>2025-06-15T06:36:52Z</time>
      </trkpt>
      <trkpt lat="45.1912" lon="0.6839">
        <ele>102</ele>
        <time>2025-06-15T06:36:53Z</time>
      </trkpt>
      <trkpt lat="45.19118" lon="0.68389">
        <ele>102.4</ele>
        <time>2025-06-15T06:36:54Z</time>
      </trkpt>
      <trkpt lat="45.19115" lon="0.68388">
        <ele>102.6</ele>
        <time>2025-06-15T06:36:55Z</time>
      </trkpt>
      <trkpt lat="45.19113" lon="0.68387">
        <ele>102.8</ele>
        <time>2025-06-15T06:36:56Z</time>
      </trkpt>
      <trkpt lat="45.19111" lon="0.68386">
        <ele>103</ele>
        <time>2025-06-15T06:36:57Z</time>
      </trkpt>
      <trkpt lat="45.19109" lon="0.68385">
        <ele>103.4</ele>
        <time>2025-06-15T06:36:58Z</time>
      </trkpt>
      <trkpt lat="45.19107" lon="0.68385">
        <ele>103.6</ele>
        <time>2025-06-15T06:36:59Z</time>
      </trkpt>
      <trkpt lat="45.19104" lon="0.68384">
        <ele>103.8</ele>
        <time>2025-06-15T06:37:00Z</time>
      </trkpt>
      <trkpt lat="45.19102" lon="0.68382">
        <ele>104.2</ele>
        <time>2025-06-15T06:37:01Z</time>
      </trkpt>
      <trkpt lat="45.191" lon="0.68381">
        <ele>104.4</ele>
        <time>2025-06-15T06:37:02Z</time>
      </trkpt>
      <trkpt lat="45.19098" lon="0.6838">
        <ele>104.6</ele>
        <time>2025-06-15T06:37:03Z</time>
      </trkpt>
      <trkpt lat="45.19097" lon="0.68379">
        <ele>105</ele>
        <time>2025-06-15T06:37:04Z</time>
      </trkpt>
      <trkpt lat="45.19095" lon="0.68378">
        <ele>105.4</ele>
        <time>2025-06-15T06:37:05Z</time>
      </trkpt>
      <trkpt lat="45.19092" lon="0.68378">
        <ele>105.6</ele>
        <time>2025-06-15T06:37:06Z</time>
      </trkpt>
      <trkpt lat="45.1909" lon="0.68377">
        <ele>106</ele>
        <time>2025-06-15T06:37:07Z</time>
      </trkpt>
      <trkpt lat="45.19088" lon="0.68377">
        <ele>106.2</ele>
        <time>2025-06-15T06:37:08Z</time>
      </trkpt>
      <trkpt lat="45.19087" lon="0.68376">
        <ele>106.6</ele>
        <time>2025-06-15T06:37:09Z</time>
      </trkpt>
      <trkpt lat="45.19085" lon="0.68375">
        <ele>106.8</ele>
        <time>2025-06-15T06:37:10Z</time>
      </trkpt>
      <trkpt lat="45.19083" lon="0.68373">
        <ele>107.2</ele>
        <time>2025-06-15T06:37:11Z</time>
      </trkpt>
      <trkpt lat="45.19081" lon="0.68371">
        <ele>107.4</ele>
        <time>2025-06-15T06:37:12Z</time>
      </trkpt>
      <trkpt lat="45.1908" lon="0.68369">
        <ele>107.6</ele>
        <time>2025-06-15T06:37:13Z</time>
      </trkpt>
      <trkpt lat="45.19079" lon="0.68367">
        <ele>108</ele>
        <time>2025-06-15T06:37:14Z</time>
      </trkpt>
      <trkpt lat="45.19078" lon="0.68365">
        <ele>108.2</ele>
        <time>2025-06-15T06:37:15Z</time>
      </trkpt>
      <trkpt lat="45.19077" lon="0.68362">
        <ele>108.4</ele>
        <time>2025-06-15T06:37:16Z</time>
      </trkpt>
      <trkpt lat="45.19075" lon="0.68359">
        <ele>108.6</ele>
        <time>2025-06-15T06:37:17Z</time>
      </trkpt>
      <trkpt lat="45.19074" lon="0.68357">
        <ele>108.8</ele>
        <time>2025-06-15T06:37:18Z</time>
      </trkpt>
      <trkpt lat="45.19072" lon="0.68354">
        <ele>109.2</ele>
        <time>2025-06-15T06:37:19Z</time>
      </trkpt>
      <trkpt lat="45.19071" lon="0.68352">
        <ele>109.4</ele>
        <time>2025-06-15T06:37:20Z</time>
      </trkpt>
      <trkpt lat="45.19069" lon="0.6835">
        <ele>109.8</ele>
        <time>2025-06-15T06:37:21Z</time>
      </trkpt>
      <trkpt lat="45.19067" lon="0.68348">
        <ele>110</ele>
        <time>2025-06-15T06:37:22Z</time>
      </trkpt>
      <trkpt lat="45.19065" lon="0.68347">
        <ele>110.2</ele>
        <time>2025-06-15T06:37:23Z</time>
      </trkpt>
      <trkpt lat="45.19063" lon="0.68345">
        <ele>110.4</ele>
        <time>2025-06-15T06:37:24Z</time>
      </trkpt>
      <trkpt lat="45.19061" lon="0.68344">
        <ele>110.6</ele>
        <time>2025-06-15T06:37:25Z</time>
      </trkpt>
      <trkpt lat="45.19058" lon="0.68342">
        <ele>110.8</ele>
        <time>2025-06-15T06:37:26Z</time>
      </trkpt>
      <trkpt lat="45.19056" lon="0.68341">
        <ele>111</ele>
        <time>2025-06-15T06:37:27Z</time>
      </trkpt>
      <trkpt lat="45.19054" lon="0.68339">
        <ele>111.2</ele>
        <time>2025-06-15T06:37:28Z</time>
      </trkpt>
      <trkpt lat="45.19052" lon="0.68337">
        <ele>111.4</ele>
        <time>2025-06-15T06:37:29Z</time>
      </trkpt>
      <trkpt lat="45.1905" lon="0.68336">
        <ele>111.6</ele>
        <time>2025-06-15T06:37:30Z</time>
      </trkpt>
      <trkpt lat="45.19048" lon="0.68334">
        <ele>111.8</ele>
        <time>2025-06-15T06:37:31Z</time>
      </trkpt>
      <trkpt lat="45.19046" lon="0.68333">
        <ele>112</ele>
        <time>2025-06-15T06:37:32Z</time>
      </trkpt>
      <trkpt lat="45.19045" lon="0.68331">
        <ele>112.2</ele>
        <time>2025-06-15T06:37:33Z</time>
      </trkpt>
      <trkpt lat="45.19043" lon="0.68329">
        <ele>112.6</ele>
        <time>2025-06-15T06:37:34Z</time>
      </trkpt>
      <trkpt lat="45.19041" lon="0.68328">
        <ele>112.8</ele>
        <time>2025-06-15T06:37:35Z</time>
      </trkpt>
      <trkpt lat="45.19039" lon="0.68327">
        <ele>113</ele>
        <time>2025-06-15T06:37:36Z</time>
      </trkpt>
      <trkpt lat="45.19037" lon="0.68325">
        <ele>113.4</ele>
        <time>2025-06-15T06:37:37Z</time>
      </trkpt>
      <trkpt lat="45.19035" lon="0.68324">
        <ele>113.6</ele>
        <time>2025-06-15T06:37:38Z</time>
      </trkpt>
      <trkpt lat="45.19033" lon="0.68322">
        <ele>113.8</ele>
        <time>2025-06-15T06:37:39Z</time>
      </trkpt>
      <trkpt lat="45.19032" lon="0.6832">
        <ele>114</ele>
        <time>2025-06-15T06:37:40Z</time>
      </trkpt>
      <trkpt lat="45.1903" lon="0.68319">
        <ele>114.2</ele>
        <time>2025-06-15T06:37:41Z</time>
      </trkpt>
      <trkpt lat="45.19028" lon="0.68318">
        <ele>114.4</ele>
        <time>2025-06-15T06:37:42Z</time>
      </trkpt>
      <trkpt lat="45.19027" lon="0.68317">
        <ele>114.6</ele>
        <time>2025-06-15T06:37:43Z</time>
      </trkpt>
      <trkpt lat="45.19025" lon="0.68315">
        <ele>114.6</ele>
        <time>2025-06-15T06:37:44Z</time>
      </trkpt>
      <trkpt lat="45.19024" lon="0.68314">
        <ele>114.8</ele>
        <time>2025-06-15T06:37:45Z</time>
      </trkpt>
      <trkpt lat="45.19022" lon="0.68313">
        <ele>115</ele>
        <time>2025-06-15T06:37:46Z</time>
      </trkpt>
      <trkpt lat="45.19021" lon="0.68312">
        <ele>115</ele>
        <time>2025-06-15T06:37:47Z</time>
      </trkpt>
      <trkpt lat="45.19019" lon="0.68311">
        <ele>115.2</ele>
        <time>2025-06-15T06:37:48Z</time>
      </trkpt>
      <trkpt lat="45.19017" lon="0.68309">
        <ele>115.4</ele>
        <time>2025-06-15T06:37:49Z</time>
      </trkpt>
      <trkpt lat="45.19015" lon="0.68308">
        <ele>115.6</ele>
        <time>2025-06-15T06:37:50Z</time>
      </trkpt>
      <trkpt lat="45.19014" lon="0.68307">
        <ele>115.8</ele>
        <time>2025-06-15T06:37:51Z</time>
      </trkpt>
      <trkpt lat="45.19012" lon="0.68307">
        <ele>116</ele>
        <time>2025-06-15T06:37:52Z</time>
      </trkpt>
      <trkpt lat="45.19011" lon="0.68306">
        <ele>116.2</ele>
        <time>2025-06-15T06:37:53Z</time>
      </trkpt>
      <trkpt lat="45.19009" lon="0.68304">
        <ele>116.4</ele>
        <time>2025-06-15T06:37:54Z</time>
      </trkpt>
      <trkpt lat="45.19007" lon="0.68303">
        <ele>116.6</ele>
        <time>2025-06-15T06:37:55Z</time>
      </trkpt>
      <trkpt lat="45.19006" lon="0.68302">
        <ele>116.6</ele>
        <time>2025-06-15T06:37:56Z</time>
      </trkpt>
      <trkpt lat="45.19005" lon="0.68301">
        <ele>116.8</ele>
        <time>2025-06-15T06:37:57Z</time>
      </trkpt>
      <trkpt lat="45.19003" lon="0.68301">
        <ele>117</ele>
        <time>2025-06-15T06:37:58Z</time>
      </trkpt>
      <trkpt lat="45.19002" lon="0.683">
        <ele>117.2</ele>
        <time>2025-06-15T06:37:59Z</time>
      </trkpt>
      <trkpt lat="45.19002" lon="0.683">
        <ele>117.2</ele>
        <time>2025-06-15T06:38:00Z</time>
      </trkpt>
      <trkpt lat="45.19" lon="0.683">
        <ele>117.4</ele>
        <time>2025-06-15T06:38:01Z</time>
      </trkpt>
      <trkpt lat="45.18999" lon="0.68299">
        <ele>117.4</ele>
        <time>2025-06-15T06:38:02Z</time>
      </trkpt>
      <trkpt lat="45.18997" lon="0.68298">
        <ele>117.6</ele>
        <time>2025-06-15T06:38:03Z</time>
      </trkpt>
      <trkpt lat="45.18996" lon="0.68297">
        <ele>117.6</ele>
        <time>2025-06-15T06:38:04Z</time>
      </trkpt>
      <trkpt lat="45.18994" lon="0.68297">
        <ele>117.8</ele>
        <time>2025-06-15T06:38:05Z</time>
      </trkpt>
      <trkpt lat="45.18994" lon="0.68297">
        <ele>117.8</ele>
        <time>2025-06-15T06:38:06Z</time>
      </trkpt>
      <trkpt lat="45.18992" lon="0.68296">
        <ele>118</ele>
        <time>2025-06-15T06:38:07Z</time>
      </trkpt>
      <trkpt lat="45.18991" lon="0.68296">
        <ele>118</ele>
        <time>2025-06-15T06:38:08Z</time>
      </trkpt>
      <trkpt lat="45.1899" lon="0.68296">
        <ele>118.2</ele>
        <time>2025-06-15T06:38:09Z</time>
      </trkpt>
      <trkpt lat="45.18988" lon="0.68296">
        <ele>118.4</ele>
        <time>2025-06-15T06:38:10Z</time>
      </trkpt>
      <trkpt lat="45.18987" lon="0.68295">
        <ele>118.4</ele>
        <time>2025-06-15T06:38:11Z</time>
      </trkpt>
      <trkpt lat="45.18986" lon="0.68295">
        <ele>118.6</ele>
        <time>2025-06-15T06:38:12Z</time>
      </trkpt>
      <trkpt lat="45.18985" lon="0.68294">
        <ele>118.8</ele>
        <time>2025-06-15T06:38:13Z</time>
      </trkpt>
      <trkpt lat="45.18984" lon="0.68294">
        <ele>118.8</ele>
        <time>2025-06-15T06:38:14Z</time>
      </trkpt>
      <trkpt lat="45.18984" lon="0.68294">
        <ele>119</ele>
        <time>2025-06-15T06:38:15Z</time>
      </trkpt>
      <trkpt lat="45.18983" lon="0.68294">
        <ele>119</ele>
        <time>2025-06-15T06:38:16Z</time>
      </trkpt>
      <trkpt lat="45.18982" lon="0.68294">
        <ele>119.2</ele>
        <time>2025-06-15T06:38:17Z</time>
      </trkpt>
      <trkpt lat="45.1898" lon="0.68294">
        <ele>119.2</ele>
        <time>2025-06-15T06:38:18Z</time>
      </trkpt>
      <trkpt lat="45.18979" lon="0.68294">
        <ele>119.4</ele>
        <time>2025-06-15T06:38:19Z</time>
      </trkpt>
      <trkpt lat="45.18978" lon="0.68294">
        <ele>119.6</ele>
        <time>2025-06-15T06:38:20Z</time>
      </trkpt>
      <trkpt lat="45.18977" lon="0.68293">
        <ele>119.8</ele>
        <time>2025-06-15T06:38:21Z</time>
      </trkpt>
      <trkpt lat="45.18976" lon="0.68293">
        <ele>120</ele>
        <time>2025-06-15T06:38:22Z</time>
      </trkpt>
      <trkpt lat="45.18975" lon="0.68294">
        <ele>120.4</ele>
        <time>2025-06-15T06:38:23Z</time>
      </trkpt>
      <trkpt lat="45.18973" lon="0.68294">
        <ele>120.8</ele>
        <time>2025-06-15T06:38:24Z</time>
      </trkpt>
      <trkpt lat="45.18972" lon="0.68295">
        <ele>121</ele>
        <time>2025-06-15T06:38:25Z</time>
      </trkpt>
      <trkpt lat="45.1897" lon="0.68295">
        <ele>121.2</ele>
        <time>2025-06-15T06:38:26Z</time>
      </trkpt>
      <trkpt lat="45.18969" lon="0.68295">
        <ele>121.6</ele>
        <time>2025-06-15T06:38:27Z</time>
      </trkpt>
      <trkpt lat="45.18968" lon="0.68295">
        <ele>121.8</ele>
        <time>2025-06-15T06:38:28Z</time>
      </trkpt>
      <trkpt lat="45.18966" lon="0.68294">
        <ele>122</ele>
        <time>2025-06-15T06:38:29Z</time>
      </trkpt>
      <trkpt lat="45.18965" lon="0.68294">
        <ele>122.2</ele>
        <time>2025-06-15T06:38:30Z</time>
      </trkpt>
      <trkpt lat="45.18964" lon="0.68294">
        <ele>122.6</ele>
        <time>2025-06-15T06:38:31Z</time>
      </trkpt>
      <trkpt lat="45.18963" lon="0.68294">
        <ele>122.8</ele>
        <time>2025-06-15T06:38:32Z</time>
      </trkpt>
      <trkpt lat="45.18962" lon="0.68293">
        <ele>123.2</ele>
        <time>2025-06-15T06:38:33Z</time>
      </trkpt>
      <trkpt lat="45.1896" lon="0.68294">
        <ele>123.4</ele>
        <time>2025-06-15T06:38:34Z</time>
      </trkpt>
      <trkpt lat="45.18959" lon="0.68294">
        <ele>123.6</ele>
        <time>2025-06-15T06:38:35Z</time>
      </trkpt>
      <trkpt lat="45.18958" lon="0.68294">
        <ele>124</ele>
        <time>2025-06-15T06:38:36Z</time>
      </trkpt>
      <trkpt lat="45.18956" lon="0.68294">
        <ele>124.2</ele>
        <time>2025-06-15T06:38:37Z</time>
      </trkpt>
      <trkpt lat="45.18955" lon="0.68294">
        <ele>124.6</ele>
        <time>2025-06-15T06:38:38Z</time>
      </trkpt>
      <trkpt lat="45.18954" lon="0.68294">
        <ele>124.8</ele>
        <time>2025-06-15T06:38:39Z</time>
      </trkpt>
      <trkpt lat="45.18952" lon="0.68294">
        <ele>125.2</ele>
        <time>2025-06-15T06:38:40Z</time>
      </trkpt>
      <trkpt lat="45.18951" lon="0.68294">
        <ele>125.4</ele>
        <time>2025-06-15T06:38:41Z</time>
      </trkpt>
      <trkpt lat="45.18949" lon="0.68294">
        <ele>125.6</ele>
        <time>2025-06-15T06:38:42Z</time>
      </trkpt>
      <trkpt lat="45.18948" lon="0.68294">
        <ele>126</ele>
        <time>2025-06-15T06:38:43Z</time>
      </trkpt>
      <trkpt lat="45.18947" lon="0.68295">
        <ele>126.2</ele>
        <time>2025-06-15T06:38:44Z</time>
      </trkpt>
      <trkpt lat="45.18946" lon="0.68296">
        <ele>126.4</ele>
        <time>2025-06-15T06:38:45Z</time>
      </trkpt>
      <trkpt lat="45.18946" lon="0.68296">
        <ele>126.6</ele>
        <time>2025-06-15T06:38:46Z</time>
      </trkpt>
      <trkpt lat="45.18944" lon="0.68296">
        <ele>126.8</ele>
        <time>2025-06-15T06:38:47Z</time>
      </trkpt>
      <trkpt lat="45.18943" lon="0.68296">
        <ele>127</ele>
        <time>2025-06-15T06:38:48Z</time>
      </trkpt>
      <trkpt lat="45.18942" lon="0.68296">
        <ele>127.2</ele>
        <time>2025-06-15T06:38:49Z</time>
      </trkpt>
      <trkpt lat="45.18941" lon="0.68297">
        <ele>127.6</ele>
        <time>2025-06-15T06:38:50Z</time>
      </trkpt>
      <trkpt lat="45.1894" lon="0.68297">
        <ele>127.8</ele>
        <time>2025-06-15T06:38:51Z</time>
      </trkpt>
      <trkpt lat="45.18939" lon="0.68297">
        <ele>128</ele>
        <time>2025-06-15T06:38:52Z</time>
      </trkpt>
      <trkpt lat="45.18938" lon="0.68297">
        <ele>128.2</ele>
        <time>2025-06-15T06:38:53Z</time>
      </trkpt>
      <trkpt lat="45.18936" lon="0.68297">
        <ele>128.6</ele>
        <time>2025-06-15T06:38:54Z</time>
      </trkpt>
      <trkpt lat="45.18934" lon="0.68296">
        <ele>128.8</ele>
        <time>2025-06-15T06:38:55Z</time>
      </trkpt>
      <trkpt lat="45.18933" lon="0.68296">
        <ele>129.2</ele>
        <time>2025-06-15T06:38:56Z</time>
      </trkpt>
      <trkpt lat="45.18931" lon="0.68296">
        <ele>129.4</ele>
        <time>2025-06-15T06:38:57Z</time>
      </trkpt>
      <trkpt lat="45.18929" lon="0.68296">
        <ele>129.6</ele>
        <time>2025-06-15T06:38:58Z</time>
      </trkpt>
      <trkpt lat="45.18928" lon="0.68295">
        <ele>129.8</ele>
        <time>2025-06-15T06:38:59Z</time>
      </trkpt>
      <trkpt lat="45.18927" lon="0.68295">
        <ele>130</ele>
        <time>2025-06-15T06:39:00Z</time>
      </trkpt>
      <trkpt lat="45.18925" lon="0.68295">
        <ele>130.2</ele>
        <time>2025-06-15T06:39:01Z</time>
      </trkpt>
      <trkpt lat="45.18924" lon="0.68294">
        <ele>130.4</ele>
        <time>2025-06-15T06:39:02Z</time>
      </trkpt>
      <trkpt lat="45.18922" lon="0.68293">
        <ele>130.6</ele>
        <time>2025-06-15T06:39:03Z</time>
      </trkpt>
      <trkpt lat="45.18921" lon="0.68292">
        <ele>130.8</ele>
        <time>2025-06-15T06:39:04Z</time>
      </trkpt>
      <trkpt lat="45.1892" lon="0.68291">
        <ele>131</ele>
        <time>2025-06-15T06:39:05Z</time>
      </trkpt>
      <trkpt lat="45.18919" lon="0.6829">
        <ele>131.2</ele>
        <time>2025-06-15T06:39:06Z</time>
      </trkpt>
      <trkpt lat="45.18917" lon="0.68289">
        <ele>131.4</ele>
        <time>2025-06-15T06:39:07Z</time>
      </trkpt>
      <trkpt lat="45.18916" lon="0.68289">
        <ele>131.6</ele>
        <time>2025-06-15T06:39:08Z</time>
      </trkpt>
      <trkpt lat="45.18915" lon="0.68288">
        <ele>131.8</ele>
        <time>2025-06-15T06:39:09Z</time>
      </trkpt>
      <trkpt lat="45.18914" lon="0.68287">
        <ele>132.2</ele>
        <time>2025-06-15T06:39:10Z</time>
      </trkpt>
      <trkpt lat="45.18913" lon="0.68286">
        <ele>132.4</ele>
        <time>2025-06-15T06:39:11Z</time>
      </trkpt>
      <trkpt lat="45.18913" lon="0.68286">
        <ele>132.6</ele>
        <time>2025-06-15T06:39:12Z</time>
      </trkpt>
      <trkpt lat="45.18912" lon="0.68285">
        <ele>132.8</ele>
        <time>2025-06-15T06:39:13Z</time>
      </trkpt>
      <trkpt lat="45.18911" lon="0.68284">
        <ele>133</ele>
        <time>2025-06-15T06:39:14Z</time>
      </trkpt>
      <trkpt lat="45.1891" lon="0.68282">
        <ele>133.2</ele>
        <time>2025-06-15T06:39:15Z</time>
      </trkpt>
      <trkpt lat="45.18909" lon="0.68281">
        <ele>133.4</ele>
        <time>2025-06-15T06:39:16Z</time>
      </trkpt>
      <trkpt lat="45.18908" lon="0.6828">
        <ele>133.6</ele>
        <time>2025-06-15T06:39:17Z</time>
      </trkpt>
      <trkpt lat="45.18907" lon="0.68279">
        <ele>133.8</ele>
        <time>2025-06-15T06:39:18Z</time>
      </trkpt>
      <trkpt lat="45.18906" lon="0.68278">
        <ele>134.2</ele>
        <time>2025-06-15T06:39:19Z</time>
      </trkpt>
      <trkpt lat="45.18905" lon="0.68277">
        <ele>134.4</ele>
        <time>2025-06-15T06:39:20Z</time>
      </trkpt>
      <trkpt lat="45.18903" lon="0.68276">
        <ele>134.6</ele>
        <time>2025-06-15T06:39:21Z</time>
      </trkpt>
      <trkpt lat="45.18902" lon="0.68275">
        <ele>135</ele>
        <time>2025-06-15T06:39:22Z</time>
      </trkpt>
      <trkpt lat="45.18901" lon="0.68273">
        <ele>135.2</ele>
        <time>2025-06-15T06:39:23Z</time>
      </trkpt>
      <trkpt lat="45.189" lon="0.68272">
        <ele>135.4</ele>
        <time>2025-06-15T06:39:24Z</time>
      </trkpt>
      <trkpt lat="45.189" lon="0.68271">
        <ele>135.6</ele>
        <time>2025-06-15T06:39:25Z</time>
      </trkpt>
      <trkpt lat="45.18898" lon="0.68271">
        <ele>135.8</ele>
        <time>2025-06-15T06:39:26Z</time>
      </trkpt>
      <trkpt lat="45.18897" lon="0.6827">
        <ele>136.2</ele>
        <time>2025-06-15T06:39:27Z</time>
      </trkpt>
      <trkpt lat="45.18896" lon="0.68269">
        <ele>136.4</ele>
        <time>2025-06-15T06:39:28Z</time>
      </trkpt>
      <trkpt lat="45.18894" lon="0.68269">
        <ele>136.6</ele>
        <time>2025-06-15T06:39:29Z</time>
      </trkpt>
      <trkpt lat="45.18893" lon="0.68268">
        <ele>136.8</ele>
        <time>2025-06-15T06:39:30Z</time>
      </trkpt>
      <trkpt lat="45.18892" lon="0.68268">
        <ele>137</ele>
        <time>2025-06-15T06:39:31Z</time>
      </trkpt>
      <trkpt lat="45.18891" lon="0.68268">
        <ele>137.2</ele>
        <time>2025-06-15T06:39:32Z</time>
      </trkpt>
      <trkpt lat="45.1889" lon="0.68267">
        <ele>137.6</ele>
        <time>2025-06-15T06:39:33Z</time>
      </trkpt>
      <trkpt lat="45.18889" lon="0.68267">
        <ele>137.8</ele>
        <time>2025-06-15T06:39:34Z</time>
      </trkpt>
      <trkpt lat="45.18889" lon="0.68267">
        <ele>138</ele>
        <time>2025-06-15T06:39:35Z</time>
      </trkpt>
      <trkpt lat="45.18888" lon="0.68266">
        <ele>138.2</ele>
        <time>2025-06-15T06:39:36Z</time>
      </trkpt>
      <trkpt lat="45.18887" lon="0.68266">
        <ele>138.6</ele>
        <time>2025-06-15T06:39:37Z</time>
      </trkpt>
      <trkpt lat="45.18885" lon="0.68265">
        <ele>138.8</ele>
        <time>2025-06-15T06:39:38Z</time>
      </trkpt>
      <trkpt lat="45.18884" lon="0.68264">
        <ele>139</ele>
        <time>2025-06-15T06:39:39Z</time>
      </trkpt>
      <trkpt lat="45.18882" lon="0.68263">
        <ele>139.2</ele>
        <time>2025-06-15T06:39:40Z</time>
      </trkpt>
      <trkpt lat="45.18881" lon="0.68262">
        <ele>139.4</ele>
        <time>2025-06-15T06:39:41Z</time>
      </trkpt>
      <trkpt lat="45.1888" lon="0.68261">
        <ele>139.6</ele>
        <time>2025-06-15T06:39:42Z</time>
      </trkpt>
      <trkpt lat="45.18879" lon="0.6826">
        <ele>140</ele>
        <time>2025-06-15T06:39:43Z</time>
      </trkpt>
      <trkpt lat="45.18878" lon="0.6826">
        <ele>140.2</ele>
        <time>2025-06-15T06:39:44Z</time>
      </trkpt>
      <trkpt lat="45.18877" lon="0.68259">
        <ele>140.4</ele>
        <time>2025-06-15T06:39:45Z</time>
      </trkpt>
      <trkpt lat="45.18876" lon="0.68258">
        <ele>140.6</ele>
        <time>2025-06-15T06:39:46Z</time>
      </trkpt>
      <trkpt lat="45.18875" lon="0.68258">
        <ele>140.8</ele>
        <time>2025-06-15T06:39:47Z</time>
      </trkpt>
      <trkpt lat="45.18874" lon="0.68257">
        <ele>141</ele>
        <time>2025-06-15T06:39:48Z</time>
      </trkpt>
      <trkpt lat="45.18872" lon="0.68257">
        <ele>141.2</ele>
        <time>2025-06-15T06:39:49Z</time>
      </trkpt>
      <trkpt lat="45.18871" lon="0.68256">
        <ele>141.4</ele>
        <time>2025-06-15T06:39:50Z</time>
      </trkpt>
      <trkpt lat="45.1887" lon="0.68255">
        <ele>141.8</ele>
        <time>2025-06-15T06:39:51Z</time>
      </trkpt>
      <trkpt lat="45.18869" lon="0.68255">
        <ele>142</ele>
        <time>2025-06-15T06:39:52Z</time>
      </trkpt>
      <trkpt lat="45.18868" lon="0.68255">
        <ele>142.2</ele>
        <time>2025-06-15T06:39:53Z</time>
      </trkpt>
      <trkpt lat="45.18867" lon="0.68254">
        <ele>142.4</ele>
        <time>2025-06-15T06:39:54Z</time>
      </trkpt>
      <trkpt lat="45.18866" lon="0.68252">
        <ele>142.6</ele>
        <time>2025-06-15T06:39:55Z</time>
      </trkpt>
      <trkpt lat="45.18866" lon="0.68251">
        <ele>142.8</ele>
        <time>2025-06-15T06:39:56Z</time>
      </trkpt>
      <trkpt lat="45.18865" lon="0.68249">
        <ele>143</ele>
        <time>2025-06-15T06:39:57Z</time>
      </trkpt>
      <trkpt lat="45.18864" lon="0.68247">
        <ele>143.2</ele>
        <time>2025-06-15T06:39:58Z</time>
      </trkpt>
      <trkpt lat="45.18863" lon="0.68246">
        <ele>143.4</ele>
        <time>2025-06-15T06:39:59Z</time>
      </trkpt>
      <trkpt lat="45.18861" lon="0.68245">
        <ele>143.6</ele>
        <time>2025-06-15T06:40:00Z</time>
      </trkpt>
      <trkpt lat="45.1886" lon="0.68244">
        <ele>143.6</ele>
        <time>2025-06-15T06:40:01Z</time>
      </trkpt>
      <trkpt lat="45.18859" lon="0.68242">
        <ele>143.8</ele>
        <time>2025-06-15T06:40:02Z</time>
      </trkpt>
      <trkpt lat="45.18858" lon="0.68241">
        <ele>144</ele>
        <time>2025-06-15T06:40:03Z</time>
      </trkpt>
      <trkpt lat="45.18856" lon="0.6824">
        <ele>144</ele>
        <time>2025-06-15T06:40:04Z</time>
      </trkpt>
      <trkpt lat="45.18855" lon="0.68239">
        <ele>144.2</ele>
        <time>2025-06-15T06:40:05Z</time>
      </trkpt>
      <trkpt lat="45.18854" lon="0.68238">
        <ele>144.4</ele>
        <time>2025-06-15T06:40:06Z</time>
      </trkpt>
      <trkpt lat="45.18853" lon="0.68237">
        <ele>144.6</ele>
        <time>2025-06-15T06:40:07Z</time>
      </trkpt>
      <trkpt lat="45.18851" lon="0.68236">
        <ele>144.8</ele>
        <time>2025-06-15T06:40:08Z</time>
      </trkpt>
      <trkpt lat="45.1885" lon="0.68236">
        <ele>145</ele>
        <time>2025-06-15T06:40:09Z</time>
      </trkpt>
      <trkpt lat="45.18849" lon="0.68235">
        <ele>145.2</ele>
        <time>2025-06-15T06:40:10Z</time>
      </trkpt>
      <trkpt lat="45.18848" lon="0.68234">
        <ele>145.4</ele>
        <time>2025-06-15T06:40:11Z</time>
      </trkpt>
      <trkpt lat="45.18848" lon="0.68233">
        <ele>145.6</ele>
        <time>2025-06-15T06:40:12Z</time>
      </trkpt>
      <trkpt lat="45.18847" lon="0.68233">
        <ele>145.8</ele>
        <time>2025-06-15T06:40:13Z</time>
      </trkpt>
      <trkpt lat="45.18846" lon="0.68233">
        <ele>145.8</ele>
        <time>2025-06-15T06:40:14Z</time>
      </trkpt>
      <trkpt lat="45.18846" lon="0.68232">
        <ele>146</ele>
        <time>2025-06-15T06:40:15Z</time>
      </trkpt>
      <trkpt lat="45.18845" lon="0.68231">
        <ele>146.2</ele>
        <time>2025-06-15T06:40:16Z</time>
      </trkpt>
      <trkpt lat="45.18844" lon="0.6823">
        <ele>146.4</ele>
        <time>2025-06-15T06:40:17Z</time>
      </trkpt>
      <trkpt lat="45.18844" lon="0.6823">
        <ele>146.6</ele>
        <time>2025-06-15T06:40:18Z</time>
      </trkpt>
      <trkpt lat="45.18842" lon="0.68229">
        <ele>146.8</ele>
        <time>2025-06-15T06:40:19Z</time>
      </trkpt>
      <trkpt lat="45.18841" lon="0.68228">
        <ele>147</ele>
        <time>2025-06-15T06:40:20Z</time>
      </trkpt>
      <trkpt lat="45.1884" lon="0.68227">
        <ele>147.2</ele>
        <time>2025-06-15T06:40:21Z</time>
      </trkpt>
      <trkpt lat="45.18839" lon="0.68226">
        <ele>147.4</ele>
        <time>2025-06-15T06:40:22Z</time>
      </trkpt>
      <trkpt lat="45.18838" lon="0.68225">
        <ele>147.6</ele>
        <time>2025-06-15T06:40:23Z</time>
      </trkpt>
      <trkpt lat="45.18837" lon="0.68224">
        <ele>147.8</ele>
        <time>2025-06-15T06:40:24Z</time>
      </trkpt>
      <trkpt lat="45.18836" lon="0.68223">
        <ele>148</ele>
        <time>2025-06-15T06:40:25Z</time>
      </trkpt>
      <trkpt lat="45.18835" lon="0.68222">
        <ele>148.2</ele>
        <time>2025-06-15T06:40:26Z</time>
      </trkpt>
      <trkpt lat="45.18834" lon="0.68221">
        <ele>148.4</ele>
        <time>2025-06-15T06:40:27Z</time>
      </trkpt>
      <trkpt lat="45.18832" lon="0.6822">
        <ele>148.6</ele>
        <time>2025-06-15T06:40:28Z</time>
      </trkpt>
      <trkpt lat="45.18831" lon="0.68219">
        <ele>148.8</ele>
        <time>2025-06-15T06:40:29Z</time>
      </trkpt>
      <trkpt lat="45.1883" lon="0.68217">
        <ele>149</ele>
        <time>2025-06-15T06:40:30Z</time>
      </trkpt>
      <trkpt lat="45.18829" lon="0.68216">
        <ele>149.2</ele>
        <time>2025-06-15T06:40:31Z</time>
      </trkpt>
      <trkpt lat="45.18827" lon="0.68216">
        <ele>149.4</ele>
        <time>2025-06-15T06:40:32Z</time>
      </trkpt>
      <trkpt lat="45.18826" lon="0.68215">
        <ele>149.4</ele>
        <time>2025-06-15T06:40:33Z</time>
      </trkpt>
      <trkpt lat="45.18825" lon="0.68214">
        <ele>149.6</ele>
        <time>2025-06-15T06:40:34Z</time>
      </trkpt>
      <trkpt lat="45.18824" lon="0.68213">
        <ele>149.8</ele>
        <time>2025-06-15T06:40:35Z</time>
      </trkpt>
      <trkpt lat="45.18823" lon="0.68211">
        <ele>150</ele>
        <time>2025-06-15T06:40:36Z</time>
      </trkpt>
      <trkpt lat="45.18822" lon="0.6821">
        <ele>150.2</ele>
        <time>2025-06-15T06:40:37Z</time>
      </trkpt>
      <trkpt lat="45.18821" lon="0.68209">
        <ele>150.4</ele>
        <time>2025-06-15T06:40:38Z</time>
      </trkpt>
      <trkpt lat="45.1882" lon="0.68208">
        <ele>150.6</ele>
        <time>2025-06-15T06:40:39Z</time>
      </trkpt>
      <trkpt lat="45.18819" lon="0.68207">
        <ele>150.8</ele>
        <time>2025-06-15T06:40:40Z</time>
      </trkpt>
      <trkpt lat="45.18818" lon="0.68206">
        <ele>151</ele>
        <time>2025-06-15T06:40:41Z</time>
      </trkpt>
      <trkpt lat="45.18818" lon="0.68205">
        <ele>151.2</ele>
        <time>2025-06-15T06:40:42Z</time>
      </trkpt>
      <trkpt lat="45.18816" lon="0.68204">
        <ele>151.2</ele>
        <time>2025-06-15T06:40:43Z</time>
      </trkpt>
      <trkpt lat="45.18815" lon="0.68203">
        <ele>151.4</ele>
        <time>2025-06-15T06:40:44Z</time>
      </trkpt>
      <trkpt lat="45.18814" lon="0.68201">
        <ele>151.6</ele>
        <time>2025-06-15T06:40:45Z</time>
      </trkpt>
      <trkpt lat="45.18813" lon="0.682">
        <ele>151.8</ele>
        <time>2025-06-15T06:40:46Z</time>
      </trkpt>
      <trkpt lat="45.18812" lon="0.68199">
        <ele>152</ele>
        <time>2025-06-15T06:40:47Z</time>
      </trkpt>
      <trkpt lat="45.18811" lon="0.68199">
        <ele>152.2</ele>
        <time>2025-06-15T06:40:48Z</time>
      </trkpt>
      <trkpt lat="45.1881" lon="0.68198">
        <ele>152.4</ele>
        <time>2025-06-15T06:40:49Z</time>
      </trkpt>
      <trkpt lat="45.18809" lon="0.68197">
        <ele>152.6</ele>
        <time>2025-06-15T06:40:50Z</time>
      </trkpt>
      <trkpt lat="45.18808" lon="0.68195">
        <ele>152.8</ele>
        <time>2025-06-15T06:40:51Z</time>
      </trkpt>
      <trkpt lat="45.18807" lon="0.68193">
        <ele>153</ele>
        <time>2025-06-15T06:40:52Z</time>
      </trkpt>
      <trkpt lat="45.18807" lon="0.68192">
        <ele>153.2</ele>
        <time>2025-06-15T06:40:53Z</time>
      </trkpt>
      <trkpt lat="45.18806" lon="0.68191">
        <ele>153.4</ele>
        <time>2025-06-15T06:40:54Z</time>
      </trkpt>
      <trkpt lat="45.18805" lon="0.6819">
        <ele>153.6</ele>
        <time>2025-06-15T06:40:55Z</time>
      </trkpt>
      <trkpt lat="45.18804" lon="0.68189">
        <ele>153.8</ele>
        <time>2025-06-15T06:40:56Z</time>
      </trkpt>
      <trkpt lat="45.18803" lon="0.68188">
        <ele>154</ele>
        <time>2025-06-15T06:40:57Z</time>
      </trkpt>
      <trkpt lat="45.18802" lon="0.68187">
        <ele>154.2</ele>
        <time>2025-06-15T06:40:58Z</time>
      </trkpt>
      <trkpt lat="45.18801" lon="0.68186">
        <ele>154.4</ele>
        <time>2025-06-15T06:40:59Z</time>
      </trkpt>
      <trkpt lat="45.188" lon="0.68184">
        <ele>154.6</ele>
        <time>2025-06-15T06:41:00Z</time>
      </trkpt>
      <trkpt lat="45.18799" lon="0.68183">
        <ele>154.8</ele>
        <time>2025-06-15T06:41:01Z</time>
      </trkpt>
      <trkpt lat="45.18798" lon="0.68183">
        <ele>155</ele>
        <time>2025-06-15T06:41:02Z</time>
      </trkpt>
      <trkpt lat="45.18797" lon="0.68181">
        <ele>155.2</ele>
        <time>2025-06-15T06:41:03Z</time>
      </trkpt>
      <trkpt lat="45.18796" lon="0.6818">
        <ele>155.4</ele>
        <time>2025-06-15T06:41:04Z</time>
      </trkpt>
      <trkpt lat="45.18795" lon="0.68179">
        <ele>155.6</ele>
        <time>2025-06-15T06:41:05Z</time>
      </trkpt>
      <trkpt lat="45.18794" lon="0.68177">
        <ele>155.8</ele>
        <time>2025-06-15T06:41:06Z</time>
      </trkpt>
      <trkpt lat="45.18793" lon="0.68175">
        <ele>156</ele>
        <time>2025-06-15T06:41:07Z</time>
      </trkpt>
      <trkpt lat="45.18792" lon="0.68173">
        <ele>156.2</ele>
        <time>2025-06-15T06:41:08Z</time>
      </trkpt>
      <trkpt lat="45.18792" lon="0.68172">
        <ele>156.2</ele>
        <time>2025-06-15T06:41:09Z</time>
      </trkpt>
      <trkpt lat="45.1879" lon="0.68172">
        <ele>156.4</ele>
        <time>2025-06-15T06:41:10Z</time>
      </trkpt>
      <trkpt lat="45.18789" lon="0.68172">
        <ele>156.6</ele>
        <time>2025-06-15T06:41:11Z</time>
      </trkpt>
      <trkpt lat="45.18788" lon="0.68172">
        <ele>156.8</ele>
        <time>2025-06-15T06:41:12Z</time>
      </trkpt>
      <trkpt lat="45.18787" lon="0.68172">
        <ele>157</ele>
        <time>2025-06-15T06:41:13Z</time>
      </trkpt>
      <trkpt lat="45.18785" lon="0.68172">
        <ele>157.2</ele>
        <time>2025-06-15T06:41:14Z</time>
      </trkpt>
      <trkpt lat="45.18784" lon="0.68172">
        <ele>157.6</ele>
        <time>2025-06-15T06:41:15Z</time>
      </trkpt>
      <trkpt lat="45.18783" lon="0.68171">
        <ele>157.8</ele>
        <time>2025-06-15T06:41:16Z</time>
      </trkpt>
      <trkpt lat="45.18782" lon="0.6817">
        <ele>158</ele>
        <time>2025-06-15T06:41:17Z</time>
      </trkpt>
      <trkpt lat="45.18782" lon="0.68169">
        <ele>158.2</ele>
        <time>2025-06-15T06:41:18Z</time>
      </trkpt>
      <trkpt lat="45.18782" lon="0.68167">
        <ele>158.4</ele>
        <time>2025-06-15T06:41:19Z</time>
      </trkpt>
      <trkpt lat="45.18782" lon="0.68165">
        <ele>158.6</ele>
        <time>2025-06-15T06:41:20Z</time>
      </trkpt>
      <trkpt lat="45.18782" lon="0.68162">
        <ele>158.8</ele>
        <time>2025-06-15T06:41:21Z</time>
      </trkpt>
      <trkpt lat="45.18782" lon="0.68159">
        <ele>158.8</ele>
        <time>2025-06-15T06:41:22Z</time>
      </trkpt>
      <trkpt lat="45.18781" lon="0.68156">
        <ele>158.8</ele>
        <time>2025-06-15T06:41:23Z</time>
      </trkpt>
      <trkpt lat="45.1878" lon="0.68155">
        <ele>158.8</ele>
        <time>2025-06-15T06:41:24Z</time>
      </trkpt>
      <trkpt lat="45.18778" lon="0.68152">
        <ele>158.8</ele>
        <time>2025-06-15T06:41:25Z</time>
      </trkpt>
      <trkpt lat="45.18777" lon="0.6815">
        <ele>158.8</ele>
        <time>2025-06-15T06:41:26Z</time>
      </trkpt>
      <trkpt lat="45.18776" lon="0.68148">
        <ele>159</ele>
        <time>2025-06-15T06:41:27Z</time>
      </trkpt>
      <trkpt lat="45.18774" lon="0.68146">
        <ele>159</ele>
        <time>2025-06-15T06:41:28Z</time>
      </trkpt>
      <trkpt lat="45.18773" lon="0.68144">
        <ele>159.2</ele>
        <time>2025-06-15T06:41:29Z</time>
      </trkpt>
      <trkpt lat="45.18772" lon="0.68142">
        <ele>159.4</ele>
        <time>2025-06-15T06:41:30Z</time>
      </trkpt>
      <trkpt lat="45.18771" lon="0.68141">
        <ele>159.6</ele>
        <time>2025-06-15T06:41:31Z</time>
      </trkpt>
      <trkpt lat="45.18769" lon="0.68139">
        <ele>159.8</ele>
        <time>2025-06-15T06:41:32Z</time>
      </trkpt>
      <trkpt lat="45.18768" lon="0.68137">
        <ele>160</ele>
        <time>2025-06-15T06:41:33Z</time>
      </trkpt>
      <trkpt lat="45.18766" lon="0.68135">
        <ele>160.2</ele>
        <time>2025-06-15T06:41:34Z</time>
      </trkpt>
      <trkpt lat="45.18765" lon="0.68133">
        <ele>160.4</ele>
        <time>2025-06-15T06:41:35Z</time>
      </trkpt>
      <trkpt lat="45.18763" lon="0.68131">
        <ele>160.4</ele>
        <time>2025-06-15T06:41:36Z</time>
      </trkpt>
      <trkpt lat="45.18762" lon="0.68129">
        <ele>160.6</ele>
        <time>2025-06-15T06:41:37Z</time>
      </trkpt>
      <trkpt lat="45.1876" lon="0.68127">
        <ele>160.8</ele>
        <time>2025-06-15T06:41:38Z</time>
      </trkpt>
      <trkpt lat="45.18759" lon="0.68124">
        <ele>161</ele>
        <time>2025-06-15T06:41:39Z</time>
      </trkpt>
      <trkpt lat="45.18757" lon="0.68122">
        <ele>161.2</ele>
        <time>2025-06-15T06:41:40Z</time>
      </trkpt>
      <trkpt lat="45.18755" lon="0.6812">
        <ele>161.2</ele>
        <time>2025-06-15T06:41:41Z</time>
      </trkpt>
      <trkpt lat="45.18754" lon="0.68118">
        <ele>161.4</ele>
        <time>2025-06-15T06:41:42Z</time>
      </trkpt>
      <trkpt lat="45.18753" lon="0.68116">
        <ele>161.4</ele>
        <time>2025-06-15T06:41:43Z</time>
      </trkpt>
      <trkpt lat="45.18752" lon="0.68113">
        <ele>161.6</ele>
        <time>2025-06-15T06:41:44Z</time>
      </trkpt>
      <trkpt lat="45.1875" lon="0.68111">
        <ele>161.6</ele>
        <time>2025-06-15T06:41:45Z</time>
      </trkpt>
      <trkpt lat="45.18749" lon="0.68108">
        <ele>161.8</ele>
        <time>2025-06-15T06:41:46Z</time>
      </trkpt>
      <trkpt lat="45.18747" lon="0.68105">
        <ele>161.8</ele>
        <time>2025-06-15T06:41:47Z</time>
      </trkpt>
      <trkpt lat="45.18746" lon="0.68101">
        <ele>161.8</ele>
        <time>2025-06-15T06:41:48Z</time>
      </trkpt>
      <trkpt lat="45.18745" lon="0.68098">
        <ele>161.8</ele>
        <time>2025-06-15T06:41:49Z</time>
      </trkpt>
      <trkpt lat="45.18743" lon="0.68094">
        <ele>161.8</ele>
        <time>2025-06-15T06:41:50Z</time>
      </trkpt>
      <trkpt lat="45.18741" lon="0.6809">
        <ele>161.8</ele>
        <time>2025-06-15T06:41:51Z</time>
      </trkpt>
      <trkpt lat="45.18739" lon="0.68087">
        <ele>161.8</ele>
        <time>2025-06-15T06:41:52Z</time>
      </trkpt>
      <trkpt lat="45.18736" lon="0.68083">
        <ele>161.8</ele>
        <time>2025-06-15T06:41:53Z</time>
      </trkpt>
      <trkpt lat="45.18733" lon="0.68079">
        <ele>161.8</ele>
        <time>2025-06-15T06:41:54Z</time>
      </trkpt>
      <trkpt lat="45.18731" lon="0.68076">
        <ele>161.8</ele>
        <time>2025-06-15T06:41:55Z</time>
      </trkpt>
      <trkpt lat="45.18729" lon="0.68072">
        <ele>161.8</ele>
        <time>2025-06-15T06:41:56Z</time>
      </trkpt>
      <trkpt lat="45.18726" lon="0.68069">
        <ele>161.8</ele>
        <time>2025-06-15T06:41:57Z</time>
      </trkpt>
      <trkpt lat="45.18725" lon="0.68066">
        <ele>161.8</ele>
        <time>2025-06-15T06:41:58Z</time>
      </trkpt>
      <trkpt lat="45.18723" lon="0.68062">
        <ele>161.8</ele>
        <time>2025-06-15T06:41:59Z</time>
      </trkpt>
      <trkpt lat="45.18721" lon="0.68058">
        <ele>161.6</ele>
        <time>2025-06-15T06:42:00Z</time>
      </trkpt>
      <trkpt lat="45.18718" lon="0.68053">
        <ele>161.6</ele>
        <time>2025-06-15T06:42:01Z</time>
      </trkpt>
      <trkpt lat="45.18714" lon="0.68049">
        <ele>161.6</ele>
        <time>2025-06-15T06:42:02Z</time>
      </trkpt>
      <trkpt lat="45.1871" lon="0.68045">
        <ele>161.4</ele>
        <time>2025-06-15T06:42:03Z</time>
      </trkpt>
      <trkpt lat="45.18705" lon="0.68041">
        <ele>161.4</ele>
        <time>2025-06-15T06:42:04Z</time>
      </trkpt>
      <trkpt lat="45.18702" lon="0.6804">
        <ele>161.2</ele>
        <time>2025-06-15T06:42:05Z</time>
      </trkpt>
      <trkpt lat="45.18699" lon="0.68037">
        <ele>161</ele>
        <time>2025-06-15T06:42:06Z</time>
      </trkpt>
      <trkpt lat="45.18696" lon="0.68034">
        <ele>161</ele>
        <time>2025-06-15T06:42:07Z</time>
      </trkpt>
      <trkpt lat="45.18691" lon="0.68033">
        <ele>161</ele>
        <time>2025-06-15T06:42:08Z</time>
      </trkpt>
      <trkpt lat="45.18687" lon="0.68031">
        <ele>161</ele>
        <time>2025-06-15T06:42:09Z</time>
      </trkpt>
      <trkpt lat="45.18682" lon="0.68031">
        <ele>161</ele>
        <time>2025-06-15T06:42:10Z</time>
      </trkpt>
      <trkpt lat="45.18678" lon="0.6803">
        <ele>161</ele>
        <time>2025-06-15T06:42:11Z</time>
      </trkpt>
      <trkpt lat="45.18675" lon="0.68027">
        <ele>161</ele>
        <time>2025-06-15T06:42:12Z</time>
      </trkpt>
      <trkpt lat="45.18671" lon="0.68024">
        <ele>161.2</ele>
        <time>2025-06-15T06:42:13Z</time>
      </trkpt>
      <trkpt lat="45.18668" lon="0.6802">
        <ele>161.2</ele>
        <time>2025-06-15T06:42:14Z</time>
      </trkpt>
      <trkpt lat="45.18664" lon="0.68017">
        <ele>161.2</ele>
        <time>2025-06-15T06:42:15Z</time>
      </trkpt>
      <trkpt lat="45.1866" lon="0.68013">
        <ele>161</ele>
        <time>2025-06-15T06:42:16Z</time>
      </trkpt>
      <trkpt lat="45.18655" lon="0.68012">
        <ele>161</ele>
        <time>2025-06-15T06:42:17Z</time>
      </trkpt>
      <trkpt lat="45.18651" lon="0.6801">
        <ele>160.8</ele>
        <time>2025-06-15T06:42:18Z</time>
      </trkpt>
      <trkpt lat="45.18646" lon="0.68008">
        <ele>160.6</ele>
        <time>2025-06-15T06:42:19Z</time>
      </trkpt>
      <trkpt lat="45.18642" lon="0.68006">
        <ele>160.6</ele>
        <time>2025-06-15T06:42:20Z</time>
      </trkpt>
      <trkpt lat="45.18638" lon="0.68004">
        <ele>160.6</ele>
        <time>2025-06-15T06:42:21Z</time>
      </trkpt>
      <trkpt lat="45.18634" lon="0.68002">
        <ele>160.4</ele>
        <time>2025-06-15T06:42:22Z</time>
      </trkpt>
      <trkpt lat="45.1863" lon="0.68">
        <ele>160.4</ele>
        <time>2025-06-15T06:42:23Z</time>
      </trkpt>
      <trkpt lat="45.18627" lon="0.68">
        <ele>160.6</ele>
        <time>2025-06-15T06:42:24Z</time>
      </trkpt>
      <trkpt lat="45.18625" lon="0.67999">
        <ele>160.8</ele>
        <time>2025-06-15T06:42:25Z</time>
      </trkpt>
      <trkpt lat="45.18623" lon="0.67998">
        <ele>160.8</ele>
        <time>2025-06-15T06:42:26Z</time>
      </trkpt>
      <trkpt lat="45.1862" lon="0.67996">
        <ele>161</ele>
        <time>2025-06-15T06:42:27Z</time>
      </trkpt>
      <trkpt lat="45.18617" lon="0.67994">
        <ele>161.2</ele>
        <time>2025-06-15T06:42:28Z</time>
      </trkpt>
      <trkpt lat="45.18615" lon="0.67992">
        <ele>161.4</ele>
        <time>2025-06-15T06:42:29Z</time>
      </trkpt>
      <trkpt lat="45.18612" lon="0.67989">
        <ele>161.4</ele>
        <time>2025-06-15T06:42:30Z</time>
      </trkpt>
      <trkpt lat="45.1861" lon="0.67987">
        <ele>161.6</ele>
        <time>2025-06-15T06:42:31Z</time>
      </trkpt>
      <trkpt lat="45.18608" lon="0.67984">
        <ele>161.6</ele>
        <time>2025-06-15T06:42:32Z</time>
      </trkpt>
      <trkpt lat="45.18606" lon="0.67982">
        <ele>161.6</ele>
        <time>2025-06-15T06:42:33Z</time>
      </trkpt>
      <trkpt lat="45.18605" lon="0.67981">
        <ele>161.6</ele>
        <time>2025-06-15T06:42:34Z</time>
      </trkpt>
      <trkpt lat="45.18603" lon="0.67981">
        <ele>161.6</ele>
        <time>2025-06-15T06:42:35Z</time>
      </trkpt>
      <trkpt lat="45.18602" lon="0.67979">
        <ele>161.4</ele>
        <time>2025-06-15T06:42:36Z</time>
      </trkpt>
      <trkpt lat="45.18601" lon="0.67979">
        <ele>161.2</ele>
        <time>2025-06-15T06:42:37Z</time>
      </trkpt>
      <trkpt lat="45.18599" lon="0.67978">
        <ele>161</ele>
        <time>2025-06-15T06:42:38Z</time>
      </trkpt>
      <trkpt lat="45.18599" lon="0.67977">
        <ele>161</ele>
        <time>2025-06-15T06:42:39Z</time>
      </trkpt>
      <trkpt lat="45.18599" lon="0.67975">
        <ele>161</ele>
        <time>2025-06-15T06:42:40Z</time>
      </trkpt>
      <trkpt lat="45.18598" lon="0.67972">
        <ele>160.8</ele>
        <time>2025-06-15T06:42:41Z</time>
      </trkpt>
      <trkpt lat="45.18597" lon="0.67967">
        <ele>160.8</ele>
        <time>2025-06-15T06:42:42Z</time>
      </trkpt>
      <trkpt lat="45.18595" lon="0.67961">
        <ele>160.4</ele>
        <time>2025-06-15T06:42:43Z</time>
      </trkpt>
      <trkpt lat="45.18593" lon="0.67955">
        <ele>159.8</ele>
        <time>2025-06-15T06:42:44Z</time>
      </trkpt>
      <trkpt lat="45.18589" lon="0.67952">
        <ele>159</ele>
        <time>2025-06-15T06:42:45Z</time>
      </trkpt>
      <trkpt lat="45.18585" lon="0.67951">
        <ele>158.4</ele>
        <time>2025-06-15T06:42:46Z</time>
      </trkpt>
      <trkpt lat="45.18582" lon="0.67949">
        <ele>157.8</ele>
        <time>2025-06-15T06:42:47Z</time>
      </trkpt>
      <trkpt lat="45.18579" lon="0.67949">
        <ele>157.4</ele>
        <time>2025-06-15T06:42:48Z</time>
      </trkpt>
      <trkpt lat="45.18576" lon="0.67949">
        <ele>157.6</ele>
        <time>2025-06-15T06:42:49Z</time>
      </trkpt>
      <trkpt lat="45.18574" lon="0.67949">
        <ele>157.8</ele>
        <time>2025-06-15T06:42:50Z</time>
      </trkpt>
      <trkpt lat="45.18571" lon="0.67949">
        <ele>158.2</ele>
        <time>2025-06-15T06:42:51Z</time>
      </trkpt>
      <trkpt lat="45.18569" lon="0.6795">
        <ele>158.4</ele>
        <time>2025-06-15T06:42:52Z</time>
      </trkpt>
      <trkpt lat="45.18566" lon="0.6795">
        <ele>158.8</ele>
        <time>2025-06-15T06:42:53Z</time>
      </trkpt>
      <trkpt lat="45.18563" lon="0.67951">
        <ele>159</ele>
        <time>2025-06-15T06:42:54Z</time>
      </trkpt>
      <trkpt lat="45.18561" lon="0.67951">
        <ele>159.2</ele>
        <time>2025-06-15T06:42:55Z</time>
      </trkpt>
      <trkpt lat="45.18559" lon="0.67952">
        <ele>159.4</ele>
        <time>2025-06-15T06:42:56Z</time>
      </trkpt>
      <trkpt lat="45.18556" lon="0.67953">
        <ele>159.6</ele>
        <time>2025-06-15T06:42:57Z</time>
      </trkpt>
      <trkpt lat="45.18553" lon="0.67954">
        <ele>159.8</ele>
        <time>2025-06-15T06:42:58Z</time>
      </trkpt>
      <trkpt lat="45.18551" lon="0.67954">
        <ele>160.2</ele>
        <time>2025-06-15T06:42:59Z</time>
      </trkpt>
      <trkpt lat="45.18548" lon="0.67955">
        <ele>160.4</ele>
        <time>2025-06-15T06:43:00Z</time>
      </trkpt>
      <trkpt lat="45.18545" lon="0.67955">
        <ele>160.8</ele>
        <time>2025-06-15T06:43:01Z</time>
      </trkpt>
      <trkpt lat="45.18543" lon="0.67955">
        <ele>161</ele>
        <time>2025-06-15T06:43:02Z</time>
      </trkpt>
      <trkpt lat="45.18541" lon="0.67955">
        <ele>161.4</ele>
        <time>2025-06-15T06:43:03Z</time>
      </trkpt>
      <trkpt lat="45.18539" lon="0.67956">
        <ele>161.6</ele>
        <time>2025-06-15T06:43:04Z</time>
      </trkpt>
      <trkpt lat="45.18537" lon="0.67956">
        <ele>162</ele>
        <time>2025-06-15T06:43:05Z</time>
      </trkpt>
      <trkpt lat="45.18535" lon="0.67955">
        <ele>162.2</ele>
        <time>2025-06-15T06:43:06Z</time>
      </trkpt>
      <trkpt lat="45.18533" lon="0.67955">
        <ele>162.6</ele>
        <time>2025-06-15T06:43:07Z</time>
      </trkpt>
      <trkpt lat="45.18531" lon="0.67955">
        <ele>162.8</ele>
        <time>2025-06-15T06:43:08Z</time>
      </trkpt>
      <trkpt lat="45.18529" lon="0.67955">
        <ele>163</ele>
        <time>2025-06-15T06:43:09Z</time>
      </trkpt>
      <trkpt lat="45.18527" lon="0.67956">
        <ele>163.4</ele>
        <time>2025-06-15T06:43:10Z</time>
      </trkpt>
      <trkpt lat="45.18525" lon="0.67956">
        <ele>163.6</ele>
        <time>2025-06-15T06:43:11Z</time>
      </trkpt>
      <trkpt lat="45.18524" lon="0.67956">
        <ele>164</ele>
        <time>2025-06-15T06:43:12Z</time>
      </trkpt>
      <trkpt lat="45.18522" lon="0.67957">
        <ele>164.2</ele>
        <time>2025-06-15T06:43:13Z</time>
      </trkpt>
      <trkpt lat="45.1852" lon="0.67957">
        <ele>164.4</ele>
        <time>2025-06-15T06:43:14Z</time>
      </trkpt>
      <trkpt lat="45.18518" lon="0.67957">
        <ele>164.6</ele>
        <time>2025-06-15T06:43:15Z</time>
      </trkpt>
      <trkpt lat="45.18517" lon="0.67958">
        <ele>164.8</ele>
        <time>2025-06-15T06:43:16Z</time>
      </trkpt>
      <trkpt lat="45.18515" lon="0.67958">
        <ele>165.2</ele>
        <time>2025-06-15T06:43:17Z</time>
      </trkpt>
      <trkpt lat="45.18514" lon="0.67958">
        <ele>165.4</ele>
        <time>2025-06-15T06:43:18Z</time>
      </trkpt>
      <trkpt lat="45.18512" lon="0.67958">
        <ele>165.6</ele>
        <time>2025-06-15T06:43:19Z</time>
      </trkpt>
      <trkpt lat="45.1851" lon="0.67959">
        <ele>166</ele>
        <time>2025-06-15T06:43:20Z</time>
      </trkpt>
      <trkpt lat="45.18509" lon="0.6796">
        <ele>166.4</ele>
        <time>2025-06-15T06:43:21Z</time>
      </trkpt>
      <trkpt lat="45.18506" lon="0.6796">
        <ele>166.6</ele>
        <time>2025-06-15T06:43:22Z</time>
      </trkpt>
      <trkpt lat="45.18504" lon="0.6796">
        <ele>166.8</ele>
        <time>2025-06-15T06:43:23Z</time>
      </trkpt>
      <trkpt lat="45.18503" lon="0.6796">
        <ele>167.2</ele>
        <time>2025-06-15T06:43:24Z</time>
      </trkpt>
      <trkpt lat="45.18501" lon="0.67959">
        <ele>167.4</ele>
        <time>2025-06-15T06:43:25Z</time>
      </trkpt>
      <trkpt lat="45.18499" lon="0.67959">
        <ele>167.6</ele>
        <time>2025-06-15T06:43:26Z</time>
      </trkpt>
      <trkpt lat="45.18497" lon="0.67958">
        <ele>168</ele>
        <time>2025-06-15T06:43:27Z</time>
      </trkpt>
      <trkpt lat="45.18495" lon="0.67957">
        <ele>168.2</ele>
        <time>2025-06-15T06:43:28Z</time>
      </trkpt>
      <trkpt lat="45.18493" lon="0.67957">
        <ele>168.4</ele>
        <time>2025-06-15T06:43:29Z</time>
      </trkpt>
      <trkpt lat="45.18491" lon="0.67956">
        <ele>168.6</ele>
        <time>2025-06-15T06:43:30Z</time>
      </trkpt>
      <trkpt lat="45.18489" lon="0.67956">
        <ele>168.8</ele>
        <time>2025-06-15T06:43:31Z</time>
      </trkpt>
      <trkpt lat="45.18487" lon="0.67955">
        <ele>169</ele>
        <time>2025-06-15T06:43:32Z</time>
      </trkpt>
      <trkpt lat="45.18486" lon="0.67955">
        <ele>169.2</ele>
        <time>2025-06-15T06:43:33Z</time>
      </trkpt>
      <trkpt lat="45.18484" lon="0.67955">
        <ele>169.4</ele>
        <time>2025-06-15T06:43:34Z</time>
      </trkpt>
      <trkpt lat="45.18482" lon="0.67954">
        <ele>169.6</ele>
        <time>2025-06-15T06:43:35Z</time>
      </trkpt>
      <trkpt lat="45.1848" lon="0.67954">
        <ele>169.6</ele>
        <time>2025-06-15T06:43:36Z</time>
      </trkpt>
      <trkpt lat="45.18478" lon="0.67954">
        <ele>169.8</ele>
        <time>2025-06-15T06:43:37Z</time>
      </trkpt>
      <trkpt lat="45.18477" lon="0.67954">
        <ele>170</ele>
        <time>2025-06-15T06:43:38Z</time>
      </trkpt>
      <trkpt lat="45.18475" lon="0.67953">
        <ele>170.2</ele>
        <time>2025-06-15T06:43:39Z</time>
      </trkpt>
      <trkpt lat="45.18473" lon="0.67953">
        <ele>170.4</ele>
        <time>2025-06-15T06:43:40Z</time>
      </trkpt>
      <trkpt lat="45.18471" lon="0.67953">
        <ele>170.6</ele>
        <time>2025-06-15T06:43:41Z</time>
      </trkpt>
      <trkpt lat="45.18469" lon="0.67953">
        <ele>170.6</ele>
        <time>2025-06-15T06:43:42Z</time>
      </trkpt>
      <trkpt lat="45.18467" lon="0.67953">
        <ele>170.8</ele>
        <time>2025-06-15T06:43:43Z</time>
      </trkpt>
      <trkpt lat="45.18465" lon="0.67953">
        <ele>171</ele>
        <time>2025-06-15T06:43:44Z</time>
      </trkpt>
      <trkpt lat="45.18463" lon="0.67953">
        <ele>171.2</ele>
        <time>2025-06-15T06:43:45Z</time>
      </trkpt>
      <trkpt lat="45.18462" lon="0.67953">
        <ele>171.2</ele>
        <time>2025-06-15T06:43:46Z</time>
      </trkpt>
      <trkpt lat="45.1846" lon="0.67954">
        <ele>171.4</ele>
        <time>2025-06-15T06:43:47Z</time>
      </trkpt>
      <trkpt lat="45.18458" lon="0.67955">
        <ele>171.6</ele>
        <time>2025-06-15T06:43:48Z</time>
      </trkpt>
      <trkpt lat="45.18457" lon="0.67956">
        <ele>171.8</ele>
        <time>2025-06-15T06:43:49Z</time>
      </trkpt>
      <trkpt lat="45.18455" lon="0.67956">
        <ele>172</ele>
        <time>2025-06-15T06:43:50Z</time>
      </trkpt>
      <trkpt lat="45.18453" lon="0.67957">
        <ele>172.2</ele>
        <time>2025-06-15T06:43:51Z</time>
      </trkpt>
      <trkpt lat="45.18451" lon="0.67958">
        <ele>172.4</ele>
        <time>2025-06-15T06:43:52Z</time>
      </trkpt>
      <trkpt lat="45.18449" lon="0.67958">
        <ele>172.6</ele>
        <time>2025-06-15T06:43:53Z</time>
      </trkpt>
      <trkpt lat="45.18448" lon="0.67959">
        <ele>172.8</ele>
        <time>2025-06-15T06:43:54Z</time>
      </trkpt>
      <trkpt lat="45.18446" lon="0.67959">
        <ele>173</ele>
        <time>2025-06-15T06:43:55Z</time>
      </trkpt>
      <trkpt lat="45.18444" lon="0.6796">
        <ele>173.2</ele>
        <time>2025-06-15T06:43:56Z</time>
      </trkpt>
      <trkpt lat="45.18442" lon="0.6796">
        <ele>173.4</ele>
        <time>2025-06-15T06:43:57Z</time>
      </trkpt>
      <trkpt lat="45.1844" lon="0.67961">
        <ele>173.8</ele>
        <time>2025-06-15T06:43:58Z</time>
      </trkpt>
      <trkpt lat="45.18439" lon="0.67961">
        <ele>174</ele>
        <time>2025-06-15T06:43:59Z</time>
      </trkpt>
      <trkpt lat="45.18437" lon="0.67962">
        <ele>174.2</ele>
        <time>2025-06-15T06:44:00Z</time>
      </trkpt>
      <trkpt lat="45.18435" lon="0.67963">
        <ele>174.4</ele>
        <time>2025-06-15T06:44:01Z</time>
      </trkpt>
      <trkpt lat="45.18433" lon="0.67964">
        <ele>174.6</ele>
        <time>2025-06-15T06:44:02Z</time>
      </trkpt>
      <trkpt lat="45.18432" lon="0.67965">
        <ele>175</ele>
        <time>2025-06-15T06:44:03Z</time>
      </trkpt>
      <trkpt lat="45.1843" lon="0.67965">
        <ele>175.2</ele>
        <time>2025-06-15T06:44:04Z</time>
      </trkpt>
      <trkpt lat="45.18429" lon="0.67966">
        <ele>175.4</ele>
        <time>2025-06-15T06:44:05Z</time>
      </trkpt>
      <trkpt lat="45.18426" lon="0.67967">
        <ele>175.8</ele>
        <time>2025-06-15T06:44:06Z</time>
      </trkpt>
      <trkpt lat="45.18425" lon="0.67967">
        <ele>176.2</ele>
        <time>2025-06-15T06:44:07Z</time>
      </trkpt>
      <trkpt lat="45.18423" lon="0.67968">
        <ele>176.4</ele>
        <time>2025-06-15T06:44:08Z</time>
      </trkpt>
      <trkpt lat="45.18421" lon="0.67969">
        <ele>176.6</ele>
        <time>2025-06-15T06:44:09Z</time>
      </trkpt>
      <trkpt lat="45.1842" lon="0.6797">
        <ele>177</ele>
        <time>2025-06-15T06:44:10Z</time>
      </trkpt>
      <trkpt lat="45.18418" lon="0.67971">
        <ele>177.2</ele>
        <time>2025-06-15T06:44:11Z</time>
      </trkpt>
      <trkpt lat="45.18416" lon="0.67971">
        <ele>177.4</ele>
        <time>2025-06-15T06:44:12Z</time>
      </trkpt>
      <trkpt lat="45.18414" lon="0.67972">
        <ele>177.6</ele>
        <time>2025-06-15T06:44:13Z</time>
      </trkpt>
      <trkpt lat="45.18412" lon="0.67973">
        <ele>177.8</ele>
        <time>2025-06-15T06:44:14Z</time>
      </trkpt>
      <trkpt lat="45.1841" lon="0.67974">
        <ele>178</ele>
        <time>2025-06-15T06:44:15Z</time>
      </trkpt>
      <trkpt lat="45.18408" lon="0.67974">
        <ele>178.2</ele>
        <time>2025-06-15T06:44:16Z</time>
      </trkpt>
      <trkpt lat="45.18406" lon="0.67974">
        <ele>178.4</ele>
        <time>2025-06-15T06:44:17Z</time>
      </trkpt>
      <trkpt lat="45.18405" lon="0.67975">
        <ele>178.6</ele>
        <time>2025-06-15T06:44:18Z</time>
      </trkpt>
      <trkpt lat="45.18403" lon="0.67976">
        <ele>178.8</ele>
        <time>2025-06-15T06:44:19Z</time>
      </trkpt>
      <trkpt lat="45.18401" lon="0.67977">
        <ele>179</ele>
        <time>2025-06-15T06:44:20Z</time>
      </trkpt>
      <trkpt lat="45.18398" lon="0.67978">
        <ele>179</ele>
        <time>2025-06-15T06:44:21Z</time>
      </trkpt>
      <trkpt lat="45.18396" lon="0.67979">
        <ele>179.2</ele>
        <time>2025-06-15T06:44:22Z</time>
      </trkpt>
      <trkpt lat="45.18394" lon="0.67979">
        <ele>179.6</ele>
        <time>2025-06-15T06:44:23Z</time>
      </trkpt>
      <trkpt lat="45.18392" lon="0.6798">
        <ele>179.6</ele>
        <time>2025-06-15T06:44:24Z</time>
      </trkpt>
      <trkpt lat="45.1839" lon="0.67981">
        <ele>179.8</ele>
        <time>2025-06-15T06:44:25Z</time>
      </trkpt>
      <trkpt lat="45.18388" lon="0.67982">
        <ele>180</ele>
        <time>2025-06-15T06:44:26Z</time>
      </trkpt>
      <trkpt lat="45.18385" lon="0.67983">
        <ele>180.2</ele>
        <time>2025-06-15T06:44:27Z</time>
      </trkpt>
      <trkpt lat="45.18383" lon="0.67983">
        <ele>180.2</ele>
        <time>2025-06-15T06:44:28Z</time>
      </trkpt>
      <trkpt lat="45.18381" lon="0.67983">
        <ele>180.4</ele>
        <time>2025-06-15T06:44:29Z</time>
      </trkpt>
      <trkpt lat="45.18379" lon="0.67983">
        <ele>180.6</ele>
        <time>2025-06-15T06:44:30Z</time>
      </trkpt>
      <trkpt lat="45.18377" lon="0.67984">
        <ele>180.6</ele>
        <time>2025-06-15T06:44:31Z</time>
      </trkpt>
      <trkpt lat="45.18375" lon="0.67985">
        <ele>180.8</ele>
        <time>2025-06-15T06:44:32Z</time>
      </trkpt>
      <trkpt lat="45.18373" lon="0.67986">
        <ele>181</ele>
        <time>2025-06-15T06:44:33Z</time>
      </trkpt>
      <trkpt lat="45.18371" lon="0.67987">
        <ele>181.2</ele>
        <time>2025-06-15T06:44:34Z</time>
      </trkpt>
      <trkpt lat="45.1837" lon="0.67986">
        <ele>181.4</ele>
        <time>2025-06-15T06:44:35Z</time>
      </trkpt>
      <trkpt lat="45.18369" lon="0.67984">
        <ele>181.6</ele>
        <time>2025-06-15T06:44:36Z</time>
      </trkpt>
      <trkpt lat="45.18369" lon="0.67983">
        <ele>181.8</ele>
        <time>2025-06-15T06:44:37Z</time>
      </trkpt>
      <trkpt lat="45.18369" lon="0.67981">
        <ele>182</ele>
        <time>2025-06-15T06:44:38Z</time>
      </trkpt>
      <trkpt lat="45.18369" lon="0.67979">
        <ele>182.2</ele>
        <time>2025-06-15T06:44:39Z</time>
      </trkpt>
      <trkpt lat="45.18368" lon="0.67977">
        <ele>182.2</ele>
        <time>2025-06-15T06:44:40Z</time>
      </trkpt>
      <trkpt lat="45.18367" lon="0.67976">
        <ele>182.4</ele>
        <time>2025-06-15T06:44:41Z</time>
      </trkpt>
      <trkpt lat="45.18366" lon="0.67975">
        <ele>182.4</ele>
        <time>2025-06-15T06:44:42Z</time>
      </trkpt>
      <trkpt lat="45.18365" lon="0.67975">
        <ele>182.4</ele>
        <time>2025-06-15T06:44:43Z</time>
      </trkpt>
      <trkpt lat="45.18364" lon="0.67976">
        <ele>182.4</ele>
        <time>2025-06-15T06:44:44Z</time>
      </trkpt>
      <trkpt lat="45.18364" lon="0.67978">
        <ele>182.4</ele>
        <time>2025-06-15T06:44:45Z</time>
      </trkpt>
      <trkpt lat="45.18363" lon="0.67979">
        <ele>182.4</ele>
        <time>2025-06-15T06:44:46Z</time>
      </trkpt>
      <trkpt lat="45.18362" lon="0.67979">
        <ele>182.4</ele>
        <time>2025-06-15T06:44:47Z</time>
      </trkpt>
      <trkpt lat="45.18361" lon="0.67979">
        <ele>182.4</ele>
        <time>2025-06-15T06:44:48Z</time>
      </trkpt>
      <trkpt lat="45.1836" lon="0.67977">
        <ele>182.6</ele>
        <time>2025-06-15T06:44:49Z</time>
      </trkpt>
      <trkpt lat="45.1836" lon="0.67976">
        <ele>182.6</ele>
        <time>2025-06-15T06:44:50Z</time>
      </trkpt>
      <trkpt lat="45.18359" lon="0.67974">
        <ele>182.6</ele>
        <time>2025-06-15T06:44:51Z</time>
      </trkpt>
      <trkpt lat="45.18358" lon="0.67974">
        <ele>182.6</ele>
        <time>2025-06-15T06:44:52Z</time>
      </trkpt>
      <trkpt lat="45.18356" lon="0.67974">
        <ele>182.6</ele>
        <time>2025-06-15T06:44:53Z</time>
      </trkpt>
      <trkpt lat="45.18356" lon="0.67976">
        <ele>182.6</ele>
        <time>2025-06-15T06:44:54Z</time>
      </trkpt>
      <trkpt lat="45.18356" lon="0.67977">
        <ele>182.8</ele>
        <time>2025-06-15T06:44:55Z</time>
      </trkpt>
      <trkpt lat="45.18357" lon="0.67978">
        <ele>182.8</ele>
        <time>2025-06-15T06:44:56Z</time>
      </trkpt>
      <trkpt lat="45.18357" lon="0.6798">
        <ele>182.8</ele>
        <time>2025-06-15T06:44:57Z</time>
      </trkpt>
      <trkpt lat="45.18358" lon="0.67981">
        <ele>182.8</ele>
        <time>2025-06-15T06:44:58Z</time>
      </trkpt>
      <trkpt lat="45.18359" lon="0.67983">
        <ele>182.8</ele>
        <time>2025-06-15T06:44:59Z</time>
      </trkpt>
      <trkpt lat="45.1836" lon="0.67983">
        <ele>182.8</ele>
        <time>2025-06-15T06:45:00Z</time>
      </trkpt>
      <trkpt lat="45.18362" lon="0.67984">
        <ele>182.6</ele>
        <time>2025-06-15T06:45:01Z</time>
      </trkpt>
      <trkpt lat="45.18363" lon="0.67984">
        <ele>182.6</ele>
        <time>2025-06-15T06:45:02Z</time>
      </trkpt>
      <trkpt lat="45.18363" lon="0.67985">
        <ele>182.6</ele>
        <time>2025-06-15T06:45:03Z</time>
      </trkpt>
      <trkpt lat="45.18364" lon="0.67985">
        <ele>182.6</ele>
        <time>2025-06-15T06:45:04Z</time>
      </trkpt>
      <trkpt lat="45.18365" lon="0.67985">
        <ele>182.6</ele>
        <time>2025-06-15T06:45:05Z</time>
      </trkpt>
      <trkpt lat="45.18366" lon="0.67985">
        <ele>182.6</ele>
        <time>2025-06-15T06:45:06Z</time>
      </trkpt>
      <trkpt lat="45.18367" lon="0.67985">
        <ele>182.6</ele>
        <time>2025-06-15T06:45:07Z</time>
      </trkpt>
      <trkpt lat="45.18368" lon="0.67983">
        <ele>182.6</ele>
        <time>2025-06-15T06:45:08Z</time>
      </trkpt>
      <trkpt lat="45.18368" lon="0.67982">
        <ele>182.6</ele>
        <time>2025-06-15T06:45:09Z</time>
      </trkpt>
      <trkpt lat="45.18367" lon="0.6798">
        <ele>182.6</ele>
        <time>2025-06-15T06:45:10Z</time>
      </trkpt>
      <trkpt lat="45.18367" lon="0.67979">
        <ele>182.6</ele>
        <time>2025-06-15T06:45:11Z</time>
      </trkpt>
      <trkpt lat="45.18366" lon="0.67977">
        <ele>182.6</ele>
        <time>2025-06-15T06:45:12Z</time>
      </trkpt>
      <trkpt lat="45.18365" lon="0.67976">
        <ele>182.6</ele>
        <time>2025-06-15T06:45:13Z</time>
      </trkpt>
      <trkpt lat="45.18364" lon="0.67975">
        <ele>182.8</ele>
        <time>2025-06-15T06:45:14Z</time>
      </trkpt>
      <trkpt lat="45.18363" lon="0.67975">
        <ele>182.8</ele>
        <time>2025-06-15T06:45:15Z</time>
      </trkpt>
      <trkpt lat="45.18361" lon="0.67974">
        <ele>182.8</ele>
        <time>2025-06-15T06:45:16Z</time>
      </trkpt>
      <trkpt lat="45.1836" lon="0.67974">
        <ele>182.8</ele>
        <time>2025-06-15T06:45:17Z</time>
      </trkpt>
      <trkpt lat="45.18359" lon="0.67975">
        <ele>182.8</ele>
        <time>2025-06-15T06:45:18Z</time>
      </trkpt>
      <trkpt lat="45.18358" lon="0.67976">
        <ele>182.8</ele>
        <time>2025-06-15T06:45:19Z</time>
      </trkpt>
      <trkpt lat="45.18358" lon="0.67977">
        <ele>182.8</ele>
        <time>2025-06-15T06:45:20Z</time>
      </trkpt>
      <trkpt lat="45.18358" lon="0.67978">
        <ele>182.8</ele>
        <time>2025-06-15T06:45:21Z</time>
      </trkpt>
      <trkpt lat="45.18357" lon="0.67978">
        <ele>183</ele>
        <time>2025-06-15T06:45:22Z</time>
      </trkpt>
      <trkpt lat="45.18357" lon="0.67979">
        <ele>183</ele>
        <time>2025-06-15T06:45:23Z</time>
      </trkpt>
      <trkpt lat="45.18356" lon="0.6798">
        <ele>183</ele>
        <time>2025-06-15T06:45:24Z</time>
      </trkpt>
      <trkpt lat="45.18355" lon="0.6798">
        <ele>183</ele>
        <time>2025-06-15T06:45:25Z</time>
      </trkpt>
      <trkpt lat="45.18354" lon="0.6798">
        <ele>183</ele>
        <time>2025-06-15T06:45:26Z</time>
      </trkpt>
      <trkpt lat="45.18353" lon="0.6798">
        <ele>183</ele>
        <time>2025-06-15T06:45:27Z</time>
      </trkpt>
      <trkpt lat="45.18352" lon="0.67979">
        <ele>183</ele>
        <time>2025-06-15T06:45:28Z</time>
      </trkpt>
      <trkpt lat="45.1835" lon="0.67979">
        <ele>183.2</ele>
        <time>2025-06-15T06:45:29Z</time>
      </trkpt>
      <trkpt lat="45.1835" lon="0.67981">
        <ele>183.2</ele>
        <time>2025-06-15T06:45:30Z</time>
      </trkpt>
      <trkpt lat="45.1835" lon="0.67984">
        <ele>183.2</ele>
        <time>2025-06-15T06:45:31Z</time>
      </trkpt>
      <trkpt lat="45.1835" lon="0.67986">
        <ele>183.2</ele>
        <time>2025-06-15T06:45:32Z</time>
      </trkpt>
      <trkpt lat="45.1835" lon="0.67988">
        <ele>183.2</ele>
        <time>2025-06-15T06:45:33Z</time>
      </trkpt>
      <trkpt lat="45.18349" lon="0.67991">
        <ele>183.2</ele>
        <time>2025-06-15T06:45:34Z</time>
      </trkpt>
      <trkpt lat="45.18348" lon="0.67994">
        <ele>183.2</ele>
        <time>2025-06-15T06:45:35Z</time>
      </trkpt>
      <trkpt lat="45.18346" lon="0.67998">
        <ele>183.2</ele>
        <time>2025-06-15T06:45:36Z</time>
      </trkpt>
      <trkpt lat="45.18345" lon="0.68001">
        <ele>183.4</ele>
        <time>2025-06-15T06:45:37Z</time>
      </trkpt>
      <trkpt lat="45.18343" lon="0.68004">
        <ele>183.4</ele>
        <time>2025-06-15T06:45:38Z</time>
      </trkpt>
      <trkpt lat="45.1834" lon="0.68007">
        <ele>183.4</ele>
        <time>2025-06-15T06:45:39Z</time>
      </trkpt>
      <trkpt lat="45.18338" lon="0.68008">
        <ele>183.4</ele>
        <time>2025-06-15T06:45:40Z</time>
      </trkpt>
      <trkpt lat="45.18335" lon="0.6801">
        <ele>183.4</ele>
        <time>2025-06-15T06:45:41Z</time>
      </trkpt>
      <trkpt lat="45.18332" lon="0.68011">
        <ele>183.6</ele>
        <time>2025-06-15T06:45:42Z</time>
      </trkpt>
      <trkpt lat="45.18329" lon="0.68013">
        <ele>183.6</ele>
        <time>2025-06-15T06:45:43Z</time>
      </trkpt>
      <trkpt lat="45.18326" lon="0.68014">
        <ele>183.6</ele>
        <time>2025-06-15T06:45:44Z</time>
      </trkpt>
      <trkpt lat="45.18323" lon="0.68016">
        <ele>183.8</ele>
        <time>2025-06-15T06:45:45Z</time>
      </trkpt>
      <trkpt lat="45.1832" lon="0.68018">
        <ele>183.8</ele>
        <time>2025-06-15T06:45:46Z</time>
      </trkpt>
      <trkpt lat="45.18317" lon="0.68019">
        <ele>184</ele>
        <time>2025-06-15T06:45:47Z</time>
      </trkpt>
      <trkpt lat="45.18314" lon="0.68021">
        <ele>184</ele>
        <time>2025-06-15T06:45:48Z</time>
      </trkpt>
      <trkpt lat="45.1831" lon="0.68023">
        <ele>184</ele>
        <time>2025-06-15T06:45:49Z</time>
      </trkpt>
      <trkpt lat="45.18307" lon="0.68025">
        <ele>184.2</ele>
        <time>2025-06-15T06:45:50Z</time>
      </trkpt>
      <trkpt lat="45.18304" lon="0.68028">
        <ele>184.2</ele>
        <time>2025-06-15T06:45:51Z</time>
      </trkpt>
      <trkpt lat="45.18301" lon="0.6803">
        <ele>184.4</ele>
        <time>2025-06-15T06:45:52Z</time>
      </trkpt>
      <trkpt lat="45.18298" lon="0.68033">
        <ele>184.4</ele>
        <time>2025-06-15T06:45:53Z</time>
      </trkpt>
      <trkpt lat="45.18294" lon="0.68035">
        <ele>184.6</ele>
        <time>2025-06-15T06:45:54Z</time>
      </trkpt>
      <trkpt lat="45.1829" lon="0.68038">
        <ele>184.6</ele>
        <time>2025-06-15T06:45:55Z</time>
      </trkpt>
      <trkpt lat="45.18286" lon="0.6804">
        <ele>184.8</ele>
        <time>2025-06-15T06:45:56Z</time>
      </trkpt>
      <trkpt lat="45.18282" lon="0.68043">
        <ele>184.8</ele>
        <time>2025-06-15T06:45:57Z</time>
      </trkpt>
      <trkpt lat="45.18278" lon="0.68045">
        <ele>184.8</ele>
        <time>2025-06-15T06:45:58Z</time>
      </trkpt>
      <trkpt lat="45.18273" lon="0.68048">
        <ele>184.8</ele>
        <time>2025-06-15T06:45:59Z</time>
      </trkpt>
      <trkpt lat="45.18269" lon="0.68051">
        <ele>184.8</ele>
        <time>2025-06-15T06:46:00Z</time>
      </trkpt>
      <trkpt lat="45.18264" lon="0.68054">
        <ele>184.8</ele>
        <time>2025-06-15T06:46:01Z</time>
      </trkpt>
      <trkpt lat="45.1826" lon="0.68056">
        <ele>184.8</ele>
        <time>2025-06-15T06:46:02Z</time>
      </trkpt>
      <trkpt lat="45.18256" lon="0.68059">
        <ele>184.8</ele>
        <time>2025-06-15T06:46:03Z</time>
      </trkpt>
      <trkpt lat="45.18251" lon="0.68061">
        <ele>184.8</ele>
        <time>2025-06-15T06:46:04Z</time>
      </trkpt>
      <trkpt lat="45.18247" lon="0.68064">
        <ele>184.8</ele>
        <time>2025-06-15T06:46:05Z</time>
      </trkpt>
      <trkpt lat="45.18242" lon="0.68067">
        <ele>184.8</ele>
        <time>2025-06-15T06:46:06Z</time>
      </trkpt>
      <trkpt lat="45.18238" lon="0.6807">
        <ele>184.6</ele>
        <time>2025-06-15T06:46:07Z</time>
      </trkpt>
      <trkpt lat="45.18233" lon="0.68073">
        <ele>184.6</ele>
        <time>2025-06-15T06:46:08Z</time>
      </trkpt>
      <trkpt lat="45.18229" lon="0.68077">
        <ele>184.6</ele>
        <time>2025-06-15T06:46:09Z</time>
      </trkpt>
      <trkpt lat="45.18224" lon="0.68081">
        <ele>184.4</ele>
        <time>2025-06-15T06:46:10Z</time>
      </trkpt>
      <trkpt lat="45.1822" lon="0.68087">
        <ele>184.4</ele>
        <time>2025-06-15T06:46:11Z</time>
      </trkpt>
      <trkpt lat="45.18216" lon="0.68093">
        <ele>184.2</ele>
        <time>2025-06-15T06:46:12Z</time>
      </trkpt>
      <trkpt lat="45.18212" lon="0.68099">
        <ele>184</ele>
        <time>2025-06-15T06:46:13Z</time>
      </trkpt>
      <trkpt lat="45.18209" lon="0.68106">
        <ele>183.8</ele>
        <time>2025-06-15T06:46:14Z</time>
      </trkpt>
      <trkpt lat="45.18206" lon="0.68113">
        <ele>183.8</ele>
        <time>2025-06-15T06:46:15Z</time>
      </trkpt>
      <trkpt lat="45.18203" lon="0.6812">
        <ele>183.6</ele>
        <time>2025-06-15T06:46:16Z</time>
      </trkpt>
      <trkpt lat="45.182" lon="0.68128">
        <ele>183.4</ele>
        <time>2025-06-15T06:46:17Z</time>
      </trkpt>
      <trkpt lat="45.18197" lon="0.68136">
        <ele>183.4</ele>
        <time>2025-06-15T06:46:18Z</time>
      </trkpt>
      <trkpt lat="45.18194" lon="0.68144">
        <ele>183.2</ele>
        <time>2025-06-15T06:46:19Z</time>
      </trkpt>
      <trkpt lat="45.18191" lon="0.68152">
        <ele>183.2</ele>
        <time>2025-06-15T06:46:20Z</time>
      </trkpt>
      <trkpt lat="45.18188" lon="0.6816">
        <ele>183.2</ele>
        <time>2025-06-15T06:46:21Z</time>
      </trkpt>
      <trkpt lat="45.18184" lon="0.68169">
        <ele>183</ele>
        <time>2025-06-15T06:46:22Z</time>
      </trkpt>
      <trkpt lat="45.18181" lon="0.68177">
        <ele>182.8</ele>
        <time>2025-06-15T06:46:23Z</time>
      </trkpt>
      <trkpt lat="45.18177" lon="0.68186">
        <ele>182.6</ele>
        <time>2025-06-15T06:46:24Z</time>
      </trkpt>
      <trkpt lat="45.18174" lon="0.68195">
        <ele>182.4</ele>
        <time>2025-06-15T06:46:25Z</time>
      </trkpt>
      <trkpt lat="45.1817" lon="0.68203">
        <ele>182.4</ele>
        <time>2025-06-15T06:46:26Z</time>
      </trkpt>
      <trkpt lat="45.18167" lon="0.68211">
        <ele>182.2</ele>
        <time>2025-06-15T06:46:27Z</time>
      </trkpt>
      <trkpt lat="45.18163" lon="0.68219">
        <ele>182.2</ele>
        <time>2025-06-15T06:46:28Z</time>
      </trkpt>
      <trkpt lat="45.18159" lon="0.68226">
        <ele>182.2</ele>
        <time>2025-06-15T06:46:29Z</time>
      </trkpt>
      <trkpt lat="45.18155" lon="0.68228">
        <ele>182.2</ele>
        <time>2025-06-15T06:46:30Z</time>
      </trkpt>
      <trkpt lat="45.18151" lon="0.68226">
        <ele>182.2</ele>
        <time>2025-06-15T06:46:31Z</time>
      </trkpt>
      <trkpt lat="45.1815" lon="0.68221">
        <ele>182.4</ele>
        <time>2025-06-15T06:46:32Z</time>
      </trkpt>
      <trkpt lat="45.18149" lon="0.68214">
        <ele>182.4</ele>
        <time>2025-06-15T06:46:33Z</time>
      </trkpt>
      <trkpt lat="45.18148" lon="0.68207">
        <ele>182.4</ele>
        <time>2025-06-15T06:46:34Z</time>
      </trkpt>
      <trkpt lat="45.18148" lon="0.682">
        <ele>182.2</ele>
        <time>2025-06-15T06:46:35Z</time>
      </trkpt>
      <trkpt lat="45.18147" lon="0.68192">
        <ele>182</ele>
        <time>2025-06-15T06:46:36Z</time>
      </trkpt>
      <trkpt lat="45.18145" lon="0.68184">
        <ele>181.8</ele>
        <time>2025-06-15T06:46:37Z</time>
      </trkpt>
      <trkpt lat="45.18144" lon="0.68176">
        <ele>181.4</ele>
        <time>2025-06-15T06:46:38Z</time>
      </trkpt>
      <trkpt lat="45.18143" lon="0.68167">
        <ele>181.2</ele>
        <time>2025-06-15T06:46:39Z</time>
      </trkpt>
      <trkpt lat="45.18142" lon="0.68158">
        <ele>181</ele>
        <time>2025-06-15T06:46:40Z</time>
      </trkpt>
      <trkpt lat="45.18141" lon="0.6815">
        <ele>180.8</ele>
        <time>2025-06-15T06:46:41Z</time>
      </trkpt>
      <trkpt lat="45.1814" lon="0.68141">
        <ele>180.4</ele>
        <time>2025-06-15T06:46:42Z</time>
      </trkpt>
      <trkpt lat="45.18139" lon="0.68132">
        <ele>180.4</ele>
        <time>2025-06-15T06:46:43Z</time>
      </trkpt>
      <trkpt lat="45.18138" lon="0.68123">
        <ele>180.2</ele>
        <time>2025-06-15T06:46:44Z</time>
      </trkpt>
      <trkpt lat="45.18137" lon="0.68114">
        <ele>180</ele>
        <time>2025-06-15T06:46:45Z</time>
      </trkpt>
      <trkpt lat="45.18135" lon="0.68104">
        <ele>179.6</ele>
        <time>2025-06-15T06:46:46Z</time>
      </trkpt>
      <trkpt lat="45.18134" lon="0.68093">
        <ele>179.2</ele>
        <time>2025-06-15T06:46:47Z</time>
      </trkpt>
      <trkpt lat="45.18133" lon="0.68083">
        <ele>178.6</ele>
        <time>2025-06-15T06:46:48Z</time>
      </trkpt>
      <trkpt lat="45.18132" lon="0.68073">
        <ele>178.2</ele>
        <time>2025-06-15T06:46:49Z</time>
      </trkpt>
      <trkpt lat="45.18131" lon="0.68064">
        <ele>177.8</ele>
        <time>2025-06-15T06:46:50Z</time>
      </trkpt>
      <trkpt lat="45.1813" lon="0.68055">
        <ele>177.4</ele>
        <time>2025-06-15T06:46:51Z</time>
      </trkpt>
      <trkpt lat="45.18128" lon="0.68049">
        <ele>177</ele>
        <time>2025-06-15T06:46:52Z</time>
      </trkpt>
      <trkpt lat="45.18124" lon="0.68045">
        <ele>176.6</ele>
        <time>2025-06-15T06:46:53Z</time>
      </trkpt>
      <trkpt lat="45.18119" lon="0.68043">
        <ele>176.6</ele>
        <time>2025-06-15T06:46:54Z</time>
      </trkpt>
      <trkpt lat="45.18114" lon="0.68043">
        <ele>176.2</ele>
        <time>2025-06-15T06:46:55Z</time>
      </trkpt>
      <trkpt lat="45.18108" lon="0.68042">
        <ele>175.6</ele>
        <time>2025-06-15T06:46:56Z</time>
      </trkpt>
      <trkpt lat="45.18101" lon="0.6804">
        <ele>175</ele>
        <time>2025-06-15T06:46:57Z</time>
      </trkpt>
      <trkpt lat="45.18094" lon="0.68039">
        <ele>174.4</ele>
        <time>2025-06-15T06:46:58Z</time>
      </trkpt>
      <trkpt lat="45.18087" lon="0.68037">
        <ele>173.8</ele>
        <time>2025-06-15T06:46:59Z</time>
      </trkpt>
      <trkpt lat="45.18079" lon="0.68035">
        <ele>173</ele>
        <time>2025-06-15T06:47:00Z</time>
      </trkpt>
      <trkpt lat="45.18071" lon="0.68033">
        <ele>172.4</ele>
        <time>2025-06-15T06:47:01Z</time>
      </trkpt>
      <trkpt lat="45.18063" lon="0.6803">
        <ele>171.8</ele>
        <time>2025-06-15T06:47:02Z</time>
      </trkpt>
      <trkpt lat="45.18055" lon="0.68027">
        <ele>171.2</ele>
        <time>2025-06-15T06:47:03Z</time>
      </trkpt>
      <trkpt lat="45.18046" lon="0.68022">
        <ele>169.6</ele>
        <time>2025-06-15T06:47:04Z</time>
      </trkpt>
      <trkpt lat="45.18038" lon="0.68018">
        <ele>169</ele>
        <time>2025-06-15T06:47:05Z</time>
      </trkpt>
      <trkpt lat="45.18028" lon="0.68015">
        <ele>168</ele>
        <time>2025-06-15T06:47:06Z</time>
      </trkpt>
      <trkpt lat="45.18019" lon="0.68014">
        <ele>167</ele>
        <time>2025-06-15T06:47:07Z</time>
      </trkpt>
      <trkpt lat="45.1801" lon="0.68011">
        <ele>165.4</ele>
        <time>2025-06-15T06:47:08Z</time>
      </trkpt>
      <trkpt lat="45.18" lon="0.68007">
        <ele>164.4</ele>
        <time>2025-06-15T06:47:09Z</time>
      </trkpt>
      <trkpt lat="45.17992" lon="0.68003">
        <ele>163.4</ele>
        <time>2025-06-15T06:47:10Z</time>
      </trkpt>
      <trkpt lat="45.17984" lon="0.68">
        <ele>162.6</ele>
        <time>2025-06-15T06:47:11Z</time>
      </trkpt>
      <trkpt lat="45.17978" lon="0.67995">
        <ele>162</ele>
        <time>2025-06-15T06:47:12Z</time>
      </trkpt>
      <trkpt lat="45.17972" lon="0.67989">
        <ele>161.4</ele>
        <time>2025-06-15T06:47:13Z</time>
      </trkpt>
      <trkpt lat="45.17966" lon="0.67983">
        <ele>160.4</ele>
        <time>2025-06-15T06:47:14Z</time>
      </trkpt>
      <trkpt lat="45.1796" lon="0.67977">
        <ele>159.6</ele>
        <time>2025-06-15T06:47:15Z</time>
      </trkpt>
      <trkpt lat="45.17954" lon="0.67974">
        <ele>158.8</ele>
        <time>2025-06-15T06:47:16Z</time>
      </trkpt>
      <trkpt lat="45.17948" lon="0.6797">
        <ele>158</ele>
        <time>2025-06-15T06:47:17Z</time>
      </trkpt>
      <trkpt lat="45.17942" lon="0.67967">
        <ele>157.2</ele>
        <time>2025-06-15T06:47:18Z</time>
      </trkpt>
      <trkpt lat="45.17936" lon="0.67964">
        <ele>156.8</ele>
        <time>2025-06-15T06:47:19Z</time>
      </trkpt>
      <trkpt lat="45.17929" lon="0.67963">
        <ele>156.4</ele>
        <time>2025-06-15T06:47:20Z</time>
      </trkpt>
      <trkpt lat="45.17922" lon="0.67961">
        <ele>155.8</ele>
        <time>2025-06-15T06:47:21Z</time>
      </trkpt>
      <trkpt lat="45.17914" lon="0.67959">
        <ele>155.2</ele>
        <time>2025-06-15T06:47:22Z</time>
      </trkpt>
      <trkpt lat="45.17906" lon="0.67957">
        <ele>154.6</ele>
        <time>2025-06-15T06:47:23Z</time>
      </trkpt>
      <trkpt lat="45.17899" lon="0.67956">
        <ele>154</ele>
        <time>2025-06-15T06:47:24Z</time>
      </trkpt>
      <trkpt lat="45.17893" lon="0.67954">
        <ele>153.4</ele>
        <time>2025-06-15T06:47:25Z</time>
      </trkpt>
      <trkpt lat="45.17887" lon="0.67953">
        <ele>152.4</ele>
        <time>2025-06-15T06:47:26Z</time>
      </trkpt>
      <trkpt lat="45.17881" lon="0.67953">
        <ele>151.8</ele>
        <time>2025-06-15T06:47:27Z</time>
      </trkpt>
      <trkpt lat="45.17876" lon="0.67952">
        <ele>151.2</ele>
        <time>2025-06-15T06:47:28Z</time>
      </trkpt>
      <trkpt lat="45.1787" lon="0.67949">
        <ele>150.6</ele>
        <time>2025-06-15T06:47:29Z</time>
      </trkpt>
      <trkpt lat="45.17865" lon="0.67947">
        <ele>150</ele>
        <time>2025-06-15T06:47:30Z</time>
      </trkpt>
      <trkpt lat="45.17861" lon="0.67944">
        <ele>149.4</ele>
        <time>2025-06-15T06:47:31Z</time>
      </trkpt>
      <trkpt lat="45.17856" lon="0.67943">
        <ele>148.6</ele>
        <time>2025-06-15T06:47:32Z</time>
      </trkpt>
      <trkpt lat="45.17851" lon="0.6794">
        <ele>148</ele>
        <time>2025-06-15T06:47:33Z</time>
      </trkpt>
      <trkpt lat="45.17848" lon="0.67936">
        <ele>147.4</ele>
        <time>2025-06-15T06:47:34Z</time>
      </trkpt>
      <trkpt lat="45.17845" lon="0.6793">
        <ele>146.8</ele>
        <time>2025-06-15T06:47:35Z</time>
      </trkpt>
      <trkpt lat="45.17843" lon="0.67924">
        <ele>146</ele>
        <time>2025-06-15T06:47:36Z</time>
      </trkpt>
      <trkpt lat="45.1784" lon="0.67916">
        <ele>145.2</ele>
        <time>2025-06-15T06:47:37Z</time>
      </trkpt>
      <trkpt lat="45.17838" lon="0.67909">
        <ele>144.6</ele>
        <time>2025-06-15T06:47:38Z</time>
      </trkpt>
      <trkpt lat="45.17835" lon="0.679">
        <ele>144</ele>
        <time>2025-06-15T06:47:39Z</time>
      </trkpt>
      <trkpt lat="45.17832" lon="0.6789">
        <ele>143.6</ele>
        <time>2025-06-15T06:47:40Z</time>
      </trkpt>
      <trkpt lat="45.1783" lon="0.6788">
        <ele>143.2</ele>
        <time>2025-06-15T06:47:41Z</time>
      </trkpt>
      <trkpt lat="45.17827" lon="0.67869">
        <ele>142.6</ele>
        <time>2025-06-15T06:47:42Z</time>
      </trkpt>
      <trkpt lat="45.17825" lon="0.67858">
        <ele>142.2</ele>
        <time>2025-06-15T06:47:43Z</time>
      </trkpt>
      <trkpt lat="45.17825" lon="0.67848">
        <ele>141.8</ele>
        <time>2025-06-15T06:47:44Z</time>
      </trkpt>
      <trkpt lat="45.17824" lon="0.67838">
        <ele>141.2</ele>
        <time>2025-06-15T06:47:45Z</time>
      </trkpt>
      <trkpt lat="45.17824" lon="0.67828">
        <ele>140.6</ele>
        <time>2025-06-15T06:47:46Z</time>
      </trkpt>
      <trkpt lat="45.17823" lon="0.67817">
        <ele>140.2</ele>
        <time>2025-06-15T06:47:47Z</time>
      </trkpt>
      <trkpt lat="45.17822" lon="0.67807">
        <ele>139.8</ele>
        <time>2025-06-15T06:47:48Z</time>
      </trkpt>
      <trkpt lat="45.17822" lon="0.67799">
        <ele>139.2</ele>
        <time>2025-06-15T06:47:49Z</time>
      </trkpt>
      <trkpt lat="45.17822" lon="0.67791">
        <ele>138.8</ele>
        <time>2025-06-15T06:47:50Z</time>
      </trkpt>
      <trkpt lat="45.17821" lon="0.67783">
        <ele>138.4</ele>
        <time>2025-06-15T06:47:51Z</time>
      </trkpt>
      <trkpt lat="45.1782" lon="0.67774">
        <ele>138</ele>
        <time>2025-06-15T06:47:52Z</time>
      </trkpt>
      <trkpt lat="45.17819" lon="0.67765">
        <ele>137.6</ele>
        <time>2025-06-15T06:47:53Z</time>
      </trkpt>
      <trkpt lat="45.17818" lon="0.67756">
        <ele>137.2</ele>
        <time>2025-06-15T06:47:54Z</time>
      </trkpt>
      <trkpt lat="45.17816" lon="0.67745">
        <ele>136.6</ele>
        <time>2025-06-15T06:47:55Z</time>
      </trkpt>
      <trkpt lat="45.17815" lon="0.67735">
        <ele>136.2</ele>
        <time>2025-06-15T06:47:56Z</time>
      </trkpt>
      <trkpt lat="45.17812" lon="0.67723">
        <ele>135.6</ele>
        <time>2025-06-15T06:47:57Z</time>
      </trkpt>
      <trkpt lat="45.1781" lon="0.67713">
        <ele>135</ele>
        <time>2025-06-15T06:47:58Z</time>
      </trkpt>
      <trkpt lat="45.17807" lon="0.67703">
        <ele>134.2</ele>
        <time>2025-06-15T06:47:59Z</time>
      </trkpt>
      <trkpt lat="45.17806" lon="0.67692">
        <ele>133.4</ele>
        <time>2025-06-15T06:48:00Z</time>
      </trkpt>
      <trkpt lat="45.17805" lon="0.67683">
        <ele>132.8</ele>
        <time>2025-06-15T06:48:01Z</time>
      </trkpt>
      <trkpt lat="45.17802" lon="0.67674">
        <ele>132.6</ele>
        <time>2025-06-15T06:48:02Z</time>
      </trkpt>
      <trkpt lat="45.17799" lon="0.67664">
        <ele>132.2</ele>
        <time>2025-06-15T06:48:03Z</time>
      </trkpt>
      <trkpt lat="45.17795" lon="0.67655">
        <ele>131.8</ele>
        <time>2025-06-15T06:48:04Z</time>
      </trkpt>
      <trkpt lat="45.17792" lon="0.67646">
        <ele>131.4</ele>
        <time>2025-06-15T06:48:05Z</time>
      </trkpt>
      <trkpt lat="45.17788" lon="0.67638">
        <ele>130.8</ele>
        <time>2025-06-15T06:48:06Z</time>
      </trkpt>
      <trkpt lat="45.17784" lon="0.67631">
        <ele>130</ele>
        <time>2025-06-15T06:48:07Z</time>
      </trkpt>
      <trkpt lat="45.17781" lon="0.67623">
        <ele>129.4</ele>
        <time>2025-06-15T06:48:08Z</time>
      </trkpt>
      <trkpt lat="45.17776" lon="0.67616">
        <ele>128.8</ele>
        <time>2025-06-15T06:48:09Z</time>
      </trkpt>
      <trkpt lat="45.17772" lon="0.67609">
        <ele>128.4</ele>
        <time>2025-06-15T06:48:10Z</time>
      </trkpt>
      <trkpt lat="45.17768" lon="0.67602">
        <ele>127.8</ele>
        <time>2025-06-15T06:48:11Z</time>
      </trkpt>
      <trkpt lat="45.17763" lon="0.67594">
        <ele>127.4</ele>
        <time>2025-06-15T06:48:12Z</time>
      </trkpt>
      <trkpt lat="45.17759" lon="0.67587">
        <ele>126.8</ele>
        <time>2025-06-15T06:48:13Z</time>
      </trkpt>
      <trkpt lat="45.17755" lon="0.6758">
        <ele>126.6</ele>
        <time>2025-06-15T06:48:14Z</time>
      </trkpt>
      <trkpt lat="45.17752" lon="0.67573">
        <ele>126.2</ele>
        <time>2025-06-15T06:48:15Z</time>
      </trkpt>
      <trkpt lat="45.17749" lon="0.67566">
        <ele>125.8</ele>
        <time>2025-06-15T06:48:16Z</time>
      </trkpt>
      <trkpt lat="45.17746" lon="0.67558">
        <ele>125.6</ele>
        <time>2025-06-15T06:48:17Z</time>
      </trkpt>
      <trkpt lat="45.17745" lon="0.67551">
        <ele>125.4</ele>
        <time>2025-06-15T06:48:18Z</time>
      </trkpt>
      <trkpt lat="45.17745" lon="0.67542">
        <ele>125.2</ele>
        <time>2025-06-15T06:48:19Z</time>
      </trkpt>
      <trkpt lat="45.17746" lon="0.67532">
        <ele>125</ele>
        <time>2025-06-15T06:48:20Z</time>
      </trkpt>
      <trkpt lat="45.17749" lon="0.67523">
        <ele>124.8</ele>
        <time>2025-06-15T06:48:21Z</time>
      </trkpt>
      <trkpt lat="45.17752" lon="0.67512">
        <ele>124</ele>
        <time>2025-06-15T06:48:22Z</time>
      </trkpt>
      <trkpt lat="45.17755" lon="0.675">
        <ele>123.2</ele>
        <time>2025-06-15T06:48:23Z</time>
      </trkpt>
      <trkpt lat="45.17757" lon="0.67487">
        <ele>122.4</ele>
        <time>2025-06-15T06:48:24Z</time>
      </trkpt>
      <trkpt lat="45.1776" lon="0.67475">
        <ele>121.2</ele>
        <time>2025-06-15T06:48:25Z</time>
      </trkpt>
      <trkpt lat="45.17763" lon="0.67462">
        <ele>120.6</ele>
        <time>2025-06-15T06:48:26Z</time>
      </trkpt>
      <trkpt lat="45.17766" lon="0.67449">
        <ele>119.2</ele>
        <time>2025-06-15T06:48:27Z</time>
      </trkpt>
      <trkpt lat="45.17769" lon="0.67436">
        <ele>117.8</ele>
        <time>2025-06-15T06:48:28Z</time>
      </trkpt>
      <trkpt lat="45.17772" lon="0.67422">
        <ele>116.6</ele>
        <time>2025-06-15T06:48:29Z</time>
      </trkpt>
      <trkpt lat="45.17776" lon="0.67409">
        <ele>115.6</ele>
        <time>2025-06-15T06:48:30Z</time>
      </trkpt>
      <trkpt lat="45.1778" lon="0.67396">
        <ele>115.2</ele>
        <time>2025-06-15T06:48:31Z</time>
      </trkpt>
      <trkpt lat="45.17783" lon="0.67382">
        <ele>114.4</ele>
        <time>2025-06-15T06:48:32Z</time>
      </trkpt>
      <trkpt lat="45.17787" lon="0.67368">
        <ele>113.4</ele>
        <time>2025-06-15T06:48:33Z</time>
      </trkpt>
      <trkpt lat="45.17792" lon="0.67356">
        <ele>112.4</ele>
        <time>2025-06-15T06:48:34Z</time>
      </trkpt>
      <trkpt lat="45.17797" lon="0.67341">
        <ele>111.6</ele>
        <time>2025-06-15T06:48:35Z</time>
      </trkpt>
      <trkpt lat="45.17803" lon="0.67329">
        <ele>110.6</ele>
        <time>2025-06-15T06:48:36Z</time>
      </trkpt>
      <trkpt lat="45.17809" lon="0.67318">
        <ele>109.8</ele>
        <time>2025-06-15T06:48:37Z</time>
      </trkpt>
      <trkpt lat="45.17813" lon="0.67309">
        <ele>109.2</ele>
        <time>2025-06-15T06:48:38Z</time>
      </trkpt>
      <trkpt lat="45.17815" lon="0.673">
        <ele>108.6</ele>
        <time>2025-06-15T06:48:39Z</time>
      </trkpt>
      <trkpt lat="45.17814" lon="0.67292">
        <ele>108.2</ele>
        <time>2025-06-15T06:48:40Z</time>
      </trkpt>
      <trkpt lat="45.17812" lon="0.67285">
        <ele>108</ele>
        <time>2025-06-15T06:48:41Z</time>
      </trkpt>
      <trkpt lat="45.17808" lon="0.67281">
        <ele>107.6</ele>
        <time>2025-06-15T06:48:42Z</time>
      </trkpt>
      <trkpt lat="45.17804" lon="0.67277">
        <ele>107</ele>
        <time>2025-06-15T06:48:43Z</time>
      </trkpt>
      <trkpt lat="45.17799" lon="0.67274">
        <ele>106.6</ele>
        <time>2025-06-15T06:48:44Z</time>
      </trkpt>
      <trkpt lat="45.17794" lon="0.67269">
        <ele>106.2</ele>
        <time>2025-06-15T06:48:45Z</time>
      </trkpt>
      <trkpt lat="45.1779" lon="0.67264">
        <ele>106</ele>
        <time>2025-06-15T06:48:46Z</time>
      </trkpt>
      <trkpt lat="45.17788" lon="0.67257">
        <ele>105.8</ele>
        <time>2025-06-15T06:48:47Z</time>
      </trkpt>
      <trkpt lat="45.17788" lon="0.67249">
        <ele>105.8</ele>
        <time>2025-06-15T06:48:48Z</time>
      </trkpt>
      <trkpt lat="45.1779" lon="0.67241">
        <ele>105.6</ele>
        <time>2025-06-15T06:48:49Z</time>
      </trkpt>
      <trkpt lat="45.17793" lon="0.67233">
        <ele>105.2</ele>
        <time>2025-06-15T06:48:50Z</time>
      </trkpt>
      <trkpt lat="45.17796" lon="0.67226">
        <ele>105</ele>
        <time>2025-06-15T06:48:51Z</time>
      </trkpt>
      <trkpt lat="45.17799" lon="0.67218">
        <ele>104.8</ele>
        <time>2025-06-15T06:48:52Z</time>
      </trkpt>
      <trkpt lat="45.17804" lon="0.67211">
        <ele>104.6</ele>
        <time>2025-06-15T06:48:53Z</time>
      </trkpt>
      <trkpt lat="45.17808" lon="0.67203">
        <ele>104.4</ele>
        <time>2025-06-15T06:48:54Z</time>
      </trkpt>
      <trkpt lat="45.17813" lon="0.67196">
        <ele>104.4</ele>
        <time>2025-06-15T06:48:55Z</time>
      </trkpt>
      <trkpt lat="45.17818" lon="0.67189">
        <ele>104</ele>
        <time>2025-06-15T06:48:56Z</time>
      </trkpt>
      <trkpt lat="45.17823" lon="0.67182">
        <ele>103.8</ele>
        <time>2025-06-15T06:48:57Z</time>
      </trkpt>
      <trkpt lat="45.17828" lon="0.67176">
        <ele>103.6</ele>
        <time>2025-06-15T06:48:58Z</time>
      </trkpt>
      <trkpt lat="45.17834" lon="0.67171">
        <ele>103.4</ele>
        <time>2025-06-15T06:48:59Z</time>
      </trkpt>
      <trkpt lat="45.1784" lon="0.67165">
        <ele>103.4</ele>
        <time>2025-06-15T06:49:00Z</time>
      </trkpt>
      <trkpt lat="45.17846" lon="0.6716">
        <ele>103.2</ele>
        <time>2025-06-15T06:49:01Z</time>
      </trkpt>
      <trkpt lat="45.17852" lon="0.67155">
        <ele>103</ele>
        <time>2025-06-15T06:49:02Z</time>
      </trkpt>
      <trkpt lat="45.17858" lon="0.67149">
        <ele>102.8</ele>
        <time>2025-06-15T06:49:03Z</time>
      </trkpt>
      <trkpt lat="45.17863" lon="0.67143">
        <ele>102.8</ele>
        <time>2025-06-15T06:49:04Z</time>
      </trkpt>
      <trkpt lat="45.17868" lon="0.67137">
        <ele>102.6</ele>
        <time>2025-06-15T06:49:05Z</time>
      </trkpt>
      <trkpt lat="45.17872" lon="0.6713">
        <ele>102.6</ele>
        <time>2025-06-15T06:49:06Z</time>
      </trkpt>
      <trkpt lat="45.17876" lon="0.67123">
        <ele>102.6</ele>
        <time>2025-06-15T06:49:07Z</time>
      </trkpt>
      <trkpt lat="45.1788" lon="0.67117">
        <ele>102.4</ele>
        <time>2025-06-15T06:49:08Z</time>
      </trkpt>
      <trkpt lat="45.17884" lon="0.6711">
        <ele>102.4</ele>
        <time>2025-06-15T06:49:09Z</time>
      </trkpt>
      <trkpt lat="45.17888" lon="0.67103">
        <ele>102.4</ele>
        <time>2025-06-15T06:49:10Z</time>
      </trkpt>
      <trkpt lat="45.17892" lon="0.67097">
        <ele>102.4</ele>
        <time>2025-06-15T06:49:11Z</time>
      </trkpt>
      <trkpt lat="45.17896" lon="0.6709">
        <ele>102.6</ele>
        <time>2025-06-15T06:49:12Z</time>
      </trkpt>
      <trkpt lat="45.17899" lon="0.67083">
        <ele>102.6</ele>
        <time>2025-06-15T06:49:13Z</time>
      </trkpt>
      <trkpt lat="45.17904" lon="0.67076">
        <ele>102.8</ele>
        <time>2025-06-15T06:49:14Z</time>
      </trkpt>
      <trkpt lat="45.17908" lon="0.67068">
        <ele>102.8</ele>
        <time>2025-06-15T06:49:15Z</time>
      </trkpt>
      <trkpt lat="45.17913" lon="0.6706">
        <ele>102.8</ele>
        <time>2025-06-15T06:49:16Z</time>
      </trkpt>
      <trkpt lat="45.17918" lon="0.67052">
        <ele>102.6</ele>
        <time>2025-06-15T06:49:17Z</time>
      </trkpt>
      <trkpt lat="45.17923" lon="0.67044">
        <ele>102.2</ele>
        <time>2025-06-15T06:49:18Z</time>
      </trkpt>
      <trkpt lat="45.17929" lon="0.67038">
        <ele>102</ele>
        <time>2025-06-15T06:49:19Z</time>
      </trkpt>
      <trkpt lat="45.17934" lon="0.67033">
        <ele>101.6</ele>
        <time>2025-06-15T06:49:20Z</time>
      </trkpt>
      <trkpt lat="45.17938" lon="0.67027">
        <ele>101.2</ele>
        <time>2025-06-15T06:49:21Z</time>
      </trkpt>
      <trkpt lat="45.1794" lon="0.67021">
        <ele>100.8</ele>
        <time>2025-06-15T06:49:22Z</time>
      </trkpt>
      <trkpt lat="45.1794" lon="0.67014">
        <ele>100.4</ele>
        <time>2025-06-15T06:49:23Z</time>
      </trkpt>
      <trkpt lat="45.17938" lon="0.67009">
        <ele>100.2</ele>
        <time>2025-06-15T06:49:24Z</time>
      </trkpt>
      <trkpt lat="45.17935" lon="0.67005">
        <ele>100.2</ele>
        <time>2025-06-15T06:49:25Z</time>
      </trkpt>
      <trkpt lat="45.17931" lon="0.67001">
        <ele>100.2</ele>
        <time>2025-06-15T06:49:26Z</time>
      </trkpt>
      <trkpt lat="45.17928" lon="0.66997">
        <ele>100</ele>
        <time>2025-06-15T06:49:27Z</time>
      </trkpt>
      <trkpt lat="45.17924" lon="0.66993">
        <ele>100</ele>
        <time>2025-06-15T06:49:28Z</time>
      </trkpt>
      <trkpt lat="45.17921" lon="0.66988">
        <ele>100</ele>
        <time>2025-06-15T06:49:29Z</time>
      </trkpt>
      <trkpt lat="45.17918" lon="0.66984">
        <ele>100</ele>
        <time>2025-06-15T06:49:30Z</time>
      </trkpt>
      <trkpt lat="45.17914" lon="0.66981">
        <ele>100</ele>
        <time>2025-06-15T06:49:31Z</time>
      </trkpt>
      <trkpt lat="45.17912" lon="0.66977">
        <ele>100</ele>
        <time>2025-06-15T06:49:32Z</time>
      </trkpt>
      <trkpt lat="45.17909" lon="0.66973">
        <ele>100.2</ele>
        <time>2025-06-15T06:49:33Z</time>
      </trkpt>
      <trkpt lat="45.17906" lon="0.66968">
        <ele>100.2</ele>
        <time>2025-06-15T06:49:34Z</time>
      </trkpt>
      <trkpt lat="45.17903" lon="0.66965">
        <ele>100.2</ele>
        <time>2025-06-15T06:49:35Z</time>
      </trkpt>
      <trkpt lat="45.179" lon="0.66962">
        <ele>100.4</ele>
        <time>2025-06-15T06:49:36Z</time>
      </trkpt>
      <trkpt lat="45.17898" lon="0.66958">
        <ele>100.6</ele>
        <time>2025-06-15T06:49:37Z</time>
      </trkpt>
      <trkpt lat="45.17895" lon="0.66954">
        <ele>100.6</ele>
        <time>2025-06-15T06:49:38Z</time>
      </trkpt>
      <trkpt lat="45.17891" lon="0.66951">
        <ele>100.8</ele>
        <time>2025-06-15T06:49:39Z</time>
      </trkpt>
      <trkpt lat="45.17888" lon="0.66949">
        <ele>100.8</ele>
        <time>2025-06-15T06:49:40Z</time>
      </trkpt>
      <trkpt lat="45.17885" lon="0.66945">
        <ele>101</ele>
        <time>2025-06-15T06:49:41Z</time>
      </trkpt>
      <trkpt lat="45.17882" lon="0.66942">
        <ele>101</ele>
        <time>2025-06-15T06:49:42Z</time>
      </trkpt>
      <trkpt lat="45.1788" lon="0.66938">
        <ele>101.2</ele>
        <time>2025-06-15T06:49:43Z</time>
      </trkpt>
      <trkpt lat="45.17877" lon="0.66934">
        <ele>101.4</ele>
        <time>2025-06-15T06:49:44Z</time>
      </trkpt>
      <trkpt lat="45.17873" lon="0.66931">
        <ele>101.4</ele>
        <time>2025-06-15T06:49:45Z</time>
      </trkpt>
      <trkpt lat="45.1787" lon="0.66927">
        <ele>101.6</ele>
        <time>2025-06-15T06:49:46Z</time>
      </trkpt>
      <trkpt lat="45.17867" lon="0.66924">
        <ele>101.8</ele>
        <time>2025-06-15T06:49:47Z</time>
      </trkpt>
      <trkpt lat="45.17864" lon="0.66921">
        <ele>101.8</ele>
        <time>2025-06-15T06:49:48Z</time>
      </trkpt>
      <trkpt lat="45.17861" lon="0.66918">
        <ele>102</ele>
        <time>2025-06-15T06:49:49Z</time>
      </trkpt>
      <trkpt lat="45.17859" lon="0.66916">
        <ele>102</ele>
        <time>2025-06-15T06:49:50Z</time>
      </trkpt>
      <trkpt lat="45.17855" lon="0.66914">
        <ele>102.2</ele>
        <time>2025-06-15T06:49:51Z</time>
      </trkpt>
      <trkpt lat="45.17852" lon="0.66911">
        <ele>102.4</ele>
        <time>2025-06-15T06:49:52Z</time>
      </trkpt>
      <trkpt lat="45.17849" lon="0.66909">
        <ele>102.6</ele>
        <time>2025-06-15T06:49:53Z</time>
      </trkpt>
      <trkpt lat="45.17845" lon="0.66906">
        <ele>102.8</ele>
        <time>2025-06-15T06:49:54Z</time>
      </trkpt>
      <trkpt lat="45.17842" lon="0.66904">
        <ele>103</ele>
        <time>2025-06-15T06:49:55Z</time>
      </trkpt>
      <trkpt lat="45.17838" lon="0.66902">
        <ele>103.2</ele>
        <time>2025-06-15T06:49:56Z</time>
      </trkpt>
      <trkpt lat="45.17834" lon="0.66901">
        <ele>103.4</ele>
        <time>2025-06-15T06:49:57Z</time>
      </trkpt>
      <trkpt lat="45.17829" lon="0.66898">
        <ele>103.4</ele>
        <time>2025-06-15T06:49:58Z</time>
      </trkpt>
      <trkpt lat="45.17826" lon="0.66897">
        <ele>103.6</ele>
        <time>2025-06-15T06:49:59Z</time>
      </trkpt>
      <trkpt lat="45.17821" lon="0.66896">
        <ele>103.6</ele>
        <time>2025-06-15T06:50:00Z</time>
      </trkpt>
      <trkpt lat="45.17817" lon="0.66896">
        <ele>103.8</ele>
        <time>2025-06-15T06:50:01Z</time>
      </trkpt>
      <trkpt lat="45.17812" lon="0.66895">
        <ele>103.8</ele>
        <time>2025-06-15T06:50:02Z</time>
      </trkpt>
      <trkpt lat="45.17808" lon="0.66895">
        <ele>104</ele>
        <time>2025-06-15T06:50:03Z</time>
      </trkpt>
      <trkpt lat="45.17804" lon="0.66895">
        <ele>104</ele>
        <time>2025-06-15T06:50:04Z</time>
      </trkpt>
      <trkpt lat="45.178" lon="0.66896">
        <ele>104</ele>
        <time>2025-06-15T06:50:05Z</time>
      </trkpt>
      <trkpt lat="45.17797" lon="0.66897">
        <ele>104.2</ele>
        <time>2025-06-15T06:50:06Z</time>
      </trkpt>
      <trkpt lat="45.17793" lon="0.66899">
        <ele>104.2</ele>
        <time>2025-06-15T06:50:07Z</time>
      </trkpt>
      <trkpt lat="45.17789" lon="0.669">
        <ele>104.2</ele>
        <time>2025-06-15T06:50:08Z</time>
      </trkpt>
      <trkpt lat="45.17785" lon="0.66901">
        <ele>104.2</ele>
        <time>2025-06-15T06:50:09Z</time>
      </trkpt>
      <trkpt lat="45.17781" lon="0.66902">
        <ele>104.2</ele>
        <time>2025-06-15T06:50:10Z</time>
      </trkpt>
      <trkpt lat="45.17778" lon="0.66903">
        <ele>104.4</ele>
        <time>2025-06-15T06:50:11Z</time>
      </trkpt>
      <trkpt lat="45.17774" lon="0.66904">
        <ele>104.4</ele>
        <time>2025-06-15T06:50:12Z</time>
      </trkpt>
      <trkpt lat="45.1777" lon="0.66905">
        <ele>104.4</ele>
        <time>2025-06-15T06:50:13Z</time>
      </trkpt>
      <trkpt lat="45.17767" lon="0.66906">
        <ele>104.6</ele>
        <time>2025-06-15T06:50:14Z</time>
      </trkpt>
      <trkpt lat="45.17763" lon="0.66906">
        <ele>104.6</ele>
        <time>2025-06-15T06:50:15Z</time>
      </trkpt>
      <trkpt lat="45.17759" lon="0.66906">
        <ele>104.8</ele>
        <time>2025-06-15T06:50:16Z</time>
      </trkpt>
      <trkpt lat="45.17755" lon="0.66906">
        <ele>105</ele>
        <time>2025-06-15T06:50:17Z</time>
      </trkpt>
      <trkpt lat="45.17751" lon="0.66906">
        <ele>105</ele>
        <time>2025-06-15T06:50:18Z</time>
      </trkpt>
      <trkpt lat="45.17747" lon="0.66906">
        <ele>105.2</ele>
        <time>2025-06-15T06:50:19Z</time>
      </trkpt>
      <trkpt lat="45.17743" lon="0.66906">
        <ele>105.2</ele>
        <time>2025-06-15T06:50:20Z</time>
      </trkpt>
      <trkpt lat="45.17739" lon="0.66905">
        <ele>105.2</ele>
        <time>2025-06-15T06:50:21Z</time>
      </trkpt>
      <trkpt lat="45.17735" lon="0.66906">
        <ele>105.4</ele>
        <time>2025-06-15T06:50:22Z</time>
      </trkpt>
      <trkpt lat="45.17731" lon="0.66905">
        <ele>105.4</ele>
        <time>2025-06-15T06:50:23Z</time>
      </trkpt>
      <trkpt lat="45.17728" lon="0.66904">
        <ele>105.6</ele>
        <time>2025-06-15T06:50:24Z</time>
      </trkpt>
      <trkpt lat="45.17724" lon="0.66903">
        <ele>105.6</ele>
        <time>2025-06-15T06:50:25Z</time>
      </trkpt>
      <trkpt lat="45.1772" lon="0.66903">
        <ele>105.8</ele>
        <time>2025-06-15T06:50:26Z</time>
      </trkpt>
      <trkpt lat="45.17716" lon="0.66901">
        <ele>106</ele>
        <time>2025-06-15T06:50:27Z</time>
      </trkpt>
      <trkpt lat="45.17713" lon="0.66902">
        <ele>106.2</ele>
        <time>2025-06-15T06:50:28Z</time>
      </trkpt>
      <trkpt lat="45.17709" lon="0.66901">
        <ele>106.4</ele>
        <time>2025-06-15T06:50:29Z</time>
      </trkpt>
      <trkpt lat="45.17704" lon="0.66901">
        <ele>106.6</ele>
        <time>2025-06-15T06:50:30Z</time>
      </trkpt>
      <trkpt lat="45.17701" lon="0.66901">
        <ele>106.8</ele>
        <time>2025-06-15T06:50:31Z</time>
      </trkpt>
      <trkpt lat="45.17697" lon="0.66901">
        <ele>106.8</ele>
        <time>2025-06-15T06:50:32Z</time>
      </trkpt>
      <trkpt lat="45.17693" lon="0.66902">
        <ele>107</ele>
        <time>2025-06-15T06:50:33Z</time>
      </trkpt>
      <trkpt lat="45.1769" lon="0.66902">
        <ele>107</ele>
        <time>2025-06-15T06:50:34Z</time>
      </trkpt>
      <trkpt lat="45.17687" lon="0.66902">
        <ele>107.2</ele>
        <time>2025-06-15T06:50:35Z</time>
      </trkpt>
      <trkpt lat="45.17683" lon="0.66902">
        <ele>107.2</ele>
        <time>2025-06-15T06:50:36Z</time>
      </trkpt>
      <trkpt lat="45.1768" lon="0.66902">
        <ele>107.4</ele>
        <time>2025-06-15T06:50:37Z</time>
      </trkpt>
      <trkpt lat="45.17676" lon="0.66901">
        <ele>107.6</ele>
        <time>2025-06-15T06:50:38Z</time>
      </trkpt>
      <trkpt lat="45.17672" lon="0.669">
        <ele>107.6</ele>
        <time>2025-06-15T06:50:39Z</time>
      </trkpt>
      <trkpt lat="45.17668" lon="0.66899">
        <ele>107.8</ele>
        <time>2025-06-15T06:50:40Z</time>
      </trkpt>
      <trkpt lat="45.17665" lon="0.66897">
        <ele>108</ele>
        <time>2025-06-15T06:50:41Z</time>
      </trkpt>
      <trkpt lat="45.17662" lon="0.66894">
        <ele>108</ele>
        <time>2025-06-15T06:50:42Z</time>
      </trkpt>
      <trkpt lat="45.1766" lon="0.6689">
        <ele>108.2</ele>
        <time>2025-06-15T06:50:43Z</time>
      </trkpt>
      <trkpt lat="45.17658" lon="0.66886">
        <ele>108.6</ele>
        <time>2025-06-15T06:50:44Z</time>
      </trkpt>
      <trkpt lat="45.17656" lon="0.66883">
        <ele>108.8</ele>
        <time>2025-06-15T06:50:45Z</time>
      </trkpt>
      <trkpt lat="45.17654" lon="0.6688">
        <ele>109</ele>
        <time>2025-06-15T06:50:46Z</time>
      </trkpt>
      <trkpt lat="45.17652" lon="0.66876">
        <ele>109.4</ele>
        <time>2025-06-15T06:50:47Z</time>
      </trkpt>
      <trkpt lat="45.1765" lon="0.66874">
        <ele>109.8</ele>
        <time>2025-06-15T06:50:48Z</time>
      </trkpt>
      <trkpt lat="45.17647" lon="0.66871">
        <ele>110</ele>
        <time>2025-06-15T06:50:49Z</time>
      </trkpt>
      <trkpt lat="45.17645" lon="0.66869">
        <ele>110.4</ele>
        <time>2025-06-15T06:50:50Z</time>
      </trkpt>
      <trkpt lat="45.17642" lon="0.66866">
        <ele>110.8</ele>
        <time>2025-06-15T06:50:51Z</time>
      </trkpt>
      <trkpt lat="45.1764" lon="0.66864">
        <ele>111</ele>
        <time>2025-06-15T06:50:52Z</time>
      </trkpt>
      <trkpt lat="45.17638" lon="0.66862">
        <ele>111.4</ele>
        <time>2025-06-15T06:50:53Z</time>
      </trkpt>
      <trkpt lat="45.17636" lon="0.66859">
        <ele>111.6</ele>
        <time>2025-06-15T06:50:54Z</time>
      </trkpt>
      <trkpt lat="45.17635" lon="0.66856">
        <ele>111.8</ele>
        <time>2025-06-15T06:50:55Z</time>
      </trkpt>
      <trkpt lat="45.17633" lon="0.66853">
        <ele>111.8</ele>
        <time>2025-06-15T06:50:56Z</time>
      </trkpt>
      <trkpt lat="45.17632" lon="0.6685">
        <ele>112</ele>
        <time>2025-06-15T06:50:57Z</time>
      </trkpt>
      <trkpt lat="45.17632" lon="0.66845">
        <ele>112</ele>
        <time>2025-06-15T06:50:58Z</time>
      </trkpt>
      <trkpt lat="45.17631" lon="0.66842">
        <ele>112</ele>
        <time>2025-06-15T06:50:59Z</time>
      </trkpt>
      <trkpt lat="45.1763" lon="0.66837">
        <ele>112.2</ele>
        <time>2025-06-15T06:51:00Z</time>
      </trkpt>
      <trkpt lat="45.17629" lon="0.66832">
        <ele>112.2</ele>
        <time>2025-06-15T06:51:01Z</time>
      </trkpt>
      <trkpt lat="45.17629" lon="0.66828">
        <ele>112</ele>
        <time>2025-06-15T06:51:02Z</time>
      </trkpt>
      <trkpt lat="45.17628" lon="0.66824">
        <ele>112.2</ele>
        <time>2025-06-15T06:51:03Z</time>
      </trkpt>
      <trkpt lat="45.17627" lon="0.66821">
        <ele>112.2</ele>
        <time>2025-06-15T06:51:04Z</time>
      </trkpt>
      <trkpt lat="45.17626" lon="0.66818">
        <ele>112.4</ele>
        <time>2025-06-15T06:51:05Z</time>
      </trkpt>
      <trkpt lat="45.17625" lon="0.66815">
        <ele>112.4</ele>
        <time>2025-06-15T06:51:06Z</time>
      </trkpt>
      <trkpt lat="45.17624" lon="0.66812">
        <ele>112.6</ele>
        <time>2025-06-15T06:51:07Z</time>
      </trkpt>
      <trkpt lat="45.17623" lon="0.66809">
        <ele>112.8</ele>
        <time>2025-06-15T06:51:08Z</time>
      </trkpt>
      <trkpt lat="45.17621" lon="0.66806">
        <ele>112.8</ele>
        <time>2025-06-15T06:51:09Z</time>
      </trkpt>
      <trkpt lat="45.17619" lon="0.66803">
        <ele>113</ele>
        <time>2025-06-15T06:51:10Z</time>
      </trkpt>
      <trkpt lat="45.17617" lon="0.66799">
        <ele>113.2</ele>
        <time>2025-06-15T06:51:11Z</time>
      </trkpt>
      <trkpt lat="45.17616" lon="0.66796">
        <ele>113.4</ele>
        <time>2025-06-15T06:51:12Z</time>
      </trkpt>
      <trkpt lat="45.17614" lon="0.66794">
        <ele>113.6</ele>
        <time>2025-06-15T06:51:13Z</time>
      </trkpt>
      <trkpt lat="45.17612" lon="0.66791">
        <ele>113.6</ele>
        <time>2025-06-15T06:51:14Z</time>
      </trkpt>
      <trkpt lat="45.17609" lon="0.66789">
        <ele>113.8</ele>
        <time>2025-06-15T06:51:15Z</time>
      </trkpt>
      <trkpt lat="45.17608" lon="0.66786">
        <ele>114</ele>
        <time>2025-06-15T06:51:16Z</time>
      </trkpt>
      <trkpt lat="45.17606" lon="0.66783">
        <ele>114.2</ele>
        <time>2025-06-15T06:51:17Z</time>
      </trkpt>
      <trkpt lat="45.17603" lon="0.66781">
        <ele>114.2</ele>
        <time>2025-06-15T06:51:18Z</time>
      </trkpt>
      <trkpt lat="45.17602" lon="0.66778">
        <ele>114.4</ele>
        <time>2025-06-15T06:51:19Z</time>
      </trkpt>
      <trkpt lat="45.17599" lon="0.66776">
        <ele>114.4</ele>
        <time>2025-06-15T06:51:20Z</time>
      </trkpt>
      <trkpt lat="45.17597" lon="0.66774">
        <ele>114.4</ele>
        <time>2025-06-15T06:51:21Z</time>
      </trkpt>
      <trkpt lat="45.17595" lon="0.66771">
        <ele>114.6</ele>
        <time>2025-06-15T06:51:22Z</time>
      </trkpt>
      <trkpt lat="45.17592" lon="0.66769">
        <ele>114.6</ele>
        <time>2025-06-15T06:51:23Z</time>
      </trkpt>
      <trkpt lat="45.1759" lon="0.66766">
        <ele>114.6</ele>
        <time>2025-06-15T06:51:24Z</time>
      </trkpt>
      <trkpt lat="45.17588" lon="0.66763">
        <ele>114.6</ele>
        <time>2025-06-15T06:51:25Z</time>
      </trkpt>
      <trkpt lat="45.17587" lon="0.66761">
        <ele>114.8</ele>
        <time>2025-06-15T06:51:26Z</time>
      </trkpt>
      <trkpt lat="45.17585" lon="0.6676">
        <ele>114.8</ele>
        <time>2025-06-15T06:51:27Z</time>
      </trkpt>
      <trkpt lat="45.17583" lon="0.66757">
        <ele>114.8</ele>
        <time>2025-06-15T06:51:28Z</time>
      </trkpt>
      <trkpt lat="45.17581" lon="0.66755">
        <ele>115</ele>
        <time>2025-06-15T06:51:29Z</time>
      </trkpt>
      <trkpt lat="45.17578" lon="0.66752">
        <ele>115</ele>
        <time>2025-06-15T06:51:30Z</time>
      </trkpt>
      <trkpt lat="45.17575" lon="0.6675">
        <ele>115</ele>
        <time>2025-06-15T06:51:31Z</time>
      </trkpt>
      <trkpt lat="45.17573" lon="0.66747">
        <ele>115</ele>
        <time>2025-06-15T06:51:32Z</time>
      </trkpt>
      <trkpt lat="45.1757" lon="0.66744">
        <ele>115</ele>
        <time>2025-06-15T06:51:33Z</time>
      </trkpt>
      <trkpt lat="45.17568" lon="0.66743">
        <ele>115</ele>
        <time>2025-06-15T06:51:34Z</time>
      </trkpt>
      <trkpt lat="45.17565" lon="0.6674">
        <ele>115</ele>
        <time>2025-06-15T06:51:35Z</time>
      </trkpt>
      <trkpt lat="45.17563" lon="0.66738">
        <ele>115</ele>
        <time>2025-06-15T06:51:36Z</time>
      </trkpt>
      <trkpt lat="45.1756" lon="0.66735">
        <ele>115</ele>
        <time>2025-06-15T06:51:37Z</time>
      </trkpt>
      <trkpt lat="45.17557" lon="0.66733">
        <ele>115.2</ele>
        <time>2025-06-15T06:51:38Z</time>
      </trkpt>
      <trkpt lat="45.17554" lon="0.66731">
        <ele>115.4</ele>
        <time>2025-06-15T06:51:39Z</time>
      </trkpt>
      <trkpt lat="45.17552" lon="0.66728">
        <ele>115.4</ele>
        <time>2025-06-15T06:51:40Z</time>
      </trkpt>
      <trkpt lat="45.17549" lon="0.66726">
        <ele>115.6</ele>
        <time>2025-06-15T06:51:41Z</time>
      </trkpt>
      <trkpt lat="45.17546" lon="0.66725">
        <ele>115.6</ele>
        <time>2025-06-15T06:51:42Z</time>
      </trkpt>
      <trkpt lat="45.17544" lon="0.66723">
        <ele>115.8</ele>
        <time>2025-06-15T06:51:43Z</time>
      </trkpt>
      <trkpt lat="45.17541" lon="0.66722">
        <ele>115.8</ele>
        <time>2025-06-15T06:51:44Z</time>
      </trkpt>
      <trkpt lat="45.17539" lon="0.66721">
        <ele>115.8</ele>
        <time>2025-06-15T06:51:45Z</time>
      </trkpt>
      <trkpt lat="45.17536" lon="0.66719">
        <ele>115.8</ele>
        <time>2025-06-15T06:51:46Z</time>
      </trkpt>
      <trkpt lat="45.17533" lon="0.66717">
        <ele>115.8</ele>
        <time>2025-06-15T06:51:47Z</time>
      </trkpt>
      <trkpt lat="45.1753" lon="0.66715">
        <ele>115.8</ele>
        <time>2025-06-15T06:51:48Z</time>
      </trkpt>
      <trkpt lat="45.17527" lon="0.66713">
        <ele>116</ele>
        <time>2025-06-15T06:51:49Z</time>
      </trkpt>
      <trkpt lat="45.17525" lon="0.66711">
        <ele>116</ele>
        <time>2025-06-15T06:51:50Z</time>
      </trkpt>
      <trkpt lat="45.17522" lon="0.6671">
        <ele>116</ele>
        <time>2025-06-15T06:51:51Z</time>
      </trkpt>
      <trkpt lat="45.17519" lon="0.66708">
        <ele>116.2</ele>
        <time>2025-06-15T06:51:52Z</time>
      </trkpt>
      <trkpt lat="45.17517" lon="0.66707">
        <ele>116.2</ele>
        <time>2025-06-15T06:51:53Z</time>
      </trkpt>
      <trkpt lat="45.17514" lon="0.66705">
        <ele>116.4</ele>
        <time>2025-06-15T06:51:54Z</time>
      </trkpt>
      <trkpt lat="45.17511" lon="0.66703">
        <ele>116.4</ele>
        <time>2025-06-15T06:51:55Z</time>
      </trkpt>
      <trkpt lat="45.17508" lon="0.66702">
        <ele>116.4</ele>
        <time>2025-06-15T06:51:56Z</time>
      </trkpt>
      <trkpt lat="45.17505" lon="0.66701">
        <ele>116.6</ele>
        <time>2025-06-15T06:51:57Z</time>
      </trkpt>
      <trkpt lat="45.17502" lon="0.667">
        <ele>116.6</ele>
        <time>2025-06-15T06:51:58Z</time>
      </trkpt>
      <trkpt lat="45.17499" lon="0.66699">
        <ele>116.8</ele>
        <time>2025-06-15T06:51:59Z</time>
      </trkpt>
      <trkpt lat="45.17496" lon="0.66699">
        <ele>116.8</ele>
        <time>2025-06-15T06:52:00Z</time>
      </trkpt>
      <trkpt lat="45.17493" lon="0.66698">
        <ele>117</ele>
        <time>2025-06-15T06:52:01Z</time>
      </trkpt>
      <trkpt lat="45.1749" lon="0.66698">
        <ele>117</ele>
        <time>2025-06-15T06:52:02Z</time>
      </trkpt>
      <trkpt lat="45.17487" lon="0.66697">
        <ele>117</ele>
        <time>2025-06-15T06:52:03Z</time>
      </trkpt>
      <trkpt lat="45.17484" lon="0.66697">
        <ele>117.2</ele>
        <time>2025-06-15T06:52:04Z</time>
      </trkpt>
      <trkpt lat="45.17481" lon="0.66696">
        <ele>117.2</ele>
        <time>2025-06-15T06:52:05Z</time>
      </trkpt>
      <trkpt lat="45.17478" lon="0.66695">
        <ele>117.2</ele>
        <time>2025-06-15T06:52:06Z</time>
      </trkpt>
      <trkpt lat="45.17475" lon="0.66695">
        <ele>117.4</ele>
        <time>2025-06-15T06:52:07Z</time>
      </trkpt>
      <trkpt lat="45.17471" lon="0.66694">
        <ele>117.4</ele>
        <time>2025-06-15T06:52:08Z</time>
      </trkpt>
      <trkpt lat="45.17468" lon="0.66693">
        <ele>117.6</ele>
        <time>2025-06-15T06:52:09Z</time>
      </trkpt>
      <trkpt lat="45.17465" lon="0.66692">
        <ele>117.8</ele>
        <time>2025-06-15T06:52:10Z</time>
      </trkpt>
      <trkpt lat="45.17462" lon="0.66691">
        <ele>117.8</ele>
        <time>2025-06-15T06:52:11Z</time>
      </trkpt>
      <trkpt lat="45.17459" lon="0.66691">
        <ele>118</ele>
        <time>2025-06-15T06:52:12Z</time>
      </trkpt>
      <trkpt lat="45.17456" lon="0.66691">
        <ele>118.2</ele>
        <time>2025-06-15T06:52:13Z</time>
      </trkpt>
      <trkpt lat="45.17453" lon="0.66691">
        <ele>118.2</ele>
        <time>2025-06-15T06:52:14Z</time>
      </trkpt>
      <trkpt lat="45.1745" lon="0.66692">
        <ele>118.4</ele>
        <time>2025-06-15T06:52:15Z</time>
      </trkpt>
      <trkpt lat="45.17448" lon="0.66693">
        <ele>118.6</ele>
        <time>2025-06-15T06:52:16Z</time>
      </trkpt>
      <trkpt lat="45.17445" lon="0.66694">
        <ele>118.6</ele>
        <time>2025-06-15T06:52:17Z</time>
      </trkpt>
      <trkpt lat="45.17442" lon="0.66695">
        <ele>118.8</ele>
        <time>2025-06-15T06:52:18Z</time>
      </trkpt>
      <trkpt lat="45.17438" lon="0.66695">
        <ele>118.8</ele>
        <time>2025-06-15T06:52:19Z</time>
      </trkpt>
      <trkpt lat="45.17435" lon="0.66696">
        <ele>118.8</ele>
        <time>2025-06-15T06:52:20Z</time>
      </trkpt>
      <trkpt lat="45.17432" lon="0.66697">
        <ele>118.8</ele>
        <time>2025-06-15T06:52:21Z</time>
      </trkpt>
      <trkpt lat="45.1743" lon="0.66698">
        <ele>119</ele>
        <time>2025-06-15T06:52:22Z</time>
      </trkpt>
      <trkpt lat="45.17426" lon="0.66698">
        <ele>119</ele>
        <time>2025-06-15T06:52:23Z</time>
      </trkpt>
      <trkpt lat="45.17422" lon="0.66698">
        <ele>119</ele>
        <time>2025-06-15T06:52:24Z</time>
      </trkpt>
      <trkpt lat="45.17419" lon="0.66698">
        <ele>119.2</ele>
        <time>2025-06-15T06:52:25Z</time>
      </trkpt>
      <trkpt lat="45.17416" lon="0.66698">
        <ele>119.2</ele>
        <time>2025-06-15T06:52:26Z</time>
      </trkpt>
      <trkpt lat="45.17413" lon="0.66697">
        <ele>119.4</ele>
        <time>2025-06-15T06:52:27Z</time>
      </trkpt>
      <trkpt lat="45.1741" lon="0.66697">
        <ele>119.4</ele>
        <time>2025-06-15T06:52:28Z</time>
      </trkpt>
      <trkpt lat="45.17407" lon="0.66696">
        <ele>119.6</ele>
        <time>2025-06-15T06:52:29Z</time>
      </trkpt>
      <trkpt lat="45.17404" lon="0.66695">
        <ele>119.8</ele>
        <time>2025-06-15T06:52:30Z</time>
      </trkpt>
      <trkpt lat="45.17401" lon="0.66694">
        <ele>120</ele>
        <time>2025-06-15T06:52:31Z</time>
      </trkpt>
      <trkpt lat="45.17399" lon="0.66693">
        <ele>120.2</ele>
        <time>2025-06-15T06:52:32Z</time>
      </trkpt>
      <trkpt lat="45.17396" lon="0.66692">
        <ele>120.2</ele>
        <time>2025-06-15T06:52:33Z</time>
      </trkpt>
      <trkpt lat="45.17393" lon="0.66691">
        <ele>120.4</ele>
        <time>2025-06-15T06:52:34Z</time>
      </trkpt>
      <trkpt lat="45.17391" lon="0.66688">
        <ele>120.4</ele>
        <time>2025-06-15T06:52:35Z</time>
      </trkpt>
      <trkpt lat="45.17389" lon="0.66686">
        <ele>120.4</ele>
        <time>2025-06-15T06:52:36Z</time>
      </trkpt>
      <trkpt lat="45.17386" lon="0.66684">
        <ele>120.6</ele>
        <time>2025-06-15T06:52:37Z</time>
      </trkpt>
      <trkpt lat="45.17384" lon="0.66682">
        <ele>120.6</ele>
        <time>2025-06-15T06:52:38Z</time>
      </trkpt>
      <trkpt lat="45.17381" lon="0.6668">
        <ele>120.8</ele>
        <time>2025-06-15T06:52:39Z</time>
      </trkpt>
      <trkpt lat="45.17379" lon="0.66678">
        <ele>121</ele>
        <time>2025-06-15T06:52:40Z</time>
      </trkpt>
      <trkpt lat="45.17377" lon="0.66676">
        <ele>121.2</ele>
        <time>2025-06-15T06:52:41Z</time>
      </trkpt>
      <trkpt lat="45.17374" lon="0.66673">
        <ele>121.4</ele>
        <time>2025-06-15T06:52:42Z</time>
      </trkpt>
      <trkpt lat="45.17372" lon="0.66671">
        <ele>121.4</ele>
        <time>2025-06-15T06:52:43Z</time>
      </trkpt>
      <trkpt lat="45.1737" lon="0.66668">
        <ele>121.6</ele>
        <time>2025-06-15T06:52:44Z</time>
      </trkpt>
      <trkpt lat="45.17367" lon="0.66665">
        <ele>121.8</ele>
        <time>2025-06-15T06:52:45Z</time>
      </trkpt>
      <trkpt lat="45.17365" lon="0.66663">
        <ele>121.8</ele>
        <time>2025-06-15T06:52:46Z</time>
      </trkpt>
      <trkpt lat="45.17363" lon="0.6666">
        <ele>122</ele>
        <time>2025-06-15T06:52:47Z</time>
      </trkpt>
      <trkpt lat="45.17361" lon="0.66656">
        <ele>122</ele>
        <time>2025-06-15T06:52:48Z</time>
      </trkpt>
      <trkpt lat="45.17359" lon="0.66652">
        <ele>122.2</ele>
        <time>2025-06-15T06:52:49Z</time>
      </trkpt>
      <trkpt lat="45.17357" lon="0.6665">
        <ele>122.2</ele>
        <time>2025-06-15T06:52:50Z</time>
      </trkpt>
      <trkpt lat="45.17354" lon="0.66647">
        <ele>122.4</ele>
        <time>2025-06-15T06:52:51Z</time>
      </trkpt>
      <trkpt lat="45.17352" lon="0.66644">
        <ele>122.6</ele>
        <time>2025-06-15T06:52:52Z</time>
      </trkpt>
      <trkpt lat="45.17349" lon="0.66641">
        <ele>122.6</ele>
        <time>2025-06-15T06:52:53Z</time>
      </trkpt>
      <trkpt lat="45.17347" lon="0.66639">
        <ele>122.8</ele>
        <time>2025-06-15T06:52:54Z</time>
      </trkpt>
      <trkpt lat="45.17345" lon="0.66637">
        <ele>123</ele>
        <time>2025-06-15T06:52:55Z</time>
      </trkpt>
      <trkpt lat="45.17342" lon="0.66634">
        <ele>123.2</ele>
        <time>2025-06-15T06:52:56Z</time>
      </trkpt>
      <trkpt lat="45.1734" lon="0.66632">
        <ele>123.4</ele>
        <time>2025-06-15T06:52:57Z</time>
      </trkpt>
      <trkpt lat="45.17337" lon="0.66628">
        <ele>123.6</ele>
        <time>2025-06-15T06:52:58Z</time>
      </trkpt>
      <trkpt lat="45.17335" lon="0.66626">
        <ele>123.8</ele>
        <time>2025-06-15T06:52:59Z</time>
      </trkpt>
      <trkpt lat="45.17333" lon="0.66623">
        <ele>123.8</ele>
        <time>2025-06-15T06:53:00Z</time>
      </trkpt>
      <trkpt lat="45.17331" lon="0.6662">
        <ele>123.8</ele>
        <time>2025-06-15T06:53:01Z</time>
      </trkpt>
      <trkpt lat="45.17328" lon="0.66618">
        <ele>124</ele>
        <time>2025-06-15T06:53:02Z</time>
      </trkpt>
      <trkpt lat="45.17326" lon="0.66615">
        <ele>124.2</ele>
        <time>2025-06-15T06:53:03Z</time>
      </trkpt>
      <trkpt lat="45.17323" lon="0.66612">
        <ele>124.2</ele>
        <time>2025-06-15T06:53:04Z</time>
      </trkpt>
      <trkpt lat="45.17321" lon="0.66609">
        <ele>124.2</ele>
        <time>2025-06-15T06:53:05Z</time>
      </trkpt>
      <trkpt lat="45.17319" lon="0.66606">
        <ele>124.4</ele>
        <time>2025-06-15T06:53:06Z</time>
      </trkpt>
      <trkpt lat="45.17317" lon="0.66604">
        <ele>124.6</ele>
        <time>2025-06-15T06:53:07Z</time>
      </trkpt>
      <trkpt lat="45.17315" lon="0.66601">
        <ele>124.6</ele>
        <time>2025-06-15T06:53:08Z</time>
      </trkpt>
      <trkpt lat="45.17313" lon="0.66598">
        <ele>124.6</ele>
        <time>2025-06-15T06:53:09Z</time>
      </trkpt>
      <trkpt lat="45.17311" lon="0.66596">
        <ele>124.6</ele>
        <time>2025-06-15T06:53:10Z</time>
      </trkpt>
      <trkpt lat="45.17308" lon="0.66593">
        <ele>124.8</ele>
        <time>2025-06-15T06:53:11Z</time>
      </trkpt>
      <trkpt lat="45.17305" lon="0.6659">
        <ele>124.8</ele>
        <time>2025-06-15T06:53:12Z</time>
      </trkpt>
      <trkpt lat="45.17303" lon="0.66586">
        <ele>124.8</ele>
        <time>2025-06-15T06:53:13Z</time>
      </trkpt>
      <trkpt lat="45.17301" lon="0.66584">
        <ele>125</ele>
        <time>2025-06-15T06:53:14Z</time>
      </trkpt>
      <trkpt lat="45.17299" lon="0.66582">
        <ele>125</ele>
        <time>2025-06-15T06:53:15Z</time>
      </trkpt>
      <trkpt lat="45.17297" lon="0.66579">
        <ele>125</ele>
        <time>2025-06-15T06:53:16Z</time>
      </trkpt>
      <trkpt lat="45.17295" lon="0.66576">
        <ele>125.2</ele>
        <time>2025-06-15T06:53:17Z</time>
      </trkpt>
      <trkpt lat="45.17293" lon="0.66572">
        <ele>125.2</ele>
        <time>2025-06-15T06:53:18Z</time>
      </trkpt>
      <trkpt lat="45.1729" lon="0.6657">
        <ele>125.4</ele>
        <time>2025-06-15T06:53:19Z</time>
      </trkpt>
      <trkpt lat="45.17288" lon="0.66567">
        <ele>125.6</ele>
        <time>2025-06-15T06:53:20Z</time>
      </trkpt>
      <trkpt lat="45.17284" lon="0.66564">
        <ele>125.6</ele>
        <time>2025-06-15T06:53:21Z</time>
      </trkpt>
      <trkpt lat="45.17281" lon="0.66561">
        <ele>125.6</ele>
        <time>2025-06-15T06:53:22Z</time>
      </trkpt>
      <trkpt lat="45.17279" lon="0.66558">
        <ele>125.6</ele>
        <time>2025-06-15T06:53:23Z</time>
      </trkpt>
      <trkpt lat="45.17276" lon="0.66556">
        <ele>125.6</ele>
        <time>2025-06-15T06:53:24Z</time>
      </trkpt>
      <trkpt lat="45.17273" lon="0.66554">
        <ele>125.8</ele>
        <time>2025-06-15T06:53:25Z</time>
      </trkpt>
      <trkpt lat="45.17269" lon="0.66552">
        <ele>125.8</ele>
        <time>2025-06-15T06:53:26Z</time>
      </trkpt>
      <trkpt lat="45.17267" lon="0.66549">
        <ele>125.8</ele>
        <time>2025-06-15T06:53:27Z</time>
      </trkpt>
      <trkpt lat="45.17264" lon="0.66546">
        <ele>126</ele>
        <time>2025-06-15T06:53:28Z</time>
      </trkpt>
      <trkpt lat="45.17262" lon="0.66544">
        <ele>126</ele>
        <time>2025-06-15T06:53:29Z</time>
      </trkpt>
      <trkpt lat="45.17259" lon="0.66541">
        <ele>126.2</ele>
        <time>2025-06-15T06:53:30Z</time>
      </trkpt>
      <trkpt lat="45.17257" lon="0.66539">
        <ele>126.4</ele>
        <time>2025-06-15T06:53:31Z</time>
      </trkpt>
      <trkpt lat="45.17254" lon="0.66536">
        <ele>126.4</ele>
        <time>2025-06-15T06:53:32Z</time>
      </trkpt>
      <trkpt lat="45.17251" lon="0.66534">
        <ele>126.4</ele>
        <time>2025-06-15T06:53:33Z</time>
      </trkpt>
      <trkpt lat="45.17248" lon="0.66531">
        <ele>126.4</ele>
        <time>2025-06-15T06:53:34Z</time>
      </trkpt>
      <trkpt lat="45.17245" lon="0.66528">
        <ele>126.4</ele>
        <time>2025-06-15T06:53:35Z</time>
      </trkpt>
      <trkpt lat="45.17243" lon="0.66525">
        <ele>126.4</ele>
        <time>2025-06-15T06:53:36Z</time>
      </trkpt>
      <trkpt lat="45.1724" lon="0.66522">
        <ele>126.6</ele>
        <time>2025-06-15T06:53:37Z</time>
      </trkpt>
      <trkpt lat="45.17237" lon="0.6652">
        <ele>126.6</ele>
        <time>2025-06-15T06:53:38Z</time>
      </trkpt>
      <trkpt lat="45.17235" lon="0.66516">
        <ele>126.8</ele>
        <time>2025-06-15T06:53:39Z</time>
      </trkpt>
      <trkpt lat="45.17232" lon="0.66514">
        <ele>127</ele>
        <time>2025-06-15T06:53:40Z</time>
      </trkpt>
      <trkpt lat="45.17228" lon="0.66512">
        <ele>127.2</ele>
        <time>2025-06-15T06:53:41Z</time>
      </trkpt>
      <trkpt lat="45.17225" lon="0.6651">
        <ele>127.4</ele>
        <time>2025-06-15T06:53:42Z</time>
      </trkpt>
      <trkpt lat="45.17222" lon="0.66508">
        <ele>127.6</ele>
        <time>2025-06-15T06:53:43Z</time>
      </trkpt>
      <trkpt lat="45.17219" lon="0.66507">
        <ele>127.8</ele>
        <time>2025-06-15T06:53:44Z</time>
      </trkpt>
      <trkpt lat="45.17216" lon="0.66506">
        <ele>127.8</ele>
        <time>2025-06-15T06:53:45Z</time>
      </trkpt>
      <trkpt lat="45.17213" lon="0.66505">
        <ele>127.8</ele>
        <time>2025-06-15T06:53:46Z</time>
      </trkpt>
      <trkpt lat="45.1721" lon="0.66504">
        <ele>128</ele>
        <time>2025-06-15T06:53:47Z</time>
      </trkpt>
      <trkpt lat="45.17207" lon="0.66503">
        <ele>128</ele>
        <time>2025-06-15T06:53:48Z</time>
      </trkpt>
      <trkpt lat="45.17203" lon="0.66502">
        <ele>128</ele>
        <time>2025-06-15T06:53:49Z</time>
      </trkpt>
      <trkpt lat="45.172" lon="0.66501">
        <ele>128</ele>
        <time>2025-06-15T06:53:50Z</time>
      </trkpt>
      <trkpt lat="45.17197" lon="0.665">
        <ele>128.2</ele>
        <time>2025-06-15T06:53:51Z</time>
      </trkpt>
      <trkpt lat="45.17194" lon="0.66498">
        <ele>128.2</ele>
        <time>2025-06-15T06:53:52Z</time>
      </trkpt>
      <trkpt lat="45.17191" lon="0.66496">
        <ele>128.2</ele>
        <time>2025-06-15T06:53:53Z</time>
      </trkpt>
      <trkpt lat="45.17188" lon="0.66494">
        <ele>128.4</ele>
        <time>2025-06-15T06:53:54Z</time>
      </trkpt>
      <trkpt lat="45.17185" lon="0.66492">
        <ele>128.6</ele>
        <time>2025-06-15T06:53:55Z</time>
      </trkpt>
      <trkpt lat="45.17182" lon="0.66491">
        <ele>128.6</ele>
        <time>2025-06-15T06:53:56Z</time>
      </trkpt>
      <trkpt lat="45.17178" lon="0.66489">
        <ele>128.6</ele>
        <time>2025-06-15T06:53:57Z</time>
      </trkpt>
      <trkpt lat="45.17175" lon="0.66488">
        <ele>128.8</ele>
        <time>2025-06-15T06:53:58Z</time>
      </trkpt>
      <trkpt lat="45.17171" lon="0.66487">
        <ele>129</ele>
        <time>2025-06-15T06:53:59Z</time>
      </trkpt>
      <trkpt lat="45.17167" lon="0.66486">
        <ele>129</ele>
        <time>2025-06-15T06:54:00Z</time>
      </trkpt>
      <trkpt lat="45.17164" lon="0.66484">
        <ele>129</ele>
        <time>2025-06-15T06:54:01Z</time>
      </trkpt>
      <trkpt lat="45.17161" lon="0.66483">
        <ele>129.2</ele>
        <time>2025-06-15T06:54:02Z</time>
      </trkpt>
      <trkpt lat="45.17158" lon="0.66482">
        <ele>129.2</ele>
        <time>2025-06-15T06:54:03Z</time>
      </trkpt>
      <trkpt lat="45.17156" lon="0.6648">
        <ele>129.4</ele>
        <time>2025-06-15T06:54:04Z</time>
      </trkpt>
      <trkpt lat="45.17153" lon="0.66478">
        <ele>129.6</ele>
        <time>2025-06-15T06:54:05Z</time>
      </trkpt>
      <trkpt lat="45.1715" lon="0.66477">
        <ele>129.8</ele>
        <time>2025-06-15T06:54:06Z</time>
      </trkpt>
      <trkpt lat="45.17147" lon="0.66475">
        <ele>130</ele>
        <time>2025-06-15T06:54:07Z</time>
      </trkpt>
      <trkpt lat="45.17145" lon="0.66474">
        <ele>130.2</ele>
        <time>2025-06-15T06:54:08Z</time>
      </trkpt>
      <trkpt lat="45.17142" lon="0.66473">
        <ele>130.4</ele>
        <time>2025-06-15T06:54:09Z</time>
      </trkpt>
      <trkpt lat="45.17139" lon="0.66472">
        <ele>130.6</ele>
        <time>2025-06-15T06:54:10Z</time>
      </trkpt>
      <trkpt lat="45.17136" lon="0.66472">
        <ele>130.6</ele>
        <time>2025-06-15T06:54:11Z</time>
      </trkpt>
      <trkpt lat="45.17133" lon="0.66471">
        <ele>130.8</ele>
        <time>2025-06-15T06:54:12Z</time>
      </trkpt>
      <trkpt lat="45.1713" lon="0.6647">
        <ele>131</ele>
        <time>2025-06-15T06:54:13Z</time>
      </trkpt>
      <trkpt lat="45.17128" lon="0.6647">
        <ele>131.2</ele>
        <time>2025-06-15T06:54:14Z</time>
      </trkpt>
      <trkpt lat="45.17125" lon="0.66469">
        <ele>131.2</ele>
        <time>2025-06-15T06:54:15Z</time>
      </trkpt>
      <trkpt lat="45.17124" lon="0.66466">
        <ele>131.4</ele>
        <time>2025-06-15T06:54:16Z</time>
      </trkpt>
      <trkpt lat="45.17121" lon="0.66464">
        <ele>131.6</ele>
        <time>2025-06-15T06:54:17Z</time>
      </trkpt>
      <trkpt lat="45.17119" lon="0.66462">
        <ele>131.6</ele>
        <time>2025-06-15T06:54:18Z</time>
      </trkpt>
      <trkpt lat="45.17117" lon="0.66459">
        <ele>131.8</ele>
        <time>2025-06-15T06:54:19Z</time>
      </trkpt>
      <trkpt lat="45.17115" lon="0.66457">
        <ele>132</ele>
        <time>2025-06-15T06:54:20Z</time>
      </trkpt>
      <trkpt lat="45.17113" lon="0.66454">
        <ele>132.2</ele>
        <time>2025-06-15T06:54:21Z</time>
      </trkpt>
      <trkpt lat="45.17112" lon="0.66451">
        <ele>132.4</ele>
        <time>2025-06-15T06:54:22Z</time>
      </trkpt>
      <trkpt lat="45.1711" lon="0.6645">
        <ele>132.6</ele>
        <time>2025-06-15T06:54:23Z</time>
      </trkpt>
      <trkpt lat="45.17109" lon="0.66447">
        <ele>132.6</ele>
        <time>2025-06-15T06:54:24Z</time>
      </trkpt>
      <trkpt lat="45.17107" lon="0.66445">
        <ele>132.8</ele>
        <time>2025-06-15T06:54:25Z</time>
      </trkpt>
      <trkpt lat="45.17105" lon="0.66443">
        <ele>133</ele>
        <time>2025-06-15T06:54:26Z</time>
      </trkpt>
      <trkpt lat="45.17102" lon="0.6644">
        <ele>133.2</ele>
        <time>2025-06-15T06:54:27Z</time>
      </trkpt>
      <trkpt lat="45.171" lon="0.66438">
        <ele>133.4</ele>
        <time>2025-06-15T06:54:28Z</time>
      </trkpt>
      <trkpt lat="45.17097" lon="0.66436">
        <ele>133.6</ele>
        <time>2025-06-15T06:54:29Z</time>
      </trkpt>
      <trkpt lat="45.17095" lon="0.66434">
        <ele>133.6</ele>
        <time>2025-06-15T06:54:30Z</time>
      </trkpt>
      <trkpt lat="45.17093" lon="0.66433">
        <ele>133.8</ele>
        <time>2025-06-15T06:54:31Z</time>
      </trkpt>
      <trkpt lat="45.1709" lon="0.66432">
        <ele>134</ele>
        <time>2025-06-15T06:54:32Z</time>
      </trkpt>
      <trkpt lat="45.17089" lon="0.66431">
        <ele>134.2</ele>
        <time>2025-06-15T06:54:33Z</time>
      </trkpt>
      <trkpt lat="45.17087" lon="0.66428">
        <ele>134.2</ele>
        <time>2025-06-15T06:54:34Z</time>
      </trkpt>
      <trkpt lat="45.17085" lon="0.66426">
        <ele>134.4</ele>
        <time>2025-06-15T06:54:35Z</time>
      </trkpt>
      <trkpt lat="45.17083" lon="0.66424">
        <ele>134.4</ele>
        <time>2025-06-15T06:54:36Z</time>
      </trkpt>
      <trkpt lat="45.17081" lon="0.66421">
        <ele>134.6</ele>
        <time>2025-06-15T06:54:37Z</time>
      </trkpt>
      <trkpt lat="45.1708" lon="0.66417">
        <ele>134.8</ele>
        <time>2025-06-15T06:54:38Z</time>
      </trkpt>
      <trkpt lat="45.17079" lon="0.66414">
        <ele>134.8</ele>
        <time>2025-06-15T06:54:39Z</time>
      </trkpt>
      <trkpt lat="45.17077" lon="0.66411">
        <ele>135</ele>
        <time>2025-06-15T06:54:40Z</time>
      </trkpt>
      <trkpt lat="45.17075" lon="0.66408">
        <ele>135.2</ele>
        <time>2025-06-15T06:54:41Z</time>
      </trkpt>
      <trkpt lat="45.17074" lon="0.66405">
        <ele>135.2</ele>
        <time>2025-06-15T06:54:42Z</time>
      </trkpt>
      <trkpt lat="45.17073" lon="0.66402">
        <ele>135.4</ele>
        <time>2025-06-15T06:54:43Z</time>
      </trkpt>
      <trkpt lat="45.17072" lon="0.66399">
        <ele>135.6</ele>
        <time>2025-06-15T06:54:44Z</time>
      </trkpt>
      <trkpt lat="45.1707" lon="0.66396">
        <ele>135.8</ele>
        <time>2025-06-15T06:54:45Z</time>
      </trkpt>
      <trkpt lat="45.17069" lon="0.66393">
        <ele>135.8</ele>
        <time>2025-06-15T06:54:46Z</time>
      </trkpt>
      <trkpt lat="45.17067" lon="0.6639">
        <ele>136</ele>
        <time>2025-06-15T06:54:47Z</time>
      </trkpt>
      <trkpt lat="45.17066" lon="0.66388">
        <ele>136.2</ele>
        <time>2025-06-15T06:54:48Z</time>
      </trkpt>
      <trkpt lat="45.17064" lon="0.66386">
        <ele>136.2</ele>
        <time>2025-06-15T06:54:49Z</time>
      </trkpt>
      <trkpt lat="45.17062" lon="0.66384">
        <ele>136.4</ele>
        <time>2025-06-15T06:54:50Z</time>
      </trkpt>
      <trkpt lat="45.1706" lon="0.66382">
        <ele>136.4</ele>
        <time>2025-06-15T06:54:51Z</time>
      </trkpt>
      <trkpt lat="45.17058" lon="0.6638">
        <ele>136.6</ele>
        <time>2025-06-15T06:54:52Z</time>
      </trkpt>
      <trkpt lat="45.17056" lon="0.66377">
        <ele>136.8</ele>
        <time>2025-06-15T06:54:53Z</time>
      </trkpt>
      <trkpt lat="45.17054" lon="0.66374">
        <ele>137</ele>
        <time>2025-06-15T06:54:54Z</time>
      </trkpt>
      <trkpt lat="45.17052" lon="0.66371">
        <ele>137.2</ele>
        <time>2025-06-15T06:54:55Z</time>
      </trkpt>
      <trkpt lat="45.1705" lon="0.66368">
        <ele>137.4</ele>
        <time>2025-06-15T06:54:56Z</time>
      </trkpt>
      <trkpt lat="45.17048" lon="0.66364">
        <ele>137.6</ele>
        <time>2025-06-15T06:54:57Z</time>
      </trkpt>
      <trkpt lat="45.17047" lon="0.66361">
        <ele>137.6</ele>
        <time>2025-06-15T06:54:58Z</time>
      </trkpt>
      <trkpt lat="45.17046" lon="0.66358">
        <ele>137.8</ele>
        <time>2025-06-15T06:54:59Z</time>
      </trkpt>
      <trkpt lat="45.17045" lon="0.66356">
        <ele>137.8</ele>
        <time>2025-06-15T06:55:00Z</time>
      </trkpt>
      <trkpt lat="45.17044" lon="0.66352">
        <ele>138</ele>
        <time>2025-06-15T06:55:01Z</time>
      </trkpt>
      <trkpt lat="45.17043" lon="0.66349">
        <ele>138</ele>
        <time>2025-06-15T06:55:02Z</time>
      </trkpt>
      <trkpt lat="45.17042" lon="0.66345">
        <ele>138.2</ele>
        <time>2025-06-15T06:55:03Z</time>
      </trkpt>
      <trkpt lat="45.17041" lon="0.66342">
        <ele>138.2</ele>
        <time>2025-06-15T06:55:04Z</time>
      </trkpt>
      <trkpt lat="45.1704" lon="0.66338">
        <ele>138.4</ele>
        <time>2025-06-15T06:55:05Z</time>
      </trkpt>
      <trkpt lat="45.17039" lon="0.66335">
        <ele>138.6</ele>
        <time>2025-06-15T06:55:06Z</time>
      </trkpt>
      <trkpt lat="45.17037" lon="0.66331">
        <ele>138.8</ele>
        <time>2025-06-15T06:55:07Z</time>
      </trkpt>
      <trkpt lat="45.17036" lon="0.66328">
        <ele>138.8</ele>
        <time>2025-06-15T06:55:08Z</time>
      </trkpt>
      <trkpt lat="45.17035" lon="0.66325">
        <ele>139</ele>
        <time>2025-06-15T06:55:09Z</time>
      </trkpt>
      <trkpt lat="45.17034" lon="0.66322">
        <ele>139.2</ele>
        <time>2025-06-15T06:55:10Z</time>
      </trkpt>
      <trkpt lat="45.17033" lon="0.66319">
        <ele>139.2</ele>
        <time>2025-06-15T06:55:11Z</time>
      </trkpt>
      <trkpt lat="45.17031" lon="0.66316">
        <ele>139.4</ele>
        <time>2025-06-15T06:55:12Z</time>
      </trkpt>
      <trkpt lat="45.17029" lon="0.66313">
        <ele>139.6</ele>
        <time>2025-06-15T06:55:13Z</time>
      </trkpt>
      <trkpt lat="45.17028" lon="0.6631">
        <ele>139.8</ele>
        <time>2025-06-15T06:55:14Z</time>
      </trkpt>
      <trkpt lat="45.17027" lon="0.66307">
        <ele>140</ele>
        <time>2025-06-15T06:55:15Z</time>
      </trkpt>
      <trkpt lat="45.17025" lon="0.66304">
        <ele>140</ele>
        <time>2025-06-15T06:55:16Z</time>
      </trkpt>
      <trkpt lat="45.17023" lon="0.66301">
        <ele>140.2</ele>
        <time>2025-06-15T06:55:17Z</time>
      </trkpt>
      <trkpt lat="45.17021" lon="0.66299">
        <ele>140.2</ele>
        <time>2025-06-15T06:55:18Z</time>
      </trkpt>
      <trkpt lat="45.17019" lon="0.66296">
        <ele>140.4</ele>
        <time>2025-06-15T06:55:19Z</time>
      </trkpt>
      <trkpt lat="45.17017" lon="0.66294">
        <ele>140.6</ele>
        <time>2025-06-15T06:55:20Z</time>
      </trkpt>
      <trkpt lat="45.17015" lon="0.66292">
        <ele>140.6</ele>
        <time>2025-06-15T06:55:21Z</time>
      </trkpt>
      <trkpt lat="45.17012" lon="0.66291">
        <ele>140.8</ele>
        <time>2025-06-15T06:55:22Z</time>
      </trkpt>
      <trkpt lat="45.1701" lon="0.66289">
        <ele>140.8</ele>
        <time>2025-06-15T06:55:23Z</time>
      </trkpt>
      <trkpt lat="45.17007" lon="0.66288">
        <ele>141</ele>
        <time>2025-06-15T06:55:24Z</time>
      </trkpt>
      <trkpt lat="45.17005" lon="0.66285">
        <ele>141</ele>
        <time>2025-06-15T06:55:25Z</time>
      </trkpt>
      <trkpt lat="45.17003" lon="0.66283">
        <ele>141</ele>
        <time>2025-06-15T06:55:26Z</time>
      </trkpt>
      <trkpt lat="45.17001" lon="0.6628">
        <ele>141</ele>
        <time>2025-06-15T06:55:27Z</time>
      </trkpt>
      <trkpt lat="45.16999" lon="0.66277">
        <ele>141.2</ele>
        <time>2025-06-15T06:55:28Z</time>
      </trkpt>
      <trkpt lat="45.16998" lon="0.66275">
        <ele>141.2</ele>
        <time>2025-06-15T06:55:29Z</time>
      </trkpt>
      <trkpt lat="45.16996" lon="0.66273">
        <ele>141.4</ele>
        <time>2025-06-15T06:55:30Z</time>
      </trkpt>
      <trkpt lat="45.16994" lon="0.6627">
        <ele>141.6</ele>
        <time>2025-06-15T06:55:31Z</time>
      </trkpt>
      <trkpt lat="45.16992" lon="0.66269">
        <ele>141.8</ele>
        <time>2025-06-15T06:55:32Z</time>
      </trkpt>
      <trkpt lat="45.16991" lon="0.66267">
        <ele>142</ele>
        <time>2025-06-15T06:55:33Z</time>
      </trkpt>
      <trkpt lat="45.16989" lon="0.66265">
        <ele>142.2</ele>
        <time>2025-06-15T06:55:34Z</time>
      </trkpt>
      <trkpt lat="45.16987" lon="0.66262">
        <ele>142.4</ele>
        <time>2025-06-15T06:55:35Z</time>
      </trkpt>
      <trkpt lat="45.16985" lon="0.66259">
        <ele>142.4</ele>
        <time>2025-06-15T06:55:36Z</time>
      </trkpt>
      <trkpt lat="45.16983" lon="0.66257">
        <ele>142.6</ele>
        <time>2025-06-15T06:55:37Z</time>
      </trkpt>
      <trkpt lat="45.16981" lon="0.66254">
        <ele>142.6</ele>
        <time>2025-06-15T06:55:38Z</time>
      </trkpt>
      <trkpt lat="45.16979" lon="0.66252">
        <ele>142.8</ele>
        <time>2025-06-15T06:55:39Z</time>
      </trkpt>
      <trkpt lat="45.16978" lon="0.6625">
        <ele>143</ele>
        <time>2025-06-15T06:55:40Z</time>
      </trkpt>
      <trkpt lat="45.16976" lon="0.66248">
        <ele>143.2</ele>
        <time>2025-06-15T06:55:41Z</time>
      </trkpt>
      <trkpt lat="45.16974" lon="0.66245">
        <ele>143.4</ele>
        <time>2025-06-15T06:55:42Z</time>
      </trkpt>
      <trkpt lat="45.16972" lon="0.66243">
        <ele>143.8</ele>
        <time>2025-06-15T06:55:43Z</time>
      </trkpt>
      <trkpt lat="45.1697" lon="0.6624">
        <ele>144</ele>
        <time>2025-06-15T06:55:44Z</time>
      </trkpt>
      <trkpt lat="45.16968" lon="0.66237">
        <ele>144.2</ele>
        <time>2025-06-15T06:55:45Z</time>
      </trkpt>
      <trkpt lat="45.16966" lon="0.66235">
        <ele>144.4</ele>
        <time>2025-06-15T06:55:46Z</time>
      </trkpt>
      <trkpt lat="45.16964" lon="0.66232">
        <ele>144.4</ele>
        <time>2025-06-15T06:55:47Z</time>
      </trkpt>
      <trkpt lat="45.16962" lon="0.66229">
        <ele>144.6</ele>
        <time>2025-06-15T06:55:48Z</time>
      </trkpt>
      <trkpt lat="45.1696" lon="0.66227">
        <ele>144.8</ele>
        <time>2025-06-15T06:55:49Z</time>
      </trkpt>
      <trkpt lat="45.16958" lon="0.66225">
        <ele>145</ele>
        <time>2025-06-15T06:55:50Z</time>
      </trkpt>
      <trkpt lat="45.16957" lon="0.66223">
        <ele>145.2</ele>
        <time>2025-06-15T06:55:51Z</time>
      </trkpt>
      <trkpt lat="45.16955" lon="0.66221">
        <ele>145.4</ele>
        <time>2025-06-15T06:55:52Z</time>
      </trkpt>
      <trkpt lat="45.16953" lon="0.66218">
        <ele>145.4</ele>
        <time>2025-06-15T06:55:53Z</time>
      </trkpt>
      <trkpt lat="45.16951" lon="0.66215">
        <ele>145.6</ele>
        <time>2025-06-15T06:55:54Z</time>
      </trkpt>
      <trkpt lat="45.16949" lon="0.66211">
        <ele>145.6</ele>
        <time>2025-06-15T06:55:55Z</time>
      </trkpt>
      <trkpt lat="45.16947" lon="0.66208">
        <ele>145.8</ele>
        <time>2025-06-15T06:55:56Z</time>
      </trkpt>
      <trkpt lat="45.16945" lon="0.66205">
        <ele>146</ele>
        <time>2025-06-15T06:55:57Z</time>
      </trkpt>
      <trkpt lat="45.16944" lon="0.66202">
        <ele>146.2</ele>
        <time>2025-06-15T06:55:58Z</time>
      </trkpt>
      <trkpt lat="45.16942" lon="0.66199">
        <ele>146.2</ele>
        <time>2025-06-15T06:55:59Z</time>
      </trkpt>
      <trkpt lat="45.1694" lon="0.66196">
        <ele>146.4</ele>
        <time>2025-06-15T06:56:00Z</time>
      </trkpt>
      <trkpt lat="45.16939" lon="0.66194">
        <ele>146.4</ele>
        <time>2025-06-15T06:56:01Z</time>
      </trkpt>
      <trkpt lat="45.16937" lon="0.6619">
        <ele>146.6</ele>
        <time>2025-06-15T06:56:02Z</time>
      </trkpt>
      <trkpt lat="45.16936" lon="0.66188">
        <ele>146.8</ele>
        <time>2025-06-15T06:56:03Z</time>
      </trkpt>
      <trkpt lat="45.16934" lon="0.66185">
        <ele>147</ele>
        <time>2025-06-15T06:56:04Z</time>
      </trkpt>
      <trkpt lat="45.16933" lon="0.66181">
        <ele>147.2</ele>
        <time>2025-06-15T06:56:05Z</time>
      </trkpt>
      <trkpt lat="45.16932" lon="0.66177">
        <ele>147.4</ele>
        <time>2025-06-15T06:56:06Z</time>
      </trkpt>
      <trkpt lat="45.1693" lon="0.66174">
        <ele>147.6</ele>
        <time>2025-06-15T06:56:07Z</time>
      </trkpt>
      <trkpt lat="45.16929" lon="0.66171">
        <ele>147.8</ele>
        <time>2025-06-15T06:56:08Z</time>
      </trkpt>
      <trkpt lat="45.16928" lon="0.66169">
        <ele>148</ele>
        <time>2025-06-15T06:56:09Z</time>
      </trkpt>
      <trkpt lat="45.16927" lon="0.66166">
        <ele>148.2</ele>
        <time>2025-06-15T06:56:10Z</time>
      </trkpt>
      <trkpt lat="45.16926" lon="0.66163">
        <ele>148.6</ele>
        <time>2025-06-15T06:56:11Z</time>
      </trkpt>
      <trkpt lat="45.16925" lon="0.66159">
        <ele>148.8</ele>
        <time>2025-06-15T06:56:12Z</time>
      </trkpt>
      <trkpt lat="45.16923" lon="0.66156">
        <ele>149</ele>
        <time>2025-06-15T06:56:13Z</time>
      </trkpt>
      <trkpt lat="45.16922" lon="0.66153">
        <ele>149.2</ele>
        <time>2025-06-15T06:56:14Z</time>
      </trkpt>
      <trkpt lat="45.1692" lon="0.66149">
        <ele>149.4</ele>
        <time>2025-06-15T06:56:15Z</time>
      </trkpt>
      <trkpt lat="45.16919" lon="0.66145">
        <ele>149.6</ele>
        <time>2025-06-15T06:56:16Z</time>
      </trkpt>
      <trkpt lat="45.16917" lon="0.66142">
        <ele>149.8</ele>
        <time>2025-06-15T06:56:17Z</time>
      </trkpt>
      <trkpt lat="45.16916" lon="0.66139">
        <ele>150</ele>
        <time>2025-06-15T06:56:18Z</time>
      </trkpt>
      <trkpt lat="45.16914" lon="0.66135">
        <ele>150.2</ele>
        <time>2025-06-15T06:56:19Z</time>
      </trkpt>
      <trkpt lat="45.16912" lon="0.66131">
        <ele>150.4</ele>
        <time>2025-06-15T06:56:20Z</time>
      </trkpt>
      <trkpt lat="45.1691" lon="0.66128">
        <ele>150.6</ele>
        <time>2025-06-15T06:56:21Z</time>
      </trkpt>
      <trkpt lat="45.16908" lon="0.66126">
        <ele>151</ele>
        <time>2025-06-15T06:56:22Z</time>
      </trkpt>
      <trkpt lat="45.16906" lon="0.66124">
        <ele>151.2</ele>
        <time>2025-06-15T06:56:23Z</time>
      </trkpt>
      <trkpt lat="45.16904" lon="0.66121">
        <ele>151.4</ele>
        <time>2025-06-15T06:56:24Z</time>
      </trkpt>
      <trkpt lat="45.16903" lon="0.66117">
        <ele>151.6</ele>
        <time>2025-06-15T06:56:25Z</time>
      </trkpt>
      <trkpt lat="45.16903" lon="0.66114">
        <ele>152</ele>
        <time>2025-06-15T06:56:26Z</time>
      </trkpt>
      <trkpt lat="45.16903" lon="0.6611">
        <ele>152.2</ele>
        <time>2025-06-15T06:56:27Z</time>
      </trkpt>
      <trkpt lat="45.16905" lon="0.66107">
        <ele>152.2</ele>
        <time>2025-06-15T06:56:28Z</time>
      </trkpt>
      <trkpt lat="45.16907" lon="0.66106">
        <ele>152.4</ele>
        <time>2025-06-15T06:56:29Z</time>
      </trkpt>
      <trkpt lat="45.16909" lon="0.66106">
        <ele>152.6</ele>
        <time>2025-06-15T06:56:30Z</time>
      </trkpt>
      <trkpt lat="45.16911" lon="0.66106">
        <ele>152.8</ele>
        <time>2025-06-15T06:56:31Z</time>
      </trkpt>
      <trkpt lat="45.16912" lon="0.66105">
        <ele>152.8</ele>
        <time>2025-06-15T06:56:32Z</time>
      </trkpt>
      <trkpt lat="45.16913" lon="0.66105">
        <ele>153.2</ele>
        <time>2025-06-15T06:56:33Z</time>
      </trkpt>
      <trkpt lat="45.16915" lon="0.66104">
        <ele>153.4</ele>
        <time>2025-06-15T06:56:34Z</time>
      </trkpt>
      <trkpt lat="45.16916" lon="0.66103">
        <ele>153.6</ele>
        <time>2025-06-15T06:56:35Z</time>
      </trkpt>
      <trkpt lat="45.16917" lon="0.66103">
        <ele>153.8</ele>
        <time>2025-06-15T06:56:36Z</time>
      </trkpt>
      <trkpt lat="45.16919" lon="0.66103">
        <ele>154.2</ele>
        <time>2025-06-15T06:56:37Z</time>
      </trkpt>
      <trkpt lat="45.16919" lon="0.66103">
        <ele>154.4</ele>
        <time>2025-06-15T06:56:38Z</time>
      </trkpt>
      <trkpt lat="45.16921" lon="0.66102">
        <ele>154.6</ele>
        <time>2025-06-15T06:56:39Z</time>
      </trkpt>
      <trkpt lat="45.16922" lon="0.66102">
        <ele>154.8</ele>
        <time>2025-06-15T06:56:40Z</time>
      </trkpt>
      <trkpt lat="45.16923" lon="0.66102">
        <ele>155.2</ele>
        <time>2025-06-15T06:56:41Z</time>
      </trkpt>
      <trkpt lat="45.16925" lon="0.66102">
        <ele>155.4</ele>
        <time>2025-06-15T06:56:42Z</time>
      </trkpt>
      <trkpt lat="45.16926" lon="0.66102">
        <ele>155.6</ele>
        <time>2025-06-15T06:56:43Z</time>
      </trkpt>
      <trkpt lat="45.16927" lon="0.66102">
        <ele>155.8</ele>
        <time>2025-06-15T06:56:44Z</time>
      </trkpt>
      <trkpt lat="45.16929" lon="0.66102">
        <ele>156.2</ele>
        <time>2025-06-15T06:56:45Z</time>
      </trkpt>
      <trkpt lat="45.1693" lon="0.66101">
        <ele>156.4</ele>
        <time>2025-06-15T06:56:46Z</time>
      </trkpt>
      <trkpt lat="45.16931" lon="0.66101">
        <ele>156.6</ele>
        <time>2025-06-15T06:56:47Z</time>
      </trkpt>
      <trkpt lat="45.16932" lon="0.66101">
        <ele>157</ele>
        <time>2025-06-15T06:56:48Z</time>
      </trkpt>
      <trkpt lat="45.16934" lon="0.66102">
        <ele>157.2</ele>
        <time>2025-06-15T06:56:49Z</time>
      </trkpt>
      <trkpt lat="45.16935" lon="0.66102">
        <ele>157.6</ele>
        <time>2025-06-15T06:56:50Z</time>
      </trkpt>
      <trkpt lat="45.16936" lon="0.66101">
        <ele>157.8</ele>
        <time>2025-06-15T06:56:51Z</time>
      </trkpt>
      <trkpt lat="45.16937" lon="0.661">
        <ele>158</ele>
        <time>2025-06-15T06:56:52Z</time>
      </trkpt>
      <trkpt lat="45.16938" lon="0.661">
        <ele>158.2</ele>
        <time>2025-06-15T06:56:53Z</time>
      </trkpt>
      <trkpt lat="45.1694" lon="0.661">
        <ele>158.6</ele>
        <time>2025-06-15T06:56:54Z</time>
      </trkpt>
      <trkpt lat="45.16941" lon="0.66099">
        <ele>158.8</ele>
        <time>2025-06-15T06:56:55Z</time>
      </trkpt>
      <trkpt lat="45.16942" lon="0.66099">
        <ele>159</ele>
        <time>2025-06-15T06:56:56Z</time>
      </trkpt>
      <trkpt lat="45.16944" lon="0.66098">
        <ele>159.2</ele>
        <time>2025-06-15T06:56:57Z</time>
      </trkpt>
      <trkpt lat="45.16945" lon="0.66098">
        <ele>159.6</ele>
        <time>2025-06-15T06:56:58Z</time>
      </trkpt>
      <trkpt lat="45.16946" lon="0.66099">
        <ele>159.8</ele>
        <time>2025-06-15T06:56:59Z</time>
      </trkpt>
      <trkpt lat="45.16948" lon="0.66099">
        <ele>160</ele>
        <time>2025-06-15T06:57:00Z</time>
      </trkpt>
      <trkpt lat="45.1695" lon="0.66099">
        <ele>160.2</ele>
        <time>2025-06-15T06:57:01Z</time>
      </trkpt>
      <trkpt lat="45.16951" lon="0.66099">
        <ele>160.4</ele>
        <time>2025-06-15T06:57:02Z</time>
      </trkpt>
      <trkpt lat="45.16952" lon="0.66098">
        <ele>160.6</ele>
        <time>2025-06-15T06:57:03Z</time>
      </trkpt>
      <trkpt lat="45.16953" lon="0.66098">
        <ele>160.8</ele>
        <time>2025-06-15T06:57:04Z</time>
      </trkpt>
      <trkpt lat="45.16955" lon="0.66098">
        <ele>161</ele>
        <time>2025-06-15T06:57:05Z</time>
      </trkpt>
      <trkpt lat="45.16956" lon="0.66099">
        <ele>161.2</ele>
        <time>2025-06-15T06:57:06Z</time>
      </trkpt>
      <trkpt lat="45.16958" lon="0.66099">
        <ele>161.4</ele>
        <time>2025-06-15T06:57:07Z</time>
      </trkpt>
      <trkpt lat="45.16959" lon="0.661">
        <ele>161.6</ele>
        <time>2025-06-15T06:57:08Z</time>
      </trkpt>
      <trkpt lat="45.16961" lon="0.661">
        <ele>161.8</ele>
        <time>2025-06-15T06:57:09Z</time>
      </trkpt>
      <trkpt lat="45.16962" lon="0.66099">
        <ele>162</ele>
        <time>2025-06-15T06:57:10Z</time>
      </trkpt>
      <trkpt lat="45.16964" lon="0.66099">
        <ele>162.2</ele>
        <time>2025-06-15T06:57:11Z</time>
      </trkpt>
      <trkpt lat="45.16966" lon="0.66099">
        <ele>162.4</ele>
        <time>2025-06-15T06:57:12Z</time>
      </trkpt>
      <trkpt lat="45.16967" lon="0.661">
        <ele>162.4</ele>
        <time>2025-06-15T06:57:13Z</time>
      </trkpt>
      <trkpt lat="45.16969" lon="0.661">
        <ele>162.6</ele>
        <time>2025-06-15T06:57:14Z</time>
      </trkpt>
      <trkpt lat="45.1697" lon="0.661">
        <ele>162.6</ele>
        <time>2025-06-15T06:57:15Z</time>
      </trkpt>
      <trkpt lat="45.16971" lon="0.661">
        <ele>162.8</ele>
        <time>2025-06-15T06:57:16Z</time>
      </trkpt>
      <trkpt lat="45.16973" lon="0.66101">
        <ele>163</ele>
        <time>2025-06-15T06:57:17Z</time>
      </trkpt>
      <trkpt lat="45.16975" lon="0.66102">
        <ele>163</ele>
        <time>2025-06-15T06:57:18Z</time>
      </trkpt>
      <trkpt lat="45.16976" lon="0.66101">
        <ele>163.2</ele>
        <time>2025-06-15T06:57:19Z</time>
      </trkpt>
      <trkpt lat="45.16978" lon="0.66102">
        <ele>163.2</ele>
        <time>2025-06-15T06:57:20Z</time>
      </trkpt>
      <trkpt lat="45.1698" lon="0.66103">
        <ele>163.2</ele>
        <time>2025-06-15T06:57:21Z</time>
      </trkpt>
      <trkpt lat="45.16982" lon="0.66103">
        <ele>163.4</ele>
        <time>2025-06-15T06:57:22Z</time>
      </trkpt>
      <trkpt lat="45.16983" lon="0.66103">
        <ele>163.4</ele>
        <time>2025-06-15T06:57:23Z</time>
      </trkpt>
      <trkpt lat="45.16985" lon="0.66103">
        <ele>163.6</ele>
        <time>2025-06-15T06:57:24Z</time>
      </trkpt>
      <trkpt lat="45.16986" lon="0.66103">
        <ele>163.6</ele>
        <time>2025-06-15T06:57:25Z</time>
      </trkpt>
      <trkpt lat="45.16988" lon="0.66103">
        <ele>163.6</ele>
        <time>2025-06-15T06:57:26Z</time>
      </trkpt>
      <trkpt lat="45.1699" lon="0.66103">
        <ele>163.8</ele>
        <time>2025-06-15T06:57:27Z</time>
      </trkpt>
      <trkpt lat="45.16993" lon="0.66102">
        <ele>163.8</ele>
        <time>2025-06-15T06:57:28Z</time>
      </trkpt>
      <trkpt lat="45.16995" lon="0.66102">
        <ele>163.8</ele>
        <time>2025-06-15T06:57:29Z</time>
      </trkpt>
      <trkpt lat="45.16998" lon="0.66101">
        <ele>163.8</ele>
        <time>2025-06-15T06:57:30Z</time>
      </trkpt>
      <trkpt lat="45.17" lon="0.661">
        <ele>163.8</ele>
        <time>2025-06-15T06:57:31Z</time>
      </trkpt>
      <trkpt lat="45.17002" lon="0.66099">
        <ele>164</ele>
        <time>2025-06-15T06:57:32Z</time>
      </trkpt>
      <trkpt lat="45.17005" lon="0.66098">
        <ele>164</ele>
        <time>2025-06-15T06:57:33Z</time>
      </trkpt>
      <trkpt lat="45.17007" lon="0.66097">
        <ele>164</ele>
        <time>2025-06-15T06:57:34Z</time>
      </trkpt>
      <trkpt lat="45.1701" lon="0.66095">
        <ele>164</ele>
        <time>2025-06-15T06:57:35Z</time>
      </trkpt>
      <trkpt lat="45.17012" lon="0.66095">
        <ele>164</ele>
        <time>2025-06-15T06:57:36Z</time>
      </trkpt>
      <trkpt lat="45.17015" lon="0.66094">
        <ele>164</ele>
        <time>2025-06-15T06:57:37Z</time>
      </trkpt>
      <trkpt lat="45.17018" lon="0.66093">
        <ele>164.2</ele>
        <time>2025-06-15T06:57:38Z</time>
      </trkpt>
      <trkpt lat="45.1702" lon="0.66091">
        <ele>164.2</ele>
        <time>2025-06-15T06:57:39Z</time>
      </trkpt>
      <trkpt lat="45.17023" lon="0.66089">
        <ele>164.2</ele>
        <time>2025-06-15T06:57:40Z</time>
      </trkpt>
      <trkpt lat="45.17025" lon="0.66087">
        <ele>164.2</ele>
        <time>2025-06-15T06:57:41Z</time>
      </trkpt>
      <trkpt lat="45.17028" lon="0.66085">
        <ele>164.2</ele>
        <time>2025-06-15T06:57:42Z</time>
      </trkpt>
      <trkpt lat="45.17031" lon="0.66085">
        <ele>164.2</ele>
        <time>2025-06-15T06:57:43Z</time>
      </trkpt>
      <trkpt lat="45.17034" lon="0.66083">
        <ele>164.4</ele>
        <time>2025-06-15T06:57:44Z</time>
      </trkpt>
      <trkpt lat="45.17037" lon="0.66083">
        <ele>164.4</ele>
        <time>2025-06-15T06:57:45Z</time>
      </trkpt>
      <trkpt lat="45.1704" lon="0.66082">
        <ele>164.4</ele>
        <time>2025-06-15T06:57:46Z</time>
      </trkpt>
      <trkpt lat="45.17043" lon="0.66081">
        <ele>164.2</ele>
        <time>2025-06-15T06:57:47Z</time>
      </trkpt>
      <trkpt lat="45.17047" lon="0.6608">
        <ele>164.2</ele>
        <time>2025-06-15T06:57:48Z</time>
      </trkpt>
      <trkpt lat="45.1705" lon="0.6608">
        <ele>164.2</ele>
        <time>2025-06-15T06:57:49Z</time>
      </trkpt>
      <trkpt lat="45.17053" lon="0.66079">
        <ele>164.2</ele>
        <time>2025-06-15T06:57:50Z</time>
      </trkpt>
      <trkpt lat="45.17057" lon="0.66079">
        <ele>164.4</ele>
        <time>2025-06-15T06:57:51Z</time>
      </trkpt>
      <trkpt lat="45.1706" lon="0.66078">
        <ele>164.4</ele>
        <time>2025-06-15T06:57:52Z</time>
      </trkpt>
      <trkpt lat="45.17064" lon="0.66078">
        <ele>164.6</ele>
        <time>2025-06-15T06:57:53Z</time>
      </trkpt>
      <trkpt lat="45.17068" lon="0.66078">
        <ele>164.8</ele>
        <time>2025-06-15T06:57:54Z</time>
      </trkpt>
      <trkpt lat="45.17071" lon="0.66078">
        <ele>165</ele>
        <time>2025-06-15T06:57:55Z</time>
      </trkpt>
      <trkpt lat="45.17074" lon="0.66078">
        <ele>165.2</ele>
        <time>2025-06-15T06:57:56Z</time>
      </trkpt>
      <trkpt lat="45.17076" lon="0.66078">
        <ele>165.4</ele>
        <time>2025-06-15T06:57:57Z</time>
      </trkpt>
      <trkpt lat="45.17079" lon="0.66078">
        <ele>165.6</ele>
        <time>2025-06-15T06:57:58Z</time>
      </trkpt>
      <trkpt lat="45.17081" lon="0.66078">
        <ele>166</ele>
        <time>2025-06-15T06:57:59Z</time>
      </trkpt>
      <trkpt lat="45.17084" lon="0.66078">
        <ele>166.2</ele>
        <time>2025-06-15T06:58:00Z</time>
      </trkpt>
      <trkpt lat="45.17087" lon="0.66077">
        <ele>166.6</ele>
        <time>2025-06-15T06:58:01Z</time>
      </trkpt>
      <trkpt lat="45.17089" lon="0.66077">
        <ele>167</ele>
        <time>2025-06-15T06:58:02Z</time>
      </trkpt>
      <trkpt lat="45.17092" lon="0.66077">
        <ele>167.2</ele>
        <time>2025-06-15T06:58:03Z</time>
      </trkpt>
      <trkpt lat="45.17094" lon="0.66077">
        <ele>167.6</ele>
        <time>2025-06-15T06:58:04Z</time>
      </trkpt>
      <trkpt lat="45.17097" lon="0.66077">
        <ele>167.8</ele>
        <time>2025-06-15T06:58:05Z</time>
      </trkpt>
      <trkpt lat="45.17099" lon="0.66077">
        <ele>168.2</ele>
        <time>2025-06-15T06:58:06Z</time>
      </trkpt>
      <trkpt lat="45.17101" lon="0.66077">
        <ele>168.6</ele>
        <time>2025-06-15T06:58:07Z</time>
      </trkpt>
      <trkpt lat="45.17103" lon="0.66077">
        <ele>168.8</ele>
        <time>2025-06-15T06:58:08Z</time>
      </trkpt>
      <trkpt lat="45.17106" lon="0.66077">
        <ele>169.2</ele>
        <time>2025-06-15T06:58:09Z</time>
      </trkpt>
      <trkpt lat="45.17108" lon="0.66076">
        <ele>169.4</ele>
        <time>2025-06-15T06:58:10Z</time>
      </trkpt>
      <trkpt lat="45.1711" lon="0.66076">
        <ele>169.6</ele>
        <time>2025-06-15T06:58:11Z</time>
      </trkpt>
      <trkpt lat="45.17112" lon="0.66076">
        <ele>170</ele>
        <time>2025-06-15T06:58:12Z</time>
      </trkpt>
      <trkpt lat="45.17115" lon="0.66077">
        <ele>170.2</ele>
        <time>2025-06-15T06:58:13Z</time>
      </trkpt>
      <trkpt lat="45.17117" lon="0.66079">
        <ele>170.6</ele>
        <time>2025-06-15T06:58:14Z</time>
      </trkpt>
      <trkpt lat="45.17119" lon="0.6608">
        <ele>170.8</ele>
        <time>2025-06-15T06:58:15Z</time>
      </trkpt>
      <trkpt lat="45.17121" lon="0.66082">
        <ele>171</ele>
        <time>2025-06-15T06:58:16Z</time>
      </trkpt>
      <trkpt lat="45.17123" lon="0.66082">
        <ele>171.2</ele>
        <time>2025-06-15T06:58:17Z</time>
      </trkpt>
      <trkpt lat="45.17126" lon="0.66081">
        <ele>171.4</ele>
        <time>2025-06-15T06:58:18Z</time>
      </trkpt>
      <trkpt lat="45.17128" lon="0.66081">
        <ele>171.6</ele>
        <time>2025-06-15T06:58:19Z</time>
      </trkpt>
      <trkpt lat="45.1713" lon="0.66081">
        <ele>171.6</ele>
        <time>2025-06-15T06:58:20Z</time>
      </trkpt>
      <trkpt lat="45.17133" lon="0.66081">
        <ele>171.8</ele>
        <time>2025-06-15T06:58:21Z</time>
      </trkpt>
      <trkpt lat="45.17135" lon="0.66081">
        <ele>171.8</ele>
        <time>2025-06-15T06:58:22Z</time>
      </trkpt>
      <trkpt lat="45.17138" lon="0.66081">
        <ele>172</ele>
        <time>2025-06-15T06:58:23Z</time>
      </trkpt>
      <trkpt lat="45.1714" lon="0.66083">
        <ele>172.2</ele>
        <time>2025-06-15T06:58:24Z</time>
      </trkpt>
      <trkpt lat="45.17142" lon="0.66084">
        <ele>172.4</ele>
        <time>2025-06-15T06:58:25Z</time>
      </trkpt>
      <trkpt lat="45.17145" lon="0.66085">
        <ele>172.6</ele>
        <time>2025-06-15T06:58:26Z</time>
      </trkpt>
      <trkpt lat="45.17147" lon="0.66085">
        <ele>172.8</ele>
        <time>2025-06-15T06:58:27Z</time>
      </trkpt>
      <trkpt lat="45.1715" lon="0.66086">
        <ele>173</ele>
        <time>2025-06-15T06:58:28Z</time>
      </trkpt>
      <trkpt lat="45.17152" lon="0.66087">
        <ele>173.2</ele>
        <time>2025-06-15T06:58:29Z</time>
      </trkpt>
      <trkpt lat="45.17154" lon="0.66088">
        <ele>173.4</ele>
        <time>2025-06-15T06:58:30Z</time>
      </trkpt>
      <trkpt lat="45.17157" lon="0.66089">
        <ele>173.4</ele>
        <time>2025-06-15T06:58:31Z</time>
      </trkpt>
      <trkpt lat="45.17159" lon="0.6609">
        <ele>173.6</ele>
        <time>2025-06-15T06:58:32Z</time>
      </trkpt>
      <trkpt lat="45.17161" lon="0.6609">
        <ele>173.8</ele>
        <time>2025-06-15T06:58:33Z</time>
      </trkpt>
      <trkpt lat="45.17164" lon="0.6609">
        <ele>173.8</ele>
        <time>2025-06-15T06:58:34Z</time>
      </trkpt>
      <trkpt lat="45.17166" lon="0.66091">
        <ele>174</ele>
        <time>2025-06-15T06:58:35Z</time>
      </trkpt>
      <trkpt lat="45.17169" lon="0.66091">
        <ele>174</ele>
        <time>2025-06-15T06:58:36Z</time>
      </trkpt>
      <trkpt lat="45.17172" lon="0.66091">
        <ele>174.2</ele>
        <time>2025-06-15T06:58:37Z</time>
      </trkpt>
      <trkpt lat="45.17174" lon="0.66091">
        <ele>174.2</ele>
        <time>2025-06-15T06:58:38Z</time>
      </trkpt>
      <trkpt lat="45.17177" lon="0.66089">
        <ele>174.4</ele>
        <time>2025-06-15T06:58:39Z</time>
      </trkpt>
      <trkpt lat="45.17179" lon="0.66086">
        <ele>174.6</ele>
        <time>2025-06-15T06:58:40Z</time>
      </trkpt>
      <trkpt lat="45.1718" lon="0.66082">
        <ele>174.6</ele>
        <time>2025-06-15T06:58:41Z</time>
      </trkpt>
      <trkpt lat="45.1718" lon="0.66078">
        <ele>174.8</ele>
        <time>2025-06-15T06:58:42Z</time>
      </trkpt>
      <trkpt lat="45.17181" lon="0.66073">
        <ele>174.8</ele>
        <time>2025-06-15T06:58:43Z</time>
      </trkpt>
      <trkpt lat="45.17181" lon="0.66068">
        <ele>174.8</ele>
        <time>2025-06-15T06:58:44Z</time>
      </trkpt>
      <trkpt lat="45.17181" lon="0.66063">
        <ele>175</ele>
        <time>2025-06-15T06:58:45Z</time>
      </trkpt>
      <trkpt lat="45.17181" lon="0.66058">
        <ele>175</ele>
        <time>2025-06-15T06:58:46Z</time>
      </trkpt>
      <trkpt lat="45.17181" lon="0.66053">
        <ele>175</ele>
        <time>2025-06-15T06:58:47Z</time>
      </trkpt>
      <trkpt lat="45.17181" lon="0.66047">
        <ele>175</ele>
        <time>2025-06-15T06:58:48Z</time>
      </trkpt>
      <trkpt lat="45.1718" lon="0.66042">
        <ele>175</ele>
        <time>2025-06-15T06:58:49Z</time>
      </trkpt>
      <trkpt lat="45.1718" lon="0.66036">
        <ele>175</ele>
        <time>2025-06-15T06:58:50Z</time>
      </trkpt>
      <trkpt lat="45.1718" lon="0.6603">
        <ele>175</ele>
        <time>2025-06-15T06:58:51Z</time>
      </trkpt>
      <trkpt lat="45.1718" lon="0.66024">
        <ele>175.2</ele>
        <time>2025-06-15T06:58:52Z</time>
      </trkpt>
      <trkpt lat="45.1718" lon="0.66018">
        <ele>175</ele>
        <time>2025-06-15T06:58:53Z</time>
      </trkpt>
      <trkpt lat="45.1718" lon="0.66011">
        <ele>175</ele>
        <time>2025-06-15T06:58:54Z</time>
      </trkpt>
      <trkpt lat="45.1718" lon="0.66005">
        <ele>175</ele>
        <time>2025-06-15T06:58:55Z</time>
      </trkpt>
      <trkpt lat="45.1718" lon="0.65999">
        <ele>174.8</ele>
        <time>2025-06-15T06:58:56Z</time>
      </trkpt>
      <trkpt lat="45.1718" lon="0.65992">
        <ele>174.8</ele>
        <time>2025-06-15T06:58:57Z</time>
      </trkpt>
      <trkpt lat="45.1718" lon="0.65985">
        <ele>174.8</ele>
        <time>2025-06-15T06:58:58Z</time>
      </trkpt>
      <trkpt lat="45.1718" lon="0.65979">
        <ele>174.6</ele>
        <time>2025-06-15T06:58:59Z</time>
      </trkpt>
      <trkpt lat="45.1718" lon="0.65972">
        <ele>174.8</ele>
        <time>2025-06-15T06:59:00Z</time>
      </trkpt>
      <trkpt lat="45.17181" lon="0.65966">
        <ele>174.8</ele>
        <time>2025-06-15T06:59:01Z</time>
      </trkpt>
      <trkpt lat="45.17181" lon="0.65959">
        <ele>175</ele>
        <time>2025-06-15T06:59:02Z</time>
      </trkpt>
      <trkpt lat="45.17181" lon="0.65952">
        <ele>175.2</ele>
        <time>2025-06-15T06:59:03Z</time>
      </trkpt>
      <trkpt lat="45.17181" lon="0.65946">
        <ele>175.4</ele>
        <time>2025-06-15T06:59:04Z</time>
      </trkpt>
      <trkpt lat="45.17182" lon="0.6594">
        <ele>175.4</ele>
        <time>2025-06-15T06:59:05Z</time>
      </trkpt>
      <trkpt lat="45.17183" lon="0.65934">
        <ele>175.6</ele>
        <time>2025-06-15T06:59:06Z</time>
      </trkpt>
      <trkpt lat="45.17183" lon="0.65928">
        <ele>175.6</ele>
        <time>2025-06-15T06:59:07Z</time>
      </trkpt>
      <trkpt lat="45.17184" lon="0.65922">
        <ele>175.6</ele>
        <time>2025-06-15T06:59:08Z</time>
      </trkpt>
      <trkpt lat="45.17184" lon="0.65916">
        <ele>175.8</ele>
        <time>2025-06-15T06:59:09Z</time>
      </trkpt>
      <trkpt lat="45.17185" lon="0.65911">
        <ele>176</ele>
        <time>2025-06-15T06:59:10Z</time>
      </trkpt>
      <trkpt lat="45.17185" lon="0.65905">
        <ele>176.2</ele>
        <time>2025-06-15T06:59:11Z</time>
      </trkpt>
      <trkpt lat="45.17186" lon="0.65899">
        <ele>176.4</ele>
        <time>2025-06-15T06:59:12Z</time>
      </trkpt>
      <trkpt lat="45.17186" lon="0.65893">
        <ele>176.8</ele>
        <time>2025-06-15T06:59:13Z</time>
      </trkpt>
      <trkpt lat="45.17187" lon="0.65887">
        <ele>177</ele>
        <time>2025-06-15T06:59:14Z</time>
      </trkpt>
      <trkpt lat="45.17187" lon="0.65881">
        <ele>177.4</ele>
        <time>2025-06-15T06:59:15Z</time>
      </trkpt>
      <trkpt lat="45.17188" lon="0.65875">
        <ele>177.6</ele>
        <time>2025-06-15T06:59:16Z</time>
      </trkpt>
      <trkpt lat="45.17188" lon="0.65869">
        <ele>177.6</ele>
        <time>2025-06-15T06:59:17Z</time>
      </trkpt>
      <trkpt lat="45.17188" lon="0.65863">
        <ele>177.6</ele>
        <time>2025-06-15T06:59:18Z</time>
      </trkpt>
      <trkpt lat="45.17188" lon="0.65856">
        <ele>177.6</ele>
        <time>2025-06-15T06:59:19Z</time>
      </trkpt>
      <trkpt lat="45.17188" lon="0.6585">
        <ele>177.6</ele>
        <time>2025-06-15T06:59:20Z</time>
      </trkpt>
      <trkpt lat="45.17188" lon="0.65843">
        <ele>177.6</ele>
        <time>2025-06-15T06:59:21Z</time>
      </trkpt>
      <trkpt lat="45.17189" lon="0.65837">
        <ele>177.6</ele>
        <time>2025-06-15T06:59:22Z</time>
      </trkpt>
      <trkpt lat="45.17189" lon="0.6583">
        <ele>177.8</ele>
        <time>2025-06-15T06:59:23Z</time>
      </trkpt>
      <trkpt lat="45.1719" lon="0.65824">
        <ele>178</ele>
        <time>2025-06-15T06:59:24Z</time>
      </trkpt>
      <trkpt lat="45.1719" lon="0.65817">
        <ele>178</ele>
        <time>2025-06-15T06:59:25Z</time>
      </trkpt>
      <trkpt lat="45.17191" lon="0.6581">
        <ele>178.2</ele>
        <time>2025-06-15T06:59:26Z</time>
      </trkpt>
      <trkpt lat="45.17191" lon="0.65804">
        <ele>178.4</ele>
        <time>2025-06-15T06:59:27Z</time>
      </trkpt>
      <trkpt lat="45.17192" lon="0.65797">
        <ele>178.4</ele>
        <time>2025-06-15T06:59:28Z</time>
      </trkpt>
      <trkpt lat="45.17193" lon="0.6579">
        <ele>178.4</ele>
        <time>2025-06-15T06:59:29Z</time>
      </trkpt>
      <trkpt lat="45.17193" lon="0.65783">
        <ele>178.6</ele>
        <time>2025-06-15T06:59:30Z</time>
      </trkpt>
      <trkpt lat="45.17194" lon="0.65776">
        <ele>178.6</ele>
        <time>2025-06-15T06:59:31Z</time>
      </trkpt>
      <trkpt lat="45.17194" lon="0.65769">
        <ele>178.6</ele>
        <time>2025-06-15T06:59:32Z</time>
      </trkpt>
      <trkpt lat="45.17195" lon="0.65763">
        <ele>178.4</ele>
        <time>2025-06-15T06:59:33Z</time>
      </trkpt>
      <trkpt lat="45.17196" lon="0.65756">
        <ele>178.4</ele>
        <time>2025-06-15T06:59:34Z</time>
      </trkpt>
      <trkpt lat="45.17197" lon="0.65749">
        <ele>178.4</ele>
        <time>2025-06-15T06:59:35Z</time>
      </trkpt>
      <trkpt lat="45.17198" lon="0.65742">
        <ele>178.6</ele>
        <time>2025-06-15T06:59:36Z</time>
      </trkpt>
      <trkpt lat="45.17199" lon="0.65736">
        <ele>178.6</ele>
        <time>2025-06-15T06:59:37Z</time>
      </trkpt>
      <trkpt lat="45.172" lon="0.6573">
        <ele>178.6</ele>
        <time>2025-06-15T06:59:38Z</time>
      </trkpt>
      <trkpt lat="45.17201" lon="0.65725">
        <ele>178.8</ele>
        <time>2025-06-15T06:59:39Z</time>
      </trkpt>
      <trkpt lat="45.17202" lon="0.6572">
        <ele>178.8</ele>
        <time>2025-06-15T06:59:40Z</time>
      </trkpt>
      <trkpt lat="45.17203" lon="0.65716">
        <ele>179</ele>
        <time>2025-06-15T06:59:41Z</time>
      </trkpt>
      <trkpt lat="45.17203" lon="0.65713">
        <ele>179</ele>
        <time>2025-06-15T06:59:42Z</time>
      </trkpt>
      <trkpt lat="45.17204" lon="0.65712">
        <ele>179</ele>
        <time>2025-06-15T06:59:43Z</time>
      </trkpt>
      <trkpt lat="45.17204" lon="0.65711">
        <ele>179</ele>
        <time>2025-06-15T06:59:44Z</time>
      </trkpt>
      <trkpt lat="45.17205" lon="0.6571">
        <ele>179</ele>
        <time>2025-06-15T06:59:45Z</time>
      </trkpt>
      <trkpt lat="45.17205" lon="0.65709">
        <ele>179</ele>
        <time>2025-06-15T06:59:46Z</time>
      </trkpt>
      <trkpt lat="45.17205" lon="0.65707">
        <ele>179</ele>
        <time>2025-06-15T06:59:47Z</time>
      </trkpt>
      <trkpt lat="45.17205" lon="0.65704">
        <ele>179</ele>
        <time>2025-06-15T06:59:48Z</time>
      </trkpt>
      <trkpt lat="45.17205" lon="0.65701">
        <ele>179</ele>
        <time>2025-06-15T06:59:49Z</time>
      </trkpt>
      <trkpt lat="45.17206" lon="0.65696">
        <ele>179</ele>
        <time>2025-06-15T06:59:50Z</time>
      </trkpt>
      <trkpt lat="45.17207" lon="0.65689">
        <ele>178.8</ele>
        <time>2025-06-15T06:59:51Z</time>
      </trkpt>
      <trkpt lat="45.17207" lon="0.65683">
        <ele>178.8</ele>
        <time>2025-06-15T06:59:52Z</time>
      </trkpt>
      <trkpt lat="45.17208" lon="0.65676">
        <ele>178.8</ele>
        <time>2025-06-15T06:59:53Z</time>
      </trkpt>
      <trkpt lat="45.17209" lon="0.65669">
        <ele>178.6</ele>
        <time>2025-06-15T06:59:54Z</time>
      </trkpt>
      <trkpt lat="45.17209" lon="0.65663">
        <ele>178.6</ele>
        <time>2025-06-15T06:59:55Z</time>
      </trkpt>
      <trkpt lat="45.1721" lon="0.65656">
        <ele>178.6</ele>
        <time>2025-06-15T06:59:56Z</time>
      </trkpt>
      <trkpt lat="45.17212" lon="0.65649">
        <ele>178.4</ele>
        <time>2025-06-15T06:59:57Z</time>
      </trkpt>
      <trkpt lat="45.17215" lon="0.65643">
        <ele>178.2</ele>
        <time>2025-06-15T06:59:58Z</time>
      </trkpt>
      <trkpt lat="45.17218" lon="0.65636">
        <ele>178</ele>
        <time>2025-06-15T06:59:59Z</time>
      </trkpt>
      <trkpt lat="45.1722" lon="0.65628">
        <ele>178</ele>
        <time>2025-06-15T07:00:00Z</time>
      </trkpt>
      <trkpt lat="45.17221" lon="0.65619">
        <ele>178</ele>
        <time>2025-06-15T07:00:01Z</time>
      </trkpt>
      <trkpt lat="45.17222" lon="0.6561">
        <ele>177.8</ele>
        <time>2025-06-15T07:00:02Z</time>
      </trkpt>
      <trkpt lat="45.17223" lon="0.65601">
        <ele>177.8</ele>
        <time>2025-06-15T07:00:03Z</time>
      </trkpt>
      <trkpt lat="45.17225" lon="0.65592">
        <ele>177.8</ele>
        <time>2025-06-15T07:00:04Z</time>
      </trkpt>
      <trkpt lat="45.17225" lon="0.65584">
        <ele>177.8</ele>
        <time>2025-06-15T07:00:05Z</time>
      </trkpt>
      <trkpt lat="45.17226" lon="0.65576">
        <ele>177.6</ele>
        <time>2025-06-15T07:00:06Z</time>
      </trkpt>
      <trkpt lat="45.17226" lon="0.65568">
        <ele>177.6</ele>
        <time>2025-06-15T07:00:07Z</time>
      </trkpt>
      <trkpt lat="45.17227" lon="0.65559">
        <ele>177.6</ele>
        <time>2025-06-15T07:00:08Z</time>
      </trkpt>
      <trkpt lat="45.17228" lon="0.65551">
        <ele>177.6</ele>
        <time>2025-06-15T07:00:09Z</time>
      </trkpt>
      <trkpt lat="45.17228" lon="0.65544">
        <ele>177.6</ele>
        <time>2025-06-15T07:00:10Z</time>
      </trkpt>
      <trkpt lat="45.17226" lon="0.65538">
        <ele>177.8</ele>
        <time>2025-06-15T07:00:11Z</time>
      </trkpt>
      <trkpt lat="45.17225" lon="0.65532">
        <ele>177.8</ele>
        <time>2025-06-15T07:00:12Z</time>
      </trkpt>
      <trkpt lat="45.17224" lon="0.65526">
        <ele>177.8</ele>
        <time>2025-06-15T07:00:13Z</time>
      </trkpt>
      <trkpt lat="45.17223" lon="0.65521">
        <ele>177.8</ele>
        <time>2025-06-15T07:00:14Z</time>
      </trkpt>
      <trkpt lat="45.17222" lon="0.65514">
        <ele>177.8</ele>
        <time>2025-06-15T07:00:15Z</time>
      </trkpt>
      <trkpt lat="45.17221" lon="0.65506">
        <ele>177.6</ele>
        <time>2025-06-15T07:00:16Z</time>
      </trkpt>
      <trkpt lat="45.1722" lon="0.65499">
        <ele>177.6</ele>
        <time>2025-06-15T07:00:17Z</time>
      </trkpt>
      <trkpt lat="45.17221" lon="0.65491">
        <ele>177.4</ele>
        <time>2025-06-15T07:00:18Z</time>
      </trkpt>
      <trkpt lat="45.17223" lon="0.65484">
        <ele>177.2</ele>
        <time>2025-06-15T07:00:19Z</time>
      </trkpt>
      <trkpt lat="45.17226" lon="0.65477">
        <ele>176.8</ele>
        <time>2025-06-15T07:00:20Z</time>
      </trkpt>
      <trkpt lat="45.1723" lon="0.65469">
        <ele>176.4</ele>
        <time>2025-06-15T07:00:21Z</time>
      </trkpt>
      <trkpt lat="45.17235" lon="0.65461">
        <ele>176</ele>
        <time>2025-06-15T07:00:22Z</time>
      </trkpt>
      <trkpt lat="45.17239" lon="0.65453">
        <ele>175.6</ele>
        <time>2025-06-15T07:00:23Z</time>
      </trkpt>
      <trkpt lat="45.17244" lon="0.65444">
        <ele>175</ele>
        <time>2025-06-15T07:00:24Z</time>
      </trkpt>
      <trkpt lat="45.17249" lon="0.65434">
        <ele>174.4</ele>
        <time>2025-06-15T07:00:25Z</time>
      </trkpt>
      <trkpt lat="45.17254" lon="0.65425">
        <ele>173.8</ele>
        <time>2025-06-15T07:00:26Z</time>
      </trkpt>
      <trkpt lat="45.17259" lon="0.65417">
        <ele>173.2</ele>
        <time>2025-06-15T07:00:27Z</time>
      </trkpt>
      <trkpt lat="45.17265" lon="0.65409">
        <ele>172.6</ele>
        <time>2025-06-15T07:00:28Z</time>
      </trkpt>
      <trkpt lat="45.17271" lon="0.65402">
        <ele>172</ele>
        <time>2025-06-15T07:00:29Z</time>
      </trkpt>
      <trkpt lat="45.17278" lon="0.65395">
        <ele>171.4</ele>
        <time>2025-06-15T07:00:30Z</time>
      </trkpt>
      <trkpt lat="45.17283" lon="0.65388">
        <ele>170.8</ele>
        <time>2025-06-15T07:00:31Z</time>
      </trkpt>
      <trkpt lat="45.17287" lon="0.6538">
        <ele>170.4</ele>
        <time>2025-06-15T07:00:32Z</time>
      </trkpt>
      <trkpt lat="45.17291" lon="0.6537">
        <ele>170</ele>
        <time>2025-06-15T07:00:33Z</time>
      </trkpt>
      <trkpt lat="45.17293" lon="0.65361">
        <ele>169.8</ele>
        <time>2025-06-15T07:00:34Z</time>
      </trkpt>
      <trkpt lat="45.17294" lon="0.65352">
        <ele>169.8</ele>
        <time>2025-06-15T07:00:35Z</time>
      </trkpt>
      <trkpt lat="45.17297" lon="0.65343">
        <ele>169.8</ele>
        <time>2025-06-15T07:00:36Z</time>
      </trkpt>
      <trkpt lat="45.173" lon="0.65334">
        <ele>169.8</ele>
        <time>2025-06-15T07:00:37Z</time>
      </trkpt>
      <trkpt lat="45.17304" lon="0.65327">
        <ele>170</ele>
        <time>2025-06-15T07:00:38Z</time>
      </trkpt>
      <trkpt lat="45.17308" lon="0.6532">
        <ele>170.2</ele>
        <time>2025-06-15T07:00:39Z</time>
      </trkpt>
      <trkpt lat="45.17314" lon="0.65314">
        <ele>170.4</ele>
        <time>2025-06-15T07:00:40Z</time>
      </trkpt>
      <trkpt lat="45.17319" lon="0.65308">
        <ele>170.6</ele>
        <time>2025-06-15T07:00:41Z</time>
      </trkpt>
      <trkpt lat="45.17324" lon="0.65303">
        <ele>170.8</ele>
        <time>2025-06-15T07:00:42Z</time>
      </trkpt>
      <trkpt lat="45.17329" lon="0.65297">
        <ele>171</ele>
        <time>2025-06-15T07:00:43Z</time>
      </trkpt>
      <trkpt lat="45.17334" lon="0.65291">
        <ele>171.4</ele>
        <time>2025-06-15T07:00:44Z</time>
      </trkpt>
      <trkpt lat="45.17338" lon="0.65285">
        <ele>171.8</ele>
        <time>2025-06-15T07:00:45Z</time>
      </trkpt>
      <trkpt lat="45.17342" lon="0.65279">
        <ele>172.2</ele>
        <time>2025-06-15T07:00:46Z</time>
      </trkpt>
      <trkpt lat="45.17347" lon="0.65273">
        <ele>172.4</ele>
        <time>2025-06-15T07:00:47Z</time>
      </trkpt>
      <trkpt lat="45.17351" lon="0.65267">
        <ele>172.8</ele>
        <time>2025-06-15T07:00:48Z</time>
      </trkpt>
      <trkpt lat="45.17354" lon="0.65261">
        <ele>173</ele>
        <time>2025-06-15T07:00:49Z</time>
      </trkpt>
      <trkpt lat="45.17357" lon="0.65256">
        <ele>173.4</ele>
        <time>2025-06-15T07:00:50Z</time>
      </trkpt>
      <trkpt lat="45.17359" lon="0.6525">
        <ele>173.6</ele>
        <time>2025-06-15T07:00:51Z</time>
      </trkpt>
      <trkpt lat="45.17359" lon="0.65243">
        <ele>173.8</ele>
        <time>2025-06-15T07:00:52Z</time>
      </trkpt>
      <trkpt lat="45.17358" lon="0.65236">
        <ele>174</ele>
        <time>2025-06-15T07:00:53Z</time>
      </trkpt>
      <trkpt lat="45.17357" lon="0.65231">
        <ele>174.4</ele>
        <time>2025-06-15T07:00:54Z</time>
      </trkpt>
      <trkpt lat="45.17355" lon="0.65226">
        <ele>174.6</ele>
        <time>2025-06-15T07:00:55Z</time>
      </trkpt>
      <trkpt lat="45.17353" lon="0.65221">
        <ele>175</ele>
        <time>2025-06-15T07:00:56Z</time>
      </trkpt>
      <trkpt lat="45.17352" lon="0.65216">
        <ele>175.4</ele>
        <time>2025-06-15T07:00:57Z</time>
      </trkpt>
      <trkpt lat="45.1735" lon="0.65212">
        <ele>175.6</ele>
        <time>2025-06-15T07:00:58Z</time>
      </trkpt>
      <trkpt lat="45.17349" lon="0.65208">
        <ele>176</ele>
        <time>2025-06-15T07:00:59Z</time>
      </trkpt>
      <trkpt lat="45.17347" lon="0.65205">
        <ele>176.4</ele>
        <time>2025-06-15T07:01:00Z</time>
      </trkpt>
      <trkpt lat="45.17346" lon="0.65201">
        <ele>176.8</ele>
        <time>2025-06-15T07:01:01Z</time>
      </trkpt>
      <trkpt lat="45.17345" lon="0.65197">
        <ele>177.2</ele>
        <time>2025-06-15T07:01:02Z</time>
      </trkpt>
      <trkpt lat="45.17344" lon="0.65194">
        <ele>177.4</ele>
        <time>2025-06-15T07:01:03Z</time>
      </trkpt>
      <trkpt lat="45.17343" lon="0.6519">
        <ele>177.6</ele>
        <time>2025-06-15T07:01:04Z</time>
      </trkpt>
      <trkpt lat="45.17341" lon="0.65187">
        <ele>178</ele>
        <time>2025-06-15T07:01:05Z</time>
      </trkpt>
      <trkpt lat="45.1734" lon="0.65183">
        <ele>178.2</ele>
        <time>2025-06-15T07:01:06Z</time>
      </trkpt>
      <trkpt lat="45.17339" lon="0.6518">
        <ele>178.4</ele>
        <time>2025-06-15T07:01:07Z</time>
      </trkpt>
      <trkpt lat="45.17338" lon="0.65176">
        <ele>178.8</ele>
        <time>2025-06-15T07:01:08Z</time>
      </trkpt>
      <trkpt lat="45.17336" lon="0.65172">
        <ele>179</ele>
        <time>2025-06-15T07:01:09Z</time>
      </trkpt>
      <trkpt lat="45.17335" lon="0.65169">
        <ele>179.2</ele>
        <time>2025-06-15T07:01:10Z</time>
      </trkpt>
      <trkpt lat="45.17334" lon="0.65165">
        <ele>179.6</ele>
        <time>2025-06-15T07:01:11Z</time>
      </trkpt>
      <trkpt lat="45.17333" lon="0.65162">
        <ele>180</ele>
        <time>2025-06-15T07:01:12Z</time>
      </trkpt>
      <trkpt lat="45.17331" lon="0.65158">
        <ele>180.4</ele>
        <time>2025-06-15T07:01:13Z</time>
      </trkpt>
      <trkpt lat="45.1733" lon="0.65156">
        <ele>180.8</ele>
        <time>2025-06-15T07:01:14Z</time>
      </trkpt>
      <trkpt lat="45.17328" lon="0.65153">
        <ele>181.2</ele>
        <time>2025-06-15T07:01:15Z</time>
      </trkpt>
      <trkpt lat="45.17327" lon="0.6515">
        <ele>181.4</ele>
        <time>2025-06-15T07:01:16Z</time>
      </trkpt>
      <trkpt lat="45.17326" lon="0.65146">
        <ele>181.4</ele>
        <time>2025-06-15T07:01:17Z</time>
      </trkpt>
      <trkpt lat="45.17325" lon="0.65143">
        <ele>181.4</ele>
        <time>2025-06-15T07:01:18Z</time>
      </trkpt>
      <trkpt lat="45.17323" lon="0.65138">
        <ele>181.4</ele>
        <time>2025-06-15T07:01:19Z</time>
      </trkpt>
      <trkpt lat="45.17322" lon="0.65134">
        <ele>181.6</ele>
        <time>2025-06-15T07:01:20Z</time>
      </trkpt>
      <trkpt lat="45.17321" lon="0.65131">
        <ele>182</ele>
        <time>2025-06-15T07:01:21Z</time>
      </trkpt>
      <trkpt lat="45.1732" lon="0.65129">
        <ele>182.2</ele>
        <time>2025-06-15T07:01:22Z</time>
      </trkpt>
      <trkpt lat="45.17319" lon="0.65126">
        <ele>182.6</ele>
        <time>2025-06-15T07:01:23Z</time>
      </trkpt>
      <trkpt lat="45.17317" lon="0.65122">
        <ele>183</ele>
        <time>2025-06-15T07:01:24Z</time>
      </trkpt>
      <trkpt lat="45.17316" lon="0.65119">
        <ele>183.2</ele>
        <time>2025-06-15T07:01:25Z</time>
      </trkpt>
      <trkpt lat="45.17315" lon="0.65116">
        <ele>183.6</ele>
        <time>2025-06-15T07:01:26Z</time>
      </trkpt>
      <trkpt lat="45.17314" lon="0.65113">
        <ele>183.8</ele>
        <time>2025-06-15T07:01:27Z</time>
      </trkpt>
      <trkpt lat="45.17313" lon="0.6511">
        <ele>184</ele>
        <time>2025-06-15T07:01:28Z</time>
      </trkpt>
      <trkpt lat="45.17312" lon="0.65106">
        <ele>184.4</ele>
        <time>2025-06-15T07:01:29Z</time>
      </trkpt>
      <trkpt lat="45.1731" lon="0.65103">
        <ele>184.6</ele>
        <time>2025-06-15T07:01:30Z</time>
      </trkpt>
      <trkpt lat="45.17309" lon="0.651">
        <ele>184.8</ele>
        <time>2025-06-15T07:01:31Z</time>
      </trkpt>
      <trkpt lat="45.17308" lon="0.65097">
        <ele>185</ele>
        <time>2025-06-15T07:01:32Z</time>
      </trkpt>
      <trkpt lat="45.17307" lon="0.65093">
        <ele>185.2</ele>
        <time>2025-06-15T07:01:33Z</time>
      </trkpt>
      <trkpt lat="45.17306" lon="0.6509">
        <ele>185.4</ele>
        <time>2025-06-15T07:01:34Z</time>
      </trkpt>
      <trkpt lat="45.17305" lon="0.65087">
        <ele>185.6</ele>
        <time>2025-06-15T07:01:35Z</time>
      </trkpt>
      <trkpt lat="45.17304" lon="0.65084">
        <ele>185.8</ele>
        <time>2025-06-15T07:01:36Z</time>
      </trkpt>
      <trkpt lat="45.17303" lon="0.65081">
        <ele>186.2</ele>
        <time>2025-06-15T07:01:37Z</time>
      </trkpt>
      <trkpt lat="45.17303" lon="0.65078">
        <ele>186.4</ele>
        <time>2025-06-15T07:01:38Z</time>
      </trkpt>
      <trkpt lat="45.17302" lon="0.65074">
        <ele>186.6</ele>
        <time>2025-06-15T07:01:39Z</time>
      </trkpt>
      <trkpt lat="45.17302" lon="0.65071">
        <ele>186.8</ele>
        <time>2025-06-15T07:01:40Z</time>
      </trkpt>
      <trkpt lat="45.17303" lon="0.65067">
        <ele>186.8</ele>
        <time>2025-06-15T07:01:41Z</time>
      </trkpt>
      <trkpt lat="45.17303" lon="0.65063">
        <ele>187</ele>
        <time>2025-06-15T07:01:42Z</time>
      </trkpt>
      <trkpt lat="45.17304" lon="0.6506">
        <ele>187.2</ele>
        <time>2025-06-15T07:01:43Z</time>
      </trkpt>
      <trkpt lat="45.17306" lon="0.65057">
        <ele>187.4</ele>
        <time>2025-06-15T07:01:44Z</time>
      </trkpt>
      <trkpt lat="45.17307" lon="0.65053">
        <ele>187.4</ele>
        <time>2025-06-15T07:01:45Z</time>
      </trkpt>
      <trkpt lat="45.17309" lon="0.65049">
        <ele>187.6</ele>
        <time>2025-06-15T07:01:46Z</time>
      </trkpt>
      <trkpt lat="45.17311" lon="0.65046">
        <ele>187.6</ele>
        <time>2025-06-15T07:01:47Z</time>
      </trkpt>
      <trkpt lat="45.17314" lon="0.65042">
        <ele>187.8</ele>
        <time>2025-06-15T07:01:48Z</time>
      </trkpt>
      <trkpt lat="45.17316" lon="0.65038">
        <ele>187.8</ele>
        <time>2025-06-15T07:01:49Z</time>
      </trkpt>
      <trkpt lat="45.17318" lon="0.65034">
        <ele>187.8</ele>
        <time>2025-06-15T07:01:50Z</time>
      </trkpt>
      <trkpt lat="45.1732" lon="0.6503">
        <ele>187.8</ele>
        <time>2025-06-15T07:01:51Z</time>
      </trkpt>
      <trkpt lat="45.17323" lon="0.65025">
        <ele>187.8</ele>
        <time>2025-06-15T07:01:52Z</time>
      </trkpt>
      <trkpt lat="45.17326" lon="0.65021">
        <ele>187.8</ele>
        <time>2025-06-15T07:01:53Z</time>
      </trkpt>
      <trkpt lat="45.17328" lon="0.65017">
        <ele>187.6</ele>
        <time>2025-06-15T07:01:54Z</time>
      </trkpt>
      <trkpt lat="45.17331" lon="0.65012">
        <ele>187.6</ele>
        <time>2025-06-15T07:01:55Z</time>
      </trkpt>
      <trkpt lat="45.17333" lon="0.65009">
        <ele>187.4</ele>
        <time>2025-06-15T07:01:56Z</time>
      </trkpt>
      <trkpt lat="45.17336" lon="0.65005">
        <ele>187.4</ele>
        <time>2025-06-15T07:01:57Z</time>
      </trkpt>
      <trkpt lat="45.17339" lon="0.65002">
        <ele>187.2</ele>
        <time>2025-06-15T07:01:58Z</time>
      </trkpt>
      <trkpt lat="45.17342" lon="0.64998">
        <ele>187.2</ele>
        <time>2025-06-15T07:01:59Z</time>
      </trkpt>
      <trkpt lat="45.17345" lon="0.64995">
        <ele>187.2</ele>
        <time>2025-06-15T07:02:00Z</time>
      </trkpt>
      <trkpt lat="45.17348" lon="0.64991">
        <ele>187</ele>
        <time>2025-06-15T07:02:01Z</time>
      </trkpt>
      <trkpt lat="45.17352" lon="0.64987">
        <ele>186.8</ele>
        <time>2025-06-15T07:02:02Z</time>
      </trkpt>
      <trkpt lat="45.17357" lon="0.64983">
        <ele>186.6</ele>
        <time>2025-06-15T07:02:03Z</time>
      </trkpt>
      <trkpt lat="45.17362" lon="0.64979">
        <ele>186.4</ele>
        <time>2025-06-15T07:02:04Z</time>
      </trkpt>
      <trkpt lat="45.17366" lon="0.64974">
        <ele>186.2</ele>
        <time>2025-06-15T07:02:05Z</time>
      </trkpt>
      <trkpt lat="45.17372" lon="0.6497">
        <ele>186</ele>
        <time>2025-06-15T07:02:06Z</time>
      </trkpt>
      <trkpt lat="45.17377" lon="0.64965">
        <ele>185.6</ele>
        <time>2025-06-15T07:02:07Z</time>
      </trkpt>
      <trkpt lat="45.17381" lon="0.6496">
        <ele>185.4</ele>
        <time>2025-06-15T07:02:08Z</time>
      </trkpt>
      <trkpt lat="45.17386" lon="0.64954">
        <ele>185.2</ele>
        <time>2025-06-15T07:02:09Z</time>
      </trkpt>
      <trkpt lat="45.17391" lon="0.64948">
        <ele>185.2</ele>
        <time>2025-06-15T07:02:10Z</time>
      </trkpt>
      <trkpt lat="45.17395" lon="0.64942">
        <ele>185</ele>
        <time>2025-06-15T07:02:11Z</time>
      </trkpt>
      <trkpt lat="45.17399" lon="0.64935">
        <ele>185</ele>
        <time>2025-06-15T07:02:12Z</time>
      </trkpt>
      <trkpt lat="45.17401" lon="0.64927">
        <ele>184.8</ele>
        <time>2025-06-15T07:02:13Z</time>
      </trkpt>
      <trkpt lat="45.17403" lon="0.6492">
        <ele>184.8</ele>
        <time>2025-06-15T07:02:14Z</time>
      </trkpt>
      <trkpt lat="45.17405" lon="0.64912">
        <ele>184.8</ele>
        <time>2025-06-15T07:02:15Z</time>
      </trkpt>
      <trkpt lat="45.17405" lon="0.64905">
        <ele>184.8</ele>
        <time>2025-06-15T07:02:16Z</time>
      </trkpt>
      <trkpt lat="45.17405" lon="0.64898">
        <ele>185</ele>
        <time>2025-06-15T07:02:17Z</time>
      </trkpt>
      <trkpt lat="45.17404" lon="0.64892">
        <ele>185</ele>
        <time>2025-06-15T07:02:18Z</time>
      </trkpt>
      <trkpt lat="45.17404" lon="0.64885">
        <ele>185.2</ele>
        <time>2025-06-15T07:02:19Z</time>
      </trkpt>
      <trkpt lat="45.17403" lon="0.64877">
        <ele>185.4</ele>
        <time>2025-06-15T07:02:20Z</time>
      </trkpt>
      <trkpt lat="45.17403" lon="0.64869">
        <ele>185.4</ele>
        <time>2025-06-15T07:02:21Z</time>
      </trkpt>
      <trkpt lat="45.17403" lon="0.64861">
        <ele>185.6</ele>
        <time>2025-06-15T07:02:22Z</time>
      </trkpt>
      <trkpt lat="45.17403" lon="0.64852">
        <ele>185.6</ele>
        <time>2025-06-15T07:02:23Z</time>
      </trkpt>
      <trkpt lat="45.17403" lon="0.64844">
        <ele>185.8</ele>
        <time>2025-06-15T07:02:24Z</time>
      </trkpt>
      <trkpt lat="45.17403" lon="0.64836">
        <ele>185.8</ele>
        <time>2025-06-15T07:02:25Z</time>
      </trkpt>
      <trkpt lat="45.17403" lon="0.64827">
        <ele>185.8</ele>
        <time>2025-06-15T07:02:26Z</time>
      </trkpt>
      <trkpt lat="45.17405" lon="0.64819">
        <ele>185.8</ele>
        <time>2025-06-15T07:02:27Z</time>
      </trkpt>
      <trkpt lat="45.17406" lon="0.64811">
        <ele>185.8</ele>
        <time>2025-06-15T07:02:28Z</time>
      </trkpt>
      <trkpt lat="45.17407" lon="0.64802">
        <ele>185.6</ele>
        <time>2025-06-15T07:02:29Z</time>
      </trkpt>
      <trkpt lat="45.17408" lon="0.64794">
        <ele>185.4</ele>
        <time>2025-06-15T07:02:30Z</time>
      </trkpt>
      <trkpt lat="45.17408" lon="0.64784">
        <ele>185</ele>
        <time>2025-06-15T07:02:31Z</time>
      </trkpt>
      <trkpt lat="45.17407" lon="0.64775">
        <ele>185</ele>
        <time>2025-06-15T07:02:32Z</time>
      </trkpt>
      <trkpt lat="45.17405" lon="0.64765">
        <ele>184.6</ele>
        <time>2025-06-15T07:02:33Z</time>
      </trkpt>
      <trkpt lat="45.17404" lon="0.64757">
        <ele>184.4</ele>
        <time>2025-06-15T07:02:34Z</time>
      </trkpt>
      <trkpt lat="45.17402" lon="0.64748">
        <ele>184.2</ele>
        <time>2025-06-15T07:02:35Z</time>
      </trkpt>
      <trkpt lat="45.17401" lon="0.6474">
        <ele>184.2</ele>
        <time>2025-06-15T07:02:36Z</time>
      </trkpt>
      <trkpt lat="45.17399" lon="0.64731">
        <ele>183.6</ele>
        <time>2025-06-15T07:02:37Z</time>
      </trkpt>
      <trkpt lat="45.17397" lon="0.64722">
        <ele>183.4</ele>
        <time>2025-06-15T07:02:38Z</time>
      </trkpt>
      <trkpt lat="45.17395" lon="0.64716">
        <ele>183</ele>
        <time>2025-06-15T07:02:39Z</time>
      </trkpt>
      <trkpt lat="45.17392" lon="0.64713">
        <ele>182.6</ele>
        <time>2025-06-15T07:02:40Z</time>
      </trkpt>
      <trkpt lat="45.17388" lon="0.64712">
        <ele>182.4</ele>
        <time>2025-06-15T07:02:41Z</time>
      </trkpt>
      <trkpt lat="45.17384" lon="0.64709">
        <ele>182.2</ele>
        <time>2025-06-15T07:02:42Z</time>
      </trkpt>
      <trkpt lat="45.1738" lon="0.64706">
        <ele>182.2</ele>
        <time>2025-06-15T07:02:43Z</time>
      </trkpt>
      <trkpt lat="45.17377" lon="0.64701">
        <ele>182.2</ele>
        <time>2025-06-15T07:02:44Z</time>
      </trkpt>
      <trkpt lat="45.17373" lon="0.64699">
        <ele>182</ele>
        <time>2025-06-15T07:02:45Z</time>
      </trkpt>
      <trkpt lat="45.17368" lon="0.64697">
        <ele>181.8</ele>
        <time>2025-06-15T07:02:46Z</time>
      </trkpt>
      <trkpt lat="45.17363" lon="0.64698">
        <ele>181.6</ele>
        <time>2025-06-15T07:02:47Z</time>
      </trkpt>
      <trkpt lat="45.17357" lon="0.64698">
        <ele>181.2</ele>
        <time>2025-06-15T07:02:48Z</time>
      </trkpt>
      <trkpt lat="45.17352" lon="0.64697">
        <ele>181.2</ele>
        <time>2025-06-15T07:02:49Z</time>
      </trkpt>
      <trkpt lat="45.17346" lon="0.64696">
        <ele>181.2</ele>
        <time>2025-06-15T07:02:50Z</time>
      </trkpt>
      <trkpt lat="45.17341" lon="0.64696">
        <ele>181.2</ele>
        <time>2025-06-15T07:02:51Z</time>
      </trkpt>
      <trkpt lat="45.17336" lon="0.64699">
        <ele>181.2</ele>
        <time>2025-06-15T07:02:52Z</time>
      </trkpt>
      <trkpt lat="45.1733" lon="0.64697">
        <ele>181.2</ele>
        <time>2025-06-15T07:02:53Z</time>
      </trkpt>
      <trkpt lat="45.17325" lon="0.64694">
        <ele>181.2</ele>
        <time>2025-06-15T07:02:54Z</time>
      </trkpt>
      <trkpt lat="45.1732" lon="0.6469">
        <ele>181.2</ele>
        <time>2025-06-15T07:02:55Z</time>
      </trkpt>
      <trkpt lat="45.17316" lon="0.64684">
        <ele>181.2</ele>
        <time>2025-06-15T07:02:56Z</time>
      </trkpt>
      <trkpt lat="45.17311" lon="0.64676">
        <ele>181</ele>
        <time>2025-06-15T07:02:57Z</time>
      </trkpt>
      <trkpt lat="45.17307" lon="0.64667">
        <ele>180.6</ele>
        <time>2025-06-15T07:02:58Z</time>
      </trkpt>
      <trkpt lat="45.17304" lon="0.64658">
        <ele>180.2</ele>
        <time>2025-06-15T07:02:59Z</time>
      </trkpt>
      <trkpt lat="45.17299" lon="0.64649">
        <ele>179.8</ele>
        <time>2025-06-15T07:03:00Z</time>
      </trkpt>
      <trkpt lat="45.17295" lon="0.64641">
        <ele>179.4</ele>
        <time>2025-06-15T07:03:01Z</time>
      </trkpt>
      <trkpt lat="45.1729" lon="0.64633">
        <ele>179.2</ele>
        <time>2025-06-15T07:03:02Z</time>
      </trkpt>
      <trkpt lat="45.17284" lon="0.64625">
        <ele>179</ele>
        <time>2025-06-15T07:03:03Z</time>
      </trkpt>
      <trkpt lat="45.17277" lon="0.64618">
        <ele>178.8</ele>
        <time>2025-06-15T07:03:04Z</time>
      </trkpt>
      <trkpt lat="45.17271" lon="0.64611">
        <ele>178.6</ele>
        <time>2025-06-15T07:03:05Z</time>
      </trkpt>
      <trkpt lat="45.17266" lon="0.64602">
        <ele>178.2</ele>
        <time>2025-06-15T07:03:06Z</time>
      </trkpt>
      <trkpt lat="45.17263" lon="0.64591">
        <ele>178</ele>
        <time>2025-06-15T07:03:07Z</time>
      </trkpt>
      <trkpt lat="45.17261" lon="0.6458">
        <ele>177.6</ele>
        <time>2025-06-15T07:03:08Z</time>
      </trkpt>
      <trkpt lat="45.17261" lon="0.64571">
        <ele>177.2</ele>
        <time>2025-06-15T07:03:09Z</time>
      </trkpt>
      <trkpt lat="45.17264" lon="0.64563">
        <ele>176.8</ele>
        <time>2025-06-15T07:03:10Z</time>
      </trkpt>
      <trkpt lat="45.17265" lon="0.64554">
        <ele>176.4</ele>
        <time>2025-06-15T07:03:11Z</time>
      </trkpt>
      <trkpt lat="45.17268" lon="0.64545">
        <ele>175.8</ele>
        <time>2025-06-15T07:03:12Z</time>
      </trkpt>
      <trkpt lat="45.17272" lon="0.64536">
        <ele>175</ele>
        <time>2025-06-15T07:03:13Z</time>
      </trkpt>
      <trkpt lat="45.17277" lon="0.64527">
        <ele>174.4</ele>
        <time>2025-06-15T07:03:14Z</time>
      </trkpt>
      <trkpt lat="45.17283" lon="0.64519">
        <ele>173.6</ele>
        <time>2025-06-15T07:03:15Z</time>
      </trkpt>
      <trkpt lat="45.17289" lon="0.64511">
        <ele>172.8</ele>
        <time>2025-06-15T07:03:16Z</time>
      </trkpt>
      <trkpt lat="45.17294" lon="0.64501">
        <ele>172.2</ele>
        <time>2025-06-15T07:03:17Z</time>
      </trkpt>
      <trkpt lat="45.17299" lon="0.6449">
        <ele>171.6</ele>
        <time>2025-06-15T07:03:18Z</time>
      </trkpt>
      <trkpt lat="45.17304" lon="0.64482">
        <ele>170.8</ele>
        <time>2025-06-15T07:03:19Z</time>
      </trkpt>
      <trkpt lat="45.17307" lon="0.64471">
        <ele>170</ele>
        <time>2025-06-15T07:03:20Z</time>
      </trkpt>
      <trkpt lat="45.17307" lon="0.6446">
        <ele>169.6</ele>
        <time>2025-06-15T07:03:21Z</time>
      </trkpt>
      <trkpt lat="45.17307" lon="0.64449">
        <ele>169.2</ele>
        <time>2025-06-15T07:03:22Z</time>
      </trkpt>
      <trkpt lat="45.17309" lon="0.64437">
        <ele>168.6</ele>
        <time>2025-06-15T07:03:23Z</time>
      </trkpt>
      <trkpt lat="45.1731" lon="0.64424">
        <ele>167.8</ele>
        <time>2025-06-15T07:03:24Z</time>
      </trkpt>
      <trkpt lat="45.17311" lon="0.64411">
        <ele>166.8</ele>
        <time>2025-06-15T07:03:25Z</time>
      </trkpt>
      <trkpt lat="45.17312" lon="0.64404">
        <ele>165.8</ele>
        <time>2025-06-15T07:03:26Z</time>
      </trkpt>
      <trkpt lat="45.17312" lon="0.64399">
        <ele>165</ele>
        <time>2025-06-15T07:03:27Z</time>
      </trkpt>
      <trkpt lat="45.1731" lon="0.64397">
        <ele>164.8</ele>
        <time>2025-06-15T07:03:28Z</time>
      </trkpt>
      <trkpt lat="45.17307" lon="0.64397">
        <ele>164.4</ele>
        <time>2025-06-15T07:03:29Z</time>
      </trkpt>
      <trkpt lat="45.17304" lon="0.64397">
        <ele>164.2</ele>
        <time>2025-06-15T07:03:30Z</time>
      </trkpt>
      <trkpt lat="45.173" lon="0.64398">
        <ele>164</ele>
        <time>2025-06-15T07:03:31Z</time>
      </trkpt>
      <trkpt lat="45.17295" lon="0.64397">
        <ele>163.8</ele>
        <time>2025-06-15T07:03:32Z</time>
      </trkpt>
      <trkpt lat="45.17291" lon="0.64393">
        <ele>163.2</ele>
        <time>2025-06-15T07:03:33Z</time>
      </trkpt>
      <trkpt lat="45.17287" lon="0.64388">
        <ele>163</ele>
        <time>2025-06-15T07:03:34Z</time>
      </trkpt>
      <trkpt lat="45.17283" lon="0.64382">
        <ele>162.6</ele>
        <time>2025-06-15T07:03:35Z</time>
      </trkpt>
      <trkpt lat="45.17279" lon="0.64375">
        <ele>162.2</ele>
        <time>2025-06-15T07:03:36Z</time>
      </trkpt>
      <trkpt lat="45.17275" lon="0.64366">
        <ele>161.6</ele>
        <time>2025-06-15T07:03:37Z</time>
      </trkpt>
      <trkpt lat="45.17272" lon="0.64357">
        <ele>161</ele>
        <time>2025-06-15T07:03:38Z</time>
      </trkpt>
      <trkpt lat="45.17269" lon="0.64347">
        <ele>160</ele>
        <time>2025-06-15T07:03:39Z</time>
      </trkpt>
      <trkpt lat="45.17266" lon="0.64337">
        <ele>159</ele>
        <time>2025-06-15T07:03:40Z</time>
      </trkpt>
      <trkpt lat="45.17262" lon="0.64329">
        <ele>158.4</ele>
        <time>2025-06-15T07:03:41Z</time>
      </trkpt>
      <trkpt lat="45.17257" lon="0.64322">
        <ele>157.6</ele>
        <time>2025-06-15T07:03:42Z</time>
      </trkpt>
      <trkpt lat="45.17251" lon="0.64316">
        <ele>156.6</ele>
        <time>2025-06-15T07:03:43Z</time>
      </trkpt>
      <trkpt lat="45.17245" lon="0.64311">
        <ele>155.4</ele>
        <time>2025-06-15T07:03:44Z</time>
      </trkpt>
      <trkpt lat="45.17239" lon="0.64305">
        <ele>154.6</ele>
        <time>2025-06-15T07:03:45Z</time>
      </trkpt>
      <trkpt lat="45.17234" lon="0.64298">
        <ele>153.6</ele>
        <time>2025-06-15T07:03:46Z</time>
      </trkpt>
      <trkpt lat="45.17229" lon="0.64292">
        <ele>153.2</ele>
        <time>2025-06-15T07:03:47Z</time>
      </trkpt>
      <trkpt lat="45.17223" lon="0.64285">
        <ele>152.6</ele>
        <time>2025-06-15T07:03:48Z</time>
      </trkpt>
      <trkpt lat="45.17216" lon="0.64278">
        <ele>152</ele>
        <time>2025-06-15T07:03:49Z</time>
      </trkpt>
      <trkpt lat="45.17211" lon="0.64271">
        <ele>151.4</ele>
        <time>2025-06-15T07:03:50Z</time>
      </trkpt>
      <trkpt lat="45.17205" lon="0.64264">
        <ele>150.6</ele>
        <time>2025-06-15T07:03:51Z</time>
      </trkpt>
      <trkpt lat="45.17198" lon="0.64256">
        <ele>150</ele>
        <time>2025-06-15T07:03:52Z</time>
      </trkpt>
      <trkpt lat="45.17192" lon="0.64248">
        <ele>149</ele>
        <time>2025-06-15T07:03:53Z</time>
      </trkpt>
      <trkpt lat="45.17186" lon="0.6424">
        <ele>148.2</ele>
        <time>2025-06-15T07:03:54Z</time>
      </trkpt>
      <trkpt lat="45.1718" lon="0.64232">
        <ele>147.2</ele>
        <time>2025-06-15T07:03:55Z</time>
      </trkpt>
      <trkpt lat="45.17174" lon="0.64224">
        <ele>146.2</ele>
        <time>2025-06-15T07:03:56Z</time>
      </trkpt>
      <trkpt lat="45.17169" lon="0.64218">
        <ele>145.6</ele>
        <time>2025-06-15T07:03:57Z</time>
      </trkpt>
      <trkpt lat="45.17163" lon="0.6421">
        <ele>145.2</ele>
        <time>2025-06-15T07:03:58Z</time>
      </trkpt>
      <trkpt lat="45.17159" lon="0.64203">
        <ele>144.8</ele>
        <time>2025-06-15T07:03:59Z</time>
      </trkpt>
      <trkpt lat="45.17153" lon="0.64196">
        <ele>144.4</ele>
        <time>2025-06-15T07:04:00Z</time>
      </trkpt>
      <trkpt lat="45.17147" lon="0.64189">
        <ele>143.8</ele>
        <time>2025-06-15T07:04:01Z</time>
      </trkpt>
      <trkpt lat="45.17142" lon="0.64181">
        <ele>143</ele>
        <time>2025-06-15T07:04:02Z</time>
      </trkpt>
      <trkpt lat="45.17135" lon="0.64176">
        <ele>142</ele>
        <time>2025-06-15T07:04:03Z</time>
      </trkpt>
      <trkpt lat="45.17127" lon="0.64169">
        <ele>141</ele>
        <time>2025-06-15T07:04:04Z</time>
      </trkpt>
      <trkpt lat="45.17119" lon="0.64163">
        <ele>140</ele>
        <time>2025-06-15T07:04:05Z</time>
      </trkpt>
      <trkpt lat="45.17111" lon="0.64157">
        <ele>138.8</ele>
        <time>2025-06-15T07:04:06Z</time>
      </trkpt>
      <trkpt lat="45.17103" lon="0.64152">
        <ele>138.2</ele>
        <time>2025-06-15T07:04:07Z</time>
      </trkpt>
      <trkpt lat="45.17095" lon="0.64146">
        <ele>137.8</ele>
        <time>2025-06-15T07:04:08Z</time>
      </trkpt>
      <trkpt lat="45.17088" lon="0.6414">
        <ele>137.2</ele>
        <time>2025-06-15T07:04:09Z</time>
      </trkpt>
      <trkpt lat="45.17081" lon="0.64135">
        <ele>136.4</ele>
        <time>2025-06-15T07:04:10Z</time>
      </trkpt>
      <trkpt lat="45.17074" lon="0.64132">
        <ele>135.8</ele>
        <time>2025-06-15T07:04:11Z</time>
      </trkpt>
      <trkpt lat="45.17066" lon="0.64129">
        <ele>135.2</ele>
        <time>2025-06-15T07:04:12Z</time>
      </trkpt>
      <trkpt lat="45.17058" lon="0.64126">
        <ele>134.2</ele>
        <time>2025-06-15T07:04:13Z</time>
      </trkpt>
      <trkpt lat="45.1705" lon="0.64121">
        <ele>133</ele>
        <time>2025-06-15T07:04:14Z</time>
      </trkpt>
      <trkpt lat="45.17041" lon="0.64115">
        <ele>131.6</ele>
        <time>2025-06-15T07:04:15Z</time>
      </trkpt>
      <trkpt lat="45.17033" lon="0.64109">
        <ele>130.6</ele>
        <time>2025-06-15T07:04:16Z</time>
      </trkpt>
      <trkpt lat="45.17025" lon="0.64104">
        <ele>129.8</ele>
        <time>2025-06-15T07:04:17Z</time>
      </trkpt>
      <trkpt lat="45.17019" lon="0.64101">
        <ele>129.2</ele>
        <time>2025-06-15T07:04:18Z</time>
      </trkpt>
      <trkpt lat="45.17013" lon="0.641">
        <ele>129</ele>
        <time>2025-06-15T07:04:19Z</time>
      </trkpt>
      <trkpt lat="45.17007" lon="0.64098">
        <ele>129.2</ele>
        <time>2025-06-15T07:04:20Z</time>
      </trkpt>
      <trkpt lat="45.17003" lon="0.64096">
        <ele>129.8</ele>
        <time>2025-06-15T07:04:21Z</time>
      </trkpt>
      <trkpt lat="45.17" lon="0.64095">
        <ele>130.4</ele>
        <time>2025-06-15T07:04:22Z</time>
      </trkpt>
      <trkpt lat="45.16999" lon="0.64094">
        <ele>131</ele>
        <time>2025-06-15T07:04:23Z</time>
      </trkpt>
      <trkpt lat="45.16997" lon="0.64091">
        <ele>131.4</ele>
        <time>2025-06-15T07:04:24Z</time>
      </trkpt>
      <trkpt lat="45.16997" lon="0.64088">
        <ele>131.8</ele>
        <time>2025-06-15T07:04:25Z</time>
      </trkpt>
      <trkpt lat="45.16998" lon="0.64084">
        <ele>132</ele>
        <time>2025-06-15T07:04:26Z</time>
      </trkpt>
      <trkpt lat="45.16999" lon="0.64079">
        <ele>132</ele>
        <time>2025-06-15T07:04:27Z</time>
      </trkpt>
      <trkpt lat="45.17002" lon="0.64073">
        <ele>131.8</ele>
        <time>2025-06-15T07:04:28Z</time>
      </trkpt>
      <trkpt lat="45.17005" lon="0.64066">
        <ele>131.6</ele>
        <time>2025-06-15T07:04:29Z</time>
      </trkpt>
      <trkpt lat="45.17008" lon="0.64058">
        <ele>131</ele>
        <time>2025-06-15T07:04:30Z</time>
      </trkpt>
      <trkpt lat="45.17012" lon="0.64051">
        <ele>130.2</ele>
        <time>2025-06-15T07:04:31Z</time>
      </trkpt>
      <trkpt lat="45.17014" lon="0.64045">
        <ele>129.2</ele>
        <time>2025-06-15T07:04:32Z</time>
      </trkpt>
      <trkpt lat="45.17014" lon="0.6404">
        <ele>128.6</ele>
        <time>2025-06-15T07:04:33Z</time>
      </trkpt>
      <trkpt lat="45.17012" lon="0.64036">
        <ele>127.8</ele>
        <time>2025-06-15T07:04:34Z</time>
      </trkpt>
      <trkpt lat="45.1701" lon="0.64031">
        <ele>127</ele>
        <time>2025-06-15T07:04:35Z</time>
      </trkpt>
      <trkpt lat="45.17007" lon="0.64026">
        <ele>126.8</ele>
        <time>2025-06-15T07:04:36Z</time>
      </trkpt>
      <trkpt lat="45.17004" lon="0.64021">
        <ele>126.6</ele>
        <time>2025-06-15T07:04:37Z</time>
      </trkpt>
      <trkpt lat="45.17003" lon="0.64014">
        <ele>126.2</ele>
        <time>2025-06-15T07:04:38Z</time>
      </trkpt>
      <trkpt lat="45.17001" lon="0.64006">
        <ele>126</ele>
        <time>2025-06-15T07:04:39Z</time>
      </trkpt>
      <trkpt lat="45.17" lon="0.63999">
        <ele>125.8</ele>
        <time>2025-06-15T07:04:40Z</time>
      </trkpt>
      <trkpt lat="45.16999" lon="0.63991">
        <ele>125.6</ele>
        <time>2025-06-15T07:04:41Z</time>
      </trkpt>
      <trkpt lat="45.17" lon="0.63983">
        <ele>125.4</ele>
        <time>2025-06-15T07:04:42Z</time>
      </trkpt>
      <trkpt lat="45.17001" lon="0.63974">
        <ele>125</ele>
        <time>2025-06-15T07:04:43Z</time>
      </trkpt>
      <trkpt lat="45.17001" lon="0.63967">
        <ele>125</ele>
        <time>2025-06-15T07:04:44Z</time>
      </trkpt>
      <trkpt lat="45.17002" lon="0.63958">
        <ele>124.8</ele>
        <time>2025-06-15T07:04:45Z</time>
      </trkpt>
      <trkpt lat="45.17004" lon="0.6395">
        <ele>124.6</ele>
        <time>2025-06-15T07:04:46Z</time>
      </trkpt>
      <trkpt lat="45.17006" lon="0.6394">
        <ele>124.4</ele>
        <time>2025-06-15T07:04:47Z</time>
      </trkpt>
      <trkpt lat="45.17009" lon="0.63931">
        <ele>124.4</ele>
        <time>2025-06-15T07:04:48Z</time>
      </trkpt>
      <trkpt lat="45.17012" lon="0.63922">
        <ele>124</ele>
        <time>2025-06-15T07:04:49Z</time>
      </trkpt>
      <trkpt lat="45.17014" lon="0.63914">
        <ele>123.8</ele>
        <time>2025-06-15T07:04:50Z</time>
      </trkpt>
      <trkpt lat="45.17016" lon="0.63906">
        <ele>123.6</ele>
        <time>2025-06-15T07:04:51Z</time>
      </trkpt>
      <trkpt lat="45.17019" lon="0.63898">
        <ele>123.2</ele>
        <time>2025-06-15T07:04:52Z</time>
      </trkpt>
      <trkpt lat="45.17021" lon="0.63889">
        <ele>123.2</ele>
        <time>2025-06-15T07:04:53Z</time>
      </trkpt>
      <trkpt lat="45.17023" lon="0.6388">
        <ele>123</ele>
        <time>2025-06-15T07:04:54Z</time>
      </trkpt>
      <trkpt lat="45.17025" lon="0.63872">
        <ele>122.8</ele>
        <time>2025-06-15T07:04:55Z</time>
      </trkpt>
      <trkpt lat="45.17027" lon="0.63864">
        <ele>122.8</ele>
        <time>2025-06-15T07:04:56Z</time>
      </trkpt>
      <trkpt lat="45.17029" lon="0.63856">
        <ele>122.4</ele>
        <time>2025-06-15T07:04:57Z</time>
      </trkpt>
      <trkpt lat="45.1703" lon="0.63849">
        <ele>122.2</ele>
        <time>2025-06-15T07:04:58Z</time>
      </trkpt>
      <trkpt lat="45.17031" lon="0.63842">
        <ele>122</ele>
        <time>2025-06-15T07:04:59Z</time>
      </trkpt>
      <trkpt lat="45.17032" lon="0.63835">
        <ele>121.8</ele>
        <time>2025-06-15T07:05:00Z</time>
      </trkpt>
      <trkpt lat="45.17032" lon="0.63828">
        <ele>121.8</ele>
        <time>2025-06-15T07:05:01Z</time>
      </trkpt>
      <trkpt lat="45.17033" lon="0.63821">
        <ele>121.6</ele>
        <time>2025-06-15T07:05:02Z</time>
      </trkpt>
      <trkpt lat="45.17034" lon="0.63814">
        <ele>121.4</ele>
        <time>2025-06-15T07:05:03Z</time>
      </trkpt>
      <trkpt lat="45.17033" lon="0.63806">
        <ele>121.2</ele>
        <time>2025-06-15T07:05:04Z</time>
      </trkpt>
      <trkpt lat="45.17034" lon="0.63798">
        <ele>121</ele>
        <time>2025-06-15T07:05:05Z</time>
      </trkpt>
      <trkpt lat="45.17033" lon="0.63789">
        <ele>120.8</ele>
        <time>2025-06-15T07:05:06Z</time>
      </trkpt>
      <trkpt lat="45.17034" lon="0.63781">
        <ele>120.6</ele>
        <time>2025-06-15T07:05:07Z</time>
      </trkpt>
      <trkpt lat="45.17034" lon="0.63771">
        <ele>120.4</ele>
        <time>2025-06-15T07:05:08Z</time>
      </trkpt>
      <trkpt lat="45.17035" lon="0.63762">
        <ele>120</ele>
        <time>2025-06-15T07:05:09Z</time>
      </trkpt>
      <trkpt lat="45.17036" lon="0.63753">
        <ele>119.8</ele>
        <time>2025-06-15T07:05:10Z</time>
      </trkpt>
      <trkpt lat="45.17038" lon="0.63744">
        <ele>119.6</ele>
        <time>2025-06-15T07:05:11Z</time>
      </trkpt>
      <trkpt lat="45.17038" lon="0.63735">
        <ele>119.4</ele>
        <time>2025-06-15T07:05:12Z</time>
      </trkpt>
      <trkpt lat="45.17039" lon="0.63727">
        <ele>119</ele>
        <time>2025-06-15T07:05:13Z</time>
      </trkpt>
      <trkpt lat="45.17039" lon="0.63718">
        <ele>118.8</ele>
        <time>2025-06-15T07:05:14Z</time>
      </trkpt>
      <trkpt lat="45.1704" lon="0.6371">
        <ele>118.6</ele>
        <time>2025-06-15T07:05:15Z</time>
      </trkpt>
      <trkpt lat="45.17041" lon="0.637">
        <ele>118.6</ele>
        <time>2025-06-15T07:05:16Z</time>
      </trkpt>
      <trkpt lat="45.17042" lon="0.63691">
        <ele>118.2</ele>
        <time>2025-06-15T07:05:17Z</time>
      </trkpt>
      <trkpt lat="45.17043" lon="0.63682">
        <ele>118</ele>
        <time>2025-06-15T07:05:18Z</time>
      </trkpt>
      <trkpt lat="45.17045" lon="0.63673">
        <ele>117.6</ele>
        <time>2025-06-15T07:05:19Z</time>
      </trkpt>
      <trkpt lat="45.17048" lon="0.63665">
        <ele>117.4</ele>
        <time>2025-06-15T07:05:20Z</time>
      </trkpt>
      <trkpt lat="45.17051" lon="0.63656">
        <ele>117</ele>
        <time>2025-06-15T07:05:21Z</time>
      </trkpt>
      <trkpt lat="45.17054" lon="0.63647">
        <ele>116.8</ele>
        <time>2025-06-15T07:05:22Z</time>
      </trkpt>
      <trkpt lat="45.17057" lon="0.63639">
        <ele>116.8</ele>
        <time>2025-06-15T07:05:23Z</time>
      </trkpt>
      <trkpt lat="45.17059" lon="0.63631">
        <ele>116.6</ele>
        <time>2025-06-15T07:05:24Z</time>
      </trkpt>
      <trkpt lat="45.1706" lon="0.63622">
        <ele>116.2</ele>
        <time>2025-06-15T07:05:25Z</time>
      </trkpt>
      <trkpt lat="45.1706" lon="0.63614">
        <ele>116</ele>
        <time>2025-06-15T07:05:26Z</time>
      </trkpt>
      <trkpt lat="45.17058" lon="0.63608">
        <ele>116</ele>
        <time>2025-06-15T07:05:27Z</time>
      </trkpt>
      <trkpt lat="45.17055" lon="0.63601">
        <ele>116</ele>
        <time>2025-06-15T07:05:28Z</time>
      </trkpt>
      <trkpt lat="45.17052" lon="0.63596">
        <ele>116</ele>
        <time>2025-06-15T07:05:29Z</time>
      </trkpt>
      <trkpt lat="45.1705" lon="0.63591">
        <ele>116.2</ele>
        <time>2025-06-15T07:05:30Z</time>
      </trkpt>
      <trkpt lat="45.1705" lon="0.63586">
        <ele>116.6</ele>
        <time>2025-06-15T07:05:31Z</time>
      </trkpt>
      <trkpt lat="45.17051" lon="0.63579">
        <ele>116.8</ele>
        <time>2025-06-15T07:05:32Z</time>
      </trkpt>
      <trkpt lat="45.17053" lon="0.63576">
        <ele>117.2</ele>
        <time>2025-06-15T07:05:33Z</time>
      </trkpt>
      <trkpt lat="45.17056" lon="0.63574">
        <ele>117.6</ele>
        <time>2025-06-15T07:05:34Z</time>
      </trkpt>
      <trkpt lat="45.17059" lon="0.63573">
        <ele>117.8</ele>
        <time>2025-06-15T07:05:35Z</time>
      </trkpt>
      <trkpt lat="45.17061" lon="0.63573">
        <ele>118.2</ele>
        <time>2025-06-15T07:05:36Z</time>
      </trkpt>
      <trkpt lat="45.17065" lon="0.63572">
        <ele>118.4</ele>
        <time>2025-06-15T07:05:37Z</time>
      </trkpt>
      <trkpt lat="45.17069" lon="0.6357">
        <ele>118.6</ele>
        <time>2025-06-15T07:05:38Z</time>
      </trkpt>
      <trkpt lat="45.17072" lon="0.63568">
        <ele>118.6</ele>
        <time>2025-06-15T07:05:39Z</time>
      </trkpt>
      <trkpt lat="45.17075" lon="0.63566">
        <ele>118.8</ele>
        <time>2025-06-15T07:05:40Z</time>
      </trkpt>
      <trkpt lat="45.17078" lon="0.63564">
        <ele>118.8</ele>
        <time>2025-06-15T07:05:41Z</time>
      </trkpt>
      <trkpt lat="45.1708" lon="0.63561">
        <ele>119</ele>
        <time>2025-06-15T07:05:42Z</time>
      </trkpt>
      <trkpt lat="45.17083" lon="0.63559">
        <ele>119.2</ele>
        <time>2025-06-15T07:05:43Z</time>
      </trkpt>
      <trkpt lat="45.17086" lon="0.63556">
        <ele>119.4</ele>
        <time>2025-06-15T07:05:44Z</time>
      </trkpt>
      <trkpt lat="45.17089" lon="0.63555">
        <ele>119.6</ele>
        <time>2025-06-15T07:05:45Z</time>
      </trkpt>
      <trkpt lat="45.17091" lon="0.63552">
        <ele>119.8</ele>
        <time>2025-06-15T07:05:46Z</time>
      </trkpt>
      <trkpt lat="45.17094" lon="0.63549">
        <ele>120</ele>
        <time>2025-06-15T07:05:47Z</time>
      </trkpt>
      <trkpt lat="45.17097" lon="0.63547">
        <ele>120.4</ele>
        <time>2025-06-15T07:05:48Z</time>
      </trkpt>
      <trkpt lat="45.17099" lon="0.63544">
        <ele>120.4</ele>
        <time>2025-06-15T07:05:49Z</time>
      </trkpt>
      <trkpt lat="45.17102" lon="0.63541">
        <ele>120.6</ele>
        <time>2025-06-15T07:05:50Z</time>
      </trkpt>
      <trkpt lat="45.17105" lon="0.63538">
        <ele>120.8</ele>
        <time>2025-06-15T07:05:51Z</time>
      </trkpt>
      <trkpt lat="45.17106" lon="0.63535">
        <ele>121</ele>
        <time>2025-06-15T07:05:52Z</time>
      </trkpt>
      <trkpt lat="45.17108" lon="0.63531">
        <ele>121.2</ele>
        <time>2025-06-15T07:05:53Z</time>
      </trkpt>
      <trkpt lat="45.1711" lon="0.63528">
        <ele>121.4</ele>
        <time>2025-06-15T07:05:54Z</time>
      </trkpt>
      <trkpt lat="45.17112" lon="0.63525">
        <ele>121.6</ele>
        <time>2025-06-15T07:05:55Z</time>
      </trkpt>
      <trkpt lat="45.17114" lon="0.63522">
        <ele>121.8</ele>
        <time>2025-06-15T07:05:56Z</time>
      </trkpt>
      <trkpt lat="45.17115" lon="0.6352">
        <ele>122</ele>
        <time>2025-06-15T07:05:57Z</time>
      </trkpt>
      <trkpt lat="45.17116" lon="0.63516">
        <ele>122.2</ele>
        <time>2025-06-15T07:05:58Z</time>
      </trkpt>
      <trkpt lat="45.17118" lon="0.63513">
        <ele>122.4</ele>
        <time>2025-06-15T07:05:59Z</time>
      </trkpt>
      <trkpt lat="45.17119" lon="0.6351">
        <ele>122.6</ele>
        <time>2025-06-15T07:06:00Z</time>
      </trkpt>
      <trkpt lat="45.17121" lon="0.63507">
        <ele>122.8</ele>
        <time>2025-06-15T07:06:01Z</time>
      </trkpt>
      <trkpt lat="45.17123" lon="0.63503">
        <ele>123</ele>
        <time>2025-06-15T07:06:02Z</time>
      </trkpt>
      <trkpt lat="45.17125" lon="0.635">
        <ele>123.2</ele>
        <time>2025-06-15T07:06:03Z</time>
      </trkpt>
      <trkpt lat="45.17128" lon="0.63496">
        <ele>123.4</ele>
        <time>2025-06-15T07:06:04Z</time>
      </trkpt>
      <trkpt lat="45.17129" lon="0.63494">
        <ele>123.6</ele>
        <time>2025-06-15T07:06:05Z</time>
      </trkpt>
      <trkpt lat="45.17131" lon="0.63491">
        <ele>123.6</ele>
        <time>2025-06-15T07:06:06Z</time>
      </trkpt>
      <trkpt lat="45.17133" lon="0.63488">
        <ele>123.8</ele>
        <time>2025-06-15T07:06:07Z</time>
      </trkpt>
      <trkpt lat="45.17134" lon="0.63485">
        <ele>124</ele>
        <time>2025-06-15T07:06:08Z</time>
      </trkpt>
      <trkpt lat="45.17135" lon="0.63482">
        <ele>124.2</ele>
        <time>2025-06-15T07:06:09Z</time>
      </trkpt>
      <trkpt lat="45.17136" lon="0.63479">
        <ele>124.4</ele>
        <time>2025-06-15T07:06:10Z</time>
      </trkpt>
      <trkpt lat="45.17137" lon="0.63476">
        <ele>124.6</ele>
        <time>2025-06-15T07:06:11Z</time>
      </trkpt>
      <trkpt lat="45.17138" lon="0.63473">
        <ele>124.8</ele>
        <time>2025-06-15T07:06:12Z</time>
      </trkpt>
      <trkpt lat="45.17139" lon="0.6347">
        <ele>125</ele>
        <time>2025-06-15T07:06:13Z</time>
      </trkpt>
      <trkpt lat="45.17141" lon="0.63467">
        <ele>125</ele>
        <time>2025-06-15T07:06:14Z</time>
      </trkpt>
      <trkpt lat="45.17142" lon="0.63465">
        <ele>125.2</ele>
        <time>2025-06-15T07:06:15Z</time>
      </trkpt>
      <trkpt lat="45.17143" lon="0.63461">
        <ele>125.4</ele>
        <time>2025-06-15T07:06:16Z</time>
      </trkpt>
      <trkpt lat="45.17144" lon="0.63458">
        <ele>125.6</ele>
        <time>2025-06-15T07:06:17Z</time>
      </trkpt>
      <trkpt lat="45.17145" lon="0.63454">
        <ele>125.8</ele>
        <time>2025-06-15T07:06:18Z</time>
      </trkpt>
      <trkpt lat="45.17146" lon="0.63451">
        <ele>126</ele>
        <time>2025-06-15T07:06:19Z</time>
      </trkpt>
      <trkpt lat="45.17147" lon="0.63447">
        <ele>126.2</ele>
        <time>2025-06-15T07:06:20Z</time>
      </trkpt>
      <trkpt lat="45.17148" lon="0.63444">
        <ele>126.2</ele>
        <time>2025-06-15T07:06:21Z</time>
      </trkpt>
      <trkpt lat="45.17149" lon="0.63441">
        <ele>126.4</ele>
        <time>2025-06-15T07:06:22Z</time>
      </trkpt>
      <trkpt lat="45.1715" lon="0.63438">
        <ele>126.6</ele>
        <time>2025-06-15T07:06:23Z</time>
      </trkpt>
      <trkpt lat="45.17151" lon="0.63434">
        <ele>126.6</ele>
        <time>2025-06-15T07:06:24Z</time>
      </trkpt>
      <trkpt lat="45.17152" lon="0.6343">
        <ele>126.6</ele>
        <time>2025-06-15T07:06:25Z</time>
      </trkpt>
      <trkpt lat="45.17153" lon="0.63427">
        <ele>126.8</ele>
        <time>2025-06-15T07:06:26Z</time>
      </trkpt>
      <trkpt lat="45.17155" lon="0.63423">
        <ele>126.8</ele>
        <time>2025-06-15T07:06:27Z</time>
      </trkpt>
      <trkpt lat="45.17156" lon="0.6342">
        <ele>126.8</ele>
        <time>2025-06-15T07:06:28Z</time>
      </trkpt>
      <trkpt lat="45.17157" lon="0.63416">
        <ele>126.8</ele>
        <time>2025-06-15T07:06:29Z</time>
      </trkpt>
      <trkpt lat="45.17159" lon="0.63412">
        <ele>127</ele>
        <time>2025-06-15T07:06:30Z</time>
      </trkpt>
      <trkpt lat="45.17161" lon="0.63409">
        <ele>127</ele>
        <time>2025-06-15T07:06:31Z</time>
      </trkpt>
      <trkpt lat="45.17162" lon="0.63406">
        <ele>127.2</ele>
        <time>2025-06-15T07:06:32Z</time>
      </trkpt>
      <trkpt lat="45.17163" lon="0.63404">
        <ele>127.2</ele>
        <time>2025-06-15T07:06:33Z</time>
      </trkpt>
      <trkpt lat="45.17164" lon="0.63401">
        <ele>127.4</ele>
        <time>2025-06-15T07:06:34Z</time>
      </trkpt>
      <trkpt lat="45.17166" lon="0.63397">
        <ele>127.4</ele>
        <time>2025-06-15T07:06:35Z</time>
      </trkpt>
      <trkpt lat="45.17168" lon="0.63393">
        <ele>127.6</ele>
        <time>2025-06-15T07:06:36Z</time>
      </trkpt>
      <trkpt lat="45.17169" lon="0.6339">
        <ele>127.6</ele>
        <time>2025-06-15T07:06:37Z</time>
      </trkpt>
      <trkpt lat="45.17171" lon="0.63386">
        <ele>127.6</ele>
        <time>2025-06-15T07:06:38Z</time>
      </trkpt>
      <trkpt lat="45.17172" lon="0.63383">
        <ele>127.8</ele>
        <time>2025-06-15T07:06:39Z</time>
      </trkpt>
      <trkpt lat="45.17173" lon="0.63379">
        <ele>127.8</ele>
        <time>2025-06-15T07:06:40Z</time>
      </trkpt>
      <trkpt lat="45.17175" lon="0.63376">
        <ele>128</ele>
        <time>2025-06-15T07:06:41Z</time>
      </trkpt>
      <trkpt lat="45.17176" lon="0.63372">
        <ele>128</ele>
        <time>2025-06-15T07:06:42Z</time>
      </trkpt>
      <trkpt lat="45.17177" lon="0.63368">
        <ele>128.2</ele>
        <time>2025-06-15T07:06:43Z</time>
      </trkpt>
      <trkpt lat="45.17178" lon="0.63364">
        <ele>128.4</ele>
        <time>2025-06-15T07:06:44Z</time>
      </trkpt>
      <trkpt lat="45.17179" lon="0.6336">
        <ele>128.4</ele>
        <time>2025-06-15T07:06:45Z</time>
      </trkpt>
      <trkpt lat="45.17181" lon="0.63357">
        <ele>128.6</ele>
        <time>2025-06-15T07:06:46Z</time>
      </trkpt>
      <trkpt lat="45.17182" lon="0.63353">
        <ele>128.6</ele>
        <time>2025-06-15T07:06:47Z</time>
      </trkpt>
      <trkpt lat="45.17183" lon="0.63349">
        <ele>128.6</ele>
        <time>2025-06-15T07:06:48Z</time>
      </trkpt>
      <trkpt lat="45.17184" lon="0.63346">
        <ele>128.8</ele>
        <time>2025-06-15T07:06:49Z</time>
      </trkpt>
      <trkpt lat="45.17185" lon="0.63341">
        <ele>128.8</ele>
        <time>2025-06-15T07:06:50Z</time>
      </trkpt>
      <trkpt lat="45.17185" lon="0.63337">
        <ele>128.8</ele>
        <time>2025-06-15T07:06:51Z</time>
      </trkpt>
      <trkpt lat="45.17186" lon="0.63332">
        <ele>129</ele>
        <time>2025-06-15T07:06:52Z</time>
      </trkpt>
      <trkpt lat="45.17186" lon="0.63327">
        <ele>129</ele>
        <time>2025-06-15T07:06:53Z</time>
      </trkpt>
      <trkpt lat="45.17186" lon="0.63323">
        <ele>129.2</ele>
        <time>2025-06-15T07:06:54Z</time>
      </trkpt>
      <trkpt lat="45.17186" lon="0.63319">
        <ele>129.2</ele>
        <time>2025-06-15T07:06:55Z</time>
      </trkpt>
      <trkpt lat="45.17186" lon="0.63315">
        <ele>129.4</ele>
        <time>2025-06-15T07:06:56Z</time>
      </trkpt>
      <trkpt lat="45.17186" lon="0.63311">
        <ele>129.4</ele>
        <time>2025-06-15T07:06:57Z</time>
      </trkpt>
      <trkpt lat="45.17187" lon="0.63307">
        <ele>129.4</ele>
        <time>2025-06-15T07:06:58Z</time>
      </trkpt>
      <trkpt lat="45.17187" lon="0.63303">
        <ele>129.6</ele>
        <time>2025-06-15T07:06:59Z</time>
      </trkpt>
      <trkpt lat="45.17187" lon="0.63298">
        <ele>129.6</ele>
        <time>2025-06-15T07:07:00Z</time>
      </trkpt>
      <trkpt lat="45.17187" lon="0.63293">
        <ele>129.6</ele>
        <time>2025-06-15T07:07:01Z</time>
      </trkpt>
      <trkpt lat="45.17187" lon="0.63288">
        <ele>129.8</ele>
        <time>2025-06-15T07:07:02Z</time>
      </trkpt>
      <trkpt lat="45.17187" lon="0.63282">
        <ele>129.8</ele>
        <time>2025-06-15T07:07:03Z</time>
      </trkpt>
      <trkpt lat="45.17187" lon="0.63277">
        <ele>129.6</ele>
        <time>2025-06-15T07:07:04Z</time>
      </trkpt>
      <trkpt lat="45.17188" lon="0.63271">
        <ele>129.6</ele>
        <time>2025-06-15T07:07:05Z</time>
      </trkpt>
      <trkpt lat="45.17189" lon="0.63265">
        <ele>129.6</ele>
        <time>2025-06-15T07:07:06Z</time>
      </trkpt>
      <trkpt lat="45.17189" lon="0.63259">
        <ele>129.4</ele>
        <time>2025-06-15T07:07:07Z</time>
      </trkpt>
      <trkpt lat="45.1719" lon="0.63253">
        <ele>129.4</ele>
        <time>2025-06-15T07:07:08Z</time>
      </trkpt>
      <trkpt lat="45.1719" lon="0.63246">
        <ele>129.4</ele>
        <time>2025-06-15T07:07:09Z</time>
      </trkpt>
      <trkpt lat="45.1719" lon="0.6324">
        <ele>129.2</ele>
        <time>2025-06-15T07:07:10Z</time>
      </trkpt>
      <trkpt lat="45.17191" lon="0.63233">
        <ele>129.2</ele>
        <time>2025-06-15T07:07:11Z</time>
      </trkpt>
      <trkpt lat="45.1719" lon="0.63225">
        <ele>129</ele>
        <time>2025-06-15T07:07:12Z</time>
      </trkpt>
      <trkpt lat="45.17191" lon="0.63217">
        <ele>128.8</ele>
        <time>2025-06-15T07:07:13Z</time>
      </trkpt>
      <trkpt lat="45.1719" lon="0.6321">
        <ele>128.6</ele>
        <time>2025-06-15T07:07:14Z</time>
      </trkpt>
      <trkpt lat="45.17191" lon="0.63203">
        <ele>128.4</ele>
        <time>2025-06-15T07:07:15Z</time>
      </trkpt>
      <trkpt lat="45.17191" lon="0.63196">
        <ele>128.2</ele>
        <time>2025-06-15T07:07:16Z</time>
      </trkpt>
      <trkpt lat="45.17191" lon="0.6319">
        <ele>128</ele>
        <time>2025-06-15T07:07:17Z</time>
      </trkpt>
      <trkpt lat="45.17192" lon="0.63185">
        <ele>127.6</ele>
        <time>2025-06-15T07:07:18Z</time>
      </trkpt>
      <trkpt lat="45.17195" lon="0.6318">
        <ele>127.6</ele>
        <time>2025-06-15T07:07:19Z</time>
      </trkpt>
      <trkpt lat="45.17198" lon="0.63176">
        <ele>127.4</ele>
        <time>2025-06-15T07:07:20Z</time>
      </trkpt>
      <trkpt lat="45.17201" lon="0.63171">
        <ele>127.4</ele>
        <time>2025-06-15T07:07:21Z</time>
      </trkpt>
      <trkpt lat="45.17204" lon="0.63167">
        <ele>127.4</ele>
        <time>2025-06-15T07:07:22Z</time>
      </trkpt>
      <trkpt lat="45.17208" lon="0.63162">
        <ele>127.4</ele>
        <time>2025-06-15T07:07:23Z</time>
      </trkpt>
      <trkpt lat="45.17212" lon="0.63158">
        <ele>127.4</ele>
        <time>2025-06-15T07:07:24Z</time>
      </trkpt>
      <trkpt lat="45.17216" lon="0.63154">
        <ele>127.4</ele>
        <time>2025-06-15T07:07:25Z</time>
      </trkpt>
      <trkpt lat="45.17219" lon="0.6315">
        <ele>127.2</ele>
        <time>2025-06-15T07:07:26Z</time>
      </trkpt>
      <trkpt lat="45.17223" lon="0.63147">
        <ele>127.2</ele>
        <time>2025-06-15T07:07:27Z</time>
      </trkpt>
      <trkpt lat="45.17227" lon="0.63143">
        <ele>127.2</ele>
        <time>2025-06-15T07:07:28Z</time>
      </trkpt>
      <trkpt lat="45.17231" lon="0.63139">
        <ele>127.2</ele>
        <time>2025-06-15T07:07:29Z</time>
      </trkpt>
      <trkpt lat="45.17235" lon="0.63134">
        <ele>127.2</ele>
        <time>2025-06-15T07:07:30Z</time>
      </trkpt>
      <trkpt lat="45.17239" lon="0.6313">
        <ele>127.2</ele>
        <time>2025-06-15T07:07:31Z</time>
      </trkpt>
      <trkpt lat="45.17242" lon="0.63126">
        <ele>127</ele>
        <time>2025-06-15T07:07:32Z</time>
      </trkpt>
      <trkpt lat="45.17245" lon="0.63122">
        <ele>126.8</ele>
        <time>2025-06-15T07:07:33Z</time>
      </trkpt>
      <trkpt lat="45.17247" lon="0.63117">
        <ele>126.6</ele>
        <time>2025-06-15T07:07:34Z</time>
      </trkpt>
      <trkpt lat="45.17248" lon="0.63113">
        <ele>126.4</ele>
        <time>2025-06-15T07:07:35Z</time>
      </trkpt>
      <trkpt lat="45.17247" lon="0.63109">
        <ele>126.4</ele>
        <time>2025-06-15T07:07:36Z</time>
      </trkpt>
      <trkpt lat="45.17245" lon="0.63105">
        <ele>126.2</ele>
        <time>2025-06-15T07:07:37Z</time>
      </trkpt>
      <trkpt lat="45.17243" lon="0.63102">
        <ele>126.2</ele>
        <time>2025-06-15T07:07:38Z</time>
      </trkpt>
      <trkpt lat="45.1724" lon="0.63098">
        <ele>126.2</ele>
        <time>2025-06-15T07:07:39Z</time>
      </trkpt>
      <trkpt lat="45.17238" lon="0.63093">
        <ele>126.2</ele>
        <time>2025-06-15T07:07:40Z</time>
      </trkpt>
      <trkpt lat="45.17235" lon="0.63087">
        <ele>126.2</ele>
        <time>2025-06-15T07:07:41Z</time>
      </trkpt>
      <trkpt lat="45.17234" lon="0.63082">
        <ele>126.2</ele>
        <time>2025-06-15T07:07:42Z</time>
      </trkpt>
      <trkpt lat="45.17231" lon="0.63077">
        <ele>126</ele>
        <time>2025-06-15T07:07:43Z</time>
      </trkpt>
      <trkpt lat="45.17229" lon="0.63071">
        <ele>126</ele>
        <time>2025-06-15T07:07:44Z</time>
      </trkpt>
      <trkpt lat="45.17226" lon="0.63065">
        <ele>125.8</ele>
        <time>2025-06-15T07:07:45Z</time>
      </trkpt>
      <trkpt lat="45.17223" lon="0.6306">
        <ele>125.8</ele>
        <time>2025-06-15T07:07:46Z</time>
      </trkpt>
      <trkpt lat="45.1722" lon="0.63054">
        <ele>125.8</ele>
        <time>2025-06-15T07:07:47Z</time>
      </trkpt>
      <trkpt lat="45.17218" lon="0.63049">
        <ele>125.8</ele>
        <time>2025-06-15T07:07:48Z</time>
      </trkpt>
      <trkpt lat="45.17215" lon="0.63043">
        <ele>125.8</ele>
        <time>2025-06-15T07:07:49Z</time>
      </trkpt>
      <trkpt lat="45.17212" lon="0.63038">
        <ele>125.6</ele>
        <time>2025-06-15T07:07:50Z</time>
      </trkpt>
      <trkpt lat="45.17208" lon="0.63033">
        <ele>125.6</ele>
        <time>2025-06-15T07:07:51Z</time>
      </trkpt>
      <trkpt lat="45.17204" lon="0.6303">
        <ele>125.6</ele>
        <time>2025-06-15T07:07:52Z</time>
      </trkpt>
      <trkpt lat="45.172" lon="0.63027">
        <ele>125.6</ele>
        <time>2025-06-15T07:07:53Z</time>
      </trkpt>
      <trkpt lat="45.17197" lon="0.63023">
        <ele>125.6</ele>
        <time>2025-06-15T07:07:54Z</time>
      </trkpt>
      <trkpt lat="45.17193" lon="0.63019">
        <ele>125.6</ele>
        <time>2025-06-15T07:07:55Z</time>
      </trkpt>
      <trkpt lat="45.17192" lon="0.63012">
        <ele>125.4</ele>
        <time>2025-06-15T07:07:56Z</time>
      </trkpt>
      <trkpt lat="45.17193" lon="0.63007">
        <ele>125.4</ele>
        <time>2025-06-15T07:07:57Z</time>
      </trkpt>
      <trkpt lat="45.17195" lon="0.63003">
        <ele>125.2</ele>
        <time>2025-06-15T07:07:58Z</time>
      </trkpt>
      <trkpt lat="45.17197" lon="0.63">
        <ele>125.2</ele>
        <time>2025-06-15T07:07:59Z</time>
      </trkpt>
      <trkpt lat="45.172" lon="0.62999">
        <ele>125.2</ele>
        <time>2025-06-15T07:08:00Z</time>
      </trkpt>
      <trkpt lat="45.17205" lon="0.62996">
        <ele>125</ele>
        <time>2025-06-15T07:08:01Z</time>
      </trkpt>
      <trkpt lat="45.17207" lon="0.62992">
        <ele>125</ele>
        <time>2025-06-15T07:08:02Z</time>
      </trkpt>
      <trkpt lat="45.17208" lon="0.62987">
        <ele>124.8</ele>
        <time>2025-06-15T07:08:03Z</time>
      </trkpt>
      <trkpt lat="45.17208" lon="0.62981">
        <ele>124.8</ele>
        <time>2025-06-15T07:08:04Z</time>
      </trkpt>
      <trkpt lat="45.17207" lon="0.62977">
        <ele>124.6</ele>
        <time>2025-06-15T07:08:05Z</time>
      </trkpt>
      <trkpt lat="45.17205" lon="0.62973">
        <ele>124.6</ele>
        <time>2025-06-15T07:08:06Z</time>
      </trkpt>
      <trkpt lat="45.17205" lon="0.62968">
        <ele>124.6</ele>
        <time>2025-06-15T07:08:07Z</time>
      </trkpt>
      <trkpt lat="45.17205" lon="0.62962">
        <ele>124.6</ele>
        <time>2025-06-15T07:08:08Z</time>
      </trkpt>
      <trkpt lat="45.17203" lon="0.62956">
        <ele>124.6</ele>
        <time>2025-06-15T07:08:09Z</time>
      </trkpt>
      <trkpt lat="45.17201" lon="0.6295">
        <ele>124.6</ele>
        <time>2025-06-15T07:08:10Z</time>
      </trkpt>
      <trkpt lat="45.17199" lon="0.62943">
        <ele>124.6</ele>
        <time>2025-06-15T07:08:11Z</time>
      </trkpt>
      <trkpt lat="45.17197" lon="0.62937">
        <ele>124.6</ele>
        <time>2025-06-15T07:08:12Z</time>
      </trkpt>
      <trkpt lat="45.17196" lon="0.62931">
        <ele>124.4</ele>
        <time>2025-06-15T07:08:13Z</time>
      </trkpt>
      <trkpt lat="45.17193" lon="0.62924">
        <ele>124.4</ele>
        <time>2025-06-15T07:08:14Z</time>
      </trkpt>
      <trkpt lat="45.17191" lon="0.62918">
        <ele>124.2</ele>
        <time>2025-06-15T07:08:15Z</time>
      </trkpt>
      <trkpt lat="45.17186" lon="0.62912">
        <ele>123.8</ele>
        <time>2025-06-15T07:08:16Z</time>
      </trkpt>
      <trkpt lat="45.1718" lon="0.62907">
        <ele>123.6</ele>
        <time>2025-06-15T07:08:17Z</time>
      </trkpt>
      <trkpt lat="45.17177" lon="0.62902">
        <ele>123.4</ele>
        <time>2025-06-15T07:08:18Z</time>
      </trkpt>
      <trkpt lat="45.17175" lon="0.62895">
        <ele>123.2</ele>
        <time>2025-06-15T07:08:19Z</time>
      </trkpt>
      <trkpt lat="45.17177" lon="0.62891">
        <ele>123</ele>
        <time>2025-06-15T07:08:20Z</time>
      </trkpt>
      <trkpt lat="45.17178" lon="0.62887">
        <ele>123</ele>
        <time>2025-06-15T07:08:21Z</time>
      </trkpt>
      <trkpt lat="45.1718" lon="0.62881">
        <ele>122.8</ele>
        <time>2025-06-15T07:08:22Z</time>
      </trkpt>
      <trkpt lat="45.17182" lon="0.62875">
        <ele>122.8</ele>
        <time>2025-06-15T07:08:23Z</time>
      </trkpt>
      <trkpt lat="45.17185" lon="0.62868">
        <ele>122.8</ele>
        <time>2025-06-15T07:08:24Z</time>
      </trkpt>
      <trkpt lat="45.17188" lon="0.62862">
        <ele>123</ele>
        <time>2025-06-15T07:08:25Z</time>
      </trkpt>
      <trkpt lat="45.17192" lon="0.62856">
        <ele>123</ele>
        <time>2025-06-15T07:08:26Z</time>
      </trkpt>
      <trkpt lat="45.17195" lon="0.6285">
        <ele>122.8</ele>
        <time>2025-06-15T07:08:27Z</time>
      </trkpt>
      <trkpt lat="45.17198" lon="0.62844">
        <ele>122.8</ele>
        <time>2025-06-15T07:08:28Z</time>
      </trkpt>
      <trkpt lat="45.17202" lon="0.62839">
        <ele>122.8</ele>
        <time>2025-06-15T07:08:29Z</time>
      </trkpt>
      <trkpt lat="45.17206" lon="0.62833">
        <ele>122.8</ele>
        <time>2025-06-15T07:08:30Z</time>
      </trkpt>
      <trkpt lat="45.17211" lon="0.62828">
        <ele>122.6</ele>
        <time>2025-06-15T07:08:31Z</time>
      </trkpt>
      <trkpt lat="45.17215" lon="0.62822">
        <ele>122.6</ele>
        <time>2025-06-15T07:08:32Z</time>
      </trkpt>
      <trkpt lat="45.17219" lon="0.62817">
        <ele>122.6</ele>
        <time>2025-06-15T07:08:33Z</time>
      </trkpt>
      <trkpt lat="45.17224" lon="0.62812">
        <ele>122.6</ele>
        <time>2025-06-15T07:08:34Z</time>
      </trkpt>
      <trkpt lat="45.1723" lon="0.62807">
        <ele>122.6</ele>
        <time>2025-06-15T07:08:35Z</time>
      </trkpt>
      <trkpt lat="45.17235" lon="0.62804">
        <ele>122.4</ele>
        <time>2025-06-15T07:08:36Z</time>
      </trkpt>
      <trkpt lat="45.1724" lon="0.628">
        <ele>122.4</ele>
        <time>2025-06-15T07:08:37Z</time>
      </trkpt>
      <trkpt lat="45.17245" lon="0.62795">
        <ele>122.2</ele>
        <time>2025-06-15T07:08:38Z</time>
      </trkpt>
      <trkpt lat="45.1725" lon="0.6279">
        <ele>122.2</ele>
        <time>2025-06-15T07:08:39Z</time>
      </trkpt>
      <trkpt lat="45.17255" lon="0.62784">
        <ele>122</ele>
        <time>2025-06-15T07:08:40Z</time>
      </trkpt>
      <trkpt lat="45.17259" lon="0.62778">
        <ele>122</ele>
        <time>2025-06-15T07:08:41Z</time>
      </trkpt>
      <trkpt lat="45.17263" lon="0.62772">
        <ele>121.8</ele>
        <time>2025-06-15T07:08:42Z</time>
      </trkpt>
      <trkpt lat="45.17268" lon="0.62765">
        <ele>121.6</ele>
        <time>2025-06-15T07:08:43Z</time>
      </trkpt>
      <trkpt lat="45.17273" lon="0.62758">
        <ele>121.6</ele>
        <time>2025-06-15T07:08:44Z</time>
      </trkpt>
      <trkpt lat="45.17277" lon="0.62752">
        <ele>121.4</ele>
        <time>2025-06-15T07:08:45Z</time>
      </trkpt>
      <trkpt lat="45.17281" lon="0.62746">
        <ele>121.2</ele>
        <time>2025-06-15T07:08:46Z</time>
      </trkpt>
      <trkpt lat="45.17285" lon="0.62739">
        <ele>121</ele>
        <time>2025-06-15T07:08:47Z</time>
      </trkpt>
      <trkpt lat="45.1729" lon="0.62732">
        <ele>120.8</ele>
        <time>2025-06-15T07:08:48Z</time>
      </trkpt>
      <trkpt lat="45.17295" lon="0.62725">
        <ele>120.6</ele>
        <time>2025-06-15T07:08:49Z</time>
      </trkpt>
      <trkpt lat="45.173" lon="0.6272">
        <ele>120.6</ele>
        <time>2025-06-15T07:08:50Z</time>
      </trkpt>
      <trkpt lat="45.17306" lon="0.62713">
        <ele>120.4</ele>
        <time>2025-06-15T07:08:51Z</time>
      </trkpt>
      <trkpt lat="45.17311" lon="0.62705">
        <ele>120.4</ele>
        <time>2025-06-15T07:08:52Z</time>
      </trkpt>
      <trkpt lat="45.17314" lon="0.62697">
        <ele>120.2</ele>
        <time>2025-06-15T07:08:53Z</time>
      </trkpt>
      <trkpt lat="45.17318" lon="0.62688">
        <ele>120.2</ele>
        <time>2025-06-15T07:08:54Z</time>
      </trkpt>
      <trkpt lat="45.17321" lon="0.6268">
        <ele>120</ele>
        <time>2025-06-15T07:08:55Z</time>
      </trkpt>
      <trkpt lat="45.17325" lon="0.62672">
        <ele>119.8</ele>
        <time>2025-06-15T07:08:56Z</time>
      </trkpt>
      <trkpt lat="45.17328" lon="0.62663">
        <ele>119.6</ele>
        <time>2025-06-15T07:08:57Z</time>
      </trkpt>
      <trkpt lat="45.1733" lon="0.62654">
        <ele>119.4</ele>
        <time>2025-06-15T07:08:58Z</time>
      </trkpt>
      <trkpt lat="45.17332" lon="0.62647">
        <ele>119.2</ele>
        <time>2025-06-15T07:08:59Z</time>
      </trkpt>
      <trkpt lat="45.17335" lon="0.62638">
        <ele>119.2</ele>
        <time>2025-06-15T07:09:00Z</time>
      </trkpt>
      <trkpt lat="45.17338" lon="0.62628">
        <ele>119</ele>
        <time>2025-06-15T07:09:01Z</time>
      </trkpt>
      <trkpt lat="45.17339" lon="0.62619">
        <ele>118.8</ele>
        <time>2025-06-15T07:09:02Z</time>
      </trkpt>
      <trkpt lat="45.1734" lon="0.6261">
        <ele>118.6</ele>
        <time>2025-06-15T07:09:03Z</time>
      </trkpt>
      <trkpt lat="45.17341" lon="0.62601">
        <ele>118.6</ele>
        <time>2025-06-15T07:09:04Z</time>
      </trkpt>
      <trkpt lat="45.17342" lon="0.62593">
        <ele>118.4</ele>
        <time>2025-06-15T07:09:05Z</time>
      </trkpt>
      <trkpt lat="45.17342" lon="0.62584">
        <ele>118.2</ele>
        <time>2025-06-15T07:09:06Z</time>
      </trkpt>
      <trkpt lat="45.17343" lon="0.62576">
        <ele>118</ele>
        <time>2025-06-15T07:09:07Z</time>
      </trkpt>
      <trkpt lat="45.17344" lon="0.62567">
        <ele>117.8</ele>
        <time>2025-06-15T07:09:08Z</time>
      </trkpt>
      <trkpt lat="45.17344" lon="0.62559">
        <ele>117.6</ele>
        <time>2025-06-15T07:09:09Z</time>
      </trkpt>
      <trkpt lat="45.17345" lon="0.62549">
        <ele>117.4</ele>
        <time>2025-06-15T07:09:10Z</time>
      </trkpt>
      <trkpt lat="45.17344" lon="0.6254">
        <ele>117.2</ele>
        <time>2025-06-15T07:09:11Z</time>
      </trkpt>
      <trkpt lat="45.17343" lon="0.62529">
        <ele>117</ele>
        <time>2025-06-15T07:09:12Z</time>
      </trkpt>
      <trkpt lat="45.17342" lon="0.62519">
        <ele>116.6</ele>
        <time>2025-06-15T07:09:13Z</time>
      </trkpt>
      <trkpt lat="45.17341" lon="0.62509">
        <ele>116.2</ele>
        <time>2025-06-15T07:09:14Z</time>
      </trkpt>
      <trkpt lat="45.17339" lon="0.62499">
        <ele>115.8</ele>
        <time>2025-06-15T07:09:15Z</time>
      </trkpt>
      <trkpt lat="45.17337" lon="0.62489">
        <ele>115.4</ele>
        <time>2025-06-15T07:09:16Z</time>
      </trkpt>
      <trkpt lat="45.17336" lon="0.62479">
        <ele>114.8</ele>
        <time>2025-06-15T07:09:17Z</time>
      </trkpt>
      <trkpt lat="45.17334" lon="0.62467">
        <ele>114.4</ele>
        <time>2025-06-15T07:09:18Z</time>
      </trkpt>
      <trkpt lat="45.17333" lon="0.62455">
        <ele>114.2</ele>
        <time>2025-06-15T07:09:19Z</time>
      </trkpt>
      <trkpt lat="45.17333" lon="0.62443">
        <ele>113.8</ele>
        <time>2025-06-15T07:09:20Z</time>
      </trkpt>
      <trkpt lat="45.17332" lon="0.62431">
        <ele>113.4</ele>
        <time>2025-06-15T07:09:21Z</time>
      </trkpt>
      <trkpt lat="45.17331" lon="0.62417">
        <ele>113</ele>
        <time>2025-06-15T07:09:22Z</time>
      </trkpt>
      <trkpt lat="45.17329" lon="0.62404">
        <ele>112.8</ele>
        <time>2025-06-15T07:09:23Z</time>
      </trkpt>
      <trkpt lat="45.17326" lon="0.62392">
        <ele>112.6</ele>
        <time>2025-06-15T07:09:24Z</time>
      </trkpt>
      <trkpt lat="45.17323" lon="0.62378">
        <ele>112.4</ele>
        <time>2025-06-15T07:09:25Z</time>
      </trkpt>
      <trkpt lat="45.1732" lon="0.62364">
        <ele>112</ele>
        <time>2025-06-15T07:09:26Z</time>
      </trkpt>
      <trkpt lat="45.17317" lon="0.6235">
        <ele>111.6</ele>
        <time>2025-06-15T07:09:27Z</time>
      </trkpt>
      <trkpt lat="45.17316" lon="0.62336">
        <ele>111</ele>
        <time>2025-06-15T07:09:28Z</time>
      </trkpt>
      <trkpt lat="45.17316" lon="0.62323">
        <ele>110.4</ele>
        <time>2025-06-15T07:09:29Z</time>
      </trkpt>
      <trkpt lat="45.17317" lon="0.62309">
        <ele>109.8</ele>
        <time>2025-06-15T07:09:30Z</time>
      </trkpt>
      <trkpt lat="45.17318" lon="0.62295">
        <ele>109</ele>
        <time>2025-06-15T07:09:31Z</time>
      </trkpt>
      <trkpt lat="45.17321" lon="0.62281">
        <ele>107.8</ele>
        <time>2025-06-15T07:09:32Z</time>
      </trkpt>
      <trkpt lat="45.17322" lon="0.62266">
        <ele>106.6</ele>
        <time>2025-06-15T07:09:33Z</time>
      </trkpt>
      <trkpt lat="45.17323" lon="0.62252">
        <ele>105.2</ele>
        <time>2025-06-15T07:09:34Z</time>
      </trkpt>
      <trkpt lat="45.17324" lon="0.62239">
        <ele>103.8</ele>
        <time>2025-06-15T07:09:35Z</time>
      </trkpt>
      <trkpt lat="45.17323" lon="0.62226">
        <ele>103</ele>
        <time>2025-06-15T07:09:36Z</time>
      </trkpt>
      <trkpt lat="45.1732" lon="0.62214">
        <ele>102.2</ele>
        <time>2025-06-15T07:09:37Z</time>
      </trkpt>
      <trkpt lat="45.17315" lon="0.62203">
        <ele>101.2</ele>
        <time>2025-06-15T07:09:38Z</time>
      </trkpt>
      <trkpt lat="45.1731" lon="0.62192">
        <ele>99.6</ele>
        <time>2025-06-15T07:09:39Z</time>
      </trkpt>
      <trkpt lat="45.17305" lon="0.62181">
        <ele>98.4</ele>
        <time>2025-06-15T07:09:40Z</time>
      </trkpt>
      <trkpt lat="45.173" lon="0.62168">
        <ele>97.4</ele>
        <time>2025-06-15T07:09:41Z</time>
      </trkpt>
      <trkpt lat="45.17296" lon="0.62156">
        <ele>96.6</ele>
        <time>2025-06-15T07:09:42Z</time>
      </trkpt>
      <trkpt lat="45.17291" lon="0.62143">
        <ele>95.8</ele>
        <time>2025-06-15T07:09:43Z</time>
      </trkpt>
      <trkpt lat="45.17287" lon="0.6213">
        <ele>95.2</ele>
        <time>2025-06-15T07:09:44Z</time>
      </trkpt>
      <trkpt lat="45.17283" lon="0.62117">
        <ele>94.8</ele>
        <time>2025-06-15T07:09:45Z</time>
      </trkpt>
      <trkpt lat="45.1728" lon="0.62106">
        <ele>94.6</ele>
        <time>2025-06-15T07:09:46Z</time>
      </trkpt>
      <trkpt lat="45.17278" lon="0.62095">
        <ele>94.6</ele>
        <time>2025-06-15T07:09:47Z</time>
      </trkpt>
      <trkpt lat="45.17275" lon="0.62086">
        <ele>94.8</ele>
        <time>2025-06-15T07:09:48Z</time>
      </trkpt>
      <trkpt lat="45.17272" lon="0.62076">
        <ele>94.8</ele>
        <time>2025-06-15T07:09:49Z</time>
      </trkpt>
      <trkpt lat="45.17268" lon="0.62068">
        <ele>95.2</ele>
        <time>2025-06-15T07:09:50Z</time>
      </trkpt>
      <trkpt lat="45.17266" lon="0.6206">
        <ele>95.2</ele>
        <time>2025-06-15T07:09:51Z</time>
      </trkpt>
      <trkpt lat="45.17263" lon="0.62055">
        <ele>95.2</ele>
        <time>2025-06-15T07:09:52Z</time>
      </trkpt>
      <trkpt lat="45.17259" lon="0.62052">
        <ele>95</ele>
        <time>2025-06-15T07:09:53Z</time>
      </trkpt>
      <trkpt lat="45.17254" lon="0.6205">
        <ele>95</ele>
        <time>2025-06-15T07:09:54Z</time>
      </trkpt>
      <trkpt lat="45.17249" lon="0.62048">
        <ele>94.8</ele>
        <time>2025-06-15T07:09:55Z</time>
      </trkpt>
      <trkpt lat="45.17244" lon="0.62044">
        <ele>94.6</ele>
        <time>2025-06-15T07:09:56Z</time>
      </trkpt>
      <trkpt lat="45.1724" lon="0.6204">
        <ele>94.6</ele>
        <time>2025-06-15T07:09:57Z</time>
      </trkpt>
      <trkpt lat="45.17236" lon="0.62034">
        <ele>94.6</ele>
        <time>2025-06-15T07:09:58Z</time>
      </trkpt>
      <trkpt lat="45.17232" lon="0.62029">
        <ele>94.6</ele>
        <time>2025-06-15T07:09:59Z</time>
      </trkpt>
      <trkpt lat="45.17228" lon="0.62024">
        <ele>94.6</ele>
        <time>2025-06-15T07:10:00Z</time>
      </trkpt>
      <trkpt lat="45.17224" lon="0.62019">
        <ele>94.8</ele>
        <time>2025-06-15T07:10:01Z</time>
      </trkpt>
      <trkpt lat="45.17221" lon="0.62013">
        <ele>94.8</ele>
        <time>2025-06-15T07:10:02Z</time>
      </trkpt>
      <trkpt lat="45.17217" lon="0.62008">
        <ele>94.8</ele>
        <time>2025-06-15T07:10:03Z</time>
      </trkpt>
      <trkpt lat="45.17213" lon="0.62004">
        <ele>94.8</ele>
        <time>2025-06-15T07:10:04Z</time>
      </trkpt>
      <trkpt lat="45.17208" lon="0.62001">
        <ele>94.8</ele>
        <time>2025-06-15T07:10:05Z</time>
      </trkpt>
      <trkpt lat="45.17204" lon="0.61998">
        <ele>94.8</ele>
        <time>2025-06-15T07:10:06Z</time>
      </trkpt>
      <trkpt lat="45.172" lon="0.61993">
        <ele>94.8</ele>
        <time>2025-06-15T07:10:07Z</time>
      </trkpt>
      <trkpt lat="45.17196" lon="0.6199">
        <ele>94.8</ele>
        <time>2025-06-15T07:10:08Z</time>
      </trkpt>
      <trkpt lat="45.17193" lon="0.61986">
        <ele>94.8</ele>
        <time>2025-06-15T07:10:09Z</time>
      </trkpt>
      <trkpt lat="45.1719" lon="0.61981">
        <ele>94.8</ele>
        <time>2025-06-15T07:10:10Z</time>
      </trkpt>
      <trkpt lat="45.17187" lon="0.61976">
        <ele>94.6</ele>
        <time>2025-06-15T07:10:11Z</time>
      </trkpt>
      <trkpt lat="45.17183" lon="0.61971">
        <ele>94.6</ele>
        <time>2025-06-15T07:10:12Z</time>
      </trkpt>
      <trkpt lat="45.1718" lon="0.61966">
        <ele>94.6</ele>
        <time>2025-06-15T07:10:13Z</time>
      </trkpt>
      <trkpt lat="45.17176" lon="0.61961">
        <ele>94.6</ele>
        <time>2025-06-15T07:10:14Z</time>
      </trkpt>
      <trkpt lat="45.17174" lon="0.61956">
        <ele>94.6</ele>
        <time>2025-06-15T07:10:15Z</time>
      </trkpt>
      <trkpt lat="45.17171" lon="0.61952">
        <ele>94.6</ele>
        <time>2025-06-15T07:10:16Z</time>
      </trkpt>
      <trkpt lat="45.17168" lon="0.61948">
        <ele>94.8</ele>
        <time>2025-06-15T07:10:17Z</time>
      </trkpt>
      <trkpt lat="45.17166" lon="0.61945">
        <ele>95</ele>
        <time>2025-06-15T07:10:18Z</time>
      </trkpt>
      <trkpt lat="45.17163" lon="0.61941">
        <ele>95.2</ele>
        <time>2025-06-15T07:10:19Z</time>
      </trkpt>
      <trkpt lat="45.1716" lon="0.61937">
        <ele>95.4</ele>
        <time>2025-06-15T07:10:20Z</time>
      </trkpt>
      <trkpt lat="45.17158" lon="0.61933">
        <ele>95.6</ele>
        <time>2025-06-15T07:10:21Z</time>
      </trkpt>
      <trkpt lat="45.17155" lon="0.61928">
        <ele>95.8</ele>
        <time>2025-06-15T07:10:22Z</time>
      </trkpt>
      <trkpt lat="45.17152" lon="0.61923">
        <ele>95.8</ele>
        <time>2025-06-15T07:10:23Z</time>
      </trkpt>
      <trkpt lat="45.17149" lon="0.61917">
        <ele>95.8</ele>
        <time>2025-06-15T07:10:24Z</time>
      </trkpt>
      <trkpt lat="45.17146" lon="0.61911">
        <ele>96</ele>
        <time>2025-06-15T07:10:25Z</time>
      </trkpt>
      <trkpt lat="45.17143" lon="0.61906">
        <ele>96</ele>
        <time>2025-06-15T07:10:26Z</time>
      </trkpt>
      <trkpt lat="45.17141" lon="0.61902">
        <ele>96</ele>
        <time>2025-06-15T07:10:27Z</time>
      </trkpt>
      <trkpt lat="45.17138" lon="0.61898">
        <ele>96</ele>
        <time>2025-06-15T07:10:28Z</time>
      </trkpt>
      <trkpt lat="45.17136" lon="0.61893">
        <ele>96.2</ele>
        <time>2025-06-15T07:10:29Z</time>
      </trkpt>
      <trkpt lat="45.17133" lon="0.61888">
        <ele>96.2</ele>
        <time>2025-06-15T07:10:30Z</time>
      </trkpt>
      <trkpt lat="45.1713" lon="0.61884">
        <ele>96.2</ele>
        <time>2025-06-15T07:10:31Z</time>
      </trkpt>
      <trkpt lat="45.17127" lon="0.61879">
        <ele>96</ele>
        <time>2025-06-15T07:10:32Z</time>
      </trkpt>
      <trkpt lat="45.17124" lon="0.61873">
        <ele>96</ele>
        <time>2025-06-15T07:10:33Z</time>
      </trkpt>
      <trkpt lat="45.17121" lon="0.61869">
        <ele>96</ele>
        <time>2025-06-15T07:10:34Z</time>
      </trkpt>
      <trkpt lat="45.17118" lon="0.61863">
        <ele>95.8</ele>
        <time>2025-06-15T07:10:35Z</time>
      </trkpt>
      <trkpt lat="45.17115" lon="0.61857">
        <ele>95.8</ele>
        <time>2025-06-15T07:10:36Z</time>
      </trkpt>
      <trkpt lat="45.17113" lon="0.61851">
        <ele>95.8</ele>
        <time>2025-06-15T07:10:37Z</time>
      </trkpt>
      <trkpt lat="45.1711" lon="0.61844">
        <ele>95.8</ele>
        <time>2025-06-15T07:10:38Z</time>
      </trkpt>
      <trkpt lat="45.17108" lon="0.61838">
        <ele>95.8</ele>
        <time>2025-06-15T07:10:39Z</time>
      </trkpt>
      <trkpt lat="45.17104" lon="0.61832">
        <ele>96</ele>
        <time>2025-06-15T07:10:40Z</time>
      </trkpt>
      <trkpt lat="45.17102" lon="0.61826">
        <ele>96</ele>
        <time>2025-06-15T07:10:41Z</time>
      </trkpt>
      <trkpt lat="45.17099" lon="0.6182">
        <ele>96.2</ele>
        <time>2025-06-15T07:10:42Z</time>
      </trkpt>
      <trkpt lat="45.17097" lon="0.61813">
        <ele>96.4</ele>
        <time>2025-06-15T07:10:43Z</time>
      </trkpt>
      <trkpt lat="45.17096" lon="0.61807">
        <ele>96.6</ele>
        <time>2025-06-15T07:10:44Z</time>
      </trkpt>
      <trkpt lat="45.17094" lon="0.618">
        <ele>96.8</ele>
        <time>2025-06-15T07:10:45Z</time>
      </trkpt>
      <trkpt lat="45.17092" lon="0.61793">
        <ele>97</ele>
        <time>2025-06-15T07:10:46Z</time>
      </trkpt>
      <trkpt lat="45.1709" lon="0.61785">
        <ele>97</ele>
        <time>2025-06-15T07:10:47Z</time>
      </trkpt>
      <trkpt lat="45.17087" lon="0.61778">
        <ele>97</ele>
        <time>2025-06-15T07:10:48Z</time>
      </trkpt>
      <trkpt lat="45.17084" lon="0.61771">
        <ele>97</ele>
        <time>2025-06-15T07:10:49Z</time>
      </trkpt>
      <trkpt lat="45.17082" lon="0.61766">
        <ele>97</ele>
        <time>2025-06-15T07:10:50Z</time>
      </trkpt>
      <trkpt lat="45.17079" lon="0.6176">
        <ele>97</ele>
        <time>2025-06-15T07:10:51Z</time>
      </trkpt>
      <trkpt lat="45.17077" lon="0.61753">
        <ele>97</ele>
        <time>2025-06-15T07:10:52Z</time>
      </trkpt>
      <trkpt lat="45.17077" lon="0.61747">
        <ele>97</ele>
        <time>2025-06-15T07:10:53Z</time>
      </trkpt>
      <trkpt lat="45.17076" lon="0.61741">
        <ele>97.2</ele>
        <time>2025-06-15T07:10:54Z</time>
      </trkpt>
      <trkpt lat="45.17074" lon="0.61735">
        <ele>97.4</ele>
        <time>2025-06-15T07:10:55Z</time>
      </trkpt>
      <trkpt lat="45.17071" lon="0.6173">
        <ele>97.4</ele>
        <time>2025-06-15T07:10:56Z</time>
      </trkpt>
      <trkpt lat="45.17069" lon="0.61724">
        <ele>97.6</ele>
        <time>2025-06-15T07:10:57Z</time>
      </trkpt>
      <trkpt lat="45.17067" lon="0.61718">
        <ele>97.8</ele>
        <time>2025-06-15T07:10:58Z</time>
      </trkpt>
      <trkpt lat="45.17064" lon="0.61712">
        <ele>97.8</ele>
        <time>2025-06-15T07:10:59Z</time>
      </trkpt>
      <trkpt lat="45.17062" lon="0.61706">
        <ele>98</ele>
        <time>2025-06-15T07:11:00Z</time>
      </trkpt>
      <trkpt lat="45.1706" lon="0.61701">
        <ele>98</ele>
        <time>2025-06-15T07:11:01Z</time>
      </trkpt>
      <trkpt lat="45.17057" lon="0.61695">
        <ele>98.2</ele>
        <time>2025-06-15T07:11:02Z</time>
      </trkpt>
      <trkpt lat="45.17056" lon="0.6169">
        <ele>98.4</ele>
        <time>2025-06-15T07:11:03Z</time>
      </trkpt>
      <trkpt lat="45.17053" lon="0.61685">
        <ele>98.6</ele>
        <time>2025-06-15T07:11:04Z</time>
      </trkpt>
      <trkpt lat="45.1705" lon="0.61682">
        <ele>98.8</ele>
        <time>2025-06-15T07:11:05Z</time>
      </trkpt>
      <trkpt lat="45.17047" lon="0.6168">
        <ele>99</ele>
        <time>2025-06-15T07:11:06Z</time>
      </trkpt>
      <trkpt lat="45.17043" lon="0.6168">
        <ele>99.2</ele>
        <time>2025-06-15T07:11:07Z</time>
      </trkpt>
      <trkpt lat="45.1704" lon="0.6168">
        <ele>99.6</ele>
        <time>2025-06-15T07:11:08Z</time>
      </trkpt>
      <trkpt lat="45.17036" lon="0.6168">
        <ele>99.8</ele>
        <time>2025-06-15T07:11:09Z</time>
      </trkpt>
      <trkpt lat="45.17033" lon="0.6168">
        <ele>100.2</ele>
        <time>2025-06-15T07:11:10Z</time>
      </trkpt>
      <trkpt lat="45.17029" lon="0.61681">
        <ele>100.4</ele>
        <time>2025-06-15T07:11:11Z</time>
      </trkpt>
      <trkpt lat="45.17025" lon="0.61681">
        <ele>100.6</ele>
        <time>2025-06-15T07:11:12Z</time>
      </trkpt>
      <trkpt lat="45.17022" lon="0.61681">
        <ele>100.8</ele>
        <time>2025-06-15T07:11:13Z</time>
      </trkpt>
      <trkpt lat="45.17019" lon="0.61682">
        <ele>101</ele>
        <time>2025-06-15T07:11:14Z</time>
      </trkpt>
      <trkpt lat="45.17015" lon="0.61682">
        <ele>101.2</ele>
        <time>2025-06-15T07:11:15Z</time>
      </trkpt>
      <trkpt lat="45.17012" lon="0.61682">
        <ele>101.2</ele>
        <time>2025-06-15T07:11:16Z</time>
      </trkpt>
      <trkpt lat="45.17007" lon="0.61683">
        <ele>101.2</ele>
        <time>2025-06-15T07:11:17Z</time>
      </trkpt>
      <trkpt lat="45.17003" lon="0.61683">
        <ele>101.4</ele>
        <time>2025-06-15T07:11:18Z</time>
      </trkpt>
      <trkpt lat="45.16999" lon="0.61684">
        <ele>101.4</ele>
        <time>2025-06-15T07:11:19Z</time>
      </trkpt>
      <trkpt lat="45.16995" lon="0.61685">
        <ele>101.6</ele>
        <time>2025-06-15T07:11:20Z</time>
      </trkpt>
      <trkpt lat="45.16991" lon="0.61686">
        <ele>101.8</ele>
        <time>2025-06-15T07:11:21Z</time>
      </trkpt>
      <trkpt lat="45.16987" lon="0.61687">
        <ele>101.8</ele>
        <time>2025-06-15T07:11:22Z</time>
      </trkpt>
      <trkpt lat="45.16982" lon="0.61688">
        <ele>102</ele>
        <time>2025-06-15T07:11:23Z</time>
      </trkpt>
      <trkpt lat="45.16978" lon="0.61689">
        <ele>102</ele>
        <time>2025-06-15T07:11:24Z</time>
      </trkpt>
      <trkpt lat="45.16973" lon="0.61691">
        <ele>102</ele>
        <time>2025-06-15T07:11:25Z</time>
      </trkpt>
      <trkpt lat="45.1697" lon="0.61693">
        <ele>102</ele>
        <time>2025-06-15T07:11:26Z</time>
      </trkpt>
      <trkpt lat="45.16966" lon="0.61696">
        <ele>102</ele>
        <time>2025-06-15T07:11:27Z</time>
      </trkpt>
      <trkpt lat="45.16962" lon="0.61698">
        <ele>102</ele>
        <time>2025-06-15T07:11:28Z</time>
      </trkpt>
      <trkpt lat="45.16957" lon="0.61702">
        <ele>102</ele>
        <time>2025-06-15T07:11:29Z</time>
      </trkpt>
      <trkpt lat="45.16952" lon="0.61705">
        <ele>101.8</ele>
        <time>2025-06-15T07:11:30Z</time>
      </trkpt>
      <trkpt lat="45.16948" lon="0.61708">
        <ele>101.6</ele>
        <time>2025-06-15T07:11:31Z</time>
      </trkpt>
      <trkpt lat="45.16942" lon="0.61711">
        <ele>101.2</ele>
        <time>2025-06-15T07:11:32Z</time>
      </trkpt>
      <trkpt lat="45.16938" lon="0.61713">
        <ele>101</ele>
        <time>2025-06-15T07:11:33Z</time>
      </trkpt>
      <trkpt lat="45.16933" lon="0.61715">
        <ele>101</ele>
        <time>2025-06-15T07:11:34Z</time>
      </trkpt>
      <trkpt lat="45.16928" lon="0.61717">
        <ele>101</ele>
        <time>2025-06-15T07:11:35Z</time>
      </trkpt>
      <trkpt lat="45.16923" lon="0.61718">
        <ele>101.2</ele>
        <time>2025-06-15T07:11:36Z</time>
      </trkpt>
      <trkpt lat="45.16918" lon="0.6172">
        <ele>101.4</ele>
        <time>2025-06-15T07:11:37Z</time>
      </trkpt>
      <trkpt lat="45.16914" lon="0.61722">
        <ele>101.8</ele>
        <time>2025-06-15T07:11:38Z</time>
      </trkpt>
      <trkpt lat="45.16909" lon="0.61724">
        <ele>102</ele>
        <time>2025-06-15T07:11:39Z</time>
      </trkpt>
      <trkpt lat="45.16906" lon="0.61726">
        <ele>102.4</ele>
        <time>2025-06-15T07:11:40Z</time>
      </trkpt>
      <trkpt lat="45.16902" lon="0.61729">
        <ele>102.6</ele>
        <time>2025-06-15T07:11:41Z</time>
      </trkpt>
      <trkpt lat="45.16898" lon="0.61733">
        <ele>102.8</ele>
        <time>2025-06-15T07:11:42Z</time>
      </trkpt>
      <trkpt lat="45.16895" lon="0.61737">
        <ele>103.2</ele>
        <time>2025-06-15T07:11:43Z</time>
      </trkpt>
      <trkpt lat="45.16891" lon="0.61741">
        <ele>103.4</ele>
        <time>2025-06-15T07:11:44Z</time>
      </trkpt>
      <trkpt lat="45.16889" lon="0.61745">
        <ele>103.6</ele>
        <time>2025-06-15T07:11:45Z</time>
      </trkpt>
      <trkpt lat="45.16886" lon="0.61748">
        <ele>103.8</ele>
        <time>2025-06-15T07:11:46Z</time>
      </trkpt>
      <trkpt lat="45.16883" lon="0.61751">
        <ele>104</ele>
        <time>2025-06-15T07:11:47Z</time>
      </trkpt>
      <trkpt lat="45.16881" lon="0.61755">
        <ele>104.4</ele>
        <time>2025-06-15T07:11:48Z</time>
      </trkpt>
      <trkpt lat="45.16878" lon="0.61758">
        <ele>104.6</ele>
        <time>2025-06-15T07:11:49Z</time>
      </trkpt>
      <trkpt lat="45.16875" lon="0.61761">
        <ele>104.8</ele>
        <time>2025-06-15T07:11:50Z</time>
      </trkpt>
      <trkpt lat="45.16872" lon="0.61763">
        <ele>105</ele>
        <time>2025-06-15T07:11:51Z</time>
      </trkpt>
      <trkpt lat="45.16869" lon="0.61766">
        <ele>105.2</ele>
        <time>2025-06-15T07:11:52Z</time>
      </trkpt>
      <trkpt lat="45.16866" lon="0.61768">
        <ele>105.6</ele>
        <time>2025-06-15T07:11:53Z</time>
      </trkpt>
      <trkpt lat="45.16863" lon="0.6177">
        <ele>105.8</ele>
        <time>2025-06-15T07:11:54Z</time>
      </trkpt>
      <trkpt lat="45.1686" lon="0.61771">
        <ele>106</ele>
        <time>2025-06-15T07:11:55Z</time>
      </trkpt>
      <trkpt lat="45.16857" lon="0.61773">
        <ele>106</ele>
        <time>2025-06-15T07:11:56Z</time>
      </trkpt>
      <trkpt lat="45.16854" lon="0.61774">
        <ele>106.2</ele>
        <time>2025-06-15T07:11:57Z</time>
      </trkpt>
      <trkpt lat="45.1685" lon="0.61776">
        <ele>106.4</ele>
        <time>2025-06-15T07:11:58Z</time>
      </trkpt>
      <trkpt lat="45.16846" lon="0.61777">
        <ele>106.6</ele>
        <time>2025-06-15T07:11:59Z</time>
      </trkpt>
      <trkpt lat="45.16842" lon="0.61779">
        <ele>106.8</ele>
        <time>2025-06-15T07:12:00Z</time>
      </trkpt>
      <trkpt lat="45.16839" lon="0.61781">
        <ele>107</ele>
        <time>2025-06-15T07:12:01Z</time>
      </trkpt>
      <trkpt lat="45.16835" lon="0.61782">
        <ele>107</ele>
        <time>2025-06-15T07:12:02Z</time>
      </trkpt>
      <trkpt lat="45.16831" lon="0.61784">
        <ele>107.2</ele>
        <time>2025-06-15T07:12:03Z</time>
      </trkpt>
      <trkpt lat="45.16827" lon="0.61786">
        <ele>107.2</ele>
        <time>2025-06-15T07:12:04Z</time>
      </trkpt>
      <trkpt lat="45.16824" lon="0.61787">
        <ele>107.2</ele>
        <time>2025-06-15T07:12:05Z</time>
      </trkpt>
      <trkpt lat="45.16821" lon="0.61787">
        <ele>107.4</ele>
        <time>2025-06-15T07:12:06Z</time>
      </trkpt>
      <trkpt lat="45.16818" lon="0.61788">
        <ele>107.6</ele>
        <time>2025-06-15T07:12:07Z</time>
      </trkpt>
      <trkpt lat="45.16815" lon="0.61789">
        <ele>107.6</ele>
        <time>2025-06-15T07:12:08Z</time>
      </trkpt>
      <trkpt lat="45.16812" lon="0.6179">
        <ele>107.8</ele>
        <time>2025-06-15T07:12:09Z</time>
      </trkpt>
      <trkpt lat="45.16808" lon="0.61791">
        <ele>108</ele>
        <time>2025-06-15T07:12:10Z</time>
      </trkpt>
      <trkpt lat="45.16804" lon="0.61792">
        <ele>108</ele>
        <time>2025-06-15T07:12:11Z</time>
      </trkpt>
      <trkpt lat="45.16799" lon="0.61793">
        <ele>108</ele>
        <time>2025-06-15T07:12:12Z</time>
      </trkpt>
      <trkpt lat="45.16795" lon="0.61794">
        <ele>108</ele>
        <time>2025-06-15T07:12:13Z</time>
      </trkpt>
      <trkpt lat="45.16791" lon="0.61796">
        <ele>108</ele>
        <time>2025-06-15T07:12:14Z</time>
      </trkpt>
      <trkpt lat="45.16788" lon="0.61797">
        <ele>108</ele>
        <time>2025-06-15T07:12:15Z</time>
      </trkpt>
      <trkpt lat="45.16785" lon="0.61798">
        <ele>108</ele>
        <time>2025-06-15T07:12:16Z</time>
      </trkpt>
      <trkpt lat="45.16782" lon="0.61799">
        <ele>108.2</ele>
        <time>2025-06-15T07:12:17Z</time>
      </trkpt>
      <trkpt lat="45.16779" lon="0.61801">
        <ele>108.2</ele>
        <time>2025-06-15T07:12:18Z</time>
      </trkpt>
      <trkpt lat="45.16775" lon="0.61801">
        <ele>108.2</ele>
        <time>2025-06-15T07:12:19Z</time>
      </trkpt>
      <trkpt lat="45.16772" lon="0.61802">
        <ele>108.2</ele>
        <time>2025-06-15T07:12:20Z</time>
      </trkpt>
      <trkpt lat="45.16767" lon="0.61804">
        <ele>108.2</ele>
        <time>2025-06-15T07:12:21Z</time>
      </trkpt>
      <trkpt lat="45.16763" lon="0.61805">
        <ele>108.2</ele>
        <time>2025-06-15T07:12:22Z</time>
      </trkpt>
      <trkpt lat="45.16759" lon="0.61807">
        <ele>108.2</ele>
        <time>2025-06-15T07:12:23Z</time>
      </trkpt>
      <trkpt lat="45.16755" lon="0.61808">
        <ele>108.2</ele>
        <time>2025-06-15T07:12:24Z</time>
      </trkpt>
      <trkpt lat="45.1675" lon="0.6181">
        <ele>108.2</ele>
        <time>2025-06-15T07:12:25Z</time>
      </trkpt>
      <trkpt lat="45.16745" lon="0.61812">
        <ele>108.2</ele>
        <time>2025-06-15T07:12:26Z</time>
      </trkpt>
      <trkpt lat="45.16741" lon="0.61813">
        <ele>108.2</ele>
        <time>2025-06-15T07:12:27Z</time>
      </trkpt>
      <trkpt lat="45.16736" lon="0.61815">
        <ele>108</ele>
        <time>2025-06-15T07:12:28Z</time>
      </trkpt>
      <trkpt lat="45.16732" lon="0.61817">
        <ele>108</ele>
        <time>2025-06-15T07:12:29Z</time>
      </trkpt>
      <trkpt lat="45.16727" lon="0.61818">
        <ele>108</ele>
        <time>2025-06-15T07:12:30Z</time>
      </trkpt>
      <trkpt lat="45.16723" lon="0.6182">
        <ele>107.8</ele>
        <time>2025-06-15T07:12:31Z</time>
      </trkpt>
      <trkpt lat="45.16718" lon="0.61822">
        <ele>107.8</ele>
        <time>2025-06-15T07:12:32Z</time>
      </trkpt>
      <trkpt lat="45.16713" lon="0.61824">
        <ele>107.6</ele>
        <time>2025-06-15T07:12:33Z</time>
      </trkpt>
      <trkpt lat="45.16708" lon="0.61826">
        <ele>107.6</ele>
        <time>2025-06-15T07:12:34Z</time>
      </trkpt>
      <trkpt lat="45.16704" lon="0.61827">
        <ele>107.6</ele>
        <time>2025-06-15T07:12:35Z</time>
      </trkpt>
      <trkpt lat="45.16699" lon="0.6183">
        <ele>107.4</ele>
        <time>2025-06-15T07:12:36Z</time>
      </trkpt>
      <trkpt lat="45.16695" lon="0.61832">
        <ele>107.4</ele>
        <time>2025-06-15T07:12:37Z</time>
      </trkpt>
      <trkpt lat="45.1669" lon="0.61834">
        <ele>107.2</ele>
        <time>2025-06-15T07:12:38Z</time>
      </trkpt>
      <trkpt lat="45.16685" lon="0.61835">
        <ele>107.2</ele>
        <time>2025-06-15T07:12:39Z</time>
      </trkpt>
      <trkpt lat="45.1668" lon="0.61838">
        <ele>107</ele>
        <time>2025-06-15T07:12:40Z</time>
      </trkpt>
      <trkpt lat="45.16675" lon="0.6184">
        <ele>107</ele>
        <time>2025-06-15T07:12:41Z</time>
      </trkpt>
      <trkpt lat="45.1667" lon="0.61842">
        <ele>106.8</ele>
        <time>2025-06-15T07:12:42Z</time>
      </trkpt>
      <trkpt lat="45.16665" lon="0.61843">
        <ele>106.6</ele>
        <time>2025-06-15T07:12:43Z</time>
      </trkpt>
      <trkpt lat="45.16659" lon="0.61844">
        <ele>106.4</ele>
        <time>2025-06-15T07:12:44Z</time>
      </trkpt>
      <trkpt lat="45.16654" lon="0.61845">
        <ele>106.2</ele>
        <time>2025-06-15T07:12:45Z</time>
      </trkpt>
      <trkpt lat="45.16649" lon="0.61846">
        <ele>106</ele>
        <time>2025-06-15T07:12:46Z</time>
      </trkpt>
      <trkpt lat="45.16643" lon="0.61847">
        <ele>105.8</ele>
        <time>2025-06-15T07:12:47Z</time>
      </trkpt>
      <trkpt lat="45.16638" lon="0.61848">
        <ele>105.8</ele>
        <time>2025-06-15T07:12:48Z</time>
      </trkpt>
      <trkpt lat="45.16632" lon="0.61849">
        <ele>105.6</ele>
        <time>2025-06-15T07:12:49Z</time>
      </trkpt>
      <trkpt lat="45.16627" lon="0.61851">
        <ele>105.6</ele>
        <time>2025-06-15T07:12:50Z</time>
      </trkpt>
      <trkpt lat="45.16621" lon="0.61852">
        <ele>105.4</ele>
        <time>2025-06-15T07:12:51Z</time>
      </trkpt>
      <trkpt lat="45.16616" lon="0.61853">
        <ele>105.4</ele>
        <time>2025-06-15T07:12:52Z</time>
      </trkpt>
      <trkpt lat="45.16609" lon="0.61855">
        <ele>105.2</ele>
        <time>2025-06-15T07:12:53Z</time>
      </trkpt>
      <trkpt lat="45.16603" lon="0.61855">
        <ele>105</ele>
        <time>2025-06-15T07:12:54Z</time>
      </trkpt>
      <trkpt lat="45.16596" lon="0.61856">
        <ele>104.8</ele>
        <time>2025-06-15T07:12:55Z</time>
      </trkpt>
      <trkpt lat="45.1659" lon="0.61857">
        <ele>104.4</ele>
        <time>2025-06-15T07:12:56Z</time>
      </trkpt>
      <trkpt lat="45.16583" lon="0.61858">
        <ele>104</ele>
        <time>2025-06-15T07:12:57Z</time>
      </trkpt>
      <trkpt lat="45.16578" lon="0.61861">
        <ele>103.4</ele>
        <time>2025-06-15T07:12:58Z</time>
      </trkpt>
      <trkpt lat="45.16573" lon="0.61867">
        <ele>103</ele>
        <time>2025-06-15T07:12:59Z</time>
      </trkpt>
      <trkpt lat="45.16569" lon="0.61874">
        <ele>102.6</ele>
        <time>2025-06-15T07:13:00Z</time>
      </trkpt>
      <trkpt lat="45.16567" lon="0.61883">
        <ele>102.2</ele>
        <time>2025-06-15T07:13:01Z</time>
      </trkpt>
      <trkpt lat="45.16566" lon="0.61891">
        <ele>101.8</ele>
        <time>2025-06-15T07:13:02Z</time>
      </trkpt>
      <trkpt lat="45.16565" lon="0.619">
        <ele>101.6</ele>
        <time>2025-06-15T07:13:03Z</time>
      </trkpt>
      <trkpt lat="45.16565" lon="0.61908">
        <ele>101.4</ele>
        <time>2025-06-15T07:13:04Z</time>
      </trkpt>
      <trkpt lat="45.16564" lon="0.61916">
        <ele>101.4</ele>
        <time>2025-06-15T07:13:05Z</time>
      </trkpt>
      <trkpt lat="45.16564" lon="0.61923">
        <ele>101.4</ele>
        <time>2025-06-15T07:13:06Z</time>
      </trkpt>
      <trkpt lat="45.16563" lon="0.61931">
        <ele>101.6</ele>
        <time>2025-06-15T07:13:07Z</time>
      </trkpt>
      <trkpt lat="45.16562" lon="0.61938">
        <ele>101.8</ele>
        <time>2025-06-15T07:13:08Z</time>
      </trkpt>
      <trkpt lat="45.16561" lon="0.61945">
        <ele>102</ele>
        <time>2025-06-15T07:13:09Z</time>
      </trkpt>
      <trkpt lat="45.1656" lon="0.61951">
        <ele>102.2</ele>
        <time>2025-06-15T07:13:10Z</time>
      </trkpt>
      <trkpt lat="45.16561" lon="0.61958">
        <ele>102.6</ele>
        <time>2025-06-15T07:13:11Z</time>
      </trkpt>
      <trkpt lat="45.16564" lon="0.61963">
        <ele>102.8</ele>
        <time>2025-06-15T07:13:12Z</time>
      </trkpt>
      <trkpt lat="45.16566" lon="0.61968">
        <ele>103.2</ele>
        <time>2025-06-15T07:13:13Z</time>
      </trkpt>
      <trkpt lat="45.16567" lon="0.61975">
        <ele>103.4</ele>
        <time>2025-06-15T07:13:14Z</time>
      </trkpt>
      <trkpt lat="45.16568" lon="0.61982">
        <ele>103.6</ele>
        <time>2025-06-15T07:13:15Z</time>
      </trkpt>
      <trkpt lat="45.16569" lon="0.61988">
        <ele>104</ele>
        <time>2025-06-15T07:13:16Z</time>
      </trkpt>
      <trkpt lat="45.1657" lon="0.61994">
        <ele>104</ele>
        <time>2025-06-15T07:13:17Z</time>
      </trkpt>
      <trkpt lat="45.16572" lon="0.62001">
        <ele>104.4</ele>
        <time>2025-06-15T07:13:18Z</time>
      </trkpt>
      <trkpt lat="45.16572" lon="0.62007">
        <ele>104.6</ele>
        <time>2025-06-15T07:13:19Z</time>
      </trkpt>
      <trkpt lat="45.16572" lon="0.62013">
        <ele>105</ele>
        <time>2025-06-15T07:13:20Z</time>
      </trkpt>
      <trkpt lat="45.16573" lon="0.62019">
        <ele>105.2</ele>
        <time>2025-06-15T07:13:21Z</time>
      </trkpt>
      <trkpt lat="45.16574" lon="0.62025">
        <ele>105.6</ele>
        <time>2025-06-15T07:13:22Z</time>
      </trkpt>
      <trkpt lat="45.16574" lon="0.62031">
        <ele>105.8</ele>
        <time>2025-06-15T07:13:23Z</time>
      </trkpt>
      <trkpt lat="45.16574" lon="0.62038">
        <ele>106</ele>
        <time>2025-06-15T07:13:24Z</time>
      </trkpt>
      <trkpt lat="45.16575" lon="0.62043">
        <ele>106.2</ele>
        <time>2025-06-15T07:13:25Z</time>
      </trkpt>
      <trkpt lat="45.16574" lon="0.62048">
        <ele>106.4</ele>
        <time>2025-06-15T07:13:26Z</time>
      </trkpt>
      <trkpt lat="45.16574" lon="0.62052">
        <ele>106.8</ele>
        <time>2025-06-15T07:13:27Z</time>
      </trkpt>
      <trkpt lat="45.16574" lon="0.62056">
        <ele>107</ele>
        <time>2025-06-15T07:13:28Z</time>
      </trkpt>
      <trkpt lat="45.16574" lon="0.6206">
        <ele>107</ele>
        <time>2025-06-15T07:13:29Z</time>
      </trkpt>
      <trkpt lat="45.16573" lon="0.62065">
        <ele>107.4</ele>
        <time>2025-06-15T07:13:30Z</time>
      </trkpt>
      <trkpt lat="45.16573" lon="0.62069">
        <ele>107.4</ele>
        <time>2025-06-15T07:13:31Z</time>
      </trkpt>
      <trkpt lat="45.16572" lon="0.62074">
        <ele>107.6</ele>
        <time>2025-06-15T07:13:32Z</time>
      </trkpt>
      <trkpt lat="45.16571" lon="0.62079">
        <ele>107.8</ele>
        <time>2025-06-15T07:13:33Z</time>
      </trkpt>
      <trkpt lat="45.16571" lon="0.62083">
        <ele>107.8</ele>
        <time>2025-06-15T07:13:34Z</time>
      </trkpt>
      <trkpt lat="45.1657" lon="0.62087">
        <ele>108</ele>
        <time>2025-06-15T07:13:35Z</time>
      </trkpt>
      <trkpt lat="45.1657" lon="0.62091">
        <ele>108.2</ele>
        <time>2025-06-15T07:13:36Z</time>
      </trkpt>
      <trkpt lat="45.16569" lon="0.62095">
        <ele>108.4</ele>
        <time>2025-06-15T07:13:37Z</time>
      </trkpt>
      <trkpt lat="45.16568" lon="0.62098">
        <ele>108.6</ele>
        <time>2025-06-15T07:13:38Z</time>
      </trkpt>
      <trkpt lat="45.16568" lon="0.62101">
        <ele>108.6</ele>
        <time>2025-06-15T07:13:39Z</time>
      </trkpt>
      <trkpt lat="45.16567" lon="0.62104">
        <ele>108.8</ele>
        <time>2025-06-15T07:13:40Z</time>
      </trkpt>
      <trkpt lat="45.16566" lon="0.62108">
        <ele>109.2</ele>
        <time>2025-06-15T07:13:41Z</time>
      </trkpt>
      <trkpt lat="45.16566" lon="0.62113">
        <ele>109.2</ele>
        <time>2025-06-15T07:13:42Z</time>
      </trkpt>
      <trkpt lat="45.16565" lon="0.62116">
        <ele>109.4</ele>
        <time>2025-06-15T07:13:43Z</time>
      </trkpt>
      <trkpt lat="45.16565" lon="0.6212">
        <ele>109.4</ele>
        <time>2025-06-15T07:13:44Z</time>
      </trkpt>
      <trkpt lat="45.16563" lon="0.62125">
        <ele>109.6</ele>
        <time>2025-06-15T07:13:45Z</time>
      </trkpt>
      <trkpt lat="45.16562" lon="0.62129">
        <ele>109.8</ele>
        <time>2025-06-15T07:13:46Z</time>
      </trkpt>
      <trkpt lat="45.16562" lon="0.62133">
        <ele>109.8</ele>
        <time>2025-06-15T07:13:47Z</time>
      </trkpt>
      <trkpt lat="45.1656" lon="0.62137">
        <ele>110</ele>
        <time>2025-06-15T07:13:48Z</time>
      </trkpt>
      <trkpt lat="45.16559" lon="0.62141">
        <ele>110.2</ele>
        <time>2025-06-15T07:13:49Z</time>
      </trkpt>
      <trkpt lat="45.16557" lon="0.62145">
        <ele>110.2</ele>
        <time>2025-06-15T07:13:50Z</time>
      </trkpt>
      <trkpt lat="45.16556" lon="0.62148">
        <ele>110.4</ele>
        <time>2025-06-15T07:13:51Z</time>
      </trkpt>
      <trkpt lat="45.16556" lon="0.62152">
        <ele>110.6</ele>
        <time>2025-06-15T07:13:52Z</time>
      </trkpt>
      <trkpt lat="45.16555" lon="0.62156">
        <ele>110.6</ele>
        <time>2025-06-15T07:13:53Z</time>
      </trkpt>
      <trkpt lat="45.16554" lon="0.62161">
        <ele>110.8</ele>
        <time>2025-06-15T07:13:54Z</time>
      </trkpt>
      <trkpt lat="45.16553" lon="0.62164">
        <ele>111</ele>
        <time>2025-06-15T07:13:55Z</time>
      </trkpt>
      <trkpt lat="45.16552" lon="0.62169">
        <ele>111</ele>
        <time>2025-06-15T07:13:56Z</time>
      </trkpt>
      <trkpt lat="45.16551" lon="0.62173">
        <ele>111.2</ele>
        <time>2025-06-15T07:13:57Z</time>
      </trkpt>
      <trkpt lat="45.16549" lon="0.62178">
        <ele>111.2</ele>
        <time>2025-06-15T07:13:58Z</time>
      </trkpt>
      <trkpt lat="45.16548" lon="0.62182">
        <ele>111.4</ele>
        <time>2025-06-15T07:13:59Z</time>
      </trkpt>
      <trkpt lat="45.16547" lon="0.62186">
        <ele>111.4</ele>
        <time>2025-06-15T07:14:00Z</time>
      </trkpt>
      <trkpt lat="45.16546" lon="0.62191">
        <ele>111.4</ele>
        <time>2025-06-15T07:14:01Z</time>
      </trkpt>
      <trkpt lat="45.16545" lon="0.62197">
        <ele>111.6</ele>
        <time>2025-06-15T07:14:02Z</time>
      </trkpt>
      <trkpt lat="45.16544" lon="0.62202">
        <ele>111.8</ele>
        <time>2025-06-15T07:14:03Z</time>
      </trkpt>
      <trkpt lat="45.16544" lon="0.62207">
        <ele>112</ele>
        <time>2025-06-15T07:14:04Z</time>
      </trkpt>
      <trkpt lat="45.16543" lon="0.62211">
        <ele>112</ele>
        <time>2025-06-15T07:14:05Z</time>
      </trkpt>
      <trkpt lat="45.16542" lon="0.62216">
        <ele>112.2</ele>
        <time>2025-06-15T07:14:06Z</time>
      </trkpt>
      <trkpt lat="45.16542" lon="0.6222">
        <ele>112.6</ele>
        <time>2025-06-15T07:14:07Z</time>
      </trkpt>
      <trkpt lat="45.16541" lon="0.62225">
        <ele>112.6</ele>
        <time>2025-06-15T07:14:08Z</time>
      </trkpt>
      <trkpt lat="45.1654" lon="0.62229">
        <ele>113</ele>
        <time>2025-06-15T07:14:09Z</time>
      </trkpt>
      <trkpt lat="45.16539" lon="0.62233">
        <ele>113</ele>
        <time>2025-06-15T07:14:10Z</time>
      </trkpt>
      <trkpt lat="45.16539" lon="0.62238">
        <ele>113.2</ele>
        <time>2025-06-15T07:14:11Z</time>
      </trkpt>
      <trkpt lat="45.16538" lon="0.62242">
        <ele>113.2</ele>
        <time>2025-06-15T07:14:12Z</time>
      </trkpt>
      <trkpt lat="45.16537" lon="0.62247">
        <ele>113.4</ele>
        <time>2025-06-15T07:14:13Z</time>
      </trkpt>
      <trkpt lat="45.16536" lon="0.62252">
        <ele>113.4</ele>
        <time>2025-06-15T07:14:14Z</time>
      </trkpt>
      <trkpt lat="45.16535" lon="0.62256">
        <ele>113.6</ele>
        <time>2025-06-15T07:14:15Z</time>
      </trkpt>
      <trkpt lat="45.16534" lon="0.6226">
        <ele>113.6</ele>
        <time>2025-06-15T07:14:16Z</time>
      </trkpt>
      <trkpt lat="45.16533" lon="0.62264">
        <ele>113.8</ele>
        <time>2025-06-15T07:14:17Z</time>
      </trkpt>
      <trkpt lat="45.16532" lon="0.62269">
        <ele>113.8</ele>
        <time>2025-06-15T07:14:18Z</time>
      </trkpt>
      <trkpt lat="45.16531" lon="0.62273">
        <ele>114</ele>
        <time>2025-06-15T07:14:19Z</time>
      </trkpt>
      <trkpt lat="45.1653" lon="0.62278">
        <ele>114.2</ele>
        <time>2025-06-15T07:14:20Z</time>
      </trkpt>
      <trkpt lat="45.1653" lon="0.62282">
        <ele>114.4</ele>
        <time>2025-06-15T07:14:21Z</time>
      </trkpt>
      <trkpt lat="45.16528" lon="0.62287">
        <ele>114.4</ele>
        <time>2025-06-15T07:14:22Z</time>
      </trkpt>
      <trkpt lat="45.16528" lon="0.62291">
        <ele>114.6</ele>
        <time>2025-06-15T07:14:23Z</time>
      </trkpt>
      <trkpt lat="45.16526" lon="0.62296">
        <ele>114.8</ele>
        <time>2025-06-15T07:14:24Z</time>
      </trkpt>
      <trkpt lat="45.16525" lon="0.623">
        <ele>114.8</ele>
        <time>2025-06-15T07:14:25Z</time>
      </trkpt>
      <trkpt lat="45.16524" lon="0.62305">
        <ele>115</ele>
        <time>2025-06-15T07:14:26Z</time>
      </trkpt>
      <trkpt lat="45.16523" lon="0.6231">
        <ele>115.2</ele>
        <time>2025-06-15T07:14:27Z</time>
      </trkpt>
      <trkpt lat="45.16523" lon="0.62314">
        <ele>115.2</ele>
        <time>2025-06-15T07:14:28Z</time>
      </trkpt>
      <trkpt lat="45.16523" lon="0.62318">
        <ele>115.4</ele>
        <time>2025-06-15T07:14:29Z</time>
      </trkpt>
      <trkpt lat="45.16522" lon="0.6232">
        <ele>115.6</ele>
        <time>2025-06-15T07:14:30Z</time>
      </trkpt>
      <trkpt lat="45.1652" lon="0.62321">
        <ele>115.6</ele>
        <time>2025-06-15T07:14:31Z</time>
      </trkpt>
      <trkpt lat="45.16517" lon="0.62322">
        <ele>115.8</ele>
        <time>2025-06-15T07:14:32Z</time>
      </trkpt>
      <trkpt lat="45.16514" lon="0.62322">
        <ele>115.8</ele>
        <time>2025-06-15T07:14:33Z</time>
      </trkpt>
      <trkpt lat="45.16511" lon="0.62322">
        <ele>115.8</ele>
        <time>2025-06-15T07:14:34Z</time>
      </trkpt>
      <trkpt lat="45.16507" lon="0.62322">
        <ele>115.8</ele>
        <time>2025-06-15T07:14:35Z</time>
      </trkpt>
      <trkpt lat="45.16504" lon="0.62322">
        <ele>115.8</ele>
        <time>2025-06-15T07:14:36Z</time>
      </trkpt>
      <trkpt lat="45.16501" lon="0.62322">
        <ele>116</ele>
        <time>2025-06-15T07:14:37Z</time>
      </trkpt>
      <trkpt lat="45.16498" lon="0.62322">
        <ele>116.2</ele>
        <time>2025-06-15T07:14:38Z</time>
      </trkpt>
      <trkpt lat="45.16496" lon="0.62323">
        <ele>116.6</ele>
        <time>2025-06-15T07:14:39Z</time>
      </trkpt>
      <trkpt lat="45.16493" lon="0.62323">
        <ele>116.8</ele>
        <time>2025-06-15T07:14:40Z</time>
      </trkpt>
      <trkpt lat="45.1649" lon="0.62322">
        <ele>117.2</ele>
        <time>2025-06-15T07:14:41Z</time>
      </trkpt>
      <trkpt lat="45.16488" lon="0.62322">
        <ele>117.6</ele>
        <time>2025-06-15T07:14:42Z</time>
      </trkpt>
      <trkpt lat="45.16485" lon="0.62323">
        <ele>118</ele>
        <time>2025-06-15T07:14:43Z</time>
      </trkpt>
      <trkpt lat="45.16483" lon="0.62323">
        <ele>118.2</ele>
        <time>2025-06-15T07:14:44Z</time>
      </trkpt>
      <trkpt lat="45.16481" lon="0.62323">
        <ele>118.6</ele>
        <time>2025-06-15T07:14:45Z</time>
      </trkpt>
      <trkpt lat="45.16478" lon="0.62323">
        <ele>118.8</ele>
        <time>2025-06-15T07:14:46Z</time>
      </trkpt>
      <trkpt lat="45.16475" lon="0.62322">
        <ele>119.2</ele>
        <time>2025-06-15T07:14:47Z</time>
      </trkpt>
      <trkpt lat="45.16473" lon="0.62322">
        <ele>119.4</ele>
        <time>2025-06-15T07:14:48Z</time>
      </trkpt>
      <trkpt lat="45.16471" lon="0.62323">
        <ele>119.8</ele>
        <time>2025-06-15T07:14:49Z</time>
      </trkpt>
      <trkpt lat="45.16468" lon="0.62323">
        <ele>120</ele>
        <time>2025-06-15T07:14:50Z</time>
      </trkpt>
      <trkpt lat="45.16465" lon="0.62322">
        <ele>120.4</ele>
        <time>2025-06-15T07:14:51Z</time>
      </trkpt>
      <trkpt lat="45.16462" lon="0.62322">
        <ele>120.6</ele>
        <time>2025-06-15T07:14:52Z</time>
      </trkpt>
      <trkpt lat="45.16459" lon="0.62322">
        <ele>120.8</ele>
        <time>2025-06-15T07:14:53Z</time>
      </trkpt>
      <trkpt lat="45.16457" lon="0.62321">
        <ele>121</ele>
        <time>2025-06-15T07:14:54Z</time>
      </trkpt>
      <trkpt lat="45.16454" lon="0.62321">
        <ele>121.4</ele>
        <time>2025-06-15T07:14:55Z</time>
      </trkpt>
      <trkpt lat="45.16452" lon="0.62321">
        <ele>121.6</ele>
        <time>2025-06-15T07:14:56Z</time>
      </trkpt>
      <trkpt lat="45.16449" lon="0.62321">
        <ele>121.8</ele>
        <time>2025-06-15T07:14:57Z</time>
      </trkpt>
      <trkpt lat="45.16447" lon="0.6232">
        <ele>122</ele>
        <time>2025-06-15T07:14:58Z</time>
      </trkpt>
      <trkpt lat="45.16444" lon="0.62321">
        <ele>122.2</ele>
        <time>2025-06-15T07:14:59Z</time>
      </trkpt>
      <trkpt lat="45.16442" lon="0.62322">
        <ele>122.4</ele>
        <time>2025-06-15T07:15:00Z</time>
      </trkpt>
      <trkpt lat="45.16439" lon="0.62322">
        <ele>122.6</ele>
        <time>2025-06-15T07:15:01Z</time>
      </trkpt>
      <trkpt lat="45.16437" lon="0.62321">
        <ele>122.8</ele>
        <time>2025-06-15T07:15:02Z</time>
      </trkpt>
      <trkpt lat="45.16434" lon="0.62322">
        <ele>123</ele>
        <time>2025-06-15T07:15:03Z</time>
      </trkpt>
      <trkpt lat="45.16432" lon="0.62321">
        <ele>123.2</ele>
        <time>2025-06-15T07:15:04Z</time>
      </trkpt>
      <trkpt lat="45.16429" lon="0.62321">
        <ele>123.4</ele>
        <time>2025-06-15T07:15:05Z</time>
      </trkpt>
      <trkpt lat="45.16427" lon="0.6232">
        <ele>123.6</ele>
        <time>2025-06-15T07:15:06Z</time>
      </trkpt>
      <trkpt lat="45.16425" lon="0.6232">
        <ele>123.8</ele>
        <time>2025-06-15T07:15:07Z</time>
      </trkpt>
      <trkpt lat="45.16422" lon="0.62319">
        <ele>124</ele>
        <time>2025-06-15T07:15:08Z</time>
      </trkpt>
      <trkpt lat="45.1642" lon="0.62319">
        <ele>124.2</ele>
        <time>2025-06-15T07:15:09Z</time>
      </trkpt>
      <trkpt lat="45.16417" lon="0.62319">
        <ele>124.4</ele>
        <time>2025-06-15T07:15:10Z</time>
      </trkpt>
      <trkpt lat="45.16414" lon="0.62319">
        <ele>124.6</ele>
        <time>2025-06-15T07:15:11Z</time>
      </trkpt>
      <trkpt lat="45.16411" lon="0.62319">
        <ele>124.8</ele>
        <time>2025-06-15T07:15:12Z</time>
      </trkpt>
      <trkpt lat="45.16409" lon="0.62318">
        <ele>125</ele>
        <time>2025-06-15T07:15:13Z</time>
      </trkpt>
      <trkpt lat="45.16406" lon="0.62318">
        <ele>125</ele>
        <time>2025-06-15T07:15:14Z</time>
      </trkpt>
      <trkpt lat="45.16403" lon="0.62318">
        <ele>125.2</ele>
        <time>2025-06-15T07:15:15Z</time>
      </trkpt>
      <trkpt lat="45.164" lon="0.62318">
        <ele>125.4</ele>
        <time>2025-06-15T07:15:16Z</time>
      </trkpt>
      <trkpt lat="45.16398" lon="0.62318">
        <ele>125.4</ele>
        <time>2025-06-15T07:15:17Z</time>
      </trkpt>
      <trkpt lat="45.16395" lon="0.62319">
        <ele>125.6</ele>
        <time>2025-06-15T07:15:18Z</time>
      </trkpt>
      <trkpt lat="45.16392" lon="0.6232">
        <ele>125.8</ele>
        <time>2025-06-15T07:15:19Z</time>
      </trkpt>
      <trkpt lat="45.1639" lon="0.6232">
        <ele>126</ele>
        <time>2025-06-15T07:15:20Z</time>
      </trkpt>
      <trkpt lat="45.16387" lon="0.6232">
        <ele>126.2</ele>
        <time>2025-06-15T07:15:21Z</time>
      </trkpt>
      <trkpt lat="45.16385" lon="0.6232">
        <ele>126.4</ele>
        <time>2025-06-15T07:15:22Z</time>
      </trkpt>
      <trkpt lat="45.16382" lon="0.6232">
        <ele>126.6</ele>
        <time>2025-06-15T07:15:23Z</time>
      </trkpt>
      <trkpt lat="45.16379" lon="0.62321">
        <ele>126.8</ele>
        <time>2025-06-15T07:15:24Z</time>
      </trkpt>
      <trkpt lat="45.16376" lon="0.6232">
        <ele>127</ele>
        <time>2025-06-15T07:15:25Z</time>
      </trkpt>
      <trkpt lat="45.16373" lon="0.6232">
        <ele>127.2</ele>
        <time>2025-06-15T07:15:26Z</time>
      </trkpt>
      <trkpt lat="45.16371" lon="0.62321">
        <ele>127.4</ele>
        <time>2025-06-15T07:15:27Z</time>
      </trkpt>
      <trkpt lat="45.16368" lon="0.62321">
        <ele>127.6</ele>
        <time>2025-06-15T07:15:28Z</time>
      </trkpt>
      <trkpt lat="45.16366" lon="0.62321">
        <ele>127.8</ele>
        <time>2025-06-15T07:15:29Z</time>
      </trkpt>
      <trkpt lat="45.16363" lon="0.62321">
        <ele>128</ele>
        <time>2025-06-15T07:15:30Z</time>
      </trkpt>
      <trkpt lat="45.1636" lon="0.62321">
        <ele>128.2</ele>
        <time>2025-06-15T07:15:31Z</time>
      </trkpt>
      <trkpt lat="45.16357" lon="0.62321">
        <ele>128.2</ele>
        <time>2025-06-15T07:15:32Z</time>
      </trkpt>
      <trkpt lat="45.16355" lon="0.62321">
        <ele>128.4</ele>
        <time>2025-06-15T07:15:33Z</time>
      </trkpt>
      <trkpt lat="45.16352" lon="0.62321">
        <ele>128.6</ele>
        <time>2025-06-15T07:15:34Z</time>
      </trkpt>
      <trkpt lat="45.16349" lon="0.62321">
        <ele>128.6</ele>
        <time>2025-06-15T07:15:35Z</time>
      </trkpt>
      <trkpt lat="45.16346" lon="0.62321">
        <ele>128.8</ele>
        <time>2025-06-15T07:15:36Z</time>
      </trkpt>
      <trkpt lat="45.16344" lon="0.62321">
        <ele>128.8</ele>
        <time>2025-06-15T07:15:37Z</time>
      </trkpt>
      <trkpt lat="45.16341" lon="0.62322">
        <ele>128.8</ele>
        <time>2025-06-15T07:15:38Z</time>
      </trkpt>
      <trkpt lat="45.16338" lon="0.62322">
        <ele>128.8</ele>
        <time>2025-06-15T07:15:39Z</time>
      </trkpt>
      <trkpt lat="45.16335" lon="0.6232">
        <ele>128.8</ele>
        <time>2025-06-15T07:15:40Z</time>
      </trkpt>
      <trkpt lat="45.16333" lon="0.62318">
        <ele>128.8</ele>
        <time>2025-06-15T07:15:41Z</time>
      </trkpt>
      <trkpt lat="45.16332" lon="0.62314">
        <ele>128.8</ele>
        <time>2025-06-15T07:15:42Z</time>
      </trkpt>
      <trkpt lat="45.16331" lon="0.6231">
        <ele>128.8</ele>
        <time>2025-06-15T07:15:43Z</time>
      </trkpt>
      <trkpt lat="45.16331" lon="0.62306">
        <ele>128.8</ele>
        <time>2025-06-15T07:15:44Z</time>
      </trkpt>
      <trkpt lat="45.16329" lon="0.62302">
        <ele>128.8</ele>
        <time>2025-06-15T07:15:45Z</time>
      </trkpt>
      <trkpt lat="45.16327" lon="0.623">
        <ele>128.6</ele>
        <time>2025-06-15T07:15:46Z</time>
      </trkpt>
      <trkpt lat="45.16324" lon="0.623">
        <ele>128.6</ele>
        <time>2025-06-15T07:15:47Z</time>
      </trkpt>
      <trkpt lat="45.16322" lon="0.62302">
        <ele>128.6</ele>
        <time>2025-06-15T07:15:48Z</time>
      </trkpt>
      <trkpt lat="45.1632" lon="0.62306">
        <ele>128.4</ele>
        <time>2025-06-15T07:15:49Z</time>
      </trkpt>
      <trkpt lat="45.16318" lon="0.62309">
        <ele>128.4</ele>
        <time>2025-06-15T07:15:50Z</time>
      </trkpt>
      <trkpt lat="45.16316" lon="0.62312">
        <ele>128.4</ele>
        <time>2025-06-15T07:15:51Z</time>
      </trkpt>
      <trkpt lat="45.16313" lon="0.62315">
        <ele>128.4</ele>
        <time>2025-06-15T07:15:52Z</time>
      </trkpt>
      <trkpt lat="45.16311" lon="0.62319">
        <ele>128.4</ele>
        <time>2025-06-15T07:15:53Z</time>
      </trkpt>
      <trkpt lat="45.16309" lon="0.62322">
        <ele>128.4</ele>
        <time>2025-06-15T07:15:54Z</time>
      </trkpt>
      <trkpt lat="45.16306" lon="0.62325">
        <ele>128.4</ele>
        <time>2025-06-15T07:15:55Z</time>
      </trkpt>
      <trkpt lat="45.16302" lon="0.62328">
        <ele>128.4</ele>
        <time>2025-06-15T07:15:56Z</time>
      </trkpt>
      <trkpt lat="45.16299" lon="0.62331">
        <ele>128.2</ele>
        <time>2025-06-15T07:15:57Z</time>
      </trkpt>
      <trkpt lat="45.16295" lon="0.62334">
        <ele>128.2</ele>
        <time>2025-06-15T07:15:58Z</time>
      </trkpt>
      <trkpt lat="45.16291" lon="0.62336">
        <ele>128.2</ele>
        <time>2025-06-15T07:15:59Z</time>
      </trkpt>
      <trkpt lat="45.16287" lon="0.62339">
        <ele>128.2</ele>
        <time>2025-06-15T07:16:00Z</time>
      </trkpt>
      <trkpt lat="45.16282" lon="0.62341">
        <ele>128</ele>
        <time>2025-06-15T07:16:01Z</time>
      </trkpt>
      <trkpt lat="45.16277" lon="0.62343">
        <ele>128</ele>
        <time>2025-06-15T07:16:02Z</time>
      </trkpt>
      <trkpt lat="45.16272" lon="0.62345">
        <ele>127.8</ele>
        <time>2025-06-15T07:16:03Z</time>
      </trkpt>
      <trkpt lat="45.16267" lon="0.62347">
        <ele>127.8</ele>
        <time>2025-06-15T07:16:04Z</time>
      </trkpt>
      <trkpt lat="45.16261" lon="0.62349">
        <ele>127.6</ele>
        <time>2025-06-15T07:16:05Z</time>
      </trkpt>
      <trkpt lat="45.16256" lon="0.62351">
        <ele>127.4</ele>
        <time>2025-06-15T07:16:06Z</time>
      </trkpt>
      <trkpt lat="45.16251" lon="0.62353">
        <ele>127.2</ele>
        <time>2025-06-15T07:16:07Z</time>
      </trkpt>
      <trkpt lat="45.16247" lon="0.62355">
        <ele>127</ele>
        <time>2025-06-15T07:16:08Z</time>
      </trkpt>
      <trkpt lat="45.16242" lon="0.62356">
        <ele>126.8</ele>
        <time>2025-06-15T07:16:09Z</time>
      </trkpt>
      <trkpt lat="45.16238" lon="0.62354">
        <ele>126.6</ele>
        <time>2025-06-15T07:16:10Z</time>
      </trkpt>
      <trkpt lat="45.16236" lon="0.6235">
        <ele>126.6</ele>
        <time>2025-06-15T07:16:11Z</time>
      </trkpt>
      <trkpt lat="45.16235" lon="0.62344">
        <ele>126.4</ele>
        <time>2025-06-15T07:16:12Z</time>
      </trkpt>
      <trkpt lat="45.16234" lon="0.62336">
        <ele>126</ele>
        <time>2025-06-15T07:16:13Z</time>
      </trkpt>
      <trkpt lat="45.16233" lon="0.62329">
        <ele>125.8</ele>
        <time>2025-06-15T07:16:14Z</time>
      </trkpt>
      <trkpt lat="45.16232" lon="0.62321">
        <ele>125.6</ele>
        <time>2025-06-15T07:16:15Z</time>
      </trkpt>
      <trkpt lat="45.16231" lon="0.62312">
        <ele>125.2</ele>
        <time>2025-06-15T07:16:16Z</time>
      </trkpt>
      <trkpt lat="45.1623" lon="0.62303">
        <ele>125</ele>
        <time>2025-06-15T07:16:17Z</time>
      </trkpt>
      <trkpt lat="45.16229" lon="0.62294">
        <ele>124.6</ele>
        <time>2025-06-15T07:16:18Z</time>
      </trkpt>
      <trkpt lat="45.16227" lon="0.62284">
        <ele>124.4</ele>
        <time>2025-06-15T07:16:19Z</time>
      </trkpt>
      <trkpt lat="45.16226" lon="0.62274">
        <ele>124.2</ele>
        <time>2025-06-15T07:16:20Z</time>
      </trkpt>
      <trkpt lat="45.16225" lon="0.62264">
        <ele>124</ele>
        <time>2025-06-15T07:16:21Z</time>
      </trkpt>
      <trkpt lat="45.16224" lon="0.62254">
        <ele>123.6</ele>
        <time>2025-06-15T07:16:22Z</time>
      </trkpt>
      <trkpt lat="45.16223" lon="0.62244">
        <ele>123.4</ele>
        <time>2025-06-15T07:16:23Z</time>
      </trkpt>
      <trkpt lat="45.16222" lon="0.62234">
        <ele>123.2</ele>
        <time>2025-06-15T07:16:24Z</time>
      </trkpt>
      <trkpt lat="45.1622" lon="0.62224">
        <ele>123</ele>
        <time>2025-06-15T07:16:25Z</time>
      </trkpt>
      <trkpt lat="45.1622" lon="0.62214">
        <ele>122.8</ele>
        <time>2025-06-15T07:16:26Z</time>
      </trkpt>
      <trkpt lat="45.16219" lon="0.62205">
        <ele>122.6</ele>
        <time>2025-06-15T07:16:27Z</time>
      </trkpt>
      <trkpt lat="45.16219" lon="0.62195">
        <ele>122.4</ele>
        <time>2025-06-15T07:16:28Z</time>
      </trkpt>
      <trkpt lat="45.16218" lon="0.62184">
        <ele>122</ele>
        <time>2025-06-15T07:16:29Z</time>
      </trkpt>
      <trkpt lat="45.16218" lon="0.62174">
        <ele>121.8</ele>
        <time>2025-06-15T07:16:30Z</time>
      </trkpt>
      <trkpt lat="45.16216" lon="0.62163">
        <ele>121.4</ele>
        <time>2025-06-15T07:16:31Z</time>
      </trkpt>
      <trkpt lat="45.16215" lon="0.62151">
        <ele>121</ele>
        <time>2025-06-15T07:16:32Z</time>
      </trkpt>
      <trkpt lat="45.16214" lon="0.6214">
        <ele>120.8</ele>
        <time>2025-06-15T07:16:33Z</time>
      </trkpt>
      <trkpt lat="45.16214" lon="0.62128">
        <ele>120.2</ele>
        <time>2025-06-15T07:16:34Z</time>
      </trkpt>
      <trkpt lat="45.16213" lon="0.62116">
        <ele>119.4</ele>
        <time>2025-06-15T07:16:35Z</time>
      </trkpt>
      <trkpt lat="45.16213" lon="0.62103">
        <ele>118.6</ele>
        <time>2025-06-15T07:16:36Z</time>
      </trkpt>
      <trkpt lat="45.16212" lon="0.62089">
        <ele>118</ele>
        <time>2025-06-15T07:16:37Z</time>
      </trkpt>
      <trkpt lat="45.16212" lon="0.62076">
        <ele>117.2</ele>
        <time>2025-06-15T07:16:38Z</time>
      </trkpt>
      <trkpt lat="45.16212" lon="0.62062">
        <ele>116.6</ele>
        <time>2025-06-15T07:16:39Z</time>
      </trkpt>
      <trkpt lat="45.16212" lon="0.62047">
        <ele>115.6</ele>
        <time>2025-06-15T07:16:40Z</time>
      </trkpt>
      <trkpt lat="45.16213" lon="0.62031">
        <ele>114.6</ele>
        <time>2025-06-15T07:16:41Z</time>
      </trkpt>
      <trkpt lat="45.16214" lon="0.62017">
        <ele>113.8</ele>
        <time>2025-06-15T07:16:42Z</time>
      </trkpt>
      <trkpt lat="45.16216" lon="0.62002">
        <ele>113</ele>
        <time>2025-06-15T07:16:43Z</time>
      </trkpt>
      <trkpt lat="45.16217" lon="0.61987">
        <ele>112</ele>
        <time>2025-06-15T07:16:44Z</time>
      </trkpt>
      <trkpt lat="45.16216" lon="0.61971">
        <ele>110.8</ele>
        <time>2025-06-15T07:16:45Z</time>
      </trkpt>
      <trkpt lat="45.16215" lon="0.61955">
        <ele>109</ele>
        <time>2025-06-15T07:16:46Z</time>
      </trkpt>
      <trkpt lat="45.16214" lon="0.61939">
        <ele>107.6</ele>
        <time>2025-06-15T07:16:47Z</time>
      </trkpt>
      <trkpt lat="45.16212" lon="0.61922">
        <ele>106</ele>
        <time>2025-06-15T07:16:48Z</time>
      </trkpt>
      <trkpt lat="45.16212" lon="0.61905">
        <ele>104.4</ele>
        <time>2025-06-15T07:16:49Z</time>
      </trkpt>
      <trkpt lat="45.16212" lon="0.61889">
        <ele>102.6</ele>
        <time>2025-06-15T07:16:50Z</time>
      </trkpt>
      <trkpt lat="45.16212" lon="0.61876">
        <ele>101</ele>
        <time>2025-06-15T07:16:51Z</time>
      </trkpt>
      <trkpt lat="45.16212" lon="0.61866">
        <ele>99.4</ele>
        <time>2025-06-15T07:16:52Z</time>
      </trkpt>
      <trkpt lat="45.16212" lon="0.61858">
        <ele>98.2</ele>
        <time>2025-06-15T07:16:53Z</time>
      </trkpt>
      <trkpt lat="45.16211" lon="0.61853">
        <ele>97.2</ele>
        <time>2025-06-15T07:16:54Z</time>
      </trkpt>
      <trkpt lat="45.16209" lon="0.61849">
        <ele>96.6</ele>
        <time>2025-06-15T07:16:55Z</time>
      </trkpt>
      <trkpt lat="45.16206" lon="0.61847">
        <ele>96</ele>
        <time>2025-06-15T07:16:56Z</time>
      </trkpt>
      <trkpt lat="45.16202" lon="0.61847">
        <ele>95.4</ele>
        <time>2025-06-15T07:16:57Z</time>
      </trkpt>
      <trkpt lat="45.16198" lon="0.61849">
        <ele>94.8</ele>
        <time>2025-06-15T07:16:58Z</time>
      </trkpt>
      <trkpt lat="45.16194" lon="0.61852">
        <ele>94.6</ele>
        <time>2025-06-15T07:16:59Z</time>
      </trkpt>
      <trkpt lat="45.1619" lon="0.61855">
        <ele>94.2</ele>
        <time>2025-06-15T07:17:00Z</time>
      </trkpt>
      <trkpt lat="45.16186" lon="0.61858">
        <ele>94</ele>
        <time>2025-06-15T07:17:01Z</time>
      </trkpt>
      <trkpt lat="45.16181" lon="0.61861">
        <ele>93.8</ele>
        <time>2025-06-15T07:17:02Z</time>
      </trkpt>
      <trkpt lat="45.16175" lon="0.61864">
        <ele>93.6</ele>
        <time>2025-06-15T07:17:03Z</time>
      </trkpt>
      <trkpt lat="45.1617" lon="0.61867">
        <ele>93.6</ele>
        <time>2025-06-15T07:17:04Z</time>
      </trkpt>
      <trkpt lat="45.16163" lon="0.61869">
        <ele>93.6</ele>
        <time>2025-06-15T07:17:05Z</time>
      </trkpt>
      <trkpt lat="45.16156" lon="0.6187">
        <ele>93.6</ele>
        <time>2025-06-15T07:17:06Z</time>
      </trkpt>
      <trkpt lat="45.16149" lon="0.61872">
        <ele>93.6</ele>
        <time>2025-06-15T07:17:07Z</time>
      </trkpt>
      <trkpt lat="45.16142" lon="0.61874">
        <ele>93.4</ele>
        <time>2025-06-15T07:17:08Z</time>
      </trkpt>
      <trkpt lat="45.16134" lon="0.61877">
        <ele>93</ele>
        <time>2025-06-15T07:17:09Z</time>
      </trkpt>
      <trkpt lat="45.16127" lon="0.61881">
        <ele>92.8</ele>
        <time>2025-06-15T07:17:10Z</time>
      </trkpt>
      <trkpt lat="45.1612" lon="0.61886">
        <ele>92.4</ele>
        <time>2025-06-15T07:17:11Z</time>
      </trkpt>
      <trkpt lat="45.16113" lon="0.61891">
        <ele>92.2</ele>
        <time>2025-06-15T07:17:12Z</time>
      </trkpt>
      <trkpt lat="45.16108" lon="0.61897">
        <ele>92</ele>
        <time>2025-06-15T07:17:13Z</time>
      </trkpt>
      <trkpt lat="45.16104" lon="0.61905">
        <ele>91.6</ele>
        <time>2025-06-15T07:17:14Z</time>
      </trkpt>
      <trkpt lat="45.161" lon="0.61913">
        <ele>91.4</ele>
        <time>2025-06-15T07:17:15Z</time>
      </trkpt>
      <trkpt lat="45.16096" lon="0.61919">
        <ele>91.4</ele>
        <time>2025-06-15T07:17:16Z</time>
      </trkpt>
      <trkpt lat="45.16092" lon="0.61926">
        <ele>91.6</ele>
        <time>2025-06-15T07:17:17Z</time>
      </trkpt>
      <trkpt lat="45.16088" lon="0.61932">
        <ele>92</ele>
        <time>2025-06-15T07:17:18Z</time>
      </trkpt>
      <trkpt lat="45.16085" lon="0.61938">
        <ele>92.4</ele>
        <time>2025-06-15T07:17:19Z</time>
      </trkpt>
      <trkpt lat="45.16082" lon="0.61945">
        <ele>93</ele>
        <time>2025-06-15T07:17:20Z</time>
      </trkpt>
      <trkpt lat="45.16079" lon="0.6195">
        <ele>93.2</ele>
        <time>2025-06-15T07:17:21Z</time>
      </trkpt>
      <trkpt lat="45.16075" lon="0.61955">
        <ele>93.6</ele>
        <time>2025-06-15T07:17:22Z</time>
      </trkpt>
      <trkpt lat="45.16071" lon="0.61961">
        <ele>93.6</ele>
        <time>2025-06-15T07:17:23Z</time>
      </trkpt>
      <trkpt lat="45.16066" lon="0.61965">
        <ele>93.8</ele>
        <time>2025-06-15T07:17:24Z</time>
      </trkpt>
      <trkpt lat="45.16064" lon="0.61967">
        <ele>93.6</ele>
        <time>2025-06-15T07:17:25Z</time>
      </trkpt>
      <trkpt lat="45.16063" lon="0.61968">
        <ele>93.4</ele>
        <time>2025-06-15T07:17:26Z</time>
      </trkpt>
      <trkpt lat="45.16062" lon="0.61967">
        <ele>93.2</ele>
        <time>2025-06-15T07:17:27Z</time>
      </trkpt>
      <trkpt lat="45.1606" lon="0.61968">
        <ele>93</ele>
        <time>2025-06-15T07:17:28Z</time>
      </trkpt>
      <trkpt lat="45.16058" lon="0.61967">
        <ele>92.6</ele>
        <time>2025-06-15T07:17:29Z</time>
      </trkpt>
      <trkpt lat="45.16055" lon="0.61965">
        <ele>92.4</ele>
        <time>2025-06-15T07:17:30Z</time>
      </trkpt>
      <trkpt lat="45.16052" lon="0.61965">
        <ele>92</ele>
        <time>2025-06-15T07:17:31Z</time>
      </trkpt>
      <trkpt lat="45.16048" lon="0.61964">
        <ele>91.8</ele>
        <time>2025-06-15T07:17:32Z</time>
      </trkpt>
      <trkpt lat="45.16043" lon="0.61963">
        <ele>91.4</ele>
        <time>2025-06-15T07:17:33Z</time>
      </trkpt>
      <trkpt lat="45.16038" lon="0.61962">
        <ele>91</ele>
        <time>2025-06-15T07:17:34Z</time>
      </trkpt>
      <trkpt lat="45.16032" lon="0.61961">
        <ele>90.6</ele>
        <time>2025-06-15T07:17:35Z</time>
      </trkpt>
      <trkpt lat="45.16026" lon="0.6196">
        <ele>90</ele>
        <time>2025-06-15T07:17:36Z</time>
      </trkpt>
      <trkpt lat="45.16019" lon="0.61961">
        <ele>89</ele>
        <time>2025-06-15T07:17:37Z</time>
      </trkpt>
      <trkpt lat="45.16011" lon="0.61961">
        <ele>88.2</ele>
        <time>2025-06-15T07:17:38Z</time>
      </trkpt>
      <trkpt lat="45.16003" lon="0.61962">
        <ele>87.2</ele>
        <time>2025-06-15T07:17:39Z</time>
      </trkpt>
      <trkpt lat="45.15994" lon="0.61964">
        <ele>86.2</ele>
        <time>2025-06-15T07:17:40Z</time>
      </trkpt>
      <trkpt lat="45.15987" lon="0.61966">
        <ele>85.2</ele>
        <time>2025-06-15T07:17:41Z</time>
      </trkpt>
      <trkpt lat="45.15982" lon="0.6197">
        <ele>84.2</ele>
        <time>2025-06-15T07:17:42Z</time>
      </trkpt>
      <trkpt lat="45.15978" lon="0.61972">
        <ele>83.4</ele>
        <time>2025-06-15T07:17:43Z</time>
      </trkpt>
      <trkpt lat="45.15975" lon="0.61973">
        <ele>82.6</ele>
        <time>2025-06-15T07:17:44Z</time>
      </trkpt>
      <trkpt lat="45.15971" lon="0.61974">
        <ele>82</ele>
        <time>2025-06-15T07:17:45Z</time>
      </trkpt>
      <trkpt lat="45.15967" lon="0.61977">
        <ele>81.8</ele>
        <time>2025-06-15T07:17:46Z</time>
      </trkpt>
      <trkpt lat="45.15964" lon="0.61981">
        <ele>81.4</ele>
        <time>2025-06-15T07:17:47Z</time>
      </trkpt>
      <trkpt lat="45.15961" lon="0.61986">
        <ele>81.2</ele>
        <time>2025-06-15T07:17:48Z</time>
      </trkpt>
      <trkpt lat="45.15957" lon="0.61991">
        <ele>81</ele>
        <time>2025-06-15T07:17:49Z</time>
      </trkpt>
      <trkpt lat="45.15953" lon="0.61996">
        <ele>80.8</ele>
        <time>2025-06-15T07:17:50Z</time>
      </trkpt>
      <trkpt lat="45.15949" lon="0.62001">
        <ele>80.8</ele>
        <time>2025-06-15T07:17:51Z</time>
      </trkpt>
      <trkpt lat="45.15945" lon="0.62006">
        <ele>80.8</ele>
        <time>2025-06-15T07:17:52Z</time>
      </trkpt>
      <trkpt lat="45.1594" lon="0.62011">
        <ele>80.8</ele>
        <time>2025-06-15T07:17:53Z</time>
      </trkpt>
      <trkpt lat="45.15935" lon="0.62015">
        <ele>80.8</ele>
        <time>2025-06-15T07:17:54Z</time>
      </trkpt>
      <trkpt lat="45.1593" lon="0.62018">
        <ele>80.8</ele>
        <time>2025-06-15T07:17:55Z</time>
      </trkpt>
      <trkpt lat="45.15924" lon="0.6202">
        <ele>81</ele>
        <time>2025-06-15T07:17:56Z</time>
      </trkpt>
      <trkpt lat="45.15919" lon="0.6202">
        <ele>81</ele>
        <time>2025-06-15T07:17:57Z</time>
      </trkpt>
      <trkpt lat="45.15913" lon="0.62021">
        <ele>81</ele>
        <time>2025-06-15T07:17:58Z</time>
      </trkpt>
      <trkpt lat="45.15907" lon="0.62021">
        <ele>81</ele>
        <time>2025-06-15T07:17:59Z</time>
      </trkpt>
      <trkpt lat="45.15901" lon="0.62021">
        <ele>80.8</ele>
        <time>2025-06-15T07:18:00Z</time>
      </trkpt>
      <trkpt lat="45.15896" lon="0.62022">
        <ele>80.8</ele>
        <time>2025-06-15T07:18:01Z</time>
      </trkpt>
      <trkpt lat="45.1589" lon="0.62022">
        <ele>80.8</ele>
        <time>2025-06-15T07:18:02Z</time>
      </trkpt>
      <trkpt lat="45.15885" lon="0.62021">
        <ele>80.8</ele>
        <time>2025-06-15T07:18:03Z</time>
      </trkpt>
      <trkpt lat="45.1588" lon="0.6202">
        <ele>80.8</ele>
        <time>2025-06-15T07:18:04Z</time>
      </trkpt>
      <trkpt lat="45.15875" lon="0.62019">
        <ele>80.8</ele>
        <time>2025-06-15T07:18:05Z</time>
      </trkpt>
      <trkpt lat="45.15871" lon="0.62019">
        <ele>80.8</ele>
        <time>2025-06-15T07:18:06Z</time>
      </trkpt>
      <trkpt lat="45.15866" lon="0.62019">
        <ele>81</ele>
        <time>2025-06-15T07:18:07Z</time>
      </trkpt>
      <trkpt lat="45.15861" lon="0.62019">
        <ele>81</ele>
        <time>2025-06-15T07:18:08Z</time>
      </trkpt>
      <trkpt lat="45.15855" lon="0.6202">
        <ele>81</ele>
        <time>2025-06-15T07:18:09Z</time>
      </trkpt>
      <trkpt lat="45.1585" lon="0.62021">
        <ele>81</ele>
        <time>2025-06-15T07:18:10Z</time>
      </trkpt>
      <trkpt lat="45.15844" lon="0.62022">
        <ele>81</ele>
        <time>2025-06-15T07:18:11Z</time>
      </trkpt>
      <trkpt lat="45.15839" lon="0.62023">
        <ele>81</ele>
        <time>2025-06-15T07:18:12Z</time>
      </trkpt>
      <trkpt lat="45.15833" lon="0.62024">
        <ele>81</ele>
        <time>2025-06-15T07:18:13Z</time>
      </trkpt>
      <trkpt lat="45.15828" lon="0.62025">
        <ele>81</ele>
        <time>2025-06-15T07:18:14Z</time>
      </trkpt>
      <trkpt lat="45.15822" lon="0.62027">
        <ele>81</ele>
        <time>2025-06-15T07:18:15Z</time>
      </trkpt>
      <trkpt lat="45.15817" lon="0.62028">
        <ele>81</ele>
        <time>2025-06-15T07:18:16Z</time>
      </trkpt>
      <trkpt lat="45.15812" lon="0.6203">
        <ele>81</ele>
        <time>2025-06-15T07:18:17Z</time>
      </trkpt>
      <trkpt lat="45.15806" lon="0.62032">
        <ele>81</ele>
        <time>2025-06-15T07:18:18Z</time>
      </trkpt>
      <trkpt lat="45.15801" lon="0.62033">
        <ele>81</ele>
        <time>2025-06-15T07:18:19Z</time>
      </trkpt>
      <trkpt lat="45.15796" lon="0.62035">
        <ele>81</ele>
        <time>2025-06-15T07:18:20Z</time>
      </trkpt>
      <trkpt lat="45.1579" lon="0.62036">
        <ele>81.2</ele>
        <time>2025-06-15T07:18:21Z</time>
      </trkpt>
      <trkpt lat="45.15785" lon="0.62037">
        <ele>81.2</ele>
        <time>2025-06-15T07:18:22Z</time>
      </trkpt>
      <trkpt lat="45.15779" lon="0.62037">
        <ele>81.2</ele>
        <time>2025-06-15T07:18:23Z</time>
      </trkpt>
      <trkpt lat="45.15774" lon="0.62036">
        <ele>81.2</ele>
        <time>2025-06-15T07:18:24Z</time>
      </trkpt>
      <trkpt lat="45.15769" lon="0.62036">
        <ele>81.2</ele>
        <time>2025-06-15T07:18:25Z</time>
      </trkpt>
      <trkpt lat="45.15764" lon="0.62035">
        <ele>81.2</ele>
        <time>2025-06-15T07:18:26Z</time>
      </trkpt>
      <trkpt lat="45.15759" lon="0.62035">
        <ele>81.2</ele>
        <time>2025-06-15T07:18:27Z</time>
      </trkpt>
      <trkpt lat="45.15754" lon="0.62034">
        <ele>81.2</ele>
        <time>2025-06-15T07:18:28Z</time>
      </trkpt>
      <trkpt lat="45.15748" lon="0.62032">
        <ele>81.4</ele>
        <time>2025-06-15T07:18:29Z</time>
      </trkpt>
      <trkpt lat="45.15743" lon="0.6203">
        <ele>81.4</ele>
        <time>2025-06-15T07:18:30Z</time>
      </trkpt>
      <trkpt lat="45.15738" lon="0.62028">
        <ele>81.4</ele>
        <time>2025-06-15T07:18:31Z</time>
      </trkpt>
      <trkpt lat="45.15734" lon="0.62025">
        <ele>81.4</ele>
        <time>2025-06-15T07:18:32Z</time>
      </trkpt>
      <trkpt lat="45.15729" lon="0.62022">
        <ele>81.6</ele>
        <time>2025-06-15T07:18:33Z</time>
      </trkpt>
      <trkpt lat="45.15725" lon="0.62018">
        <ele>81.6</ele>
        <time>2025-06-15T07:18:34Z</time>
      </trkpt>
      <trkpt lat="45.15721" lon="0.62014">
        <ele>81.6</ele>
        <time>2025-06-15T07:18:35Z</time>
      </trkpt>
      <trkpt lat="45.15717" lon="0.6201">
        <ele>81.6</ele>
        <time>2025-06-15T07:18:36Z</time>
      </trkpt>
      <trkpt lat="45.15712" lon="0.62006">
        <ele>81.6</ele>
        <time>2025-06-15T07:18:37Z</time>
      </trkpt>
      <trkpt lat="45.15708" lon="0.62002">
        <ele>81.8</ele>
        <time>2025-06-15T07:18:38Z</time>
      </trkpt>
      <trkpt lat="45.15705" lon="0.61997">
        <ele>81.6</ele>
        <time>2025-06-15T07:18:39Z</time>
      </trkpt>
      <trkpt lat="45.15701" lon="0.61993">
        <ele>81.6</ele>
        <time>2025-06-15T07:18:40Z</time>
      </trkpt>
      <trkpt lat="45.15697" lon="0.61989">
        <ele>81.8</ele>
        <time>2025-06-15T07:18:41Z</time>
      </trkpt>
      <trkpt lat="45.15694" lon="0.61985">
        <ele>81.8</ele>
        <time>2025-06-15T07:18:42Z</time>
      </trkpt>
      <trkpt lat="45.1569" lon="0.61983">
        <ele>81.8</ele>
        <time>2025-06-15T07:18:43Z</time>
      </trkpt>
      <trkpt lat="45.15685" lon="0.61983">
        <ele>82</ele>
        <time>2025-06-15T07:18:44Z</time>
      </trkpt>
      <trkpt lat="45.15682" lon="0.61987">
        <ele>82.2</ele>
        <time>2025-06-15T07:18:45Z</time>
      </trkpt>
      <trkpt lat="45.1568" lon="0.61992">
        <ele>82.4</ele>
        <time>2025-06-15T07:18:46Z</time>
      </trkpt>
      <trkpt lat="45.15677" lon="0.61998">
        <ele>82.6</ele>
        <time>2025-06-15T07:18:47Z</time>
      </trkpt>
      <trkpt lat="45.15675" lon="0.62004">
        <ele>82.6</ele>
        <time>2025-06-15T07:18:48Z</time>
      </trkpt>
      <trkpt lat="45.15673" lon="0.62009">
        <ele>82.8</ele>
        <time>2025-06-15T07:18:49Z</time>
      </trkpt>
      <trkpt lat="45.1567" lon="0.62015">
        <ele>82.8</ele>
        <time>2025-06-15T07:18:50Z</time>
      </trkpt>
      <trkpt lat="45.15668" lon="0.6202">
        <ele>82.8</ele>
        <time>2025-06-15T07:18:51Z</time>
      </trkpt>
      <trkpt lat="45.15666" lon="0.62026">
        <ele>82.8</ele>
        <time>2025-06-15T07:18:52Z</time>
      </trkpt>
      <trkpt lat="45.15664" lon="0.62031">
        <ele>82.8</ele>
        <time>2025-06-15T07:18:53Z</time>
      </trkpt>
      <trkpt lat="45.15661" lon="0.62037">
        <ele>82.8</ele>
        <time>2025-06-15T07:18:54Z</time>
      </trkpt>
      <trkpt lat="45.15659" lon="0.62043">
        <ele>82.8</ele>
        <time>2025-06-15T07:18:55Z</time>
      </trkpt>
      <trkpt lat="45.15657" lon="0.6205">
        <ele>83</ele>
        <time>2025-06-15T07:18:56Z</time>
      </trkpt>
      <trkpt lat="45.15654" lon="0.62056">
        <ele>83</ele>
        <time>2025-06-15T07:18:57Z</time>
      </trkpt>
      <trkpt lat="45.15652" lon="0.62062">
        <ele>83</ele>
        <time>2025-06-15T07:18:58Z</time>
      </trkpt>
      <trkpt lat="45.1565" lon="0.62069">
        <ele>82.8</ele>
        <time>2025-06-15T07:18:59Z</time>
      </trkpt>
      <trkpt lat="45.15648" lon="0.62075">
        <ele>82.8</ele>
        <time>2025-06-15T07:19:00Z</time>
      </trkpt>
      <trkpt lat="45.15646" lon="0.62081">
        <ele>82.8</ele>
        <time>2025-06-15T07:19:01Z</time>
      </trkpt>
      <trkpt lat="45.15644" lon="0.62088">
        <ele>82.8</ele>
        <time>2025-06-15T07:19:02Z</time>
      </trkpt>
      <trkpt lat="45.15642" lon="0.62095">
        <ele>82.8</ele>
        <time>2025-06-15T07:19:03Z</time>
      </trkpt>
      <trkpt lat="45.1564" lon="0.62101">
        <ele>82.8</ele>
        <time>2025-06-15T07:19:04Z</time>
      </trkpt>
      <trkpt lat="45.15638" lon="0.62108">
        <ele>82.8</ele>
        <time>2025-06-15T07:19:05Z</time>
      </trkpt>
      <trkpt lat="45.15636" lon="0.62115">
        <ele>82.8</ele>
        <time>2025-06-15T07:19:06Z</time>
      </trkpt>
      <trkpt lat="45.15634" lon="0.62121">
        <ele>82.8</ele>
        <time>2025-06-15T07:19:07Z</time>
      </trkpt>
      <trkpt lat="45.15632" lon="0.62127">
        <ele>82.8</ele>
        <time>2025-06-15T07:19:08Z</time>
      </trkpt>
      <trkpt lat="45.1563" lon="0.62134">
        <ele>83</ele>
        <time>2025-06-15T07:19:09Z</time>
      </trkpt>
      <trkpt lat="45.15627" lon="0.6214">
        <ele>83</ele>
        <time>2025-06-15T07:19:10Z</time>
      </trkpt>
      <trkpt lat="45.15625" lon="0.62146">
        <ele>83.2</ele>
        <time>2025-06-15T07:19:11Z</time>
      </trkpt>
      <trkpt lat="45.15622" lon="0.62151">
        <ele>83.2</ele>
        <time>2025-06-15T07:19:12Z</time>
      </trkpt>
      <trkpt lat="45.15618" lon="0.62155">
        <ele>83.2</ele>
        <time>2025-06-15T07:19:13Z</time>
      </trkpt>
      <trkpt lat="45.15615" lon="0.62157">
        <ele>83.2</ele>
        <time>2025-06-15T07:19:14Z</time>
      </trkpt>
      <trkpt lat="45.15611" lon="0.62158">
        <ele>83.2</ele>
        <time>2025-06-15T07:19:15Z</time>
      </trkpt>
      <trkpt lat="45.15607" lon="0.62156">
        <ele>83.2</ele>
        <time>2025-06-15T07:19:16Z</time>
      </trkpt>
      <trkpt lat="45.15603" lon="0.62155">
        <ele>83.4</ele>
        <time>2025-06-15T07:19:17Z</time>
      </trkpt>
      <trkpt lat="45.156" lon="0.62153">
        <ele>83.4</ele>
        <time>2025-06-15T07:19:18Z</time>
      </trkpt>
      <trkpt lat="45.15597" lon="0.62152">
        <ele>83.6</ele>
        <time>2025-06-15T07:19:19Z</time>
      </trkpt>
      <trkpt lat="45.15594" lon="0.6215">
        <ele>83.8</ele>
        <time>2025-06-15T07:19:20Z</time>
      </trkpt>
      <trkpt lat="45.15591" lon="0.62148">
        <ele>84</ele>
        <time>2025-06-15T07:19:21Z</time>
      </trkpt>
      <trkpt lat="45.15588" lon="0.62146">
        <ele>84.2</ele>
        <time>2025-06-15T07:19:22Z</time>
      </trkpt>
      <trkpt lat="45.15585" lon="0.62145">
        <ele>84.4</ele>
        <time>2025-06-15T07:19:23Z</time>
      </trkpt>
      <trkpt lat="45.15583" lon="0.62143">
        <ele>84.6</ele>
        <time>2025-06-15T07:19:24Z</time>
      </trkpt>
      <trkpt lat="45.15581" lon="0.62142">
        <ele>84.8</ele>
        <time>2025-06-15T07:19:25Z</time>
      </trkpt>
      <trkpt lat="45.15579" lon="0.6214">
        <ele>85</ele>
        <time>2025-06-15T07:19:26Z</time>
      </trkpt>
      <trkpt lat="45.15577" lon="0.62139">
        <ele>85.2</ele>
        <time>2025-06-15T07:19:27Z</time>
      </trkpt>
      <trkpt lat="45.15574" lon="0.62137">
        <ele>85.4</ele>
        <time>2025-06-15T07:19:28Z</time>
      </trkpt>
      <trkpt lat="45.15572" lon="0.62135">
        <ele>85.6</ele>
        <time>2025-06-15T07:19:29Z</time>
      </trkpt>
      <trkpt lat="45.1557" lon="0.62133">
        <ele>86</ele>
        <time>2025-06-15T07:19:30Z</time>
      </trkpt>
      <trkpt lat="45.15569" lon="0.62132">
        <ele>86.2</ele>
        <time>2025-06-15T07:19:31Z</time>
      </trkpt>
      <trkpt lat="45.15567" lon="0.6213">
        <ele>86.4</ele>
        <time>2025-06-15T07:19:32Z</time>
      </trkpt>
      <trkpt lat="45.15565" lon="0.62128">
        <ele>86.6</ele>
        <time>2025-06-15T07:19:33Z</time>
      </trkpt>
      <trkpt lat="45.15563" lon="0.62127">
        <ele>87</ele>
        <time>2025-06-15T07:19:34Z</time>
      </trkpt>
      <trkpt lat="45.15561" lon="0.62124">
        <ele>87.2</ele>
        <time>2025-06-15T07:19:35Z</time>
      </trkpt>
      <trkpt lat="45.1556" lon="0.62122">
        <ele>87.4</ele>
        <time>2025-06-15T07:19:36Z</time>
      </trkpt>
      <trkpt lat="45.15559" lon="0.6212">
        <ele>87.6</ele>
        <time>2025-06-15T07:19:37Z</time>
      </trkpt>
      <trkpt lat="45.15557" lon="0.62118">
        <ele>87.8</ele>
        <time>2025-06-15T07:19:38Z</time>
      </trkpt>
      <trkpt lat="45.15556" lon="0.62116">
        <ele>88</ele>
        <time>2025-06-15T07:19:39Z</time>
      </trkpt>
      <trkpt lat="45.15555" lon="0.62115">
        <ele>88.4</ele>
        <time>2025-06-15T07:19:40Z</time>
      </trkpt>
      <trkpt lat="45.15553" lon="0.62113">
        <ele>88.8</ele>
        <time>2025-06-15T07:19:41Z</time>
      </trkpt>
      <trkpt lat="45.15552" lon="0.62111">
        <ele>89</ele>
        <time>2025-06-15T07:19:42Z</time>
      </trkpt>
      <trkpt lat="45.15551" lon="0.6211">
        <ele>89.2</ele>
        <time>2025-06-15T07:19:43Z</time>
      </trkpt>
      <trkpt lat="45.1555" lon="0.62108">
        <ele>89.6</ele>
        <time>2025-06-15T07:19:44Z</time>
      </trkpt>
      <trkpt lat="45.15549" lon="0.62107">
        <ele>89.8</ele>
        <time>2025-06-15T07:19:45Z</time>
      </trkpt>
      <trkpt lat="45.15548" lon="0.62105">
        <ele>90.2</ele>
        <time>2025-06-15T07:19:46Z</time>
      </trkpt>
      <trkpt lat="45.15547" lon="0.62104">
        <ele>90.4</ele>
        <time>2025-06-15T07:19:47Z</time>
      </trkpt>
      <trkpt lat="45.15545" lon="0.62102">
        <ele>90.6</ele>
        <time>2025-06-15T07:19:48Z</time>
      </trkpt>
      <trkpt lat="45.15544" lon="0.621">
        <ele>90.8</ele>
        <time>2025-06-15T07:19:49Z</time>
      </trkpt>
      <trkpt lat="45.15543" lon="0.62099">
        <ele>91.2</ele>
        <time>2025-06-15T07:19:50Z</time>
      </trkpt>
      <trkpt lat="45.15541" lon="0.62097">
        <ele>91.4</ele>
        <time>2025-06-15T07:19:51Z</time>
      </trkpt>
      <trkpt lat="45.1554" lon="0.62095">
        <ele>91.6</ele>
        <time>2025-06-15T07:19:52Z</time>
      </trkpt>
      <trkpt lat="45.15538" lon="0.62093">
        <ele>92</ele>
        <time>2025-06-15T07:19:53Z</time>
      </trkpt>
      <trkpt lat="45.15536" lon="0.62091">
        <ele>92.2</ele>
        <time>2025-06-15T07:19:54Z</time>
      </trkpt>
      <trkpt lat="45.15535" lon="0.62089">
        <ele>92.4</ele>
        <time>2025-06-15T07:19:55Z</time>
      </trkpt>
      <trkpt lat="45.15534" lon="0.62087">
        <ele>92.6</ele>
        <time>2025-06-15T07:19:56Z</time>
      </trkpt>
      <trkpt lat="45.15532" lon="0.62085">
        <ele>92.8</ele>
        <time>2025-06-15T07:19:57Z</time>
      </trkpt>
      <trkpt lat="45.15531" lon="0.62083">
        <ele>93</ele>
        <time>2025-06-15T07:19:58Z</time>
      </trkpt>
      <trkpt lat="45.1553" lon="0.62082">
        <ele>93.2</ele>
        <time>2025-06-15T07:19:59Z</time>
      </trkpt>
      <trkpt lat="45.15529" lon="0.6208">
        <ele>93.4</ele>
        <time>2025-06-15T07:20:00Z</time>
      </trkpt>
      <trkpt lat="45.15527" lon="0.62078">
        <ele>93.6</ele>
        <time>2025-06-15T07:20:01Z</time>
      </trkpt>
      <trkpt lat="45.15526" lon="0.62076">
        <ele>93.8</ele>
        <time>2025-06-15T07:20:02Z</time>
      </trkpt>
      <trkpt lat="45.15524" lon="0.62074">
        <ele>94.2</ele>
        <time>2025-06-15T07:20:03Z</time>
      </trkpt>
      <trkpt lat="45.15523" lon="0.62072">
        <ele>94.4</ele>
        <time>2025-06-15T07:20:04Z</time>
      </trkpt>
      <trkpt lat="45.15522" lon="0.62071">
        <ele>94.6</ele>
        <time>2025-06-15T07:20:05Z</time>
      </trkpt>
      <trkpt lat="45.1552" lon="0.62069">
        <ele>94.8</ele>
        <time>2025-06-15T07:20:06Z</time>
      </trkpt>
      <trkpt lat="45.15519" lon="0.62067">
        <ele>95</ele>
        <time>2025-06-15T07:20:07Z</time>
      </trkpt>
      <trkpt lat="45.15517" lon="0.62066">
        <ele>95.2</ele>
        <time>2025-06-15T07:20:08Z</time>
      </trkpt>
      <trkpt lat="45.15515" lon="0.62064">
        <ele>95.4</ele>
        <time>2025-06-15T07:20:09Z</time>
      </trkpt>
      <trkpt lat="45.15514" lon="0.62062">
        <ele>95.6</ele>
        <time>2025-06-15T07:20:10Z</time>
      </trkpt>
      <trkpt lat="45.15512" lon="0.6206">
        <ele>95.8</ele>
        <time>2025-06-15T07:20:11Z</time>
      </trkpt>
      <trkpt lat="45.15511" lon="0.62059">
        <ele>96</ele>
        <time>2025-06-15T07:20:12Z</time>
      </trkpt>
      <trkpt lat="45.15509" lon="0.62056">
        <ele>96.2</ele>
        <time>2025-06-15T07:20:13Z</time>
      </trkpt>
      <trkpt lat="45.15508" lon="0.62054">
        <ele>96.4</ele>
        <time>2025-06-15T07:20:14Z</time>
      </trkpt>
      <trkpt lat="45.15506" lon="0.62052">
        <ele>96.6</ele>
        <time>2025-06-15T07:20:15Z</time>
      </trkpt>
      <trkpt lat="45.15505" lon="0.6205">
        <ele>96.8</ele>
        <time>2025-06-15T07:20:16Z</time>
      </trkpt>
      <trkpt lat="45.15503" lon="0.62048">
        <ele>96.8</ele>
        <time>2025-06-15T07:20:17Z</time>
      </trkpt>
      <trkpt lat="45.15502" lon="0.62046">
        <ele>97</ele>
        <time>2025-06-15T07:20:18Z</time>
      </trkpt>
      <trkpt lat="45.155" lon="0.62044">
        <ele>97.2</ele>
        <time>2025-06-15T07:20:19Z</time>
      </trkpt>
      <trkpt lat="45.15498" lon="0.62042">
        <ele>97.4</ele>
        <time>2025-06-15T07:20:20Z</time>
      </trkpt>
      <trkpt lat="45.15497" lon="0.6204">
        <ele>97.4</ele>
        <time>2025-06-15T07:20:21Z</time>
      </trkpt>
      <trkpt lat="45.15495" lon="0.62039">
        <ele>97.6</ele>
        <time>2025-06-15T07:20:22Z</time>
      </trkpt>
      <trkpt lat="45.15493" lon="0.62037">
        <ele>97.8</ele>
        <time>2025-06-15T07:20:23Z</time>
      </trkpt>
      <trkpt lat="45.15491" lon="0.62036">
        <ele>97.8</ele>
        <time>2025-06-15T07:20:24Z</time>
      </trkpt>
      <trkpt lat="45.15488" lon="0.62035">
        <ele>98</ele>
        <time>2025-06-15T07:20:25Z</time>
      </trkpt>
      <trkpt lat="45.15486" lon="0.62035">
        <ele>98.2</ele>
        <time>2025-06-15T07:20:26Z</time>
      </trkpt>
      <trkpt lat="45.15484" lon="0.62036">
        <ele>98.2</ele>
        <time>2025-06-15T07:20:27Z</time>
      </trkpt>
      <trkpt lat="45.15482" lon="0.62036">
        <ele>98.4</ele>
        <time>2025-06-15T07:20:28Z</time>
      </trkpt>
      <trkpt lat="45.15479" lon="0.62036">
        <ele>98.8</ele>
        <time>2025-06-15T07:20:29Z</time>
      </trkpt>
      <trkpt lat="45.15477" lon="0.62038">
        <ele>98.8</ele>
        <time>2025-06-15T07:20:30Z</time>
      </trkpt>
      <trkpt lat="45.15475" lon="0.62039">
        <ele>99</ele>
        <time>2025-06-15T07:20:31Z</time>
      </trkpt>
      <trkpt lat="45.15473" lon="0.62041">
        <ele>99.2</ele>
        <time>2025-06-15T07:20:32Z</time>
      </trkpt>
      <trkpt lat="45.15471" lon="0.62043">
        <ele>99.4</ele>
        <time>2025-06-15T07:20:33Z</time>
      </trkpt>
      <trkpt lat="45.1547" lon="0.62044">
        <ele>99.6</ele>
        <time>2025-06-15T07:20:34Z</time>
      </trkpt>
      <trkpt lat="45.15468" lon="0.62045">
        <ele>99.8</ele>
        <time>2025-06-15T07:20:35Z</time>
      </trkpt>
      <trkpt lat="45.15467" lon="0.62047">
        <ele>100.2</ele>
        <time>2025-06-15T07:20:36Z</time>
      </trkpt>
      <trkpt lat="45.15466" lon="0.62049">
        <ele>100.4</ele>
        <time>2025-06-15T07:20:37Z</time>
      </trkpt>
      <trkpt lat="45.15465" lon="0.62051">
        <ele>100.8</ele>
        <time>2025-06-15T07:20:38Z</time>
      </trkpt>
      <trkpt lat="45.15463" lon="0.62054">
        <ele>101</ele>
        <time>2025-06-15T07:20:39Z</time>
      </trkpt>
      <trkpt lat="45.15461" lon="0.62056">
        <ele>101.2</ele>
        <time>2025-06-15T07:20:40Z</time>
      </trkpt>
      <trkpt lat="45.1546" lon="0.62058">
        <ele>101.4</ele>
        <time>2025-06-15T07:20:41Z</time>
      </trkpt>
      <trkpt lat="45.15458" lon="0.6206">
        <ele>101.8</ele>
        <time>2025-06-15T07:20:42Z</time>
      </trkpt>
      <trkpt lat="45.15457" lon="0.62063">
        <ele>102</ele>
        <time>2025-06-15T07:20:43Z</time>
      </trkpt>
      <trkpt lat="45.15455" lon="0.62064">
        <ele>102.2</ele>
        <time>2025-06-15T07:20:44Z</time>
      </trkpt>
      <trkpt lat="45.15453" lon="0.62064">
        <ele>102.4</ele>
        <time>2025-06-15T07:20:45Z</time>
      </trkpt>
      <trkpt lat="45.15452" lon="0.62063">
        <ele>102.6</ele>
        <time>2025-06-15T07:20:46Z</time>
      </trkpt>
      <trkpt lat="45.1545" lon="0.62062">
        <ele>102.6</ele>
        <time>2025-06-15T07:20:47Z</time>
      </trkpt>
      <trkpt lat="45.15448" lon="0.62061">
        <ele>102.8</ele>
        <time>2025-06-15T07:20:48Z</time>
      </trkpt>
      <trkpt lat="45.15446" lon="0.62061">
        <ele>103</ele>
        <time>2025-06-15T07:20:49Z</time>
      </trkpt>
      <trkpt lat="45.15444" lon="0.6206">
        <ele>103.2</ele>
        <time>2025-06-15T07:20:50Z</time>
      </trkpt>
      <trkpt lat="45.15442" lon="0.62059">
        <ele>103.2</ele>
        <time>2025-06-15T07:20:51Z</time>
      </trkpt>
      <trkpt lat="45.15441" lon="0.62058">
        <ele>103.4</ele>
        <time>2025-06-15T07:20:52Z</time>
      </trkpt>
      <trkpt lat="45.15439" lon="0.62057">
        <ele>103.4</ele>
        <time>2025-06-15T07:20:53Z</time>
      </trkpt>
      <trkpt lat="45.15438" lon="0.62055">
        <ele>103.6</ele>
        <time>2025-06-15T07:20:54Z</time>
      </trkpt>
      <trkpt lat="45.15436" lon="0.62054">
        <ele>103.8</ele>
        <time>2025-06-15T07:20:55Z</time>
      </trkpt>
      <trkpt lat="45.15435" lon="0.62052">
        <ele>103.8</ele>
        <time>2025-06-15T07:20:56Z</time>
      </trkpt>
      <trkpt lat="45.15433" lon="0.62051">
        <ele>103.8</ele>
        <time>2025-06-15T07:20:57Z</time>
      </trkpt>
      <trkpt lat="45.15431" lon="0.62049">
        <ele>104</ele>
        <time>2025-06-15T07:20:58Z</time>
      </trkpt>
      <trkpt lat="45.15429" lon="0.62047">
        <ele>104</ele>
        <time>2025-06-15T07:20:59Z</time>
      </trkpt>
      <trkpt lat="45.15427" lon="0.62045">
        <ele>104.2</ele>
        <time>2025-06-15T07:21:00Z</time>
      </trkpt>
      <trkpt lat="45.15426" lon="0.62042">
        <ele>104.2</ele>
        <time>2025-06-15T07:21:01Z</time>
      </trkpt>
      <trkpt lat="45.15424" lon="0.6204">
        <ele>104.2</ele>
        <time>2025-06-15T07:21:02Z</time>
      </trkpt>
      <trkpt lat="45.15423" lon="0.62038">
        <ele>104.4</ele>
        <time>2025-06-15T07:21:03Z</time>
      </trkpt>
      <trkpt lat="45.15421" lon="0.62035">
        <ele>104.4</ele>
        <time>2025-06-15T07:21:04Z</time>
      </trkpt>
      <trkpt lat="45.15419" lon="0.62033">
        <ele>104.6</ele>
        <time>2025-06-15T07:21:05Z</time>
      </trkpt>
      <trkpt lat="45.15417" lon="0.6203">
        <ele>104.6</ele>
        <time>2025-06-15T07:21:06Z</time>
      </trkpt>
      <trkpt lat="45.15415" lon="0.62028">
        <ele>104.6</ele>
        <time>2025-06-15T07:21:07Z</time>
      </trkpt>
      <trkpt lat="45.15413" lon="0.62025">
        <ele>104.6</ele>
        <time>2025-06-15T07:21:08Z</time>
      </trkpt>
      <trkpt lat="45.15411" lon="0.62023">
        <ele>104.6</ele>
        <time>2025-06-15T07:21:09Z</time>
      </trkpt>
      <trkpt lat="45.15409" lon="0.6202">
        <ele>104.8</ele>
        <time>2025-06-15T07:21:10Z</time>
      </trkpt>
      <trkpt lat="45.15408" lon="0.62017">
        <ele>104.8</ele>
        <time>2025-06-15T07:21:11Z</time>
      </trkpt>
      <trkpt lat="45.15406" lon="0.62014">
        <ele>104.8</ele>
        <time>2025-06-15T07:21:12Z</time>
      </trkpt>
      <trkpt lat="45.15405" lon="0.62011">
        <ele>104.8</ele>
        <time>2025-06-15T07:21:13Z</time>
      </trkpt>
      <trkpt lat="45.15404" lon="0.62008">
        <ele>105</ele>
        <time>2025-06-15T07:21:14Z</time>
      </trkpt>
      <trkpt lat="45.15403" lon="0.62004">
        <ele>105</ele>
        <time>2025-06-15T07:21:15Z</time>
      </trkpt>
      <trkpt lat="45.15402" lon="0.62001">
        <ele>105</ele>
        <time>2025-06-15T07:21:16Z</time>
      </trkpt>
      <trkpt lat="45.154" lon="0.61998">
        <ele>105.2</ele>
        <time>2025-06-15T07:21:17Z</time>
      </trkpt>
      <trkpt lat="45.154" lon="0.61994">
        <ele>105.2</ele>
        <time>2025-06-15T07:21:18Z</time>
      </trkpt>
      <trkpt lat="45.154" lon="0.61991">
        <ele>105.2</ele>
        <time>2025-06-15T07:21:19Z</time>
      </trkpt>
      <trkpt lat="45.15399" lon="0.61987">
        <ele>105.4</ele>
        <time>2025-06-15T07:21:20Z</time>
      </trkpt>
      <trkpt lat="45.15399" lon="0.61982">
        <ele>105.4</ele>
        <time>2025-06-15T07:21:21Z</time>
      </trkpt>
      <trkpt lat="45.15398" lon="0.61978">
        <ele>105.6</ele>
        <time>2025-06-15T07:21:22Z</time>
      </trkpt>
      <trkpt lat="45.15398" lon="0.61974">
        <ele>105.6</ele>
        <time>2025-06-15T07:21:23Z</time>
      </trkpt>
      <trkpt lat="45.15397" lon="0.6197">
        <ele>105.8</ele>
        <time>2025-06-15T07:21:24Z</time>
      </trkpt>
      <trkpt lat="45.15396" lon="0.61966">
        <ele>105.8</ele>
        <time>2025-06-15T07:21:25Z</time>
      </trkpt>
      <trkpt lat="45.15395" lon="0.61963">
        <ele>105.8</ele>
        <time>2025-06-15T07:21:26Z</time>
      </trkpt>
      <trkpt lat="45.15393" lon="0.61961">
        <ele>106</ele>
        <time>2025-06-15T07:21:27Z</time>
      </trkpt>
      <trkpt lat="45.15391" lon="0.61959">
        <ele>106</ele>
        <time>2025-06-15T07:21:28Z</time>
      </trkpt>
      <trkpt lat="45.15389" lon="0.61959">
        <ele>106.2</ele>
        <time>2025-06-15T07:21:29Z</time>
      </trkpt>
      <trkpt lat="45.15387" lon="0.6196">
        <ele>106.4</ele>
        <time>2025-06-15T07:21:30Z</time>
      </trkpt>
      <trkpt lat="45.15386" lon="0.61962">
        <ele>106.6</ele>
        <time>2025-06-15T07:21:31Z</time>
      </trkpt>
      <trkpt lat="45.15384" lon="0.61965">
        <ele>106.6</ele>
        <time>2025-06-15T07:21:32Z</time>
      </trkpt>
      <trkpt lat="45.15383" lon="0.61968">
        <ele>106.8</ele>
        <time>2025-06-15T07:21:33Z</time>
      </trkpt>
      <trkpt lat="45.15383" lon="0.61971">
        <ele>107</ele>
        <time>2025-06-15T07:21:34Z</time>
      </trkpt>
      <trkpt lat="45.15382" lon="0.61974">
        <ele>107.2</ele>
        <time>2025-06-15T07:21:35Z</time>
      </trkpt>
      <trkpt lat="45.15381" lon="0.61977">
        <ele>107.2</ele>
        <time>2025-06-15T07:21:36Z</time>
      </trkpt>
      <trkpt lat="45.1538" lon="0.61981">
        <ele>107.4</ele>
        <time>2025-06-15T07:21:37Z</time>
      </trkpt>
      <trkpt lat="45.15379" lon="0.61984">
        <ele>107.6</ele>
        <time>2025-06-15T07:21:38Z</time>
      </trkpt>
      <trkpt lat="45.15378" lon="0.61987">
        <ele>107.8</ele>
        <time>2025-06-15T07:21:39Z</time>
      </trkpt>
      <trkpt lat="45.15377" lon="0.6199">
        <ele>108</ele>
        <time>2025-06-15T07:21:40Z</time>
      </trkpt>
      <trkpt lat="45.15375" lon="0.61993">
        <ele>108.2</ele>
        <time>2025-06-15T07:21:41Z</time>
      </trkpt>
      <trkpt lat="45.15374" lon="0.61996">
        <ele>108.2</ele>
        <time>2025-06-15T07:21:42Z</time>
      </trkpt>
      <trkpt lat="45.15372" lon="0.61998">
        <ele>108.4</ele>
        <time>2025-06-15T07:21:43Z</time>
      </trkpt>
      <trkpt lat="45.15371" lon="0.62001">
        <ele>108.6</ele>
        <time>2025-06-15T07:21:44Z</time>
      </trkpt>
      <trkpt lat="45.15369" lon="0.62003">
        <ele>108.8</ele>
        <time>2025-06-15T07:21:45Z</time>
      </trkpt>
      <trkpt lat="45.15367" lon="0.62006">
        <ele>109</ele>
        <time>2025-06-15T07:21:46Z</time>
      </trkpt>
      <trkpt lat="45.15365" lon="0.62008">
        <ele>109.2</ele>
        <time>2025-06-15T07:21:47Z</time>
      </trkpt>
      <trkpt lat="45.15363" lon="0.6201">
        <ele>109.4</ele>
        <time>2025-06-15T07:21:48Z</time>
      </trkpt>
      <trkpt lat="45.15361" lon="0.62012">
        <ele>109.6</ele>
        <time>2025-06-15T07:21:49Z</time>
      </trkpt>
      <trkpt lat="45.15359" lon="0.62015">
        <ele>109.8</ele>
        <time>2025-06-15T07:21:50Z</time>
      </trkpt>
      <trkpt lat="45.15357" lon="0.62017">
        <ele>110</ele>
        <time>2025-06-15T07:21:51Z</time>
      </trkpt>
      <trkpt lat="45.15356" lon="0.6202">
        <ele>110.2</ele>
        <time>2025-06-15T07:21:52Z</time>
      </trkpt>
      <trkpt lat="45.15353" lon="0.62022">
        <ele>110.4</ele>
        <time>2025-06-15T07:21:53Z</time>
      </trkpt>
      <trkpt lat="45.15351" lon="0.62025">
        <ele>110.6</ele>
        <time>2025-06-15T07:21:54Z</time>
      </trkpt>
      <trkpt lat="45.15349" lon="0.62028">
        <ele>110.8</ele>
        <time>2025-06-15T07:21:55Z</time>
      </trkpt>
      <trkpt lat="45.15346" lon="0.62031">
        <ele>111</ele>
        <time>2025-06-15T07:21:56Z</time>
      </trkpt>
      <trkpt lat="45.15344" lon="0.62033">
        <ele>111</ele>
        <time>2025-06-15T07:21:57Z</time>
      </trkpt>
      <trkpt lat="45.15341" lon="0.62036">
        <ele>111.2</ele>
        <time>2025-06-15T07:21:58Z</time>
      </trkpt>
      <trkpt lat="45.15339" lon="0.62039">
        <ele>111.4</ele>
        <time>2025-06-15T07:21:59Z</time>
      </trkpt>
      <trkpt lat="45.15336" lon="0.62042">
        <ele>111.6</ele>
        <time>2025-06-15T07:22:00Z</time>
      </trkpt>
      <trkpt lat="45.15334" lon="0.62045">
        <ele>111.8</ele>
        <time>2025-06-15T07:22:01Z</time>
      </trkpt>
      <trkpt lat="45.15331" lon="0.62049">
        <ele>112</ele>
        <time>2025-06-15T07:22:02Z</time>
      </trkpt>
      <trkpt lat="45.15329" lon="0.62051">
        <ele>112.2</ele>
        <time>2025-06-15T07:22:03Z</time>
      </trkpt>
      <trkpt lat="45.15326" lon="0.62055">
        <ele>112.2</ele>
        <time>2025-06-15T07:22:04Z</time>
      </trkpt>
      <trkpt lat="45.15323" lon="0.62057">
        <ele>112.4</ele>
        <time>2025-06-15T07:22:05Z</time>
      </trkpt>
      <trkpt lat="45.1532" lon="0.62058">
        <ele>112.6</ele>
        <time>2025-06-15T07:22:06Z</time>
      </trkpt>
      <trkpt lat="45.15316" lon="0.62057">
        <ele>112.8</ele>
        <time>2025-06-15T07:22:07Z</time>
      </trkpt>
      <trkpt lat="45.15313" lon="0.62055">
        <ele>112.8</ele>
        <time>2025-06-15T07:22:08Z</time>
      </trkpt>
      <trkpt lat="45.1531" lon="0.62054">
        <ele>113</ele>
        <time>2025-06-15T07:22:09Z</time>
      </trkpt>
      <trkpt lat="45.15308" lon="0.62052">
        <ele>113.2</ele>
        <time>2025-06-15T07:22:10Z</time>
      </trkpt>
      <trkpt lat="45.15307" lon="0.62051">
        <ele>113.4</ele>
        <time>2025-06-15T07:22:11Z</time>
      </trkpt>
      <trkpt lat="45.15305" lon="0.62049">
        <ele>113.6</ele>
        <time>2025-06-15T07:22:12Z</time>
      </trkpt>
      <trkpt lat="45.15304" lon="0.62048">
        <ele>113.8</ele>
        <time>2025-06-15T07:22:13Z</time>
      </trkpt>
      <trkpt lat="45.15302" lon="0.62045">
        <ele>114</ele>
        <time>2025-06-15T07:22:14Z</time>
      </trkpt>
      <trkpt lat="45.153" lon="0.62043">
        <ele>114.4</ele>
        <time>2025-06-15T07:22:15Z</time>
      </trkpt>
      <trkpt lat="45.15298" lon="0.62041">
        <ele>114.6</ele>
        <time>2025-06-15T07:22:16Z</time>
      </trkpt>
      <trkpt lat="45.15296" lon="0.62039">
        <ele>114.6</ele>
        <time>2025-06-15T07:22:17Z</time>
      </trkpt>
      <trkpt lat="45.15294" lon="0.62037">
        <ele>115</ele>
        <time>2025-06-15T07:22:18Z</time>
      </trkpt>
      <trkpt lat="45.15293" lon="0.62035">
        <ele>115.2</ele>
        <time>2025-06-15T07:22:19Z</time>
      </trkpt>
      <trkpt lat="45.15291" lon="0.62034">
        <ele>115.4</ele>
        <time>2025-06-15T07:22:20Z</time>
      </trkpt>
      <trkpt lat="45.1529" lon="0.62032">
        <ele>115.6</ele>
        <time>2025-06-15T07:22:21Z</time>
      </trkpt>
      <trkpt lat="45.15288" lon="0.6203">
        <ele>115.8</ele>
        <time>2025-06-15T07:22:22Z</time>
      </trkpt>
      <trkpt lat="45.15287" lon="0.62028">
        <ele>116</ele>
        <time>2025-06-15T07:22:23Z</time>
      </trkpt>
      <trkpt lat="45.15285" lon="0.62026">
        <ele>116.2</ele>
        <time>2025-06-15T07:22:24Z</time>
      </trkpt>
      <trkpt lat="45.15284" lon="0.62025">
        <ele>116.4</ele>
        <time>2025-06-15T07:22:25Z</time>
      </trkpt>
      <trkpt lat="45.15283" lon="0.62023">
        <ele>116.6</ele>
        <time>2025-06-15T07:22:26Z</time>
      </trkpt>
      <trkpt lat="45.15281" lon="0.62021">
        <ele>116.8</ele>
        <time>2025-06-15T07:22:27Z</time>
      </trkpt>
      <trkpt lat="45.1528" lon="0.6202">
        <ele>117</ele>
        <time>2025-06-15T07:22:28Z</time>
      </trkpt>
      <trkpt lat="45.15278" lon="0.62018">
        <ele>117.2</ele>
        <time>2025-06-15T07:22:29Z</time>
      </trkpt>
      <trkpt lat="45.15277" lon="0.62016">
        <ele>117.4</ele>
        <time>2025-06-15T07:22:30Z</time>
      </trkpt>
      <trkpt lat="45.15275" lon="0.62015">
        <ele>117.6</ele>
        <time>2025-06-15T07:22:31Z</time>
      </trkpt>
      <trkpt lat="45.15274" lon="0.62013">
        <ele>117.6</ele>
        <time>2025-06-15T07:22:32Z</time>
      </trkpt>
      <trkpt lat="45.15272" lon="0.62011">
        <ele>117.8</ele>
        <time>2025-06-15T07:22:33Z</time>
      </trkpt>
      <trkpt lat="45.15271" lon="0.6201">
        <ele>118</ele>
        <time>2025-06-15T07:22:34Z</time>
      </trkpt>
      <trkpt lat="45.1527" lon="0.62008">
        <ele>118.4</ele>
        <time>2025-06-15T07:22:35Z</time>
      </trkpt>
      <trkpt lat="45.15268" lon="0.62006">
        <ele>118.4</ele>
        <time>2025-06-15T07:22:36Z</time>
      </trkpt>
      <trkpt lat="45.15267" lon="0.62004">
        <ele>118.6</ele>
        <time>2025-06-15T07:22:37Z</time>
      </trkpt>
      <trkpt lat="45.15265" lon="0.62003">
        <ele>119</ele>
        <time>2025-06-15T07:22:38Z</time>
      </trkpt>
      <trkpt lat="45.15263" lon="0.62001">
        <ele>119.2</ele>
        <time>2025-06-15T07:22:39Z</time>
      </trkpt>
      <trkpt lat="45.15262" lon="0.62">
        <ele>119.4</ele>
        <time>2025-06-15T07:22:40Z</time>
      </trkpt>
      <trkpt lat="45.15261" lon="0.61998">
        <ele>119.6</ele>
        <time>2025-06-15T07:22:41Z</time>
      </trkpt>
      <trkpt lat="45.15259" lon="0.61996">
        <ele>119.8</ele>
        <time>2025-06-15T07:22:42Z</time>
      </trkpt>
      <trkpt lat="45.15258" lon="0.61995">
        <ele>120</ele>
        <time>2025-06-15T07:22:43Z</time>
      </trkpt>
      <trkpt lat="45.15257" lon="0.61993">
        <ele>120.2</ele>
        <time>2025-06-15T07:22:44Z</time>
      </trkpt>
      <trkpt lat="45.15256" lon="0.61992">
        <ele>120.4</ele>
        <time>2025-06-15T07:22:45Z</time>
      </trkpt>
      <trkpt lat="45.15254" lon="0.6199">
        <ele>120.6</ele>
        <time>2025-06-15T07:22:46Z</time>
      </trkpt>
      <trkpt lat="45.15253" lon="0.61989">
        <ele>120.8</ele>
        <time>2025-06-15T07:22:47Z</time>
      </trkpt>
      <trkpt lat="45.15251" lon="0.61987">
        <ele>121</ele>
        <time>2025-06-15T07:22:48Z</time>
      </trkpt>
      <trkpt lat="45.1525" lon="0.61986">
        <ele>121.2</ele>
        <time>2025-06-15T07:22:49Z</time>
      </trkpt>
      <trkpt lat="45.15248" lon="0.61984">
        <ele>121.6</ele>
        <time>2025-06-15T07:22:50Z</time>
      </trkpt>
      <trkpt lat="45.15247" lon="0.61982">
        <ele>121.8</ele>
        <time>2025-06-15T07:22:51Z</time>
      </trkpt>
      <trkpt lat="45.15245" lon="0.61981">
        <ele>122</ele>
        <time>2025-06-15T07:22:52Z</time>
      </trkpt>
      <trkpt lat="45.15243" lon="0.61979">
        <ele>122.2</ele>
        <time>2025-06-15T07:22:53Z</time>
      </trkpt>
      <trkpt lat="45.15242" lon="0.61978">
        <ele>122.6</ele>
        <time>2025-06-15T07:22:54Z</time>
      </trkpt>
      <trkpt lat="45.1524" lon="0.61977">
        <ele>122.8</ele>
        <time>2025-06-15T07:22:55Z</time>
      </trkpt>
      <trkpt lat="45.15239" lon="0.61975">
        <ele>123</ele>
        <time>2025-06-15T07:22:56Z</time>
      </trkpt>
      <trkpt lat="45.15238" lon="0.61975">
        <ele>123.2</ele>
        <time>2025-06-15T07:22:57Z</time>
      </trkpt>
      <trkpt lat="45.15236" lon="0.61974">
        <ele>123.4</ele>
        <time>2025-06-15T07:22:58Z</time>
      </trkpt>
      <trkpt lat="45.15234" lon="0.61973">
        <ele>123.6</ele>
        <time>2025-06-15T07:22:59Z</time>
      </trkpt>
      <trkpt lat="45.15232" lon="0.61972">
        <ele>123.8</ele>
        <time>2025-06-15T07:23:00Z</time>
      </trkpt>
      <trkpt lat="45.15231" lon="0.61971">
        <ele>124</ele>
        <time>2025-06-15T07:23:01Z</time>
      </trkpt>
      <trkpt lat="45.15229" lon="0.6197">
        <ele>124.2</ele>
        <time>2025-06-15T07:23:02Z</time>
      </trkpt>
      <trkpt lat="45.15227" lon="0.61969">
        <ele>124.4</ele>
        <time>2025-06-15T07:23:03Z</time>
      </trkpt>
      <trkpt lat="45.15226" lon="0.61969">
        <ele>124.4</ele>
        <time>2025-06-15T07:23:04Z</time>
      </trkpt>
      <trkpt lat="45.15224" lon="0.61968">
        <ele>124.6</ele>
        <time>2025-06-15T07:23:05Z</time>
      </trkpt>
      <trkpt lat="45.15222" lon="0.61967">
        <ele>124.8</ele>
        <time>2025-06-15T07:23:06Z</time>
      </trkpt>
      <trkpt lat="45.1522" lon="0.61966">
        <ele>125</ele>
        <time>2025-06-15T07:23:07Z</time>
      </trkpt>
      <trkpt lat="45.15219" lon="0.61965">
        <ele>125.2</ele>
        <time>2025-06-15T07:23:08Z</time>
      </trkpt>
      <trkpt lat="45.15217" lon="0.61964">
        <ele>125.4</ele>
        <time>2025-06-15T07:23:09Z</time>
      </trkpt>
      <trkpt lat="45.15215" lon="0.61963">
        <ele>125.6</ele>
        <time>2025-06-15T07:23:10Z</time>
      </trkpt>
      <trkpt lat="45.15214" lon="0.61962">
        <ele>125.8</ele>
        <time>2025-06-15T07:23:11Z</time>
      </trkpt>
      <trkpt lat="45.15212" lon="0.61961">
        <ele>125.8</ele>
        <time>2025-06-15T07:23:12Z</time>
      </trkpt>
      <trkpt lat="45.1521" lon="0.61961">
        <ele>126</ele>
        <time>2025-06-15T07:23:13Z</time>
      </trkpt>
      <trkpt lat="45.15208" lon="0.6196">
        <ele>126.2</ele>
        <time>2025-06-15T07:23:14Z</time>
      </trkpt>
      <trkpt lat="45.15206" lon="0.61959">
        <ele>126.4</ele>
        <time>2025-06-15T07:23:15Z</time>
      </trkpt>
      <trkpt lat="45.15204" lon="0.61958">
        <ele>126.6</ele>
        <time>2025-06-15T07:23:16Z</time>
      </trkpt>
      <trkpt lat="45.15202" lon="0.61958">
        <ele>126.8</ele>
        <time>2025-06-15T07:23:17Z</time>
      </trkpt>
      <trkpt lat="45.152" lon="0.61957">
        <ele>127</ele>
        <time>2025-06-15T07:23:18Z</time>
      </trkpt>
      <trkpt lat="45.15198" lon="0.61956">
        <ele>127.2</ele>
        <time>2025-06-15T07:23:19Z</time>
      </trkpt>
      <trkpt lat="45.15196" lon="0.61956">
        <ele>127.4</ele>
        <time>2025-06-15T07:23:20Z</time>
      </trkpt>
      <trkpt lat="45.15195" lon="0.61955">
        <ele>127.6</ele>
        <time>2025-06-15T07:23:21Z</time>
      </trkpt>
      <trkpt lat="45.15193" lon="0.61955">
        <ele>127.8</ele>
        <time>2025-06-15T07:23:22Z</time>
      </trkpt>
      <trkpt lat="45.15191" lon="0.61955">
        <ele>127.8</ele>
        <time>2025-06-15T07:23:23Z</time>
      </trkpt>
      <trkpt lat="45.15189" lon="0.61955">
        <ele>128</ele>
        <time>2025-06-15T07:23:24Z</time>
      </trkpt>
      <trkpt lat="45.15187" lon="0.61954">
        <ele>128.2</ele>
        <time>2025-06-15T07:23:25Z</time>
      </trkpt>
      <trkpt lat="45.15185" lon="0.61954">
        <ele>128.4</ele>
        <time>2025-06-15T07:23:26Z</time>
      </trkpt>
      <trkpt lat="45.15183" lon="0.61953">
        <ele>128.6</ele>
        <time>2025-06-15T07:23:27Z</time>
      </trkpt>
      <trkpt lat="45.15181" lon="0.61953">
        <ele>128.8</ele>
        <time>2025-06-15T07:23:28Z</time>
      </trkpt>
      <trkpt lat="45.15179" lon="0.61952">
        <ele>129</ele>
        <time>2025-06-15T07:23:29Z</time>
      </trkpt>
      <trkpt lat="45.15177" lon="0.61951">
        <ele>129.2</ele>
        <time>2025-06-15T07:23:30Z</time>
      </trkpt>
      <trkpt lat="45.15176" lon="0.61951">
        <ele>129.4</ele>
        <time>2025-06-15T07:23:31Z</time>
      </trkpt>
      <trkpt lat="45.15174" lon="0.6195">
        <ele>129.6</ele>
        <time>2025-06-15T07:23:32Z</time>
      </trkpt>
      <trkpt lat="45.15172" lon="0.6195">
        <ele>129.8</ele>
        <time>2025-06-15T07:23:33Z</time>
      </trkpt>
      <trkpt lat="45.1517" lon="0.61949">
        <ele>130</ele>
        <time>2025-06-15T07:23:34Z</time>
      </trkpt>
      <trkpt lat="45.15168" lon="0.61949">
        <ele>130</ele>
        <time>2025-06-15T07:23:35Z</time>
      </trkpt>
      <trkpt lat="45.15166" lon="0.61949">
        <ele>130.2</ele>
        <time>2025-06-15T07:23:36Z</time>
      </trkpt>
      <trkpt lat="45.15164" lon="0.61948">
        <ele>130.4</ele>
        <time>2025-06-15T07:23:37Z</time>
      </trkpt>
      <trkpt lat="45.15163" lon="0.61948">
        <ele>130.6</ele>
        <time>2025-06-15T07:23:38Z</time>
      </trkpt>
      <trkpt lat="45.15161" lon="0.61948">
        <ele>130.8</ele>
        <time>2025-06-15T07:23:39Z</time>
      </trkpt>
      <trkpt lat="45.15159" lon="0.61948">
        <ele>131</ele>
        <time>2025-06-15T07:23:40Z</time>
      </trkpt>
      <trkpt lat="45.15157" lon="0.61948">
        <ele>131.2</ele>
        <time>2025-06-15T07:23:41Z</time>
      </trkpt>
      <trkpt lat="45.15155" lon="0.61948">
        <ele>131.4</ele>
        <time>2025-06-15T07:23:42Z</time>
      </trkpt>
      <trkpt lat="45.15153" lon="0.61947">
        <ele>131.6</ele>
        <time>2025-06-15T07:23:43Z</time>
      </trkpt>
      <trkpt lat="45.15151" lon="0.61947">
        <ele>131.8</ele>
        <time>2025-06-15T07:23:44Z</time>
      </trkpt>
      <trkpt lat="45.15149" lon="0.61947">
        <ele>132</ele>
        <time>2025-06-15T07:23:45Z</time>
      </trkpt>
      <trkpt lat="45.15147" lon="0.61947">
        <ele>132.2</ele>
        <time>2025-06-15T07:23:46Z</time>
      </trkpt>
      <trkpt lat="45.15145" lon="0.61947">
        <ele>132.2</ele>
        <time>2025-06-15T07:23:47Z</time>
      </trkpt>
      <trkpt lat="45.15143" lon="0.61946">
        <ele>132.6</ele>
        <time>2025-06-15T07:23:48Z</time>
      </trkpt>
      <trkpt lat="45.15142" lon="0.61946">
        <ele>132.8</ele>
        <time>2025-06-15T07:23:49Z</time>
      </trkpt>
      <trkpt lat="45.1514" lon="0.61945">
        <ele>133</ele>
        <time>2025-06-15T07:23:50Z</time>
      </trkpt>
      <trkpt lat="45.15138" lon="0.61945">
        <ele>133</ele>
        <time>2025-06-15T07:23:51Z</time>
      </trkpt>
      <trkpt lat="45.15136" lon="0.61945">
        <ele>133.2</ele>
        <time>2025-06-15T07:23:52Z</time>
      </trkpt>
      <trkpt lat="45.15134" lon="0.61944">
        <ele>133.4</ele>
        <time>2025-06-15T07:23:53Z</time>
      </trkpt>
      <trkpt lat="45.15132" lon="0.61944">
        <ele>133.6</ele>
        <time>2025-06-15T07:23:54Z</time>
      </trkpt>
      <trkpt lat="45.1513" lon="0.61944">
        <ele>133.8</ele>
        <time>2025-06-15T07:23:55Z</time>
      </trkpt>
      <trkpt lat="45.15129" lon="0.61943">
        <ele>134</ele>
        <time>2025-06-15T07:23:56Z</time>
      </trkpt>
      <trkpt lat="45.15127" lon="0.61943">
        <ele>134.2</ele>
        <time>2025-06-15T07:23:57Z</time>
      </trkpt>
      <trkpt lat="45.15125" lon="0.61942">
        <ele>134.4</ele>
        <time>2025-06-15T07:23:58Z</time>
      </trkpt>
      <trkpt lat="45.15123" lon="0.61941">
        <ele>134.6</ele>
        <time>2025-06-15T07:23:59Z</time>
      </trkpt>
      <trkpt lat="45.15121" lon="0.6194">
        <ele>134.6</ele>
        <time>2025-06-15T07:24:00Z</time>
      </trkpt>
      <trkpt lat="45.15119" lon="0.6194">
        <ele>134.8</ele>
        <time>2025-06-15T07:24:01Z</time>
      </trkpt>
      <trkpt lat="45.15117" lon="0.61939">
        <ele>135</ele>
        <time>2025-06-15T07:24:02Z</time>
      </trkpt>
      <trkpt lat="45.15116" lon="0.61938">
        <ele>135.2</ele>
        <time>2025-06-15T07:24:03Z</time>
      </trkpt>
      <trkpt lat="45.15114" lon="0.61937">
        <ele>135.4</ele>
        <time>2025-06-15T07:24:04Z</time>
      </trkpt>
      <trkpt lat="45.15112" lon="0.61936">
        <ele>135.6</ele>
        <time>2025-06-15T07:24:05Z</time>
      </trkpt>
      <trkpt lat="45.15111" lon="0.61934">
        <ele>135.8</ele>
        <time>2025-06-15T07:24:06Z</time>
      </trkpt>
      <trkpt lat="45.15109" lon="0.61933">
        <ele>136.2</ele>
        <time>2025-06-15T07:24:07Z</time>
      </trkpt>
      <trkpt lat="45.15107" lon="0.61932">
        <ele>136.4</ele>
        <time>2025-06-15T07:24:08Z</time>
      </trkpt>
      <trkpt lat="45.15105" lon="0.61931">
        <ele>136.6</ele>
        <time>2025-06-15T07:24:09Z</time>
      </trkpt>
      <trkpt lat="45.15104" lon="0.6193">
        <ele>136.8</ele>
        <time>2025-06-15T07:24:10Z</time>
      </trkpt>
      <trkpt lat="45.15102" lon="0.61928">
        <ele>137</ele>
        <time>2025-06-15T07:24:11Z</time>
      </trkpt>
      <trkpt lat="45.15101" lon="0.61927">
        <ele>137.2</ele>
        <time>2025-06-15T07:24:12Z</time>
      </trkpt>
      <trkpt lat="45.15099" lon="0.61925">
        <ele>137.4</ele>
        <time>2025-06-15T07:24:13Z</time>
      </trkpt>
      <trkpt lat="45.15098" lon="0.61923">
        <ele>137.6</ele>
        <time>2025-06-15T07:24:14Z</time>
      </trkpt>
      <trkpt lat="45.15097" lon="0.61922">
        <ele>137.6</ele>
        <time>2025-06-15T07:24:15Z</time>
      </trkpt>
      <trkpt lat="45.15096" lon="0.6192">
        <ele>137.8</ele>
        <time>2025-06-15T07:24:16Z</time>
      </trkpt>
      <trkpt lat="45.15094" lon="0.61918">
        <ele>138</ele>
        <time>2025-06-15T07:24:17Z</time>
      </trkpt>
      <trkpt lat="45.15093" lon="0.61916">
        <ele>138.2</ele>
        <time>2025-06-15T07:24:18Z</time>
      </trkpt>
      <trkpt lat="45.15091" lon="0.61915">
        <ele>138.4</ele>
        <time>2025-06-15T07:24:19Z</time>
      </trkpt>
      <trkpt lat="45.1509" lon="0.61912">
        <ele>138.6</ele>
        <time>2025-06-15T07:24:20Z</time>
      </trkpt>
      <trkpt lat="45.15089" lon="0.6191">
        <ele>138.8</ele>
        <time>2025-06-15T07:24:21Z</time>
      </trkpt>
      <trkpt lat="45.15088" lon="0.61908">
        <ele>139.2</ele>
        <time>2025-06-15T07:24:22Z</time>
      </trkpt>
      <trkpt lat="45.15087" lon="0.61906">
        <ele>139.4</ele>
        <time>2025-06-15T07:24:23Z</time>
      </trkpt>
      <trkpt lat="45.15086" lon="0.61903">
        <ele>139.6</ele>
        <time>2025-06-15T07:24:24Z</time>
      </trkpt>
      <trkpt lat="45.15086" lon="0.619">
        <ele>139.8</ele>
        <time>2025-06-15T07:24:25Z</time>
      </trkpt>
      <trkpt lat="45.15085" lon="0.61898">
        <ele>140</ele>
        <time>2025-06-15T07:24:26Z</time>
      </trkpt>
      <trkpt lat="45.15084" lon="0.61895">
        <ele>140.2</ele>
        <time>2025-06-15T07:24:27Z</time>
      </trkpt>
      <trkpt lat="45.15084" lon="0.61892">
        <ele>140.4</ele>
        <time>2025-06-15T07:24:28Z</time>
      </trkpt>
      <trkpt lat="45.15083" lon="0.61889">
        <ele>140.6</ele>
        <time>2025-06-15T07:24:29Z</time>
      </trkpt>
      <trkpt lat="45.15083" lon="0.61887">
        <ele>140.8</ele>
        <time>2025-06-15T07:24:30Z</time>
      </trkpt>
      <trkpt lat="45.15082" lon="0.61885">
        <ele>141</ele>
        <time>2025-06-15T07:24:31Z</time>
      </trkpt>
      <trkpt lat="45.15082" lon="0.61882">
        <ele>141.2</ele>
        <time>2025-06-15T07:24:32Z</time>
      </trkpt>
      <trkpt lat="45.15081" lon="0.6188">
        <ele>141.4</ele>
        <time>2025-06-15T07:24:33Z</time>
      </trkpt>
      <trkpt lat="45.1508" lon="0.61878">
        <ele>141.6</ele>
        <time>2025-06-15T07:24:34Z</time>
      </trkpt>
      <trkpt lat="45.1508" lon="0.61875">
        <ele>142</ele>
        <time>2025-06-15T07:24:35Z</time>
      </trkpt>
      <trkpt lat="45.15079" lon="0.61873">
        <ele>142.2</ele>
        <time>2025-06-15T07:24:36Z</time>
      </trkpt>
      <trkpt lat="45.15078" lon="0.6187">
        <ele>142.4</ele>
        <time>2025-06-15T07:24:37Z</time>
      </trkpt>
      <trkpt lat="45.15078" lon="0.61868">
        <ele>142.6</ele>
        <time>2025-06-15T07:24:38Z</time>
      </trkpt>
      <trkpt lat="45.15078" lon="0.61866">
        <ele>142.8</ele>
        <time>2025-06-15T07:24:39Z</time>
      </trkpt>
      <trkpt lat="45.15077" lon="0.61863">
        <ele>143</ele>
        <time>2025-06-15T07:24:40Z</time>
      </trkpt>
      <trkpt lat="45.15077" lon="0.61861">
        <ele>143.4</ele>
        <time>2025-06-15T07:24:41Z</time>
      </trkpt>
      <trkpt lat="45.15076" lon="0.61859">
        <ele>143.6</ele>
        <time>2025-06-15T07:24:42Z</time>
      </trkpt>
      <trkpt lat="45.15076" lon="0.61857">
        <ele>143.8</ele>
        <time>2025-06-15T07:24:43Z</time>
      </trkpt>
      <trkpt lat="45.15075" lon="0.61855">
        <ele>144</ele>
        <time>2025-06-15T07:24:44Z</time>
      </trkpt>
      <trkpt lat="45.15074" lon="0.61852">
        <ele>144.2</ele>
        <time>2025-06-15T07:24:45Z</time>
      </trkpt>
      <trkpt lat="45.15073" lon="0.6185">
        <ele>144.4</ele>
        <time>2025-06-15T07:24:46Z</time>
      </trkpt>
      <trkpt lat="45.15072" lon="0.61847">
        <ele>144.6</ele>
        <time>2025-06-15T07:24:47Z</time>
      </trkpt>
      <trkpt lat="45.15071" lon="0.61844">
        <ele>144.8</ele>
        <time>2025-06-15T07:24:48Z</time>
      </trkpt>
      <trkpt lat="45.1507" lon="0.61842">
        <ele>145</ele>
        <time>2025-06-15T07:24:49Z</time>
      </trkpt>
      <trkpt lat="45.15068" lon="0.6184">
        <ele>145.4</ele>
        <time>2025-06-15T07:24:50Z</time>
      </trkpt>
      <trkpt lat="45.15067" lon="0.61838">
        <ele>145.6</ele>
        <time>2025-06-15T07:24:51Z</time>
      </trkpt>
      <trkpt lat="45.15066" lon="0.61836">
        <ele>145.8</ele>
        <time>2025-06-15T07:24:52Z</time>
      </trkpt>
      <trkpt lat="45.15064" lon="0.61834">
        <ele>146</ele>
        <time>2025-06-15T07:24:53Z</time>
      </trkpt>
      <trkpt lat="45.15063" lon="0.61832">
        <ele>146.2</ele>
        <time>2025-06-15T07:24:54Z</time>
      </trkpt>
      <trkpt lat="45.15062" lon="0.61831">
        <ele>146.4</ele>
        <time>2025-06-15T07:24:55Z</time>
      </trkpt>
      <trkpt lat="45.1506" lon="0.61829">
        <ele>146.6</ele>
        <time>2025-06-15T07:24:56Z</time>
      </trkpt>
      <trkpt lat="45.15059" lon="0.61827">
        <ele>146.8</ele>
        <time>2025-06-15T07:24:57Z</time>
      </trkpt>
      <trkpt lat="45.15058" lon="0.61825">
        <ele>147</ele>
        <time>2025-06-15T07:24:58Z</time>
      </trkpt>
      <trkpt lat="45.15056" lon="0.61824">
        <ele>147.2</ele>
        <time>2025-06-15T07:24:59Z</time>
      </trkpt>
      <trkpt lat="45.15055" lon="0.61822">
        <ele>147.4</ele>
        <time>2025-06-15T07:25:00Z</time>
      </trkpt>
      <trkpt lat="45.15053" lon="0.6182">
        <ele>147.6</ele>
        <time>2025-06-15T07:25:01Z</time>
      </trkpt>
      <trkpt lat="45.15051" lon="0.61819">
        <ele>147.8</ele>
        <time>2025-06-15T07:25:02Z</time>
      </trkpt>
      <trkpt lat="45.1505" lon="0.61818">
        <ele>148</ele>
        <time>2025-06-15T07:25:03Z</time>
      </trkpt>
      <trkpt lat="45.15048" lon="0.61816">
        <ele>148.2</ele>
        <time>2025-06-15T07:25:04Z</time>
      </trkpt>
      <trkpt lat="45.15046" lon="0.61815">
        <ele>148.4</ele>
        <time>2025-06-15T07:25:05Z</time>
      </trkpt>
      <trkpt lat="45.15045" lon="0.61814">
        <ele>148.6</ele>
        <time>2025-06-15T07:25:06Z</time>
      </trkpt>
      <trkpt lat="45.15044" lon="0.61813">
        <ele>148.8</ele>
        <time>2025-06-15T07:25:07Z</time>
      </trkpt>
      <trkpt lat="45.15042" lon="0.61812">
        <ele>149</ele>
        <time>2025-06-15T07:25:08Z</time>
      </trkpt>
      <trkpt lat="45.1504" lon="0.6181">
        <ele>149.4</ele>
        <time>2025-06-15T07:25:09Z</time>
      </trkpt>
      <trkpt lat="45.15039" lon="0.61809">
        <ele>149.6</ele>
        <time>2025-06-15T07:25:10Z</time>
      </trkpt>
      <trkpt lat="45.15037" lon="0.61808">
        <ele>149.8</ele>
        <time>2025-06-15T07:25:11Z</time>
      </trkpt>
      <trkpt lat="45.15035" lon="0.61807">
        <ele>150</ele>
        <time>2025-06-15T07:25:12Z</time>
      </trkpt>
      <trkpt lat="45.15034" lon="0.61806">
        <ele>150.2</ele>
        <time>2025-06-15T07:25:13Z</time>
      </trkpt>
      <trkpt lat="45.15032" lon="0.61805">
        <ele>150.4</ele>
        <time>2025-06-15T07:25:14Z</time>
      </trkpt>
      <trkpt lat="45.1503" lon="0.61804">
        <ele>150.6</ele>
        <time>2025-06-15T07:25:15Z</time>
      </trkpt>
      <trkpt lat="45.15028" lon="0.61803">
        <ele>150.8</ele>
        <time>2025-06-15T07:25:16Z</time>
      </trkpt>
      <trkpt lat="45.15026" lon="0.61802">
        <ele>151</ele>
        <time>2025-06-15T07:25:17Z</time>
      </trkpt>
      <trkpt lat="45.15024" lon="0.618">
        <ele>151.2</ele>
        <time>2025-06-15T07:25:18Z</time>
      </trkpt>
      <trkpt lat="45.15022" lon="0.61799">
        <ele>151.4</ele>
        <time>2025-06-15T07:25:19Z</time>
      </trkpt>
      <trkpt lat="45.1502" lon="0.61798">
        <ele>151.6</ele>
        <time>2025-06-15T07:25:20Z</time>
      </trkpt>
      <trkpt lat="45.15019" lon="0.61797">
        <ele>151.8</ele>
        <time>2025-06-15T07:25:21Z</time>
      </trkpt>
      <trkpt lat="45.15017" lon="0.61796">
        <ele>152</ele>
        <time>2025-06-15T07:25:22Z</time>
      </trkpt>
      <trkpt lat="45.15015" lon="0.61795">
        <ele>152.2</ele>
        <time>2025-06-15T07:25:23Z</time>
      </trkpt>
      <trkpt lat="45.15013" lon="0.61795">
        <ele>152.4</ele>
        <time>2025-06-15T07:25:24Z</time>
      </trkpt>
      <trkpt lat="45.15011" lon="0.61794">
        <ele>152.6</ele>
        <time>2025-06-15T07:25:25Z</time>
      </trkpt>
      <trkpt lat="45.15009" lon="0.61793">
        <ele>152.8</ele>
        <time>2025-06-15T07:25:26Z</time>
      </trkpt>
      <trkpt lat="45.15008" lon="0.61793">
        <ele>153</ele>
        <time>2025-06-15T07:25:27Z</time>
      </trkpt>
      <trkpt lat="45.15006" lon="0.61792">
        <ele>153.2</ele>
        <time>2025-06-15T07:25:28Z</time>
      </trkpt>
      <trkpt lat="45.15004" lon="0.61792">
        <ele>153.4</ele>
        <time>2025-06-15T07:25:29Z</time>
      </trkpt>
      <trkpt lat="45.15002" lon="0.61792">
        <ele>153.6</ele>
        <time>2025-06-15T07:25:30Z</time>
      </trkpt>
      <trkpt lat="45.15001" lon="0.61791">
        <ele>153.8</ele>
        <time>2025-06-15T07:25:31Z</time>
      </trkpt>
      <trkpt lat="45.14999" lon="0.61791">
        <ele>154</ele>
        <time>2025-06-15T07:25:32Z</time>
      </trkpt>
      <trkpt lat="45.14997" lon="0.6179">
        <ele>154.2</ele>
        <time>2025-06-15T07:25:33Z</time>
      </trkpt>
      <trkpt lat="45.14995" lon="0.61789">
        <ele>154.4</ele>
        <time>2025-06-15T07:25:34Z</time>
      </trkpt>
      <trkpt lat="45.14993" lon="0.61788">
        <ele>154.4</ele>
        <time>2025-06-15T07:25:35Z</time>
      </trkpt>
      <trkpt lat="45.14991" lon="0.61787">
        <ele>154.6</ele>
        <time>2025-06-15T07:25:36Z</time>
      </trkpt>
      <trkpt lat="45.1499" lon="0.61786">
        <ele>154.8</ele>
        <time>2025-06-15T07:25:37Z</time>
      </trkpt>
      <trkpt lat="45.14988" lon="0.61785">
        <ele>155</ele>
        <time>2025-06-15T07:25:38Z</time>
      </trkpt>
      <trkpt lat="45.14986" lon="0.61784">
        <ele>155.2</ele>
        <time>2025-06-15T07:25:39Z</time>
      </trkpt>
      <trkpt lat="45.14984" lon="0.61783">
        <ele>155.4</ele>
        <time>2025-06-15T07:25:40Z</time>
      </trkpt>
      <trkpt lat="45.14982" lon="0.61783">
        <ele>155.6</ele>
        <time>2025-06-15T07:25:41Z</time>
      </trkpt>
      <trkpt lat="45.1498" lon="0.61782">
        <ele>155.8</ele>
        <time>2025-06-15T07:25:42Z</time>
      </trkpt>
      <trkpt lat="45.14978" lon="0.61781">
        <ele>156</ele>
        <time>2025-06-15T07:25:43Z</time>
      </trkpt>
      <trkpt lat="45.14976" lon="0.6178">
        <ele>156.2</ele>
        <time>2025-06-15T07:25:44Z</time>
      </trkpt>
      <trkpt lat="45.14974" lon="0.61779">
        <ele>156.2</ele>
        <time>2025-06-15T07:25:45Z</time>
      </trkpt>
      <trkpt lat="45.14973" lon="0.61779">
        <ele>156.6</ele>
        <time>2025-06-15T07:25:46Z</time>
      </trkpt>
      <trkpt lat="45.14971" lon="0.61778">
        <ele>156.8</ele>
        <time>2025-06-15T07:25:47Z</time>
      </trkpt>
      <trkpt lat="45.1497" lon="0.61777">
        <ele>157</ele>
        <time>2025-06-15T07:25:48Z</time>
      </trkpt>
      <trkpt lat="45.14968" lon="0.61776">
        <ele>157</ele>
        <time>2025-06-15T07:25:49Z</time>
      </trkpt>
      <trkpt lat="45.14966" lon="0.61775">
        <ele>157.4</ele>
        <time>2025-06-15T07:25:50Z</time>
      </trkpt>
      <trkpt lat="45.14964" lon="0.61774">
        <ele>157.6</ele>
        <time>2025-06-15T07:25:51Z</time>
      </trkpt>
      <trkpt lat="45.14962" lon="0.61773">
        <ele>158</ele>
        <time>2025-06-15T07:25:52Z</time>
      </trkpt>
      <trkpt lat="45.1496" lon="0.61772">
        <ele>158.2</ele>
        <time>2025-06-15T07:25:53Z</time>
      </trkpt>
      <trkpt lat="45.14958" lon="0.61771">
        <ele>158.4</ele>
        <time>2025-06-15T07:25:54Z</time>
      </trkpt>
      <trkpt lat="45.14957" lon="0.6177">
        <ele>158.6</ele>
        <time>2025-06-15T07:25:55Z</time>
      </trkpt>
      <trkpt lat="45.14955" lon="0.61769">
        <ele>158.6</ele>
        <time>2025-06-15T07:25:56Z</time>
      </trkpt>
      <trkpt lat="45.14953" lon="0.61768">
        <ele>158.8</ele>
        <time>2025-06-15T07:25:57Z</time>
      </trkpt>
      <trkpt lat="45.14952" lon="0.61767">
        <ele>159</ele>
        <time>2025-06-15T07:25:58Z</time>
      </trkpt>
      <trkpt lat="45.1495" lon="0.61766">
        <ele>159.2</ele>
        <time>2025-06-15T07:25:59Z</time>
      </trkpt>
      <trkpt lat="45.14949" lon="0.61765">
        <ele>159.4</ele>
        <time>2025-06-15T07:26:00Z</time>
      </trkpt>
      <trkpt lat="45.14947" lon="0.61764">
        <ele>159.6</ele>
        <time>2025-06-15T07:26:01Z</time>
      </trkpt>
      <trkpt lat="45.14945" lon="0.61763">
        <ele>159.8</ele>
        <time>2025-06-15T07:26:02Z</time>
      </trkpt>
      <trkpt lat="45.14944" lon="0.61762">
        <ele>160</ele>
        <time>2025-06-15T07:26:03Z</time>
      </trkpt>
      <trkpt lat="45.14942" lon="0.61761">
        <ele>160.2</ele>
        <time>2025-06-15T07:26:04Z</time>
      </trkpt>
      <trkpt lat="45.1494" lon="0.6176">
        <ele>160.4</ele>
        <time>2025-06-15T07:26:05Z</time>
      </trkpt>
      <trkpt lat="45.14939" lon="0.61759">
        <ele>160.6</ele>
        <time>2025-06-15T07:26:06Z</time>
      </trkpt>
      <trkpt lat="45.14937" lon="0.61758">
        <ele>160.8</ele>
        <time>2025-06-15T07:26:07Z</time>
      </trkpt>
      <trkpt lat="45.14935" lon="0.61756">
        <ele>161</ele>
        <time>2025-06-15T07:26:08Z</time>
      </trkpt>
      <trkpt lat="45.14933" lon="0.61755">
        <ele>161.2</ele>
        <time>2025-06-15T07:26:09Z</time>
      </trkpt>
      <trkpt lat="45.14931" lon="0.61754">
        <ele>161.4</ele>
        <time>2025-06-15T07:26:10Z</time>
      </trkpt>
      <trkpt lat="45.1493" lon="0.61753">
        <ele>161.6</ele>
        <time>2025-06-15T07:26:11Z</time>
      </trkpt>
      <trkpt lat="45.14928" lon="0.61751">
        <ele>161.8</ele>
        <time>2025-06-15T07:26:12Z</time>
      </trkpt>
      <trkpt lat="45.14926" lon="0.6175">
        <ele>162</ele>
        <time>2025-06-15T07:26:13Z</time>
      </trkpt>
      <trkpt lat="45.14924" lon="0.61748">
        <ele>162.2</ele>
        <time>2025-06-15T07:26:14Z</time>
      </trkpt>
      <trkpt lat="45.14923" lon="0.61747">
        <ele>162.4</ele>
        <time>2025-06-15T07:26:15Z</time>
      </trkpt>
      <trkpt lat="45.14921" lon="0.61746">
        <ele>162.6</ele>
        <time>2025-06-15T07:26:16Z</time>
      </trkpt>
      <trkpt lat="45.1492" lon="0.61745">
        <ele>162.8</ele>
        <time>2025-06-15T07:26:17Z</time>
      </trkpt>
      <trkpt lat="45.14918" lon="0.61744">
        <ele>163</ele>
        <time>2025-06-15T07:26:18Z</time>
      </trkpt>
      <trkpt lat="45.14916" lon="0.61742">
        <ele>163.2</ele>
        <time>2025-06-15T07:26:19Z</time>
      </trkpt>
      <trkpt lat="45.14915" lon="0.61741">
        <ele>163.4</ele>
        <time>2025-06-15T07:26:20Z</time>
      </trkpt>
      <trkpt lat="45.14913" lon="0.61739">
        <ele>163.6</ele>
        <time>2025-06-15T07:26:21Z</time>
      </trkpt>
      <trkpt lat="45.14912" lon="0.61738">
        <ele>163.8</ele>
        <time>2025-06-15T07:26:22Z</time>
      </trkpt>
      <trkpt lat="45.14911" lon="0.61738">
        <ele>163.8</ele>
        <time>2025-06-15T07:26:23Z</time>
      </trkpt>
      <trkpt lat="45.1491" lon="0.61736">
        <ele>164</ele>
        <time>2025-06-15T07:26:24Z</time>
      </trkpt>
      <trkpt lat="45.14908" lon="0.61735">
        <ele>164.2</ele>
        <time>2025-06-15T07:26:25Z</time>
      </trkpt>
      <trkpt lat="45.14907" lon="0.61734">
        <ele>164.2</ele>
        <time>2025-06-15T07:26:26Z</time>
      </trkpt>
      <trkpt lat="45.14905" lon="0.61733">
        <ele>164.4</ele>
        <time>2025-06-15T07:26:27Z</time>
      </trkpt>
      <trkpt lat="45.14903" lon="0.61732">
        <ele>164.6</ele>
        <time>2025-06-15T07:26:28Z</time>
      </trkpt>
      <trkpt lat="45.14901" lon="0.61731">
        <ele>164.8</ele>
        <time>2025-06-15T07:26:29Z</time>
      </trkpt>
      <trkpt lat="45.149" lon="0.61729">
        <ele>165</ele>
        <time>2025-06-15T07:26:30Z</time>
      </trkpt>
      <trkpt lat="45.14898" lon="0.61728">
        <ele>165.2</ele>
        <time>2025-06-15T07:26:31Z</time>
      </trkpt>
      <trkpt lat="45.14897" lon="0.61727">
        <ele>165.4</ele>
        <time>2025-06-15T07:26:32Z</time>
      </trkpt>
      <trkpt lat="45.14895" lon="0.61726">
        <ele>165.6</ele>
        <time>2025-06-15T07:26:33Z</time>
      </trkpt>
      <trkpt lat="45.14893" lon="0.61725">
        <ele>165.8</ele>
        <time>2025-06-15T07:26:34Z</time>
      </trkpt>
      <trkpt lat="45.14892" lon="0.61724">
        <ele>165.8</ele>
        <time>2025-06-15T07:26:35Z</time>
      </trkpt>
      <trkpt lat="45.1489" lon="0.61722">
        <ele>166</ele>
        <time>2025-06-15T07:26:36Z</time>
      </trkpt>
      <trkpt lat="45.14888" lon="0.61721">
        <ele>166.2</ele>
        <time>2025-06-15T07:26:37Z</time>
      </trkpt>
      <trkpt lat="45.14887" lon="0.6172">
        <ele>166.4</ele>
        <time>2025-06-15T07:26:38Z</time>
      </trkpt>
      <trkpt lat="45.14885" lon="0.61719">
        <ele>166.4</ele>
        <time>2025-06-15T07:26:39Z</time>
      </trkpt>
      <trkpt lat="45.14883" lon="0.61717">
        <ele>166.6</ele>
        <time>2025-06-15T07:26:40Z</time>
      </trkpt>
      <trkpt lat="45.14882" lon="0.61716">
        <ele>166.8</ele>
        <time>2025-06-15T07:26:41Z</time>
      </trkpt>
      <trkpt lat="45.1488" lon="0.61715">
        <ele>167.2</ele>
        <time>2025-06-15T07:26:42Z</time>
      </trkpt>
      <trkpt lat="45.14878" lon="0.61714">
        <ele>167.2</ele>
        <time>2025-06-15T07:26:43Z</time>
      </trkpt>
      <trkpt lat="45.14877" lon="0.61713">
        <ele>167.4</ele>
        <time>2025-06-15T07:26:44Z</time>
      </trkpt>
      <trkpt lat="45.14875" lon="0.61712">
        <ele>167.6</ele>
        <time>2025-06-15T07:26:45Z</time>
      </trkpt>
      <trkpt lat="45.14873" lon="0.61711">
        <ele>167.8</ele>
        <time>2025-06-15T07:26:46Z</time>
      </trkpt>
      <trkpt lat="45.14872" lon="0.6171">
        <ele>168</ele>
        <time>2025-06-15T07:26:47Z</time>
      </trkpt>
      <trkpt lat="45.1487" lon="0.61708">
        <ele>168.2</ele>
        <time>2025-06-15T07:26:48Z</time>
      </trkpt>
      <trkpt lat="45.14868" lon="0.61707">
        <ele>168.4</ele>
        <time>2025-06-15T07:26:49Z</time>
      </trkpt>
      <trkpt lat="45.14867" lon="0.61706">
        <ele>168.6</ele>
        <time>2025-06-15T07:26:50Z</time>
      </trkpt>
      <trkpt lat="45.14865" lon="0.61705">
        <ele>168.6</ele>
        <time>2025-06-15T07:26:51Z</time>
      </trkpt>
      <trkpt lat="45.14863" lon="0.61704">
        <ele>168.8</ele>
        <time>2025-06-15T07:26:52Z</time>
      </trkpt>
      <trkpt lat="45.14862" lon="0.61702">
        <ele>169</ele>
        <time>2025-06-15T07:26:53Z</time>
      </trkpt>
      <trkpt lat="45.1486" lon="0.61701">
        <ele>169.2</ele>
        <time>2025-06-15T07:26:54Z</time>
      </trkpt>
      <trkpt lat="45.14858" lon="0.61699">
        <ele>169.4</ele>
        <time>2025-06-15T07:26:55Z</time>
      </trkpt>
      <trkpt lat="45.14856" lon="0.61698">
        <ele>169.6</ele>
        <time>2025-06-15T07:26:56Z</time>
      </trkpt>
      <trkpt lat="45.14855" lon="0.61697">
        <ele>169.6</ele>
        <time>2025-06-15T07:26:57Z</time>
      </trkpt>
      <trkpt lat="45.14853" lon="0.61696">
        <ele>169.8</ele>
        <time>2025-06-15T07:26:58Z</time>
      </trkpt>
      <trkpt lat="45.14851" lon="0.61695">
        <ele>170</ele>
        <time>2025-06-15T07:26:59Z</time>
      </trkpt>
      <trkpt lat="45.1485" lon="0.61694">
        <ele>170.2</ele>
        <time>2025-06-15T07:27:00Z</time>
      </trkpt>
      <trkpt lat="45.14848" lon="0.61693">
        <ele>170.4</ele>
        <time>2025-06-15T07:27:01Z</time>
      </trkpt>
      <trkpt lat="45.14847" lon="0.61692">
        <ele>170.6</ele>
        <time>2025-06-15T07:27:02Z</time>
      </trkpt>
      <trkpt lat="45.14845" lon="0.61691">
        <ele>170.8</ele>
        <time>2025-06-15T07:27:03Z</time>
      </trkpt>
      <trkpt lat="45.14843" lon="0.6169">
        <ele>171</ele>
        <time>2025-06-15T07:27:04Z</time>
      </trkpt>
      <trkpt lat="45.14842" lon="0.61689">
        <ele>171</ele>
        <time>2025-06-15T07:27:05Z</time>
      </trkpt>
      <trkpt lat="45.1484" lon="0.61688">
        <ele>171.2</ele>
        <time>2025-06-15T07:27:06Z</time>
      </trkpt>
      <trkpt lat="45.14839" lon="0.61686">
        <ele>171.4</ele>
        <time>2025-06-15T07:27:07Z</time>
      </trkpt>
      <trkpt lat="45.14837" lon="0.61684">
        <ele>171.6</ele>
        <time>2025-06-15T07:27:08Z</time>
      </trkpt>
      <trkpt lat="45.14836" lon="0.61683">
        <ele>171.8</ele>
        <time>2025-06-15T07:27:09Z</time>
      </trkpt>
      <trkpt lat="45.14834" lon="0.61682">
        <ele>172</ele>
        <time>2025-06-15T07:27:10Z</time>
      </trkpt>
      <trkpt lat="45.14832" lon="0.6168">
        <ele>172.2</ele>
        <time>2025-06-15T07:27:11Z</time>
      </trkpt>
      <trkpt lat="45.14831" lon="0.61679">
        <ele>172.4</ele>
        <time>2025-06-15T07:27:12Z</time>
      </trkpt>
      <trkpt lat="45.14829" lon="0.61677">
        <ele>172.6</ele>
        <time>2025-06-15T07:27:13Z</time>
      </trkpt>
      <trkpt lat="45.14827" lon="0.61675">
        <ele>172.6</ele>
        <time>2025-06-15T07:27:14Z</time>
      </trkpt>
      <trkpt lat="45.14826" lon="0.61674">
        <ele>172.8</ele>
        <time>2025-06-15T07:27:15Z</time>
      </trkpt>
      <trkpt lat="45.14824" lon="0.61672">
        <ele>172.8</ele>
        <time>2025-06-15T07:27:16Z</time>
      </trkpt>
      <trkpt lat="45.14823" lon="0.6167">
        <ele>173</ele>
        <time>2025-06-15T07:27:17Z</time>
      </trkpt>
      <trkpt lat="45.14821" lon="0.61669">
        <ele>173.2</ele>
        <time>2025-06-15T07:27:18Z</time>
      </trkpt>
      <trkpt lat="45.1482" lon="0.61667">
        <ele>173.2</ele>
        <time>2025-06-15T07:27:19Z</time>
      </trkpt>
      <trkpt lat="45.14818" lon="0.61666">
        <ele>173.4</ele>
        <time>2025-06-15T07:27:20Z</time>
      </trkpt>
      <trkpt lat="45.14817" lon="0.61665">
        <ele>173.6</ele>
        <time>2025-06-15T07:27:21Z</time>
      </trkpt>
      <trkpt lat="45.14815" lon="0.61663">
        <ele>173.8</ele>
        <time>2025-06-15T07:27:22Z</time>
      </trkpt>
      <trkpt lat="45.14814" lon="0.61661">
        <ele>174</ele>
        <time>2025-06-15T07:27:23Z</time>
      </trkpt>
      <trkpt lat="45.14812" lon="0.61659">
        <ele>174.2</ele>
        <time>2025-06-15T07:27:24Z</time>
      </trkpt>
      <trkpt lat="45.14811" lon="0.61658">
        <ele>174.4</ele>
        <time>2025-06-15T07:27:25Z</time>
      </trkpt>
      <trkpt lat="45.1481" lon="0.61656">
        <ele>174.4</ele>
        <time>2025-06-15T07:27:26Z</time>
      </trkpt>
      <trkpt lat="45.14808" lon="0.61655">
        <ele>174.6</ele>
        <time>2025-06-15T07:27:27Z</time>
      </trkpt>
      <trkpt lat="45.14807" lon="0.61653">
        <ele>174.8</ele>
        <time>2025-06-15T07:27:28Z</time>
      </trkpt>
      <trkpt lat="45.14805" lon="0.61651">
        <ele>175</ele>
        <time>2025-06-15T07:27:29Z</time>
      </trkpt>
      <trkpt lat="45.14804" lon="0.61649">
        <ele>175.2</ele>
        <time>2025-06-15T07:27:30Z</time>
      </trkpt>
      <trkpt lat="45.14803" lon="0.61647">
        <ele>175.4</ele>
        <time>2025-06-15T07:27:31Z</time>
      </trkpt>
      <trkpt lat="45.14801" lon="0.61646">
        <ele>175.6</ele>
        <time>2025-06-15T07:27:32Z</time>
      </trkpt>
      <trkpt lat="45.148" lon="0.61644">
        <ele>175.8</ele>
        <time>2025-06-15T07:27:33Z</time>
      </trkpt>
      <trkpt lat="45.14798" lon="0.61643">
        <ele>175.8</ele>
        <time>2025-06-15T07:27:34Z</time>
      </trkpt>
      <trkpt lat="45.14796" lon="0.61641">
        <ele>176</ele>
        <time>2025-06-15T07:27:35Z</time>
      </trkpt>
      <trkpt lat="45.14795" lon="0.61639">
        <ele>176.2</ele>
        <time>2025-06-15T07:27:36Z</time>
      </trkpt>
      <trkpt lat="45.14793" lon="0.61637">
        <ele>176.2</ele>
        <time>2025-06-15T07:27:37Z</time>
      </trkpt>
      <trkpt lat="45.14792" lon="0.61636">
        <ele>176.4</ele>
        <time>2025-06-15T07:27:38Z</time>
      </trkpt>
      <trkpt lat="45.1479" lon="0.61634">
        <ele>176.6</ele>
        <time>2025-06-15T07:27:39Z</time>
      </trkpt>
      <trkpt lat="45.14789" lon="0.61633">
        <ele>176.8</ele>
        <time>2025-06-15T07:27:40Z</time>
      </trkpt>
      <trkpt lat="45.14788" lon="0.61631">
        <ele>177</ele>
        <time>2025-06-15T07:27:41Z</time>
      </trkpt>
      <trkpt lat="45.14786" lon="0.61629">
        <ele>177</ele>
        <time>2025-06-15T07:27:42Z</time>
      </trkpt>
      <trkpt lat="45.14785" lon="0.61628">
        <ele>177.2</ele>
        <time>2025-06-15T07:27:43Z</time>
      </trkpt>
      <trkpt lat="45.14783" lon="0.61626">
        <ele>177.4</ele>
        <time>2025-06-15T07:27:44Z</time>
      </trkpt>
      <trkpt lat="45.14782" lon="0.61624">
        <ele>177.4</ele>
        <time>2025-06-15T07:27:45Z</time>
      </trkpt>
      <trkpt lat="45.14781" lon="0.61623">
        <ele>177.6</ele>
        <time>2025-06-15T07:27:46Z</time>
      </trkpt>
      <trkpt lat="45.14779" lon="0.61621">
        <ele>177.8</ele>
        <time>2025-06-15T07:27:47Z</time>
      </trkpt>
      <trkpt lat="45.14778" lon="0.61619">
        <ele>178</ele>
        <time>2025-06-15T07:27:48Z</time>
      </trkpt>
      <trkpt lat="45.14777" lon="0.61617">
        <ele>178.2</ele>
        <time>2025-06-15T07:27:49Z</time>
      </trkpt>
      <trkpt lat="45.14776" lon="0.61616">
        <ele>178.4</ele>
        <time>2025-06-15T07:27:50Z</time>
      </trkpt>
      <trkpt lat="45.14774" lon="0.61614">
        <ele>178.4</ele>
        <time>2025-06-15T07:27:51Z</time>
      </trkpt>
      <trkpt lat="45.14773" lon="0.61612">
        <ele>178.6</ele>
        <time>2025-06-15T07:27:52Z</time>
      </trkpt>
      <trkpt lat="45.14772" lon="0.6161">
        <ele>178.8</ele>
        <time>2025-06-15T07:27:53Z</time>
      </trkpt>
      <trkpt lat="45.1477" lon="0.61608">
        <ele>178.8</ele>
        <time>2025-06-15T07:27:54Z</time>
      </trkpt>
      <trkpt lat="45.14769" lon="0.61606">
        <ele>179</ele>
        <time>2025-06-15T07:27:55Z</time>
      </trkpt>
      <trkpt lat="45.14767" lon="0.61604">
        <ele>179.2</ele>
        <time>2025-06-15T07:27:56Z</time>
      </trkpt>
      <trkpt lat="45.14766" lon="0.61603">
        <ele>179.4</ele>
        <time>2025-06-15T07:27:57Z</time>
      </trkpt>
      <trkpt lat="45.14765" lon="0.61601">
        <ele>179.6</ele>
        <time>2025-06-15T07:27:58Z</time>
      </trkpt>
      <trkpt lat="45.14764" lon="0.616">
        <ele>179.8</ele>
        <time>2025-06-15T07:27:59Z</time>
      </trkpt>
      <trkpt lat="45.14762" lon="0.61598">
        <ele>180</ele>
        <time>2025-06-15T07:28:00Z</time>
      </trkpt>
      <trkpt lat="45.14761" lon="0.61596">
        <ele>180.2</ele>
        <time>2025-06-15T07:28:01Z</time>
      </trkpt>
      <trkpt lat="45.1476" lon="0.61594">
        <ele>180.2</ele>
        <time>2025-06-15T07:28:02Z</time>
      </trkpt>
      <trkpt lat="45.14758" lon="0.61592">
        <ele>180.4</ele>
        <time>2025-06-15T07:28:03Z</time>
      </trkpt>
      <trkpt lat="45.14757" lon="0.6159">
        <ele>180.6</ele>
        <time>2025-06-15T07:28:04Z</time>
      </trkpt>
      <trkpt lat="45.14756" lon="0.61589">
        <ele>180.6</ele>
        <time>2025-06-15T07:28:05Z</time>
      </trkpt>
      <trkpt lat="45.14754" lon="0.61587">
        <ele>180.8</ele>
        <time>2025-06-15T07:28:06Z</time>
      </trkpt>
      <trkpt lat="45.14753" lon="0.61585">
        <ele>181</ele>
        <time>2025-06-15T07:28:07Z</time>
      </trkpt>
      <trkpt lat="45.14751" lon="0.61583">
        <ele>181</ele>
        <time>2025-06-15T07:28:08Z</time>
      </trkpt>
      <trkpt lat="45.1475" lon="0.61581">
        <ele>181.2</ele>
        <time>2025-06-15T07:28:09Z</time>
      </trkpt>
      <trkpt lat="45.14749" lon="0.6158">
        <ele>181.4</ele>
        <time>2025-06-15T07:28:10Z</time>
      </trkpt>
      <trkpt lat="45.14747" lon="0.61578">
        <ele>181.6</ele>
        <time>2025-06-15T07:28:11Z</time>
      </trkpt>
      <trkpt lat="45.14746" lon="0.61576">
        <ele>181.8</ele>
        <time>2025-06-15T07:28:12Z</time>
      </trkpt>
      <trkpt lat="45.14745" lon="0.61574">
        <ele>181.8</ele>
        <time>2025-06-15T07:28:13Z</time>
      </trkpt>
      <trkpt lat="45.14743" lon="0.61573">
        <ele>182</ele>
        <time>2025-06-15T07:28:14Z</time>
      </trkpt>
      <trkpt lat="45.14742" lon="0.61571">
        <ele>182.2</ele>
        <time>2025-06-15T07:28:15Z</time>
      </trkpt>
      <trkpt lat="45.14741" lon="0.61569">
        <ele>182.2</ele>
        <time>2025-06-15T07:28:16Z</time>
      </trkpt>
      <trkpt lat="45.1474" lon="0.61567">
        <ele>182.4</ele>
        <time>2025-06-15T07:28:17Z</time>
      </trkpt>
      <trkpt lat="45.14738" lon="0.61565">
        <ele>182.6</ele>
        <time>2025-06-15T07:28:18Z</time>
      </trkpt>
      <trkpt lat="45.14737" lon="0.61563">
        <ele>182.6</ele>
        <time>2025-06-15T07:28:19Z</time>
      </trkpt>
      <trkpt lat="45.14736" lon="0.61562">
        <ele>182.8</ele>
        <time>2025-06-15T07:28:20Z</time>
      </trkpt>
      <trkpt lat="45.14735" lon="0.6156">
        <ele>183</ele>
        <time>2025-06-15T07:28:21Z</time>
      </trkpt>
      <trkpt lat="45.14734" lon="0.61558">
        <ele>183</ele>
        <time>2025-06-15T07:28:22Z</time>
      </trkpt>
      <trkpt lat="45.14732" lon="0.61556">
        <ele>183.4</ele>
        <time>2025-06-15T07:28:23Z</time>
      </trkpt>
      <trkpt lat="45.14731" lon="0.61555">
        <ele>183.4</ele>
        <time>2025-06-15T07:28:24Z</time>
      </trkpt>
      <trkpt lat="45.14729" lon="0.61553">
        <ele>183.6</ele>
        <time>2025-06-15T07:28:25Z</time>
      </trkpt>
      <trkpt lat="45.14728" lon="0.61551">
        <ele>183.8</ele>
        <time>2025-06-15T07:28:26Z</time>
      </trkpt>
      <trkpt lat="45.14727" lon="0.61549">
        <ele>183.8</ele>
        <time>2025-06-15T07:28:27Z</time>
      </trkpt>
      <trkpt lat="45.14725" lon="0.61547">
        <ele>184</ele>
        <time>2025-06-15T07:28:28Z</time>
      </trkpt>
      <trkpt lat="45.14724" lon="0.61545">
        <ele>184.2</ele>
        <time>2025-06-15T07:28:29Z</time>
      </trkpt>
      <trkpt lat="45.14723" lon="0.61543">
        <ele>184.4</ele>
        <time>2025-06-15T07:28:30Z</time>
      </trkpt>
      <trkpt lat="45.14722" lon="0.61542">
        <ele>184.4</ele>
        <time>2025-06-15T07:28:31Z</time>
      </trkpt>
      <trkpt lat="45.14721" lon="0.6154">
        <ele>184.6</ele>
        <time>2025-06-15T07:28:32Z</time>
      </trkpt>
      <trkpt lat="45.1472" lon="0.61538">
        <ele>184.8</ele>
        <time>2025-06-15T07:28:33Z</time>
      </trkpt>
      <trkpt lat="45.14719" lon="0.61537">
        <ele>185</ele>
        <time>2025-06-15T07:28:34Z</time>
      </trkpt>
      <trkpt lat="45.14717" lon="0.61535">
        <ele>185</ele>
        <time>2025-06-15T07:28:35Z</time>
      </trkpt>
      <trkpt lat="45.14716" lon="0.61534">
        <ele>185.2</ele>
        <time>2025-06-15T07:28:36Z</time>
      </trkpt>
      <trkpt lat="45.14715" lon="0.61532">
        <ele>185.4</ele>
        <time>2025-06-15T07:28:37Z</time>
      </trkpt>
      <trkpt lat="45.14714" lon="0.61531">
        <ele>185.6</ele>
        <time>2025-06-15T07:28:38Z</time>
      </trkpt>
      <trkpt lat="45.14712" lon="0.61529">
        <ele>185.6</ele>
        <time>2025-06-15T07:28:39Z</time>
      </trkpt>
      <trkpt lat="45.14711" lon="0.61527">
        <ele>185.8</ele>
        <time>2025-06-15T07:28:40Z</time>
      </trkpt>
      <trkpt lat="45.1471" lon="0.61526">
        <ele>186</ele>
        <time>2025-06-15T07:28:41Z</time>
      </trkpt>
      <trkpt lat="45.14709" lon="0.61524">
        <ele>186</ele>
        <time>2025-06-15T07:28:42Z</time>
      </trkpt>
      <trkpt lat="45.14707" lon="0.61522">
        <ele>186.2</ele>
        <time>2025-06-15T07:28:43Z</time>
      </trkpt>
      <trkpt lat="45.14706" lon="0.61521">
        <ele>186.2</ele>
        <time>2025-06-15T07:28:44Z</time>
      </trkpt>
      <trkpt lat="45.14704" lon="0.61519">
        <ele>186.4</ele>
        <time>2025-06-15T07:28:45Z</time>
      </trkpt>
      <trkpt lat="45.14703" lon="0.61517">
        <ele>186.6</ele>
        <time>2025-06-15T07:28:46Z</time>
      </trkpt>
      <trkpt lat="45.14702" lon="0.61515">
        <ele>186.6</ele>
        <time>2025-06-15T07:28:47Z</time>
      </trkpt>
      <trkpt lat="45.147" lon="0.61513">
        <ele>186.8</ele>
        <time>2025-06-15T07:28:48Z</time>
      </trkpt>
      <trkpt lat="45.14699" lon="0.6151">
        <ele>187</ele>
        <time>2025-06-15T07:28:49Z</time>
      </trkpt>
      <trkpt lat="45.14698" lon="0.61508">
        <ele>187.2</ele>
        <time>2025-06-15T07:28:50Z</time>
      </trkpt>
      <trkpt lat="45.14697" lon="0.61506">
        <ele>187.4</ele>
        <time>2025-06-15T07:28:51Z</time>
      </trkpt>
      <trkpt lat="45.14697" lon="0.61505">
        <ele>187.6</ele>
        <time>2025-06-15T07:28:52Z</time>
      </trkpt>
      <trkpt lat="45.14697" lon="0.61502">
        <ele>187.6</ele>
        <time>2025-06-15T07:28:53Z</time>
      </trkpt>
      <trkpt lat="45.14697" lon="0.615">
        <ele>187.8</ele>
        <time>2025-06-15T07:28:54Z</time>
      </trkpt>
      <trkpt lat="45.14698" lon="0.61499">
        <ele>188</ele>
        <time>2025-06-15T07:28:55Z</time>
      </trkpt>
      <trkpt lat="45.14699" lon="0.61498">
        <ele>188</ele>
        <time>2025-06-15T07:28:56Z</time>
      </trkpt>
      <trkpt lat="45.147" lon="0.61497">
        <ele>188.2</ele>
        <time>2025-06-15T07:28:57Z</time>
      </trkpt>
      <trkpt lat="45.147" lon="0.61496">
        <ele>188.4</ele>
        <time>2025-06-15T07:28:58Z</time>
      </trkpt>
      <trkpt lat="45.14702" lon="0.61494">
        <ele>188.6</ele>
        <time>2025-06-15T07:28:59Z</time>
      </trkpt>
      <trkpt lat="45.14703" lon="0.61492">
        <ele>188.6</ele>
        <time>2025-06-15T07:29:00Z</time>
      </trkpt>
      <trkpt lat="45.14704" lon="0.61491">
        <ele>188.8</ele>
        <time>2025-06-15T07:29:01Z</time>
      </trkpt>
      <trkpt lat="45.14705" lon="0.61489">
        <ele>189</ele>
        <time>2025-06-15T07:29:02Z</time>
      </trkpt>
      <trkpt lat="45.14707" lon="0.61488">
        <ele>189.2</ele>
        <time>2025-06-15T07:29:03Z</time>
      </trkpt>
      <trkpt lat="45.14708" lon="0.61488">
        <ele>189.4</ele>
        <time>2025-06-15T07:29:04Z</time>
      </trkpt>
      <trkpt lat="45.14709" lon="0.61487">
        <ele>189.8</ele>
        <time>2025-06-15T07:29:05Z</time>
      </trkpt>
      <trkpt lat="45.1471" lon="0.61487">
        <ele>189.8</ele>
        <time>2025-06-15T07:29:06Z</time>
      </trkpt>
      <trkpt lat="45.14712" lon="0.61487">
        <ele>190</ele>
        <time>2025-06-15T07:29:07Z</time>
      </trkpt>
      <trkpt lat="45.14714" lon="0.61486">
        <ele>190.2</ele>
        <time>2025-06-15T07:29:08Z</time>
      </trkpt>
      <trkpt lat="45.14715" lon="0.61485">
        <ele>190.2</ele>
        <time>2025-06-15T07:29:09Z</time>
      </trkpt>
      <trkpt lat="45.14717" lon="0.61485">
        <ele>190.2</ele>
        <time>2025-06-15T07:29:10Z</time>
      </trkpt>
      <trkpt lat="45.14719" lon="0.61484">
        <ele>190.4</ele>
        <time>2025-06-15T07:29:11Z</time>
      </trkpt>
      <trkpt lat="45.14719" lon="0.61482">
        <ele>190.4</ele>
        <time>2025-06-15T07:29:12Z</time>
      </trkpt>
      <trkpt lat="45.1472" lon="0.6148">
        <ele>190.4</ele>
        <time>2025-06-15T07:29:13Z</time>
      </trkpt>
      <trkpt lat="45.14722" lon="0.61478">
        <ele>190.4</ele>
        <time>2025-06-15T07:29:14Z</time>
      </trkpt>
      <trkpt lat="45.14723" lon="0.61477">
        <ele>190.6</ele>
        <time>2025-06-15T07:29:15Z</time>
      </trkpt>
      <trkpt lat="45.14724" lon="0.61475">
        <ele>190.6</ele>
        <time>2025-06-15T07:29:16Z</time>
      </trkpt>
      <trkpt lat="45.14724" lon="0.61473">
        <ele>190.8</ele>
        <time>2025-06-15T07:29:17Z</time>
      </trkpt>
      <trkpt lat="45.14725" lon="0.6147">
        <ele>190.8</ele>
        <time>2025-06-15T07:29:18Z</time>
      </trkpt>
      <trkpt lat="45.14726" lon="0.61468">
        <ele>191</ele>
        <time>2025-06-15T07:29:19Z</time>
      </trkpt>
      <trkpt lat="45.14727" lon="0.61465">
        <ele>191</ele>
        <time>2025-06-15T07:29:20Z</time>
      </trkpt>
      <trkpt lat="45.14728" lon="0.61463">
        <ele>191.2</ele>
        <time>2025-06-15T07:29:21Z</time>
      </trkpt>
      <trkpt lat="45.14729" lon="0.61461">
        <ele>191.2</ele>
        <time>2025-06-15T07:29:22Z</time>
      </trkpt>
      <trkpt lat="45.1473" lon="0.61459">
        <ele>191.4</ele>
        <time>2025-06-15T07:29:23Z</time>
      </trkpt>
      <trkpt lat="45.14732" lon="0.61457">
        <ele>191.6</ele>
        <time>2025-06-15T07:29:24Z</time>
      </trkpt>
      <trkpt lat="45.14733" lon="0.61455">
        <ele>191.8</ele>
        <time>2025-06-15T07:29:25Z</time>
      </trkpt>
      <trkpt lat="45.14734" lon="0.61452">
        <ele>192</ele>
        <time>2025-06-15T07:29:26Z</time>
      </trkpt>
      <trkpt lat="45.14736" lon="0.61449">
        <ele>192</ele>
        <time>2025-06-15T07:29:27Z</time>
      </trkpt>
      <trkpt lat="45.14738" lon="0.61447">
        <ele>192</ele>
        <time>2025-06-15T07:29:28Z</time>
      </trkpt>
      <trkpt lat="45.14739" lon="0.61445">
        <ele>192</ele>
        <time>2025-06-15T07:29:29Z</time>
      </trkpt>
      <trkpt lat="45.14742" lon="0.61443">
        <ele>192</ele>
        <time>2025-06-15T07:29:30Z</time>
      </trkpt>
      <trkpt lat="45.14745" lon="0.61441">
        <ele>192</ele>
        <time>2025-06-15T07:29:31Z</time>
      </trkpt>
      <trkpt lat="45.14747" lon="0.61439">
        <ele>192</ele>
        <time>2025-06-15T07:29:32Z</time>
      </trkpt>
      <trkpt lat="45.14751" lon="0.61437">
        <ele>192</ele>
        <time>2025-06-15T07:29:33Z</time>
      </trkpt>
      <trkpt lat="45.14754" lon="0.61436">
        <ele>192.2</ele>
        <time>2025-06-15T07:29:34Z</time>
      </trkpt>
      <trkpt lat="45.14757" lon="0.61435">
        <ele>192.2</ele>
        <time>2025-06-15T07:29:35Z</time>
      </trkpt>
      <trkpt lat="45.14759" lon="0.61434">
        <ele>192.4</ele>
        <time>2025-06-15T07:29:36Z</time>
      </trkpt>
      <trkpt lat="45.14763" lon="0.61434">
        <ele>192.4</ele>
        <time>2025-06-15T07:29:37Z</time>
      </trkpt>
      <trkpt lat="45.14766" lon="0.61433">
        <ele>192.4</ele>
        <time>2025-06-15T07:29:38Z</time>
      </trkpt>
      <trkpt lat="45.1477" lon="0.61432">
        <ele>192.4</ele>
        <time>2025-06-15T07:29:39Z</time>
      </trkpt>
      <trkpt lat="45.14773" lon="0.61429">
        <ele>192.4</ele>
        <time>2025-06-15T07:29:40Z</time>
      </trkpt>
      <trkpt lat="45.14776" lon="0.61426">
        <ele>192.4</ele>
        <time>2025-06-15T07:29:41Z</time>
      </trkpt>
      <trkpt lat="45.14777" lon="0.61424">
        <ele>192.4</ele>
        <time>2025-06-15T07:29:42Z</time>
      </trkpt>
      <trkpt lat="45.14778" lon="0.61421">
        <ele>192.4</ele>
        <time>2025-06-15T07:29:43Z</time>
      </trkpt>
      <trkpt lat="45.14779" lon="0.61417">
        <ele>192.4</ele>
        <time>2025-06-15T07:29:44Z</time>
      </trkpt>
      <trkpt lat="45.14779" lon="0.61414">
        <ele>192.4</ele>
        <time>2025-06-15T07:29:45Z</time>
      </trkpt>
      <trkpt lat="45.14777" lon="0.61411">
        <ele>192.4</ele>
        <time>2025-06-15T07:29:46Z</time>
      </trkpt>
      <trkpt lat="45.14774" lon="0.61409">
        <ele>192.4</ele>
        <time>2025-06-15T07:29:47Z</time>
      </trkpt>
      <trkpt lat="45.14772" lon="0.61407">
        <ele>192.4</ele>
        <time>2025-06-15T07:29:48Z</time>
      </trkpt>
      <trkpt lat="45.1477" lon="0.61404">
        <ele>192.4</ele>
        <time>2025-06-15T07:29:49Z</time>
      </trkpt>
      <trkpt lat="45.14767" lon="0.61402">
        <ele>192.4</ele>
        <time>2025-06-15T07:29:50Z</time>
      </trkpt>
      <trkpt lat="45.14764" lon="0.61399">
        <ele>192.4</ele>
        <time>2025-06-15T07:29:51Z</time>
      </trkpt>
      <trkpt lat="45.14762" lon="0.61396">
        <ele>192.4</ele>
        <time>2025-06-15T07:29:52Z</time>
      </trkpt>
      <trkpt lat="45.14759" lon="0.61392">
        <ele>192.6</ele>
        <time>2025-06-15T07:29:53Z</time>
      </trkpt>
      <trkpt lat="45.14756" lon="0.61389">
        <ele>192.6</ele>
        <time>2025-06-15T07:29:54Z</time>
      </trkpt>
      <trkpt lat="45.14753" lon="0.61385">
        <ele>192.6</ele>
        <time>2025-06-15T07:29:55Z</time>
      </trkpt>
      <trkpt lat="45.14751" lon="0.61382">
        <ele>192.6</ele>
        <time>2025-06-15T07:29:56Z</time>
      </trkpt>
      <trkpt lat="45.14748" lon="0.61379">
        <ele>192.6</ele>
        <time>2025-06-15T07:29:57Z</time>
      </trkpt>
      <trkpt lat="45.14745" lon="0.61376">
        <ele>192.6</ele>
        <time>2025-06-15T07:29:58Z</time>
      </trkpt>
      <trkpt lat="45.14742" lon="0.61373">
        <ele>192.6</ele>
        <time>2025-06-15T07:29:59Z</time>
      </trkpt>
      <trkpt lat="45.14739" lon="0.6137">
        <ele>192.6</ele>
        <time>2025-06-15T07:30:00Z</time>
      </trkpt>
      <trkpt lat="45.14737" lon="0.61367">
        <ele>192.8</ele>
        <time>2025-06-15T07:30:01Z</time>
      </trkpt>
      <trkpt lat="45.14734" lon="0.61364">
        <ele>192.8</ele>
        <time>2025-06-15T07:30:02Z</time>
      </trkpt>
      <trkpt lat="45.1473" lon="0.61362">
        <ele>192.8</ele>
        <time>2025-06-15T07:30:03Z</time>
      </trkpt>
      <trkpt lat="45.14727" lon="0.61359">
        <ele>192.8</ele>
        <time>2025-06-15T07:30:04Z</time>
      </trkpt>
      <trkpt lat="45.14724" lon="0.61356">
        <ele>193</ele>
        <time>2025-06-15T07:30:05Z</time>
      </trkpt>
      <trkpt lat="45.1472" lon="0.61354">
        <ele>193</ele>
        <time>2025-06-15T07:30:06Z</time>
      </trkpt>
      <trkpt lat="45.14718" lon="0.61351">
        <ele>193</ele>
        <time>2025-06-15T07:30:07Z</time>
      </trkpt>
      <trkpt lat="45.14715" lon="0.61349">
        <ele>193.2</ele>
        <time>2025-06-15T07:30:08Z</time>
      </trkpt>
      <trkpt lat="45.14712" lon="0.61346">
        <ele>193.2</ele>
        <time>2025-06-15T07:30:09Z</time>
      </trkpt>
      <trkpt lat="45.14709" lon="0.61342">
        <ele>193.2</ele>
        <time>2025-06-15T07:30:10Z</time>
      </trkpt>
      <trkpt lat="45.14706" lon="0.61338">
        <ele>193.2</ele>
        <time>2025-06-15T07:30:11Z</time>
      </trkpt>
      <trkpt lat="45.14703" lon="0.61335">
        <ele>193.2</ele>
        <time>2025-06-15T07:30:12Z</time>
      </trkpt>
      <trkpt lat="45.14699" lon="0.61332">
        <ele>193.2</ele>
        <time>2025-06-15T07:30:13Z</time>
      </trkpt>
      <trkpt lat="45.14696" lon="0.61329">
        <ele>193.4</ele>
        <time>2025-06-15T07:30:14Z</time>
      </trkpt>
      <trkpt lat="45.14693" lon="0.61325">
        <ele>193.4</ele>
        <time>2025-06-15T07:30:15Z</time>
      </trkpt>
      <trkpt lat="45.14689" lon="0.61322">
        <ele>193.4</ele>
        <time>2025-06-15T07:30:16Z</time>
      </trkpt>
      <trkpt lat="45.14686" lon="0.61318">
        <ele>193.6</ele>
        <time>2025-06-15T07:30:17Z</time>
      </trkpt>
      <trkpt lat="45.14683" lon="0.61315">
        <ele>193.6</ele>
        <time>2025-06-15T07:30:18Z</time>
      </trkpt>
      <trkpt lat="45.1468" lon="0.61311">
        <ele>193.6</ele>
        <time>2025-06-15T07:30:19Z</time>
      </trkpt>
      <trkpt lat="45.14676" lon="0.61308">
        <ele>193.6</ele>
        <time>2025-06-15T07:30:20Z</time>
      </trkpt>
      <trkpt lat="45.14672" lon="0.61304">
        <ele>193.8</ele>
        <time>2025-06-15T07:30:21Z</time>
      </trkpt>
      <trkpt lat="45.14669" lon="0.613">
        <ele>193.8</ele>
        <time>2025-06-15T07:30:22Z</time>
      </trkpt>
      <trkpt lat="45.14666" lon="0.61296">
        <ele>193.8</ele>
        <time>2025-06-15T07:30:23Z</time>
      </trkpt>
      <trkpt lat="45.14662" lon="0.61293">
        <ele>193.8</ele>
        <time>2025-06-15T07:30:24Z</time>
      </trkpt>
      <trkpt lat="45.14658" lon="0.61289">
        <ele>193.8</ele>
        <time>2025-06-15T07:30:25Z</time>
      </trkpt>
      <trkpt lat="45.14655" lon="0.61286">
        <ele>193.8</ele>
        <time>2025-06-15T07:30:26Z</time>
      </trkpt>
      <trkpt lat="45.14651" lon="0.61283">
        <ele>193.8</ele>
        <time>2025-06-15T07:30:27Z</time>
      </trkpt>
      <trkpt lat="45.14648" lon="0.61279">
        <ele>193.8</ele>
        <time>2025-06-15T07:30:28Z</time>
      </trkpt>
      <trkpt lat="45.14645" lon="0.61276">
        <ele>193.8</ele>
        <time>2025-06-15T07:30:29Z</time>
      </trkpt>
      <trkpt lat="45.14642" lon="0.61273">
        <ele>193.8</ele>
        <time>2025-06-15T07:30:30Z</time>
      </trkpt>
      <trkpt lat="45.14639" lon="0.61269">
        <ele>193.8</ele>
        <time>2025-06-15T07:30:31Z</time>
      </trkpt>
      <trkpt lat="45.14635" lon="0.61267">
        <ele>194</ele>
        <time>2025-06-15T07:30:32Z</time>
      </trkpt>
      <trkpt lat="45.14632" lon="0.61264">
        <ele>194</ele>
        <time>2025-06-15T07:30:33Z</time>
      </trkpt>
      <trkpt lat="45.1463" lon="0.6126">
        <ele>194</ele>
        <time>2025-06-15T07:30:34Z</time>
      </trkpt>
      <trkpt lat="45.14626" lon="0.61257">
        <ele>194</ele>
        <time>2025-06-15T07:30:35Z</time>
      </trkpt>
      <trkpt lat="45.14622" lon="0.61255">
        <ele>194</ele>
        <time>2025-06-15T07:30:36Z</time>
      </trkpt>
      <trkpt lat="45.14618" lon="0.61252">
        <ele>194</ele>
        <time>2025-06-15T07:30:37Z</time>
      </trkpt>
      <trkpt lat="45.14614" lon="0.61249">
        <ele>194</ele>
        <time>2025-06-15T07:30:38Z</time>
      </trkpt>
      <trkpt lat="45.1461" lon="0.61246">
        <ele>194</ele>
        <time>2025-06-15T07:30:39Z</time>
      </trkpt>
      <trkpt lat="45.14606" lon="0.61243">
        <ele>194</ele>
        <time>2025-06-15T07:30:40Z</time>
      </trkpt>
      <trkpt lat="45.14603" lon="0.6124">
        <ele>193.8</ele>
        <time>2025-06-15T07:30:41Z</time>
      </trkpt>
      <trkpt lat="45.14599" lon="0.61238">
        <ele>193.8</ele>
        <time>2025-06-15T07:30:42Z</time>
      </trkpt>
      <trkpt lat="45.14595" lon="0.61239">
        <ele>193.6</ele>
        <time>2025-06-15T07:30:43Z</time>
      </trkpt>
      <trkpt lat="45.14592" lon="0.6124">
        <ele>193.6</ele>
        <time>2025-06-15T07:30:44Z</time>
      </trkpt>
      <trkpt lat="45.14589" lon="0.61243">
        <ele>193.4</ele>
        <time>2025-06-15T07:30:45Z</time>
      </trkpt>
      <trkpt lat="45.14586" lon="0.61246">
        <ele>193.4</ele>
        <time>2025-06-15T07:30:46Z</time>
      </trkpt>
      <trkpt lat="45.14583" lon="0.61249">
        <ele>193.6</ele>
        <time>2025-06-15T07:30:47Z</time>
      </trkpt>
      <trkpt lat="45.1458" lon="0.61252">
        <ele>193.6</ele>
        <time>2025-06-15T07:30:48Z</time>
      </trkpt>
      <trkpt lat="45.14576" lon="0.61254">
        <ele>193.8</ele>
        <time>2025-06-15T07:30:49Z</time>
      </trkpt>
      <trkpt lat="45.14572" lon="0.61256">
        <ele>193.8</ele>
        <time>2025-06-15T07:30:50Z</time>
      </trkpt>
      <trkpt lat="45.14568" lon="0.61257">
        <ele>194</ele>
        <time>2025-06-15T07:30:51Z</time>
      </trkpt>
      <trkpt lat="45.14564" lon="0.61258">
        <ele>194.2</ele>
        <time>2025-06-15T07:30:52Z</time>
      </trkpt>
      <trkpt lat="45.1456" lon="0.61258">
        <ele>194.2</ele>
        <time>2025-06-15T07:30:53Z</time>
      </trkpt>
      <trkpt lat="45.14556" lon="0.61258">
        <ele>194.4</ele>
        <time>2025-06-15T07:30:54Z</time>
      </trkpt>
      <trkpt lat="45.14552" lon="0.61258">
        <ele>194.4</ele>
        <time>2025-06-15T07:30:55Z</time>
      </trkpt>
      <trkpt lat="45.14548" lon="0.61258">
        <ele>194.6</ele>
        <time>2025-06-15T07:30:56Z</time>
      </trkpt>
      <trkpt lat="45.14544" lon="0.61258">
        <ele>194.6</ele>
        <time>2025-06-15T07:30:57Z</time>
      </trkpt>
      <trkpt lat="45.1454" lon="0.61258">
        <ele>194.8</ele>
        <time>2025-06-15T07:30:58Z</time>
      </trkpt>
      <trkpt lat="45.14535" lon="0.61258">
        <ele>194.8</ele>
        <time>2025-06-15T07:30:59Z</time>
      </trkpt>
      <trkpt lat="45.14531" lon="0.61259">
        <ele>194.8</ele>
        <time>2025-06-15T07:31:00Z</time>
      </trkpt>
      <trkpt lat="45.14527" lon="0.61259">
        <ele>195</ele>
        <time>2025-06-15T07:31:01Z</time>
      </trkpt>
      <trkpt lat="45.14522" lon="0.61259">
        <ele>195.2</ele>
        <time>2025-06-15T07:31:02Z</time>
      </trkpt>
      <trkpt lat="45.14518" lon="0.6126">
        <ele>195.2</ele>
        <time>2025-06-15T07:31:03Z</time>
      </trkpt>
      <trkpt lat="45.14513" lon="0.61261">
        <ele>195.2</ele>
        <time>2025-06-15T07:31:04Z</time>
      </trkpt>
      <trkpt lat="45.14509" lon="0.61262">
        <ele>195.4</ele>
        <time>2025-06-15T07:31:05Z</time>
      </trkpt>
      <trkpt lat="45.14504" lon="0.61263">
        <ele>195.4</ele>
        <time>2025-06-15T07:31:06Z</time>
      </trkpt>
      <trkpt lat="45.145" lon="0.61265">
        <ele>195.4</ele>
        <time>2025-06-15T07:31:07Z</time>
      </trkpt>
      <trkpt lat="45.14495" lon="0.61266">
        <ele>195.6</ele>
        <time>2025-06-15T07:31:08Z</time>
      </trkpt>
      <trkpt lat="45.14491" lon="0.61268">
        <ele>195.6</ele>
        <time>2025-06-15T07:31:09Z</time>
      </trkpt>
      <trkpt lat="45.14487" lon="0.61269">
        <ele>195.6</ele>
        <time>2025-06-15T07:31:10Z</time>
      </trkpt>
      <trkpt lat="45.14482" lon="0.61271">
        <ele>195.6</ele>
        <time>2025-06-15T07:31:11Z</time>
      </trkpt>
      <trkpt lat="45.14478" lon="0.61272">
        <ele>195.8</ele>
        <time>2025-06-15T07:31:12Z</time>
      </trkpt>
      <trkpt lat="45.14473" lon="0.61273">
        <ele>195.8</ele>
        <time>2025-06-15T07:31:13Z</time>
      </trkpt>
      <trkpt lat="45.14469" lon="0.61273">
        <ele>195.8</ele>
        <time>2025-06-15T07:31:14Z</time>
      </trkpt>
      <trkpt lat="45.14464" lon="0.61274">
        <ele>195.8</ele>
        <time>2025-06-15T07:31:15Z</time>
      </trkpt>
      <trkpt lat="45.1446" lon="0.61274">
        <ele>196</ele>
        <time>2025-06-15T07:31:16Z</time>
      </trkpt>
      <trkpt lat="45.14455" lon="0.61274">
        <ele>195.8</ele>
        <time>2025-06-15T07:31:17Z</time>
      </trkpt>
      <trkpt lat="45.1445" lon="0.61274">
        <ele>195.8</ele>
        <time>2025-06-15T07:31:18Z</time>
      </trkpt>
      <trkpt lat="45.14446" lon="0.61273">
        <ele>195.8</ele>
        <time>2025-06-15T07:31:19Z</time>
      </trkpt>
      <trkpt lat="45.14441" lon="0.61272">
        <ele>195.8</ele>
        <time>2025-06-15T07:31:20Z</time>
      </trkpt>
      <trkpt lat="45.14436" lon="0.6127">
        <ele>195.8</ele>
        <time>2025-06-15T07:31:21Z</time>
      </trkpt>
      <trkpt lat="45.14432" lon="0.61268">
        <ele>196</ele>
        <time>2025-06-15T07:31:22Z</time>
      </trkpt>
      <trkpt lat="45.14427" lon="0.61267">
        <ele>196</ele>
        <time>2025-06-15T07:31:23Z</time>
      </trkpt>
      <trkpt lat="45.14423" lon="0.61265">
        <ele>196.2</ele>
        <time>2025-06-15T07:31:24Z</time>
      </trkpt>
      <trkpt lat="45.14419" lon="0.61263">
        <ele>196.4</ele>
        <time>2025-06-15T07:31:25Z</time>
      </trkpt>
      <trkpt lat="45.14414" lon="0.61261">
        <ele>196.4</ele>
        <time>2025-06-15T07:31:26Z</time>
      </trkpt>
      <trkpt lat="45.1441" lon="0.61259">
        <ele>196.6</ele>
        <time>2025-06-15T07:31:27Z</time>
      </trkpt>
      <trkpt lat="45.14406" lon="0.61257">
        <ele>196.6</ele>
        <time>2025-06-15T07:31:28Z</time>
      </trkpt>
      <trkpt lat="45.14402" lon="0.61254">
        <ele>196.8</ele>
        <time>2025-06-15T07:31:29Z</time>
      </trkpt>
      <trkpt lat="45.14397" lon="0.61252">
        <ele>196.8</ele>
        <time>2025-06-15T07:31:30Z</time>
      </trkpt>
      <trkpt lat="45.14393" lon="0.61249">
        <ele>197</ele>
        <time>2025-06-15T07:31:31Z</time>
      </trkpt>
      <trkpt lat="45.14389" lon="0.61247">
        <ele>197</ele>
        <time>2025-06-15T07:31:32Z</time>
      </trkpt>
      <trkpt lat="45.14385" lon="0.61244">
        <ele>197.2</ele>
        <time>2025-06-15T07:31:33Z</time>
      </trkpt>
      <trkpt lat="45.14381" lon="0.61241">
        <ele>197.2</ele>
        <time>2025-06-15T07:31:34Z</time>
      </trkpt>
      <trkpt lat="45.14377" lon="0.61238">
        <ele>197.2</ele>
        <time>2025-06-15T07:31:35Z</time>
      </trkpt>
      <trkpt lat="45.14372" lon="0.61235">
        <ele>197.2</ele>
        <time>2025-06-15T07:31:36Z</time>
      </trkpt>
      <trkpt lat="45.14368" lon="0.61231">
        <ele>197.2</ele>
        <time>2025-06-15T07:31:37Z</time>
      </trkpt>
      <trkpt lat="45.14365" lon="0.61228">
        <ele>197.2</ele>
        <time>2025-06-15T07:31:38Z</time>
      </trkpt>
      <trkpt lat="45.14361" lon="0.61225">
        <ele>197.4</ele>
        <time>2025-06-15T07:31:39Z</time>
      </trkpt>
      <trkpt lat="45.14357" lon="0.61222">
        <ele>197.4</ele>
        <time>2025-06-15T07:31:40Z</time>
      </trkpt>
      <trkpt lat="45.14353" lon="0.61219">
        <ele>197.6</ele>
        <time>2025-06-15T07:31:41Z</time>
      </trkpt>
      <trkpt lat="45.14349" lon="0.61216">
        <ele>197.6</ele>
        <time>2025-06-15T07:31:42Z</time>
      </trkpt>
      <trkpt lat="45.14345" lon="0.61212">
        <ele>197.8</ele>
        <time>2025-06-15T07:31:43Z</time>
      </trkpt>
      <trkpt lat="45.1434" lon="0.61209">
        <ele>197.8</ele>
        <time>2025-06-15T07:31:44Z</time>
      </trkpt>
      <trkpt lat="45.14336" lon="0.61205">
        <ele>197.8</ele>
        <time>2025-06-15T07:31:45Z</time>
      </trkpt>
      <trkpt lat="45.14332" lon="0.61202">
        <ele>197.8</ele>
        <time>2025-06-15T07:31:46Z</time>
      </trkpt>
      <trkpt lat="45.14328" lon="0.61199">
        <ele>197.8</ele>
        <time>2025-06-15T07:31:47Z</time>
      </trkpt>
      <trkpt lat="45.14324" lon="0.61197">
        <ele>197.8</ele>
        <time>2025-06-15T07:31:48Z</time>
      </trkpt>
      <trkpt lat="45.1432" lon="0.61194">
        <ele>197.8</ele>
        <time>2025-06-15T07:31:49Z</time>
      </trkpt>
      <trkpt lat="45.14316" lon="0.61191">
        <ele>197.8</ele>
        <time>2025-06-15T07:31:50Z</time>
      </trkpt>
      <trkpt lat="45.14312" lon="0.61189">
        <ele>198</ele>
        <time>2025-06-15T07:31:51Z</time>
      </trkpt>
      <trkpt lat="45.14307" lon="0.61187">
        <ele>198</ele>
        <time>2025-06-15T07:31:52Z</time>
      </trkpt>
      <trkpt lat="45.14302" lon="0.61186">
        <ele>198</ele>
        <time>2025-06-15T07:31:53Z</time>
      </trkpt>
      <trkpt lat="45.14298" lon="0.61185">
        <ele>198</ele>
        <time>2025-06-15T07:31:54Z</time>
      </trkpt>
      <trkpt lat="45.14293" lon="0.61184">
        <ele>198.2</ele>
        <time>2025-06-15T07:31:55Z</time>
      </trkpt>
      <trkpt lat="45.14288" lon="0.61184">
        <ele>198.2</ele>
        <time>2025-06-15T07:31:56Z</time>
      </trkpt>
      <trkpt lat="45.14283" lon="0.61184">
        <ele>198.2</ele>
        <time>2025-06-15T07:31:57Z</time>
      </trkpt>
      <trkpt lat="45.14279" lon="0.61186">
        <ele>198.2</ele>
        <time>2025-06-15T07:31:58Z</time>
      </trkpt>
      <trkpt lat="45.14274" lon="0.61187">
        <ele>198.2</ele>
        <time>2025-06-15T07:31:59Z</time>
      </trkpt>
      <trkpt lat="45.1427" lon="0.61188">
        <ele>198.4</ele>
        <time>2025-06-15T07:32:00Z</time>
      </trkpt>
      <trkpt lat="45.14265" lon="0.6119">
        <ele>198.4</ele>
        <time>2025-06-15T07:32:01Z</time>
      </trkpt>
      <trkpt lat="45.14261" lon="0.61192">
        <ele>198.4</ele>
        <time>2025-06-15T07:32:02Z</time>
      </trkpt>
      <trkpt lat="45.14257" lon="0.61194">
        <ele>198.4</ele>
        <time>2025-06-15T07:32:03Z</time>
      </trkpt>
      <trkpt lat="45.14252" lon="0.61195">
        <ele>198.4</ele>
        <time>2025-06-15T07:32:04Z</time>
      </trkpt>
      <trkpt lat="45.14248" lon="0.61196">
        <ele>198.4</ele>
        <time>2025-06-15T07:32:05Z</time>
      </trkpt>
      <trkpt lat="45.14243" lon="0.61198">
        <ele>198.6</ele>
        <time>2025-06-15T07:32:06Z</time>
      </trkpt>
      <trkpt lat="45.14238" lon="0.612">
        <ele>198.6</ele>
        <time>2025-06-15T07:32:07Z</time>
      </trkpt>
      <trkpt lat="45.14234" lon="0.61202">
        <ele>198.6</ele>
        <time>2025-06-15T07:32:08Z</time>
      </trkpt>
      <trkpt lat="45.14229" lon="0.61203">
        <ele>198.6</ele>
        <time>2025-06-15T07:32:09Z</time>
      </trkpt>
      <trkpt lat="45.14224" lon="0.61205">
        <ele>198.8</ele>
        <time>2025-06-15T07:32:10Z</time>
      </trkpt>
      <trkpt lat="45.1422" lon="0.61207">
        <ele>198.8</ele>
        <time>2025-06-15T07:32:11Z</time>
      </trkpt>
      <trkpt lat="45.14216" lon="0.61209">
        <ele>198.8</ele>
        <time>2025-06-15T07:32:12Z</time>
      </trkpt>
      <trkpt lat="45.14211" lon="0.61211">
        <ele>199</ele>
        <time>2025-06-15T07:32:13Z</time>
      </trkpt>
      <trkpt lat="45.14207" lon="0.61212">
        <ele>199</ele>
        <time>2025-06-15T07:32:14Z</time>
      </trkpt>
      <trkpt lat="45.14203" lon="0.61213">
        <ele>199.2</ele>
        <time>2025-06-15T07:32:15Z</time>
      </trkpt>
      <trkpt lat="45.14198" lon="0.61215">
        <ele>199.2</ele>
        <time>2025-06-15T07:32:16Z</time>
      </trkpt>
      <trkpt lat="45.14194" lon="0.61217">
        <ele>199.2</ele>
        <time>2025-06-15T07:32:17Z</time>
      </trkpt>
      <trkpt lat="45.14189" lon="0.61219">
        <ele>199.4</ele>
        <time>2025-06-15T07:32:18Z</time>
      </trkpt>
      <trkpt lat="45.14185" lon="0.61221">
        <ele>199.4</ele>
        <time>2025-06-15T07:32:19Z</time>
      </trkpt>
      <trkpt lat="45.14181" lon="0.61222">
        <ele>199.6</ele>
        <time>2025-06-15T07:32:20Z</time>
      </trkpt>
      <trkpt lat="45.14177" lon="0.61224">
        <ele>199.6</ele>
        <time>2025-06-15T07:32:21Z</time>
      </trkpt>
      <trkpt lat="45.14173" lon="0.61226">
        <ele>199.8</ele>
        <time>2025-06-15T07:32:22Z</time>
      </trkpt>
      <trkpt lat="45.14168" lon="0.61228">
        <ele>200</ele>
        <time>2025-06-15T07:32:23Z</time>
      </trkpt>
      <trkpt lat="45.14164" lon="0.6123">
        <ele>200</ele>
        <time>2025-06-15T07:32:24Z</time>
      </trkpt>
      <trkpt lat="45.14159" lon="0.61231">
        <ele>200.2</ele>
        <time>2025-06-15T07:32:25Z</time>
      </trkpt>
      <trkpt lat="45.14155" lon="0.61233">
        <ele>200.2</ele>
        <time>2025-06-15T07:32:26Z</time>
      </trkpt>
      <trkpt lat="45.14151" lon="0.61234">
        <ele>200.4</ele>
        <time>2025-06-15T07:32:27Z</time>
      </trkpt>
      <trkpt lat="45.14147" lon="0.61236">
        <ele>200.4</ele>
        <time>2025-06-15T07:32:28Z</time>
      </trkpt>
      <trkpt lat="45.14142" lon="0.61237">
        <ele>200.6</ele>
        <time>2025-06-15T07:32:29Z</time>
      </trkpt>
      <trkpt lat="45.14138" lon="0.61239">
        <ele>200.6</ele>
        <time>2025-06-15T07:32:30Z</time>
      </trkpt>
      <trkpt lat="45.14134" lon="0.61241">
        <ele>200.8</ele>
        <time>2025-06-15T07:32:31Z</time>
      </trkpt>
      <trkpt lat="45.1413" lon="0.61244">
        <ele>200.8</ele>
        <time>2025-06-15T07:32:32Z</time>
      </trkpt>
      <trkpt lat="45.14126" lon="0.61246">
        <ele>201</ele>
        <time>2025-06-15T07:32:33Z</time>
      </trkpt>
      <trkpt lat="45.14122" lon="0.61248">
        <ele>201</ele>
        <time>2025-06-15T07:32:34Z</time>
      </trkpt>
      <trkpt lat="45.14118" lon="0.61251">
        <ele>201</ele>
        <time>2025-06-15T07:32:35Z</time>
      </trkpt>
      <trkpt lat="45.14114" lon="0.61254">
        <ele>201.2</ele>
        <time>2025-06-15T07:32:36Z</time>
      </trkpt>
      <trkpt lat="45.1411" lon="0.61258">
        <ele>201.2</ele>
        <time>2025-06-15T07:32:37Z</time>
      </trkpt>
      <trkpt lat="45.14105" lon="0.61262">
        <ele>201.2</ele>
        <time>2025-06-15T07:32:38Z</time>
      </trkpt>
      <trkpt lat="45.14101" lon="0.61266">
        <ele>201.2</ele>
        <time>2025-06-15T07:32:39Z</time>
      </trkpt>
      <trkpt lat="45.14097" lon="0.61269">
        <ele>201.2</ele>
        <time>2025-06-15T07:32:40Z</time>
      </trkpt>
      <trkpt lat="45.14092" lon="0.61273">
        <ele>201.2</ele>
        <time>2025-06-15T07:32:41Z</time>
      </trkpt>
      <trkpt lat="45.14088" lon="0.61276">
        <ele>201</ele>
        <time>2025-06-15T07:32:42Z</time>
      </trkpt>
      <trkpt lat="45.14083" lon="0.61279">
        <ele>201</ele>
        <time>2025-06-15T07:32:43Z</time>
      </trkpt>
      <trkpt lat="45.14077" lon="0.61283">
        <ele>201</ele>
        <time>2025-06-15T07:32:44Z</time>
      </trkpt>
      <trkpt lat="45.14072" lon="0.61286">
        <ele>201</ele>
        <time>2025-06-15T07:32:45Z</time>
      </trkpt>
      <trkpt lat="45.14067" lon="0.61288">
        <ele>201</ele>
        <time>2025-06-15T07:32:46Z</time>
      </trkpt>
      <trkpt lat="45.14061" lon="0.6129">
        <ele>200.8</ele>
        <time>2025-06-15T07:32:47Z</time>
      </trkpt>
      <trkpt lat="45.14055" lon="0.61292">
        <ele>200.8</ele>
        <time>2025-06-15T07:32:48Z</time>
      </trkpt>
      <trkpt lat="45.1405" lon="0.61294">
        <ele>200.6</ele>
        <time>2025-06-15T07:32:49Z</time>
      </trkpt>
      <trkpt lat="45.14045" lon="0.61295">
        <ele>200.6</ele>
        <time>2025-06-15T07:32:50Z</time>
      </trkpt>
      <trkpt lat="45.14039" lon="0.61296">
        <ele>200.6</ele>
        <time>2025-06-15T07:32:51Z</time>
      </trkpt>
      <trkpt lat="45.14033" lon="0.61297">
        <ele>200.6</ele>
        <time>2025-06-15T07:32:52Z</time>
      </trkpt>
      <trkpt lat="45.14027" lon="0.61299">
        <ele>200.6</ele>
        <time>2025-06-15T07:32:53Z</time>
      </trkpt>
      <trkpt lat="45.14022" lon="0.61301">
        <ele>200.4</ele>
        <time>2025-06-15T07:32:54Z</time>
      </trkpt>
      <trkpt lat="45.14016" lon="0.61304">
        <ele>200.4</ele>
        <time>2025-06-15T07:32:55Z</time>
      </trkpt>
      <trkpt lat="45.14011" lon="0.61306">
        <ele>200.2</ele>
        <time>2025-06-15T07:32:56Z</time>
      </trkpt>
      <trkpt lat="45.14005" lon="0.61308">
        <ele>200.2</ele>
        <time>2025-06-15T07:32:57Z</time>
      </trkpt>
      <trkpt lat="45.14" lon="0.6131">
        <ele>200.2</ele>
        <time>2025-06-15T07:32:58Z</time>
      </trkpt>
      <trkpt lat="45.13994" lon="0.61313">
        <ele>200</ele>
        <time>2025-06-15T07:32:59Z</time>
      </trkpt>
      <trkpt lat="45.13988" lon="0.61315">
        <ele>200</ele>
        <time>2025-06-15T07:33:00Z</time>
      </trkpt>
      <trkpt lat="45.13982" lon="0.61318">
        <ele>200</ele>
        <time>2025-06-15T07:33:01Z</time>
      </trkpt>
      <trkpt lat="45.13976" lon="0.6132">
        <ele>200</ele>
        <time>2025-06-15T07:33:02Z</time>
      </trkpt>
      <trkpt lat="45.1397" lon="0.61322">
        <ele>200</ele>
        <time>2025-06-15T07:33:03Z</time>
      </trkpt>
      <trkpt lat="45.13964" lon="0.61324">
        <ele>200</ele>
        <time>2025-06-15T07:33:04Z</time>
      </trkpt>
      <trkpt lat="45.13958" lon="0.61326">
        <ele>199.8</ele>
        <time>2025-06-15T07:33:05Z</time>
      </trkpt>
      <trkpt lat="45.13951" lon="0.61327">
        <ele>199.8</ele>
        <time>2025-06-15T07:33:06Z</time>
      </trkpt>
      <trkpt lat="45.13945" lon="0.61329">
        <ele>199.8</ele>
        <time>2025-06-15T07:33:07Z</time>
      </trkpt>
      <trkpt lat="45.13938" lon="0.61331">
        <ele>199.6</ele>
        <time>2025-06-15T07:33:08Z</time>
      </trkpt>
      <trkpt lat="45.13932" lon="0.61332">
        <ele>199.4</ele>
        <time>2025-06-15T07:33:09Z</time>
      </trkpt>
      <trkpt lat="45.13925" lon="0.61334">
        <ele>199.2</ele>
        <time>2025-06-15T07:33:10Z</time>
      </trkpt>
      <trkpt lat="45.13919" lon="0.61336">
        <ele>199</ele>
        <time>2025-06-15T07:33:11Z</time>
      </trkpt>
      <trkpt lat="45.13912" lon="0.61337">
        <ele>198.8</ele>
        <time>2025-06-15T07:33:12Z</time>
      </trkpt>
      <trkpt lat="45.13905" lon="0.61339">
        <ele>198.6</ele>
        <time>2025-06-15T07:33:13Z</time>
      </trkpt>
      <trkpt lat="45.13899" lon="0.61341">
        <ele>198.6</ele>
        <time>2025-06-15T07:33:14Z</time>
      </trkpt>
      <trkpt lat="45.13893" lon="0.61342">
        <ele>198.4</ele>
        <time>2025-06-15T07:33:15Z</time>
      </trkpt>
      <trkpt lat="45.13886" lon="0.61345">
        <ele>198.2</ele>
        <time>2025-06-15T07:33:16Z</time>
      </trkpt>
      <trkpt lat="45.13881" lon="0.61348">
        <ele>198</ele>
        <time>2025-06-15T07:33:17Z</time>
      </trkpt>
      <trkpt lat="45.13876" lon="0.61352">
        <ele>198</ele>
        <time>2025-06-15T07:33:18Z</time>
      </trkpt>
      <trkpt lat="45.13871" lon="0.61357">
        <ele>197.8</ele>
        <time>2025-06-15T07:33:19Z</time>
      </trkpt>
      <trkpt lat="45.13867" lon="0.61364">
        <ele>197.6</ele>
        <time>2025-06-15T07:33:20Z</time>
      </trkpt>
      <trkpt lat="45.13863" lon="0.61371">
        <ele>197.6</ele>
        <time>2025-06-15T07:33:21Z</time>
      </trkpt>
      <trkpt lat="45.13859" lon="0.6138">
        <ele>197.6</ele>
        <time>2025-06-15T07:33:22Z</time>
      </trkpt>
      <trkpt lat="45.13857" lon="0.61389">
        <ele>197.6</ele>
        <time>2025-06-15T07:33:23Z</time>
      </trkpt>
      <trkpt lat="45.13854" lon="0.61397">
        <ele>197.6</ele>
        <time>2025-06-15T07:33:24Z</time>
      </trkpt>
      <trkpt lat="45.13852" lon="0.61406">
        <ele>197.6</ele>
        <time>2025-06-15T07:33:25Z</time>
      </trkpt>
      <trkpt lat="45.13849" lon="0.61415">
        <ele>197.6</ele>
        <time>2025-06-15T07:33:26Z</time>
      </trkpt>
      <trkpt lat="45.13847" lon="0.61424">
        <ele>197.4</ele>
        <time>2025-06-15T07:33:27Z</time>
      </trkpt>
      <trkpt lat="45.13844" lon="0.61432">
        <ele>197.4</ele>
        <time>2025-06-15T07:33:28Z</time>
      </trkpt>
      <trkpt lat="45.13842" lon="0.61441">
        <ele>197.4</ele>
        <time>2025-06-15T07:33:29Z</time>
      </trkpt>
      <trkpt lat="45.1384" lon="0.61449">
        <ele>197.4</ele>
        <time>2025-06-15T07:33:30Z</time>
      </trkpt>
      <trkpt lat="45.13838" lon="0.61458">
        <ele>197.4</ele>
        <time>2025-06-15T07:33:31Z</time>
      </trkpt>
      <trkpt lat="45.13835" lon="0.61466">
        <ele>197.4</ele>
        <time>2025-06-15T07:33:32Z</time>
      </trkpt>
      <trkpt lat="45.13833" lon="0.61474">
        <ele>197.4</ele>
        <time>2025-06-15T07:33:33Z</time>
      </trkpt>
      <trkpt lat="45.13831" lon="0.61483">
        <ele>197.4</ele>
        <time>2025-06-15T07:33:34Z</time>
      </trkpt>
      <trkpt lat="45.13829" lon="0.61491">
        <ele>197.4</ele>
        <time>2025-06-15T07:33:35Z</time>
      </trkpt>
      <trkpt lat="45.13827" lon="0.61499">
        <ele>197.4</ele>
        <time>2025-06-15T07:33:36Z</time>
      </trkpt>
      <trkpt lat="45.13825" lon="0.61507">
        <ele>197.4</ele>
        <time>2025-06-15T07:33:37Z</time>
      </trkpt>
      <trkpt lat="45.13823" lon="0.61515">
        <ele>197.4</ele>
        <time>2025-06-15T07:33:38Z</time>
      </trkpt>
      <trkpt lat="45.13821" lon="0.61522">
        <ele>197.6</ele>
        <time>2025-06-15T07:33:39Z</time>
      </trkpt>
      <trkpt lat="45.13819" lon="0.6153">
        <ele>197.6</ele>
        <time>2025-06-15T07:33:40Z</time>
      </trkpt>
      <trkpt lat="45.13817" lon="0.61537">
        <ele>197.8</ele>
        <time>2025-06-15T07:33:41Z</time>
      </trkpt>
      <trkpt lat="45.13815" lon="0.61544">
        <ele>198</ele>
        <time>2025-06-15T07:33:42Z</time>
      </trkpt>
      <trkpt lat="45.13813" lon="0.6155">
        <ele>198</ele>
        <time>2025-06-15T07:33:43Z</time>
      </trkpt>
      <trkpt lat="45.13812" lon="0.61555">
        <ele>198.4</ele>
        <time>2025-06-15T07:33:44Z</time>
      </trkpt>
      <trkpt lat="45.1381" lon="0.61561">
        <ele>198.6</ele>
        <time>2025-06-15T07:33:45Z</time>
      </trkpt>
      <trkpt lat="45.13808" lon="0.61567">
        <ele>198.6</ele>
        <time>2025-06-15T07:33:46Z</time>
      </trkpt>
      <trkpt lat="45.13806" lon="0.61572">
        <ele>199</ele>
        <time>2025-06-15T07:33:47Z</time>
      </trkpt>
      <trkpt lat="45.13805" lon="0.61579">
        <ele>199.2</ele>
        <time>2025-06-15T07:33:48Z</time>
      </trkpt>
      <trkpt lat="45.13804" lon="0.61585">
        <ele>199.4</ele>
        <time>2025-06-15T07:33:49Z</time>
      </trkpt>
      <trkpt lat="45.13804" lon="0.61591">
        <ele>199.6</ele>
        <time>2025-06-15T07:33:50Z</time>
      </trkpt>
      <trkpt lat="45.13803" lon="0.61597">
        <ele>199.8</ele>
        <time>2025-06-15T07:33:51Z</time>
      </trkpt>
      <trkpt lat="45.13802" lon="0.61604">
        <ele>200</ele>
        <time>2025-06-15T07:33:52Z</time>
      </trkpt>
      <trkpt lat="45.13801" lon="0.6161">
        <ele>200.2</ele>
        <time>2025-06-15T07:33:53Z</time>
      </trkpt>
      <trkpt lat="45.138" lon="0.61616">
        <ele>200.2</ele>
        <time>2025-06-15T07:33:54Z</time>
      </trkpt>
      <trkpt lat="45.13798" lon="0.61622">
        <ele>200.4</ele>
        <time>2025-06-15T07:33:55Z</time>
      </trkpt>
      <trkpt lat="45.13798" lon="0.61629">
        <ele>200.6</ele>
        <time>2025-06-15T07:33:56Z</time>
      </trkpt>
      <trkpt lat="45.13797" lon="0.61635">
        <ele>200.6</ele>
        <time>2025-06-15T07:33:57Z</time>
      </trkpt>
      <trkpt lat="45.13797" lon="0.61641">
        <ele>200.8</ele>
        <time>2025-06-15T07:33:58Z</time>
      </trkpt>
      <trkpt lat="45.13797" lon="0.61648">
        <ele>200.8</ele>
        <time>2025-06-15T07:33:59Z</time>
      </trkpt>
      <trkpt lat="45.13797" lon="0.61655">
        <ele>201</ele>
        <time>2025-06-15T07:34:00Z</time>
      </trkpt>
      <trkpt lat="45.13798" lon="0.61661">
        <ele>201.2</ele>
        <time>2025-06-15T07:34:01Z</time>
      </trkpt>
      <trkpt lat="45.13798" lon="0.61667">
        <ele>201.2</ele>
        <time>2025-06-15T07:34:02Z</time>
      </trkpt>
      <trkpt lat="45.13799" lon="0.61674">
        <ele>201.2</ele>
        <time>2025-06-15T07:34:03Z</time>
      </trkpt>
      <trkpt lat="45.138" lon="0.61681">
        <ele>201.4</ele>
        <time>2025-06-15T07:34:04Z</time>
      </trkpt>
      <trkpt lat="45.13801" lon="0.61687">
        <ele>201.4</ele>
        <time>2025-06-15T07:34:05Z</time>
      </trkpt>
      <trkpt lat="45.13802" lon="0.61694">
        <ele>201.4</ele>
        <time>2025-06-15T07:34:06Z</time>
      </trkpt>
      <trkpt lat="45.13804" lon="0.617">
        <ele>201.4</ele>
        <time>2025-06-15T07:34:07Z</time>
      </trkpt>
      <trkpt lat="45.13806" lon="0.61706">
        <ele>201.4</ele>
        <time>2025-06-15T07:34:08Z</time>
      </trkpt>
      <trkpt lat="45.13808" lon="0.61713">
        <ele>201.4</ele>
        <time>2025-06-15T07:34:09Z</time>
      </trkpt>
      <trkpt lat="45.13811" lon="0.61719">
        <ele>201.4</ele>
        <time>2025-06-15T07:34:10Z</time>
      </trkpt>
      <trkpt lat="45.13814" lon="0.61725">
        <ele>201.4</ele>
        <time>2025-06-15T07:34:11Z</time>
      </trkpt>
      <trkpt lat="45.13817" lon="0.61731">
        <ele>201.4</ele>
        <time>2025-06-15T07:34:12Z</time>
      </trkpt>
      <trkpt lat="45.1382" lon="0.61737">
        <ele>201.2</ele>
        <time>2025-06-15T07:34:13Z</time>
      </trkpt>
      <trkpt lat="45.13824" lon="0.61743">
        <ele>201.2</ele>
        <time>2025-06-15T07:34:14Z</time>
      </trkpt>
      <trkpt lat="45.13828" lon="0.6175">
        <ele>201</ele>
        <time>2025-06-15T07:34:15Z</time>
      </trkpt>
      <trkpt lat="45.13831" lon="0.61757">
        <ele>200.8</ele>
        <time>2025-06-15T07:34:16Z</time>
      </trkpt>
      <trkpt lat="45.13835" lon="0.61763">
        <ele>200.8</ele>
        <time>2025-06-15T07:34:17Z</time>
      </trkpt>
      <trkpt lat="45.13838" lon="0.61769">
        <ele>200.4</ele>
        <time>2025-06-15T07:34:18Z</time>
      </trkpt>
      <trkpt lat="45.13842" lon="0.61774">
        <ele>200.4</ele>
        <time>2025-06-15T07:34:19Z</time>
      </trkpt>
      <trkpt lat="45.13846" lon="0.6178">
        <ele>200.2</ele>
        <time>2025-06-15T07:34:20Z</time>
      </trkpt>
      <trkpt lat="45.13848" lon="0.61785">
        <ele>200</ele>
        <time>2025-06-15T07:34:21Z</time>
      </trkpt>
      <trkpt lat="45.1385" lon="0.6179">
        <ele>199.8</ele>
        <time>2025-06-15T07:34:22Z</time>
      </trkpt>
      <trkpt lat="45.13852" lon="0.61794">
        <ele>199.6</ele>
        <time>2025-06-15T07:34:23Z</time>
      </trkpt>
      <trkpt lat="45.13854" lon="0.61798">
        <ele>199.6</ele>
        <time>2025-06-15T07:34:24Z</time>
      </trkpt>
      <trkpt lat="45.13855" lon="0.61801">
        <ele>199.4</ele>
        <time>2025-06-15T07:34:25Z</time>
      </trkpt>
      <trkpt lat="45.13856" lon="0.61804">
        <ele>199.4</ele>
        <time>2025-06-15T07:34:26Z</time>
      </trkpt>
      <trkpt lat="45.13856" lon="0.61807">
        <ele>199.2</ele>
        <time>2025-06-15T07:34:27Z</time>
      </trkpt>
      <trkpt lat="45.13857" lon="0.6181">
        <ele>199.2</ele>
        <time>2025-06-15T07:34:28Z</time>
      </trkpt>
      <trkpt lat="45.13857" lon="0.61813">
        <ele>199</ele>
        <time>2025-06-15T07:34:29Z</time>
      </trkpt>
      <trkpt lat="45.13858" lon="0.61815">
        <ele>199</ele>
        <time>2025-06-15T07:34:30Z</time>
      </trkpt>
      <trkpt lat="45.1386" lon="0.61815">
        <ele>198.8</ele>
        <time>2025-06-15T07:34:31Z</time>
      </trkpt>
      <trkpt lat="45.1386" lon="0.61815">
        <ele>198.8</ele>
        <time>2025-06-15T07:34:32Z</time>
      </trkpt>
      <trkpt lat="45.1386" lon="0.61815">
        <ele>198.8</ele>
        <time>2025-06-15T07:34:33Z</time>
      </trkpt>
      <trkpt lat="45.1386" lon="0.61815">
        <ele>198.8</ele>
        <time>2025-06-15T07:34:34Z</time>
      </trkpt>
      <trkpt lat="45.13857" lon="0.61819">
        <ele>198</ele>
        <time>2025-06-15T07:40:06Z</time>
      </trkpt>
      <trkpt lat="45.13857" lon="0.61823">
        <ele>198</ele>
        <time>2025-06-15T07:40:07Z</time>
      </trkpt>
      <trkpt lat="45.13857" lon="0.61828">
        <ele>198</ele>
        <time>2025-06-15T07:40:08Z</time>
      </trkpt>
      <trkpt lat="45.13858" lon="0.61833">
        <ele>197.8</ele>
        <time>2025-06-15T07:40:09Z</time>
      </trkpt>
      <trkpt lat="45.13858" lon="0.61838">
        <ele>197.8</ele>
        <time>2025-06-15T07:40:10Z</time>
      </trkpt>
      <trkpt lat="45.13857" lon="0.61842">
        <ele>197.6</ele>
        <time>2025-06-15T07:40:11Z</time>
      </trkpt>
      <trkpt lat="45.13857" lon="0.61847">
        <ele>197.6</ele>
        <time>2025-06-15T07:40:12Z</time>
      </trkpt>
      <trkpt lat="45.13857" lon="0.61852">
        <ele>197.6</ele>
        <time>2025-06-15T07:40:13Z</time>
      </trkpt>
      <trkpt lat="45.13856" lon="0.61858">
        <ele>197.4</ele>
        <time>2025-06-15T07:40:14Z</time>
      </trkpt>
      <trkpt lat="45.13854" lon="0.61864">
        <ele>197.4</ele>
        <time>2025-06-15T07:40:15Z</time>
      </trkpt>
      <trkpt lat="45.13853" lon="0.61869">
        <ele>197.4</ele>
        <time>2025-06-15T07:40:16Z</time>
      </trkpt>
      <trkpt lat="45.13851" lon="0.61875">
        <ele>197.2</ele>
        <time>2025-06-15T07:40:17Z</time>
      </trkpt>
      <trkpt lat="45.13848" lon="0.61881">
        <ele>197</ele>
        <time>2025-06-15T07:40:18Z</time>
      </trkpt>
      <trkpt lat="45.13845" lon="0.61887">
        <ele>197</ele>
        <time>2025-06-15T07:40:19Z</time>
      </trkpt>
      <trkpt lat="45.13843" lon="0.61893">
        <ele>197</ele>
        <time>2025-06-15T07:40:20Z</time>
      </trkpt>
      <trkpt lat="45.1384" lon="0.61899">
        <ele>196.8</ele>
        <time>2025-06-15T07:40:21Z</time>
      </trkpt>
      <trkpt lat="45.13837" lon="0.61905">
        <ele>196.8</ele>
        <time>2025-06-15T07:40:22Z</time>
      </trkpt>
      <trkpt lat="45.13833" lon="0.61911">
        <ele>196.6</ele>
        <time>2025-06-15T07:40:23Z</time>
      </trkpt>
      <trkpt lat="45.1383" lon="0.61917">
        <ele>196.6</ele>
        <time>2025-06-15T07:40:24Z</time>
      </trkpt>
      <trkpt lat="45.13826" lon="0.61923">
        <ele>196.4</ele>
        <time>2025-06-15T07:40:25Z</time>
      </trkpt>
      <trkpt lat="45.13823" lon="0.61928">
        <ele>196.4</ele>
        <time>2025-06-15T07:40:26Z</time>
      </trkpt>
      <trkpt lat="45.1382" lon="0.61934">
        <ele>196.4</ele>
        <time>2025-06-15T07:40:27Z</time>
      </trkpt>
      <trkpt lat="45.13816" lon="0.6194">
        <ele>196.2</ele>
        <time>2025-06-15T07:40:28Z</time>
      </trkpt>
      <trkpt lat="45.13813" lon="0.61947">
        <ele>196</ele>
        <time>2025-06-15T07:40:29Z</time>
      </trkpt>
      <trkpt lat="45.1381" lon="0.61953">
        <ele>196</ele>
        <time>2025-06-15T07:40:30Z</time>
      </trkpt>
      <trkpt lat="45.13806" lon="0.61959">
        <ele>195.8</ele>
        <time>2025-06-15T07:40:31Z</time>
      </trkpt>
      <trkpt lat="45.13802" lon="0.61965">
        <ele>195.8</ele>
        <time>2025-06-15T07:40:32Z</time>
      </trkpt>
      <trkpt lat="45.13799" lon="0.61972">
        <ele>195.8</ele>
        <time>2025-06-15T07:40:33Z</time>
      </trkpt>
      <trkpt lat="45.13795" lon="0.61979">
        <ele>195.8</ele>
        <time>2025-06-15T07:40:34Z</time>
      </trkpt>
      <trkpt lat="45.13792" lon="0.61986">
        <ele>195.8</ele>
        <time>2025-06-15T07:40:35Z</time>
      </trkpt>
      <trkpt lat="45.13789" lon="0.61994">
        <ele>195.8</ele>
        <time>2025-06-15T07:40:36Z</time>
      </trkpt>
      <trkpt lat="45.13786" lon="0.62001">
        <ele>195.8</ele>
        <time>2025-06-15T07:40:37Z</time>
      </trkpt>
      <trkpt lat="45.13784" lon="0.62009">
        <ele>195.6</ele>
        <time>2025-06-15T07:40:38Z</time>
      </trkpt>
      <trkpt lat="45.13782" lon="0.62017">
        <ele>195.6</ele>
        <time>2025-06-15T07:40:39Z</time>
      </trkpt>
      <trkpt lat="45.1378" lon="0.62025">
        <ele>195.6</ele>
        <time>2025-06-15T07:40:40Z</time>
      </trkpt>
      <trkpt lat="45.13778" lon="0.62033">
        <ele>195.4</ele>
        <time>2025-06-15T07:40:41Z</time>
      </trkpt>
      <trkpt lat="45.13777" lon="0.62042">
        <ele>195.4</ele>
        <time>2025-06-15T07:40:42Z</time>
      </trkpt>
      <trkpt lat="45.13776" lon="0.6205">
        <ele>195.2</ele>
        <time>2025-06-15T07:40:43Z</time>
      </trkpt>
      <trkpt lat="45.13775" lon="0.62059">
        <ele>195.2</ele>
        <time>2025-06-15T07:40:44Z</time>
      </trkpt>
      <trkpt lat="45.13775" lon="0.62067">
        <ele>195.2</ele>
        <time>2025-06-15T07:40:45Z</time>
      </trkpt>
      <trkpt lat="45.13774" lon="0.62076">
        <ele>195.2</ele>
        <time>2025-06-15T07:40:46Z</time>
      </trkpt>
      <trkpt lat="45.13773" lon="0.62085">
        <ele>195</ele>
        <time>2025-06-15T07:40:47Z</time>
      </trkpt>
      <trkpt lat="45.13772" lon="0.62094">
        <ele>195</ele>
        <time>2025-06-15T07:40:48Z</time>
      </trkpt>
      <trkpt lat="45.13771" lon="0.62104">
        <ele>194.8</ele>
        <time>2025-06-15T07:40:49Z</time>
      </trkpt>
      <trkpt lat="45.13771" lon="0.62114">
        <ele>194.6</ele>
        <time>2025-06-15T07:40:50Z</time>
      </trkpt>
      <trkpt lat="45.1377" lon="0.62123">
        <ele>194.6</ele>
        <time>2025-06-15T07:40:51Z</time>
      </trkpt>
      <trkpt lat="45.13768" lon="0.62133">
        <ele>194.2</ele>
        <time>2025-06-15T07:40:52Z</time>
      </trkpt>
      <trkpt lat="45.13767" lon="0.62143">
        <ele>194</ele>
        <time>2025-06-15T07:40:53Z</time>
      </trkpt>
      <trkpt lat="45.13765" lon="0.62152">
        <ele>193.8</ele>
        <time>2025-06-15T07:40:54Z</time>
      </trkpt>
      <trkpt lat="45.13763" lon="0.62162">
        <ele>193.4</ele>
        <time>2025-06-15T07:40:55Z</time>
      </trkpt>
      <trkpt lat="45.13761" lon="0.62171">
        <ele>193.2</ele>
        <time>2025-06-15T07:40:56Z</time>
      </trkpt>
      <trkpt lat="45.13759" lon="0.6218">
        <ele>192.8</ele>
        <time>2025-06-15T07:40:57Z</time>
      </trkpt>
      <trkpt lat="45.13756" lon="0.6219">
        <ele>192.6</ele>
        <time>2025-06-15T07:40:58Z</time>
      </trkpt>
      <trkpt lat="45.13753" lon="0.62199">
        <ele>192.4</ele>
        <time>2025-06-15T07:40:59Z</time>
      </trkpt>
      <trkpt lat="45.1375" lon="0.62208">
        <ele>192</ele>
        <time>2025-06-15T07:41:00Z</time>
      </trkpt>
      <trkpt lat="45.13748" lon="0.62217">
        <ele>191.8</ele>
        <time>2025-06-15T07:41:01Z</time>
      </trkpt>
      <trkpt lat="45.13745" lon="0.62227">
        <ele>191.6</ele>
        <time>2025-06-15T07:41:02Z</time>
      </trkpt>
      <trkpt lat="45.13742" lon="0.62236">
        <ele>191.4</ele>
        <time>2025-06-15T07:41:03Z</time>
      </trkpt>
      <trkpt lat="45.13739" lon="0.62246">
        <ele>191</ele>
        <time>2025-06-15T07:41:04Z</time>
      </trkpt>
      <trkpt lat="45.13736" lon="0.62256">
        <ele>190.6</ele>
        <time>2025-06-15T07:41:05Z</time>
      </trkpt>
      <trkpt lat="45.13733" lon="0.62266">
        <ele>190.4</ele>
        <time>2025-06-15T07:41:06Z</time>
      </trkpt>
      <trkpt lat="45.1373" lon="0.62276">
        <ele>190</ele>
        <time>2025-06-15T07:41:07Z</time>
      </trkpt>
      <trkpt lat="45.13728" lon="0.62286">
        <ele>189.8</ele>
        <time>2025-06-15T07:41:08Z</time>
      </trkpt>
      <trkpt lat="45.13725" lon="0.62296">
        <ele>189.6</ele>
        <time>2025-06-15T07:41:09Z</time>
      </trkpt>
      <trkpt lat="45.13722" lon="0.62305">
        <ele>189.4</ele>
        <time>2025-06-15T07:41:10Z</time>
      </trkpt>
      <trkpt lat="45.13718" lon="0.62313">
        <ele>189.2</ele>
        <time>2025-06-15T07:41:11Z</time>
      </trkpt>
      <trkpt lat="45.13715" lon="0.6232">
        <ele>188.8</ele>
        <time>2025-06-15T07:41:12Z</time>
      </trkpt>
      <trkpt lat="45.13712" lon="0.62325">
        <ele>188.8</ele>
        <time>2025-06-15T07:41:13Z</time>
      </trkpt>
      <trkpt lat="45.13709" lon="0.62331">
        <ele>188.4</ele>
        <time>2025-06-15T07:41:14Z</time>
      </trkpt>
      <trkpt lat="45.13707" lon="0.62336">
        <ele>188.4</ele>
        <time>2025-06-15T07:41:15Z</time>
      </trkpt>
      <trkpt lat="45.13704" lon="0.62341">
        <ele>188.2</ele>
        <time>2025-06-15T07:41:16Z</time>
      </trkpt>
      <trkpt lat="45.13702" lon="0.62346">
        <ele>188.2</ele>
        <time>2025-06-15T07:41:17Z</time>
      </trkpt>
      <trkpt lat="45.13701" lon="0.62351">
        <ele>188</ele>
        <time>2025-06-15T07:41:18Z</time>
      </trkpt>
      <trkpt lat="45.13699" lon="0.62355">
        <ele>188</ele>
        <time>2025-06-15T07:41:19Z</time>
      </trkpt>
      <trkpt lat="45.13696" lon="0.62356">
        <ele>188</ele>
        <time>2025-06-15T07:41:20Z</time>
      </trkpt>
      <trkpt lat="45.13694" lon="0.62354">
        <ele>187.8</ele>
        <time>2025-06-15T07:41:21Z</time>
      </trkpt>
      <trkpt lat="45.13693" lon="0.62349">
        <ele>187.6</ele>
        <time>2025-06-15T07:41:22Z</time>
      </trkpt>
      <trkpt lat="45.13692" lon="0.62343">
        <ele>187.4</ele>
        <time>2025-06-15T07:41:23Z</time>
      </trkpt>
      <trkpt lat="45.13692" lon="0.62336">
        <ele>187</ele>
        <time>2025-06-15T07:41:24Z</time>
      </trkpt>
      <trkpt lat="45.13692" lon="0.62328">
        <ele>186.6</ele>
        <time>2025-06-15T07:41:25Z</time>
      </trkpt>
      <trkpt lat="45.13691" lon="0.62319">
        <ele>186</ele>
        <time>2025-06-15T07:41:26Z</time>
      </trkpt>
      <trkpt lat="45.13692" lon="0.62308">
        <ele>185.2</ele>
        <time>2025-06-15T07:41:27Z</time>
      </trkpt>
      <trkpt lat="45.13691" lon="0.62298">
        <ele>184.6</ele>
        <time>2025-06-15T07:41:28Z</time>
      </trkpt>
      <trkpt lat="45.13691" lon="0.62286">
        <ele>184</ele>
        <time>2025-06-15T07:41:29Z</time>
      </trkpt>
      <trkpt lat="45.1369" lon="0.62275">
        <ele>183.4</ele>
        <time>2025-06-15T07:41:30Z</time>
      </trkpt>
      <trkpt lat="45.13689" lon="0.62263">
        <ele>182.6</ele>
        <time>2025-06-15T07:41:31Z</time>
      </trkpt>
      <trkpt lat="45.13688" lon="0.6225">
        <ele>181.8</ele>
        <time>2025-06-15T07:41:32Z</time>
      </trkpt>
      <trkpt lat="45.13687" lon="0.62236">
        <ele>180.6</ele>
        <time>2025-06-15T07:41:33Z</time>
      </trkpt>
      <trkpt lat="45.13686" lon="0.62223">
        <ele>179.8</ele>
        <time>2025-06-15T07:41:34Z</time>
      </trkpt>
      <trkpt lat="45.13684" lon="0.6221">
        <ele>178.4</ele>
        <time>2025-06-15T07:41:35Z</time>
      </trkpt>
      <trkpt lat="45.13683" lon="0.62197">
        <ele>177</ele>
        <time>2025-06-15T07:41:36Z</time>
      </trkpt>
      <trkpt lat="45.13681" lon="0.62183">
        <ele>175.6</ele>
        <time>2025-06-15T07:41:37Z</time>
      </trkpt>
      <trkpt lat="45.1368" lon="0.62169">
        <ele>174.2</ele>
        <time>2025-06-15T07:41:38Z</time>
      </trkpt>
      <trkpt lat="45.13678" lon="0.62156">
        <ele>173.2</ele>
        <time>2025-06-15T07:41:39Z</time>
      </trkpt>
      <trkpt lat="45.13677" lon="0.62143">
        <ele>172.2</ele>
        <time>2025-06-15T07:41:40Z</time>
      </trkpt>
      <trkpt lat="45.13675" lon="0.6213">
        <ele>171.6</ele>
        <time>2025-06-15T07:41:41Z</time>
      </trkpt>
      <trkpt lat="45.13673" lon="0.62115">
        <ele>170.6</ele>
        <time>2025-06-15T07:41:42Z</time>
      </trkpt>
      <trkpt lat="45.13671" lon="0.62102">
        <ele>169.6</ele>
        <time>2025-06-15T07:41:43Z</time>
      </trkpt>
      <trkpt lat="45.13668" lon="0.62089">
        <ele>168.4</ele>
        <time>2025-06-15T07:41:44Z</time>
      </trkpt>
      <trkpt lat="45.13665" lon="0.62077">
        <ele>167.2</ele>
        <time>2025-06-15T07:41:45Z</time>
      </trkpt>
      <trkpt lat="45.13662" lon="0.62065">
        <ele>166</ele>
        <time>2025-06-15T07:41:46Z</time>
      </trkpt>
      <trkpt lat="45.1366" lon="0.62054">
        <ele>164.8</ele>
        <time>2025-06-15T07:41:47Z</time>
      </trkpt>
      <trkpt lat="45.13656" lon="0.62042">
        <ele>163.6</ele>
        <time>2025-06-15T07:41:48Z</time>
      </trkpt>
      <trkpt lat="45.13653" lon="0.62031">
        <ele>162</ele>
        <time>2025-06-15T07:41:49Z</time>
      </trkpt>
      <trkpt lat="45.13648" lon="0.62019">
        <ele>160.4</ele>
        <time>2025-06-15T07:41:50Z</time>
      </trkpt>
      <trkpt lat="45.13642" lon="0.62008">
        <ele>159.2</ele>
        <time>2025-06-15T07:41:51Z</time>
      </trkpt>
      <trkpt lat="45.13636" lon="0.61997">
        <ele>157.8</ele>
        <time>2025-06-15T07:41:52Z</time>
      </trkpt>
      <trkpt lat="45.1363" lon="0.61984">
        <ele>156</ele>
        <time>2025-06-15T07:41:53Z</time>
      </trkpt>
      <trkpt lat="45.13624" lon="0.61972">
        <ele>154.2</ele>
        <time>2025-06-15T07:41:54Z</time>
      </trkpt>
      <trkpt lat="45.13617" lon="0.61961">
        <ele>151.4</ele>
        <time>2025-06-15T07:41:55Z</time>
      </trkpt>
      <trkpt lat="45.1361" lon="0.61948">
        <ele>149.6</ele>
        <time>2025-06-15T07:41:56Z</time>
      </trkpt>
      <trkpt lat="45.13605" lon="0.61935">
        <ele>147.6</ele>
        <time>2025-06-15T07:41:57Z</time>
      </trkpt>
      <trkpt lat="45.13599" lon="0.61924">
        <ele>146</ele>
        <time>2025-06-15T07:41:58Z</time>
      </trkpt>
      <trkpt lat="45.13593" lon="0.61914">
        <ele>144.8</ele>
        <time>2025-06-15T07:41:59Z</time>
      </trkpt>
      <trkpt lat="45.13586" lon="0.61907">
        <ele>143.2</ele>
        <time>2025-06-15T07:42:00Z</time>
      </trkpt>
      <trkpt lat="45.13578" lon="0.61899">
        <ele>141.4</ele>
        <time>2025-06-15T07:42:01Z</time>
      </trkpt>
      <trkpt lat="45.13571" lon="0.61891">
        <ele>140.4</ele>
        <time>2025-06-15T07:42:02Z</time>
      </trkpt>
      <trkpt lat="45.13565" lon="0.61883">
        <ele>139.6</ele>
        <time>2025-06-15T07:42:03Z</time>
      </trkpt>
      <trkpt lat="45.13559" lon="0.61874">
        <ele>139.2</ele>
        <time>2025-06-15T07:42:04Z</time>
      </trkpt>
      <trkpt lat="45.13554" lon="0.61865">
        <ele>138.6</ele>
        <time>2025-06-15T07:42:05Z</time>
      </trkpt>
      <trkpt lat="45.1355" lon="0.61855">
        <ele>137.8</ele>
        <time>2025-06-15T07:42:06Z</time>
      </trkpt>
      <trkpt lat="45.13546" lon="0.61844">
        <ele>137</ele>
        <time>2025-06-15T07:42:07Z</time>
      </trkpt>
      <trkpt lat="45.13542" lon="0.61835">
        <ele>136.4</ele>
        <time>2025-06-15T07:42:08Z</time>
      </trkpt>
      <trkpt lat="45.13538" lon="0.61825">
        <ele>135.8</ele>
        <time>2025-06-15T07:42:09Z</time>
      </trkpt>
      <trkpt lat="45.13533" lon="0.61815">
        <ele>135.2</ele>
        <time>2025-06-15T07:42:10Z</time>
      </trkpt>
      <trkpt lat="45.13528" lon="0.61805">
        <ele>134.6</ele>
        <time>2025-06-15T07:42:11Z</time>
      </trkpt>
      <trkpt lat="45.13523" lon="0.61796">
        <ele>133.8</ele>
        <time>2025-06-15T07:42:12Z</time>
      </trkpt>
      <trkpt lat="45.13517" lon="0.61786">
        <ele>133.2</ele>
        <time>2025-06-15T07:42:13Z</time>
      </trkpt>
      <trkpt lat="45.13512" lon="0.61777">
        <ele>132.6</ele>
        <time>2025-06-15T07:42:14Z</time>
      </trkpt>
      <trkpt lat="45.13507" lon="0.61768">
        <ele>132.2</ele>
        <time>2025-06-15T07:42:15Z</time>
      </trkpt>
      <trkpt lat="45.13504" lon="0.6176">
        <ele>131.8</ele>
        <time>2025-06-15T07:42:16Z</time>
      </trkpt>
      <trkpt lat="45.13501" lon="0.61751">
        <ele>131.6</ele>
        <time>2025-06-15T07:42:17Z</time>
      </trkpt>
      <trkpt lat="45.13498" lon="0.61742">
        <ele>131</ele>
        <time>2025-06-15T07:42:18Z</time>
      </trkpt>
      <trkpt lat="45.13495" lon="0.61734">
        <ele>130.6</ele>
        <time>2025-06-15T07:42:19Z</time>
      </trkpt>
      <trkpt lat="45.13493" lon="0.61727">
        <ele>129.8</ele>
        <time>2025-06-15T07:42:20Z</time>
      </trkpt>
      <trkpt lat="45.1349" lon="0.6172">
        <ele>129.4</ele>
        <time>2025-06-15T07:42:21Z</time>
      </trkpt>
      <trkpt lat="45.13487" lon="0.61714">
        <ele>128.8</ele>
        <time>2025-06-15T07:42:22Z</time>
      </trkpt>
      <trkpt lat="45.13485" lon="0.61706">
        <ele>128.4</ele>
        <time>2025-06-15T07:42:23Z</time>
      </trkpt>
      <trkpt lat="45.13484" lon="0.61699">
        <ele>128</ele>
        <time>2025-06-15T07:42:24Z</time>
      </trkpt>
      <trkpt lat="45.13482" lon="0.61692">
        <ele>127.8</ele>
        <time>2025-06-15T07:42:25Z</time>
      </trkpt>
      <trkpt lat="45.1348" lon="0.61685">
        <ele>127.6</ele>
        <time>2025-06-15T07:42:26Z</time>
      </trkpt>
      <trkpt lat="45.13479" lon="0.61678">
        <ele>127.4</ele>
        <time>2025-06-15T07:42:27Z</time>
      </trkpt>
      <trkpt lat="45.13477" lon="0.61673">
        <ele>127.2</ele>
        <time>2025-06-15T07:42:28Z</time>
      </trkpt>
      <trkpt lat="45.13472" lon="0.6167">
        <ele>127</ele>
        <time>2025-06-15T07:42:29Z</time>
      </trkpt>
      <trkpt lat="45.13467" lon="0.61669">
        <ele>127</ele>
        <time>2025-06-15T07:42:30Z</time>
      </trkpt>
      <trkpt lat="45.1346" lon="0.61668">
        <ele>126.6</ele>
        <time>2025-06-15T07:42:31Z</time>
      </trkpt>
      <trkpt lat="45.13453" lon="0.61667">
        <ele>126.2</ele>
        <time>2025-06-15T07:42:32Z</time>
      </trkpt>
      <trkpt lat="45.13447" lon="0.61665">
        <ele>125.4</ele>
        <time>2025-06-15T07:42:33Z</time>
      </trkpt>
      <trkpt lat="45.13441" lon="0.61663">
        <ele>124.8</ele>
        <time>2025-06-15T07:42:34Z</time>
      </trkpt>
      <trkpt lat="45.13437" lon="0.6166">
        <ele>123.8</ele>
        <time>2025-06-15T07:42:35Z</time>
      </trkpt>
      <trkpt lat="45.13434" lon="0.6166">
        <ele>123.2</ele>
        <time>2025-06-15T07:42:36Z</time>
      </trkpt>
      <trkpt lat="45.13431" lon="0.61659">
        <ele>122.8</ele>
        <time>2025-06-15T07:42:37Z</time>
      </trkpt>
      <trkpt lat="45.13428" lon="0.61658">
        <ele>122.6</ele>
        <time>2025-06-15T07:42:38Z</time>
      </trkpt>
      <trkpt lat="45.13425" lon="0.61656">
        <ele>122.4</ele>
        <time>2025-06-15T07:42:39Z</time>
      </trkpt>
      <trkpt lat="45.13423" lon="0.61655">
        <ele>122.4</ele>
        <time>2025-06-15T07:42:40Z</time>
      </trkpt>
      <trkpt lat="45.1342" lon="0.61655">
        <ele>122.2</ele>
        <time>2025-06-15T07:42:41Z</time>
      </trkpt>
      <trkpt lat="45.13417" lon="0.61656">
        <ele>122.2</ele>
        <time>2025-06-15T07:42:42Z</time>
      </trkpt>
      <trkpt lat="45.13414" lon="0.61659">
        <ele>122.2</ele>
        <time>2025-06-15T07:42:43Z</time>
      </trkpt>
      <trkpt lat="45.13412" lon="0.61662">
        <ele>122.2</ele>
        <time>2025-06-15T07:42:44Z</time>
      </trkpt>
      <trkpt lat="45.13411" lon="0.61664">
        <ele>122.2</ele>
        <time>2025-06-15T07:42:45Z</time>
      </trkpt>
      <trkpt lat="45.13411" lon="0.61666">
        <ele>122.4</ele>
        <time>2025-06-15T07:42:46Z</time>
      </trkpt>
      <trkpt lat="45.1341" lon="0.61668">
        <ele>122.8</ele>
        <time>2025-06-15T07:42:47Z</time>
      </trkpt>
      <trkpt lat="45.13409" lon="0.61671">
        <ele>123</ele>
        <time>2025-06-15T07:42:48Z</time>
      </trkpt>
      <trkpt lat="45.13409" lon="0.61673">
        <ele>123.4</ele>
        <time>2025-06-15T07:42:49Z</time>
      </trkpt>
      <trkpt lat="45.13409" lon="0.61675">
        <ele>123.6</ele>
        <time>2025-06-15T07:42:50Z</time>
      </trkpt>
      <trkpt lat="45.13408" lon="0.61678">
        <ele>124</ele>
        <time>2025-06-15T07:42:51Z</time>
      </trkpt>
      <trkpt lat="45.13408" lon="0.6168">
        <ele>124.2</ele>
        <time>2025-06-15T07:42:52Z</time>
      </trkpt>
      <trkpt lat="45.13407" lon="0.61683">
        <ele>124.4</ele>
        <time>2025-06-15T07:42:53Z</time>
      </trkpt>
      <trkpt lat="45.13407" lon="0.61686">
        <ele>124.8</ele>
        <time>2025-06-15T07:42:54Z</time>
      </trkpt>
      <trkpt lat="45.13406" lon="0.61689">
        <ele>125</ele>
        <time>2025-06-15T07:42:55Z</time>
      </trkpt>
      <trkpt lat="45.13406" lon="0.61692">
        <ele>125</ele>
        <time>2025-06-15T07:42:56Z</time>
      </trkpt>
      <trkpt lat="45.13406" lon="0.61694">
        <ele>125.2</ele>
        <time>2025-06-15T07:42:57Z</time>
      </trkpt>
      <trkpt lat="45.13406" lon="0.61697">
        <ele>125.4</ele>
        <time>2025-06-15T07:42:58Z</time>
      </trkpt>
      <trkpt lat="45.13406" lon="0.617">
        <ele>125.6</ele>
        <time>2025-06-15T07:42:59Z</time>
      </trkpt>
      <trkpt lat="45.13406" lon="0.61703">
        <ele>125.8</ele>
        <time>2025-06-15T07:43:00Z</time>
      </trkpt>
      <trkpt lat="45.13406" lon="0.61706">
        <ele>126</ele>
        <time>2025-06-15T07:43:01Z</time>
      </trkpt>
      <trkpt lat="45.13406" lon="0.61708">
        <ele>126</ele>
        <time>2025-06-15T07:43:02Z</time>
      </trkpt>
      <trkpt lat="45.13406" lon="0.6171">
        <ele>126.2</ele>
        <time>2025-06-15T07:43:03Z</time>
      </trkpt>
      <trkpt lat="45.13406" lon="0.61712">
        <ele>126.6</ele>
        <time>2025-06-15T07:43:04Z</time>
      </trkpt>
      <trkpt lat="45.13405" lon="0.61715">
        <ele>126.8</ele>
        <time>2025-06-15T07:43:05Z</time>
      </trkpt>
      <trkpt lat="45.13404" lon="0.61717">
        <ele>127</ele>
        <time>2025-06-15T07:43:06Z</time>
      </trkpt>
      <trkpt lat="45.13403" lon="0.61719">
        <ele>127</ele>
        <time>2025-06-15T07:43:07Z</time>
      </trkpt>
      <trkpt lat="45.13403" lon="0.61721">
        <ele>127.2</ele>
        <time>2025-06-15T07:43:08Z</time>
      </trkpt>
      <trkpt lat="45.13402" lon="0.61723">
        <ele>127.2</ele>
        <time>2025-06-15T07:43:09Z</time>
      </trkpt>
      <trkpt lat="45.13401" lon="0.61725">
        <ele>127.4</ele>
        <time>2025-06-15T07:43:10Z</time>
      </trkpt>
      <trkpt lat="45.13399" lon="0.61727">
        <ele>127.8</ele>
        <time>2025-06-15T07:43:11Z</time>
      </trkpt>
      <trkpt lat="45.13397" lon="0.61728">
        <ele>128.2</ele>
        <time>2025-06-15T07:43:12Z</time>
      </trkpt>
      <trkpt lat="45.13396" lon="0.6173">
        <ele>128.6</ele>
        <time>2025-06-15T07:43:13Z</time>
      </trkpt>
      <trkpt lat="45.13394" lon="0.61731">
        <ele>129</ele>
        <time>2025-06-15T07:43:14Z</time>
      </trkpt>
      <trkpt lat="45.13393" lon="0.61733">
        <ele>129.2</ele>
        <time>2025-06-15T07:43:15Z</time>
      </trkpt>
      <trkpt lat="45.13391" lon="0.61734">
        <ele>129.4</ele>
        <time>2025-06-15T07:43:16Z</time>
      </trkpt>
      <trkpt lat="45.1339" lon="0.61736">
        <ele>129.6</ele>
        <time>2025-06-15T07:43:17Z</time>
      </trkpt>
      <trkpt lat="45.13388" lon="0.61737">
        <ele>129.8</ele>
        <time>2025-06-15T07:43:18Z</time>
      </trkpt>
      <trkpt lat="45.13387" lon="0.61738">
        <ele>130</ele>
        <time>2025-06-15T07:43:19Z</time>
      </trkpt>
      <trkpt lat="45.13385" lon="0.61738">
        <ele>130.2</ele>
        <time>2025-06-15T07:43:20Z</time>
      </trkpt>
      <trkpt lat="45.13383" lon="0.61738">
        <ele>130.6</ele>
        <time>2025-06-15T07:43:21Z</time>
      </trkpt>
      <trkpt lat="45.13381" lon="0.61737">
        <ele>130.8</ele>
        <time>2025-06-15T07:43:22Z</time>
      </trkpt>
      <trkpt lat="45.13379" lon="0.61737">
        <ele>131</ele>
        <time>2025-06-15T07:43:23Z</time>
      </trkpt>
      <trkpt lat="45.13378" lon="0.61737">
        <ele>131.4</ele>
        <time>2025-06-15T07:43:24Z</time>
      </trkpt>
      <trkpt lat="45.13375" lon="0.61736">
        <ele>131.6</ele>
        <time>2025-06-15T07:43:25Z</time>
      </trkpt>
      <trkpt lat="45.13373" lon="0.61736">
        <ele>131.8</ele>
        <time>2025-06-15T07:43:26Z</time>
      </trkpt>
      <trkpt lat="45.13371" lon="0.61735">
        <ele>131.8</ele>
        <time>2025-06-15T07:43:27Z</time>
      </trkpt>
      <trkpt lat="45.13369" lon="0.61736">
        <ele>131.8</ele>
        <time>2025-06-15T07:43:28Z</time>
      </trkpt>
      <trkpt lat="45.13366" lon="0.61736">
        <ele>132</ele>
        <time>2025-06-15T07:43:29Z</time>
      </trkpt>
      <trkpt lat="45.13364" lon="0.61737">
        <ele>132</ele>
        <time>2025-06-15T07:43:30Z</time>
      </trkpt>
      <trkpt lat="45.13361" lon="0.61737">
        <ele>131.8</ele>
        <time>2025-06-15T07:43:31Z</time>
      </trkpt>
      <trkpt lat="45.13358" lon="0.61737">
        <ele>131.8</ele>
        <time>2025-06-15T07:43:32Z</time>
      </trkpt>
      <trkpt lat="45.13354" lon="0.61738">
        <ele>131.8</ele>
        <time>2025-06-15T07:43:33Z</time>
      </trkpt>
      <trkpt lat="45.13351" lon="0.61739">
        <ele>131.6</ele>
        <time>2025-06-15T07:43:34Z</time>
      </trkpt>
      <trkpt lat="45.13347" lon="0.6174">
        <ele>131.6</ele>
        <time>2025-06-15T07:43:35Z</time>
      </trkpt>
      <trkpt lat="45.13343" lon="0.61741">
        <ele>131.4</ele>
        <time>2025-06-15T07:43:36Z</time>
      </trkpt>
      <trkpt lat="45.13339" lon="0.61742">
        <ele>131.4</ele>
        <time>2025-06-15T07:43:37Z</time>
      </trkpt>
      <trkpt lat="45.13335" lon="0.61743">
        <ele>131.4</ele>
        <time>2025-06-15T07:43:38Z</time>
      </trkpt>
      <trkpt lat="45.13331" lon="0.61744">
        <ele>131.4</ele>
        <time>2025-06-15T07:43:39Z</time>
      </trkpt>
      <trkpt lat="45.13327" lon="0.61746">
        <ele>131.2</ele>
        <time>2025-06-15T07:43:40Z</time>
      </trkpt>
      <trkpt lat="45.13323" lon="0.61747">
        <ele>131.2</ele>
        <time>2025-06-15T07:43:41Z</time>
      </trkpt>
      <trkpt lat="45.13319" lon="0.61749">
        <ele>131</ele>
        <time>2025-06-15T07:43:42Z</time>
      </trkpt>
      <trkpt lat="45.13315" lon="0.6175">
        <ele>131</ele>
        <time>2025-06-15T07:43:43Z</time>
      </trkpt>
      <trkpt lat="45.13311" lon="0.61752">
        <ele>131</ele>
        <time>2025-06-15T07:43:44Z</time>
      </trkpt>
      <trkpt lat="45.13307" lon="0.61753">
        <ele>131</ele>
        <time>2025-06-15T07:43:45Z</time>
      </trkpt>
      <trkpt lat="45.13302" lon="0.61755">
        <ele>131</ele>
        <time>2025-06-15T07:43:46Z</time>
      </trkpt>
      <trkpt lat="45.13298" lon="0.61756">
        <ele>130.8</ele>
        <time>2025-06-15T07:43:47Z</time>
      </trkpt>
      <trkpt lat="45.13293" lon="0.61758">
        <ele>130.8</ele>
        <time>2025-06-15T07:43:48Z</time>
      </trkpt>
      <trkpt lat="45.13289" lon="0.61759">
        <ele>130.8</ele>
        <time>2025-06-15T07:43:49Z</time>
      </trkpt>
      <trkpt lat="45.13285" lon="0.61761">
        <ele>130.8</ele>
        <time>2025-06-15T07:43:50Z</time>
      </trkpt>
      <trkpt lat="45.1328" lon="0.61762">
        <ele>130.8</ele>
        <time>2025-06-15T07:43:51Z</time>
      </trkpt>
      <trkpt lat="45.13276" lon="0.61763">
        <ele>130.8</ele>
        <time>2025-06-15T07:43:52Z</time>
      </trkpt>
      <trkpt lat="45.13271" lon="0.61765">
        <ele>130.6</ele>
        <time>2025-06-15T07:43:53Z</time>
      </trkpt>
      <trkpt lat="45.13267" lon="0.61766">
        <ele>130.6</ele>
        <time>2025-06-15T07:43:54Z</time>
      </trkpt>
      <trkpt lat="45.13263" lon="0.61767">
        <ele>130.6</ele>
        <time>2025-06-15T07:43:55Z</time>
      </trkpt>
      <trkpt lat="45.13258" lon="0.61768">
        <ele>130.6</ele>
        <time>2025-06-15T07:43:56Z</time>
      </trkpt>
      <trkpt lat="45.13254" lon="0.61769">
        <ele>130.6</ele>
        <time>2025-06-15T07:43:57Z</time>
      </trkpt>
      <trkpt lat="45.13249" lon="0.6177">
        <ele>130.6</ele>
        <time>2025-06-15T07:43:58Z</time>
      </trkpt>
      <trkpt lat="45.13245" lon="0.61771">
        <ele>130.6</ele>
        <time>2025-06-15T07:43:59Z</time>
      </trkpt>
      <trkpt lat="45.13241" lon="0.61772">
        <ele>130.6</ele>
        <time>2025-06-15T07:44:00Z</time>
      </trkpt>
      <trkpt lat="45.13236" lon="0.61773">
        <ele>130.6</ele>
        <time>2025-06-15T07:44:01Z</time>
      </trkpt>
      <trkpt lat="45.13231" lon="0.61774">
        <ele>130.6</ele>
        <time>2025-06-15T07:44:02Z</time>
      </trkpt>
      <trkpt lat="45.13226" lon="0.61775">
        <ele>130.6</ele>
        <time>2025-06-15T07:44:03Z</time>
      </trkpt>
      <trkpt lat="45.13221" lon="0.61776">
        <ele>130.4</ele>
        <time>2025-06-15T07:44:04Z</time>
      </trkpt>
      <trkpt lat="45.13216" lon="0.61778">
        <ele>130.4</ele>
        <time>2025-06-15T07:44:05Z</time>
      </trkpt>
      <trkpt lat="45.13212" lon="0.61779">
        <ele>130.4</ele>
        <time>2025-06-15T07:44:06Z</time>
      </trkpt>
      <trkpt lat="45.13207" lon="0.61781">
        <ele>130.4</ele>
        <time>2025-06-15T07:44:07Z</time>
      </trkpt>
      <trkpt lat="45.13202" lon="0.61783">
        <ele>130.4</ele>
        <time>2025-06-15T07:44:08Z</time>
      </trkpt>
      <trkpt lat="45.13197" lon="0.61784">
        <ele>130.4</ele>
        <time>2025-06-15T07:44:09Z</time>
      </trkpt>
      <trkpt lat="45.13192" lon="0.61785">
        <ele>130.4</ele>
        <time>2025-06-15T07:44:10Z</time>
      </trkpt>
      <trkpt lat="45.13187" lon="0.61786">
        <ele>130.4</ele>
        <time>2025-06-15T07:44:11Z</time>
      </trkpt>
      <trkpt lat="45.13182" lon="0.61787">
        <ele>130.4</ele>
        <time>2025-06-15T07:44:12Z</time>
      </trkpt>
      <trkpt lat="45.13176" lon="0.61789">
        <ele>130.2</ele>
        <time>2025-06-15T07:44:13Z</time>
      </trkpt>
      <trkpt lat="45.1317" lon="0.6179">
        <ele>130.2</ele>
        <time>2025-06-15T07:44:14Z</time>
      </trkpt>
      <trkpt lat="45.13165" lon="0.61791">
        <ele>130.2</ele>
        <time>2025-06-15T07:44:15Z</time>
      </trkpt>
      <trkpt lat="45.1316" lon="0.61792">
        <ele>130.2</ele>
        <time>2025-06-15T07:44:16Z</time>
      </trkpt>
      <trkpt lat="45.13154" lon="0.61794">
        <ele>130.2</ele>
        <time>2025-06-15T07:44:17Z</time>
      </trkpt>
      <trkpt lat="45.1315" lon="0.61796">
        <ele>130.2</ele>
        <time>2025-06-15T07:44:18Z</time>
      </trkpt>
      <trkpt lat="45.13144" lon="0.61797">
        <ele>130.2</ele>
        <time>2025-06-15T07:44:19Z</time>
      </trkpt>
      <trkpt lat="45.13139" lon="0.61798">
        <ele>130</ele>
        <time>2025-06-15T07:44:20Z</time>
      </trkpt>
      <trkpt lat="45.13134" lon="0.618">
        <ele>130</ele>
        <time>2025-06-15T07:44:21Z</time>
      </trkpt>
      <trkpt lat="45.1313" lon="0.61801">
        <ele>130</ele>
        <time>2025-06-15T07:44:22Z</time>
      </trkpt>
      <trkpt lat="45.13125" lon="0.61803">
        <ele>130</ele>
        <time>2025-06-15T07:44:23Z</time>
      </trkpt>
      <trkpt lat="45.1312" lon="0.61805">
        <ele>130</ele>
        <time>2025-06-15T07:44:24Z</time>
      </trkpt>
      <trkpt lat="45.13115" lon="0.61806">
        <ele>130</ele>
        <time>2025-06-15T07:44:25Z</time>
      </trkpt>
      <trkpt lat="45.13111" lon="0.61808">
        <ele>130.2</ele>
        <time>2025-06-15T07:44:26Z</time>
      </trkpt>
      <trkpt lat="45.13106" lon="0.6181">
        <ele>130.2</ele>
        <time>2025-06-15T07:44:27Z</time>
      </trkpt>
      <trkpt lat="45.13101" lon="0.61812">
        <ele>130.2</ele>
        <time>2025-06-15T07:44:28Z</time>
      </trkpt>
      <trkpt lat="45.13097" lon="0.61814">
        <ele>130.2</ele>
        <time>2025-06-15T07:44:29Z</time>
      </trkpt>
      <trkpt lat="45.13092" lon="0.61817">
        <ele>130.2</ele>
        <time>2025-06-15T07:44:30Z</time>
      </trkpt>
      <trkpt lat="45.13088" lon="0.61819">
        <ele>130.2</ele>
        <time>2025-06-15T07:44:31Z</time>
      </trkpt>
      <trkpt lat="45.13084" lon="0.61822">
        <ele>130.2</ele>
        <time>2025-06-15T07:44:32Z</time>
      </trkpt>
      <trkpt lat="45.13079" lon="0.61826">
        <ele>130.2</ele>
        <time>2025-06-15T07:44:33Z</time>
      </trkpt>
      <trkpt lat="45.13076" lon="0.61829">
        <ele>130.2</ele>
        <time>2025-06-15T07:44:34Z</time>
      </trkpt>
      <trkpt lat="45.13072" lon="0.61833">
        <ele>130.2</ele>
        <time>2025-06-15T07:44:35Z</time>
      </trkpt>
      <trkpt lat="45.13068" lon="0.61837">
        <ele>130.2</ele>
        <time>2025-06-15T07:44:36Z</time>
      </trkpt>
      <trkpt lat="45.13065" lon="0.6184">
        <ele>130.4</ele>
        <time>2025-06-15T07:44:37Z</time>
      </trkpt>
      <trkpt lat="45.13061" lon="0.61843">
        <ele>130.4</ele>
        <time>2025-06-15T07:44:38Z</time>
      </trkpt>
      <trkpt lat="45.13058" lon="0.61846">
        <ele>130.6</ele>
        <time>2025-06-15T07:44:39Z</time>
      </trkpt>
      <trkpt lat="45.13055" lon="0.6185">
        <ele>130.8</ele>
        <time>2025-06-15T07:44:40Z</time>
      </trkpt>
      <trkpt lat="45.13052" lon="0.61853">
        <ele>131</ele>
        <time>2025-06-15T07:44:41Z</time>
      </trkpt>
      <trkpt lat="45.1305" lon="0.61857">
        <ele>131</ele>
        <time>2025-06-15T07:44:42Z</time>
      </trkpt>
      <trkpt lat="45.13047" lon="0.6186">
        <ele>131.2</ele>
        <time>2025-06-15T07:44:43Z</time>
      </trkpt>
      <trkpt lat="45.13045" lon="0.61864">
        <ele>131.4</ele>
        <time>2025-06-15T07:44:44Z</time>
      </trkpt>
      <trkpt lat="45.13042" lon="0.61867">
        <ele>131.6</ele>
        <time>2025-06-15T07:44:45Z</time>
      </trkpt>
      <trkpt lat="45.1304" lon="0.6187">
        <ele>131.8</ele>
        <time>2025-06-15T07:44:46Z</time>
      </trkpt>
      <trkpt lat="45.13038" lon="0.61873">
        <ele>131.8</ele>
        <time>2025-06-15T07:44:47Z</time>
      </trkpt>
      <trkpt lat="45.13035" lon="0.61877">
        <ele>132</ele>
        <time>2025-06-15T07:44:48Z</time>
      </trkpt>
      <trkpt lat="45.13032" lon="0.6188">
        <ele>132</ele>
        <time>2025-06-15T07:44:49Z</time>
      </trkpt>
      <trkpt lat="45.1303" lon="0.61884">
        <ele>132.2</ele>
        <time>2025-06-15T07:44:50Z</time>
      </trkpt>
      <trkpt lat="45.13028" lon="0.61888">
        <ele>132.2</ele>
        <time>2025-06-15T07:44:51Z</time>
      </trkpt>
      <trkpt lat="45.13026" lon="0.61891">
        <ele>132.2</ele>
        <time>2025-06-15T07:44:52Z</time>
      </trkpt>
      <trkpt lat="45.13024" lon="0.61895">
        <ele>132.4</ele>
        <time>2025-06-15T07:44:53Z</time>
      </trkpt>
      <trkpt lat="45.13022" lon="0.61899">
        <ele>132.6</ele>
        <time>2025-06-15T07:44:54Z</time>
      </trkpt>
      <trkpt lat="45.1302" lon="0.61902">
        <ele>132.6</ele>
        <time>2025-06-15T07:44:55Z</time>
      </trkpt>
      <trkpt lat="45.13018" lon="0.61906">
        <ele>132.8</ele>
        <time>2025-06-15T07:44:56Z</time>
      </trkpt>
      <trkpt lat="45.13016" lon="0.6191">
        <ele>132.8</ele>
        <time>2025-06-15T07:44:57Z</time>
      </trkpt>
      <trkpt lat="45.13014" lon="0.61914">
        <ele>132.8</ele>
        <time>2025-06-15T07:44:58Z</time>
      </trkpt>
      <trkpt lat="45.13012" lon="0.61918">
        <ele>133</ele>
        <time>2025-06-15T07:44:59Z</time>
      </trkpt>
      <trkpt lat="45.1301" lon="0.61922">
        <ele>133</ele>
        <time>2025-06-15T07:45:00Z</time>
      </trkpt>
      <trkpt lat="45.13008" lon="0.61926">
        <ele>133.2</ele>
        <time>2025-06-15T07:45:01Z</time>
      </trkpt>
      <trkpt lat="45.13005" lon="0.6193">
        <ele>133.2</ele>
        <time>2025-06-15T07:45:02Z</time>
      </trkpt>
      <trkpt lat="45.13003" lon="0.61934">
        <ele>133.2</ele>
        <time>2025-06-15T07:45:03Z</time>
      </trkpt>
      <trkpt lat="45.13001" lon="0.61938">
        <ele>133.2</ele>
        <time>2025-06-15T07:45:04Z</time>
      </trkpt>
      <trkpt lat="45.12999" lon="0.61943">
        <ele>133.4</ele>
        <time>2025-06-15T07:45:05Z</time>
      </trkpt>
      <trkpt lat="45.12997" lon="0.61947">
        <ele>133.4</ele>
        <time>2025-06-15T07:45:06Z</time>
      </trkpt>
      <trkpt lat="45.12995" lon="0.6195">
        <ele>133.4</ele>
        <time>2025-06-15T07:45:07Z</time>
      </trkpt>
      <trkpt lat="45.12993" lon="0.61954">
        <ele>133.4</ele>
        <time>2025-06-15T07:45:08Z</time>
      </trkpt>
      <trkpt lat="45.12991" lon="0.61958">
        <ele>133.6</ele>
        <time>2025-06-15T07:45:09Z</time>
      </trkpt>
      <trkpt lat="45.12989" lon="0.61962">
        <ele>133.6</ele>
        <time>2025-06-15T07:45:10Z</time>
      </trkpt>
      <trkpt lat="45.12987" lon="0.61965">
        <ele>133.8</ele>
        <time>2025-06-15T07:45:11Z</time>
      </trkpt>
      <trkpt lat="45.12985" lon="0.61969">
        <ele>133.8</ele>
        <time>2025-06-15T07:45:12Z</time>
      </trkpt>
      <trkpt lat="45.12983" lon="0.61973">
        <ele>134</ele>
        <time>2025-06-15T07:45:13Z</time>
      </trkpt>
      <trkpt lat="45.12981" lon="0.61977">
        <ele>134.2</ele>
        <time>2025-06-15T07:45:14Z</time>
      </trkpt>
      <trkpt lat="45.12979" lon="0.6198">
        <ele>134.2</ele>
        <time>2025-06-15T07:45:15Z</time>
      </trkpt>
      <trkpt lat="45.12977" lon="0.61984">
        <ele>134.4</ele>
        <time>2025-06-15T07:45:16Z</time>
      </trkpt>
      <trkpt lat="45.12975" lon="0.61988">
        <ele>134.4</ele>
        <time>2025-06-15T07:45:17Z</time>
      </trkpt>
      <trkpt lat="45.12973" lon="0.61991">
        <ele>134.4</ele>
        <time>2025-06-15T07:45:18Z</time>
      </trkpt>
      <trkpt lat="45.12971" lon="0.61994">
        <ele>134.6</ele>
        <time>2025-06-15T07:45:19Z</time>
      </trkpt>
      <trkpt lat="45.12969" lon="0.61998">
        <ele>134.6</ele>
        <time>2025-06-15T07:45:20Z</time>
      </trkpt>
      <trkpt lat="45.12967" lon="0.62002">
        <ele>134.6</ele>
        <time>2025-06-15T07:45:21Z</time>
      </trkpt>
      <trkpt lat="45.12965" lon="0.62006">
        <ele>134.6</ele>
        <time>2025-06-15T07:45:22Z</time>
      </trkpt>
      <trkpt lat="45.12964" lon="0.6201">
        <ele>134.8</ele>
        <time>2025-06-15T07:45:23Z</time>
      </trkpt>
      <trkpt lat="45.12962" lon="0.62014">
        <ele>134.8</ele>
        <time>2025-06-15T07:45:24Z</time>
      </trkpt>
      <trkpt lat="45.1296" lon="0.62017">
        <ele>134.8</ele>
        <time>2025-06-15T07:45:25Z</time>
      </trkpt>
      <trkpt lat="45.12959" lon="0.62022">
        <ele>134.8</ele>
        <time>2025-06-15T07:45:26Z</time>
      </trkpt>
      <trkpt lat="45.12957" lon="0.62026">
        <ele>134.8</ele>
        <time>2025-06-15T07:45:27Z</time>
      </trkpt>
      <trkpt lat="45.12956" lon="0.6203">
        <ele>135</ele>
        <time>2025-06-15T07:45:28Z</time>
      </trkpt>
      <trkpt lat="45.12954" lon="0.62034">
        <ele>135</ele>
        <time>2025-06-15T07:45:29Z</time>
      </trkpt>
      <trkpt lat="45.12953" lon="0.62038">
        <ele>135</ele>
        <time>2025-06-15T07:45:30Z</time>
      </trkpt>
      <trkpt lat="45.12951" lon="0.62042">
        <ele>135</ele>
        <time>2025-06-15T07:45:31Z</time>
      </trkpt>
      <trkpt lat="45.1295" lon="0.62046">
        <ele>135</ele>
        <time>2025-06-15T07:45:32Z</time>
      </trkpt>
      <trkpt lat="45.12948" lon="0.6205">
        <ele>135</ele>
        <time>2025-06-15T07:45:33Z</time>
      </trkpt>
      <trkpt lat="45.12946" lon="0.62054">
        <ele>135</ele>
        <time>2025-06-15T07:45:34Z</time>
      </trkpt>
      <trkpt lat="45.12945" lon="0.62059">
        <ele>135</ele>
        <time>2025-06-15T07:45:35Z</time>
      </trkpt>
      <trkpt lat="45.12943" lon="0.62063">
        <ele>135.2</ele>
        <time>2025-06-15T07:45:36Z</time>
      </trkpt>
      <trkpt lat="45.12941" lon="0.62067">
        <ele>135.2</ele>
        <time>2025-06-15T07:45:37Z</time>
      </trkpt>
      <trkpt lat="45.1294" lon="0.62071">
        <ele>135.2</ele>
        <time>2025-06-15T07:45:38Z</time>
      </trkpt>
      <trkpt lat="45.12938" lon="0.62075">
        <ele>135.4</ele>
        <time>2025-06-15T07:45:39Z</time>
      </trkpt>
      <trkpt lat="45.12936" lon="0.6208">
        <ele>135.4</ele>
        <time>2025-06-15T07:45:40Z</time>
      </trkpt>
      <trkpt lat="45.12934" lon="0.62084">
        <ele>135.4</ele>
        <time>2025-06-15T07:45:41Z</time>
      </trkpt>
      <trkpt lat="45.12933" lon="0.62088">
        <ele>135.4</ele>
        <time>2025-06-15T07:45:42Z</time>
      </trkpt>
      <trkpt lat="45.12931" lon="0.62093">
        <ele>135.6</ele>
        <time>2025-06-15T07:45:43Z</time>
      </trkpt>
      <trkpt lat="45.12929" lon="0.62097">
        <ele>135.6</ele>
        <time>2025-06-15T07:45:44Z</time>
      </trkpt>
      <trkpt lat="45.12927" lon="0.62101">
        <ele>135.6</ele>
        <time>2025-06-15T07:45:45Z</time>
      </trkpt>
      <trkpt lat="45.12925" lon="0.62105">
        <ele>135.8</ele>
        <time>2025-06-15T07:45:46Z</time>
      </trkpt>
      <trkpt lat="45.12924" lon="0.62109">
        <ele>135.8</ele>
        <time>2025-06-15T07:45:47Z</time>
      </trkpt>
      <trkpt lat="45.12922" lon="0.62113">
        <ele>135.8</ele>
        <time>2025-06-15T07:45:48Z</time>
      </trkpt>
      <trkpt lat="45.1292" lon="0.62117">
        <ele>135.8</ele>
        <time>2025-06-15T07:45:49Z</time>
      </trkpt>
      <trkpt lat="45.12917" lon="0.62121">
        <ele>135.8</ele>
        <time>2025-06-15T07:45:50Z</time>
      </trkpt>
      <trkpt lat="45.12915" lon="0.62125">
        <ele>136</ele>
        <time>2025-06-15T07:45:51Z</time>
      </trkpt>
      <trkpt lat="45.12913" lon="0.62128">
        <ele>136</ele>
        <time>2025-06-15T07:45:52Z</time>
      </trkpt>
      <trkpt lat="45.1291" lon="0.62132">
        <ele>136.2</ele>
        <time>2025-06-15T07:45:53Z</time>
      </trkpt>
      <trkpt lat="45.12908" lon="0.62136">
        <ele>136.4</ele>
        <time>2025-06-15T07:45:54Z</time>
      </trkpt>
      <trkpt lat="45.12906" lon="0.62141">
        <ele>136.4</ele>
        <time>2025-06-15T07:45:55Z</time>
      </trkpt>
      <trkpt lat="45.12903" lon="0.62144">
        <ele>136.6</ele>
        <time>2025-06-15T07:45:56Z</time>
      </trkpt>
      <trkpt lat="45.12901" lon="0.62148">
        <ele>136.6</ele>
        <time>2025-06-15T07:45:57Z</time>
      </trkpt>
      <trkpt lat="45.12898" lon="0.62152">
        <ele>136.6</ele>
        <time>2025-06-15T07:45:58Z</time>
      </trkpt>
      <trkpt lat="45.12896" lon="0.62156">
        <ele>136.8</ele>
        <time>2025-06-15T07:45:59Z</time>
      </trkpt>
      <trkpt lat="45.12893" lon="0.62159">
        <ele>136.8</ele>
        <time>2025-06-15T07:46:00Z</time>
      </trkpt>
      <trkpt lat="45.12891" lon="0.62163">
        <ele>136.8</ele>
        <time>2025-06-15T07:46:01Z</time>
      </trkpt>
      <trkpt lat="45.12889" lon="0.62166">
        <ele>137</ele>
        <time>2025-06-15T07:46:02Z</time>
      </trkpt>
      <trkpt lat="45.12886" lon="0.6217">
        <ele>137</ele>
        <time>2025-06-15T07:46:03Z</time>
      </trkpt>
      <trkpt lat="45.12884" lon="0.62173">
        <ele>137.2</ele>
        <time>2025-06-15T07:46:04Z</time>
      </trkpt>
      <trkpt lat="45.12881" lon="0.62177">
        <ele>137.2</ele>
        <time>2025-06-15T07:46:05Z</time>
      </trkpt>
      <trkpt lat="45.12879" lon="0.6218">
        <ele>137.4</ele>
        <time>2025-06-15T07:46:06Z</time>
      </trkpt>
      <trkpt lat="45.12877" lon="0.62183">
        <ele>137.4</ele>
        <time>2025-06-15T07:46:07Z</time>
      </trkpt>
      <trkpt lat="45.12874" lon="0.62186">
        <ele>137.4</ele>
        <time>2025-06-15T07:46:08Z</time>
      </trkpt>
      <trkpt lat="45.12871" lon="0.6219">
        <ele>137.6</ele>
        <time>2025-06-15T07:46:09Z</time>
      </trkpt>
      <trkpt lat="45.12869" lon="0.62193">
        <ele>137.6</ele>
        <time>2025-06-15T07:46:10Z</time>
      </trkpt>
      <trkpt lat="45.12866" lon="0.62197">
        <ele>137.8</ele>
        <time>2025-06-15T07:46:11Z</time>
      </trkpt>
      <trkpt lat="45.12864" lon="0.622">
        <ele>137.8</ele>
        <time>2025-06-15T07:46:12Z</time>
      </trkpt>
      <trkpt lat="45.12862" lon="0.62203">
        <ele>138</ele>
        <time>2025-06-15T07:46:13Z</time>
      </trkpt>
      <trkpt lat="45.12859" lon="0.62207">
        <ele>138</ele>
        <time>2025-06-15T07:46:14Z</time>
      </trkpt>
      <trkpt lat="45.12857" lon="0.62211">
        <ele>138.2</ele>
        <time>2025-06-15T07:46:15Z</time>
      </trkpt>
      <trkpt lat="45.12854" lon="0.62214">
        <ele>138.4</ele>
        <time>2025-06-15T07:46:16Z</time>
      </trkpt>
      <trkpt lat="45.12851" lon="0.62217">
        <ele>138.4</ele>
        <time>2025-06-15T07:46:17Z</time>
      </trkpt>
      <trkpt lat="45.12848" lon="0.6222">
        <ele>138.4</ele>
        <time>2025-06-15T07:46:18Z</time>
      </trkpt>
      <trkpt lat="45.12845" lon="0.62222">
        <ele>138.4</ele>
        <time>2025-06-15T07:46:19Z</time>
      </trkpt>
      <trkpt lat="45.12841" lon="0.62224">
        <ele>138.2</ele>
        <time>2025-06-15T07:46:20Z</time>
      </trkpt>
      <trkpt lat="45.12838" lon="0.62226">
        <ele>138.2</ele>
        <time>2025-06-15T07:46:21Z</time>
      </trkpt>
      <trkpt lat="45.12834" lon="0.62227">
        <ele>138.2</ele>
        <time>2025-06-15T07:46:22Z</time>
      </trkpt>
      <trkpt lat="45.12831" lon="0.62229">
        <ele>138.2</ele>
        <time>2025-06-15T07:46:23Z</time>
      </trkpt>
      <trkpt lat="45.12827" lon="0.6223">
        <ele>138.2</ele>
        <time>2025-06-15T07:46:24Z</time>
      </trkpt>
      <trkpt lat="45.12824" lon="0.62232">
        <ele>138.2</ele>
        <time>2025-06-15T07:46:25Z</time>
      </trkpt>
      <trkpt lat="45.1282" lon="0.62235">
        <ele>138.2</ele>
        <time>2025-06-15T07:46:26Z</time>
      </trkpt>
      <trkpt lat="45.12817" lon="0.62237">
        <ele>138.2</ele>
        <time>2025-06-15T07:46:27Z</time>
      </trkpt>
      <trkpt lat="45.12814" lon="0.62239">
        <ele>138.2</ele>
        <time>2025-06-15T07:46:28Z</time>
      </trkpt>
      <trkpt lat="45.1281" lon="0.62242">
        <ele>138.2</ele>
        <time>2025-06-15T07:46:29Z</time>
      </trkpt>
      <trkpt lat="45.12806" lon="0.62244">
        <ele>138</ele>
        <time>2025-06-15T07:46:30Z</time>
      </trkpt>
      <trkpt lat="45.12802" lon="0.62247">
        <ele>137.8</ele>
        <time>2025-06-15T07:46:31Z</time>
      </trkpt>
      <trkpt lat="45.12798" lon="0.6225">
        <ele>137.8</ele>
        <time>2025-06-15T07:46:32Z</time>
      </trkpt>
      <trkpt lat="45.12794" lon="0.62254">
        <ele>137.8</ele>
        <time>2025-06-15T07:46:33Z</time>
      </trkpt>
      <trkpt lat="45.12791" lon="0.62256">
        <ele>137.6</ele>
        <time>2025-06-15T07:46:34Z</time>
      </trkpt>
      <trkpt lat="45.12787" lon="0.62258">
        <ele>137.6</ele>
        <time>2025-06-15T07:46:35Z</time>
      </trkpt>
      <trkpt lat="45.12783" lon="0.6226">
        <ele>137.8</ele>
        <time>2025-06-15T07:46:36Z</time>
      </trkpt>
      <trkpt lat="45.12779" lon="0.62262">
        <ele>137.8</ele>
        <time>2025-06-15T07:46:37Z</time>
      </trkpt>
      <trkpt lat="45.12776" lon="0.62265">
        <ele>138</ele>
        <time>2025-06-15T07:46:38Z</time>
      </trkpt>
      <trkpt lat="45.12772" lon="0.62267">
        <ele>138.2</ele>
        <time>2025-06-15T07:46:39Z</time>
      </trkpt>
      <trkpt lat="45.12768" lon="0.62269">
        <ele>138.2</ele>
        <time>2025-06-15T07:46:40Z</time>
      </trkpt>
      <trkpt lat="45.12765" lon="0.62271">
        <ele>138.4</ele>
        <time>2025-06-15T07:46:41Z</time>
      </trkpt>
      <trkpt lat="45.12761" lon="0.62274">
        <ele>138.6</ele>
        <time>2025-06-15T07:46:42Z</time>
      </trkpt>
      <trkpt lat="45.12757" lon="0.62276">
        <ele>138.6</ele>
        <time>2025-06-15T07:46:43Z</time>
      </trkpt>
      <trkpt lat="45.12754" lon="0.62278">
        <ele>138.8</ele>
        <time>2025-06-15T07:46:44Z</time>
      </trkpt>
      <trkpt lat="45.12751" lon="0.6228">
        <ele>139</ele>
        <time>2025-06-15T07:46:45Z</time>
      </trkpt>
      <trkpt lat="45.12747" lon="0.62282">
        <ele>139</ele>
        <time>2025-06-15T07:46:46Z</time>
      </trkpt>
      <trkpt lat="45.12744" lon="0.62284">
        <ele>139</ele>
        <time>2025-06-15T07:46:47Z</time>
      </trkpt>
      <trkpt lat="45.1274" lon="0.62285">
        <ele>139.2</ele>
        <time>2025-06-15T07:46:48Z</time>
      </trkpt>
      <trkpt lat="45.12737" lon="0.62288">
        <ele>139.2</ele>
        <time>2025-06-15T07:46:49Z</time>
      </trkpt>
      <trkpt lat="45.12733" lon="0.62289">
        <ele>139.4</ele>
        <time>2025-06-15T07:46:50Z</time>
      </trkpt>
      <trkpt lat="45.1273" lon="0.62292">
        <ele>139.6</ele>
        <time>2025-06-15T07:46:51Z</time>
      </trkpt>
      <trkpt lat="45.12727" lon="0.62294">
        <ele>139.6</ele>
        <time>2025-06-15T07:46:52Z</time>
      </trkpt>
      <trkpt lat="45.12723" lon="0.62295">
        <ele>139.6</ele>
        <time>2025-06-15T07:46:53Z</time>
      </trkpt>
      <trkpt lat="45.1272" lon="0.62297">
        <ele>139.8</ele>
        <time>2025-06-15T07:46:54Z</time>
      </trkpt>
      <trkpt lat="45.12718" lon="0.62299">
        <ele>139.8</ele>
        <time>2025-06-15T07:46:55Z</time>
      </trkpt>
      <trkpt lat="45.12715" lon="0.623">
        <ele>139.8</ele>
        <time>2025-06-15T07:46:56Z</time>
      </trkpt>
      <trkpt lat="45.12712" lon="0.62302">
        <ele>140</ele>
        <time>2025-06-15T07:46:57Z</time>
      </trkpt>
      <trkpt lat="45.12709" lon="0.62304">
        <ele>140</ele>
        <time>2025-06-15T07:46:58Z</time>
      </trkpt>
      <trkpt lat="45.12706" lon="0.62305">
        <ele>140</ele>
        <time>2025-06-15T07:46:59Z</time>
      </trkpt>
      <trkpt lat="45.12703" lon="0.62307">
        <ele>140</ele>
        <time>2025-06-15T07:47:00Z</time>
      </trkpt>
      <trkpt lat="45.127" lon="0.62309">
        <ele>140.2</ele>
        <time>2025-06-15T07:47:01Z</time>
      </trkpt>
      <trkpt lat="45.12697" lon="0.62311">
        <ele>140.2</ele>
        <time>2025-06-15T07:47:02Z</time>
      </trkpt>
      <trkpt lat="45.12694" lon="0.62313">
        <ele>140.2</ele>
        <time>2025-06-15T07:47:03Z</time>
      </trkpt>
      <trkpt lat="45.1269" lon="0.62315">
        <ele>140.2</ele>
        <time>2025-06-15T07:47:04Z</time>
      </trkpt>
      <trkpt lat="45.12687" lon="0.62317">
        <ele>140.2</ele>
        <time>2025-06-15T07:47:05Z</time>
      </trkpt>
      <trkpt lat="45.12684" lon="0.62319">
        <ele>140.2</ele>
        <time>2025-06-15T07:47:06Z</time>
      </trkpt>
      <trkpt lat="45.12681" lon="0.62321">
        <ele>140.4</ele>
        <time>2025-06-15T07:47:07Z</time>
      </trkpt>
      <trkpt lat="45.12678" lon="0.62323">
        <ele>140.4</ele>
        <time>2025-06-15T07:47:08Z</time>
      </trkpt>
      <trkpt lat="45.12675" lon="0.62324">
        <ele>140.4</ele>
        <time>2025-06-15T07:47:09Z</time>
      </trkpt>
      <trkpt lat="45.12672" lon="0.62326">
        <ele>140.6</ele>
        <time>2025-06-15T07:47:10Z</time>
      </trkpt>
      <trkpt lat="45.12669" lon="0.62328">
        <ele>140.6</ele>
        <time>2025-06-15T07:47:11Z</time>
      </trkpt>
      <trkpt lat="45.12666" lon="0.6233">
        <ele>140.6</ele>
        <time>2025-06-15T07:47:12Z</time>
      </trkpt>
      <trkpt lat="45.12663" lon="0.62332">
        <ele>140.8</ele>
        <time>2025-06-15T07:47:13Z</time>
      </trkpt>
      <trkpt lat="45.1266" lon="0.62334">
        <ele>140.8</ele>
        <time>2025-06-15T07:47:14Z</time>
      </trkpt>
      <trkpt lat="45.12657" lon="0.62335">
        <ele>140.8</ele>
        <time>2025-06-15T07:47:15Z</time>
      </trkpt>
      <trkpt lat="45.12653" lon="0.62337">
        <ele>141</ele>
        <time>2025-06-15T07:47:16Z</time>
      </trkpt>
      <trkpt lat="45.1265" lon="0.62339">
        <ele>141</ele>
        <time>2025-06-15T07:47:17Z</time>
      </trkpt>
      <trkpt lat="45.12646" lon="0.62341">
        <ele>141</ele>
        <time>2025-06-15T07:47:18Z</time>
      </trkpt>
      <trkpt lat="45.12643" lon="0.62342">
        <ele>141</ele>
        <time>2025-06-15T07:47:19Z</time>
      </trkpt>
      <trkpt lat="45.1264" lon="0.62344">
        <ele>141</ele>
        <time>2025-06-15T07:47:20Z</time>
      </trkpt>
      <trkpt lat="45.12637" lon="0.62346">
        <ele>141</ele>
        <time>2025-06-15T07:47:21Z</time>
      </trkpt>
      <trkpt lat="45.12633" lon="0.62347">
        <ele>141</ele>
        <time>2025-06-15T07:47:22Z</time>
      </trkpt>
      <trkpt lat="45.1263" lon="0.62349">
        <ele>141</ele>
        <time>2025-06-15T07:47:23Z</time>
      </trkpt>
      <trkpt lat="45.12626" lon="0.62352">
        <ele>141</ele>
        <time>2025-06-15T07:47:24Z</time>
      </trkpt>
      <trkpt lat="45.12623" lon="0.62354">
        <ele>141</ele>
        <time>2025-06-15T07:47:25Z</time>
      </trkpt>
      <trkpt lat="45.12619" lon="0.62356">
        <ele>141</ele>
        <time>2025-06-15T07:47:26Z</time>
      </trkpt>
      <trkpt lat="45.12616" lon="0.62358">
        <ele>141</ele>
        <time>2025-06-15T07:47:27Z</time>
      </trkpt>
      <trkpt lat="45.12613" lon="0.6236">
        <ele>141.2</ele>
        <time>2025-06-15T07:47:28Z</time>
      </trkpt>
      <trkpt lat="45.12609" lon="0.62362">
        <ele>141.2</ele>
        <time>2025-06-15T07:47:29Z</time>
      </trkpt>
      <trkpt lat="45.12606" lon="0.62364">
        <ele>141.2</ele>
        <time>2025-06-15T07:47:30Z</time>
      </trkpt>
      <trkpt lat="45.12603" lon="0.62365">
        <ele>141.2</ele>
        <time>2025-06-15T07:47:31Z</time>
      </trkpt>
      <trkpt lat="45.126" lon="0.62367">
        <ele>141.2</ele>
        <time>2025-06-15T07:47:32Z</time>
      </trkpt>
      <trkpt lat="45.12597" lon="0.62368">
        <ele>141.4</ele>
        <time>2025-06-15T07:47:33Z</time>
      </trkpt>
      <trkpt lat="45.12593" lon="0.6237">
        <ele>141.4</ele>
        <time>2025-06-15T07:47:34Z</time>
      </trkpt>
      <trkpt lat="45.1259" lon="0.62371">
        <ele>141.4</ele>
        <time>2025-06-15T07:47:35Z</time>
      </trkpt>
      <trkpt lat="45.12587" lon="0.62373">
        <ele>141.6</ele>
        <time>2025-06-15T07:47:36Z</time>
      </trkpt>
      <trkpt lat="45.12583" lon="0.62375">
        <ele>141.6</ele>
        <time>2025-06-15T07:47:37Z</time>
      </trkpt>
      <trkpt lat="45.1258" lon="0.62376">
        <ele>141.6</ele>
        <time>2025-06-15T07:47:38Z</time>
      </trkpt>
      <trkpt lat="45.12577" lon="0.62378">
        <ele>141.6</ele>
        <time>2025-06-15T07:47:39Z</time>
      </trkpt>
      <trkpt lat="45.12573" lon="0.62379">
        <ele>141.6</ele>
        <time>2025-06-15T07:47:40Z</time>
      </trkpt>
      <trkpt lat="45.1257" lon="0.6238">
        <ele>141.6</ele>
        <time>2025-06-15T07:47:41Z</time>
      </trkpt>
      <trkpt lat="45.12567" lon="0.62381">
        <ele>141.6</ele>
        <time>2025-06-15T07:47:42Z</time>
      </trkpt>
      <trkpt lat="45.12563" lon="0.62382">
        <ele>141.6</ele>
        <time>2025-06-15T07:47:43Z</time>
      </trkpt>
      <trkpt lat="45.1256" lon="0.62383">
        <ele>141.6</ele>
        <time>2025-06-15T07:47:44Z</time>
      </trkpt>
      <trkpt lat="45.12557" lon="0.62385">
        <ele>141.6</ele>
        <time>2025-06-15T07:47:45Z</time>
      </trkpt>
      <trkpt lat="45.12554" lon="0.62386">
        <ele>141.6</ele>
        <time>2025-06-15T07:47:46Z</time>
      </trkpt>
      <trkpt lat="45.1255" lon="0.62386">
        <ele>141.6</ele>
        <time>2025-06-15T07:47:47Z</time>
      </trkpt>
      <trkpt lat="45.12547" lon="0.62386">
        <ele>141.6</ele>
        <time>2025-06-15T07:47:48Z</time>
      </trkpt>
      <trkpt lat="45.12543" lon="0.62387">
        <ele>141.6</ele>
        <time>2025-06-15T07:47:49Z</time>
      </trkpt>
      <trkpt lat="45.1254" lon="0.62388">
        <ele>141.6</ele>
        <time>2025-06-15T07:47:50Z</time>
      </trkpt>
      <trkpt lat="45.12536" lon="0.62388">
        <ele>141.6</ele>
        <time>2025-06-15T07:47:51Z</time>
      </trkpt>
      <trkpt lat="45.12533" lon="0.62387">
        <ele>141.6</ele>
        <time>2025-06-15T07:47:52Z</time>
      </trkpt>
      <trkpt lat="45.12531" lon="0.62384">
        <ele>141.6</ele>
        <time>2025-06-15T07:47:53Z</time>
      </trkpt>
      <trkpt lat="45.12529" lon="0.6238">
        <ele>141.4</ele>
        <time>2025-06-15T07:47:54Z</time>
      </trkpt>
      <trkpt lat="45.12526" lon="0.62376">
        <ele>141.4</ele>
        <time>2025-06-15T07:47:55Z</time>
      </trkpt>
      <trkpt lat="45.12523" lon="0.62372">
        <ele>141.2</ele>
        <time>2025-06-15T07:47:56Z</time>
      </trkpt>
      <trkpt lat="45.1252" lon="0.62367">
        <ele>141</ele>
        <time>2025-06-15T07:47:57Z</time>
      </trkpt>
      <trkpt lat="45.12517" lon="0.62362">
        <ele>140.8</ele>
        <time>2025-06-15T07:47:58Z</time>
      </trkpt>
      <trkpt lat="45.12513" lon="0.62356">
        <ele>140.4</ele>
        <time>2025-06-15T07:47:59Z</time>
      </trkpt>
      <trkpt lat="45.1251" lon="0.62352">
        <ele>140.2</ele>
        <time>2025-06-15T07:48:00Z</time>
      </trkpt>
      <trkpt lat="45.12506" lon="0.62348">
        <ele>139.8</ele>
        <time>2025-06-15T07:48:01Z</time>
      </trkpt>
      <trkpt lat="45.12502" lon="0.62346">
        <ele>139.6</ele>
        <time>2025-06-15T07:48:02Z</time>
      </trkpt>
      <trkpt lat="45.12498" lon="0.62344">
        <ele>139.4</ele>
        <time>2025-06-15T07:48:03Z</time>
      </trkpt>
      <trkpt lat="45.12494" lon="0.62343">
        <ele>139.4</ele>
        <time>2025-06-15T07:48:04Z</time>
      </trkpt>
      <trkpt lat="45.1249" lon="0.62343">
        <ele>139.2</ele>
        <time>2025-06-15T07:48:05Z</time>
      </trkpt>
      <trkpt lat="45.12486" lon="0.62342">
        <ele>139.2</ele>
        <time>2025-06-15T07:48:06Z</time>
      </trkpt>
      <trkpt lat="45.12483" lon="0.62341">
        <ele>139.2</ele>
        <time>2025-06-15T07:48:07Z</time>
      </trkpt>
      <trkpt lat="45.1248" lon="0.62341">
        <ele>139.2</ele>
        <time>2025-06-15T07:48:08Z</time>
      </trkpt>
      <trkpt lat="45.12476" lon="0.6234">
        <ele>139.2</ele>
        <time>2025-06-15T07:48:09Z</time>
      </trkpt>
      <trkpt lat="45.12472" lon="0.6234">
        <ele>139.2</ele>
        <time>2025-06-15T07:48:10Z</time>
      </trkpt>
      <trkpt lat="45.12469" lon="0.62339">
        <ele>139.4</ele>
        <time>2025-06-15T07:48:11Z</time>
      </trkpt>
      <trkpt lat="45.12465" lon="0.62339">
        <ele>139.4</ele>
        <time>2025-06-15T07:48:12Z</time>
      </trkpt>
      <trkpt lat="45.12461" lon="0.62338">
        <ele>139.4</ele>
        <time>2025-06-15T07:48:13Z</time>
      </trkpt>
      <trkpt lat="45.12457" lon="0.62338">
        <ele>139.6</ele>
        <time>2025-06-15T07:48:14Z</time>
      </trkpt>
      <trkpt lat="45.12454" lon="0.62337">
        <ele>139.6</ele>
        <time>2025-06-15T07:48:15Z</time>
      </trkpt>
      <trkpt lat="45.1245" lon="0.62337">
        <ele>139.8</ele>
        <time>2025-06-15T07:48:16Z</time>
      </trkpt>
      <trkpt lat="45.12447" lon="0.62337">
        <ele>139.8</ele>
        <time>2025-06-15T07:48:17Z</time>
      </trkpt>
      <trkpt lat="45.12444" lon="0.62336">
        <ele>139.8</ele>
        <time>2025-06-15T07:48:18Z</time>
      </trkpt>
      <trkpt lat="45.12441" lon="0.62336">
        <ele>140</ele>
        <time>2025-06-15T07:48:19Z</time>
      </trkpt>
      <trkpt lat="45.12438" lon="0.62336">
        <ele>140.2</ele>
        <time>2025-06-15T07:48:20Z</time>
      </trkpt>
      <trkpt lat="45.12435" lon="0.62335">
        <ele>140.4</ele>
        <time>2025-06-15T07:48:21Z</time>
      </trkpt>
      <trkpt lat="45.12432" lon="0.62335">
        <ele>140.4</ele>
        <time>2025-06-15T07:48:22Z</time>
      </trkpt>
      <trkpt lat="45.12429" lon="0.62335">
        <ele>140.6</ele>
        <time>2025-06-15T07:48:23Z</time>
      </trkpt>
      <trkpt lat="45.12426" lon="0.62334">
        <ele>140.8</ele>
        <time>2025-06-15T07:48:24Z</time>
      </trkpt>
      <trkpt lat="45.12424" lon="0.62333">
        <ele>141</ele>
        <time>2025-06-15T07:48:25Z</time>
      </trkpt>
      <trkpt lat="45.12421" lon="0.62333">
        <ele>141.2</ele>
        <time>2025-06-15T07:48:26Z</time>
      </trkpt>
      <trkpt lat="45.12419" lon="0.62332">
        <ele>141.2</ele>
        <time>2025-06-15T07:48:27Z</time>
      </trkpt>
      <trkpt lat="45.12416" lon="0.62332">
        <ele>141.4</ele>
        <time>2025-06-15T07:48:28Z</time>
      </trkpt>
      <trkpt lat="45.12413" lon="0.62331">
        <ele>141.4</ele>
        <time>2025-06-15T07:48:29Z</time>
      </trkpt>
      <trkpt lat="45.1241" lon="0.62331">
        <ele>141.4</ele>
        <time>2025-06-15T07:48:30Z</time>
      </trkpt>
      <trkpt lat="45.12407" lon="0.6233">
        <ele>141.6</ele>
        <time>2025-06-15T07:48:31Z</time>
      </trkpt>
      <trkpt lat="45.12405" lon="0.6233">
        <ele>141.8</ele>
        <time>2025-06-15T07:48:32Z</time>
      </trkpt>
      <trkpt lat="45.12402" lon="0.62329">
        <ele>141.8</ele>
        <time>2025-06-15T07:48:33Z</time>
      </trkpt>
      <trkpt lat="45.12399" lon="0.62329">
        <ele>142</ele>
        <time>2025-06-15T07:48:34Z</time>
      </trkpt>
      <trkpt lat="45.12396" lon="0.62329">
        <ele>142</ele>
        <time>2025-06-15T07:48:35Z</time>
      </trkpt>
      <trkpt lat="45.12394" lon="0.62329">
        <ele>142.2</ele>
        <time>2025-06-15T07:48:36Z</time>
      </trkpt>
      <trkpt lat="45.12391" lon="0.62329">
        <ele>142.2</ele>
        <time>2025-06-15T07:48:37Z</time>
      </trkpt>
      <trkpt lat="45.12389" lon="0.62329">
        <ele>142.4</ele>
        <time>2025-06-15T07:48:38Z</time>
      </trkpt>
      <trkpt lat="45.12386" lon="0.6233">
        <ele>142.4</ele>
        <time>2025-06-15T07:48:39Z</time>
      </trkpt>
      <trkpt lat="45.12383" lon="0.6233">
        <ele>142.6</ele>
        <time>2025-06-15T07:48:40Z</time>
      </trkpt>
      <trkpt lat="45.1238" lon="0.6233">
        <ele>142.6</ele>
        <time>2025-06-15T07:48:41Z</time>
      </trkpt>
      <trkpt lat="45.12377" lon="0.6233">
        <ele>142.6</ele>
        <time>2025-06-15T07:48:42Z</time>
      </trkpt>
      <trkpt lat="45.12374" lon="0.62331">
        <ele>142.8</ele>
        <time>2025-06-15T07:48:43Z</time>
      </trkpt>
      <trkpt lat="45.12372" lon="0.62331">
        <ele>142.8</ele>
        <time>2025-06-15T07:48:44Z</time>
      </trkpt>
      <trkpt lat="45.12369" lon="0.62331">
        <ele>142.6</ele>
        <time>2025-06-15T07:48:45Z</time>
      </trkpt>
      <trkpt lat="45.12366" lon="0.62332">
        <ele>142.8</ele>
        <time>2025-06-15T07:48:46Z</time>
      </trkpt>
      <trkpt lat="45.12363" lon="0.62332">
        <ele>142.8</ele>
        <time>2025-06-15T07:48:47Z</time>
      </trkpt>
      <trkpt lat="45.1236" lon="0.62332">
        <ele>142.8</ele>
        <time>2025-06-15T07:48:48Z</time>
      </trkpt>
      <trkpt lat="45.12357" lon="0.62333">
        <ele>143</ele>
        <time>2025-06-15T07:48:49Z</time>
      </trkpt>
      <trkpt lat="45.12354" lon="0.62333">
        <ele>143.2</ele>
        <time>2025-06-15T07:48:50Z</time>
      </trkpt>
      <trkpt lat="45.12352" lon="0.62333">
        <ele>143.2</ele>
        <time>2025-06-15T07:48:51Z</time>
      </trkpt>
      <trkpt lat="45.12349" lon="0.62333">
        <ele>143.4</ele>
        <time>2025-06-15T07:48:52Z</time>
      </trkpt>
      <trkpt lat="45.12346" lon="0.62333">
        <ele>143.4</ele>
        <time>2025-06-15T07:48:53Z</time>
      </trkpt>
      <trkpt lat="45.12344" lon="0.62334">
        <ele>143.6</ele>
        <time>2025-06-15T07:48:54Z</time>
      </trkpt>
      <trkpt lat="45.12341" lon="0.62334">
        <ele>143.6</ele>
        <time>2025-06-15T07:48:55Z</time>
      </trkpt>
      <trkpt lat="45.12339" lon="0.62334">
        <ele>143.8</ele>
        <time>2025-06-15T07:48:56Z</time>
      </trkpt>
      <trkpt lat="45.12336" lon="0.62334">
        <ele>143.8</ele>
        <time>2025-06-15T07:48:57Z</time>
      </trkpt>
      <trkpt lat="45.12334" lon="0.62334">
        <ele>143.8</ele>
        <time>2025-06-15T07:48:58Z</time>
      </trkpt>
      <trkpt lat="45.12331" lon="0.62335">
        <ele>144</ele>
        <time>2025-06-15T07:48:59Z</time>
      </trkpt>
      <trkpt lat="45.12328" lon="0.62335">
        <ele>144</ele>
        <time>2025-06-15T07:49:00Z</time>
      </trkpt>
      <trkpt lat="45.12326" lon="0.62336">
        <ele>144.2</ele>
        <time>2025-06-15T07:49:01Z</time>
      </trkpt>
      <trkpt lat="45.12324" lon="0.62336">
        <ele>144.2</ele>
        <time>2025-06-15T07:49:02Z</time>
      </trkpt>
      <trkpt lat="45.12321" lon="0.62336">
        <ele>144.4</ele>
        <time>2025-06-15T07:49:03Z</time>
      </trkpt>
      <trkpt lat="45.12318" lon="0.62337">
        <ele>144.4</ele>
        <time>2025-06-15T07:49:04Z</time>
      </trkpt>
      <trkpt lat="45.12316" lon="0.62337">
        <ele>144.6</ele>
        <time>2025-06-15T07:49:05Z</time>
      </trkpt>
      <trkpt lat="45.12313" lon="0.62337">
        <ele>144.6</ele>
        <time>2025-06-15T07:49:06Z</time>
      </trkpt>
      <trkpt lat="45.12311" lon="0.62338">
        <ele>144.8</ele>
        <time>2025-06-15T07:49:07Z</time>
      </trkpt>
      <trkpt lat="45.12309" lon="0.62338">
        <ele>144.8</ele>
        <time>2025-06-15T07:49:08Z</time>
      </trkpt>
      <trkpt lat="45.12306" lon="0.62338">
        <ele>144.8</ele>
        <time>2025-06-15T07:49:09Z</time>
      </trkpt>
      <trkpt lat="45.12303" lon="0.62338">
        <ele>145</ele>
        <time>2025-06-15T07:49:10Z</time>
      </trkpt>
      <trkpt lat="45.12301" lon="0.62338">
        <ele>145</ele>
        <time>2025-06-15T07:49:11Z</time>
      </trkpt>
      <trkpt lat="45.12299" lon="0.62338">
        <ele>145.2</ele>
        <time>2025-06-15T07:49:12Z</time>
      </trkpt>
      <trkpt lat="45.12296" lon="0.62338">
        <ele>145.2</ele>
        <time>2025-06-15T07:49:13Z</time>
      </trkpt>
      <trkpt lat="45.12294" lon="0.62338">
        <ele>145.4</ele>
        <time>2025-06-15T07:49:14Z</time>
      </trkpt>
      <trkpt lat="45.12291" lon="0.62338">
        <ele>145.4</ele>
        <time>2025-06-15T07:49:15Z</time>
      </trkpt>
      <trkpt lat="45.12289" lon="0.62338">
        <ele>145.6</ele>
        <time>2025-06-15T07:49:16Z</time>
      </trkpt>
      <trkpt lat="45.12287" lon="0.62338">
        <ele>145.8</ele>
        <time>2025-06-15T07:49:17Z</time>
      </trkpt>
      <trkpt lat="45.12286" lon="0.62338">
        <ele>146</ele>
        <time>2025-06-15T07:49:18Z</time>
      </trkpt>
      <trkpt lat="45.12284" lon="0.62338">
        <ele>146.2</ele>
        <time>2025-06-15T07:49:19Z</time>
      </trkpt>
      <trkpt lat="45.12282" lon="0.62339">
        <ele>146.4</ele>
        <time>2025-06-15T07:49:20Z</time>
      </trkpt>
      <trkpt lat="45.1228" lon="0.62338">
        <ele>146.6</ele>
        <time>2025-06-15T07:49:21Z</time>
      </trkpt>
      <trkpt lat="45.12278" lon="0.62338">
        <ele>146.8</ele>
        <time>2025-06-15T07:49:22Z</time>
      </trkpt>
      <trkpt lat="45.12277" lon="0.62339">
        <ele>147</ele>
        <time>2025-06-15T07:49:23Z</time>
      </trkpt>
      <trkpt lat="45.12275" lon="0.62339">
        <ele>147.2</ele>
        <time>2025-06-15T07:49:24Z</time>
      </trkpt>
      <trkpt lat="45.12273" lon="0.62338">
        <ele>147.4</ele>
        <time>2025-06-15T07:49:25Z</time>
      </trkpt>
      <trkpt lat="45.12272" lon="0.62338">
        <ele>147.6</ele>
        <time>2025-06-15T07:49:26Z</time>
      </trkpt>
      <trkpt lat="45.1227" lon="0.62338">
        <ele>147.8</ele>
        <time>2025-06-15T07:49:27Z</time>
      </trkpt>
      <trkpt lat="45.12268" lon="0.62338">
        <ele>148</ele>
        <time>2025-06-15T07:49:28Z</time>
      </trkpt>
      <trkpt lat="45.12267" lon="0.62338">
        <ele>148.4</ele>
        <time>2025-06-15T07:49:29Z</time>
      </trkpt>
      <trkpt lat="45.12265" lon="0.62338">
        <ele>148.6</ele>
        <time>2025-06-15T07:49:30Z</time>
      </trkpt>
      <trkpt lat="45.12263" lon="0.62338">
        <ele>148.8</ele>
        <time>2025-06-15T07:49:31Z</time>
      </trkpt>
      <trkpt lat="45.12262" lon="0.62337">
        <ele>149</ele>
        <time>2025-06-15T07:49:32Z</time>
      </trkpt>
      <trkpt lat="45.1226" lon="0.62337">
        <ele>149.2</ele>
        <time>2025-06-15T07:49:33Z</time>
      </trkpt>
      <trkpt lat="45.1226" lon="0.62337">
        <ele>149.4</ele>
        <time>2025-06-15T07:49:34Z</time>
      </trkpt>
      <trkpt lat="45.12257" lon="0.62337">
        <ele>149.8</ele>
        <time>2025-06-15T07:49:35Z</time>
      </trkpt>
      <trkpt lat="45.12255" lon="0.62337">
        <ele>150</ele>
        <time>2025-06-15T07:49:36Z</time>
      </trkpt>
      <trkpt lat="45.12254" lon="0.62337">
        <ele>150.2</ele>
        <time>2025-06-15T07:49:37Z</time>
      </trkpt>
      <trkpt lat="45.12253" lon="0.62337">
        <ele>150.4</ele>
        <time>2025-06-15T07:49:38Z</time>
      </trkpt>
      <trkpt lat="45.12251" lon="0.62337">
        <ele>150.6</ele>
        <time>2025-06-15T07:49:39Z</time>
      </trkpt>
      <trkpt lat="45.1225" lon="0.62337">
        <ele>150.8</ele>
        <time>2025-06-15T07:49:40Z</time>
      </trkpt>
      <trkpt lat="45.12248" lon="0.62337">
        <ele>151.2</ele>
        <time>2025-06-15T07:49:41Z</time>
      </trkpt>
      <trkpt lat="45.12247" lon="0.62336">
        <ele>151.4</ele>
        <time>2025-06-15T07:49:42Z</time>
      </trkpt>
      <trkpt lat="45.12246" lon="0.62336">
        <ele>151.6</ele>
        <time>2025-06-15T07:49:43Z</time>
      </trkpt>
      <trkpt lat="45.12244" lon="0.62336">
        <ele>151.8</ele>
        <time>2025-06-15T07:49:44Z</time>
      </trkpt>
      <trkpt lat="45.12243" lon="0.62336">
        <ele>152</ele>
        <time>2025-06-15T07:49:45Z</time>
      </trkpt>
      <trkpt lat="45.12242" lon="0.62336">
        <ele>152.2</ele>
        <time>2025-06-15T07:49:46Z</time>
      </trkpt>
      <trkpt lat="45.1224" lon="0.62336">
        <ele>152.4</ele>
        <time>2025-06-15T07:49:47Z</time>
      </trkpt>
      <trkpt lat="45.12239" lon="0.62336">
        <ele>152.6</ele>
        <time>2025-06-15T07:49:48Z</time>
      </trkpt>
      <trkpt lat="45.12238" lon="0.62336">
        <ele>152.6</ele>
        <time>2025-06-15T07:49:49Z</time>
      </trkpt>
      <trkpt lat="45.12236" lon="0.62336">
        <ele>152.8</ele>
        <time>2025-06-15T07:49:50Z</time>
      </trkpt>
      <trkpt lat="45.12235" lon="0.62336">
        <ele>153.2</ele>
        <time>2025-06-15T07:49:51Z</time>
      </trkpt>
      <trkpt lat="45.12233" lon="0.62336">
        <ele>153.4</ele>
        <time>2025-06-15T07:49:52Z</time>
      </trkpt>
      <trkpt lat="45.12232" lon="0.62336">
        <ele>153.6</ele>
        <time>2025-06-15T07:49:53Z</time>
      </trkpt>
      <trkpt lat="45.12231" lon="0.62335">
        <ele>153.8</ele>
        <time>2025-06-15T07:49:54Z</time>
      </trkpt>
      <trkpt lat="45.12229" lon="0.62335">
        <ele>154</ele>
        <time>2025-06-15T07:49:55Z</time>
      </trkpt>
      <trkpt lat="45.12228" lon="0.62335">
        <ele>154.2</ele>
        <time>2025-06-15T07:49:56Z</time>
      </trkpt>
      <trkpt lat="45.12226" lon="0.62335">
        <ele>154.4</ele>
        <time>2025-06-15T07:49:57Z</time>
      </trkpt>
      <trkpt lat="45.12225" lon="0.62335">
        <ele>154.6</ele>
        <time>2025-06-15T07:49:58Z</time>
      </trkpt>
      <trkpt lat="45.12224" lon="0.62335">
        <ele>154.8</ele>
        <time>2025-06-15T07:49:59Z</time>
      </trkpt>
      <trkpt lat="45.12223" lon="0.62335">
        <ele>155.2</ele>
        <time>2025-06-15T07:50:00Z</time>
      </trkpt>
      <trkpt lat="45.12221" lon="0.62335">
        <ele>155.4</ele>
        <time>2025-06-15T07:50:01Z</time>
      </trkpt>
      <trkpt lat="45.1222" lon="0.62335">
        <ele>155.6</ele>
        <time>2025-06-15T07:50:02Z</time>
      </trkpt>
      <trkpt lat="45.12218" lon="0.62335">
        <ele>156</ele>
        <time>2025-06-15T07:50:03Z</time>
      </trkpt>
      <trkpt lat="45.12217" lon="0.62335">
        <ele>156.2</ele>
        <time>2025-06-15T07:50:04Z</time>
      </trkpt>
      <trkpt lat="45.12216" lon="0.62335">
        <ele>156.4</ele>
        <time>2025-06-15T07:50:05Z</time>
      </trkpt>
      <trkpt lat="45.12215" lon="0.62335">
        <ele>156.6</ele>
        <time>2025-06-15T07:50:06Z</time>
      </trkpt>
      <trkpt lat="45.12214" lon="0.62335">
        <ele>156.8</ele>
        <time>2025-06-15T07:50:07Z</time>
      </trkpt>
      <trkpt lat="45.12213" lon="0.62335">
        <ele>157</ele>
        <time>2025-06-15T07:50:08Z</time>
      </trkpt>
      <trkpt lat="45.12211" lon="0.62335">
        <ele>157.4</ele>
        <time>2025-06-15T07:50:09Z</time>
      </trkpt>
      <trkpt lat="45.1221" lon="0.62335">
        <ele>157.6</ele>
        <time>2025-06-15T07:50:10Z</time>
      </trkpt>
      <trkpt lat="45.12209" lon="0.62335">
        <ele>157.8</ele>
        <time>2025-06-15T07:50:11Z</time>
      </trkpt>
      <trkpt lat="45.12207" lon="0.62334">
        <ele>158</ele>
        <time>2025-06-15T07:50:12Z</time>
      </trkpt>
      <trkpt lat="45.12206" lon="0.62334">
        <ele>158.2</ele>
        <time>2025-06-15T07:50:13Z</time>
      </trkpt>
      <trkpt lat="45.12205" lon="0.62334">
        <ele>158.6</ele>
        <time>2025-06-15T07:50:14Z</time>
      </trkpt>
      <trkpt lat="45.12203" lon="0.62334">
        <ele>158.8</ele>
        <time>2025-06-15T07:50:15Z</time>
      </trkpt>
      <trkpt lat="45.12202" lon="0.62334">
        <ele>159</ele>
        <time>2025-06-15T07:50:16Z</time>
      </trkpt>
      <trkpt lat="45.12201" lon="0.62334">
        <ele>159.2</ele>
        <time>2025-06-15T07:50:17Z</time>
      </trkpt>
      <trkpt lat="45.122" lon="0.62334">
        <ele>159.4</ele>
        <time>2025-06-15T07:50:18Z</time>
      </trkpt>
      <trkpt lat="45.12199" lon="0.62334">
        <ele>159.6</ele>
        <time>2025-06-15T07:50:19Z</time>
      </trkpt>
      <trkpt lat="45.12198" lon="0.62334">
        <ele>160</ele>
        <time>2025-06-15T07:50:20Z</time>
      </trkpt>
      <trkpt lat="45.12197" lon="0.62334">
        <ele>160.2</ele>
        <time>2025-06-15T07:50:21Z</time>
      </trkpt>
      <trkpt lat="45.12196" lon="0.62334">
        <ele>160.4</ele>
        <time>2025-06-15T07:50:22Z</time>
      </trkpt>
      <trkpt lat="45.12195" lon="0.62334">
        <ele>160.6</ele>
        <time>2025-06-15T07:50:23Z</time>
      </trkpt>
      <trkpt lat="45.12193" lon="0.62334">
        <ele>161</ele>
        <time>2025-06-15T07:50:24Z</time>
      </trkpt>
      <trkpt lat="45.12192" lon="0.62334">
        <ele>161.4</ele>
        <time>2025-06-15T07:50:25Z</time>
      </trkpt>
      <trkpt lat="45.12191" lon="0.62334">
        <ele>161.6</ele>
        <time>2025-06-15T07:50:26Z</time>
      </trkpt>
      <trkpt lat="45.1219" lon="0.62334">
        <ele>161.8</ele>
        <time>2025-06-15T07:50:27Z</time>
      </trkpt>
      <trkpt lat="45.12189" lon="0.62334">
        <ele>162.2</ele>
        <time>2025-06-15T07:50:28Z</time>
      </trkpt>
      <trkpt lat="45.12188" lon="0.62334">
        <ele>162.4</ele>
        <time>2025-06-15T07:50:29Z</time>
      </trkpt>
      <trkpt lat="45.12187" lon="0.62334">
        <ele>162.6</ele>
        <time>2025-06-15T07:50:30Z</time>
      </trkpt>
      <trkpt lat="45.12186" lon="0.62333">
        <ele>163</ele>
        <time>2025-06-15T07:50:31Z</time>
      </trkpt>
      <trkpt lat="45.12185" lon="0.62333">
        <ele>163.2</ele>
        <time>2025-06-15T07:50:32Z</time>
      </trkpt>
      <trkpt lat="45.12184" lon="0.62333">
        <ele>163.4</ele>
        <time>2025-06-15T07:50:33Z</time>
      </trkpt>
      <trkpt lat="45.12183" lon="0.62333">
        <ele>163.6</ele>
        <time>2025-06-15T07:50:34Z</time>
      </trkpt>
      <trkpt lat="45.12182" lon="0.62334">
        <ele>163.8</ele>
        <time>2025-06-15T07:50:35Z</time>
      </trkpt>
      <trkpt lat="45.12181" lon="0.62334">
        <ele>164</ele>
        <time>2025-06-15T07:50:36Z</time>
      </trkpt>
      <trkpt lat="45.1218" lon="0.62334">
        <ele>164.4</ele>
        <time>2025-06-15T07:50:37Z</time>
      </trkpt>
      <trkpt lat="45.12179" lon="0.62334">
        <ele>164.8</ele>
        <time>2025-06-15T07:50:38Z</time>
      </trkpt>
      <trkpt lat="45.12178" lon="0.62334">
        <ele>165</ele>
        <time>2025-06-15T07:50:39Z</time>
      </trkpt>
      <trkpt lat="45.12177" lon="0.62334">
        <ele>165.2</ele>
        <time>2025-06-15T07:50:40Z</time>
      </trkpt>
      <trkpt lat="45.12176" lon="0.62335">
        <ele>165.4</ele>
        <time>2025-06-15T07:50:41Z</time>
      </trkpt>
      <trkpt lat="45.12175" lon="0.62335">
        <ele>165.8</ele>
        <time>2025-06-15T07:50:42Z</time>
      </trkpt>
      <trkpt lat="45.12174" lon="0.62335">
        <ele>166</ele>
        <time>2025-06-15T07:50:43Z</time>
      </trkpt>
      <trkpt lat="45.12173" lon="0.62334">
        <ele>166.2</ele>
        <time>2025-06-15T07:50:44Z</time>
      </trkpt>
      <trkpt lat="45.12172" lon="0.62334">
        <ele>166.4</ele>
        <time>2025-06-15T07:50:45Z</time>
      </trkpt>
      <trkpt lat="45.12171" lon="0.62333">
        <ele>166.6</ele>
        <time>2025-06-15T07:50:46Z</time>
      </trkpt>
      <trkpt lat="45.12169" lon="0.62333">
        <ele>166.8</ele>
        <time>2025-06-15T07:50:47Z</time>
      </trkpt>
      <trkpt lat="45.12168" lon="0.62333">
        <ele>167</ele>
        <time>2025-06-15T07:50:48Z</time>
      </trkpt>
      <trkpt lat="45.12167" lon="0.62333">
        <ele>167.2</ele>
        <time>2025-06-15T07:50:49Z</time>
      </trkpt>
      <trkpt lat="45.12166" lon="0.62333">
        <ele>167.4</ele>
        <time>2025-06-15T07:50:50Z</time>
      </trkpt>
      <trkpt lat="45.12165" lon="0.62334">
        <ele>167.6</ele>
        <time>2025-06-15T07:50:51Z</time>
      </trkpt>
      <trkpt lat="45.12164" lon="0.62334">
        <ele>168</ele>
        <time>2025-06-15T07:50:52Z</time>
      </trkpt>
      <trkpt lat="45.12163" lon="0.62334">
        <ele>168.2</ele>
        <time>2025-06-15T07:50:53Z</time>
      </trkpt>
      <trkpt lat="45.12162" lon="0.62334">
        <ele>168.4</ele>
        <time>2025-06-15T07:50:54Z</time>
      </trkpt>
      <trkpt lat="45.1216" lon="0.62334">
        <ele>168.6</ele>
        <time>2025-06-15T07:50:55Z</time>
      </trkpt>
      <trkpt lat="45.12159" lon="0.62334">
        <ele>168.8</ele>
        <time>2025-06-15T07:50:56Z</time>
      </trkpt>
      <trkpt lat="45.12158" lon="0.62334">
        <ele>169</ele>
        <time>2025-06-15T07:50:57Z</time>
      </trkpt>
      <trkpt lat="45.12157" lon="0.62333">
        <ele>169.2</ele>
        <time>2025-06-15T07:50:58Z</time>
      </trkpt>
      <trkpt lat="45.12156" lon="0.62333">
        <ele>169.4</ele>
        <time>2025-06-15T07:50:59Z</time>
      </trkpt>
      <trkpt lat="45.12154" lon="0.62333">
        <ele>169.6</ele>
        <time>2025-06-15T07:51:00Z</time>
      </trkpt>
      <trkpt lat="45.12153" lon="0.62334">
        <ele>169.8</ele>
        <time>2025-06-15T07:51:01Z</time>
      </trkpt>
      <trkpt lat="45.12151" lon="0.62334">
        <ele>170</ele>
        <time>2025-06-15T07:51:02Z</time>
      </trkpt>
      <trkpt lat="45.1215" lon="0.62334">
        <ele>170.2</ele>
        <time>2025-06-15T07:51:03Z</time>
      </trkpt>
      <trkpt lat="45.12149" lon="0.62334">
        <ele>170.4</ele>
        <time>2025-06-15T07:51:04Z</time>
      </trkpt>
      <trkpt lat="45.12147" lon="0.62334">
        <ele>170.6</ele>
        <time>2025-06-15T07:51:05Z</time>
      </trkpt>
      <trkpt lat="45.12146" lon="0.62334">
        <ele>170.8</ele>
        <time>2025-06-15T07:51:06Z</time>
      </trkpt>
      <trkpt lat="45.12145" lon="0.62334">
        <ele>171</ele>
        <time>2025-06-15T07:51:07Z</time>
      </trkpt>
      <trkpt lat="45.12143" lon="0.62334">
        <ele>171.2</ele>
        <time>2025-06-15T07:51:08Z</time>
      </trkpt>
      <trkpt lat="45.12142" lon="0.62333">
        <ele>171.4</ele>
        <time>2025-06-15T07:51:09Z</time>
      </trkpt>
      <trkpt lat="45.12141" lon="0.62334">
        <ele>171.6</ele>
        <time>2025-06-15T07:51:10Z</time>
      </trkpt>
      <trkpt lat="45.12139" lon="0.62333">
        <ele>171.8</ele>
        <time>2025-06-15T07:51:11Z</time>
      </trkpt>
      <trkpt lat="45.12138" lon="0.62333">
        <ele>172</ele>
        <time>2025-06-15T07:51:12Z</time>
      </trkpt>
      <trkpt lat="45.12136" lon="0.62333">
        <ele>172.2</ele>
        <time>2025-06-15T07:51:13Z</time>
      </trkpt>
      <trkpt lat="45.12135" lon="0.62333">
        <ele>172.4</ele>
        <time>2025-06-15T07:51:14Z</time>
      </trkpt>
      <trkpt lat="45.12133" lon="0.62333">
        <ele>172.4</ele>
        <time>2025-06-15T07:51:15Z</time>
      </trkpt>
      <trkpt lat="45.12132" lon="0.62333">
        <ele>172.6</ele>
        <time>2025-06-15T07:51:16Z</time>
      </trkpt>
      <trkpt lat="45.1213" lon="0.62332">
        <ele>172.8</ele>
        <time>2025-06-15T07:51:17Z</time>
      </trkpt>
      <trkpt lat="45.12128" lon="0.62332">
        <ele>173</ele>
        <time>2025-06-15T07:51:18Z</time>
      </trkpt>
      <trkpt lat="45.12127" lon="0.62332">
        <ele>173</ele>
        <time>2025-06-15T07:51:19Z</time>
      </trkpt>
      <trkpt lat="45.12125" lon="0.62331">
        <ele>173.2</ele>
        <time>2025-06-15T07:51:20Z</time>
      </trkpt>
      <trkpt lat="45.12124" lon="0.62331">
        <ele>173.4</ele>
        <time>2025-06-15T07:51:21Z</time>
      </trkpt>
      <trkpt lat="45.12122" lon="0.62331">
        <ele>173.8</ele>
        <time>2025-06-15T07:51:22Z</time>
      </trkpt>
      <trkpt lat="45.12121" lon="0.62331">
        <ele>174</ele>
        <time>2025-06-15T07:51:23Z</time>
      </trkpt>
      <trkpt lat="45.1212" lon="0.6233">
        <ele>174.2</ele>
        <time>2025-06-15T07:51:24Z</time>
      </trkpt>
      <trkpt lat="45.12118" lon="0.6233">
        <ele>174.4</ele>
        <time>2025-06-15T07:51:25Z</time>
      </trkpt>
      <trkpt lat="45.12117" lon="0.6233">
        <ele>174.6</ele>
        <time>2025-06-15T07:51:26Z</time>
      </trkpt>
      <trkpt lat="45.12116" lon="0.62329">
        <ele>174.8</ele>
        <time>2025-06-15T07:51:27Z</time>
      </trkpt>
      <trkpt lat="45.12114" lon="0.62328">
        <ele>175</ele>
        <time>2025-06-15T07:51:28Z</time>
      </trkpt>
      <trkpt lat="45.12113" lon="0.62328">
        <ele>175.2</ele>
        <time>2025-06-15T07:51:29Z</time>
      </trkpt>
      <trkpt lat="45.12112" lon="0.62327">
        <ele>175.4</ele>
        <time>2025-06-15T07:51:30Z</time>
      </trkpt>
      <trkpt lat="45.1211" lon="0.62327">
        <ele>175.6</ele>
        <time>2025-06-15T07:51:31Z</time>
      </trkpt>
      <trkpt lat="45.12109" lon="0.62326">
        <ele>175.8</ele>
        <time>2025-06-15T07:51:32Z</time>
      </trkpt>
      <trkpt lat="45.12107" lon="0.62325">
        <ele>176</ele>
        <time>2025-06-15T07:51:33Z</time>
      </trkpt>
      <trkpt lat="45.12106" lon="0.62325">
        <ele>176.2</ele>
        <time>2025-06-15T07:51:34Z</time>
      </trkpt>
      <trkpt lat="45.12105" lon="0.62325">
        <ele>176.4</ele>
        <time>2025-06-15T07:51:35Z</time>
      </trkpt>
      <trkpt lat="45.12104" lon="0.62324">
        <ele>176.6</ele>
        <time>2025-06-15T07:51:36Z</time>
      </trkpt>
      <trkpt lat="45.12103" lon="0.62324">
        <ele>176.8</ele>
        <time>2025-06-15T07:51:37Z</time>
      </trkpt>
      <trkpt lat="45.12101" lon="0.62323">
        <ele>177.2</ele>
        <time>2025-06-15T07:51:38Z</time>
      </trkpt>
      <trkpt lat="45.121" lon="0.62323">
        <ele>177.4</ele>
        <time>2025-06-15T07:51:39Z</time>
      </trkpt>
      <trkpt lat="45.12099" lon="0.62322">
        <ele>177.6</ele>
        <time>2025-06-15T07:51:40Z</time>
      </trkpt>
      <trkpt lat="45.12097" lon="0.62322">
        <ele>177.8</ele>
        <time>2025-06-15T07:51:41Z</time>
      </trkpt>
      <trkpt lat="45.12096" lon="0.62321">
        <ele>178</ele>
        <time>2025-06-15T07:51:42Z</time>
      </trkpt>
      <trkpt lat="45.12095" lon="0.6232">
        <ele>178.2</ele>
        <time>2025-06-15T07:51:43Z</time>
      </trkpt>
      <trkpt lat="45.12093" lon="0.62319">
        <ele>178.6</ele>
        <time>2025-06-15T07:51:44Z</time>
      </trkpt>
      <trkpt lat="45.12092" lon="0.62319">
        <ele>178.8</ele>
        <time>2025-06-15T07:51:45Z</time>
      </trkpt>
      <trkpt lat="45.12091" lon="0.62319">
        <ele>179</ele>
        <time>2025-06-15T07:51:46Z</time>
      </trkpt>
      <trkpt lat="45.1209" lon="0.62319">
        <ele>179.2</ele>
        <time>2025-06-15T07:51:47Z</time>
      </trkpt>
      <trkpt lat="45.12089" lon="0.62318">
        <ele>179.4</ele>
        <time>2025-06-15T07:51:48Z</time>
      </trkpt>
      <trkpt lat="45.12087" lon="0.62318">
        <ele>179.6</ele>
        <time>2025-06-15T07:51:49Z</time>
      </trkpt>
      <trkpt lat="45.12086" lon="0.62319">
        <ele>179.8</ele>
        <time>2025-06-15T07:51:50Z</time>
      </trkpt>
      <trkpt lat="45.12085" lon="0.62319">
        <ele>180.2</ele>
        <time>2025-06-15T07:51:51Z</time>
      </trkpt>
      <trkpt lat="45.12084" lon="0.6232">
        <ele>180.4</ele>
        <time>2025-06-15T07:51:52Z</time>
      </trkpt>
      <trkpt lat="45.12083" lon="0.62322">
        <ele>180.6</ele>
        <time>2025-06-15T07:51:53Z</time>
      </trkpt>
      <trkpt lat="45.12082" lon="0.62323">
        <ele>180.8</ele>
        <time>2025-06-15T07:51:54Z</time>
      </trkpt>
      <trkpt lat="45.12081" lon="0.62325">
        <ele>181.2</ele>
        <time>2025-06-15T07:51:55Z</time>
      </trkpt>
      <trkpt lat="45.12081" lon="0.62327">
        <ele>181.6</ele>
        <time>2025-06-15T07:51:56Z</time>
      </trkpt>
      <trkpt lat="45.1208" lon="0.6233">
        <ele>181.8</ele>
        <time>2025-06-15T07:51:57Z</time>
      </trkpt>
      <trkpt lat="45.1208" lon="0.62332">
        <ele>182</ele>
        <time>2025-06-15T07:51:58Z</time>
      </trkpt>
      <trkpt lat="45.1208" lon="0.62334">
        <ele>182</ele>
        <time>2025-06-15T07:51:59Z</time>
      </trkpt>
      <trkpt lat="45.12079" lon="0.62337">
        <ele>182.2</ele>
        <time>2025-06-15T07:52:00Z</time>
      </trkpt>
      <trkpt lat="45.12078" lon="0.62339">
        <ele>182.4</ele>
        <time>2025-06-15T07:52:01Z</time>
      </trkpt>
      <trkpt lat="45.12078" lon="0.62342">
        <ele>182.6</ele>
        <time>2025-06-15T07:52:02Z</time>
      </trkpt>
      <trkpt lat="45.12077" lon="0.62345">
        <ele>182.8</ele>
        <time>2025-06-15T07:52:03Z</time>
      </trkpt>
      <trkpt lat="45.12076" lon="0.62347">
        <ele>182.8</ele>
        <time>2025-06-15T07:52:04Z</time>
      </trkpt>
      <trkpt lat="45.12075" lon="0.62349">
        <ele>183</ele>
        <time>2025-06-15T07:52:05Z</time>
      </trkpt>
      <trkpt lat="45.12074" lon="0.62351">
        <ele>183.2</ele>
        <time>2025-06-15T07:52:06Z</time>
      </trkpt>
      <trkpt lat="45.12073" lon="0.62352">
        <ele>183.4</ele>
        <time>2025-06-15T07:52:07Z</time>
      </trkpt>
      <trkpt lat="45.12071" lon="0.62354">
        <ele>183.6</ele>
        <time>2025-06-15T07:52:08Z</time>
      </trkpt>
      <trkpt lat="45.1207" lon="0.62356">
        <ele>183.8</ele>
        <time>2025-06-15T07:52:09Z</time>
      </trkpt>
      <trkpt lat="45.12068" lon="0.62358">
        <ele>184</ele>
        <time>2025-06-15T07:52:10Z</time>
      </trkpt>
      <trkpt lat="45.12067" lon="0.62359">
        <ele>184.2</ele>
        <time>2025-06-15T07:52:11Z</time>
      </trkpt>
      <trkpt lat="45.12065" lon="0.6236">
        <ele>184.4</ele>
        <time>2025-06-15T07:52:12Z</time>
      </trkpt>
      <trkpt lat="45.12063" lon="0.62361">
        <ele>184.6</ele>
        <time>2025-06-15T07:52:13Z</time>
      </trkpt>
      <trkpt lat="45.12061" lon="0.62363">
        <ele>184.8</ele>
        <time>2025-06-15T07:52:14Z</time>
      </trkpt>
      <trkpt lat="45.1206" lon="0.62364">
        <ele>185</ele>
        <time>2025-06-15T07:52:15Z</time>
      </trkpt>
      <trkpt lat="45.12058" lon="0.62366">
        <ele>185.2</ele>
        <time>2025-06-15T07:52:16Z</time>
      </trkpt>
      <trkpt lat="45.12056" lon="0.62368">
        <ele>185.2</ele>
        <time>2025-06-15T07:52:17Z</time>
      </trkpt>
      <trkpt lat="45.12055" lon="0.6237">
        <ele>185.4</ele>
        <time>2025-06-15T07:52:18Z</time>
      </trkpt>
      <trkpt lat="45.12053" lon="0.62372">
        <ele>185.6</ele>
        <time>2025-06-15T07:52:19Z</time>
      </trkpt>
      <trkpt lat="45.12051" lon="0.62374">
        <ele>185.8</ele>
        <time>2025-06-15T07:52:20Z</time>
      </trkpt>
      <trkpt lat="45.12049" lon="0.62375">
        <ele>186</ele>
        <time>2025-06-15T07:52:21Z</time>
      </trkpt>
      <trkpt lat="45.12047" lon="0.62377">
        <ele>186.2</ele>
        <time>2025-06-15T07:52:22Z</time>
      </trkpt>
      <trkpt lat="45.12045" lon="0.62379">
        <ele>186.4</ele>
        <time>2025-06-15T07:52:23Z</time>
      </trkpt>
      <trkpt lat="45.12044" lon="0.62381">
        <ele>186.6</ele>
        <time>2025-06-15T07:52:24Z</time>
      </trkpt>
      <trkpt lat="45.12042" lon="0.62382">
        <ele>186.6</ele>
        <time>2025-06-15T07:52:25Z</time>
      </trkpt>
      <trkpt lat="45.1204" lon="0.62384">
        <ele>186.8</ele>
        <time>2025-06-15T07:52:26Z</time>
      </trkpt>
      <trkpt lat="45.12038" lon="0.62386">
        <ele>187</ele>
        <time>2025-06-15T07:52:27Z</time>
      </trkpt>
      <trkpt lat="45.12036" lon="0.62387">
        <ele>187.2</ele>
        <time>2025-06-15T07:52:28Z</time>
      </trkpt>
      <trkpt lat="45.12035" lon="0.62389">
        <ele>187.4</ele>
        <time>2025-06-15T07:52:29Z</time>
      </trkpt>
      <trkpt lat="45.12033" lon="0.62391">
        <ele>187.6</ele>
        <time>2025-06-15T07:52:30Z</time>
      </trkpt>
      <trkpt lat="45.12031" lon="0.62392">
        <ele>187.8</ele>
        <time>2025-06-15T07:52:31Z</time>
      </trkpt>
      <trkpt lat="45.12029" lon="0.62394">
        <ele>188</ele>
        <time>2025-06-15T07:52:32Z</time>
      </trkpt>
      <trkpt lat="45.12027" lon="0.62396">
        <ele>188.2</ele>
        <time>2025-06-15T07:52:33Z</time>
      </trkpt>
      <trkpt lat="45.12025" lon="0.62398">
        <ele>188.4</ele>
        <time>2025-06-15T07:52:34Z</time>
      </trkpt>
      <trkpt lat="45.12023" lon="0.624">
        <ele>188.6</ele>
        <time>2025-06-15T07:52:35Z</time>
      </trkpt>
      <trkpt lat="45.1202" lon="0.62401">
        <ele>188.8</ele>
        <time>2025-06-15T07:52:36Z</time>
      </trkpt>
      <trkpt lat="45.12018" lon="0.62403">
        <ele>188.8</ele>
        <time>2025-06-15T07:52:37Z</time>
      </trkpt>
      <trkpt lat="45.12016" lon="0.62404">
        <ele>189</ele>
        <time>2025-06-15T07:52:38Z</time>
      </trkpt>
      <trkpt lat="45.12014" lon="0.62406">
        <ele>189.2</ele>
        <time>2025-06-15T07:52:39Z</time>
      </trkpt>
      <trkpt lat="45.12012" lon="0.62407">
        <ele>189.4</ele>
        <time>2025-06-15T07:52:40Z</time>
      </trkpt>
      <trkpt lat="45.1201" lon="0.62408">
        <ele>189.6</ele>
        <time>2025-06-15T07:52:41Z</time>
      </trkpt>
      <trkpt lat="45.12008" lon="0.62409">
        <ele>189.8</ele>
        <time>2025-06-15T07:52:42Z</time>
      </trkpt>
      <trkpt lat="45.12006" lon="0.62411">
        <ele>190</ele>
        <time>2025-06-15T07:52:43Z</time>
      </trkpt>
      <trkpt lat="45.12004" lon="0.62412">
        <ele>190.2</ele>
        <time>2025-06-15T07:52:44Z</time>
      </trkpt>
      <trkpt lat="45.12002" lon="0.62413">
        <ele>190.2</ele>
        <time>2025-06-15T07:52:45Z</time>
      </trkpt>
      <trkpt lat="45.11999" lon="0.62413">
        <ele>190.6</ele>
        <time>2025-06-15T07:52:46Z</time>
      </trkpt>
      <trkpt lat="45.11997" lon="0.62413">
        <ele>190.8</ele>
        <time>2025-06-15T07:52:47Z</time>
      </trkpt>
      <trkpt lat="45.11995" lon="0.62413">
        <ele>191</ele>
        <time>2025-06-15T07:52:48Z</time>
      </trkpt>
      <trkpt lat="45.11993" lon="0.62413">
        <ele>191.2</ele>
        <time>2025-06-15T07:52:49Z</time>
      </trkpt>
      <trkpt lat="45.11991" lon="0.62414">
        <ele>191.6</ele>
        <time>2025-06-15T07:52:50Z</time>
      </trkpt>
      <trkpt lat="45.11989" lon="0.62414">
        <ele>191.8</ele>
        <time>2025-06-15T07:52:51Z</time>
      </trkpt>
      <trkpt lat="45.11987" lon="0.62414">
        <ele>192.2</ele>
        <time>2025-06-15T07:52:52Z</time>
      </trkpt>
      <trkpt lat="45.11985" lon="0.62414">
        <ele>192.6</ele>
        <time>2025-06-15T07:52:53Z</time>
      </trkpt>
      <trkpt lat="45.11983" lon="0.62414">
        <ele>192.8</ele>
        <time>2025-06-15T07:52:54Z</time>
      </trkpt>
      <trkpt lat="45.11981" lon="0.62414">
        <ele>193.2</ele>
        <time>2025-06-15T07:52:55Z</time>
      </trkpt>
      <trkpt lat="45.1198" lon="0.62414">
        <ele>193.4</ele>
        <time>2025-06-15T07:52:56Z</time>
      </trkpt>
      <trkpt lat="45.11978" lon="0.62413">
        <ele>193.8</ele>
        <time>2025-06-15T07:52:57Z</time>
      </trkpt>
      <trkpt lat="45.11976" lon="0.62413">
        <ele>194</ele>
        <time>2025-06-15T07:52:58Z</time>
      </trkpt>
      <trkpt lat="45.11974" lon="0.62412">
        <ele>194.4</ele>
        <time>2025-06-15T07:52:59Z</time>
      </trkpt>
      <trkpt lat="45.11972" lon="0.6241">
        <ele>194.6</ele>
        <time>2025-06-15T07:53:00Z</time>
      </trkpt>
      <trkpt lat="45.1197" lon="0.62409">
        <ele>195</ele>
        <time>2025-06-15T07:53:01Z</time>
      </trkpt>
      <trkpt lat="45.11968" lon="0.62408">
        <ele>195.2</ele>
        <time>2025-06-15T07:53:02Z</time>
      </trkpt>
      <trkpt lat="45.11967" lon="0.62406">
        <ele>195.4</ele>
        <time>2025-06-15T07:53:03Z</time>
      </trkpt>
      <trkpt lat="45.11965" lon="0.62404">
        <ele>195.8</ele>
        <time>2025-06-15T07:53:04Z</time>
      </trkpt>
      <trkpt lat="45.11964" lon="0.62402">
        <ele>196.2</ele>
        <time>2025-06-15T07:53:05Z</time>
      </trkpt>
      <trkpt lat="45.11962" lon="0.624">
        <ele>196.4</ele>
        <time>2025-06-15T07:53:06Z</time>
      </trkpt>
      <trkpt lat="45.11961" lon="0.62398">
        <ele>196.6</ele>
        <time>2025-06-15T07:53:07Z</time>
      </trkpt>
      <trkpt lat="45.11959" lon="0.62397">
        <ele>197</ele>
        <time>2025-06-15T07:53:08Z</time>
      </trkpt>
      <trkpt lat="45.11958" lon="0.62395">
        <ele>197.2</ele>
        <time>2025-06-15T07:53:09Z</time>
      </trkpt>
      <trkpt lat="45.11956" lon="0.62393">
        <ele>197.4</ele>
        <time>2025-06-15T07:53:10Z</time>
      </trkpt>
      <trkpt lat="45.11954" lon="0.62392">
        <ele>197.8</ele>
        <time>2025-06-15T07:53:11Z</time>
      </trkpt>
      <trkpt lat="45.11952" lon="0.6239">
        <ele>198</ele>
        <time>2025-06-15T07:53:12Z</time>
      </trkpt>
      <trkpt lat="45.1195" lon="0.62389">
        <ele>198.2</ele>
        <time>2025-06-15T07:53:13Z</time>
      </trkpt>
      <trkpt lat="45.11949" lon="0.62387">
        <ele>198.4</ele>
        <time>2025-06-15T07:53:14Z</time>
      </trkpt>
      <trkpt lat="45.11947" lon="0.62386">
        <ele>198.6</ele>
        <time>2025-06-15T07:53:15Z</time>
      </trkpt>
      <trkpt lat="45.11945" lon="0.62386">
        <ele>198.8</ele>
        <time>2025-06-15T07:53:16Z</time>
      </trkpt>
      <trkpt lat="45.11942" lon="0.62385">
        <ele>199</ele>
        <time>2025-06-15T07:53:17Z</time>
      </trkpt>
      <trkpt lat="45.1194" lon="0.62385">
        <ele>199.2</ele>
        <time>2025-06-15T07:53:18Z</time>
      </trkpt>
      <trkpt lat="45.11938" lon="0.62384">
        <ele>199.4</ele>
        <time>2025-06-15T07:53:19Z</time>
      </trkpt>
      <trkpt lat="45.11936" lon="0.62383">
        <ele>199.6</ele>
        <time>2025-06-15T07:53:20Z</time>
      </trkpt>
      <trkpt lat="45.11934" lon="0.62382">
        <ele>199.8</ele>
        <time>2025-06-15T07:53:21Z</time>
      </trkpt>
      <trkpt lat="45.11932" lon="0.62382">
        <ele>200</ele>
        <time>2025-06-15T07:53:22Z</time>
      </trkpt>
      <trkpt lat="45.11929" lon="0.62381">
        <ele>200.2</ele>
        <time>2025-06-15T07:53:23Z</time>
      </trkpt>
      <trkpt lat="45.11927" lon="0.62381">
        <ele>200.4</ele>
        <time>2025-06-15T07:53:24Z</time>
      </trkpt>
      <trkpt lat="45.11925" lon="0.6238">
        <ele>200.6</ele>
        <time>2025-06-15T07:53:25Z</time>
      </trkpt>
      <trkpt lat="45.11923" lon="0.62379">
        <ele>200.8</ele>
        <time>2025-06-15T07:53:26Z</time>
      </trkpt>
      <trkpt lat="45.11921" lon="0.62378">
        <ele>201</ele>
        <time>2025-06-15T07:53:27Z</time>
      </trkpt>
      <trkpt lat="45.11919" lon="0.62378">
        <ele>201.4</ele>
        <time>2025-06-15T07:53:28Z</time>
      </trkpt>
      <trkpt lat="45.11917" lon="0.62377">
        <ele>201.4</ele>
        <time>2025-06-15T07:53:29Z</time>
      </trkpt>
      <trkpt lat="45.11915" lon="0.62376">
        <ele>201.6</ele>
        <time>2025-06-15T07:53:30Z</time>
      </trkpt>
      <trkpt lat="45.11913" lon="0.62376">
        <ele>201.8</ele>
        <time>2025-06-15T07:53:31Z</time>
      </trkpt>
      <trkpt lat="45.11911" lon="0.62375">
        <ele>202</ele>
        <time>2025-06-15T07:53:32Z</time>
      </trkpt>
      <trkpt lat="45.11908" lon="0.62375">
        <ele>202.2</ele>
        <time>2025-06-15T07:53:33Z</time>
      </trkpt>
      <trkpt lat="45.11906" lon="0.62374">
        <ele>202.4</ele>
        <time>2025-06-15T07:53:34Z</time>
      </trkpt>
      <trkpt lat="45.11904" lon="0.62373">
        <ele>202.6</ele>
        <time>2025-06-15T07:53:35Z</time>
      </trkpt>
      <trkpt lat="45.11902" lon="0.62372">
        <ele>202.8</ele>
        <time>2025-06-15T07:53:36Z</time>
      </trkpt>
      <trkpt lat="45.11901" lon="0.62369">
        <ele>202.8</ele>
        <time>2025-06-15T07:53:37Z</time>
      </trkpt>
      <trkpt lat="45.119" lon="0.62365">
        <ele>202.8</ele>
        <time>2025-06-15T07:53:38Z</time>
      </trkpt>
      <trkpt lat="45.11899" lon="0.62362">
        <ele>203</ele>
        <time>2025-06-15T07:53:39Z</time>
      </trkpt>
      <trkpt lat="45.11899" lon="0.62358">
        <ele>203</ele>
        <time>2025-06-15T07:53:40Z</time>
      </trkpt>
      <trkpt lat="45.11898" lon="0.62355">
        <ele>203</ele>
        <time>2025-06-15T07:53:41Z</time>
      </trkpt>
      <trkpt lat="45.11898" lon="0.62352">
        <ele>203.2</ele>
        <time>2025-06-15T07:53:42Z</time>
      </trkpt>
      <trkpt lat="45.11897" lon="0.62349">
        <ele>203.2</ele>
        <time>2025-06-15T07:53:43Z</time>
      </trkpt>
      <trkpt lat="45.11897" lon="0.62347">
        <ele>203.2</ele>
        <time>2025-06-15T07:53:44Z</time>
      </trkpt>
      <trkpt lat="45.11896" lon="0.62346">
        <ele>203.4</ele>
        <time>2025-06-15T07:53:45Z</time>
      </trkpt>
      <trkpt lat="45.11896" lon="0.62344">
        <ele>203.4</ele>
        <time>2025-06-15T07:53:46Z</time>
      </trkpt>
      <trkpt lat="45.11895" lon="0.62344">
        <ele>203.4</ele>
        <time>2025-06-15T07:53:47Z</time>
      </trkpt>
      <trkpt lat="45.11896" lon="0.62345">
        <ele>203.6</ele>
        <time>2025-06-15T07:53:48Z</time>
      </trkpt>
      <trkpt lat="45.11894" lon="0.62338">
        <ele>203.6</ele>
        <time>2025-06-15T07:53:52Z</time>
      </trkpt>
      <trkpt lat="45.11893" lon="0.62335">
        <ele>203.4</ele>
        <time>2025-06-15T07:53:53Z</time>
      </trkpt>
      <trkpt lat="45.11892" lon="0.62332">
        <ele>203.4</ele>
        <time>2025-06-15T07:53:54Z</time>
      </trkpt>
      <trkpt lat="45.11891" lon="0.62327">
        <ele>203</ele>
        <time>2025-06-15T07:53:55Z</time>
      </trkpt>
      <trkpt lat="45.1189" lon="0.62323">
        <ele>202.8</ele>
        <time>2025-06-15T07:53:56Z</time>
      </trkpt>
      <trkpt lat="45.1189" lon="0.62317">
        <ele>202.6</ele>
        <time>2025-06-15T07:53:57Z</time>
      </trkpt>
      <trkpt lat="45.11889" lon="0.62313">
        <ele>202.6</ele>
        <time>2025-06-15T07:53:58Z</time>
      </trkpt>
      <trkpt lat="45.11888" lon="0.62307">
        <ele>202.4</ele>
        <time>2025-06-15T07:53:59Z</time>
      </trkpt>
      <trkpt lat="45.11887" lon="0.62301">
        <ele>202.2</ele>
        <time>2025-06-15T07:54:00Z</time>
      </trkpt>
      <trkpt lat="45.11886" lon="0.62295">
        <ele>202</ele>
        <time>2025-06-15T07:54:01Z</time>
      </trkpt>
      <trkpt lat="45.11885" lon="0.62289">
        <ele>201.8</ele>
        <time>2025-06-15T07:54:02Z</time>
      </trkpt>
      <trkpt lat="45.11883" lon="0.62283">
        <ele>201.6</ele>
        <time>2025-06-15T07:54:03Z</time>
      </trkpt>
      <trkpt lat="45.11882" lon="0.62276">
        <ele>201.4</ele>
        <time>2025-06-15T07:54:04Z</time>
      </trkpt>
      <trkpt lat="45.11879" lon="0.62269">
        <ele>201</ele>
        <time>2025-06-15T07:54:05Z</time>
      </trkpt>
      <trkpt lat="45.11877" lon="0.62262">
        <ele>200.8</ele>
        <time>2025-06-15T07:54:06Z</time>
      </trkpt>
      <trkpt lat="45.11875" lon="0.62255">
        <ele>200.6</ele>
        <time>2025-06-15T07:54:07Z</time>
      </trkpt>
      <trkpt lat="45.11872" lon="0.62249">
        <ele>200.4</ele>
        <time>2025-06-15T07:54:08Z</time>
      </trkpt>
      <trkpt lat="45.11868" lon="0.62243">
        <ele>200</ele>
        <time>2025-06-15T07:54:09Z</time>
      </trkpt>
      <trkpt lat="45.11864" lon="0.62236">
        <ele>199.8</ele>
        <time>2025-06-15T07:54:10Z</time>
      </trkpt>
      <trkpt lat="45.11861" lon="0.6223">
        <ele>199.6</ele>
        <time>2025-06-15T07:54:11Z</time>
      </trkpt>
      <trkpt lat="45.11858" lon="0.62226">
        <ele>199.6</ele>
        <time>2025-06-15T07:54:12Z</time>
      </trkpt>
      <trkpt lat="45.11858" lon="0.62225">
        <ele>199.6</ele>
        <time>2025-06-15T07:54:13Z</time>
      </trkpt>
      <trkpt lat="45.11857" lon="0.62225">
        <ele>199.6</ele>
        <time>2025-06-15T07:54:14Z</time>
      </trkpt>
      <trkpt lat="45.11857" lon="0.62226">
        <ele>199.8</ele>
        <time>2025-06-15T07:54:15Z</time>
      </trkpt>
      <trkpt lat="45.11856" lon="0.62225">
        <ele>199.8</ele>
        <time>2025-06-15T07:54:16Z</time>
      </trkpt>
      <trkpt lat="45.11853" lon="0.62231">
        <ele>200.4</ele>
        <time>2025-06-15T07:54:25Z</time>
      </trkpt>
      <trkpt lat="45.11851" lon="0.62231">
        <ele>200.6</ele>
        <time>2025-06-15T07:54:26Z</time>
      </trkpt>
      <trkpt lat="45.1185" lon="0.62233">
        <ele>200.6</ele>
        <time>2025-06-15T07:54:27Z</time>
      </trkpt>
      <trkpt lat="45.11848" lon="0.62234">
        <ele>200.8</ele>
        <time>2025-06-15T07:54:28Z</time>
      </trkpt>
      <trkpt lat="45.11846" lon="0.62235">
        <ele>201</ele>
        <time>2025-06-15T07:54:29Z</time>
      </trkpt>
      <trkpt lat="45.11845" lon="0.62237">
        <ele>201.4</ele>
        <time>2025-06-15T07:54:30Z</time>
      </trkpt>
      <trkpt lat="45.11843" lon="0.62238">
        <ele>201.6</ele>
        <time>2025-06-15T07:54:31Z</time>
      </trkpt>
      <trkpt lat="45.11842" lon="0.62239">
        <ele>202</ele>
        <time>2025-06-15T07:54:32Z</time>
      </trkpt>
      <trkpt lat="45.1184" lon="0.6224">
        <ele>202.2</ele>
        <time>2025-06-15T07:54:33Z</time>
      </trkpt>
      <trkpt lat="45.11839" lon="0.62241">
        <ele>202.6</ele>
        <time>2025-06-15T07:54:34Z</time>
      </trkpt>
      <trkpt lat="45.11837" lon="0.62242">
        <ele>203</ele>
        <time>2025-06-15T07:54:35Z</time>
      </trkpt>
      <trkpt lat="45.11835" lon="0.62243">
        <ele>203.2</ele>
        <time>2025-06-15T07:54:36Z</time>
      </trkpt>
      <trkpt lat="45.11834" lon="0.62245">
        <ele>203.6</ele>
        <time>2025-06-15T07:54:37Z</time>
      </trkpt>
      <trkpt lat="45.11832" lon="0.62246">
        <ele>203.8</ele>
        <time>2025-06-15T07:54:38Z</time>
      </trkpt>
      <trkpt lat="45.1183" lon="0.62249">
        <ele>204.2</ele>
        <time>2025-06-15T07:54:39Z</time>
      </trkpt>
      <trkpt lat="45.11829" lon="0.6225">
        <ele>204.4</ele>
        <time>2025-06-15T07:54:40Z</time>
      </trkpt>
      <trkpt lat="45.11827" lon="0.62252">
        <ele>204.6</ele>
        <time>2025-06-15T07:54:41Z</time>
      </trkpt>
      <trkpt lat="45.11825" lon="0.62253">
        <ele>205</ele>
        <time>2025-06-15T07:54:42Z</time>
      </trkpt>
      <trkpt lat="45.11824" lon="0.62255">
        <ele>205.2</ele>
        <time>2025-06-15T07:54:43Z</time>
      </trkpt>
      <trkpt lat="45.11822" lon="0.62256">
        <ele>205.4</ele>
        <time>2025-06-15T07:54:44Z</time>
      </trkpt>
      <trkpt lat="45.11821" lon="0.62257">
        <ele>205.6</ele>
        <time>2025-06-15T07:54:45Z</time>
      </trkpt>
      <trkpt lat="45.11819" lon="0.62258">
        <ele>206</ele>
        <time>2025-06-15T07:54:46Z</time>
      </trkpt>
      <trkpt lat="45.11817" lon="0.62259">
        <ele>206.2</ele>
        <time>2025-06-15T07:54:47Z</time>
      </trkpt>
      <trkpt lat="45.11815" lon="0.6226">
        <ele>206.6</ele>
        <time>2025-06-15T07:54:48Z</time>
      </trkpt>
      <trkpt lat="45.11814" lon="0.62261">
        <ele>206.8</ele>
        <time>2025-06-15T07:54:49Z</time>
      </trkpt>
      <trkpt lat="45.11812" lon="0.62262">
        <ele>207</ele>
        <time>2025-06-15T07:54:50Z</time>
      </trkpt>
      <trkpt lat="45.1181" lon="0.62262">
        <ele>207.4</ele>
        <time>2025-06-15T07:54:51Z</time>
      </trkpt>
      <trkpt lat="45.11808" lon="0.62261">
        <ele>207.8</ele>
        <time>2025-06-15T07:54:52Z</time>
      </trkpt>
      <trkpt lat="45.11806" lon="0.62261">
        <ele>208</ele>
        <time>2025-06-15T07:54:53Z</time>
      </trkpt>
      <trkpt lat="45.11804" lon="0.6226">
        <ele>208.2</ele>
        <time>2025-06-15T07:54:54Z</time>
      </trkpt>
      <trkpt lat="45.11802" lon="0.62259">
        <ele>208.4</ele>
        <time>2025-06-15T07:54:55Z</time>
      </trkpt>
      <trkpt lat="45.11799" lon="0.62257">
        <ele>208.6</ele>
        <time>2025-06-15T07:54:56Z</time>
      </trkpt>
      <trkpt lat="45.11797" lon="0.62255">
        <ele>208.6</ele>
        <time>2025-06-15T07:54:57Z</time>
      </trkpt>
      <trkpt lat="45.11794" lon="0.62251">
        <ele>208.8</ele>
        <time>2025-06-15T07:54:58Z</time>
      </trkpt>
      <trkpt lat="45.11791" lon="0.62248">
        <ele>208.8</ele>
        <time>2025-06-15T07:54:59Z</time>
      </trkpt>
      <trkpt lat="45.11789" lon="0.62245">
        <ele>209</ele>
        <time>2025-06-15T07:55:00Z</time>
      </trkpt>
      <trkpt lat="45.11786" lon="0.62242">
        <ele>209</ele>
        <time>2025-06-15T07:55:01Z</time>
      </trkpt>
      <trkpt lat="45.11784" lon="0.62238">
        <ele>209</ele>
        <time>2025-06-15T07:55:02Z</time>
      </trkpt>
      <trkpt lat="45.11781" lon="0.62234">
        <ele>209</ele>
        <time>2025-06-15T07:55:03Z</time>
      </trkpt>
      <trkpt lat="45.11778" lon="0.6223">
        <ele>209</ele>
        <time>2025-06-15T07:55:04Z</time>
      </trkpt>
      <trkpt lat="45.11776" lon="0.62226">
        <ele>209</ele>
        <time>2025-06-15T07:55:05Z</time>
      </trkpt>
      <trkpt lat="45.11773" lon="0.62222">
        <ele>208.8</ele>
        <time>2025-06-15T07:55:06Z</time>
      </trkpt>
      <trkpt lat="45.1177" lon="0.62217">
        <ele>208.8</ele>
        <time>2025-06-15T07:55:07Z</time>
      </trkpt>
      <trkpt lat="45.11768" lon="0.62212">
        <ele>208.8</ele>
        <time>2025-06-15T07:55:08Z</time>
      </trkpt>
      <trkpt lat="45.11765" lon="0.62207">
        <ele>209</ele>
        <time>2025-06-15T07:55:09Z</time>
      </trkpt>
      <trkpt lat="45.11762" lon="0.62202">
        <ele>209</ele>
        <time>2025-06-15T07:55:10Z</time>
      </trkpt>
      <trkpt lat="45.11759" lon="0.62196">
        <ele>209</ele>
        <time>2025-06-15T07:55:11Z</time>
      </trkpt>
      <trkpt lat="45.11756" lon="0.62191">
        <ele>209</ele>
        <time>2025-06-15T07:55:12Z</time>
      </trkpt>
      <trkpt lat="45.11752" lon="0.62186">
        <ele>209</ele>
        <time>2025-06-15T07:55:13Z</time>
      </trkpt>
      <trkpt lat="45.1175" lon="0.62181">
        <ele>209</ele>
        <time>2025-06-15T07:55:14Z</time>
      </trkpt>
      <trkpt lat="45.11747" lon="0.62175">
        <ele>209</ele>
        <time>2025-06-15T07:55:15Z</time>
      </trkpt>
      <trkpt lat="45.11745" lon="0.62169">
        <ele>209</ele>
        <time>2025-06-15T07:55:16Z</time>
      </trkpt>
      <trkpt lat="45.11743" lon="0.62164">
        <ele>208.8</ele>
        <time>2025-06-15T07:55:17Z</time>
      </trkpt>
      <trkpt lat="45.11742" lon="0.62158">
        <ele>209</ele>
        <time>2025-06-15T07:55:18Z</time>
      </trkpt>
      <trkpt lat="45.11741" lon="0.62151">
        <ele>209</ele>
        <time>2025-06-15T07:55:19Z</time>
      </trkpt>
      <trkpt lat="45.11741" lon="0.62144">
        <ele>209</ele>
        <time>2025-06-15T07:55:20Z</time>
      </trkpt>
      <trkpt lat="45.11741" lon="0.62137">
        <ele>209</ele>
        <time>2025-06-15T07:55:21Z</time>
      </trkpt>
      <trkpt lat="45.1174" lon="0.62131">
        <ele>209.2</ele>
        <time>2025-06-15T07:55:22Z</time>
      </trkpt>
      <trkpt lat="45.11738" lon="0.62125">
        <ele>209.2</ele>
        <time>2025-06-15T07:55:23Z</time>
      </trkpt>
      <trkpt lat="45.11736" lon="0.62121">
        <ele>209.4</ele>
        <time>2025-06-15T07:55:24Z</time>
      </trkpt>
      <trkpt lat="45.11734" lon="0.62115">
        <ele>209.8</ele>
        <time>2025-06-15T07:55:25Z</time>
      </trkpt>
      <trkpt lat="45.11732" lon="0.62111">
        <ele>210</ele>
        <time>2025-06-15T07:55:26Z</time>
      </trkpt>
      <trkpt lat="45.11731" lon="0.62105">
        <ele>210.2</ele>
        <time>2025-06-15T07:55:27Z</time>
      </trkpt>
      <trkpt lat="45.11731" lon="0.621">
        <ele>210.4</ele>
        <time>2025-06-15T07:55:28Z</time>
      </trkpt>
      <trkpt lat="45.11729" lon="0.62095">
        <ele>210.6</ele>
        <time>2025-06-15T07:55:29Z</time>
      </trkpt>
      <trkpt lat="45.11728" lon="0.6209">
        <ele>210.8</ele>
        <time>2025-06-15T07:55:30Z</time>
      </trkpt>
      <trkpt lat="45.11728" lon="0.62084">
        <ele>211.2</ele>
        <time>2025-06-15T07:55:31Z</time>
      </trkpt>
      <trkpt lat="45.11728" lon="0.62079">
        <ele>211.4</ele>
        <time>2025-06-15T07:55:32Z</time>
      </trkpt>
      <trkpt lat="45.11728" lon="0.62073">
        <ele>211.4</ele>
        <time>2025-06-15T07:55:33Z</time>
      </trkpt>
      <trkpt lat="45.11728" lon="0.62067">
        <ele>211.6</ele>
        <time>2025-06-15T07:55:34Z</time>
      </trkpt>
      <trkpt lat="45.11729" lon="0.62061">
        <ele>211.8</ele>
        <time>2025-06-15T07:55:35Z</time>
      </trkpt>
      <trkpt lat="45.1173" lon="0.62054">
        <ele>212</ele>
        <time>2025-06-15T07:55:36Z</time>
      </trkpt>
      <trkpt lat="45.11731" lon="0.62047">
        <ele>212</ele>
        <time>2025-06-15T07:55:37Z</time>
      </trkpt>
      <trkpt lat="45.11732" lon="0.62041">
        <ele>212.2</ele>
        <time>2025-06-15T07:55:38Z</time>
      </trkpt>
      <trkpt lat="45.11732" lon="0.62034">
        <ele>212.2</ele>
        <time>2025-06-15T07:55:39Z</time>
      </trkpt>
      <trkpt lat="45.11733" lon="0.62028">
        <ele>212.2</ele>
        <time>2025-06-15T07:55:40Z</time>
      </trkpt>
      <trkpt lat="45.11734" lon="0.62021">
        <ele>212.2</ele>
        <time>2025-06-15T07:55:41Z</time>
      </trkpt>
      <trkpt lat="45.11735" lon="0.62015">
        <ele>212.4</ele>
        <time>2025-06-15T07:55:42Z</time>
      </trkpt>
      <trkpt lat="45.11735" lon="0.62009">
        <ele>212.4</ele>
        <time>2025-06-15T07:55:43Z</time>
      </trkpt>
      <trkpt lat="45.11736" lon="0.62004">
        <ele>212.4</ele>
        <time>2025-06-15T07:55:44Z</time>
      </trkpt>
      <trkpt lat="45.11737" lon="0.61999">
        <ele>212.4</ele>
        <time>2025-06-15T07:55:45Z</time>
      </trkpt>
      <trkpt lat="45.11738" lon="0.61994">
        <ele>212.4</ele>
        <time>2025-06-15T07:55:46Z</time>
      </trkpt>
      <trkpt lat="45.11738" lon="0.61989">
        <ele>212.4</ele>
        <time>2025-06-15T07:55:47Z</time>
      </trkpt>
      <trkpt lat="45.11739" lon="0.61984">
        <ele>212.6</ele>
        <time>2025-06-15T07:55:48Z</time>
      </trkpt>
      <trkpt lat="45.1174" lon="0.61979">
        <ele>212.6</ele>
        <time>2025-06-15T07:55:49Z</time>
      </trkpt>
      <trkpt lat="45.1174" lon="0.61974">
        <ele>212.8</ele>
        <time>2025-06-15T07:55:50Z</time>
      </trkpt>
      <trkpt lat="45.11741" lon="0.61968">
        <ele>212.8</ele>
        <time>2025-06-15T07:55:51Z</time>
      </trkpt>
      <trkpt lat="45.11742" lon="0.61962">
        <ele>212.8</ele>
        <time>2025-06-15T07:55:52Z</time>
      </trkpt>
      <trkpt lat="45.11743" lon="0.61956">
        <ele>212.8</ele>
        <time>2025-06-15T07:55:53Z</time>
      </trkpt>
      <trkpt lat="45.11745" lon="0.6195">
        <ele>212.8</ele>
        <time>2025-06-15T07:55:54Z</time>
      </trkpt>
      <trkpt lat="45.11746" lon="0.61943">
        <ele>212.8</ele>
        <time>2025-06-15T07:55:55Z</time>
      </trkpt>
      <trkpt lat="45.11748" lon="0.61936">
        <ele>212.6</ele>
        <time>2025-06-15T07:55:56Z</time>
      </trkpt>
      <trkpt lat="45.1175" lon="0.61929">
        <ele>212.6</ele>
        <time>2025-06-15T07:55:57Z</time>
      </trkpt>
      <trkpt lat="45.11751" lon="0.61923">
        <ele>212.4</ele>
        <time>2025-06-15T07:55:58Z</time>
      </trkpt>
      <trkpt lat="45.11753" lon="0.61916">
        <ele>212.2</ele>
        <time>2025-06-15T07:55:59Z</time>
      </trkpt>
      <trkpt lat="45.11755" lon="0.61909">
        <ele>212.2</ele>
        <time>2025-06-15T07:56:00Z</time>
      </trkpt>
      <trkpt lat="45.11756" lon="0.61902">
        <ele>212.2</ele>
        <time>2025-06-15T07:56:01Z</time>
      </trkpt>
      <trkpt lat="45.11757" lon="0.61896">
        <ele>212.2</ele>
        <time>2025-06-15T07:56:02Z</time>
      </trkpt>
      <trkpt lat="45.11759" lon="0.6189">
        <ele>212.2</ele>
        <time>2025-06-15T07:56:03Z</time>
      </trkpt>
      <trkpt lat="45.1176" lon="0.61884">
        <ele>212.2</ele>
        <time>2025-06-15T07:56:04Z</time>
      </trkpt>
      <trkpt lat="45.11762" lon="0.61878">
        <ele>212</ele>
        <time>2025-06-15T07:56:05Z</time>
      </trkpt>
      <trkpt lat="45.11763" lon="0.61872">
        <ele>212</ele>
        <time>2025-06-15T07:56:06Z</time>
      </trkpt>
      <trkpt lat="45.11764" lon="0.61866">
        <ele>212</ele>
        <time>2025-06-15T07:56:07Z</time>
      </trkpt>
      <trkpt lat="45.11765" lon="0.6186">
        <ele>211.8</ele>
        <time>2025-06-15T07:56:08Z</time>
      </trkpt>
      <trkpt lat="45.11765" lon="0.61854">
        <ele>211.8</ele>
        <time>2025-06-15T07:56:09Z</time>
      </trkpt>
      <trkpt lat="45.11765" lon="0.61848">
        <ele>211.8</ele>
        <time>2025-06-15T07:56:10Z</time>
      </trkpt>
      <trkpt lat="45.11765" lon="0.61842">
        <ele>212</ele>
        <time>2025-06-15T07:56:11Z</time>
      </trkpt>
      <trkpt lat="45.11765" lon="0.61836">
        <ele>212</ele>
        <time>2025-06-15T07:56:12Z</time>
      </trkpt>
      <trkpt lat="45.11765" lon="0.61829">
        <ele>212.2</ele>
        <time>2025-06-15T07:56:13Z</time>
      </trkpt>
      <trkpt lat="45.11765" lon="0.61823">
        <ele>212.4</ele>
        <time>2025-06-15T07:56:14Z</time>
      </trkpt>
      <trkpt lat="45.11764" lon="0.61817">
        <ele>212.6</ele>
        <time>2025-06-15T07:56:15Z</time>
      </trkpt>
      <trkpt lat="45.11764" lon="0.61812">
        <ele>212.6</ele>
        <time>2025-06-15T07:56:16Z</time>
      </trkpt>
      <trkpt lat="45.11764" lon="0.61807">
        <ele>212.8</ele>
        <time>2025-06-15T07:56:17Z</time>
      </trkpt>
      <trkpt lat="45.11764" lon="0.61801">
        <ele>213</ele>
        <time>2025-06-15T07:56:18Z</time>
      </trkpt>
      <trkpt lat="45.11764" lon="0.61795">
        <ele>213</ele>
        <time>2025-06-15T07:56:19Z</time>
      </trkpt>
      <trkpt lat="45.11764" lon="0.61791">
        <ele>213.2</ele>
        <time>2025-06-15T07:56:20Z</time>
      </trkpt>
      <trkpt lat="45.11764" lon="0.61785">
        <ele>213.4</ele>
        <time>2025-06-15T07:56:21Z</time>
      </trkpt>
      <trkpt lat="45.11765" lon="0.6178">
        <ele>213.4</ele>
        <time>2025-06-15T07:56:22Z</time>
      </trkpt>
      <trkpt lat="45.11765" lon="0.61775">
        <ele>213.6</ele>
        <time>2025-06-15T07:56:23Z</time>
      </trkpt>
      <trkpt lat="45.11765" lon="0.6177">
        <ele>213.6</ele>
        <time>2025-06-15T07:56:24Z</time>
      </trkpt>
      <trkpt lat="45.11766" lon="0.61765">
        <ele>213.6</ele>
        <time>2025-06-15T07:56:25Z</time>
      </trkpt>
      <trkpt lat="45.11765" lon="0.6176">
        <ele>213.6</ele>
        <time>2025-06-15T07:56:26Z</time>
      </trkpt>
      <trkpt lat="45.11765" lon="0.61755">
        <ele>213.8</ele>
        <time>2025-06-15T07:56:27Z</time>
      </trkpt>
      <trkpt lat="45.11764" lon="0.61751">
        <ele>213.8</ele>
        <time>2025-06-15T07:56:28Z</time>
      </trkpt>
      <trkpt lat="45.11764" lon="0.61746">
        <ele>214</ele>
        <time>2025-06-15T07:56:29Z</time>
      </trkpt>
      <trkpt lat="45.11763" lon="0.61741">
        <ele>214</ele>
        <time>2025-06-15T07:56:30Z</time>
      </trkpt>
      <trkpt lat="45.11763" lon="0.61735">
        <ele>214.2</ele>
        <time>2025-06-15T07:56:31Z</time>
      </trkpt>
      <trkpt lat="45.11763" lon="0.61729">
        <ele>214.2</ele>
        <time>2025-06-15T07:56:32Z</time>
      </trkpt>
      <trkpt lat="45.11762" lon="0.61723">
        <ele>214.2</ele>
        <time>2025-06-15T07:56:33Z</time>
      </trkpt>
      <trkpt lat="45.11762" lon="0.61718">
        <ele>214.2</ele>
        <time>2025-06-15T07:56:34Z</time>
      </trkpt>
      <trkpt lat="45.11762" lon="0.61713">
        <ele>214.4</ele>
        <time>2025-06-15T07:56:35Z</time>
      </trkpt>
      <trkpt lat="45.11762" lon="0.61707">
        <ele>214.4</ele>
        <time>2025-06-15T07:56:36Z</time>
      </trkpt>
      <trkpt lat="45.11761" lon="0.61702">
        <ele>214.4</ele>
        <time>2025-06-15T07:56:37Z</time>
      </trkpt>
      <trkpt lat="45.1176" lon="0.61697">
        <ele>214.6</ele>
        <time>2025-06-15T07:56:38Z</time>
      </trkpt>
      <trkpt lat="45.11758" lon="0.61693">
        <ele>214.6</ele>
        <time>2025-06-15T07:56:39Z</time>
      </trkpt>
      <trkpt lat="45.11755" lon="0.6169">
        <ele>214.6</ele>
        <time>2025-06-15T07:56:40Z</time>
      </trkpt>
      <trkpt lat="45.11753" lon="0.61687">
        <ele>214.6</ele>
        <time>2025-06-15T07:56:41Z</time>
      </trkpt>
      <trkpt lat="45.1175" lon="0.61683">
        <ele>214.6</ele>
        <time>2025-06-15T07:56:42Z</time>
      </trkpt>
      <trkpt lat="45.11748" lon="0.61679">
        <ele>214.6</ele>
        <time>2025-06-15T07:56:43Z</time>
      </trkpt>
      <trkpt lat="45.11745" lon="0.61675">
        <ele>214.6</ele>
        <time>2025-06-15T07:56:44Z</time>
      </trkpt>
      <trkpt lat="45.11742" lon="0.6167">
        <ele>214.6</ele>
        <time>2025-06-15T07:56:45Z</time>
      </trkpt>
      <trkpt lat="45.11738" lon="0.61665">
        <ele>214.6</ele>
        <time>2025-06-15T07:56:46Z</time>
      </trkpt>
      <trkpt lat="45.11734" lon="0.61659">
        <ele>214.4</ele>
        <time>2025-06-15T07:56:47Z</time>
      </trkpt>
      <trkpt lat="45.11731" lon="0.61654">
        <ele>214.4</ele>
        <time>2025-06-15T07:56:48Z</time>
      </trkpt>
      <trkpt lat="45.11727" lon="0.61648">
        <ele>214.4</ele>
        <time>2025-06-15T07:56:49Z</time>
      </trkpt>
      <trkpt lat="45.11723" lon="0.61643">
        <ele>214.4</ele>
        <time>2025-06-15T07:56:50Z</time>
      </trkpt>
      <trkpt lat="45.1172" lon="0.61639">
        <ele>214.4</ele>
        <time>2025-06-15T07:56:51Z</time>
      </trkpt>
      <trkpt lat="45.11717" lon="0.61634">
        <ele>214.4</ele>
        <time>2025-06-15T07:56:52Z</time>
      </trkpt>
      <trkpt lat="45.11713" lon="0.61631">
        <ele>214.4</ele>
        <time>2025-06-15T07:56:53Z</time>
      </trkpt>
      <trkpt lat="45.1171" lon="0.61627">
        <ele>214.6</ele>
        <time>2025-06-15T07:56:54Z</time>
      </trkpt>
      <trkpt lat="45.11707" lon="0.61623">
        <ele>214.4</ele>
        <time>2025-06-15T07:56:55Z</time>
      </trkpt>
      <trkpt lat="45.11704" lon="0.61619">
        <ele>214.4</ele>
        <time>2025-06-15T07:56:56Z</time>
      </trkpt>
      <trkpt lat="45.117" lon="0.61615">
        <ele>214.2</ele>
        <time>2025-06-15T07:56:57Z</time>
      </trkpt>
      <trkpt lat="45.11697" lon="0.61612">
        <ele>214.2</ele>
        <time>2025-06-15T07:56:58Z</time>
      </trkpt>
      <trkpt lat="45.11694" lon="0.61608">
        <ele>214</ele>
        <time>2025-06-15T07:56:59Z</time>
      </trkpt>
      <trkpt lat="45.1169" lon="0.61605">
        <ele>214</ele>
        <time>2025-06-15T07:57:00Z</time>
      </trkpt>
      <trkpt lat="45.11687" lon="0.61601">
        <ele>214</ele>
        <time>2025-06-15T07:57:01Z</time>
      </trkpt>
      <trkpt lat="45.11683" lon="0.61597">
        <ele>214</ele>
        <time>2025-06-15T07:57:02Z</time>
      </trkpt>
      <trkpt lat="45.11679" lon="0.61593">
        <ele>214</ele>
        <time>2025-06-15T07:57:03Z</time>
      </trkpt>
      <trkpt lat="45.11675" lon="0.61589">
        <ele>214</ele>
        <time>2025-06-15T07:57:04Z</time>
      </trkpt>
      <trkpt lat="45.1167" lon="0.61585">
        <ele>214</ele>
        <time>2025-06-15T07:57:05Z</time>
      </trkpt>
      <trkpt lat="45.11666" lon="0.61582">
        <ele>213.8</ele>
        <time>2025-06-15T07:57:06Z</time>
      </trkpt>
      <trkpt lat="45.11661" lon="0.61578">
        <ele>213.8</ele>
        <time>2025-06-15T07:57:07Z</time>
      </trkpt>
      <trkpt lat="45.11657" lon="0.61575">
        <ele>213.8</ele>
        <time>2025-06-15T07:57:08Z</time>
      </trkpt>
      <trkpt lat="45.11652" lon="0.61573">
        <ele>213.8</ele>
        <time>2025-06-15T07:57:09Z</time>
      </trkpt>
      <trkpt lat="45.11647" lon="0.6157">
        <ele>213.6</ele>
        <time>2025-06-15T07:57:10Z</time>
      </trkpt>
      <trkpt lat="45.11642" lon="0.61568">
        <ele>213.6</ele>
        <time>2025-06-15T07:57:11Z</time>
      </trkpt>
      <trkpt lat="45.11637" lon="0.61566">
        <ele>213.6</ele>
        <time>2025-06-15T07:57:12Z</time>
      </trkpt>
      <trkpt lat="45.11632" lon="0.61564">
        <ele>213.6</ele>
        <time>2025-06-15T07:57:13Z</time>
      </trkpt>
      <trkpt lat="45.11628" lon="0.61563">
        <ele>213.6</ele>
        <time>2025-06-15T07:57:14Z</time>
      </trkpt>
      <trkpt lat="45.11623" lon="0.61562">
        <ele>213.6</ele>
        <time>2025-06-15T07:57:15Z</time>
      </trkpt>
      <trkpt lat="45.11618" lon="0.61561">
        <ele>213.6</ele>
        <time>2025-06-15T07:57:16Z</time>
      </trkpt>
      <trkpt lat="45.11612" lon="0.6156">
        <ele>213.6</ele>
        <time>2025-06-15T07:57:17Z</time>
      </trkpt>
      <trkpt lat="45.11607" lon="0.61559">
        <ele>213.6</ele>
        <time>2025-06-15T07:57:18Z</time>
      </trkpt>
      <trkpt lat="45.11602" lon="0.61559">
        <ele>213.6</ele>
        <time>2025-06-15T07:57:19Z</time>
      </trkpt>
      <trkpt lat="45.11596" lon="0.61558">
        <ele>213.6</ele>
        <time>2025-06-15T07:57:20Z</time>
      </trkpt>
      <trkpt lat="45.11591" lon="0.61557">
        <ele>213.6</ele>
        <time>2025-06-15T07:57:21Z</time>
      </trkpt>
      <trkpt lat="45.11585" lon="0.61556">
        <ele>213.4</ele>
        <time>2025-06-15T07:57:22Z</time>
      </trkpt>
      <trkpt lat="45.1158" lon="0.61555">
        <ele>213.4</ele>
        <time>2025-06-15T07:57:23Z</time>
      </trkpt>
      <trkpt lat="45.11574" lon="0.61555">
        <ele>213.2</ele>
        <time>2025-06-15T07:57:24Z</time>
      </trkpt>
      <trkpt lat="45.11569" lon="0.61553">
        <ele>213.2</ele>
        <time>2025-06-15T07:57:25Z</time>
      </trkpt>
      <trkpt lat="45.11563" lon="0.61552">
        <ele>213</ele>
        <time>2025-06-15T07:57:26Z</time>
      </trkpt>
      <trkpt lat="45.11557" lon="0.61551">
        <ele>212.8</ele>
        <time>2025-06-15T07:57:27Z</time>
      </trkpt>
      <trkpt lat="45.11551" lon="0.6155">
        <ele>212.8</ele>
        <time>2025-06-15T07:57:28Z</time>
      </trkpt>
      <trkpt lat="45.11546" lon="0.61549">
        <ele>212.6</ele>
        <time>2025-06-15T07:57:29Z</time>
      </trkpt>
      <trkpt lat="45.1154" lon="0.61548">
        <ele>212.4</ele>
        <time>2025-06-15T07:57:30Z</time>
      </trkpt>
      <trkpt lat="45.11534" lon="0.61547">
        <ele>212.2</ele>
        <time>2025-06-15T07:57:31Z</time>
      </trkpt>
      <trkpt lat="45.11529" lon="0.61546">
        <ele>212</ele>
        <time>2025-06-15T07:57:32Z</time>
      </trkpt>
      <trkpt lat="45.11523" lon="0.61545">
        <ele>211.6</ele>
        <time>2025-06-15T07:57:33Z</time>
      </trkpt>
      <trkpt lat="45.11519" lon="0.61544">
        <ele>211.4</ele>
        <time>2025-06-15T07:57:34Z</time>
      </trkpt>
      <trkpt lat="45.11515" lon="0.61544">
        <ele>211.2</ele>
        <time>2025-06-15T07:57:35Z</time>
      </trkpt>
      <trkpt lat="45.11512" lon="0.61541">
        <ele>211</ele>
        <time>2025-06-15T07:57:36Z</time>
      </trkpt>
      <trkpt lat="45.11509" lon="0.61537">
        <ele>210.8</ele>
        <time>2025-06-15T07:57:37Z</time>
      </trkpt>
      <trkpt lat="45.11507" lon="0.61532">
        <ele>210.6</ele>
        <time>2025-06-15T07:57:38Z</time>
      </trkpt>
      <trkpt lat="45.11504" lon="0.61526">
        <ele>210.6</ele>
        <time>2025-06-15T07:57:39Z</time>
      </trkpt>
      <trkpt lat="45.11502" lon="0.6152">
        <ele>210.4</ele>
        <time>2025-06-15T07:57:40Z</time>
      </trkpt>
      <trkpt lat="45.115" lon="0.61512">
        <ele>210</ele>
        <time>2025-06-15T07:57:41Z</time>
      </trkpt>
      <trkpt lat="45.11497" lon="0.61505">
        <ele>209.8</ele>
        <time>2025-06-15T07:57:42Z</time>
      </trkpt>
      <trkpt lat="45.11495" lon="0.61497">
        <ele>209.6</ele>
        <time>2025-06-15T07:57:43Z</time>
      </trkpt>
      <trkpt lat="45.11492" lon="0.6149">
        <ele>209.4</ele>
        <time>2025-06-15T07:57:44Z</time>
      </trkpt>
      <trkpt lat="45.11489" lon="0.61482">
        <ele>209.2</ele>
        <time>2025-06-15T07:57:45Z</time>
      </trkpt>
      <trkpt lat="45.11487" lon="0.61475">
        <ele>209</ele>
        <time>2025-06-15T07:57:46Z</time>
      </trkpt>
      <trkpt lat="45.11484" lon="0.61467">
        <ele>208.8</ele>
        <time>2025-06-15T07:57:47Z</time>
      </trkpt>
      <trkpt lat="45.11482" lon="0.61459">
        <ele>208.6</ele>
        <time>2025-06-15T07:57:48Z</time>
      </trkpt>
      <trkpt lat="45.11479" lon="0.61451">
        <ele>208.4</ele>
        <time>2025-06-15T07:57:49Z</time>
      </trkpt>
      <trkpt lat="45.11476" lon="0.61444">
        <ele>208.4</ele>
        <time>2025-06-15T07:57:50Z</time>
      </trkpt>
      <trkpt lat="45.11474" lon="0.61437">
        <ele>208.2</ele>
        <time>2025-06-15T07:57:51Z</time>
      </trkpt>
      <trkpt lat="45.11471" lon="0.61429">
        <ele>208.2</ele>
        <time>2025-06-15T07:57:52Z</time>
      </trkpt>
      <trkpt lat="45.11469" lon="0.61422">
        <ele>208.2</ele>
        <time>2025-06-15T07:57:53Z</time>
      </trkpt>
      <trkpt lat="45.11466" lon="0.61415">
        <ele>208.2</ele>
        <time>2025-06-15T07:57:54Z</time>
      </trkpt>
      <trkpt lat="45.11464" lon="0.61408">
        <ele>208.4</ele>
        <time>2025-06-15T07:57:55Z</time>
      </trkpt>
      <trkpt lat="45.11461" lon="0.614">
        <ele>208.4</ele>
        <time>2025-06-15T07:57:56Z</time>
      </trkpt>
      <trkpt lat="45.11459" lon="0.61394">
        <ele>208.4</ele>
        <time>2025-06-15T07:57:57Z</time>
      </trkpt>
      <trkpt lat="45.11456" lon="0.61387">
        <ele>208.6</ele>
        <time>2025-06-15T07:57:58Z</time>
      </trkpt>
      <trkpt lat="45.11454" lon="0.6138">
        <ele>208.6</ele>
        <time>2025-06-15T07:57:59Z</time>
      </trkpt>
      <trkpt lat="45.11452" lon="0.61373">
        <ele>208.6</ele>
        <time>2025-06-15T07:58:00Z</time>
      </trkpt>
      <trkpt lat="45.11449" lon="0.61366">
        <ele>208.6</ele>
        <time>2025-06-15T07:58:01Z</time>
      </trkpt>
      <trkpt lat="45.11446" lon="0.6136">
        <ele>208.6</ele>
        <time>2025-06-15T07:58:02Z</time>
      </trkpt>
      <trkpt lat="45.11444" lon="0.61353">
        <ele>208.6</ele>
        <time>2025-06-15T07:58:03Z</time>
      </trkpt>
      <trkpt lat="45.11442" lon="0.61346">
        <ele>208.6</ele>
        <time>2025-06-15T07:58:04Z</time>
      </trkpt>
      <trkpt lat="45.11439" lon="0.6134">
        <ele>208.6</ele>
        <time>2025-06-15T07:58:05Z</time>
      </trkpt>
      <trkpt lat="45.11437" lon="0.61333">
        <ele>208.6</ele>
        <time>2025-06-15T07:58:06Z</time>
      </trkpt>
      <trkpt lat="45.11435" lon="0.61325">
        <ele>208.6</ele>
        <time>2025-06-15T07:58:07Z</time>
      </trkpt>
      <trkpt lat="45.11432" lon="0.61318">
        <ele>208.6</ele>
        <time>2025-06-15T07:58:08Z</time>
      </trkpt>
      <trkpt lat="45.11429" lon="0.6131">
        <ele>208.6</ele>
        <time>2025-06-15T07:58:09Z</time>
      </trkpt>
      <trkpt lat="45.11427" lon="0.61303">
        <ele>208.6</ele>
        <time>2025-06-15T07:58:10Z</time>
      </trkpt>
      <trkpt lat="45.11424" lon="0.61295">
        <ele>208.6</ele>
        <time>2025-06-15T07:58:11Z</time>
      </trkpt>
      <trkpt lat="45.11422" lon="0.61288">
        <ele>208.6</ele>
        <time>2025-06-15T07:58:12Z</time>
      </trkpt>
      <trkpt lat="45.11419" lon="0.61281">
        <ele>208.6</ele>
        <time>2025-06-15T07:58:13Z</time>
      </trkpt>
      <trkpt lat="45.11417" lon="0.61274">
        <ele>208.6</ele>
        <time>2025-06-15T07:58:14Z</time>
      </trkpt>
      <trkpt lat="45.11414" lon="0.61267">
        <ele>208.4</ele>
        <time>2025-06-15T07:58:15Z</time>
      </trkpt>
      <trkpt lat="45.11412" lon="0.6126">
        <ele>208.4</ele>
        <time>2025-06-15T07:58:16Z</time>
      </trkpt>
      <trkpt lat="45.11409" lon="0.61254">
        <ele>208.4</ele>
        <time>2025-06-15T07:58:17Z</time>
      </trkpt>
      <trkpt lat="45.11406" lon="0.61247">
        <ele>208.4</ele>
        <time>2025-06-15T07:58:18Z</time>
      </trkpt>
      <trkpt lat="45.11404" lon="0.61241">
        <ele>208.4</ele>
        <time>2025-06-15T07:58:19Z</time>
      </trkpt>
      <trkpt lat="45.11402" lon="0.61233">
        <ele>208.4</ele>
        <time>2025-06-15T07:58:20Z</time>
      </trkpt>
      <trkpt lat="45.11399" lon="0.61226">
        <ele>208.4</ele>
        <time>2025-06-15T07:58:21Z</time>
      </trkpt>
      <trkpt lat="45.11396" lon="0.61218">
        <ele>208.4</ele>
        <time>2025-06-15T07:58:22Z</time>
      </trkpt>
      <trkpt lat="45.11394" lon="0.61211">
        <ele>208.4</ele>
        <time>2025-06-15T07:58:23Z</time>
      </trkpt>
      <trkpt lat="45.11391" lon="0.61204">
        <ele>208.4</ele>
        <time>2025-06-15T07:58:24Z</time>
      </trkpt>
      <trkpt lat="45.11388" lon="0.61197">
        <ele>208.4</ele>
        <time>2025-06-15T07:58:25Z</time>
      </trkpt>
      <trkpt lat="45.11386" lon="0.61189">
        <ele>208.4</ele>
        <time>2025-06-15T07:58:26Z</time>
      </trkpt>
      <trkpt lat="45.11383" lon="0.61181">
        <ele>208.4</ele>
        <time>2025-06-15T07:58:27Z</time>
      </trkpt>
      <trkpt lat="45.11381" lon="0.61173">
        <ele>208.2</ele>
        <time>2025-06-15T07:58:28Z</time>
      </trkpt>
      <trkpt lat="45.11378" lon="0.61166">
        <ele>208.2</ele>
        <time>2025-06-15T07:58:29Z</time>
      </trkpt>
      <trkpt lat="45.11375" lon="0.61158">
        <ele>208.2</ele>
        <time>2025-06-15T07:58:30Z</time>
      </trkpt>
      <trkpt lat="45.11372" lon="0.61151">
        <ele>208</ele>
        <time>2025-06-15T07:58:31Z</time>
      </trkpt>
      <trkpt lat="45.11369" lon="0.61143">
        <ele>208</ele>
        <time>2025-06-15T07:58:32Z</time>
      </trkpt>
      <trkpt lat="45.11367" lon="0.61136">
        <ele>207.8</ele>
        <time>2025-06-15T07:58:33Z</time>
      </trkpt>
      <trkpt lat="45.11364" lon="0.61128">
        <ele>207.8</ele>
        <time>2025-06-15T07:58:34Z</time>
      </trkpt>
      <trkpt lat="45.11362" lon="0.61121">
        <ele>207.6</ele>
        <time>2025-06-15T07:58:35Z</time>
      </trkpt>
      <trkpt lat="45.11359" lon="0.61114">
        <ele>207.6</ele>
        <time>2025-06-15T07:58:36Z</time>
      </trkpt>
      <trkpt lat="45.11357" lon="0.61107">
        <ele>207.6</ele>
        <time>2025-06-15T07:58:37Z</time>
      </trkpt>
      <trkpt lat="45.11354" lon="0.611">
        <ele>207.8</ele>
        <time>2025-06-15T07:58:38Z</time>
      </trkpt>
      <trkpt lat="45.11351" lon="0.61093">
        <ele>207.8</ele>
        <time>2025-06-15T07:58:39Z</time>
      </trkpt>
      <trkpt lat="45.11349" lon="0.61086">
        <ele>207.8</ele>
        <time>2025-06-15T07:58:40Z</time>
      </trkpt>
      <trkpt lat="45.11346" lon="0.61079">
        <ele>207.8</ele>
        <time>2025-06-15T07:58:41Z</time>
      </trkpt>
      <trkpt lat="45.11343" lon="0.61072">
        <ele>207.8</ele>
        <time>2025-06-15T07:58:42Z</time>
      </trkpt>
      <trkpt lat="45.11342" lon="0.61066">
        <ele>207.8</ele>
        <time>2025-06-15T07:58:43Z</time>
      </trkpt>
      <trkpt lat="45.11343" lon="0.6106">
        <ele>207.8</ele>
        <time>2025-06-15T07:58:44Z</time>
      </trkpt>
      <trkpt lat="45.11346" lon="0.61056">
        <ele>207.8</ele>
        <time>2025-06-15T07:58:45Z</time>
      </trkpt>
      <trkpt lat="45.11351" lon="0.61054">
        <ele>207.6</ele>
        <time>2025-06-15T07:58:46Z</time>
      </trkpt>
      <trkpt lat="45.11356" lon="0.61053">
        <ele>207.6</ele>
        <time>2025-06-15T07:58:47Z</time>
      </trkpt>
      <trkpt lat="45.11362" lon="0.61053">
        <ele>207.4</ele>
        <time>2025-06-15T07:58:48Z</time>
      </trkpt>
      <trkpt lat="45.11367" lon="0.61052">
        <ele>207.4</ele>
        <time>2025-06-15T07:58:49Z</time>
      </trkpt>
      <trkpt lat="45.11374" lon="0.61052">
        <ele>207.2</ele>
        <time>2025-06-15T07:58:50Z</time>
      </trkpt>
      <trkpt lat="45.1138" lon="0.61052">
        <ele>207</ele>
        <time>2025-06-15T07:58:51Z</time>
      </trkpt>
      <trkpt lat="45.11386" lon="0.61052">
        <ele>206.8</ele>
        <time>2025-06-15T07:58:52Z</time>
      </trkpt>
      <trkpt lat="45.11392" lon="0.61052">
        <ele>206.6</ele>
        <time>2025-06-15T07:58:53Z</time>
      </trkpt>
      <trkpt lat="45.11399" lon="0.61052">
        <ele>206.4</ele>
        <time>2025-06-15T07:58:54Z</time>
      </trkpt>
      <trkpt lat="45.11406" lon="0.61052">
        <ele>206.2</ele>
        <time>2025-06-15T07:58:55Z</time>
      </trkpt>
      <trkpt lat="45.11413" lon="0.61052">
        <ele>206</ele>
        <time>2025-06-15T07:58:56Z</time>
      </trkpt>
      <trkpt lat="45.1142" lon="0.61052">
        <ele>205.6</ele>
        <time>2025-06-15T07:58:57Z</time>
      </trkpt>
      <trkpt lat="45.11428" lon="0.61052">
        <ele>205.2</ele>
        <time>2025-06-15T07:58:58Z</time>
      </trkpt>
      <trkpt lat="45.11435" lon="0.61051">
        <ele>204.8</ele>
        <time>2025-06-15T07:58:59Z</time>
      </trkpt>
      <trkpt lat="45.11443" lon="0.61051">
        <ele>204.4</ele>
        <time>2025-06-15T07:59:00Z</time>
      </trkpt>
      <trkpt lat="45.11451" lon="0.6105">
        <ele>204</ele>
        <time>2025-06-15T07:59:01Z</time>
      </trkpt>
      <trkpt lat="45.11459" lon="0.6105">
        <ele>203.6</ele>
        <time>2025-06-15T07:59:02Z</time>
      </trkpt>
      <trkpt lat="45.11467" lon="0.61051">
        <ele>203</ele>
        <time>2025-06-15T07:59:03Z</time>
      </trkpt>
      <trkpt lat="45.11476" lon="0.61052">
        <ele>202.4</ele>
        <time>2025-06-15T07:59:04Z</time>
      </trkpt>
      <trkpt lat="45.11485" lon="0.61053">
        <ele>201.8</ele>
        <time>2025-06-15T07:59:05Z</time>
      </trkpt>
      <trkpt lat="45.11494" lon="0.61052">
        <ele>200.8</ele>
        <time>2025-06-15T07:59:06Z</time>
      </trkpt>
      <trkpt lat="45.11503" lon="0.61051">
        <ele>200</ele>
        <time>2025-06-15T07:59:07Z</time>
      </trkpt>
      <trkpt lat="45.11513" lon="0.61048">
        <ele>199.2</ele>
        <time>2025-06-15T07:59:08Z</time>
      </trkpt>
      <trkpt lat="45.11522" lon="0.61045">
        <ele>198.6</ele>
        <time>2025-06-15T07:59:09Z</time>
      </trkpt>
      <trkpt lat="45.11531" lon="0.61043">
        <ele>198.2</ele>
        <time>2025-06-15T07:59:10Z</time>
      </trkpt>
      <trkpt lat="45.11539" lon="0.61042">
        <ele>198</ele>
        <time>2025-06-15T07:59:11Z</time>
      </trkpt>
      <trkpt lat="45.11548" lon="0.61041">
        <ele>198</ele>
        <time>2025-06-15T07:59:12Z</time>
      </trkpt>
      <trkpt lat="45.11556" lon="0.61042">
        <ele>198.2</ele>
        <time>2025-06-15T07:59:13Z</time>
      </trkpt>
      <trkpt lat="45.11564" lon="0.61042">
        <ele>198.4</ele>
        <time>2025-06-15T07:59:14Z</time>
      </trkpt>
      <trkpt lat="45.11571" lon="0.61042">
        <ele>198.6</ele>
        <time>2025-06-15T07:59:15Z</time>
      </trkpt>
      <trkpt lat="45.11579" lon="0.61041">
        <ele>198.8</ele>
        <time>2025-06-15T07:59:16Z</time>
      </trkpt>
      <trkpt lat="45.11587" lon="0.61039">
        <ele>199</ele>
        <time>2025-06-15T07:59:17Z</time>
      </trkpt>
      <trkpt lat="45.11594" lon="0.61037">
        <ele>199.2</ele>
        <time>2025-06-15T07:59:18Z</time>
      </trkpt>
      <trkpt lat="45.116" lon="0.61036">
        <ele>199.2</ele>
        <time>2025-06-15T07:59:19Z</time>
      </trkpt>
      <trkpt lat="45.11607" lon="0.61034">
        <ele>199.4</ele>
        <time>2025-06-15T07:59:20Z</time>
      </trkpt>
      <trkpt lat="45.11613" lon="0.61033">
        <ele>199.4</ele>
        <time>2025-06-15T07:59:21Z</time>
      </trkpt>
      <trkpt lat="45.1162" lon="0.61031">
        <ele>199.6</ele>
        <time>2025-06-15T07:59:22Z</time>
      </trkpt>
      <trkpt lat="45.11626" lon="0.6103">
        <ele>200</ele>
        <time>2025-06-15T07:59:23Z</time>
      </trkpt>
      <trkpt lat="45.11632" lon="0.61029">
        <ele>200.2</ele>
        <time>2025-06-15T07:59:24Z</time>
      </trkpt>
      <trkpt lat="45.11638" lon="0.61028">
        <ele>200.4</ele>
        <time>2025-06-15T07:59:25Z</time>
      </trkpt>
      <trkpt lat="45.11645" lon="0.61027">
        <ele>200.6</ele>
        <time>2025-06-15T07:59:26Z</time>
      </trkpt>
      <trkpt lat="45.11652" lon="0.61025">
        <ele>200.8</ele>
        <time>2025-06-15T07:59:27Z</time>
      </trkpt>
      <trkpt lat="45.11658" lon="0.61024">
        <ele>200.8</ele>
        <time>2025-06-15T07:59:28Z</time>
      </trkpt>
      <trkpt lat="45.11664" lon="0.61022">
        <ele>201</ele>
        <time>2025-06-15T07:59:29Z</time>
      </trkpt>
      <trkpt lat="45.11671" lon="0.6102">
        <ele>201</ele>
        <time>2025-06-15T07:59:30Z</time>
      </trkpt>
      <trkpt lat="45.11678" lon="0.61018">
        <ele>201</ele>
        <time>2025-06-15T07:59:31Z</time>
      </trkpt>
      <trkpt lat="45.11685" lon="0.61016">
        <ele>201</ele>
        <time>2025-06-15T07:59:32Z</time>
      </trkpt>
      <trkpt lat="45.11691" lon="0.61013">
        <ele>201</ele>
        <time>2025-06-15T07:59:33Z</time>
      </trkpt>
      <trkpt lat="45.11698" lon="0.6101">
        <ele>201.2</ele>
        <time>2025-06-15T07:59:34Z</time>
      </trkpt>
      <trkpt lat="45.11705" lon="0.61007">
        <ele>201.2</ele>
        <time>2025-06-15T07:59:35Z</time>
      </trkpt>
      <trkpt lat="45.11712" lon="0.61005">
        <ele>201</ele>
        <time>2025-06-15T07:59:36Z</time>
      </trkpt>
      <trkpt lat="45.11719" lon="0.61003">
        <ele>201</ele>
        <time>2025-06-15T07:59:37Z</time>
      </trkpt>
      <trkpt lat="45.11726" lon="0.61002">
        <ele>201</ele>
        <time>2025-06-15T07:59:38Z</time>
      </trkpt>
      <trkpt lat="45.11734" lon="0.61001">
        <ele>201</ele>
        <time>2025-06-15T07:59:39Z</time>
      </trkpt>
      <trkpt lat="45.11741" lon="0.61001">
        <ele>201</ele>
        <time>2025-06-15T07:59:40Z</time>
      </trkpt>
      <trkpt lat="45.11748" lon="0.61001">
        <ele>201</ele>
        <time>2025-06-15T07:59:41Z</time>
      </trkpt>
      <trkpt lat="45.11755" lon="0.61001">
        <ele>200.8</ele>
        <time>2025-06-15T07:59:42Z</time>
      </trkpt>
      <trkpt lat="45.11763" lon="0.61001">
        <ele>200.8</ele>
        <time>2025-06-15T07:59:43Z</time>
      </trkpt>
      <trkpt lat="45.1177" lon="0.61001">
        <ele>200.8</ele>
        <time>2025-06-15T07:59:44Z</time>
      </trkpt>
      <trkpt lat="45.11778" lon="0.61002">
        <ele>200.8</ele>
        <time>2025-06-15T07:59:45Z</time>
      </trkpt>
      <trkpt lat="45.11785" lon="0.61003">
        <ele>200.6</ele>
        <time>2025-06-15T07:59:46Z</time>
      </trkpt>
      <trkpt lat="45.11793" lon="0.61005">
        <ele>200.6</ele>
        <time>2025-06-15T07:59:47Z</time>
      </trkpt>
      <trkpt lat="45.118" lon="0.61007">
        <ele>200.6</ele>
        <time>2025-06-15T07:59:48Z</time>
      </trkpt>
      <trkpt lat="45.11807" lon="0.61008">
        <ele>200.4</ele>
        <time>2025-06-15T07:59:49Z</time>
      </trkpt>
      <trkpt lat="45.11814" lon="0.61009">
        <ele>200.4</ele>
        <time>2025-06-15T07:59:50Z</time>
      </trkpt>
      <trkpt lat="45.11822" lon="0.6101">
        <ele>200.2</ele>
        <time>2025-06-15T07:59:51Z</time>
      </trkpt>
      <trkpt lat="45.11829" lon="0.61012">
        <ele>200.2</ele>
        <time>2025-06-15T07:59:52Z</time>
      </trkpt>
      <trkpt lat="45.11836" lon="0.61013">
        <ele>200</ele>
        <time>2025-06-15T07:59:53Z</time>
      </trkpt>
      <trkpt lat="45.11844" lon="0.61014">
        <ele>200</ele>
        <time>2025-06-15T07:59:54Z</time>
      </trkpt>
      <trkpt lat="45.1185" lon="0.61015">
        <ele>200</ele>
        <time>2025-06-15T07:59:55Z</time>
      </trkpt>
      <trkpt lat="45.11858" lon="0.61016">
        <ele>200</ele>
        <time>2025-06-15T07:59:56Z</time>
      </trkpt>
      <trkpt lat="45.11865" lon="0.61016">
        <ele>200</ele>
        <time>2025-06-15T07:59:57Z</time>
      </trkpt>
      <trkpt lat="45.11872" lon="0.61016">
        <ele>200</ele>
        <time>2025-06-15T07:59:58Z</time>
      </trkpt>
      <trkpt lat="45.1188" lon="0.61016">
        <ele>199.8</ele>
        <time>2025-06-15T07:59:59Z</time>
      </trkpt>
      <trkpt lat="45.11888" lon="0.61016">
        <ele>199.8</ele>
        <time>2025-06-15T08:00:00Z</time>
      </trkpt>
      <trkpt lat="45.11895" lon="0.61017">
        <ele>199.6</ele>
        <time>2025-06-15T08:00:01Z</time>
      </trkpt>
      <trkpt lat="45.11902" lon="0.61017">
        <ele>199.2</ele>
        <time>2025-06-15T08:00:02Z</time>
      </trkpt>
      <trkpt lat="45.1191" lon="0.61017">
        <ele>199</ele>
        <time>2025-06-15T08:00:03Z</time>
      </trkpt>
      <trkpt lat="45.11917" lon="0.61018">
        <ele>198.6</ele>
        <time>2025-06-15T08:00:04Z</time>
      </trkpt>
      <trkpt lat="45.11923" lon="0.61019">
        <ele>198.4</ele>
        <time>2025-06-15T08:00:05Z</time>
      </trkpt>
      <trkpt lat="45.1193" lon="0.61018">
        <ele>198.4</ele>
        <time>2025-06-15T08:00:06Z</time>
      </trkpt>
      <trkpt lat="45.11937" lon="0.61016">
        <ele>198.2</ele>
        <time>2025-06-15T08:00:07Z</time>
      </trkpt>
      <trkpt lat="45.11944" lon="0.61014">
        <ele>198.2</ele>
        <time>2025-06-15T08:00:08Z</time>
      </trkpt>
      <trkpt lat="45.1195" lon="0.61012">
        <ele>198.2</ele>
        <time>2025-06-15T08:00:09Z</time>
      </trkpt>
      <trkpt lat="45.11957" lon="0.61011">
        <ele>198.2</ele>
        <time>2025-06-15T08:00:10Z</time>
      </trkpt>
      <trkpt lat="45.11963" lon="0.61012">
        <ele>198</ele>
        <time>2025-06-15T08:00:11Z</time>
      </trkpt>
      <trkpt lat="45.11969" lon="0.61013">
        <ele>198</ele>
        <time>2025-06-15T08:00:12Z</time>
      </trkpt>
      <trkpt lat="45.11976" lon="0.61015">
        <ele>197.8</ele>
        <time>2025-06-15T08:00:13Z</time>
      </trkpt>
      <trkpt lat="45.11983" lon="0.61018">
        <ele>198</ele>
        <time>2025-06-15T08:00:14Z</time>
      </trkpt>
      <trkpt lat="45.11988" lon="0.6102">
        <ele>197.8</ele>
        <time>2025-06-15T08:00:15Z</time>
      </trkpt>
      <trkpt lat="45.11993" lon="0.61022">
        <ele>197.8</ele>
        <time>2025-06-15T08:00:16Z</time>
      </trkpt>
      <trkpt lat="45.11998" lon="0.61023">
        <ele>197.6</ele>
        <time>2025-06-15T08:00:17Z</time>
      </trkpt>
      <trkpt lat="45.12003" lon="0.61023">
        <ele>197.6</ele>
        <time>2025-06-15T08:00:18Z</time>
      </trkpt>
      <trkpt lat="45.12008" lon="0.61024">
        <ele>197.6</ele>
        <time>2025-06-15T08:00:19Z</time>
      </trkpt>
      <trkpt lat="45.12013" lon="0.61024">
        <ele>197.6</ele>
        <time>2025-06-15T08:00:20Z</time>
      </trkpt>
      <trkpt lat="45.12017" lon="0.61025">
        <ele>197.4</ele>
        <time>2025-06-15T08:00:21Z</time>
      </trkpt>
      <trkpt lat="45.12023" lon="0.61025">
        <ele>197.4</ele>
        <time>2025-06-15T08:00:22Z</time>
      </trkpt>
      <trkpt lat="45.12028" lon="0.61025">
        <ele>197.2</ele>
        <time>2025-06-15T08:00:23Z</time>
      </trkpt>
      <trkpt lat="45.12033" lon="0.61025">
        <ele>197</ele>
        <time>2025-06-15T08:00:24Z</time>
      </trkpt>
      <trkpt lat="45.12039" lon="0.61025">
        <ele>196.8</ele>
        <time>2025-06-15T08:00:25Z</time>
      </trkpt>
      <trkpt lat="45.12045" lon="0.61025">
        <ele>196.8</ele>
        <time>2025-06-15T08:00:26Z</time>
      </trkpt>
      <trkpt lat="45.12051" lon="0.61025">
        <ele>196.6</ele>
        <time>2025-06-15T08:00:27Z</time>
      </trkpt>
      <trkpt lat="45.12058" lon="0.61025">
        <ele>196.2</ele>
        <time>2025-06-15T08:00:28Z</time>
      </trkpt>
      <trkpt lat="45.12064" lon="0.61025">
        <ele>196.2</ele>
        <time>2025-06-15T08:00:29Z</time>
      </trkpt>
      <trkpt lat="45.12071" lon="0.61025">
        <ele>196</ele>
        <time>2025-06-15T08:00:30Z</time>
      </trkpt>
      <trkpt lat="45.12077" lon="0.61026">
        <ele>195.8</ele>
        <time>2025-06-15T08:00:31Z</time>
      </trkpt>
      <trkpt lat="45.12083" lon="0.61027">
        <ele>195.6</ele>
        <time>2025-06-15T08:00:32Z</time>
      </trkpt>
      <trkpt lat="45.1209" lon="0.61027">
        <ele>195.4</ele>
        <time>2025-06-15T08:00:33Z</time>
      </trkpt>
      <trkpt lat="45.12096" lon="0.61027">
        <ele>195.2</ele>
        <time>2025-06-15T08:00:34Z</time>
      </trkpt>
      <trkpt lat="45.12102" lon="0.61027">
        <ele>195</ele>
        <time>2025-06-15T08:00:35Z</time>
      </trkpt>
      <trkpt lat="45.12109" lon="0.61027">
        <ele>195</ele>
        <time>2025-06-15T08:00:36Z</time>
      </trkpt>
      <trkpt lat="45.12116" lon="0.61028">
        <ele>194.8</ele>
        <time>2025-06-15T08:00:37Z</time>
      </trkpt>
      <trkpt lat="45.12123" lon="0.61028">
        <ele>194.6</ele>
        <time>2025-06-15T08:00:38Z</time>
      </trkpt>
      <trkpt lat="45.1213" lon="0.61029">
        <ele>194.4</ele>
        <time>2025-06-15T08:00:39Z</time>
      </trkpt>
      <trkpt lat="45.12136" lon="0.6103">
        <ele>194.4</ele>
        <time>2025-06-15T08:00:40Z</time>
      </trkpt>
      <trkpt lat="45.12144" lon="0.6103">
        <ele>194.2</ele>
        <time>2025-06-15T08:00:41Z</time>
      </trkpt>
      <trkpt lat="45.12151" lon="0.61031">
        <ele>193.8</ele>
        <time>2025-06-15T08:00:42Z</time>
      </trkpt>
      <trkpt lat="45.12159" lon="0.61031">
        <ele>193.6</ele>
        <time>2025-06-15T08:00:43Z</time>
      </trkpt>
      <trkpt lat="45.12168" lon="0.61031">
        <ele>193.4</ele>
        <time>2025-06-15T08:00:44Z</time>
      </trkpt>
      <trkpt lat="45.12176" lon="0.61031">
        <ele>193</ele>
        <time>2025-06-15T08:00:45Z</time>
      </trkpt>
      <trkpt lat="45.12184" lon="0.61031">
        <ele>192.4</ele>
        <time>2025-06-15T08:00:46Z</time>
      </trkpt>
      <trkpt lat="45.12193" lon="0.61031">
        <ele>192.2</ele>
        <time>2025-06-15T08:00:47Z</time>
      </trkpt>
      <trkpt lat="45.12202" lon="0.6103">
        <ele>191.8</ele>
        <time>2025-06-15T08:00:48Z</time>
      </trkpt>
      <trkpt lat="45.12209" lon="0.61031">
        <ele>191.6</ele>
        <time>2025-06-15T08:00:49Z</time>
      </trkpt>
      <trkpt lat="45.12218" lon="0.61032">
        <ele>191.4</ele>
        <time>2025-06-15T08:00:50Z</time>
      </trkpt>
      <trkpt lat="45.12226" lon="0.61032">
        <ele>191.2</ele>
        <time>2025-06-15T08:00:51Z</time>
      </trkpt>
      <trkpt lat="45.12234" lon="0.61033">
        <ele>190.8</ele>
        <time>2025-06-15T08:00:52Z</time>
      </trkpt>
      <trkpt lat="45.12242" lon="0.61033">
        <ele>190.6</ele>
        <time>2025-06-15T08:00:53Z</time>
      </trkpt>
      <trkpt lat="45.1225" lon="0.61032">
        <ele>190.2</ele>
        <time>2025-06-15T08:00:54Z</time>
      </trkpt>
      <trkpt lat="45.12259" lon="0.61033">
        <ele>190</ele>
        <time>2025-06-15T08:00:55Z</time>
      </trkpt>
      <trkpt lat="45.12267" lon="0.61034">
        <ele>189.6</ele>
        <time>2025-06-15T08:00:56Z</time>
      </trkpt>
      <trkpt lat="45.12275" lon="0.61034">
        <ele>189</ele>
        <time>2025-06-15T08:00:57Z</time>
      </trkpt>
      <trkpt lat="45.12283" lon="0.61034">
        <ele>188.6</ele>
        <time>2025-06-15T08:00:58Z</time>
      </trkpt>
      <trkpt lat="45.1229" lon="0.61034">
        <ele>188</ele>
        <time>2025-06-15T08:00:59Z</time>
      </trkpt>
      <trkpt lat="45.12295" lon="0.61034">
        <ele>187.6</ele>
        <time>2025-06-15T08:01:00Z</time>
      </trkpt>
      <trkpt lat="45.12303" lon="0.61035">
        <ele>187.2</ele>
        <time>2025-06-15T08:01:01Z</time>
      </trkpt>
      <trkpt lat="45.12311" lon="0.61035">
        <ele>186.8</ele>
        <time>2025-06-15T08:01:02Z</time>
      </trkpt>
      <trkpt lat="45.1232" lon="0.61034">
        <ele>186.4</ele>
        <time>2025-06-15T08:01:03Z</time>
      </trkpt>
      <trkpt lat="45.12328" lon="0.61033">
        <ele>185.8</ele>
        <time>2025-06-15T08:01:04Z</time>
      </trkpt>
      <trkpt lat="45.12337" lon="0.61031">
        <ele>185</ele>
        <time>2025-06-15T08:01:05Z</time>
      </trkpt>
      <trkpt lat="45.12346" lon="0.6103">
        <ele>184.2</ele>
        <time>2025-06-15T08:01:06Z</time>
      </trkpt>
      <trkpt lat="45.12355" lon="0.61027">
        <ele>183.6</ele>
        <time>2025-06-15T08:01:07Z</time>
      </trkpt>
      <trkpt lat="45.12365" lon="0.61025">
        <ele>182.8</ele>
        <time>2025-06-15T08:01:08Z</time>
      </trkpt>
      <trkpt lat="45.12375" lon="0.61022">
        <ele>181.8</ele>
        <time>2025-06-15T08:01:09Z</time>
      </trkpt>
      <trkpt lat="45.12384" lon="0.6102">
        <ele>180.6</ele>
        <time>2025-06-15T08:01:10Z</time>
      </trkpt>
      <trkpt lat="45.12394" lon="0.61018">
        <ele>179.8</ele>
        <time>2025-06-15T08:01:11Z</time>
      </trkpt>
      <trkpt lat="45.12403" lon="0.61015">
        <ele>179</ele>
        <time>2025-06-15T08:01:12Z</time>
      </trkpt>
      <trkpt lat="45.12411" lon="0.61013">
        <ele>178</ele>
        <time>2025-06-15T08:01:13Z</time>
      </trkpt>
      <trkpt lat="45.1242" lon="0.6101">
        <ele>177.4</ele>
        <time>2025-06-15T08:01:14Z</time>
      </trkpt>
      <trkpt lat="45.12428" lon="0.61007">
        <ele>176.4</ele>
        <time>2025-06-15T08:01:15Z</time>
      </trkpt>
      <trkpt lat="45.12435" lon="0.61004">
        <ele>175.8</ele>
        <time>2025-06-15T08:01:16Z</time>
      </trkpt>
      <trkpt lat="45.12443" lon="0.61">
        <ele>175.4</ele>
        <time>2025-06-15T08:01:17Z</time>
      </trkpt>
      <trkpt lat="45.12451" lon="0.60998">
        <ele>174.8</ele>
        <time>2025-06-15T08:01:18Z</time>
      </trkpt>
      <trkpt lat="45.12459" lon="0.60995">
        <ele>174.4</ele>
        <time>2025-06-15T08:01:19Z</time>
      </trkpt>
      <trkpt lat="45.12467" lon="0.60993">
        <ele>173.8</ele>
        <time>2025-06-15T08:01:20Z</time>
      </trkpt>
      <trkpt lat="45.12475" lon="0.6099">
        <ele>173</ele>
        <time>2025-06-15T08:01:21Z</time>
      </trkpt>
      <trkpt lat="45.12483" lon="0.60989">
        <ele>172.4</ele>
        <time>2025-06-15T08:01:22Z</time>
      </trkpt>
      <trkpt lat="45.12492" lon="0.60989">
        <ele>171.6</ele>
        <time>2025-06-15T08:01:23Z</time>
      </trkpt>
      <trkpt lat="45.12499" lon="0.6099">
        <ele>170.8</ele>
        <time>2025-06-15T08:01:24Z</time>
      </trkpt>
      <trkpt lat="45.12508" lon="0.6099">
        <ele>170.2</ele>
        <time>2025-06-15T08:01:25Z</time>
      </trkpt>
      <trkpt lat="45.12516" lon="0.60992">
        <ele>169.4</ele>
        <time>2025-06-15T08:01:26Z</time>
      </trkpt>
      <trkpt lat="45.12524" lon="0.60994">
        <ele>168.4</ele>
        <time>2025-06-15T08:01:27Z</time>
      </trkpt>
      <trkpt lat="45.12532" lon="0.60997">
        <ele>167.6</ele>
        <time>2025-06-15T08:01:28Z</time>
      </trkpt>
      <trkpt lat="45.1254" lon="0.60999">
        <ele>166.8</ele>
        <time>2025-06-15T08:01:29Z</time>
      </trkpt>
      <trkpt lat="45.12549" lon="0.61002">
        <ele>166</ele>
        <time>2025-06-15T08:01:30Z</time>
      </trkpt>
      <trkpt lat="45.12557" lon="0.61005">
        <ele>165.2</ele>
        <time>2025-06-15T08:01:31Z</time>
      </trkpt>
      <trkpt lat="45.12566" lon="0.61008">
        <ele>164.4</ele>
        <time>2025-06-15T08:01:32Z</time>
      </trkpt>
      <trkpt lat="45.12574" lon="0.61011">
        <ele>163.2</ele>
        <time>2025-06-15T08:01:33Z</time>
      </trkpt>
      <trkpt lat="45.12583" lon="0.61013">
        <ele>162.2</ele>
        <time>2025-06-15T08:01:34Z</time>
      </trkpt>
      <trkpt lat="45.12591" lon="0.61016">
        <ele>161</ele>
        <time>2025-06-15T08:01:35Z</time>
      </trkpt>
      <trkpt lat="45.126" lon="0.61018">
        <ele>160</ele>
        <time>2025-06-15T08:01:36Z</time>
      </trkpt>
      <trkpt lat="45.12607" lon="0.61018">
        <ele>158.8</ele>
        <time>2025-06-15T08:01:37Z</time>
      </trkpt>
      <trkpt lat="45.12616" lon="0.61018">
        <ele>157.4</ele>
        <time>2025-06-15T08:01:38Z</time>
      </trkpt>
      <trkpt lat="45.12623" lon="0.61019">
        <ele>156.2</ele>
        <time>2025-06-15T08:01:39Z</time>
      </trkpt>
      <trkpt lat="45.12632" lon="0.61019">
        <ele>154.8</ele>
        <time>2025-06-15T08:01:40Z</time>
      </trkpt>
      <trkpt lat="45.12641" lon="0.61021">
        <ele>153.8</ele>
        <time>2025-06-15T08:01:41Z</time>
      </trkpt>
      <trkpt lat="45.12649" lon="0.61024">
        <ele>152.6</ele>
        <time>2025-06-15T08:01:42Z</time>
      </trkpt>
      <trkpt lat="45.12657" lon="0.61027">
        <ele>151.4</ele>
        <time>2025-06-15T08:01:43Z</time>
      </trkpt>
      <trkpt lat="45.12665" lon="0.61031">
        <ele>149.8</ele>
        <time>2025-06-15T08:01:44Z</time>
      </trkpt>
      <trkpt lat="45.12672" lon="0.61035">
        <ele>148.4</ele>
        <time>2025-06-15T08:01:45Z</time>
      </trkpt>
      <trkpt lat="45.1268" lon="0.61039">
        <ele>147.2</ele>
        <time>2025-06-15T08:01:46Z</time>
      </trkpt>
      <trkpt lat="45.12687" lon="0.61042">
        <ele>145.6</ele>
        <time>2025-06-15T08:01:47Z</time>
      </trkpt>
      <trkpt lat="45.12694" lon="0.61045">
        <ele>144.4</ele>
        <time>2025-06-15T08:01:48Z</time>
      </trkpt>
      <trkpt lat="45.12703" lon="0.61047">
        <ele>142.6</ele>
        <time>2025-06-15T08:01:49Z</time>
      </trkpt>
      <trkpt lat="45.12712" lon="0.6105">
        <ele>141</ele>
        <time>2025-06-15T08:01:50Z</time>
      </trkpt>
      <trkpt lat="45.12721" lon="0.6105">
        <ele>139.2</ele>
        <time>2025-06-15T08:01:51Z</time>
      </trkpt>
      <trkpt lat="45.12731" lon="0.6105">
        <ele>137.6</ele>
        <time>2025-06-15T08:01:52Z</time>
      </trkpt>
      <trkpt lat="45.12742" lon="0.61048">
        <ele>136</ele>
        <time>2025-06-15T08:01:53Z</time>
      </trkpt>
      <trkpt lat="45.12752" lon="0.61047">
        <ele>134.8</ele>
        <time>2025-06-15T08:01:54Z</time>
      </trkpt>
      <trkpt lat="45.1276" lon="0.61045">
        <ele>132.8</ele>
        <time>2025-06-15T08:01:55Z</time>
      </trkpt>
      <trkpt lat="45.12768" lon="0.61044">
        <ele>131.8</ele>
        <time>2025-06-15T08:01:56Z</time>
      </trkpt>
      <trkpt lat="45.12774" lon="0.61043">
        <ele>130.6</ele>
        <time>2025-06-15T08:01:57Z</time>
      </trkpt>
      <trkpt lat="45.1278" lon="0.61042">
        <ele>129.8</ele>
        <time>2025-06-15T08:01:58Z</time>
      </trkpt>
      <trkpt lat="45.12786" lon="0.61043">
        <ele>129.2</ele>
        <time>2025-06-15T08:01:59Z</time>
      </trkpt>
      <trkpt lat="45.12791" lon="0.61044">
        <ele>128.6</ele>
        <time>2025-06-15T08:02:00Z</time>
      </trkpt>
      <trkpt lat="45.12799" lon="0.61046">
        <ele>127.8</ele>
        <time>2025-06-15T08:02:01Z</time>
      </trkpt>
      <trkpt lat="45.12806" lon="0.61048">
        <ele>127.4</ele>
        <time>2025-06-15T08:02:02Z</time>
      </trkpt>
      <trkpt lat="45.12814" lon="0.61048">
        <ele>126.6</ele>
        <time>2025-06-15T08:02:03Z</time>
      </trkpt>
      <trkpt lat="45.12819" lon="0.61047">
        <ele>126</ele>
        <time>2025-06-15T08:02:04Z</time>
      </trkpt>
      <trkpt lat="45.12822" lon="0.61046">
        <ele>125.4</ele>
        <time>2025-06-15T08:02:05Z</time>
      </trkpt>
      <trkpt lat="45.12824" lon="0.61043">
        <ele>124.8</ele>
        <time>2025-06-15T08:02:06Z</time>
      </trkpt>
      <trkpt lat="45.12825" lon="0.61041">
        <ele>124.4</ele>
        <time>2025-06-15T08:02:07Z</time>
      </trkpt>
      <trkpt lat="45.12825" lon="0.61038">
        <ele>124.2</ele>
        <time>2025-06-15T08:02:08Z</time>
      </trkpt>
      <trkpt lat="45.12825" lon="0.61036">
        <ele>124.2</ele>
        <time>2025-06-15T08:02:09Z</time>
      </trkpt>
      <trkpt lat="45.12825" lon="0.61034">
        <ele>124</ele>
        <time>2025-06-15T08:02:10Z</time>
      </trkpt>
      <trkpt lat="45.12826" lon="0.61031">
        <ele>124</ele>
        <time>2025-06-15T08:02:11Z</time>
      </trkpt>
      <trkpt lat="45.12826" lon="0.61028">
        <ele>124</ele>
        <time>2025-06-15T08:02:12Z</time>
      </trkpt>
      <trkpt lat="45.12827" lon="0.61025">
        <ele>124</ele>
        <time>2025-06-15T08:02:13Z</time>
      </trkpt>
      <trkpt lat="45.12828" lon="0.61022">
        <ele>124</ele>
        <time>2025-06-15T08:02:14Z</time>
      </trkpt>
      <trkpt lat="45.12828" lon="0.61018">
        <ele>124</ele>
        <time>2025-06-15T08:02:15Z</time>
      </trkpt>
      <trkpt lat="45.12829" lon="0.61014">
        <ele>124</ele>
        <time>2025-06-15T08:02:16Z</time>
      </trkpt>
      <trkpt lat="45.1283" lon="0.61009">
        <ele>124</ele>
        <time>2025-06-15T08:02:17Z</time>
      </trkpt>
      <trkpt lat="45.1283" lon="0.61005">
        <ele>124</ele>
        <time>2025-06-15T08:02:18Z</time>
      </trkpt>
      <trkpt lat="45.12831" lon="0.60999">
        <ele>124</ele>
        <time>2025-06-15T08:02:19Z</time>
      </trkpt>
      <trkpt lat="45.12831" lon="0.60995">
        <ele>124</ele>
        <time>2025-06-15T08:02:20Z</time>
      </trkpt>
      <trkpt lat="45.12831" lon="0.6099">
        <ele>124.2</ele>
        <time>2025-06-15T08:02:21Z</time>
      </trkpt>
      <trkpt lat="45.12831" lon="0.60986">
        <ele>124.4</ele>
        <time>2025-06-15T08:02:22Z</time>
      </trkpt>
      <trkpt lat="45.12831" lon="0.60982">
        <ele>124.6</ele>
        <time>2025-06-15T08:02:23Z</time>
      </trkpt>
      <trkpt lat="45.12831" lon="0.60978">
        <ele>124.8</ele>
        <time>2025-06-15T08:02:24Z</time>
      </trkpt>
      <trkpt lat="45.12831" lon="0.60974">
        <ele>125</ele>
        <time>2025-06-15T08:02:25Z</time>
      </trkpt>
      <trkpt lat="45.12832" lon="0.6097">
        <ele>125</ele>
        <time>2025-06-15T08:02:26Z</time>
      </trkpt>
      <trkpt lat="45.12832" lon="0.60966">
        <ele>125.2</ele>
        <time>2025-06-15T08:02:27Z</time>
      </trkpt>
      <trkpt lat="45.12833" lon="0.60963">
        <ele>125.4</ele>
        <time>2025-06-15T08:02:28Z</time>
      </trkpt>
      <trkpt lat="45.12833" lon="0.60959">
        <ele>125.8</ele>
        <time>2025-06-15T08:02:29Z</time>
      </trkpt>
      <trkpt lat="45.12832" lon="0.60956">
        <ele>126</ele>
        <time>2025-06-15T08:02:30Z</time>
      </trkpt>
      <trkpt lat="45.12831" lon="0.60953">
        <ele>126.2</ele>
        <time>2025-06-15T08:02:31Z</time>
      </trkpt>
      <trkpt lat="45.12829" lon="0.60951">
        <ele>126.4</ele>
        <time>2025-06-15T08:02:32Z</time>
      </trkpt>
      <trkpt lat="45.12828" lon="0.6095">
        <ele>126.6</ele>
        <time>2025-06-15T08:02:33Z</time>
      </trkpt>
      <trkpt lat="45.12826" lon="0.60948">
        <ele>127</ele>
        <time>2025-06-15T08:02:34Z</time>
      </trkpt>
      <trkpt lat="45.12825" lon="0.60947">
        <ele>127.2</ele>
        <time>2025-06-15T08:02:35Z</time>
      </trkpt>
      <trkpt lat="45.12823" lon="0.60945">
        <ele>127.4</ele>
        <time>2025-06-15T08:02:36Z</time>
      </trkpt>
      <trkpt lat="45.12822" lon="0.60944">
        <ele>127.6</ele>
        <time>2025-06-15T08:02:37Z</time>
      </trkpt>
      <trkpt lat="45.1282" lon="0.60943">
        <ele>127.8</ele>
        <time>2025-06-15T08:02:38Z</time>
      </trkpt>
      <trkpt lat="45.12818" lon="0.60942">
        <ele>128</ele>
        <time>2025-06-15T08:02:39Z</time>
      </trkpt>
      <trkpt lat="45.12817" lon="0.60941">
        <ele>128.4</ele>
        <time>2025-06-15T08:02:40Z</time>
      </trkpt>
      <trkpt lat="45.12815" lon="0.6094">
        <ele>128.6</ele>
        <time>2025-06-15T08:02:41Z</time>
      </trkpt>
      <trkpt lat="45.12813" lon="0.60939">
        <ele>128.8</ele>
        <time>2025-06-15T08:02:42Z</time>
      </trkpt>
      <trkpt lat="45.12811" lon="0.60938">
        <ele>128.8</ele>
        <time>2025-06-15T08:02:43Z</time>
      </trkpt>
      <trkpt lat="45.12809" lon="0.60936">
        <ele>128.8</ele>
        <time>2025-06-15T08:02:44Z</time>
      </trkpt>
      <trkpt lat="45.12806" lon="0.60935">
        <ele>128.8</ele>
        <time>2025-06-15T08:02:45Z</time>
      </trkpt>
      <trkpt lat="45.12804" lon="0.60934">
        <ele>128.8</ele>
        <time>2025-06-15T08:02:46Z</time>
      </trkpt>
      <trkpt lat="45.12801" lon="0.60933">
        <ele>128.8</ele>
        <time>2025-06-15T08:02:47Z</time>
      </trkpt>
      <trkpt lat="45.12798" lon="0.60931">
        <ele>128.6</ele>
        <time>2025-06-15T08:02:48Z</time>
      </trkpt>
      <trkpt lat="45.12795" lon="0.60929">
        <ele>128.6</ele>
        <time>2025-06-15T08:02:49Z</time>
      </trkpt>
      <trkpt lat="45.12793" lon="0.60928">
        <ele>128.8</ele>
        <time>2025-06-15T08:02:50Z</time>
      </trkpt>
      <trkpt lat="45.1279" lon="0.60926">
        <ele>128.8</ele>
        <time>2025-06-15T08:02:51Z</time>
      </trkpt>
      <trkpt lat="45.12787" lon="0.60924">
        <ele>128.8</ele>
        <time>2025-06-15T08:02:52Z</time>
      </trkpt>
      <trkpt lat="45.12784" lon="0.60921">
        <ele>128.8</ele>
        <time>2025-06-15T08:02:53Z</time>
      </trkpt>
      <trkpt lat="45.12782" lon="0.60919">
        <ele>129</ele>
        <time>2025-06-15T08:02:54Z</time>
      </trkpt>
      <trkpt lat="45.12779" lon="0.60917">
        <ele>129</ele>
        <time>2025-06-15T08:02:55Z</time>
      </trkpt>
      <trkpt lat="45.12777" lon="0.60915">
        <ele>129.2</ele>
        <time>2025-06-15T08:02:56Z</time>
      </trkpt>
      <trkpt lat="45.12775" lon="0.60913">
        <ele>129.4</ele>
        <time>2025-06-15T08:02:57Z</time>
      </trkpt>
      <trkpt lat="45.12773" lon="0.6091">
        <ele>129.4</ele>
        <time>2025-06-15T08:02:58Z</time>
      </trkpt>
      <trkpt lat="45.1277" lon="0.60908">
        <ele>129.6</ele>
        <time>2025-06-15T08:02:59Z</time>
      </trkpt>
      <trkpt lat="45.12768" lon="0.60906">
        <ele>129.6</ele>
        <time>2025-06-15T08:03:00Z</time>
      </trkpt>
      <trkpt lat="45.12765" lon="0.60903">
        <ele>129.8</ele>
        <time>2025-06-15T08:03:01Z</time>
      </trkpt>
      <trkpt lat="45.12763" lon="0.60902">
        <ele>130</ele>
        <time>2025-06-15T08:03:02Z</time>
      </trkpt>
      <trkpt lat="45.1276" lon="0.609">
        <ele>130</ele>
        <time>2025-06-15T08:03:03Z</time>
      </trkpt>
      <trkpt lat="45.12758" lon="0.60898">
        <ele>130.2</ele>
        <time>2025-06-15T08:03:04Z</time>
      </trkpt>
      <trkpt lat="45.12756" lon="0.60896">
        <ele>130.2</ele>
        <time>2025-06-15T08:03:05Z</time>
      </trkpt>
      <trkpt lat="45.12754" lon="0.60893">
        <ele>130.2</ele>
        <time>2025-06-15T08:03:06Z</time>
      </trkpt>
      <trkpt lat="45.12752" lon="0.6089">
        <ele>130.4</ele>
        <time>2025-06-15T08:03:07Z</time>
      </trkpt>
      <trkpt lat="45.1275" lon="0.60887">
        <ele>130.6</ele>
        <time>2025-06-15T08:03:08Z</time>
      </trkpt>
      <trkpt lat="45.12748" lon="0.60884">
        <ele>130.6</ele>
        <time>2025-06-15T08:03:09Z</time>
      </trkpt>
      <trkpt lat="45.12746" lon="0.60882">
        <ele>130.8</ele>
        <time>2025-06-15T08:03:10Z</time>
      </trkpt>
      <trkpt lat="45.12745" lon="0.60879">
        <ele>131</ele>
        <time>2025-06-15T08:03:11Z</time>
      </trkpt>
      <trkpt lat="45.12743" lon="0.60877">
        <ele>131</ele>
        <time>2025-06-15T08:03:12Z</time>
      </trkpt>
      <trkpt lat="45.12742" lon="0.60875">
        <ele>131.2</ele>
        <time>2025-06-15T08:03:13Z</time>
      </trkpt>
      <trkpt lat="45.12742" lon="0.60874">
        <ele>131.4</ele>
        <time>2025-06-15T08:03:14Z</time>
      </trkpt>
      <trkpt lat="45.1274" lon="0.60872">
        <ele>131.6</ele>
        <time>2025-06-15T08:03:15Z</time>
      </trkpt>
      <trkpt lat="45.12739" lon="0.60871">
        <ele>131.8</ele>
        <time>2025-06-15T08:03:16Z</time>
      </trkpt>
      <trkpt lat="45.12737" lon="0.6087">
        <ele>131.8</ele>
        <time>2025-06-15T08:03:17Z</time>
      </trkpt>
      <trkpt lat="45.12735" lon="0.60868">
        <ele>132</ele>
        <time>2025-06-15T08:03:18Z</time>
      </trkpt>
      <trkpt lat="45.12733" lon="0.60866">
        <ele>132.2</ele>
        <time>2025-06-15T08:03:19Z</time>
      </trkpt>
      <trkpt lat="45.12732" lon="0.60864">
        <ele>132.2</ele>
        <time>2025-06-15T08:03:20Z</time>
      </trkpt>
      <trkpt lat="45.1273" lon="0.60862">
        <ele>132.4</ele>
        <time>2025-06-15T08:03:21Z</time>
      </trkpt>
      <trkpt lat="45.12729" lon="0.60861">
        <ele>132.4</ele>
        <time>2025-06-15T08:03:22Z</time>
      </trkpt>
      <trkpt lat="45.12727" lon="0.60859">
        <ele>132.6</ele>
        <time>2025-06-15T08:03:23Z</time>
      </trkpt>
      <trkpt lat="45.12725" lon="0.60857">
        <ele>132.8</ele>
        <time>2025-06-15T08:03:24Z</time>
      </trkpt>
      <trkpt lat="45.12722" lon="0.60855">
        <ele>133</ele>
        <time>2025-06-15T08:03:25Z</time>
      </trkpt>
      <trkpt lat="45.1272" lon="0.60855">
        <ele>133</ele>
        <time>2025-06-15T08:03:26Z</time>
      </trkpt>
      <trkpt lat="45.12717" lon="0.60853">
        <ele>133</ele>
        <time>2025-06-15T08:03:27Z</time>
      </trkpt>
      <trkpt lat="45.12715" lon="0.60851">
        <ele>133</ele>
        <time>2025-06-15T08:03:28Z</time>
      </trkpt>
      <trkpt lat="45.12713" lon="0.6085">
        <ele>132.8</ele>
        <time>2025-06-15T08:03:29Z</time>
      </trkpt>
      <trkpt lat="45.1271" lon="0.60848">
        <ele>132.8</ele>
        <time>2025-06-15T08:03:30Z</time>
      </trkpt>
      <trkpt lat="45.12708" lon="0.60846">
        <ele>133</ele>
        <time>2025-06-15T08:03:31Z</time>
      </trkpt>
      <trkpt lat="45.12706" lon="0.60844">
        <ele>133</ele>
        <time>2025-06-15T08:03:32Z</time>
      </trkpt>
      <trkpt lat="45.12703" lon="0.60842">
        <ele>133.2</ele>
        <time>2025-06-15T08:03:33Z</time>
      </trkpt>
      <trkpt lat="45.12701" lon="0.6084">
        <ele>133.2</ele>
        <time>2025-06-15T08:03:34Z</time>
      </trkpt>
      <trkpt lat="45.12698" lon="0.60837">
        <ele>133.2</ele>
        <time>2025-06-15T08:03:35Z</time>
      </trkpt>
      <trkpt lat="45.12695" lon="0.60835">
        <ele>133.4</ele>
        <time>2025-06-15T08:03:36Z</time>
      </trkpt>
      <trkpt lat="45.12693" lon="0.60833">
        <ele>133.4</ele>
        <time>2025-06-15T08:03:37Z</time>
      </trkpt>
      <trkpt lat="45.1269" lon="0.6083">
        <ele>133.4</ele>
        <time>2025-06-15T08:03:38Z</time>
      </trkpt>
      <trkpt lat="45.12686" lon="0.60828">
        <ele>133.4</ele>
        <time>2025-06-15T08:03:39Z</time>
      </trkpt>
      <trkpt lat="45.12683" lon="0.60827">
        <ele>133.4</ele>
        <time>2025-06-15T08:03:40Z</time>
      </trkpt>
      <trkpt lat="45.1268" lon="0.60825">
        <ele>133.4</ele>
        <time>2025-06-15T08:03:41Z</time>
      </trkpt>
      <trkpt lat="45.12677" lon="0.60823">
        <ele>133.4</ele>
        <time>2025-06-15T08:03:42Z</time>
      </trkpt>
      <trkpt lat="45.12674" lon="0.60821">
        <ele>133.2</ele>
        <time>2025-06-15T08:03:43Z</time>
      </trkpt>
      <trkpt lat="45.12671" lon="0.60819">
        <ele>133.2</ele>
        <time>2025-06-15T08:03:44Z</time>
      </trkpt>
      <trkpt lat="45.12669" lon="0.60817">
        <ele>133.2</ele>
        <time>2025-06-15T08:03:45Z</time>
      </trkpt>
      <trkpt lat="45.12666" lon="0.60815">
        <ele>133.2</ele>
        <time>2025-06-15T08:03:46Z</time>
      </trkpt>
      <trkpt lat="45.12663" lon="0.60813">
        <ele>133.4</ele>
        <time>2025-06-15T08:03:47Z</time>
      </trkpt>
      <trkpt lat="45.1266" lon="0.60812">
        <ele>133.6</ele>
        <time>2025-06-15T08:03:48Z</time>
      </trkpt>
      <trkpt lat="45.12658" lon="0.6081">
        <ele>133.6</ele>
        <time>2025-06-15T08:03:49Z</time>
      </trkpt>
      <trkpt lat="45.12656" lon="0.60808">
        <ele>133.8</ele>
        <time>2025-06-15T08:03:50Z</time>
      </trkpt>
      <trkpt lat="45.12653" lon="0.60806">
        <ele>134</ele>
        <time>2025-06-15T08:03:51Z</time>
      </trkpt>
      <trkpt lat="45.12651" lon="0.60804">
        <ele>134</ele>
        <time>2025-06-15T08:03:52Z</time>
      </trkpt>
      <trkpt lat="45.12648" lon="0.60802">
        <ele>134.2</ele>
        <time>2025-06-15T08:03:53Z</time>
      </trkpt>
      <trkpt lat="45.12646" lon="0.60799">
        <ele>134.2</ele>
        <time>2025-06-15T08:03:54Z</time>
      </trkpt>
      <trkpt lat="45.12643" lon="0.60797">
        <ele>134.4</ele>
        <time>2025-06-15T08:03:55Z</time>
      </trkpt>
      <trkpt lat="45.1264" lon="0.60795">
        <ele>134.4</ele>
        <time>2025-06-15T08:03:56Z</time>
      </trkpt>
      <trkpt lat="45.12637" lon="0.60793">
        <ele>134.4</ele>
        <time>2025-06-15T08:03:57Z</time>
      </trkpt>
      <trkpt lat="45.12635" lon="0.60791">
        <ele>134.4</ele>
        <time>2025-06-15T08:03:58Z</time>
      </trkpt>
      <trkpt lat="45.12632" lon="0.60789">
        <ele>134.4</ele>
        <time>2025-06-15T08:03:59Z</time>
      </trkpt>
      <trkpt lat="45.12629" lon="0.60787">
        <ele>134.4</ele>
        <time>2025-06-15T08:04:00Z</time>
      </trkpt>
      <trkpt lat="45.12627" lon="0.60785">
        <ele>134.4</ele>
        <time>2025-06-15T08:04:01Z</time>
      </trkpt>
      <trkpt lat="45.12624" lon="0.60784">
        <ele>134.6</ele>
        <time>2025-06-15T08:04:02Z</time>
      </trkpt>
      <trkpt lat="45.12622" lon="0.60782">
        <ele>134.6</ele>
        <time>2025-06-15T08:04:03Z</time>
      </trkpt>
      <trkpt lat="45.1262" lon="0.60781">
        <ele>134.8</ele>
        <time>2025-06-15T08:04:04Z</time>
      </trkpt>
      <trkpt lat="45.12618" lon="0.60779">
        <ele>135</ele>
        <time>2025-06-15T08:04:05Z</time>
      </trkpt>
      <trkpt lat="45.12615" lon="0.60778">
        <ele>135.2</ele>
        <time>2025-06-15T08:04:06Z</time>
      </trkpt>
      <trkpt lat="45.12612" lon="0.60776">
        <ele>135.4</ele>
        <time>2025-06-15T08:04:07Z</time>
      </trkpt>
      <trkpt lat="45.1261" lon="0.60775">
        <ele>135.4</ele>
        <time>2025-06-15T08:04:08Z</time>
      </trkpt>
      <trkpt lat="45.12607" lon="0.60773">
        <ele>135.4</ele>
        <time>2025-06-15T08:04:09Z</time>
      </trkpt>
      <trkpt lat="45.12605" lon="0.60772">
        <ele>135.6</ele>
        <time>2025-06-15T08:04:10Z</time>
      </trkpt>
      <trkpt lat="45.12602" lon="0.6077">
        <ele>135.6</ele>
        <time>2025-06-15T08:04:11Z</time>
      </trkpt>
      <trkpt lat="45.126" lon="0.60768">
        <ele>135.6</ele>
        <time>2025-06-15T08:04:12Z</time>
      </trkpt>
      <trkpt lat="45.12598" lon="0.60766">
        <ele>135.6</ele>
        <time>2025-06-15T08:04:13Z</time>
      </trkpt>
      <trkpt lat="45.12596" lon="0.60764">
        <ele>135.6</ele>
        <time>2025-06-15T08:04:14Z</time>
      </trkpt>
      <trkpt lat="45.12594" lon="0.60762">
        <ele>135.8</ele>
        <time>2025-06-15T08:04:15Z</time>
      </trkpt>
      <trkpt lat="45.12592" lon="0.6076">
        <ele>136</ele>
        <time>2025-06-15T08:04:16Z</time>
      </trkpt>
      <trkpt lat="45.12591" lon="0.60758">
        <ele>136</ele>
        <time>2025-06-15T08:04:17Z</time>
      </trkpt>
      <trkpt lat="45.1259" lon="0.60757">
        <ele>136.4</ele>
        <time>2025-06-15T08:04:18Z</time>
      </trkpt>
      <trkpt lat="45.12589" lon="0.60755">
        <ele>136.6</ele>
        <time>2025-06-15T08:04:19Z</time>
      </trkpt>
      <trkpt lat="45.12588" lon="0.60753">
        <ele>136.8</ele>
        <time>2025-06-15T08:04:20Z</time>
      </trkpt>
      <trkpt lat="45.12588" lon="0.60752">
        <ele>137</ele>
        <time>2025-06-15T08:04:21Z</time>
      </trkpt>
      <trkpt lat="45.12587" lon="0.6075">
        <ele>137.2</ele>
        <time>2025-06-15T08:04:22Z</time>
      </trkpt>
      <trkpt lat="45.12586" lon="0.60748">
        <ele>137.4</ele>
        <time>2025-06-15T08:04:23Z</time>
      </trkpt>
      <trkpt lat="45.12585" lon="0.60747">
        <ele>137.6</ele>
        <time>2025-06-15T08:04:24Z</time>
      </trkpt>
      <trkpt lat="45.12584" lon="0.60746">
        <ele>137.8</ele>
        <time>2025-06-15T08:04:25Z</time>
      </trkpt>
      <trkpt lat="45.12583" lon="0.60745">
        <ele>137.8</ele>
        <time>2025-06-15T08:04:26Z</time>
      </trkpt>
      <trkpt lat="45.12583" lon="0.60744">
        <ele>138</ele>
        <time>2025-06-15T08:04:27Z</time>
      </trkpt>
      <trkpt lat="45.12582" lon="0.60743">
        <ele>138.2</ele>
        <time>2025-06-15T08:04:28Z</time>
      </trkpt>
      <trkpt lat="45.12581" lon="0.60742">
        <ele>138.4</ele>
        <time>2025-06-15T08:04:29Z</time>
      </trkpt>
      <trkpt lat="45.1258" lon="0.60741">
        <ele>138.6</ele>
        <time>2025-06-15T08:04:30Z</time>
      </trkpt>
      <trkpt lat="45.1258" lon="0.6074">
        <ele>138.6</ele>
        <time>2025-06-15T08:04:31Z</time>
      </trkpt>
      <trkpt lat="45.12579" lon="0.60739">
        <ele>138.8</ele>
        <time>2025-06-15T08:04:32Z</time>
      </trkpt>
      <trkpt lat="45.12578" lon="0.60738">
        <ele>139</ele>
        <time>2025-06-15T08:04:33Z</time>
      </trkpt>
      <trkpt lat="45.12578" lon="0.60736">
        <ele>139.2</ele>
        <time>2025-06-15T08:04:34Z</time>
      </trkpt>
      <trkpt lat="45.12577" lon="0.60734">
        <ele>139.4</ele>
        <time>2025-06-15T08:04:35Z</time>
      </trkpt>
      <trkpt lat="45.12576" lon="0.60733">
        <ele>139.6</ele>
        <time>2025-06-15T08:04:36Z</time>
      </trkpt>
      <trkpt lat="45.12575" lon="0.60731">
        <ele>139.6</ele>
        <time>2025-06-15T08:04:37Z</time>
      </trkpt>
      <trkpt lat="45.12575" lon="0.6073">
        <ele>140</ele>
        <time>2025-06-15T08:04:38Z</time>
      </trkpt>
      <trkpt lat="45.12574" lon="0.60729">
        <ele>140</ele>
        <time>2025-06-15T08:04:39Z</time>
      </trkpt>
      <trkpt lat="45.12573" lon="0.60727">
        <ele>140.2</ele>
        <time>2025-06-15T08:04:40Z</time>
      </trkpt>
      <trkpt lat="45.12571" lon="0.60726">
        <ele>140.4</ele>
        <time>2025-06-15T08:04:41Z</time>
      </trkpt>
      <trkpt lat="45.1257" lon="0.60724">
        <ele>140.6</ele>
        <time>2025-06-15T08:04:42Z</time>
      </trkpt>
      <trkpt lat="45.12569" lon="0.60723">
        <ele>140.8</ele>
        <time>2025-06-15T08:04:43Z</time>
      </trkpt>
      <trkpt lat="45.12569" lon="0.60722">
        <ele>141</ele>
        <time>2025-06-15T08:04:44Z</time>
      </trkpt>
      <trkpt lat="45.12568" lon="0.60721">
        <ele>141.2</ele>
        <time>2025-06-15T08:04:45Z</time>
      </trkpt>
      <trkpt lat="45.12567" lon="0.60719">
        <ele>141.4</ele>
        <time>2025-06-15T08:04:46Z</time>
      </trkpt>
      <trkpt lat="45.12567" lon="0.60718">
        <ele>141.6</ele>
        <time>2025-06-15T08:04:47Z</time>
      </trkpt>
      <trkpt lat="45.12566" lon="0.60717">
        <ele>141.8</ele>
        <time>2025-06-15T08:04:48Z</time>
      </trkpt>
      <trkpt lat="45.12565" lon="0.60715">
        <ele>142.2</ele>
        <time>2025-06-15T08:04:49Z</time>
      </trkpt>
      <trkpt lat="45.12564" lon="0.60714">
        <ele>142.4</ele>
        <time>2025-06-15T08:04:50Z</time>
      </trkpt>
      <trkpt lat="45.12563" lon="0.60712">
        <ele>142.6</ele>
        <time>2025-06-15T08:04:51Z</time>
      </trkpt>
      <trkpt lat="45.12563" lon="0.6071">
        <ele>142.8</ele>
        <time>2025-06-15T08:04:52Z</time>
      </trkpt>
      <trkpt lat="45.12562" lon="0.60708">
        <ele>143.2</ele>
        <time>2025-06-15T08:04:53Z</time>
      </trkpt>
      <trkpt lat="45.12561" lon="0.60707">
        <ele>143.4</ele>
        <time>2025-06-15T08:04:54Z</time>
      </trkpt>
      <trkpt lat="45.1256" lon="0.60705">
        <ele>143.8</ele>
        <time>2025-06-15T08:04:55Z</time>
      </trkpt>
      <trkpt lat="45.12559" lon="0.60704">
        <ele>144</ele>
        <time>2025-06-15T08:04:56Z</time>
      </trkpt>
      <trkpt lat="45.12558" lon="0.60703">
        <ele>144.2</ele>
        <time>2025-06-15T08:04:57Z</time>
      </trkpt>
      <trkpt lat="45.12558" lon="0.60702">
        <ele>144.4</ele>
        <time>2025-06-15T08:04:58Z</time>
      </trkpt>
      <trkpt lat="45.12557" lon="0.607">
        <ele>144.8</ele>
        <time>2025-06-15T08:04:59Z</time>
      </trkpt>
      <trkpt lat="45.12556" lon="0.60699">
        <ele>145</ele>
        <time>2025-06-15T08:05:00Z</time>
      </trkpt>
      <trkpt lat="45.12555" lon="0.60698">
        <ele>145.4</ele>
        <time>2025-06-15T08:05:01Z</time>
      </trkpt>
      <trkpt lat="45.12554" lon="0.60697">
        <ele>145.6</ele>
        <time>2025-06-15T08:05:02Z</time>
      </trkpt>
      <trkpt lat="45.12554" lon="0.60696">
        <ele>145.8</ele>
        <time>2025-06-15T08:05:03Z</time>
      </trkpt>
      <trkpt lat="45.12552" lon="0.60695">
        <ele>146</ele>
        <time>2025-06-15T08:05:04Z</time>
      </trkpt>
      <trkpt lat="45.12552" lon="0.60694">
        <ele>146.2</ele>
        <time>2025-06-15T08:05:05Z</time>
      </trkpt>
      <trkpt lat="45.12551" lon="0.60692">
        <ele>146.6</ele>
        <time>2025-06-15T08:05:06Z</time>
      </trkpt>
      <trkpt lat="45.1255" lon="0.6069">
        <ele>146.8</ele>
        <time>2025-06-15T08:05:07Z</time>
      </trkpt>
      <trkpt lat="45.1255" lon="0.60689">
        <ele>147</ele>
        <time>2025-06-15T08:05:08Z</time>
      </trkpt>
      <trkpt lat="45.12549" lon="0.60688">
        <ele>147.2</ele>
        <time>2025-06-15T08:05:09Z</time>
      </trkpt>
      <trkpt lat="45.12548" lon="0.60687">
        <ele>147.4</ele>
        <time>2025-06-15T08:05:10Z</time>
      </trkpt>
      <trkpt lat="45.12547" lon="0.60687">
        <ele>147.8</ele>
        <time>2025-06-15T08:05:11Z</time>
      </trkpt>
      <trkpt lat="45.12546" lon="0.60685">
        <ele>148</ele>
        <time>2025-06-15T08:05:12Z</time>
      </trkpt>
      <trkpt lat="45.12546" lon="0.60684">
        <ele>148.2</ele>
        <time>2025-06-15T08:05:13Z</time>
      </trkpt>
      <trkpt lat="45.12545" lon="0.60682">
        <ele>148.4</ele>
        <time>2025-06-15T08:05:14Z</time>
      </trkpt>
      <trkpt lat="45.12545" lon="0.60682">
        <ele>148.6</ele>
        <time>2025-06-15T08:05:15Z</time>
      </trkpt>
      <trkpt lat="45.12544" lon="0.6068">
        <ele>148.8</ele>
        <time>2025-06-15T08:05:16Z</time>
      </trkpt>
      <trkpt lat="45.12543" lon="0.60679">
        <ele>149</ele>
        <time>2025-06-15T08:05:17Z</time>
      </trkpt>
      <trkpt lat="45.12542" lon="0.60678">
        <ele>149.4</ele>
        <time>2025-06-15T08:05:18Z</time>
      </trkpt>
      <trkpt lat="45.12541" lon="0.60677">
        <ele>149.6</ele>
        <time>2025-06-15T08:05:19Z</time>
      </trkpt>
      <trkpt lat="45.12541" lon="0.60676">
        <ele>149.8</ele>
        <time>2025-06-15T08:05:20Z</time>
      </trkpt>
      <trkpt lat="45.1254" lon="0.60674">
        <ele>150</ele>
        <time>2025-06-15T08:05:21Z</time>
      </trkpt>
      <trkpt lat="45.12539" lon="0.60673">
        <ele>150.4</ele>
        <time>2025-06-15T08:05:22Z</time>
      </trkpt>
      <trkpt lat="45.12538" lon="0.60672">
        <ele>150.6</ele>
        <time>2025-06-15T08:05:23Z</time>
      </trkpt>
      <trkpt lat="45.12538" lon="0.6067">
        <ele>150.8</ele>
        <time>2025-06-15T08:05:24Z</time>
      </trkpt>
      <trkpt lat="45.12537" lon="0.60669">
        <ele>151</ele>
        <time>2025-06-15T08:05:25Z</time>
      </trkpt>
      <trkpt lat="45.12536" lon="0.60667">
        <ele>151.4</ele>
        <time>2025-06-15T08:05:26Z</time>
      </trkpt>
      <trkpt lat="45.12535" lon="0.60666">
        <ele>151.6</ele>
        <time>2025-06-15T08:05:27Z</time>
      </trkpt>
      <trkpt lat="45.12535" lon="0.60664">
        <ele>151.8</ele>
        <time>2025-06-15T08:05:28Z</time>
      </trkpt>
      <trkpt lat="45.12534" lon="0.60663">
        <ele>152</ele>
        <time>2025-06-15T08:05:29Z</time>
      </trkpt>
      <trkpt lat="45.12533" lon="0.60662">
        <ele>152.4</ele>
        <time>2025-06-15T08:05:30Z</time>
      </trkpt>
      <trkpt lat="45.12533" lon="0.60661">
        <ele>152.6</ele>
        <time>2025-06-15T08:05:31Z</time>
      </trkpt>
      <trkpt lat="45.12532" lon="0.6066">
        <ele>152.8</ele>
        <time>2025-06-15T08:05:32Z</time>
      </trkpt>
      <trkpt lat="45.12531" lon="0.60658">
        <ele>153</ele>
        <time>2025-06-15T08:05:33Z</time>
      </trkpt>
      <trkpt lat="45.1253" lon="0.60657">
        <ele>153.4</ele>
        <time>2025-06-15T08:05:34Z</time>
      </trkpt>
      <trkpt lat="45.1253" lon="0.60655">
        <ele>153.6</ele>
        <time>2025-06-15T08:05:35Z</time>
      </trkpt>
      <trkpt lat="45.1253" lon="0.60654">
        <ele>153.8</ele>
        <time>2025-06-15T08:05:36Z</time>
      </trkpt>
      <trkpt lat="45.1253" lon="0.60653">
        <ele>154</ele>
        <time>2025-06-15T08:05:37Z</time>
      </trkpt>
      <trkpt lat="45.12529" lon="0.60651">
        <ele>154.2</ele>
        <time>2025-06-15T08:05:38Z</time>
      </trkpt>
      <trkpt lat="45.12529" lon="0.60649">
        <ele>154.6</ele>
        <time>2025-06-15T08:05:39Z</time>
      </trkpt>
      <trkpt lat="45.12528" lon="0.60648">
        <ele>154.8</ele>
        <time>2025-06-15T08:05:40Z</time>
      </trkpt>
      <trkpt lat="45.12527" lon="0.60647">
        <ele>155</ele>
        <time>2025-06-15T08:05:41Z</time>
      </trkpt>
      <trkpt lat="45.12526" lon="0.60646">
        <ele>155.2</ele>
        <time>2025-06-15T08:05:42Z</time>
      </trkpt>
      <trkpt lat="45.12526" lon="0.60645">
        <ele>155.4</ele>
        <time>2025-06-15T08:05:43Z</time>
      </trkpt>
      <trkpt lat="45.12525" lon="0.60644">
        <ele>155.6</ele>
        <time>2025-06-15T08:05:44Z</time>
      </trkpt>
      <trkpt lat="45.12524" lon="0.60643">
        <ele>155.8</ele>
        <time>2025-06-15T08:05:45Z</time>
      </trkpt>
      <trkpt lat="45.12524" lon="0.60642">
        <ele>156</ele>
        <time>2025-06-15T08:05:46Z</time>
      </trkpt>
      <trkpt lat="45.12523" lon="0.60641">
        <ele>156.2</ele>
        <time>2025-06-15T08:05:47Z</time>
      </trkpt>
      <trkpt lat="45.12522" lon="0.60639">
        <ele>156.4</ele>
        <time>2025-06-15T08:05:48Z</time>
      </trkpt>
      <trkpt lat="45.12521" lon="0.60638">
        <ele>156.6</ele>
        <time>2025-06-15T08:05:49Z</time>
      </trkpt>
      <trkpt lat="45.12521" lon="0.60637">
        <ele>156.8</ele>
        <time>2025-06-15T08:05:50Z</time>
      </trkpt>
      <trkpt lat="45.1252" lon="0.60636">
        <ele>157.2</ele>
        <time>2025-06-15T08:05:51Z</time>
      </trkpt>
      <trkpt lat="45.1252" lon="0.60635">
        <ele>157.4</ele>
        <time>2025-06-15T08:05:52Z</time>
      </trkpt>
      <trkpt lat="45.12519" lon="0.60633">
        <ele>157.6</ele>
        <time>2025-06-15T08:05:53Z</time>
      </trkpt>
      <trkpt lat="45.12518" lon="0.60632">
        <ele>157.8</ele>
        <time>2025-06-15T08:05:54Z</time>
      </trkpt>
      <trkpt lat="45.12517" lon="0.60632">
        <ele>158</ele>
        <time>2025-06-15T08:05:55Z</time>
      </trkpt>
      <trkpt lat="45.12517" lon="0.60631">
        <ele>158.2</ele>
        <time>2025-06-15T08:05:56Z</time>
      </trkpt>
      <trkpt lat="45.12516" lon="0.6063">
        <ele>158.6</ele>
        <time>2025-06-15T08:05:57Z</time>
      </trkpt>
      <trkpt lat="45.12515" lon="0.60629">
        <ele>158.8</ele>
        <time>2025-06-15T08:05:58Z</time>
      </trkpt>
      <trkpt lat="45.12515" lon="0.60628">
        <ele>159</ele>
        <time>2025-06-15T08:05:59Z</time>
      </trkpt>
      <trkpt lat="45.12514" lon="0.60626">
        <ele>159.2</ele>
        <time>2025-06-15T08:06:00Z</time>
      </trkpt>
      <trkpt lat="45.12513" lon="0.60625">
        <ele>159.4</ele>
        <time>2025-06-15T08:06:01Z</time>
      </trkpt>
      <trkpt lat="45.12512" lon="0.60624">
        <ele>159.6</ele>
        <time>2025-06-15T08:06:02Z</time>
      </trkpt>
      <trkpt lat="45.12512" lon="0.60622">
        <ele>159.8</ele>
        <time>2025-06-15T08:06:03Z</time>
      </trkpt>
      <trkpt lat="45.12511" lon="0.60621">
        <ele>160</ele>
        <time>2025-06-15T08:06:04Z</time>
      </trkpt>
      <trkpt lat="45.1251" lon="0.60619">
        <ele>160.2</ele>
        <time>2025-06-15T08:06:05Z</time>
      </trkpt>
      <trkpt lat="45.1251" lon="0.60618">
        <ele>160.4</ele>
        <time>2025-06-15T08:06:06Z</time>
      </trkpt>
      <trkpt lat="45.12509" lon="0.60617">
        <ele>160.8</ele>
        <time>2025-06-15T08:06:07Z</time>
      </trkpt>
      <trkpt lat="45.12508" lon="0.60616">
        <ele>161</ele>
        <time>2025-06-15T08:06:08Z</time>
      </trkpt>
      <trkpt lat="45.12508" lon="0.60615">
        <ele>161.2</ele>
        <time>2025-06-15T08:06:09Z</time>
      </trkpt>
      <trkpt lat="45.12507" lon="0.60614">
        <ele>161.4</ele>
        <time>2025-06-15T08:06:10Z</time>
      </trkpt>
      <trkpt lat="45.12506" lon="0.60613">
        <ele>161.6</ele>
        <time>2025-06-15T08:06:11Z</time>
      </trkpt>
      <trkpt lat="45.12506" lon="0.60612">
        <ele>161.8</ele>
        <time>2025-06-15T08:06:12Z</time>
      </trkpt>
      <trkpt lat="45.12505" lon="0.60612">
        <ele>162</ele>
        <time>2025-06-15T08:06:13Z</time>
      </trkpt>
      <trkpt lat="45.12504" lon="0.60611">
        <ele>162.2</ele>
        <time>2025-06-15T08:06:14Z</time>
      </trkpt>
      <trkpt lat="45.12504" lon="0.6061">
        <ele>162.4</ele>
        <time>2025-06-15T08:06:15Z</time>
      </trkpt>
      <trkpt lat="45.12503" lon="0.60609">
        <ele>162.6</ele>
        <time>2025-06-15T08:06:16Z</time>
      </trkpt>
      <trkpt lat="45.12503" lon="0.60608">
        <ele>162.8</ele>
        <time>2025-06-15T08:06:17Z</time>
      </trkpt>
      <trkpt lat="45.12502" lon="0.60607">
        <ele>163</ele>
        <time>2025-06-15T08:06:18Z</time>
      </trkpt>
      <trkpt lat="45.12501" lon="0.60605">
        <ele>163.4</ele>
        <time>2025-06-15T08:06:19Z</time>
      </trkpt>
      <trkpt lat="45.125" lon="0.60604">
        <ele>163.6</ele>
        <time>2025-06-15T08:06:20Z</time>
      </trkpt>
      <trkpt lat="45.125" lon="0.60603">
        <ele>163.8</ele>
        <time>2025-06-15T08:06:21Z</time>
      </trkpt>
      <trkpt lat="45.12499" lon="0.60602">
        <ele>164</ele>
        <time>2025-06-15T08:06:22Z</time>
      </trkpt>
      <trkpt lat="45.12498" lon="0.60601">
        <ele>164.2</ele>
        <time>2025-06-15T08:06:23Z</time>
      </trkpt>
      <trkpt lat="45.12497" lon="0.606">
        <ele>164.4</ele>
        <time>2025-06-15T08:06:24Z</time>
      </trkpt>
      <trkpt lat="45.12496" lon="0.60599">
        <ele>164.6</ele>
        <time>2025-06-15T08:06:25Z</time>
      </trkpt>
      <trkpt lat="45.12495" lon="0.60598">
        <ele>164.8</ele>
        <time>2025-06-15T08:06:26Z</time>
      </trkpt>
      <trkpt lat="45.12495" lon="0.60597">
        <ele>165.2</ele>
        <time>2025-06-15T08:06:27Z</time>
      </trkpt>
      <trkpt lat="45.12494" lon="0.60596">
        <ele>165.4</ele>
        <time>2025-06-15T08:06:28Z</time>
      </trkpt>
      <trkpt lat="45.12493" lon="0.60595">
        <ele>165.6</ele>
        <time>2025-06-15T08:06:29Z</time>
      </trkpt>
      <trkpt lat="45.12493" lon="0.60595">
        <ele>165.8</ele>
        <time>2025-06-15T08:06:30Z</time>
      </trkpt>
      <trkpt lat="45.12492" lon="0.60594">
        <ele>166</ele>
        <time>2025-06-15T08:06:31Z</time>
      </trkpt>
      <trkpt lat="45.12491" lon="0.60593">
        <ele>166.2</ele>
        <time>2025-06-15T08:06:32Z</time>
      </trkpt>
      <trkpt lat="45.1249" lon="0.60592">
        <ele>166.4</ele>
        <time>2025-06-15T08:06:33Z</time>
      </trkpt>
      <trkpt lat="45.1249" lon="0.60591">
        <ele>166.6</ele>
        <time>2025-06-15T08:06:34Z</time>
      </trkpt>
      <trkpt lat="45.12489" lon="0.6059">
        <ele>166.8</ele>
        <time>2025-06-15T08:06:35Z</time>
      </trkpt>
      <trkpt lat="45.12489" lon="0.60589">
        <ele>167</ele>
        <time>2025-06-15T08:06:36Z</time>
      </trkpt>
      <trkpt lat="45.12488" lon="0.60588">
        <ele>167.2</ele>
        <time>2025-06-15T08:06:37Z</time>
      </trkpt>
      <trkpt lat="45.12488" lon="0.60587">
        <ele>167.4</ele>
        <time>2025-06-15T08:06:38Z</time>
      </trkpt>
      <trkpt lat="45.12487" lon="0.60586">
        <ele>167.6</ele>
        <time>2025-06-15T08:06:39Z</time>
      </trkpt>
      <trkpt lat="45.12487" lon="0.60585">
        <ele>167.8</ele>
        <time>2025-06-15T08:06:40Z</time>
      </trkpt>
      <trkpt lat="45.12486" lon="0.60584">
        <ele>168.2</ele>
        <time>2025-06-15T08:06:41Z</time>
      </trkpt>
      <trkpt lat="45.12485" lon="0.60583">
        <ele>168.4</ele>
        <time>2025-06-15T08:06:42Z</time>
      </trkpt>
      <trkpt lat="45.12485" lon="0.60582">
        <ele>168.6</ele>
        <time>2025-06-15T08:06:43Z</time>
      </trkpt>
      <trkpt lat="45.12484" lon="0.60581">
        <ele>168.8</ele>
        <time>2025-06-15T08:06:44Z</time>
      </trkpt>
      <trkpt lat="45.12484" lon="0.6058">
        <ele>169</ele>
        <time>2025-06-15T08:06:45Z</time>
      </trkpt>
      <trkpt lat="45.12483" lon="0.6058">
        <ele>169.2</ele>
        <time>2025-06-15T08:06:46Z</time>
      </trkpt>
      <trkpt lat="45.12483" lon="0.60578">
        <ele>169.4</ele>
        <time>2025-06-15T08:06:47Z</time>
      </trkpt>
      <trkpt lat="45.12482" lon="0.60577">
        <ele>169.6</ele>
        <time>2025-06-15T08:06:48Z</time>
      </trkpt>
      <trkpt lat="45.12482" lon="0.60576">
        <ele>169.8</ele>
        <time>2025-06-15T08:06:49Z</time>
      </trkpt>
      <trkpt lat="45.12481" lon="0.60575">
        <ele>170</ele>
        <time>2025-06-15T08:06:50Z</time>
      </trkpt>
      <trkpt lat="45.1248" lon="0.60574">
        <ele>170.2</ele>
        <time>2025-06-15T08:06:51Z</time>
      </trkpt>
      <trkpt lat="45.12479" lon="0.60572">
        <ele>170.4</ele>
        <time>2025-06-15T08:06:52Z</time>
      </trkpt>
      <trkpt lat="45.12479" lon="0.60571">
        <ele>170.6</ele>
        <time>2025-06-15T08:06:53Z</time>
      </trkpt>
      <trkpt lat="45.12478" lon="0.6057">
        <ele>170.8</ele>
        <time>2025-06-15T08:06:54Z</time>
      </trkpt>
      <trkpt lat="45.12477" lon="0.60569">
        <ele>171</ele>
        <time>2025-06-15T08:06:55Z</time>
      </trkpt>
      <trkpt lat="45.12476" lon="0.60567">
        <ele>171.2</ele>
        <time>2025-06-15T08:06:56Z</time>
      </trkpt>
      <trkpt lat="45.12476" lon="0.60566">
        <ele>171.4</ele>
        <time>2025-06-15T08:06:57Z</time>
      </trkpt>
      <trkpt lat="45.12475" lon="0.60564">
        <ele>171.6</ele>
        <time>2025-06-15T08:06:58Z</time>
      </trkpt>
      <trkpt lat="45.12474" lon="0.60563">
        <ele>171.8</ele>
        <time>2025-06-15T08:06:59Z</time>
      </trkpt>
      <trkpt lat="45.12473" lon="0.60562">
        <ele>172</ele>
        <time>2025-06-15T08:07:00Z</time>
      </trkpt>
      <trkpt lat="45.12473" lon="0.60561">
        <ele>172.2</ele>
        <time>2025-06-15T08:07:01Z</time>
      </trkpt>
      <trkpt lat="45.12472" lon="0.60561">
        <ele>172.4</ele>
        <time>2025-06-15T08:07:02Z</time>
      </trkpt>
      <trkpt lat="45.12471" lon="0.60559">
        <ele>172.6</ele>
        <time>2025-06-15T08:07:03Z</time>
      </trkpt>
      <trkpt lat="45.12471" lon="0.60558">
        <ele>172.8</ele>
        <time>2025-06-15T08:07:04Z</time>
      </trkpt>
      <trkpt lat="45.1247" lon="0.60556">
        <ele>173</ele>
        <time>2025-06-15T08:07:05Z</time>
      </trkpt>
      <trkpt lat="45.1247" lon="0.60555">
        <ele>173.2</ele>
        <time>2025-06-15T08:07:06Z</time>
      </trkpt>
      <trkpt lat="45.12469" lon="0.60554">
        <ele>173.4</ele>
        <time>2025-06-15T08:07:07Z</time>
      </trkpt>
      <trkpt lat="45.12468" lon="0.60552">
        <ele>173.6</ele>
        <time>2025-06-15T08:07:08Z</time>
      </trkpt>
      <trkpt lat="45.12468" lon="0.60551">
        <ele>173.8</ele>
        <time>2025-06-15T08:07:09Z</time>
      </trkpt>
      <trkpt lat="45.12467" lon="0.6055">
        <ele>174</ele>
        <time>2025-06-15T08:07:10Z</time>
      </trkpt>
      <trkpt lat="45.12466" lon="0.60548">
        <ele>174.4</ele>
        <time>2025-06-15T08:07:11Z</time>
      </trkpt>
      <trkpt lat="45.12465" lon="0.60547">
        <ele>174.6</ele>
        <time>2025-06-15T08:07:12Z</time>
      </trkpt>
      <trkpt lat="45.12465" lon="0.60546">
        <ele>174.6</ele>
        <time>2025-06-15T08:07:13Z</time>
      </trkpt>
      <trkpt lat="45.12464" lon="0.60545">
        <ele>174.8</ele>
        <time>2025-06-15T08:07:14Z</time>
      </trkpt>
      <trkpt lat="45.12463" lon="0.60544">
        <ele>175</ele>
        <time>2025-06-15T08:07:15Z</time>
      </trkpt>
      <trkpt lat="45.12463" lon="0.60542">
        <ele>175.2</ele>
        <time>2025-06-15T08:07:16Z</time>
      </trkpt>
      <trkpt lat="45.12462" lon="0.6054">
        <ele>175.4</ele>
        <time>2025-06-15T08:07:17Z</time>
      </trkpt>
      <trkpt lat="45.12462" lon="0.60539">
        <ele>175.4</ele>
        <time>2025-06-15T08:07:18Z</time>
      </trkpt>
      <trkpt lat="45.12462" lon="0.60538">
        <ele>175.6</ele>
        <time>2025-06-15T08:07:19Z</time>
      </trkpt>
      <trkpt lat="45.12462" lon="0.60536">
        <ele>175.8</ele>
        <time>2025-06-15T08:07:20Z</time>
      </trkpt>
      <trkpt lat="45.12461" lon="0.60535">
        <ele>176.2</ele>
        <time>2025-06-15T08:07:21Z</time>
      </trkpt>
      <trkpt lat="45.12461" lon="0.60533">
        <ele>176.4</ele>
        <time>2025-06-15T08:07:22Z</time>
      </trkpt>
      <trkpt lat="45.12461" lon="0.60531">
        <ele>176.6</ele>
        <time>2025-06-15T08:07:23Z</time>
      </trkpt>
      <trkpt lat="45.12461" lon="0.60529">
        <ele>176.8</ele>
        <time>2025-06-15T08:07:24Z</time>
      </trkpt>
      <trkpt lat="45.12461" lon="0.60527">
        <ele>177</ele>
        <time>2025-06-15T08:07:25Z</time>
      </trkpt>
      <trkpt lat="45.12461" lon="0.60526">
        <ele>177.2</ele>
        <time>2025-06-15T08:07:26Z</time>
      </trkpt>
      <trkpt lat="45.12461" lon="0.60524">
        <ele>177.4</ele>
        <time>2025-06-15T08:07:27Z</time>
      </trkpt>
      <trkpt lat="45.12461" lon="0.60523">
        <ele>177.8</ele>
        <time>2025-06-15T08:07:28Z</time>
      </trkpt>
      <trkpt lat="45.12462" lon="0.60522">
        <ele>177.8</ele>
        <time>2025-06-15T08:07:29Z</time>
      </trkpt>
      <trkpt lat="45.12462" lon="0.60521">
        <ele>178</ele>
        <time>2025-06-15T08:07:30Z</time>
      </trkpt>
      <trkpt lat="45.12463" lon="0.60519">
        <ele>178.2</ele>
        <time>2025-06-15T08:07:31Z</time>
      </trkpt>
      <trkpt lat="45.12463" lon="0.60517">
        <ele>178.6</ele>
        <time>2025-06-15T08:07:32Z</time>
      </trkpt>
      <trkpt lat="45.12463" lon="0.60516">
        <ele>178.6</ele>
        <time>2025-06-15T08:07:33Z</time>
      </trkpt>
      <trkpt lat="45.12463" lon="0.60515">
        <ele>178.8</ele>
        <time>2025-06-15T08:07:34Z</time>
      </trkpt>
      <trkpt lat="45.12463" lon="0.60513">
        <ele>179</ele>
        <time>2025-06-15T08:07:35Z</time>
      </trkpt>
      <trkpt lat="45.12464" lon="0.60511">
        <ele>179.2</ele>
        <time>2025-06-15T08:07:36Z</time>
      </trkpt>
      <trkpt lat="45.12464" lon="0.6051">
        <ele>179.4</ele>
        <time>2025-06-15T08:07:37Z</time>
      </trkpt>
      <trkpt lat="45.12464" lon="0.60509">
        <ele>179.6</ele>
        <time>2025-06-15T08:07:38Z</time>
      </trkpt>
      <trkpt lat="45.12465" lon="0.60508">
        <ele>179.8</ele>
        <time>2025-06-15T08:07:39Z</time>
      </trkpt>
      <trkpt lat="45.12466" lon="0.60506">
        <ele>180</ele>
        <time>2025-06-15T08:07:40Z</time>
      </trkpt>
      <trkpt lat="45.12466" lon="0.60505">
        <ele>180.2</ele>
        <time>2025-06-15T08:07:41Z</time>
      </trkpt>
      <trkpt lat="45.12467" lon="0.60503">
        <ele>180.2</ele>
        <time>2025-06-15T08:07:42Z</time>
      </trkpt>
      <trkpt lat="45.12467" lon="0.60502">
        <ele>180.4</ele>
        <time>2025-06-15T08:07:43Z</time>
      </trkpt>
      <trkpt lat="45.12468" lon="0.605">
        <ele>180.6</ele>
        <time>2025-06-15T08:07:44Z</time>
      </trkpt>
      <trkpt lat="45.12469" lon="0.60498">
        <ele>180.8</ele>
        <time>2025-06-15T08:07:45Z</time>
      </trkpt>
      <trkpt lat="45.12469" lon="0.60496">
        <ele>181</ele>
        <time>2025-06-15T08:07:46Z</time>
      </trkpt>
      <trkpt lat="45.12469" lon="0.60495">
        <ele>181</ele>
        <time>2025-06-15T08:07:47Z</time>
      </trkpt>
      <trkpt lat="45.1247" lon="0.60493">
        <ele>181.2</ele>
        <time>2025-06-15T08:07:48Z</time>
      </trkpt>
      <trkpt lat="45.1247" lon="0.60491">
        <ele>181.4</ele>
        <time>2025-06-15T08:07:49Z</time>
      </trkpt>
      <trkpt lat="45.1247" lon="0.60489">
        <ele>181.6</ele>
        <time>2025-06-15T08:07:50Z</time>
      </trkpt>
      <trkpt lat="45.1247" lon="0.60487">
        <ele>181.6</ele>
        <time>2025-06-15T08:07:51Z</time>
      </trkpt>
      <trkpt lat="45.1247" lon="0.60485">
        <ele>181.8</ele>
        <time>2025-06-15T08:07:52Z</time>
      </trkpt>
      <trkpt lat="45.1247" lon="0.60483">
        <ele>181.8</ele>
        <time>2025-06-15T08:07:53Z</time>
      </trkpt>
      <trkpt lat="45.1247" lon="0.60481">
        <ele>182</ele>
        <time>2025-06-15T08:07:54Z</time>
      </trkpt>
      <trkpt lat="45.12469" lon="0.60479">
        <ele>182.2</ele>
        <time>2025-06-15T08:07:55Z</time>
      </trkpt>
      <trkpt lat="45.12469" lon="0.60478">
        <ele>182.2</ele>
        <time>2025-06-15T08:07:56Z</time>
      </trkpt>
      <trkpt lat="45.12469" lon="0.60476">
        <ele>182.4</ele>
        <time>2025-06-15T08:07:57Z</time>
      </trkpt>
      <trkpt lat="45.12469" lon="0.60475">
        <ele>182.4</ele>
        <time>2025-06-15T08:07:58Z</time>
      </trkpt>
      <trkpt lat="45.12469" lon="0.60473">
        <ele>182.6</ele>
        <time>2025-06-15T08:07:59Z</time>
      </trkpt>
      <trkpt lat="45.1247" lon="0.60471">
        <ele>182.6</ele>
        <time>2025-06-15T08:08:00Z</time>
      </trkpt>
      <trkpt lat="45.1247" lon="0.60469">
        <ele>182.8</ele>
        <time>2025-06-15T08:08:01Z</time>
      </trkpt>
      <trkpt lat="45.1247" lon="0.60466">
        <ele>182.8</ele>
        <time>2025-06-15T08:08:02Z</time>
      </trkpt>
      <trkpt lat="45.1247" lon="0.60464">
        <ele>182.8</ele>
        <time>2025-06-15T08:08:03Z</time>
      </trkpt>
      <trkpt lat="45.12471" lon="0.60463">
        <ele>183</ele>
        <time>2025-06-15T08:08:04Z</time>
      </trkpt>
      <trkpt lat="45.12472" lon="0.6046">
        <ele>183</ele>
        <time>2025-06-15T08:08:05Z</time>
      </trkpt>
      <trkpt lat="45.12472" lon="0.60459">
        <ele>183</ele>
        <time>2025-06-15T08:08:06Z</time>
      </trkpt>
      <trkpt lat="45.12473" lon="0.60456">
        <ele>183.2</ele>
        <time>2025-06-15T08:08:07Z</time>
      </trkpt>
      <trkpt lat="45.12473" lon="0.60454">
        <ele>183.2</ele>
        <time>2025-06-15T08:08:08Z</time>
      </trkpt>
      <trkpt lat="45.12473" lon="0.60452">
        <ele>183.2</ele>
        <time>2025-06-15T08:08:09Z</time>
      </trkpt>
      <trkpt lat="45.12472" lon="0.60452">
        <ele>183.2</ele>
        <time>2025-06-15T08:08:10Z</time>
      </trkpt>
      <trkpt lat="45.1247" lon="0.60452">
        <ele>183.4</ele>
        <time>2025-06-15T08:08:11Z</time>
      </trkpt>
      <trkpt lat="45.12469" lon="0.60451">
        <ele>183.4</ele>
        <time>2025-06-15T08:08:12Z</time>
      </trkpt>
      <trkpt lat="45.12467" lon="0.60451">
        <ele>183.4</ele>
        <time>2025-06-15T08:08:13Z</time>
      </trkpt>
      <trkpt lat="45.12466" lon="0.6045">
        <ele>183.4</ele>
        <time>2025-06-15T08:08:14Z</time>
      </trkpt>
      <trkpt lat="45.12464" lon="0.60449">
        <ele>183.4</ele>
        <time>2025-06-15T08:08:15Z</time>
      </trkpt>
      <trkpt lat="45.12462" lon="0.60448">
        <ele>183.4</ele>
        <time>2025-06-15T08:08:16Z</time>
      </trkpt>
      <trkpt lat="45.12459" lon="0.60447">
        <ele>183.4</ele>
        <time>2025-06-15T08:08:17Z</time>
      </trkpt>
      <trkpt lat="45.12457" lon="0.60446">
        <ele>183.6</ele>
        <time>2025-06-15T08:08:18Z</time>
      </trkpt>
      <trkpt lat="45.12455" lon="0.60445">
        <ele>183.6</ele>
        <time>2025-06-15T08:08:19Z</time>
      </trkpt>
      <trkpt lat="45.12452" lon="0.60444">
        <ele>183.6</ele>
        <time>2025-06-15T08:08:20Z</time>
      </trkpt>
      <trkpt lat="45.1245" lon="0.60443">
        <ele>183.6</ele>
        <time>2025-06-15T08:08:21Z</time>
      </trkpt>
      <trkpt lat="45.12447" lon="0.60443">
        <ele>183.6</ele>
        <time>2025-06-15T08:08:22Z</time>
      </trkpt>
      <trkpt lat="45.12444" lon="0.60443">
        <ele>183.6</ele>
        <time>2025-06-15T08:08:23Z</time>
      </trkpt>
      <trkpt lat="45.12442" lon="0.60442">
        <ele>183.6</ele>
        <time>2025-06-15T08:08:24Z</time>
      </trkpt>
      <trkpt lat="45.12439" lon="0.60441">
        <ele>183.8</ele>
        <time>2025-06-15T08:08:25Z</time>
      </trkpt>
      <trkpt lat="45.12437" lon="0.6044">
        <ele>183.8</ele>
        <time>2025-06-15T08:08:26Z</time>
      </trkpt>
      <trkpt lat="45.12434" lon="0.60439">
        <ele>183.8</ele>
        <time>2025-06-15T08:08:27Z</time>
      </trkpt>
      <trkpt lat="45.12431" lon="0.60438">
        <ele>183.8</ele>
        <time>2025-06-15T08:08:28Z</time>
      </trkpt>
      <trkpt lat="45.12429" lon="0.60438">
        <ele>184</ele>
        <time>2025-06-15T08:08:29Z</time>
      </trkpt>
      <trkpt lat="45.12426" lon="0.60437">
        <ele>184</ele>
        <time>2025-06-15T08:08:30Z</time>
      </trkpt>
      <trkpt lat="45.12423" lon="0.60436">
        <ele>184</ele>
        <time>2025-06-15T08:08:31Z</time>
      </trkpt>
      <trkpt lat="45.12421" lon="0.60434">
        <ele>184</ele>
        <time>2025-06-15T08:08:32Z</time>
      </trkpt>
      <trkpt lat="45.12418" lon="0.60433">
        <ele>184</ele>
        <time>2025-06-15T08:08:33Z</time>
      </trkpt>
      <trkpt lat="45.12415" lon="0.60432">
        <ele>184.2</ele>
        <time>2025-06-15T08:08:34Z</time>
      </trkpt>
      <trkpt lat="45.12412" lon="0.60432">
        <ele>184.2</ele>
        <time>2025-06-15T08:08:35Z</time>
      </trkpt>
      <trkpt lat="45.12409" lon="0.60431">
        <ele>184.2</ele>
        <time>2025-06-15T08:08:36Z</time>
      </trkpt>
      <trkpt lat="45.12406" lon="0.6043">
        <ele>184.4</ele>
        <time>2025-06-15T08:08:37Z</time>
      </trkpt>
      <trkpt lat="45.12404" lon="0.60429">
        <ele>184.4</ele>
        <time>2025-06-15T08:08:38Z</time>
      </trkpt>
      <trkpt lat="45.12401" lon="0.60428">
        <ele>184.6</ele>
        <time>2025-06-15T08:08:39Z</time>
      </trkpt>
      <trkpt lat="45.12398" lon="0.60427">
        <ele>184.8</ele>
        <time>2025-06-15T08:08:40Z</time>
      </trkpt>
      <trkpt lat="45.12396" lon="0.60426">
        <ele>184.8</ele>
        <time>2025-06-15T08:08:41Z</time>
      </trkpt>
      <trkpt lat="45.12393" lon="0.60425">
        <ele>185</ele>
        <time>2025-06-15T08:08:42Z</time>
      </trkpt>
      <trkpt lat="45.1239" lon="0.60424">
        <ele>185.2</ele>
        <time>2025-06-15T08:08:43Z</time>
      </trkpt>
      <trkpt lat="45.12388" lon="0.60423">
        <ele>185.2</ele>
        <time>2025-06-15T08:08:44Z</time>
      </trkpt>
      <trkpt lat="45.12385" lon="0.60422">
        <ele>185.4</ele>
        <time>2025-06-15T08:08:45Z</time>
      </trkpt>
      <trkpt lat="45.12383" lon="0.60421">
        <ele>185.6</ele>
        <time>2025-06-15T08:08:46Z</time>
      </trkpt>
      <trkpt lat="45.1238" lon="0.6042">
        <ele>185.8</ele>
        <time>2025-06-15T08:08:47Z</time>
      </trkpt>
      <trkpt lat="45.12378" lon="0.60419">
        <ele>185.8</ele>
        <time>2025-06-15T08:08:48Z</time>
      </trkpt>
      <trkpt lat="45.12375" lon="0.60418">
        <ele>186</ele>
        <time>2025-06-15T08:08:49Z</time>
      </trkpt>
      <trkpt lat="45.12373" lon="0.60418">
        <ele>186.2</ele>
        <time>2025-06-15T08:08:50Z</time>
      </trkpt>
      <trkpt lat="45.12371" lon="0.60417">
        <ele>186.4</ele>
        <time>2025-06-15T08:08:51Z</time>
      </trkpt>
      <trkpt lat="45.12368" lon="0.60416">
        <ele>186.6</ele>
        <time>2025-06-15T08:08:52Z</time>
      </trkpt>
      <trkpt lat="45.12366" lon="0.60415">
        <ele>186.8</ele>
        <time>2025-06-15T08:08:53Z</time>
      </trkpt>
      <trkpt lat="45.12364" lon="0.60413">
        <ele>187</ele>
        <time>2025-06-15T08:08:54Z</time>
      </trkpt>
      <trkpt lat="45.12361" lon="0.60413">
        <ele>187.2</ele>
        <time>2025-06-15T08:08:55Z</time>
      </trkpt>
      <trkpt lat="45.12359" lon="0.60412">
        <ele>187.2</ele>
        <time>2025-06-15T08:08:56Z</time>
      </trkpt>
      <trkpt lat="45.12357" lon="0.60411">
        <ele>187.4</ele>
        <time>2025-06-15T08:08:57Z</time>
      </trkpt>
      <trkpt lat="45.12354" lon="0.6041">
        <ele>187.6</ele>
        <time>2025-06-15T08:08:58Z</time>
      </trkpt>
      <trkpt lat="45.12352" lon="0.60409">
        <ele>187.8</ele>
        <time>2025-06-15T08:08:59Z</time>
      </trkpt>
      <trkpt lat="45.1235" lon="0.60408">
        <ele>188</ele>
        <time>2025-06-15T08:09:00Z</time>
      </trkpt>
      <trkpt lat="45.12347" lon="0.60407">
        <ele>188</ele>
        <time>2025-06-15T08:09:01Z</time>
      </trkpt>
      <trkpt lat="45.12345" lon="0.60407">
        <ele>188.4</ele>
        <time>2025-06-15T08:09:02Z</time>
      </trkpt>
      <trkpt lat="45.12342" lon="0.60406">
        <ele>188.4</ele>
        <time>2025-06-15T08:09:03Z</time>
      </trkpt>
      <trkpt lat="45.1234" lon="0.60405">
        <ele>188.6</ele>
        <time>2025-06-15T08:09:04Z</time>
      </trkpt>
      <trkpt lat="45.12338" lon="0.60404">
        <ele>188.8</ele>
        <time>2025-06-15T08:09:05Z</time>
      </trkpt>
      <trkpt lat="45.12335" lon="0.60403">
        <ele>189</ele>
        <time>2025-06-15T08:09:06Z</time>
      </trkpt>
      <trkpt lat="45.12333" lon="0.60402">
        <ele>189.2</ele>
        <time>2025-06-15T08:09:07Z</time>
      </trkpt>
      <trkpt lat="45.12331" lon="0.60401">
        <ele>189.4</ele>
        <time>2025-06-15T08:09:08Z</time>
      </trkpt>
      <trkpt lat="45.12329" lon="0.604">
        <ele>189.6</ele>
        <time>2025-06-15T08:09:09Z</time>
      </trkpt>
      <trkpt lat="45.12327" lon="0.604">
        <ele>189.8</ele>
        <time>2025-06-15T08:09:10Z</time>
      </trkpt>
      <trkpt lat="45.12324" lon="0.60399">
        <ele>189.8</ele>
        <time>2025-06-15T08:09:11Z</time>
      </trkpt>
      <trkpt lat="45.12321" lon="0.60398">
        <ele>190</ele>
        <time>2025-06-15T08:09:12Z</time>
      </trkpt>
      <trkpt lat="45.12319" lon="0.60397">
        <ele>190.2</ele>
        <time>2025-06-15T08:09:13Z</time>
      </trkpt>
      <trkpt lat="45.12317" lon="0.60395">
        <ele>190.4</ele>
        <time>2025-06-15T08:09:14Z</time>
      </trkpt>
      <trkpt lat="45.12315" lon="0.60395">
        <ele>190.6</ele>
        <time>2025-06-15T08:09:15Z</time>
      </trkpt>
      <trkpt lat="45.12313" lon="0.60394">
        <ele>190.8</ele>
        <time>2025-06-15T08:09:16Z</time>
      </trkpt>
      <trkpt lat="45.1231" lon="0.60393">
        <ele>190.8</ele>
        <time>2025-06-15T08:09:17Z</time>
      </trkpt>
      <trkpt lat="45.12308" lon="0.60392">
        <ele>191</ele>
        <time>2025-06-15T08:09:18Z</time>
      </trkpt>
      <trkpt lat="45.12305" lon="0.60391">
        <ele>191.4</ele>
        <time>2025-06-15T08:09:19Z</time>
      </trkpt>
      <trkpt lat="45.12302" lon="0.6039">
        <ele>191.4</ele>
        <time>2025-06-15T08:09:20Z</time>
      </trkpt>
      <trkpt lat="45.12299" lon="0.60389">
        <ele>191.6</ele>
        <time>2025-06-15T08:09:21Z</time>
      </trkpt>
      <trkpt lat="45.12297" lon="0.60388">
        <ele>191.8</ele>
        <time>2025-06-15T08:09:22Z</time>
      </trkpt>
      <trkpt lat="45.12294" lon="0.60387">
        <ele>192</ele>
        <time>2025-06-15T08:09:23Z</time>
      </trkpt>
      <trkpt lat="45.12291" lon="0.60386">
        <ele>192.2</ele>
        <time>2025-06-15T08:09:24Z</time>
      </trkpt>
      <trkpt lat="45.12289" lon="0.60386">
        <ele>192.4</ele>
        <time>2025-06-15T08:09:25Z</time>
      </trkpt>
      <trkpt lat="45.12287" lon="0.60385">
        <ele>192.6</ele>
        <time>2025-06-15T08:09:26Z</time>
      </trkpt>
      <trkpt lat="45.12284" lon="0.60384">
        <ele>192.8</ele>
        <time>2025-06-15T08:09:27Z</time>
      </trkpt>
      <trkpt lat="45.12282" lon="0.60383">
        <ele>193</ele>
        <time>2025-06-15T08:09:28Z</time>
      </trkpt>
      <trkpt lat="45.1228" lon="0.60382">
        <ele>193.2</ele>
        <time>2025-06-15T08:09:29Z</time>
      </trkpt>
      <trkpt lat="45.12278" lon="0.60381">
        <ele>193.4</ele>
        <time>2025-06-15T08:09:30Z</time>
      </trkpt>
      <trkpt lat="45.12275" lon="0.6038">
        <ele>193.6</ele>
        <time>2025-06-15T08:09:31Z</time>
      </trkpt>
      <trkpt lat="45.12273" lon="0.60379">
        <ele>193.8</ele>
        <time>2025-06-15T08:09:32Z</time>
      </trkpt>
      <trkpt lat="45.12271" lon="0.60378">
        <ele>194</ele>
        <time>2025-06-15T08:09:33Z</time>
      </trkpt>
      <trkpt lat="45.12269" lon="0.60377">
        <ele>194.2</ele>
        <time>2025-06-15T08:09:34Z</time>
      </trkpt>
      <trkpt lat="45.12266" lon="0.60376">
        <ele>194.4</ele>
        <time>2025-06-15T08:09:35Z</time>
      </trkpt>
      <trkpt lat="45.12265" lon="0.60375">
        <ele>194.6</ele>
        <time>2025-06-15T08:09:36Z</time>
      </trkpt>
      <trkpt lat="45.12262" lon="0.60373">
        <ele>194.8</ele>
        <time>2025-06-15T08:09:37Z</time>
      </trkpt>
      <trkpt lat="45.12259" lon="0.60372">
        <ele>195</ele>
        <time>2025-06-15T08:09:38Z</time>
      </trkpt>
      <trkpt lat="45.12257" lon="0.60371">
        <ele>195.2</ele>
        <time>2025-06-15T08:09:39Z</time>
      </trkpt>
      <trkpt lat="45.12255" lon="0.6037">
        <ele>195.4</ele>
        <time>2025-06-15T08:09:40Z</time>
      </trkpt>
      <trkpt lat="45.12252" lon="0.60368">
        <ele>195.6</ele>
        <time>2025-06-15T08:09:41Z</time>
      </trkpt>
      <trkpt lat="45.1225" lon="0.60367">
        <ele>195.8</ele>
        <time>2025-06-15T08:09:42Z</time>
      </trkpt>
      <trkpt lat="45.12248" lon="0.60366">
        <ele>196</ele>
        <time>2025-06-15T08:09:43Z</time>
      </trkpt>
      <trkpt lat="45.12245" lon="0.60365">
        <ele>196.2</ele>
        <time>2025-06-15T08:09:44Z</time>
      </trkpt>
      <trkpt lat="45.12244" lon="0.60364">
        <ele>196.4</ele>
        <time>2025-06-15T08:09:45Z</time>
      </trkpt>
      <trkpt lat="45.12241" lon="0.60362">
        <ele>196.6</ele>
        <time>2025-06-15T08:09:46Z</time>
      </trkpt>
      <trkpt lat="45.12239" lon="0.60361">
        <ele>197</ele>
        <time>2025-06-15T08:09:47Z</time>
      </trkpt>
      <trkpt lat="45.12237" lon="0.60359">
        <ele>197.2</ele>
        <time>2025-06-15T08:09:48Z</time>
      </trkpt>
      <trkpt lat="45.12235" lon="0.60358">
        <ele>197.4</ele>
        <time>2025-06-15T08:09:49Z</time>
      </trkpt>
      <trkpt lat="45.12233" lon="0.60357">
        <ele>197.6</ele>
        <time>2025-06-15T08:09:50Z</time>
      </trkpt>
      <trkpt lat="45.1223" lon="0.60356">
        <ele>197.6</ele>
        <time>2025-06-15T08:09:51Z</time>
      </trkpt>
      <trkpt lat="45.12228" lon="0.60355">
        <ele>197.8</ele>
        <time>2025-06-15T08:09:52Z</time>
      </trkpt>
      <trkpt lat="45.12226" lon="0.60354">
        <ele>198</ele>
        <time>2025-06-15T08:09:53Z</time>
      </trkpt>
      <trkpt lat="45.12223" lon="0.60352">
        <ele>198.2</ele>
        <time>2025-06-15T08:09:54Z</time>
      </trkpt>
      <trkpt lat="45.12221" lon="0.60351">
        <ele>198.4</ele>
        <time>2025-06-15T08:09:55Z</time>
      </trkpt>
      <trkpt lat="45.12218" lon="0.60349">
        <ele>198.6</ele>
        <time>2025-06-15T08:09:56Z</time>
      </trkpt>
      <trkpt lat="45.12215" lon="0.60348">
        <ele>198.8</ele>
        <time>2025-06-15T08:09:57Z</time>
      </trkpt>
      <trkpt lat="45.12213" lon="0.60347">
        <ele>199</ele>
        <time>2025-06-15T08:09:58Z</time>
      </trkpt>
      <trkpt lat="45.1221" lon="0.60345">
        <ele>199.2</ele>
        <time>2025-06-15T08:09:59Z</time>
      </trkpt>
      <trkpt lat="45.12207" lon="0.60344">
        <ele>199.2</ele>
        <time>2025-06-15T08:10:00Z</time>
      </trkpt>
      <trkpt lat="45.12205" lon="0.60343">
        <ele>199.4</ele>
        <time>2025-06-15T08:10:01Z</time>
      </trkpt>
      <trkpt lat="45.12202" lon="0.60341">
        <ele>199.6</ele>
        <time>2025-06-15T08:10:02Z</time>
      </trkpt>
      <trkpt lat="45.122" lon="0.6034">
        <ele>199.8</ele>
        <time>2025-06-15T08:10:03Z</time>
      </trkpt>
      <trkpt lat="45.12198" lon="0.60339">
        <ele>200</ele>
        <time>2025-06-15T08:10:04Z</time>
      </trkpt>
      <trkpt lat="45.12195" lon="0.60337">
        <ele>200</ele>
        <time>2025-06-15T08:10:05Z</time>
      </trkpt>
      <trkpt lat="45.12192" lon="0.60336">
        <ele>200.2</ele>
        <time>2025-06-15T08:10:06Z</time>
      </trkpt>
      <trkpt lat="45.1219" lon="0.60335">
        <ele>200.4</ele>
        <time>2025-06-15T08:10:07Z</time>
      </trkpt>
      <trkpt lat="45.12187" lon="0.60333">
        <ele>200.4</ele>
        <time>2025-06-15T08:10:08Z</time>
      </trkpt>
      <trkpt lat="45.12184" lon="0.60332">
        <ele>200.6</ele>
        <time>2025-06-15T08:10:09Z</time>
      </trkpt>
      <trkpt lat="45.12182" lon="0.6033">
        <ele>200.6</ele>
        <time>2025-06-15T08:10:10Z</time>
      </trkpt>
      <trkpt lat="45.12179" lon="0.60328">
        <ele>200.8</ele>
        <time>2025-06-15T08:10:11Z</time>
      </trkpt>
      <trkpt lat="45.12177" lon="0.60326">
        <ele>200.8</ele>
        <time>2025-06-15T08:10:12Z</time>
      </trkpt>
      <trkpt lat="45.12174" lon="0.60325">
        <ele>201</ele>
        <time>2025-06-15T08:10:13Z</time>
      </trkpt>
      <trkpt lat="45.12171" lon="0.60323">
        <ele>201</ele>
        <time>2025-06-15T08:10:14Z</time>
      </trkpt>
      <trkpt lat="45.12169" lon="0.60321">
        <ele>201.2</ele>
        <time>2025-06-15T08:10:15Z</time>
      </trkpt>
      <trkpt lat="45.12166" lon="0.60319">
        <ele>201.4</ele>
        <time>2025-06-15T08:10:16Z</time>
      </trkpt>
      <trkpt lat="45.12164" lon="0.60317">
        <ele>201.4</ele>
        <time>2025-06-15T08:10:17Z</time>
      </trkpt>
      <trkpt lat="45.12161" lon="0.60315">
        <ele>201.6</ele>
        <time>2025-06-15T08:10:18Z</time>
      </trkpt>
      <trkpt lat="45.12159" lon="0.60313">
        <ele>201.8</ele>
        <time>2025-06-15T08:10:19Z</time>
      </trkpt>
      <trkpt lat="45.12156" lon="0.6031">
        <ele>201.8</ele>
        <time>2025-06-15T08:10:20Z</time>
      </trkpt>
      <trkpt lat="45.12153" lon="0.60308">
        <ele>202</ele>
        <time>2025-06-15T08:10:21Z</time>
      </trkpt>
      <trkpt lat="45.1215" lon="0.60306">
        <ele>202</ele>
        <time>2025-06-15T08:10:22Z</time>
      </trkpt>
      <trkpt lat="45.12148" lon="0.60304">
        <ele>202.2</ele>
        <time>2025-06-15T08:10:23Z</time>
      </trkpt>
      <trkpt lat="45.12146" lon="0.60301">
        <ele>202.2</ele>
        <time>2025-06-15T08:10:24Z</time>
      </trkpt>
      <trkpt lat="45.12143" lon="0.60299">
        <ele>202.4</ele>
        <time>2025-06-15T08:10:25Z</time>
      </trkpt>
      <trkpt lat="45.12139" lon="0.60296">
        <ele>202.4</ele>
        <time>2025-06-15T08:10:26Z</time>
      </trkpt>
      <trkpt lat="45.12137" lon="0.60294">
        <ele>202.6</ele>
        <time>2025-06-15T08:10:27Z</time>
      </trkpt>
      <trkpt lat="45.12134" lon="0.60291">
        <ele>202.6</ele>
        <time>2025-06-15T08:10:28Z</time>
      </trkpt>
      <trkpt lat="45.12131" lon="0.60289">
        <ele>202.6</ele>
        <time>2025-06-15T08:10:29Z</time>
      </trkpt>
      <trkpt lat="45.12128" lon="0.60286">
        <ele>202.6</ele>
        <time>2025-06-15T08:10:30Z</time>
      </trkpt>
      <trkpt lat="45.12124" lon="0.60284">
        <ele>202.8</ele>
        <time>2025-06-15T08:10:31Z</time>
      </trkpt>
      <trkpt lat="45.12121" lon="0.60281">
        <ele>202.8</ele>
        <time>2025-06-15T08:10:32Z</time>
      </trkpt>
      <trkpt lat="45.12117" lon="0.60278">
        <ele>202.8</ele>
        <time>2025-06-15T08:10:33Z</time>
      </trkpt>
      <trkpt lat="45.12114" lon="0.60276">
        <ele>202.8</ele>
        <time>2025-06-15T08:10:34Z</time>
      </trkpt>
      <trkpt lat="45.1211" lon="0.60273">
        <ele>202.8</ele>
        <time>2025-06-15T08:10:35Z</time>
      </trkpt>
      <trkpt lat="45.12106" lon="0.6027">
        <ele>202.8</ele>
        <time>2025-06-15T08:10:36Z</time>
      </trkpt>
      <trkpt lat="45.12102" lon="0.60267">
        <ele>202.8</ele>
        <time>2025-06-15T08:10:37Z</time>
      </trkpt>
      <trkpt lat="45.12098" lon="0.60264">
        <ele>202.8</ele>
        <time>2025-06-15T08:10:38Z</time>
      </trkpt>
      <trkpt lat="45.12094" lon="0.60261">
        <ele>202.6</ele>
        <time>2025-06-15T08:10:39Z</time>
      </trkpt>
      <trkpt lat="45.1209" lon="0.60258">
        <ele>202.6</ele>
        <time>2025-06-15T08:10:40Z</time>
      </trkpt>
      <trkpt lat="45.12086" lon="0.60255">
        <ele>202.6</ele>
        <time>2025-06-15T08:10:41Z</time>
      </trkpt>
      <trkpt lat="45.12082" lon="0.60251">
        <ele>202.6</ele>
        <time>2025-06-15T08:10:42Z</time>
      </trkpt>
      <trkpt lat="45.12077" lon="0.60247">
        <ele>202.4</ele>
        <time>2025-06-15T08:10:43Z</time>
      </trkpt>
      <trkpt lat="45.12074" lon="0.60245">
        <ele>202.2</ele>
        <time>2025-06-15T08:10:44Z</time>
      </trkpt>
      <trkpt lat="45.12069" lon="0.60242">
        <ele>202.2</ele>
        <time>2025-06-15T08:10:45Z</time>
      </trkpt>
      <trkpt lat="45.12064" lon="0.60239">
        <ele>202</ele>
        <time>2025-06-15T08:10:46Z</time>
      </trkpt>
      <trkpt lat="45.1206" lon="0.60236">
        <ele>201.8</ele>
        <time>2025-06-15T08:10:47Z</time>
      </trkpt>
      <trkpt lat="45.12055" lon="0.60232">
        <ele>201.6</ele>
        <time>2025-06-15T08:10:48Z</time>
      </trkpt>
      <trkpt lat="45.1205" lon="0.60229">
        <ele>201.4</ele>
        <time>2025-06-15T08:10:49Z</time>
      </trkpt>
      <trkpt lat="45.12045" lon="0.60226">
        <ele>201.4</ele>
        <time>2025-06-15T08:10:50Z</time>
      </trkpt>
      <trkpt lat="45.1204" lon="0.60222">
        <ele>201.2</ele>
        <time>2025-06-15T08:10:51Z</time>
      </trkpt>
      <trkpt lat="45.12036" lon="0.60219">
        <ele>201.2</ele>
        <time>2025-06-15T08:10:52Z</time>
      </trkpt>
      <trkpt lat="45.12031" lon="0.60215">
        <ele>201</ele>
        <time>2025-06-15T08:10:53Z</time>
      </trkpt>
      <trkpt lat="45.12027" lon="0.60212">
        <ele>201</ele>
        <time>2025-06-15T08:10:54Z</time>
      </trkpt>
      <trkpt lat="45.12022" lon="0.60209">
        <ele>200.8</ele>
        <time>2025-06-15T08:10:55Z</time>
      </trkpt>
      <trkpt lat="45.12018" lon="0.60206">
        <ele>200.8</ele>
        <time>2025-06-15T08:10:56Z</time>
      </trkpt>
      <trkpt lat="45.12014" lon="0.60203">
        <ele>200.8</ele>
        <time>2025-06-15T08:10:57Z</time>
      </trkpt>
      <trkpt lat="45.1201" lon="0.602">
        <ele>200.6</ele>
        <time>2025-06-15T08:10:58Z</time>
      </trkpt>
      <trkpt lat="45.12007" lon="0.60197">
        <ele>200.6</ele>
        <time>2025-06-15T08:10:59Z</time>
      </trkpt>
      <trkpt lat="45.12004" lon="0.60194">
        <ele>200.6</ele>
        <time>2025-06-15T08:11:00Z</time>
      </trkpt>
      <trkpt lat="45.12" lon="0.60191">
        <ele>200.4</ele>
        <time>2025-06-15T08:11:01Z</time>
      </trkpt>
      <trkpt lat="45.11997" lon="0.60189">
        <ele>200.4</ele>
        <time>2025-06-15T08:11:02Z</time>
      </trkpt>
      <trkpt lat="45.11993" lon="0.60187">
        <ele>200.4</ele>
        <time>2025-06-15T08:11:03Z</time>
      </trkpt>
      <trkpt lat="45.11989" lon="0.60186">
        <ele>200.4</ele>
        <time>2025-06-15T08:11:04Z</time>
      </trkpt>
      <trkpt lat="45.11984" lon="0.60186">
        <ele>200.4</ele>
        <time>2025-06-15T08:11:05Z</time>
      </trkpt>
      <trkpt lat="45.11979" lon="0.60186">
        <ele>200.4</ele>
        <time>2025-06-15T08:11:06Z</time>
      </trkpt>
      <trkpt lat="45.11974" lon="0.60187">
        <ele>200.4</ele>
        <time>2025-06-15T08:11:07Z</time>
      </trkpt>
      <trkpt lat="45.11969" lon="0.60188">
        <ele>200.4</ele>
        <time>2025-06-15T08:11:08Z</time>
      </trkpt>
      <trkpt lat="45.11964" lon="0.60189">
        <ele>200.6</ele>
        <time>2025-06-15T08:11:09Z</time>
      </trkpt>
      <trkpt lat="45.11959" lon="0.60189">
        <ele>200.6</ele>
        <time>2025-06-15T08:11:10Z</time>
      </trkpt>
      <trkpt lat="45.11954" lon="0.6019">
        <ele>200.6</ele>
        <time>2025-06-15T08:11:11Z</time>
      </trkpt>
      <trkpt lat="45.11949" lon="0.60191">
        <ele>200.6</ele>
        <time>2025-06-15T08:11:12Z</time>
      </trkpt>
      <trkpt lat="45.11944" lon="0.60191">
        <ele>200.8</ele>
        <time>2025-06-15T08:11:13Z</time>
      </trkpt>
      <trkpt lat="45.11939" lon="0.60192">
        <ele>200.8</ele>
        <time>2025-06-15T08:11:14Z</time>
      </trkpt>
      <trkpt lat="45.11934" lon="0.60193">
        <ele>200.8</ele>
        <time>2025-06-15T08:11:15Z</time>
      </trkpt>
      <trkpt lat="45.1193" lon="0.60194">
        <ele>200.8</ele>
        <time>2025-06-15T08:11:16Z</time>
      </trkpt>
      <trkpt lat="45.11925" lon="0.60194">
        <ele>200.8</ele>
        <time>2025-06-15T08:11:17Z</time>
      </trkpt>
      <trkpt lat="45.1192" lon="0.60195">
        <ele>200.8</ele>
        <time>2025-06-15T08:11:18Z</time>
      </trkpt>
      <trkpt lat="45.11915" lon="0.60196">
        <ele>201</ele>
        <time>2025-06-15T08:11:19Z</time>
      </trkpt>
      <trkpt lat="45.1191" lon="0.60197">
        <ele>201</ele>
        <time>2025-06-15T08:11:20Z</time>
      </trkpt>
      <trkpt lat="45.11905" lon="0.60197">
        <ele>201</ele>
        <time>2025-06-15T08:11:21Z</time>
      </trkpt>
      <trkpt lat="45.11901" lon="0.60198">
        <ele>201.2</ele>
        <time>2025-06-15T08:11:22Z</time>
      </trkpt>
      <trkpt lat="45.11896" lon="0.60199">
        <ele>201.4</ele>
        <time>2025-06-15T08:11:23Z</time>
      </trkpt>
      <trkpt lat="45.11891" lon="0.602">
        <ele>201.6</ele>
        <time>2025-06-15T08:11:24Z</time>
      </trkpt>
      <trkpt lat="45.11887" lon="0.602">
        <ele>201.6</ele>
        <time>2025-06-15T08:11:25Z</time>
      </trkpt>
      <trkpt lat="45.11882" lon="0.60201">
        <ele>201.8</ele>
        <time>2025-06-15T08:11:26Z</time>
      </trkpt>
      <trkpt lat="45.11878" lon="0.60202">
        <ele>202</ele>
        <time>2025-06-15T08:11:27Z</time>
      </trkpt>
      <trkpt lat="45.11873" lon="0.60202">
        <ele>202.2</ele>
        <time>2025-06-15T08:11:28Z</time>
      </trkpt>
      <trkpt lat="45.11869" lon="0.60203">
        <ele>202.4</ele>
        <time>2025-06-15T08:11:29Z</time>
      </trkpt>
      <trkpt lat="45.11864" lon="0.60204">
        <ele>202.4</ele>
        <time>2025-06-15T08:11:30Z</time>
      </trkpt>
      <trkpt lat="45.1186" lon="0.60204">
        <ele>202.6</ele>
        <time>2025-06-15T08:11:31Z</time>
      </trkpt>
      <trkpt lat="45.11855" lon="0.60205">
        <ele>202.8</ele>
        <time>2025-06-15T08:11:32Z</time>
      </trkpt>
      <trkpt lat="45.11851" lon="0.60206">
        <ele>202.8</ele>
        <time>2025-06-15T08:11:33Z</time>
      </trkpt>
      <trkpt lat="45.11846" lon="0.60207">
        <ele>203</ele>
        <time>2025-06-15T08:11:34Z</time>
      </trkpt>
      <trkpt lat="45.11841" lon="0.60207">
        <ele>203.4</ele>
        <time>2025-06-15T08:11:35Z</time>
      </trkpt>
      <trkpt lat="45.11837" lon="0.60208">
        <ele>203.6</ele>
        <time>2025-06-15T08:11:36Z</time>
      </trkpt>
      <trkpt lat="45.11832" lon="0.60209">
        <ele>203.6</ele>
        <time>2025-06-15T08:11:37Z</time>
      </trkpt>
      <trkpt lat="45.11828" lon="0.60209">
        <ele>203.8</ele>
        <time>2025-06-15T08:11:38Z</time>
      </trkpt>
      <trkpt lat="45.11823" lon="0.6021">
        <ele>204</ele>
        <time>2025-06-15T08:11:39Z</time>
      </trkpt>
      <trkpt lat="45.11818" lon="0.6021">
        <ele>204</ele>
        <time>2025-06-15T08:11:40Z</time>
      </trkpt>
      <trkpt lat="45.11814" lon="0.60211">
        <ele>204.2</ele>
        <time>2025-06-15T08:11:41Z</time>
      </trkpt>
      <trkpt lat="45.11809" lon="0.60212">
        <ele>204.4</ele>
        <time>2025-06-15T08:11:42Z</time>
      </trkpt>
      <trkpt lat="45.11805" lon="0.60213">
        <ele>204.6</ele>
        <time>2025-06-15T08:11:43Z</time>
      </trkpt>
      <trkpt lat="45.118" lon="0.60214">
        <ele>204.6</ele>
        <time>2025-06-15T08:11:44Z</time>
      </trkpt>
      <trkpt lat="45.11796" lon="0.60215">
        <ele>204.8</ele>
        <time>2025-06-15T08:11:45Z</time>
      </trkpt>
      <trkpt lat="45.11791" lon="0.60216">
        <ele>204.8</ele>
        <time>2025-06-15T08:11:46Z</time>
      </trkpt>
      <trkpt lat="45.11786" lon="0.60216">
        <ele>205</ele>
        <time>2025-06-15T08:11:47Z</time>
      </trkpt>
      <trkpt lat="45.11782" lon="0.60217">
        <ele>205</ele>
        <time>2025-06-15T08:11:48Z</time>
      </trkpt>
      <trkpt lat="45.11777" lon="0.60218">
        <ele>205</ele>
        <time>2025-06-15T08:11:49Z</time>
      </trkpt>
      <trkpt lat="45.11772" lon="0.60218">
        <ele>205.2</ele>
        <time>2025-06-15T08:11:50Z</time>
      </trkpt>
      <trkpt lat="45.11767" lon="0.60219">
        <ele>205.2</ele>
        <time>2025-06-15T08:11:51Z</time>
      </trkpt>
      <trkpt lat="45.11762" lon="0.6022">
        <ele>205.4</ele>
        <time>2025-06-15T08:11:52Z</time>
      </trkpt>
      <trkpt lat="45.11758" lon="0.60221">
        <ele>205.4</ele>
        <time>2025-06-15T08:11:53Z</time>
      </trkpt>
      <trkpt lat="45.11753" lon="0.60222">
        <ele>205.4</ele>
        <time>2025-06-15T08:11:54Z</time>
      </trkpt>
      <trkpt lat="45.11748" lon="0.60222">
        <ele>205.4</ele>
        <time>2025-06-15T08:11:55Z</time>
      </trkpt>
      <trkpt lat="45.11743" lon="0.60224">
        <ele>205.4</ele>
        <time>2025-06-15T08:11:56Z</time>
      </trkpt>
      <trkpt lat="45.11738" lon="0.60225">
        <ele>205.4</ele>
        <time>2025-06-15T08:11:57Z</time>
      </trkpt>
      <trkpt lat="45.11733" lon="0.60225">
        <ele>205.4</ele>
        <time>2025-06-15T08:11:58Z</time>
      </trkpt>
      <trkpt lat="45.11727" lon="0.60226">
        <ele>205.4</ele>
        <time>2025-06-15T08:11:59Z</time>
      </trkpt>
      <trkpt lat="45.11722" lon="0.60227">
        <ele>205.4</ele>
        <time>2025-06-15T08:12:00Z</time>
      </trkpt>
      <trkpt lat="45.11717" lon="0.60228">
        <ele>205.4</ele>
        <time>2025-06-15T08:12:01Z</time>
      </trkpt>
      <trkpt lat="45.11711" lon="0.60229">
        <ele>205.2</ele>
        <time>2025-06-15T08:12:02Z</time>
      </trkpt>
      <trkpt lat="45.11706" lon="0.6023">
        <ele>205.2</ele>
        <time>2025-06-15T08:12:03Z</time>
      </trkpt>
      <trkpt lat="45.117" lon="0.60231">
        <ele>205.2</ele>
        <time>2025-06-15T08:12:04Z</time>
      </trkpt>
      <trkpt lat="45.11694" lon="0.60232">
        <ele>205</ele>
        <time>2025-06-15T08:12:05Z</time>
      </trkpt>
      <trkpt lat="45.11689" lon="0.60233">
        <ele>205</ele>
        <time>2025-06-15T08:12:06Z</time>
      </trkpt>
      <trkpt lat="45.11683" lon="0.60233">
        <ele>204.8</ele>
        <time>2025-06-15T08:12:07Z</time>
      </trkpt>
      <trkpt lat="45.11678" lon="0.60234">
        <ele>204.8</ele>
        <time>2025-06-15T08:12:08Z</time>
      </trkpt>
      <trkpt lat="45.11672" lon="0.60235">
        <ele>204.8</ele>
        <time>2025-06-15T08:12:09Z</time>
      </trkpt>
      <trkpt lat="45.11667" lon="0.60236">
        <ele>204.6</ele>
        <time>2025-06-15T08:12:10Z</time>
      </trkpt>
      <trkpt lat="45.11661" lon="0.60237">
        <ele>204.6</ele>
        <time>2025-06-15T08:12:11Z</time>
      </trkpt>
      <trkpt lat="45.11656" lon="0.60237">
        <ele>204.6</ele>
        <time>2025-06-15T08:12:12Z</time>
      </trkpt>
      <trkpt lat="45.1165" lon="0.60238">
        <ele>204.4</ele>
        <time>2025-06-15T08:12:13Z</time>
      </trkpt>
      <trkpt lat="45.11645" lon="0.60239">
        <ele>204.4</ele>
        <time>2025-06-15T08:12:14Z</time>
      </trkpt>
      <trkpt lat="45.11639" lon="0.6024">
        <ele>204.4</ele>
        <time>2025-06-15T08:12:15Z</time>
      </trkpt>
      <trkpt lat="45.11634" lon="0.60241">
        <ele>204.4</ele>
        <time>2025-06-15T08:12:16Z</time>
      </trkpt>
      <trkpt lat="45.11628" lon="0.60242">
        <ele>204.4</ele>
        <time>2025-06-15T08:12:17Z</time>
      </trkpt>
      <trkpt lat="45.11623" lon="0.60243">
        <ele>204.4</ele>
        <time>2025-06-15T08:12:18Z</time>
      </trkpt>
      <trkpt lat="45.11617" lon="0.60244">
        <ele>204.4</ele>
        <time>2025-06-15T08:12:19Z</time>
      </trkpt>
      <trkpt lat="45.11612" lon="0.60245">
        <ele>204.4</ele>
        <time>2025-06-15T08:12:20Z</time>
      </trkpt>
      <trkpt lat="45.11606" lon="0.60246">
        <ele>204.4</ele>
        <time>2025-06-15T08:12:21Z</time>
      </trkpt>
      <trkpt lat="45.116" lon="0.60247">
        <ele>204.6</ele>
        <time>2025-06-15T08:12:22Z</time>
      </trkpt>
      <trkpt lat="45.11594" lon="0.60248">
        <ele>204.6</ele>
        <time>2025-06-15T08:12:23Z</time>
      </trkpt>
      <trkpt lat="45.11588" lon="0.60249">
        <ele>204.6</ele>
        <time>2025-06-15T08:12:24Z</time>
      </trkpt>
      <trkpt lat="45.11583" lon="0.6025">
        <ele>204.6</ele>
        <time>2025-06-15T08:12:25Z</time>
      </trkpt>
      <trkpt lat="45.11577" lon="0.60251">
        <ele>204.6</ele>
        <time>2025-06-15T08:12:26Z</time>
      </trkpt>
      <trkpt lat="45.11571" lon="0.60253">
        <ele>204.8</ele>
        <time>2025-06-15T08:12:27Z</time>
      </trkpt>
      <trkpt lat="45.11565" lon="0.60254">
        <ele>204.8</ele>
        <time>2025-06-15T08:12:28Z</time>
      </trkpt>
      <trkpt lat="45.1156" lon="0.60255">
        <ele>204.8</ele>
        <time>2025-06-15T08:12:29Z</time>
      </trkpt>
      <trkpt lat="45.11554" lon="0.60256">
        <ele>204.8</ele>
        <time>2025-06-15T08:12:30Z</time>
      </trkpt>
      <trkpt lat="45.11548" lon="0.60257">
        <ele>204.8</ele>
        <time>2025-06-15T08:12:31Z</time>
      </trkpt>
      <trkpt lat="45.11543" lon="0.60258">
        <ele>205</ele>
        <time>2025-06-15T08:12:32Z</time>
      </trkpt>
      <trkpt lat="45.11537" lon="0.60259">
        <ele>205</ele>
        <time>2025-06-15T08:12:33Z</time>
      </trkpt>
      <trkpt lat="45.11531" lon="0.6026">
        <ele>205.2</ele>
        <time>2025-06-15T08:12:34Z</time>
      </trkpt>
      <trkpt lat="45.11526" lon="0.6026">
        <ele>205.2</ele>
        <time>2025-06-15T08:12:35Z</time>
      </trkpt>
      <trkpt lat="45.11521" lon="0.60261">
        <ele>205.4</ele>
        <time>2025-06-15T08:12:36Z</time>
      </trkpt>
      <trkpt lat="45.11516" lon="0.60262">
        <ele>205.6</ele>
        <time>2025-06-15T08:12:37Z</time>
      </trkpt>
      <trkpt lat="45.11511" lon="0.60263">
        <ele>205.6</ele>
        <time>2025-06-15T08:12:38Z</time>
      </trkpt>
      <trkpt lat="45.11505" lon="0.60264">
        <ele>205.8</ele>
        <time>2025-06-15T08:12:39Z</time>
      </trkpt>
      <trkpt lat="45.11501" lon="0.60265">
        <ele>206</ele>
        <time>2025-06-15T08:12:40Z</time>
      </trkpt>
      <trkpt lat="45.11496" lon="0.60266">
        <ele>206</ele>
        <time>2025-06-15T08:12:41Z</time>
      </trkpt>
      <trkpt lat="45.11491" lon="0.60267">
        <ele>206.2</ele>
        <time>2025-06-15T08:12:42Z</time>
      </trkpt>
      <trkpt lat="45.11486" lon="0.60267">
        <ele>206.6</ele>
        <time>2025-06-15T08:12:43Z</time>
      </trkpt>
      <trkpt lat="45.11481" lon="0.60267">
        <ele>206.8</ele>
        <time>2025-06-15T08:12:44Z</time>
      </trkpt>
      <trkpt lat="45.11477" lon="0.60265">
        <ele>206.8</ele>
        <time>2025-06-15T08:12:45Z</time>
      </trkpt>
      <trkpt lat="45.11474" lon="0.60262">
        <ele>207</ele>
        <time>2025-06-15T08:12:46Z</time>
      </trkpt>
      <trkpt lat="45.11472" lon="0.60257">
        <ele>207</ele>
        <time>2025-06-15T08:12:47Z</time>
      </trkpt>
      <trkpt lat="45.11473" lon="0.60252">
        <ele>207.2</ele>
        <time>2025-06-15T08:12:48Z</time>
      </trkpt>
      <trkpt lat="45.11474" lon="0.60248">
        <ele>207.2</ele>
        <time>2025-06-15T08:12:49Z</time>
      </trkpt>
      <trkpt lat="45.11475" lon="0.60241">
        <ele>207.2</ele>
        <time>2025-06-15T08:12:50Z</time>
      </trkpt>
      <trkpt lat="45.11477" lon="0.60235">
        <ele>207.2</ele>
        <time>2025-06-15T08:12:51Z</time>
      </trkpt>
      <trkpt lat="45.11479" lon="0.60229">
        <ele>207.2</ele>
        <time>2025-06-15T08:12:52Z</time>
      </trkpt>
      <trkpt lat="45.11481" lon="0.60222">
        <ele>207</ele>
        <time>2025-06-15T08:12:53Z</time>
      </trkpt>
      <trkpt lat="45.11483" lon="0.60216">
        <ele>206.8</ele>
        <time>2025-06-15T08:12:54Z</time>
      </trkpt>
      <trkpt lat="45.11485" lon="0.60209">
        <ele>206.6</ele>
        <time>2025-06-15T08:12:55Z</time>
      </trkpt>
      <trkpt lat="45.11487" lon="0.60203">
        <ele>206.6</ele>
        <time>2025-06-15T08:12:56Z</time>
      </trkpt>
      <trkpt lat="45.11489" lon="0.60196">
        <ele>206.4</ele>
        <time>2025-06-15T08:12:57Z</time>
      </trkpt>
      <trkpt lat="45.11491" lon="0.60189">
        <ele>206.2</ele>
        <time>2025-06-15T08:12:58Z</time>
      </trkpt>
      <trkpt lat="45.11494" lon="0.60181">
        <ele>206</ele>
        <time>2025-06-15T08:12:59Z</time>
      </trkpt>
      <trkpt lat="45.11496" lon="0.60174">
        <ele>205.8</ele>
        <time>2025-06-15T08:13:00Z</time>
      </trkpt>
      <trkpt lat="45.11498" lon="0.60166">
        <ele>205.4</ele>
        <time>2025-06-15T08:13:01Z</time>
      </trkpt>
      <trkpt lat="45.11501" lon="0.60159">
        <ele>205.2</ele>
        <time>2025-06-15T08:13:02Z</time>
      </trkpt>
      <trkpt lat="45.11503" lon="0.6015">
        <ele>205</ele>
        <time>2025-06-15T08:13:03Z</time>
      </trkpt>
      <trkpt lat="45.11505" lon="0.60142">
        <ele>204.8</ele>
        <time>2025-06-15T08:13:04Z</time>
      </trkpt>
      <trkpt lat="45.11508" lon="0.60133">
        <ele>204.6</ele>
        <time>2025-06-15T08:13:05Z</time>
      </trkpt>
      <trkpt lat="45.1151" lon="0.60125">
        <ele>204.2</ele>
        <time>2025-06-15T08:13:06Z</time>
      </trkpt>
      <trkpt lat="45.11512" lon="0.60116">
        <ele>204</ele>
        <time>2025-06-15T08:13:07Z</time>
      </trkpt>
      <trkpt lat="45.11514" lon="0.60107">
        <ele>203.8</ele>
        <time>2025-06-15T08:13:08Z</time>
      </trkpt>
      <trkpt lat="45.11516" lon="0.60098">
        <ele>203.6</ele>
        <time>2025-06-15T08:13:09Z</time>
      </trkpt>
      <trkpt lat="45.11518" lon="0.60088">
        <ele>203.2</ele>
        <time>2025-06-15T08:13:10Z</time>
      </trkpt>
      <trkpt lat="45.1152" lon="0.60079">
        <ele>203</ele>
        <time>2025-06-15T08:13:11Z</time>
      </trkpt>
      <trkpt lat="45.11522" lon="0.6007">
        <ele>202.6</ele>
        <time>2025-06-15T08:13:12Z</time>
      </trkpt>
      <trkpt lat="45.11522" lon="0.60061">
        <ele>202.4</ele>
        <time>2025-06-15T08:13:13Z</time>
      </trkpt>
      <trkpt lat="45.11523" lon="0.60051">
        <ele>202.2</ele>
        <time>2025-06-15T08:13:14Z</time>
      </trkpt>
      <trkpt lat="45.11523" lon="0.60041">
        <ele>202</ele>
        <time>2025-06-15T08:13:15Z</time>
      </trkpt>
      <trkpt lat="45.11524" lon="0.60032">
        <ele>201.8</ele>
        <time>2025-06-15T08:13:16Z</time>
      </trkpt>
      <trkpt lat="45.11524" lon="0.60022">
        <ele>201.4</ele>
        <time>2025-06-15T08:13:17Z</time>
      </trkpt>
      <trkpt lat="45.11524" lon="0.60012">
        <ele>201.2</ele>
        <time>2025-06-15T08:13:18Z</time>
      </trkpt>
      <trkpt lat="45.11524" lon="0.60002">
        <ele>200.8</ele>
        <time>2025-06-15T08:13:19Z</time>
      </trkpt>
      <trkpt lat="45.11524" lon="0.59992">
        <ele>200.6</ele>
        <time>2025-06-15T08:13:20Z</time>
      </trkpt>
      <trkpt lat="45.11523" lon="0.59983">
        <ele>200.2</ele>
        <time>2025-06-15T08:13:21Z</time>
      </trkpt>
      <trkpt lat="45.11523" lon="0.59973">
        <ele>200</ele>
        <time>2025-06-15T08:13:22Z</time>
      </trkpt>
      <trkpt lat="45.11523" lon="0.59964">
        <ele>199.8</ele>
        <time>2025-06-15T08:13:23Z</time>
      </trkpt>
      <trkpt lat="45.11524" lon="0.59955">
        <ele>199.6</ele>
        <time>2025-06-15T08:13:24Z</time>
      </trkpt>
      <trkpt lat="45.11524" lon="0.59946">
        <ele>199.6</ele>
        <time>2025-06-15T08:13:25Z</time>
      </trkpt>
      <trkpt lat="45.11524" lon="0.59937">
        <ele>199.6</ele>
        <time>2025-06-15T08:13:26Z</time>
      </trkpt>
      <trkpt lat="45.11524" lon="0.59929">
        <ele>199.4</ele>
        <time>2025-06-15T08:13:27Z</time>
      </trkpt>
      <trkpt lat="45.11524" lon="0.59922">
        <ele>199.4</ele>
        <time>2025-06-15T08:13:28Z</time>
      </trkpt>
      <trkpt lat="45.11523" lon="0.59914">
        <ele>199.4</ele>
        <time>2025-06-15T08:13:29Z</time>
      </trkpt>
      <trkpt lat="45.11523" lon="0.59906">
        <ele>199.4</ele>
        <time>2025-06-15T08:13:30Z</time>
      </trkpt>
      <trkpt lat="45.11523" lon="0.59899">
        <ele>199.4</ele>
        <time>2025-06-15T08:13:31Z</time>
      </trkpt>
      <trkpt lat="45.11523" lon="0.59892">
        <ele>199.4</ele>
        <time>2025-06-15T08:13:32Z</time>
      </trkpt>
      <trkpt lat="45.11523" lon="0.59884">
        <ele>199.4</ele>
        <time>2025-06-15T08:13:33Z</time>
      </trkpt>
      <trkpt lat="45.11522" lon="0.59875">
        <ele>199.4</ele>
        <time>2025-06-15T08:13:34Z</time>
      </trkpt>
      <trkpt lat="45.11521" lon="0.59868">
        <ele>199.4</ele>
        <time>2025-06-15T08:13:35Z</time>
      </trkpt>
      <trkpt lat="45.1152" lon="0.5986">
        <ele>199.6</ele>
        <time>2025-06-15T08:13:36Z</time>
      </trkpt>
      <trkpt lat="45.11519" lon="0.59853">
        <ele>199.6</ele>
        <time>2025-06-15T08:13:37Z</time>
      </trkpt>
      <trkpt lat="45.11518" lon="0.59847">
        <ele>199.6</ele>
        <time>2025-06-15T08:13:38Z</time>
      </trkpt>
      <trkpt lat="45.11516" lon="0.5984">
        <ele>199.8</ele>
        <time>2025-06-15T08:13:39Z</time>
      </trkpt>
      <trkpt lat="45.11515" lon="0.59834">
        <ele>200</ele>
        <time>2025-06-15T08:13:40Z</time>
      </trkpt>
      <trkpt lat="45.11514" lon="0.59828">
        <ele>200</ele>
        <time>2025-06-15T08:13:41Z</time>
      </trkpt>
      <trkpt lat="45.11512" lon="0.59821">
        <ele>200.2</ele>
        <time>2025-06-15T08:13:42Z</time>
      </trkpt>
      <trkpt lat="45.1151" lon="0.59815">
        <ele>200.2</ele>
        <time>2025-06-15T08:13:43Z</time>
      </trkpt>
      <trkpt lat="45.11508" lon="0.59809">
        <ele>200.4</ele>
        <time>2025-06-15T08:13:44Z</time>
      </trkpt>
      <trkpt lat="45.11506" lon="0.59804">
        <ele>200.6</ele>
        <time>2025-06-15T08:13:45Z</time>
      </trkpt>
      <trkpt lat="45.11503" lon="0.59798">
        <ele>200.8</ele>
        <time>2025-06-15T08:13:46Z</time>
      </trkpt>
      <trkpt lat="45.11501" lon="0.59793">
        <ele>201</ele>
        <time>2025-06-15T08:13:47Z</time>
      </trkpt>
      <trkpt lat="45.11498" lon="0.59787">
        <ele>201.2</ele>
        <time>2025-06-15T08:13:48Z</time>
      </trkpt>
      <trkpt lat="45.11496" lon="0.59781">
        <ele>201.4</ele>
        <time>2025-06-15T08:13:49Z</time>
      </trkpt>
      <trkpt lat="45.11493" lon="0.59775">
        <ele>201.6</ele>
        <time>2025-06-15T08:13:50Z</time>
      </trkpt>
      <trkpt lat="45.11491" lon="0.5977">
        <ele>201.8</ele>
        <time>2025-06-15T08:13:51Z</time>
      </trkpt>
      <trkpt lat="45.11489" lon="0.59764">
        <ele>202</ele>
        <time>2025-06-15T08:13:52Z</time>
      </trkpt>
      <trkpt lat="45.11486" lon="0.59759">
        <ele>202.2</ele>
        <time>2025-06-15T08:13:53Z</time>
      </trkpt>
      <trkpt lat="45.11484" lon="0.59753">
        <ele>202.4</ele>
        <time>2025-06-15T08:13:54Z</time>
      </trkpt>
      <trkpt lat="45.11481" lon="0.59748">
        <ele>202.6</ele>
        <time>2025-06-15T08:13:55Z</time>
      </trkpt>
      <trkpt lat="45.11479" lon="0.59743">
        <ele>202.6</ele>
        <time>2025-06-15T08:13:56Z</time>
      </trkpt>
      <trkpt lat="45.11476" lon="0.59738">
        <ele>202.8</ele>
        <time>2025-06-15T08:13:57Z</time>
      </trkpt>
      <trkpt lat="45.11474" lon="0.59732">
        <ele>203</ele>
        <time>2025-06-15T08:13:58Z</time>
      </trkpt>
      <trkpt lat="45.11471" lon="0.59727">
        <ele>203</ele>
        <time>2025-06-15T08:13:59Z</time>
      </trkpt>
      <trkpt lat="45.11468" lon="0.59721">
        <ele>203.2</ele>
        <time>2025-06-15T08:14:00Z</time>
      </trkpt>
      <trkpt lat="45.11466" lon="0.59715">
        <ele>203.2</ele>
        <time>2025-06-15T08:14:01Z</time>
      </trkpt>
      <trkpt lat="45.11463" lon="0.59709">
        <ele>203.2</ele>
        <time>2025-06-15T08:14:02Z</time>
      </trkpt>
      <trkpt lat="45.1146" lon="0.59703">
        <ele>203</ele>
        <time>2025-06-15T08:14:03Z</time>
      </trkpt>
      <trkpt lat="45.11457" lon="0.59696">
        <ele>203</ele>
        <time>2025-06-15T08:14:04Z</time>
      </trkpt>
      <trkpt lat="45.11454" lon="0.59689">
        <ele>202.8</ele>
        <time>2025-06-15T08:14:05Z</time>
      </trkpt>
      <trkpt lat="45.1145" lon="0.59682">
        <ele>202.6</ele>
        <time>2025-06-15T08:14:06Z</time>
      </trkpt>
      <trkpt lat="45.11447" lon="0.59675">
        <ele>202.4</ele>
        <time>2025-06-15T08:14:07Z</time>
      </trkpt>
      <trkpt lat="45.11444" lon="0.59668">
        <ele>202.2</ele>
        <time>2025-06-15T08:14:08Z</time>
      </trkpt>
      <trkpt lat="45.11441" lon="0.59661">
        <ele>202</ele>
        <time>2025-06-15T08:14:09Z</time>
      </trkpt>
      <trkpt lat="45.11438" lon="0.59653">
        <ele>201.6</ele>
        <time>2025-06-15T08:14:10Z</time>
      </trkpt>
      <trkpt lat="45.11434" lon="0.59647">
        <ele>201.4</ele>
        <time>2025-06-15T08:14:11Z</time>
      </trkpt>
      <trkpt lat="45.11431" lon="0.5964">
        <ele>201.2</ele>
        <time>2025-06-15T08:14:12Z</time>
      </trkpt>
      <trkpt lat="45.11428" lon="0.59634">
        <ele>201.2</ele>
        <time>2025-06-15T08:14:13Z</time>
      </trkpt>
      <trkpt lat="45.11425" lon="0.59628">
        <ele>201</ele>
        <time>2025-06-15T08:14:14Z</time>
      </trkpt>
      <trkpt lat="45.11422" lon="0.59624">
        <ele>201</ele>
        <time>2025-06-15T08:14:15Z</time>
      </trkpt>
      <trkpt lat="45.11418" lon="0.59623">
        <ele>201</ele>
        <time>2025-06-15T08:14:16Z</time>
      </trkpt>
      <trkpt lat="45.11414" lon="0.59624">
        <ele>201.2</ele>
        <time>2025-06-15T08:14:17Z</time>
      </trkpt>
      <trkpt lat="45.11411" lon="0.59627">
        <ele>201.2</ele>
        <time>2025-06-15T08:14:18Z</time>
      </trkpt>
      <trkpt lat="45.11407" lon="0.59629">
        <ele>201.2</ele>
        <time>2025-06-15T08:14:19Z</time>
      </trkpt>
      <trkpt lat="45.11403" lon="0.59631">
        <ele>201.2</ele>
        <time>2025-06-15T08:14:20Z</time>
      </trkpt>
      <trkpt lat="45.11398" lon="0.59633">
        <ele>201</ele>
        <time>2025-06-15T08:14:21Z</time>
      </trkpt>
      <trkpt lat="45.11393" lon="0.59635">
        <ele>200.8</ele>
        <time>2025-06-15T08:14:22Z</time>
      </trkpt>
      <trkpt lat="45.11389" lon="0.5964">
        <ele>200.6</ele>
        <time>2025-06-15T08:14:23Z</time>
      </trkpt>
      <trkpt lat="45.11385" lon="0.59646">
        <ele>200.4</ele>
        <time>2025-06-15T08:14:24Z</time>
      </trkpt>
      <trkpt lat="45.11382" lon="0.59653">
        <ele>200</ele>
        <time>2025-06-15T08:14:25Z</time>
      </trkpt>
      <trkpt lat="45.11379" lon="0.59662">
        <ele>199.6</ele>
        <time>2025-06-15T08:14:26Z</time>
      </trkpt>
      <trkpt lat="45.11376" lon="0.59671">
        <ele>199</ele>
        <time>2025-06-15T08:14:27Z</time>
      </trkpt>
      <trkpt lat="45.11371" lon="0.5968">
        <ele>198.4</ele>
        <time>2025-06-15T08:14:28Z</time>
      </trkpt>
      <trkpt lat="45.11366" lon="0.59687">
        <ele>197.6</ele>
        <time>2025-06-15T08:14:29Z</time>
      </trkpt>
      <trkpt lat="45.1136" lon="0.59695">
        <ele>196.6</ele>
        <time>2025-06-15T08:14:30Z</time>
      </trkpt>
      <trkpt lat="45.11353" lon="0.59701">
        <ele>195.6</ele>
        <time>2025-06-15T08:14:31Z</time>
      </trkpt>
      <trkpt lat="45.11347" lon="0.59707">
        <ele>194.8</ele>
        <time>2025-06-15T08:14:32Z</time>
      </trkpt>
      <trkpt lat="45.1134" lon="0.59712">
        <ele>194.2</ele>
        <time>2025-06-15T08:14:33Z</time>
      </trkpt>
      <trkpt lat="45.11333" lon="0.59716">
        <ele>193.4</ele>
        <time>2025-06-15T08:14:34Z</time>
      </trkpt>
      <trkpt lat="45.11326" lon="0.5972">
        <ele>192.4</ele>
        <time>2025-06-15T08:14:35Z</time>
      </trkpt>
      <trkpt lat="45.11319" lon="0.59723">
        <ele>191.2</ele>
        <time>2025-06-15T08:14:36Z</time>
      </trkpt>
      <trkpt lat="45.11311" lon="0.59729">
        <ele>190</ele>
        <time>2025-06-15T08:14:37Z</time>
      </trkpt>
      <trkpt lat="45.11304" lon="0.59735">
        <ele>189</ele>
        <time>2025-06-15T08:14:38Z</time>
      </trkpt>
      <trkpt lat="45.11298" lon="0.59742">
        <ele>188.2</ele>
        <time>2025-06-15T08:14:39Z</time>
      </trkpt>
      <trkpt lat="45.11291" lon="0.59749">
        <ele>187</ele>
        <time>2025-06-15T08:14:40Z</time>
      </trkpt>
      <trkpt lat="45.11284" lon="0.59756">
        <ele>185.6</ele>
        <time>2025-06-15T08:14:41Z</time>
      </trkpt>
      <trkpt lat="45.11277" lon="0.59763">
        <ele>184.6</ele>
        <time>2025-06-15T08:14:42Z</time>
      </trkpt>
      <trkpt lat="45.11269" lon="0.59772">
        <ele>183.6</ele>
        <time>2025-06-15T08:14:43Z</time>
      </trkpt>
      <trkpt lat="45.11261" lon="0.59779">
        <ele>182.4</ele>
        <time>2025-06-15T08:14:44Z</time>
      </trkpt>
      <trkpt lat="45.11252" lon="0.59787">
        <ele>181</ele>
        <time>2025-06-15T08:14:45Z</time>
      </trkpt>
      <trkpt lat="45.11244" lon="0.59792">
        <ele>179.4</ele>
        <time>2025-06-15T08:14:46Z</time>
      </trkpt>
      <trkpt lat="45.11236" lon="0.59797">
        <ele>177.6</ele>
        <time>2025-06-15T08:14:47Z</time>
      </trkpt>
      <trkpt lat="45.1123" lon="0.59803">
        <ele>176.2</ele>
        <time>2025-06-15T08:14:48Z</time>
      </trkpt>
      <trkpt lat="45.11226" lon="0.59811">
        <ele>175</ele>
        <time>2025-06-15T08:14:49Z</time>
      </trkpt>
      <trkpt lat="45.11223" lon="0.5982">
        <ele>174.2</ele>
        <time>2025-06-15T08:14:50Z</time>
      </trkpt>
      <trkpt lat="45.11222" lon="0.59829">
        <ele>173.6</ele>
        <time>2025-06-15T08:14:51Z</time>
      </trkpt>
      <trkpt lat="45.11221" lon="0.59838">
        <ele>172.8</ele>
        <time>2025-06-15T08:14:52Z</time>
      </trkpt>
      <trkpt lat="45.11221" lon="0.59847">
        <ele>172.2</ele>
        <time>2025-06-15T08:14:53Z</time>
      </trkpt>
      <trkpt lat="45.11221" lon="0.59857">
        <ele>171.6</ele>
        <time>2025-06-15T08:14:54Z</time>
      </trkpt>
      <trkpt lat="45.11222" lon="0.59868">
        <ele>171.2</ele>
        <time>2025-06-15T08:14:55Z</time>
      </trkpt>
      <trkpt lat="45.11223" lon="0.59878">
        <ele>170.8</ele>
        <time>2025-06-15T08:14:56Z</time>
      </trkpt>
      <trkpt lat="45.11225" lon="0.59887">
        <ele>170.4</ele>
        <time>2025-06-15T08:14:57Z</time>
      </trkpt>
      <trkpt lat="45.11229" lon="0.59896">
        <ele>170</ele>
        <time>2025-06-15T08:14:58Z</time>
      </trkpt>
      <trkpt lat="45.11232" lon="0.59905">
        <ele>169.8</ele>
        <time>2025-06-15T08:14:59Z</time>
      </trkpt>
      <trkpt lat="45.11236" lon="0.59914">
        <ele>169.4</ele>
        <time>2025-06-15T08:15:00Z</time>
      </trkpt>
      <trkpt lat="45.11237" lon="0.59923">
        <ele>168.8</ele>
        <time>2025-06-15T08:15:01Z</time>
      </trkpt>
      <trkpt lat="45.11237" lon="0.59932">
        <ele>168</ele>
        <time>2025-06-15T08:15:02Z</time>
      </trkpt>
      <trkpt lat="45.11235" lon="0.59942">
        <ele>167.2</ele>
        <time>2025-06-15T08:15:03Z</time>
      </trkpt>
      <trkpt lat="45.11231" lon="0.5995">
        <ele>166</ele>
        <time>2025-06-15T08:15:04Z</time>
      </trkpt>
      <trkpt lat="45.11225" lon="0.5996">
        <ele>164.8</ele>
        <time>2025-06-15T08:15:05Z</time>
      </trkpt>
      <trkpt lat="45.11218" lon="0.59966">
        <ele>163.8</ele>
        <time>2025-06-15T08:15:06Z</time>
      </trkpt>
      <trkpt lat="45.1121" lon="0.59972">
        <ele>163</ele>
        <time>2025-06-15T08:15:07Z</time>
      </trkpt>
      <trkpt lat="45.11202" lon="0.59977">
        <ele>162</ele>
        <time>2025-06-15T08:15:08Z</time>
      </trkpt>
      <trkpt lat="45.11194" lon="0.59981">
        <ele>161.2</ele>
        <time>2025-06-15T08:15:09Z</time>
      </trkpt>
      <trkpt lat="45.11186" lon="0.59985">
        <ele>160.2</ele>
        <time>2025-06-15T08:15:10Z</time>
      </trkpt>
      <trkpt lat="45.11178" lon="0.59988">
        <ele>159.8</ele>
        <time>2025-06-15T08:15:11Z</time>
      </trkpt>
      <trkpt lat="45.1117" lon="0.59992">
        <ele>159.2</ele>
        <time>2025-06-15T08:15:12Z</time>
      </trkpt>
      <trkpt lat="45.11163" lon="0.59996">
        <ele>158.8</ele>
        <time>2025-06-15T08:15:13Z</time>
      </trkpt>
      <trkpt lat="45.11155" lon="0.6">
        <ele>158.4</ele>
        <time>2025-06-15T08:15:14Z</time>
      </trkpt>
      <trkpt lat="45.11148" lon="0.60004">
        <ele>158</ele>
        <time>2025-06-15T08:15:15Z</time>
      </trkpt>
      <trkpt lat="45.1114" lon="0.60009">
        <ele>157.8</ele>
        <time>2025-06-15T08:15:16Z</time>
      </trkpt>
      <trkpt lat="45.11133" lon="0.60014">
        <ele>157.4</ele>
        <time>2025-06-15T08:15:17Z</time>
      </trkpt>
      <trkpt lat="45.11125" lon="0.6002">
        <ele>157</ele>
        <time>2025-06-15T08:15:18Z</time>
      </trkpt>
      <trkpt lat="45.11117" lon="0.60024">
        <ele>156.8</ele>
        <time>2025-06-15T08:15:19Z</time>
      </trkpt>
      <trkpt lat="45.11109" lon="0.60025">
        <ele>156.2</ele>
        <time>2025-06-15T08:15:20Z</time>
      </trkpt>
      <trkpt lat="45.111" lon="0.60027">
        <ele>155.8</ele>
        <time>2025-06-15T08:15:21Z</time>
      </trkpt>
      <trkpt lat="45.11091" lon="0.60027">
        <ele>155.2</ele>
        <time>2025-06-15T08:15:22Z</time>
      </trkpt>
      <trkpt lat="45.11082" lon="0.60026">
        <ele>154.8</ele>
        <time>2025-06-15T08:15:23Z</time>
      </trkpt>
      <trkpt lat="45.11074" lon="0.60026">
        <ele>154.4</ele>
        <time>2025-06-15T08:15:24Z</time>
      </trkpt>
      <trkpt lat="45.11065" lon="0.60027">
        <ele>154</ele>
        <time>2025-06-15T08:15:25Z</time>
      </trkpt>
      <trkpt lat="45.11056" lon="0.60028">
        <ele>153.6</ele>
        <time>2025-06-15T08:15:26Z</time>
      </trkpt>
      <trkpt lat="45.11048" lon="0.60028">
        <ele>153.2</ele>
        <time>2025-06-15T08:15:27Z</time>
      </trkpt>
      <trkpt lat="45.1104" lon="0.60029">
        <ele>153</ele>
        <time>2025-06-15T08:15:28Z</time>
      </trkpt>
      <trkpt lat="45.11032" lon="0.6003">
        <ele>152.8</ele>
        <time>2025-06-15T08:15:29Z</time>
      </trkpt>
      <trkpt lat="45.11024" lon="0.60032">
        <ele>152.4</ele>
        <time>2025-06-15T08:15:30Z</time>
      </trkpt>
      <trkpt lat="45.11016" lon="0.60035">
        <ele>152.2</ele>
        <time>2025-06-15T08:15:31Z</time>
      </trkpt>
      <trkpt lat="45.11007" lon="0.60037">
        <ele>151.8</ele>
        <time>2025-06-15T08:15:32Z</time>
      </trkpt>
      <trkpt lat="45.10999" lon="0.6004">
        <ele>151.2</ele>
        <time>2025-06-15T08:15:33Z</time>
      </trkpt>
      <trkpt lat="45.10992" lon="0.60043">
        <ele>150.8</ele>
        <time>2025-06-15T08:15:34Z</time>
      </trkpt>
      <trkpt lat="45.10984" lon="0.60046">
        <ele>150.4</ele>
        <time>2025-06-15T08:15:35Z</time>
      </trkpt>
      <trkpt lat="45.10976" lon="0.60048">
        <ele>150</ele>
        <time>2025-06-15T08:15:36Z</time>
      </trkpt>
      <trkpt lat="45.10968" lon="0.60051">
        <ele>149.6</ele>
        <time>2025-06-15T08:15:37Z</time>
      </trkpt>
      <trkpt lat="45.1096" lon="0.60053">
        <ele>149.6</ele>
        <time>2025-06-15T08:15:38Z</time>
      </trkpt>
      <trkpt lat="45.10953" lon="0.60055">
        <ele>149.2</ele>
        <time>2025-06-15T08:15:39Z</time>
      </trkpt>
      <trkpt lat="45.10945" lon="0.60055">
        <ele>149.2</ele>
        <time>2025-06-15T08:15:40Z</time>
      </trkpt>
      <trkpt lat="45.10938" lon="0.60056">
        <ele>149</ele>
        <time>2025-06-15T08:15:41Z</time>
      </trkpt>
      <trkpt lat="45.10931" lon="0.60055">
        <ele>149</ele>
        <time>2025-06-15T08:15:42Z</time>
      </trkpt>
      <trkpt lat="45.10925" lon="0.60054">
        <ele>148.8</ele>
        <time>2025-06-15T08:15:43Z</time>
      </trkpt>
      <trkpt lat="45.10918" lon="0.60051">
        <ele>148.8</ele>
        <time>2025-06-15T08:15:44Z</time>
      </trkpt>
      <trkpt lat="45.10912" lon="0.60049">
        <ele>148.8</ele>
        <time>2025-06-15T08:15:45Z</time>
      </trkpt>
      <trkpt lat="45.10906" lon="0.60047">
        <ele>148.8</ele>
        <time>2025-06-15T08:15:46Z</time>
      </trkpt>
      <trkpt lat="45.10901" lon="0.60047">
        <ele>149</ele>
        <time>2025-06-15T08:15:47Z</time>
      </trkpt>
      <trkpt lat="45.10895" lon="0.60047">
        <ele>149.2</ele>
        <time>2025-06-15T08:15:48Z</time>
      </trkpt>
      <trkpt lat="45.1089" lon="0.60047">
        <ele>149.4</ele>
        <time>2025-06-15T08:15:49Z</time>
      </trkpt>
      <trkpt lat="45.10885" lon="0.60048">
        <ele>149.8</ele>
        <time>2025-06-15T08:15:50Z</time>
      </trkpt>
      <trkpt lat="45.10881" lon="0.60048">
        <ele>150.2</ele>
        <time>2025-06-15T08:15:51Z</time>
      </trkpt>
      <trkpt lat="45.10877" lon="0.60049">
        <ele>150.6</ele>
        <time>2025-06-15T08:15:52Z</time>
      </trkpt>
      <trkpt lat="45.10873" lon="0.6005">
        <ele>151</ele>
        <time>2025-06-15T08:15:53Z</time>
      </trkpt>
      <trkpt lat="45.10869" lon="0.60052">
        <ele>151.2</ele>
        <time>2025-06-15T08:15:54Z</time>
      </trkpt>
      <trkpt lat="45.10866" lon="0.60053">
        <ele>151.6</ele>
        <time>2025-06-15T08:15:55Z</time>
      </trkpt>
      <trkpt lat="45.10862" lon="0.60055">
        <ele>152</ele>
        <time>2025-06-15T08:15:56Z</time>
      </trkpt>
      <trkpt lat="45.10859" lon="0.60056">
        <ele>152.4</ele>
        <time>2025-06-15T08:15:57Z</time>
      </trkpt>
      <trkpt lat="45.10855" lon="0.60057">
        <ele>152.6</ele>
        <time>2025-06-15T08:15:58Z</time>
      </trkpt>
      <trkpt lat="45.10851" lon="0.60059">
        <ele>153</ele>
        <time>2025-06-15T08:15:59Z</time>
      </trkpt>
      <trkpt lat="45.10847" lon="0.6006">
        <ele>153.2</ele>
        <time>2025-06-15T08:16:00Z</time>
      </trkpt>
      <trkpt lat="45.10844" lon="0.60061">
        <ele>153.6</ele>
        <time>2025-06-15T08:16:01Z</time>
      </trkpt>
      <trkpt lat="45.10841" lon="0.60061">
        <ele>153.8</ele>
        <time>2025-06-15T08:16:02Z</time>
      </trkpt>
      <trkpt lat="45.10838" lon="0.60062">
        <ele>154</ele>
        <time>2025-06-15T08:16:03Z</time>
      </trkpt>
      <trkpt lat="45.10836" lon="0.60063">
        <ele>154.4</ele>
        <time>2025-06-15T08:16:04Z</time>
      </trkpt>
      <trkpt lat="45.10834" lon="0.60063">
        <ele>154.6</ele>
        <time>2025-06-15T08:16:05Z</time>
      </trkpt>
      <trkpt lat="45.10831" lon="0.60064">
        <ele>155.2</ele>
        <time>2025-06-15T08:16:06Z</time>
      </trkpt>
      <trkpt lat="45.10828" lon="0.60064">
        <ele>155.4</ele>
        <time>2025-06-15T08:16:07Z</time>
      </trkpt>
      <trkpt lat="45.10825" lon="0.60065">
        <ele>155.8</ele>
        <time>2025-06-15T08:16:08Z</time>
      </trkpt>
      <trkpt lat="45.10823" lon="0.60065">
        <ele>156.2</ele>
        <time>2025-06-15T08:16:09Z</time>
      </trkpt>
      <trkpt lat="45.1082" lon="0.60066">
        <ele>156.4</ele>
        <time>2025-06-15T08:16:10Z</time>
      </trkpt>
      <trkpt lat="45.10818" lon="0.60068">
        <ele>156.6</ele>
        <time>2025-06-15T08:16:11Z</time>
      </trkpt>
      <trkpt lat="45.10815" lon="0.60069">
        <ele>157</ele>
        <time>2025-06-15T08:16:12Z</time>
      </trkpt>
      <trkpt lat="45.10813" lon="0.6007">
        <ele>157.2</ele>
        <time>2025-06-15T08:16:13Z</time>
      </trkpt>
      <trkpt lat="45.10811" lon="0.60071">
        <ele>157.4</ele>
        <time>2025-06-15T08:16:14Z</time>
      </trkpt>
      <trkpt lat="45.10809" lon="0.60071">
        <ele>157.6</ele>
        <time>2025-06-15T08:16:15Z</time>
      </trkpt>
      <trkpt lat="45.10807" lon="0.60071">
        <ele>157.8</ele>
        <time>2025-06-15T08:16:16Z</time>
      </trkpt>
      <trkpt lat="45.10806" lon="0.60071">
        <ele>158</ele>
        <time>2025-06-15T08:16:17Z</time>
      </trkpt>
      <trkpt lat="45.10805" lon="0.6007">
        <ele>158.2</ele>
        <time>2025-06-15T08:16:18Z</time>
      </trkpt>
      <trkpt lat="45.10804" lon="0.60069">
        <ele>158.6</ele>
        <time>2025-06-15T08:16:19Z</time>
      </trkpt>
      <trkpt lat="45.10803" lon="0.60067">
        <ele>158.8</ele>
        <time>2025-06-15T08:16:20Z</time>
      </trkpt>
      <trkpt lat="45.10804" lon="0.60065">
        <ele>159</ele>
        <time>2025-06-15T08:16:21Z</time>
      </trkpt>
      <trkpt lat="45.10805" lon="0.60063">
        <ele>159.2</ele>
        <time>2025-06-15T08:16:22Z</time>
      </trkpt>
      <trkpt lat="45.10805" lon="0.60062">
        <ele>159.6</ele>
        <time>2025-06-15T08:16:23Z</time>
      </trkpt>
      <trkpt lat="45.10806" lon="0.60061">
        <ele>159.8</ele>
        <time>2025-06-15T08:16:24Z</time>
      </trkpt>
      <trkpt lat="45.10807" lon="0.60059">
        <ele>160.2</ele>
        <time>2025-06-15T08:16:25Z</time>
      </trkpt>
      <trkpt lat="45.10808" lon="0.60058">
        <ele>160.4</ele>
        <time>2025-06-15T08:16:26Z</time>
      </trkpt>
      <trkpt lat="45.10808" lon="0.60056">
        <ele>160.6</ele>
        <time>2025-06-15T08:16:27Z</time>
      </trkpt>
      <trkpt lat="45.10809" lon="0.60055">
        <ele>160.8</ele>
        <time>2025-06-15T08:16:28Z</time>
      </trkpt>
      <trkpt lat="45.10809" lon="0.60053">
        <ele>161.2</ele>
        <time>2025-06-15T08:16:29Z</time>
      </trkpt>
      <trkpt lat="45.1081" lon="0.60052">
        <ele>161.4</ele>
        <time>2025-06-15T08:16:30Z</time>
      </trkpt>
      <trkpt lat="45.10811" lon="0.6005">
        <ele>161.6</ele>
        <time>2025-06-15T08:16:31Z</time>
      </trkpt>
      <trkpt lat="45.10811" lon="0.60048">
        <ele>161.8</ele>
        <time>2025-06-15T08:16:32Z</time>
      </trkpt>
      <trkpt lat="45.10812" lon="0.60047">
        <ele>162</ele>
        <time>2025-06-15T08:16:33Z</time>
      </trkpt>
      <trkpt lat="45.10813" lon="0.60045">
        <ele>162.2</ele>
        <time>2025-06-15T08:16:34Z</time>
      </trkpt>
      <trkpt lat="45.10813" lon="0.60044">
        <ele>162.4</ele>
        <time>2025-06-15T08:16:35Z</time>
      </trkpt>
      <trkpt lat="45.10814" lon="0.60042">
        <ele>162.6</ele>
        <time>2025-06-15T08:16:36Z</time>
      </trkpt>
      <trkpt lat="45.10815" lon="0.6004">
        <ele>162.8</ele>
        <time>2025-06-15T08:16:37Z</time>
      </trkpt>
      <trkpt lat="45.10815" lon="0.60038">
        <ele>162.8</ele>
        <time>2025-06-15T08:16:38Z</time>
      </trkpt>
      <trkpt lat="45.10816" lon="0.60036">
        <ele>163</ele>
        <time>2025-06-15T08:16:39Z</time>
      </trkpt>
      <trkpt lat="45.10817" lon="0.60034">
        <ele>163.2</ele>
        <time>2025-06-15T08:16:40Z</time>
      </trkpt>
      <trkpt lat="45.10817" lon="0.60033">
        <ele>163.2</ele>
        <time>2025-06-15T08:16:41Z</time>
      </trkpt>
      <trkpt lat="45.10818" lon="0.60031">
        <ele>163.4</ele>
        <time>2025-06-15T08:16:42Z</time>
      </trkpt>
      <trkpt lat="45.10819" lon="0.60029">
        <ele>163.6</ele>
        <time>2025-06-15T08:16:43Z</time>
      </trkpt>
      <trkpt lat="45.1082" lon="0.60028">
        <ele>163.6</ele>
        <time>2025-06-15T08:16:44Z</time>
      </trkpt>
      <trkpt lat="45.1082" lon="0.60026">
        <ele>163.8</ele>
        <time>2025-06-15T08:16:45Z</time>
      </trkpt>
      <trkpt lat="45.10821" lon="0.60025">
        <ele>164</ele>
        <time>2025-06-15T08:16:46Z</time>
      </trkpt>
      <trkpt lat="45.10821" lon="0.60024">
        <ele>164.2</ele>
        <time>2025-06-15T08:16:47Z</time>
      </trkpt>
      <trkpt lat="45.10822" lon="0.60023">
        <ele>164.2</ele>
        <time>2025-06-15T08:16:48Z</time>
      </trkpt>
      <trkpt lat="45.10822" lon="0.60021">
        <ele>164.4</ele>
        <time>2025-06-15T08:16:49Z</time>
      </trkpt>
      <trkpt lat="45.10823" lon="0.6002">
        <ele>164.6</ele>
        <time>2025-06-15T08:16:50Z</time>
      </trkpt>
      <trkpt lat="45.10824" lon="0.60018">
        <ele>164.8</ele>
        <time>2025-06-15T08:16:51Z</time>
      </trkpt>
      <trkpt lat="45.10825" lon="0.60017">
        <ele>165</ele>
        <time>2025-06-15T08:16:52Z</time>
      </trkpt>
      <trkpt lat="45.10826" lon="0.60015">
        <ele>165.2</ele>
        <time>2025-06-15T08:16:53Z</time>
      </trkpt>
      <trkpt lat="45.10826" lon="0.60014">
        <ele>165.4</ele>
        <time>2025-06-15T08:16:54Z</time>
      </trkpt>
      <trkpt lat="45.10827" lon="0.60012">
        <ele>165.6</ele>
        <time>2025-06-15T08:16:55Z</time>
      </trkpt>
      <trkpt lat="45.10828" lon="0.60011">
        <ele>165.8</ele>
        <time>2025-06-15T08:16:56Z</time>
      </trkpt>
      <trkpt lat="45.10829" lon="0.60009">
        <ele>166</ele>
        <time>2025-06-15T08:16:57Z</time>
      </trkpt>
      <trkpt lat="45.1083" lon="0.60007">
        <ele>166.2</ele>
        <time>2025-06-15T08:16:58Z</time>
      </trkpt>
      <trkpt lat="45.1083" lon="0.60006">
        <ele>166.4</ele>
        <time>2025-06-15T08:16:59Z</time>
      </trkpt>
      <trkpt lat="45.10831" lon="0.60005">
        <ele>166.6</ele>
        <time>2025-06-15T08:17:00Z</time>
      </trkpt>
      <trkpt lat="45.10831" lon="0.60003">
        <ele>166.8</ele>
        <time>2025-06-15T08:17:01Z</time>
      </trkpt>
      <trkpt lat="45.10832" lon="0.60001">
        <ele>167</ele>
        <time>2025-06-15T08:17:02Z</time>
      </trkpt>
      <trkpt lat="45.10832" lon="0.6">
        <ele>167.4</ele>
        <time>2025-06-15T08:17:03Z</time>
      </trkpt>
      <trkpt lat="45.10833" lon="0.59998">
        <ele>167.6</ele>
        <time>2025-06-15T08:17:04Z</time>
      </trkpt>
      <trkpt lat="45.10833" lon="0.59997">
        <ele>167.8</ele>
        <time>2025-06-15T08:17:05Z</time>
      </trkpt>
      <trkpt lat="45.10834" lon="0.59996">
        <ele>168</ele>
        <time>2025-06-15T08:17:06Z</time>
      </trkpt>
      <trkpt lat="45.10834" lon="0.59995">
        <ele>168.2</ele>
        <time>2025-06-15T08:17:07Z</time>
      </trkpt>
      <trkpt lat="45.10835" lon="0.59993">
        <ele>168.6</ele>
        <time>2025-06-15T08:17:08Z</time>
      </trkpt>
      <trkpt lat="45.10835" lon="0.59992">
        <ele>168.8</ele>
        <time>2025-06-15T08:17:09Z</time>
      </trkpt>
      <trkpt lat="45.10836" lon="0.5999">
        <ele>169</ele>
        <time>2025-06-15T08:17:10Z</time>
      </trkpt>
      <trkpt lat="45.10837" lon="0.59989">
        <ele>169.2</ele>
        <time>2025-06-15T08:17:11Z</time>
      </trkpt>
      <trkpt lat="45.10838" lon="0.59988">
        <ele>169.4</ele>
        <time>2025-06-15T08:17:12Z</time>
      </trkpt>
      <trkpt lat="45.10839" lon="0.59987">
        <ele>169.6</ele>
        <time>2025-06-15T08:17:13Z</time>
      </trkpt>
      <trkpt lat="45.1084" lon="0.59986">
        <ele>169.8</ele>
        <time>2025-06-15T08:17:14Z</time>
      </trkpt>
      <trkpt lat="45.10841" lon="0.59985">
        <ele>170</ele>
        <time>2025-06-15T08:17:15Z</time>
      </trkpt>
      <trkpt lat="45.10842" lon="0.59984">
        <ele>170.2</ele>
        <time>2025-06-15T08:17:16Z</time>
      </trkpt>
      <trkpt lat="45.10842" lon="0.59983">
        <ele>170.4</ele>
        <time>2025-06-15T08:17:17Z</time>
      </trkpt>
      <trkpt lat="45.10843" lon="0.59982">
        <ele>170.6</ele>
        <time>2025-06-15T08:17:18Z</time>
      </trkpt>
      <trkpt lat="45.10843" lon="0.5998">
        <ele>170.8</ele>
        <time>2025-06-15T08:17:19Z</time>
      </trkpt>
      <trkpt lat="45.10844" lon="0.5998">
        <ele>171</ele>
        <time>2025-06-15T08:17:20Z</time>
      </trkpt>
      <trkpt lat="45.10845" lon="0.59979">
        <ele>171.2</ele>
        <time>2025-06-15T08:17:21Z</time>
      </trkpt>
      <trkpt lat="45.10845" lon="0.59978">
        <ele>171.4</ele>
        <time>2025-06-15T08:17:22Z</time>
      </trkpt>
      <trkpt lat="45.10846" lon="0.59977">
        <ele>171.6</ele>
        <time>2025-06-15T08:17:23Z</time>
      </trkpt>
      <trkpt lat="45.10847" lon="0.59975">
        <ele>171.8</ele>
        <time>2025-06-15T08:17:24Z</time>
      </trkpt>
      <trkpt lat="45.10848" lon="0.59974">
        <ele>172</ele>
        <time>2025-06-15T08:17:25Z</time>
      </trkpt>
      <trkpt lat="45.10848" lon="0.59973">
        <ele>172.2</ele>
        <time>2025-06-15T08:17:26Z</time>
      </trkpt>
      <trkpt lat="45.10849" lon="0.59973">
        <ele>172.4</ele>
        <time>2025-06-15T08:17:27Z</time>
      </trkpt>
      <trkpt lat="45.1085" lon="0.59972">
        <ele>172.4</ele>
        <time>2025-06-15T08:17:28Z</time>
      </trkpt>
      <trkpt lat="45.10851" lon="0.5997">
        <ele>172.6</ele>
        <time>2025-06-15T08:17:29Z</time>
      </trkpt>
      <trkpt lat="45.10852" lon="0.59969">
        <ele>172.8</ele>
        <time>2025-06-15T08:17:30Z</time>
      </trkpt>
      <trkpt lat="45.10852" lon="0.59967">
        <ele>173</ele>
        <time>2025-06-15T08:17:31Z</time>
      </trkpt>
      <trkpt lat="45.10853" lon="0.59966">
        <ele>173.2</ele>
        <time>2025-06-15T08:17:32Z</time>
      </trkpt>
      <trkpt lat="45.10853" lon="0.59965">
        <ele>173.4</ele>
        <time>2025-06-15T08:17:33Z</time>
      </trkpt>
      <trkpt lat="45.10854" lon="0.59963">
        <ele>173.6</ele>
        <time>2025-06-15T08:17:34Z</time>
      </trkpt>
      <trkpt lat="45.10854" lon="0.59962">
        <ele>173.8</ele>
        <time>2025-06-15T08:17:35Z</time>
      </trkpt>
      <trkpt lat="45.10855" lon="0.59961">
        <ele>174</ele>
        <time>2025-06-15T08:17:36Z</time>
      </trkpt>
      <trkpt lat="45.10856" lon="0.5996">
        <ele>174.4</ele>
        <time>2025-06-15T08:17:37Z</time>
      </trkpt>
      <trkpt lat="45.10857" lon="0.59959">
        <ele>174.4</ele>
        <time>2025-06-15T08:17:38Z</time>
      </trkpt>
      <trkpt lat="45.10857" lon="0.59958">
        <ele>174.6</ele>
        <time>2025-06-15T08:17:39Z</time>
      </trkpt>
      <trkpt lat="45.10858" lon="0.59956">
        <ele>174.8</ele>
        <time>2025-06-15T08:17:40Z</time>
      </trkpt>
      <trkpt lat="45.10859" lon="0.59955">
        <ele>175</ele>
        <time>2025-06-15T08:17:41Z</time>
      </trkpt>
      <trkpt lat="45.1086" lon="0.59954">
        <ele>175.2</ele>
        <time>2025-06-15T08:17:42Z</time>
      </trkpt>
      <trkpt lat="45.1086" lon="0.59953">
        <ele>175.4</ele>
        <time>2025-06-15T08:17:43Z</time>
      </trkpt>
      <trkpt lat="45.10861" lon="0.59952">
        <ele>175.6</ele>
        <time>2025-06-15T08:17:44Z</time>
      </trkpt>
      <trkpt lat="45.10862" lon="0.5995">
        <ele>175.8</ele>
        <time>2025-06-15T08:17:45Z</time>
      </trkpt>
      <trkpt lat="45.10863" lon="0.59949">
        <ele>176</ele>
        <time>2025-06-15T08:17:46Z</time>
      </trkpt>
      <trkpt lat="45.10863" lon="0.59947">
        <ele>176</ele>
        <time>2025-06-15T08:17:47Z</time>
      </trkpt>
      <trkpt lat="45.10864" lon="0.59946">
        <ele>176.2</ele>
        <time>2025-06-15T08:17:48Z</time>
      </trkpt>
      <trkpt lat="45.10865" lon="0.59944">
        <ele>176.4</ele>
        <time>2025-06-15T08:17:49Z</time>
      </trkpt>
      <trkpt lat="45.10866" lon="0.59943">
        <ele>176.6</ele>
        <time>2025-06-15T08:17:50Z</time>
      </trkpt>
      <trkpt lat="45.10866" lon="0.59942">
        <ele>176.8</ele>
        <time>2025-06-15T08:17:51Z</time>
      </trkpt>
      <trkpt lat="45.10867" lon="0.5994">
        <ele>177</ele>
        <time>2025-06-15T08:17:52Z</time>
      </trkpt>
      <trkpt lat="45.10868" lon="0.59939">
        <ele>177.2</ele>
        <time>2025-06-15T08:17:53Z</time>
      </trkpt>
      <trkpt lat="45.10869" lon="0.59938">
        <ele>177.4</ele>
        <time>2025-06-15T08:17:54Z</time>
      </trkpt>
      <trkpt lat="45.10869" lon="0.59937">
        <ele>177.6</ele>
        <time>2025-06-15T08:17:55Z</time>
      </trkpt>
      <trkpt lat="45.1087" lon="0.59936">
        <ele>177.6</ele>
        <time>2025-06-15T08:17:56Z</time>
      </trkpt>
      <trkpt lat="45.10871" lon="0.59935">
        <ele>177.8</ele>
        <time>2025-06-15T08:17:57Z</time>
      </trkpt>
      <trkpt lat="45.10872" lon="0.59934">
        <ele>178</ele>
        <time>2025-06-15T08:17:58Z</time>
      </trkpt>
      <trkpt lat="45.10873" lon="0.59933">
        <ele>178.2</ele>
        <time>2025-06-15T08:17:59Z</time>
      </trkpt>
      <trkpt lat="45.10873" lon="0.59932">
        <ele>178.2</ele>
        <time>2025-06-15T08:18:00Z</time>
      </trkpt>
      <trkpt lat="45.10874" lon="0.5993">
        <ele>178.4</ele>
        <time>2025-06-15T08:18:01Z</time>
      </trkpt>
      <trkpt lat="45.10875" lon="0.59929">
        <ele>178.4</ele>
        <time>2025-06-15T08:18:02Z</time>
      </trkpt>
      <trkpt lat="45.10876" lon="0.59927">
        <ele>178.6</ele>
        <time>2025-06-15T08:18:03Z</time>
      </trkpt>
      <trkpt lat="45.10877" lon="0.59926">
        <ele>178.8</ele>
        <time>2025-06-15T08:18:04Z</time>
      </trkpt>
      <trkpt lat="45.10877" lon="0.59925">
        <ele>179</ele>
        <time>2025-06-15T08:18:05Z</time>
      </trkpt>
      <trkpt lat="45.10878" lon="0.59925">
        <ele>179.2</ele>
        <time>2025-06-15T08:18:06Z</time>
      </trkpt>
      <trkpt lat="45.10879" lon="0.59923">
        <ele>179.4</ele>
        <time>2025-06-15T08:18:07Z</time>
      </trkpt>
      <trkpt lat="45.1088" lon="0.59922">
        <ele>179.4</ele>
        <time>2025-06-15T08:18:08Z</time>
      </trkpt>
      <trkpt lat="45.10881" lon="0.59921">
        <ele>179.6</ele>
        <time>2025-06-15T08:18:09Z</time>
      </trkpt>
      <trkpt lat="45.10881" lon="0.5992">
        <ele>179.8</ele>
        <time>2025-06-15T08:18:10Z</time>
      </trkpt>
      <trkpt lat="45.10882" lon="0.59918">
        <ele>180</ele>
        <time>2025-06-15T08:18:11Z</time>
      </trkpt>
      <trkpt lat="45.10883" lon="0.59917">
        <ele>180.2</ele>
        <time>2025-06-15T08:18:12Z</time>
      </trkpt>
      <trkpt lat="45.10883" lon="0.59915">
        <ele>180.4</ele>
        <time>2025-06-15T08:18:13Z</time>
      </trkpt>
      <trkpt lat="45.10884" lon="0.59914">
        <ele>180.6</ele>
        <time>2025-06-15T08:18:14Z</time>
      </trkpt>
      <trkpt lat="45.10885" lon="0.59913">
        <ele>180.6</ele>
        <time>2025-06-15T08:18:15Z</time>
      </trkpt>
      <trkpt lat="45.10885" lon="0.59911">
        <ele>180.8</ele>
        <time>2025-06-15T08:18:16Z</time>
      </trkpt>
      <trkpt lat="45.10887" lon="0.5991">
        <ele>181</ele>
        <time>2025-06-15T08:18:17Z</time>
      </trkpt>
      <trkpt lat="45.10887" lon="0.59909">
        <ele>181.2</ele>
        <time>2025-06-15T08:18:18Z</time>
      </trkpt>
      <trkpt lat="45.10888" lon="0.59908">
        <ele>181.4</ele>
        <time>2025-06-15T08:18:19Z</time>
      </trkpt>
      <trkpt lat="45.10889" lon="0.59906">
        <ele>181.4</ele>
        <time>2025-06-15T08:18:20Z</time>
      </trkpt>
      <trkpt lat="45.1089" lon="0.59904">
        <ele>181.6</ele>
        <time>2025-06-15T08:18:21Z</time>
      </trkpt>
      <trkpt lat="45.10891" lon="0.59903">
        <ele>181.8</ele>
        <time>2025-06-15T08:18:22Z</time>
      </trkpt>
      <trkpt lat="45.10892" lon="0.59902">
        <ele>182</ele>
        <time>2025-06-15T08:18:23Z</time>
      </trkpt>
      <trkpt lat="45.10892" lon="0.599">
        <ele>182.2</ele>
        <time>2025-06-15T08:18:24Z</time>
      </trkpt>
      <trkpt lat="45.10893" lon="0.59899">
        <ele>182.4</ele>
        <time>2025-06-15T08:18:25Z</time>
      </trkpt>
      <trkpt lat="45.10894" lon="0.59898">
        <ele>182.6</ele>
        <time>2025-06-15T08:18:26Z</time>
      </trkpt>
      <trkpt lat="45.10895" lon="0.59896">
        <ele>182.8</ele>
        <time>2025-06-15T08:18:27Z</time>
      </trkpt>
      <trkpt lat="45.10895" lon="0.59895">
        <ele>182.8</ele>
        <time>2025-06-15T08:18:28Z</time>
      </trkpt>
      <trkpt lat="45.10896" lon="0.59893">
        <ele>183</ele>
        <time>2025-06-15T08:18:29Z</time>
      </trkpt>
      <trkpt lat="45.10897" lon="0.59892">
        <ele>183.2</ele>
        <time>2025-06-15T08:18:30Z</time>
      </trkpt>
      <trkpt lat="45.10898" lon="0.59891">
        <ele>183.4</ele>
        <time>2025-06-15T08:18:31Z</time>
      </trkpt>
      <trkpt lat="45.10898" lon="0.59889">
        <ele>183.4</ele>
        <time>2025-06-15T08:18:32Z</time>
      </trkpt>
      <trkpt lat="45.10899" lon="0.59888">
        <ele>183.6</ele>
        <time>2025-06-15T08:18:33Z</time>
      </trkpt>
      <trkpt lat="45.109" lon="0.59887">
        <ele>183.8</ele>
        <time>2025-06-15T08:18:34Z</time>
      </trkpt>
      <trkpt lat="45.10902" lon="0.59886">
        <ele>184</ele>
        <time>2025-06-15T08:18:35Z</time>
      </trkpt>
      <trkpt lat="45.10902" lon="0.59884">
        <ele>184.2</ele>
        <time>2025-06-15T08:18:36Z</time>
      </trkpt>
      <trkpt lat="45.10903" lon="0.59883">
        <ele>184.2</ele>
        <time>2025-06-15T08:18:37Z</time>
      </trkpt>
      <trkpt lat="45.10905" lon="0.59882">
        <ele>184.4</ele>
        <time>2025-06-15T08:18:38Z</time>
      </trkpt>
      <trkpt lat="45.10905" lon="0.59881">
        <ele>184.6</ele>
        <time>2025-06-15T08:18:39Z</time>
      </trkpt>
      <trkpt lat="45.10906" lon="0.5988">
        <ele>184.8</ele>
        <time>2025-06-15T08:18:40Z</time>
      </trkpt>
      <trkpt lat="45.10907" lon="0.59878">
        <ele>184.8</ele>
        <time>2025-06-15T08:18:41Z</time>
      </trkpt>
      <trkpt lat="45.10908" lon="0.59877">
        <ele>185</ele>
        <time>2025-06-15T08:18:42Z</time>
      </trkpt>
      <trkpt lat="45.10909" lon="0.59876">
        <ele>185.2</ele>
        <time>2025-06-15T08:18:43Z</time>
      </trkpt>
      <trkpt lat="45.1091" lon="0.59874">
        <ele>185.4</ele>
        <time>2025-06-15T08:18:44Z</time>
      </trkpt>
      <trkpt lat="45.10911" lon="0.59873">
        <ele>185.4</ele>
        <time>2025-06-15T08:18:45Z</time>
      </trkpt>
      <trkpt lat="45.10912" lon="0.59872">
        <ele>185.6</ele>
        <time>2025-06-15T08:18:46Z</time>
      </trkpt>
      <trkpt lat="45.10913" lon="0.5987">
        <ele>185.8</ele>
        <time>2025-06-15T08:18:47Z</time>
      </trkpt>
      <trkpt lat="45.10914" lon="0.59869">
        <ele>185.8</ele>
        <time>2025-06-15T08:18:48Z</time>
      </trkpt>
      <trkpt lat="45.10916" lon="0.59867">
        <ele>186</ele>
        <time>2025-06-15T08:18:49Z</time>
      </trkpt>
      <trkpt lat="45.10917" lon="0.59866">
        <ele>186.2</ele>
        <time>2025-06-15T08:18:50Z</time>
      </trkpt>
      <trkpt lat="45.10918" lon="0.59864">
        <ele>186.4</ele>
        <time>2025-06-15T08:18:51Z</time>
      </trkpt>
      <trkpt lat="45.10919" lon="0.59862">
        <ele>186.6</ele>
        <time>2025-06-15T08:18:52Z</time>
      </trkpt>
      <trkpt lat="45.10919" lon="0.5986">
        <ele>186.8</ele>
        <time>2025-06-15T08:18:53Z</time>
      </trkpt>
      <trkpt lat="45.1092" lon="0.59859">
        <ele>187</ele>
        <time>2025-06-15T08:18:54Z</time>
      </trkpt>
      <trkpt lat="45.1092" lon="0.59857">
        <ele>187.2</ele>
        <time>2025-06-15T08:18:55Z</time>
      </trkpt>
      <trkpt lat="45.10921" lon="0.59855">
        <ele>187.4</ele>
        <time>2025-06-15T08:18:56Z</time>
      </trkpt>
      <trkpt lat="45.10921" lon="0.59853">
        <ele>187.6</ele>
        <time>2025-06-15T08:18:57Z</time>
      </trkpt>
      <trkpt lat="45.10922" lon="0.59852">
        <ele>187.8</ele>
        <time>2025-06-15T08:18:58Z</time>
      </trkpt>
      <trkpt lat="45.10922" lon="0.5985">
        <ele>188</ele>
        <time>2025-06-15T08:18:59Z</time>
      </trkpt>
      <trkpt lat="45.10923" lon="0.59847">
        <ele>188.2</ele>
        <time>2025-06-15T08:19:00Z</time>
      </trkpt>
      <trkpt lat="45.10923" lon="0.59845">
        <ele>188.4</ele>
        <time>2025-06-15T08:19:01Z</time>
      </trkpt>
      <trkpt lat="45.10923" lon="0.59843">
        <ele>188.4</ele>
        <time>2025-06-15T08:19:02Z</time>
      </trkpt>
      <trkpt lat="45.10924" lon="0.59841">
        <ele>188.6</ele>
        <time>2025-06-15T08:19:03Z</time>
      </trkpt>
      <trkpt lat="45.10924" lon="0.59839">
        <ele>188.8</ele>
        <time>2025-06-15T08:19:04Z</time>
      </trkpt>
      <trkpt lat="45.10925" lon="0.59837">
        <ele>189</ele>
        <time>2025-06-15T08:19:05Z</time>
      </trkpt>
      <trkpt lat="45.10925" lon="0.59835">
        <ele>189.2</ele>
        <time>2025-06-15T08:19:06Z</time>
      </trkpt>
      <trkpt lat="45.10926" lon="0.59833">
        <ele>189.4</ele>
        <time>2025-06-15T08:19:07Z</time>
      </trkpt>
      <trkpt lat="45.10926" lon="0.59831">
        <ele>189.6</ele>
        <time>2025-06-15T08:19:08Z</time>
      </trkpt>
      <trkpt lat="45.10927" lon="0.59829">
        <ele>189.6</ele>
        <time>2025-06-15T08:19:09Z</time>
      </trkpt>
      <trkpt lat="45.10927" lon="0.59827">
        <ele>189.8</ele>
        <time>2025-06-15T08:19:10Z</time>
      </trkpt>
      <trkpt lat="45.10927" lon="0.59826">
        <ele>189.8</ele>
        <time>2025-06-15T08:19:11Z</time>
      </trkpt>
      <trkpt lat="45.10928" lon="0.59824">
        <ele>190</ele>
        <time>2025-06-15T08:19:12Z</time>
      </trkpt>
      <trkpt lat="45.10928" lon="0.59822">
        <ele>190.2</ele>
        <time>2025-06-15T08:19:13Z</time>
      </trkpt>
      <trkpt lat="45.10928" lon="0.59819">
        <ele>190.2</ele>
        <time>2025-06-15T08:19:14Z</time>
      </trkpt>
      <trkpt lat="45.10929" lon="0.59817">
        <ele>190.2</ele>
        <time>2025-06-15T08:19:15Z</time>
      </trkpt>
      <trkpt lat="45.10929" lon="0.59815">
        <ele>190.4</ele>
        <time>2025-06-15T08:19:16Z</time>
      </trkpt>
      <trkpt lat="45.1093" lon="0.59812">
        <ele>190.4</ele>
        <time>2025-06-15T08:19:17Z</time>
      </trkpt>
      <trkpt lat="45.1093" lon="0.5981">
        <ele>190.4</ele>
        <time>2025-06-15T08:19:18Z</time>
      </trkpt>
      <trkpt lat="45.1093" lon="0.59808">
        <ele>190.6</ele>
        <time>2025-06-15T08:19:19Z</time>
      </trkpt>
      <trkpt lat="45.1093" lon="0.59805">
        <ele>190.6</ele>
        <time>2025-06-15T08:19:20Z</time>
      </trkpt>
      <trkpt lat="45.1093" lon="0.59802">
        <ele>190.8</ele>
        <time>2025-06-15T08:19:21Z</time>
      </trkpt>
      <trkpt lat="45.10931" lon="0.59799">
        <ele>190.8</ele>
        <time>2025-06-15T08:19:22Z</time>
      </trkpt>
      <trkpt lat="45.10931" lon="0.59796">
        <ele>191</ele>
        <time>2025-06-15T08:19:23Z</time>
      </trkpt>
      <trkpt lat="45.10931" lon="0.59793">
        <ele>191</ele>
        <time>2025-06-15T08:19:24Z</time>
      </trkpt>
      <trkpt lat="45.10931" lon="0.5979">
        <ele>191.2</ele>
        <time>2025-06-15T08:19:25Z</time>
      </trkpt>
      <trkpt lat="45.10931" lon="0.59787">
        <ele>191.2</ele>
        <time>2025-06-15T08:19:26Z</time>
      </trkpt>
      <trkpt lat="45.10931" lon="0.59784">
        <ele>191.2</ele>
        <time>2025-06-15T08:19:27Z</time>
      </trkpt>
      <trkpt lat="45.10931" lon="0.59781">
        <ele>191.4</ele>
        <time>2025-06-15T08:19:28Z</time>
      </trkpt>
      <trkpt lat="45.10932" lon="0.59778">
        <ele>191.4</ele>
        <time>2025-06-15T08:19:29Z</time>
      </trkpt>
      <trkpt lat="45.10932" lon="0.59775">
        <ele>191.4</ele>
        <time>2025-06-15T08:19:30Z</time>
      </trkpt>
      <trkpt lat="45.10932" lon="0.59772">
        <ele>191.6</ele>
        <time>2025-06-15T08:19:31Z</time>
      </trkpt>
      <trkpt lat="45.10932" lon="0.59768">
        <ele>191.6</ele>
        <time>2025-06-15T08:19:32Z</time>
      </trkpt>
      <trkpt lat="45.10933" lon="0.59765">
        <ele>191.6</ele>
        <time>2025-06-15T08:19:33Z</time>
      </trkpt>
      <trkpt lat="45.10933" lon="0.59761">
        <ele>191.8</ele>
        <time>2025-06-15T08:19:34Z</time>
      </trkpt>
      <trkpt lat="45.10934" lon="0.59757">
        <ele>191.8</ele>
        <time>2025-06-15T08:19:35Z</time>
      </trkpt>
      <trkpt lat="45.10934" lon="0.59753">
        <ele>191.8</ele>
        <time>2025-06-15T08:19:36Z</time>
      </trkpt>
      <trkpt lat="45.10934" lon="0.59749">
        <ele>191.8</ele>
        <time>2025-06-15T08:19:37Z</time>
      </trkpt>
      <trkpt lat="45.10935" lon="0.59745">
        <ele>191.6</ele>
        <time>2025-06-15T08:19:38Z</time>
      </trkpt>
      <trkpt lat="45.10936" lon="0.59741">
        <ele>191.6</ele>
        <time>2025-06-15T08:19:39Z</time>
      </trkpt>
      <trkpt lat="45.10936" lon="0.59736">
        <ele>191.6</ele>
        <time>2025-06-15T08:19:40Z</time>
      </trkpt>
      <trkpt lat="45.10937" lon="0.59731">
        <ele>191.6</ele>
        <time>2025-06-15T08:19:41Z</time>
      </trkpt>
      <trkpt lat="45.10937" lon="0.59726">
        <ele>191.6</ele>
        <time>2025-06-15T08:19:42Z</time>
      </trkpt>
      <trkpt lat="45.10937" lon="0.5972">
        <ele>191.6</ele>
        <time>2025-06-15T08:19:43Z</time>
      </trkpt>
      <trkpt lat="45.10937" lon="0.59715">
        <ele>191.4</ele>
        <time>2025-06-15T08:19:44Z</time>
      </trkpt>
      <trkpt lat="45.10937" lon="0.59711">
        <ele>191.4</ele>
        <time>2025-06-15T08:19:45Z</time>
      </trkpt>
      <trkpt lat="45.10936" lon="0.59707">
        <ele>191.4</ele>
        <time>2025-06-15T08:19:46Z</time>
      </trkpt>
      <trkpt lat="45.10937" lon="0.59702">
        <ele>191.6</ele>
        <time>2025-06-15T08:19:47Z</time>
      </trkpt>
      <trkpt lat="45.10937" lon="0.59699">
        <ele>191.6</ele>
        <time>2025-06-15T08:19:48Z</time>
      </trkpt>
      <trkpt lat="45.10937" lon="0.59694">
        <ele>191.8</ele>
        <time>2025-06-15T08:19:49Z</time>
      </trkpt>
      <trkpt lat="45.10937" lon="0.59691">
        <ele>191.8</ele>
        <time>2025-06-15T08:19:50Z</time>
      </trkpt>
      <trkpt lat="45.10937" lon="0.59687">
        <ele>192</ele>
        <time>2025-06-15T08:19:51Z</time>
      </trkpt>
      <trkpt lat="45.10937" lon="0.59683">
        <ele>192.2</ele>
        <time>2025-06-15T08:19:52Z</time>
      </trkpt>
      <trkpt lat="45.10938" lon="0.5968">
        <ele>192.4</ele>
        <time>2025-06-15T08:19:53Z</time>
      </trkpt>
      <trkpt lat="45.10938" lon="0.59676">
        <ele>192.6</ele>
        <time>2025-06-15T08:19:54Z</time>
      </trkpt>
      <trkpt lat="45.10939" lon="0.59672">
        <ele>192.8</ele>
        <time>2025-06-15T08:19:55Z</time>
      </trkpt>
      <trkpt lat="45.10939" lon="0.59669">
        <ele>193</ele>
        <time>2025-06-15T08:19:56Z</time>
      </trkpt>
      <trkpt lat="45.1094" lon="0.59666">
        <ele>193.2</ele>
        <time>2025-06-15T08:19:57Z</time>
      </trkpt>
      <trkpt lat="45.1094" lon="0.59663">
        <ele>193.6</ele>
        <time>2025-06-15T08:19:58Z</time>
      </trkpt>
      <trkpt lat="45.10941" lon="0.5966">
        <ele>193.8</ele>
        <time>2025-06-15T08:19:59Z</time>
      </trkpt>
      <trkpt lat="45.10942" lon="0.59657">
        <ele>194</ele>
        <time>2025-06-15T08:20:00Z</time>
      </trkpt>
      <trkpt lat="45.10943" lon="0.59654">
        <ele>194.2</ele>
        <time>2025-06-15T08:20:01Z</time>
      </trkpt>
      <trkpt lat="45.10944" lon="0.59652">
        <ele>194.6</ele>
        <time>2025-06-15T08:20:02Z</time>
      </trkpt>
      <trkpt lat="45.10944" lon="0.59649">
        <ele>194.8</ele>
        <time>2025-06-15T08:20:03Z</time>
      </trkpt>
      <trkpt lat="45.10945" lon="0.59646">
        <ele>195</ele>
        <time>2025-06-15T08:20:04Z</time>
      </trkpt>
      <trkpt lat="45.10946" lon="0.59643">
        <ele>195.2</ele>
        <time>2025-06-15T08:20:05Z</time>
      </trkpt>
      <trkpt lat="45.10946" lon="0.5964">
        <ele>195.6</ele>
        <time>2025-06-15T08:20:06Z</time>
      </trkpt>
      <trkpt lat="45.10946" lon="0.59638">
        <ele>195.8</ele>
        <time>2025-06-15T08:20:07Z</time>
      </trkpt>
      <trkpt lat="45.10947" lon="0.59634">
        <ele>196</ele>
        <time>2025-06-15T08:20:08Z</time>
      </trkpt>
      <trkpt lat="45.10947" lon="0.59631">
        <ele>196.2</ele>
        <time>2025-06-15T08:20:09Z</time>
      </trkpt>
      <trkpt lat="45.10947" lon="0.59628">
        <ele>196.4</ele>
        <time>2025-06-15T08:20:10Z</time>
      </trkpt>
      <trkpt lat="45.10947" lon="0.59625">
        <ele>196.6</ele>
        <time>2025-06-15T08:20:11Z</time>
      </trkpt>
      <trkpt lat="45.10946" lon="0.59622">
        <ele>196.8</ele>
        <time>2025-06-15T08:20:12Z</time>
      </trkpt>
      <trkpt lat="45.10947" lon="0.59619">
        <ele>197</ele>
        <time>2025-06-15T08:20:13Z</time>
      </trkpt>
      <trkpt lat="45.10947" lon="0.59615">
        <ele>197</ele>
        <time>2025-06-15T08:20:14Z</time>
      </trkpt>
      <trkpt lat="45.10948" lon="0.59612">
        <ele>197.2</ele>
        <time>2025-06-15T08:20:15Z</time>
      </trkpt>
      <trkpt lat="45.10948" lon="0.59609">
        <ele>197.4</ele>
        <time>2025-06-15T08:20:16Z</time>
      </trkpt>
      <trkpt lat="45.10949" lon="0.59607">
        <ele>197.6</ele>
        <time>2025-06-15T08:20:17Z</time>
      </trkpt>
      <trkpt lat="45.1095" lon="0.59604">
        <ele>197.8</ele>
        <time>2025-06-15T08:20:18Z</time>
      </trkpt>
      <trkpt lat="45.10951" lon="0.59601">
        <ele>197.8</ele>
        <time>2025-06-15T08:20:19Z</time>
      </trkpt>
      <trkpt lat="45.10952" lon="0.59598">
        <ele>198</ele>
        <time>2025-06-15T08:20:20Z</time>
      </trkpt>
      <trkpt lat="45.10953" lon="0.59595">
        <ele>198.2</ele>
        <time>2025-06-15T08:20:21Z</time>
      </trkpt>
      <trkpt lat="45.10954" lon="0.59592">
        <ele>198.4</ele>
        <time>2025-06-15T08:20:22Z</time>
      </trkpt>
      <trkpt lat="45.10954" lon="0.59589">
        <ele>198.6</ele>
        <time>2025-06-15T08:20:23Z</time>
      </trkpt>
      <trkpt lat="45.10955" lon="0.59586">
        <ele>198.8</ele>
        <time>2025-06-15T08:20:24Z</time>
      </trkpt>
      <trkpt lat="45.10955" lon="0.59582">
        <ele>198.8</ele>
        <time>2025-06-15T08:20:25Z</time>
      </trkpt>
      <trkpt lat="45.10955" lon="0.59579">
        <ele>199</ele>
        <time>2025-06-15T08:20:26Z</time>
      </trkpt>
      <trkpt lat="45.10955" lon="0.59575">
        <ele>199.2</ele>
        <time>2025-06-15T08:20:27Z</time>
      </trkpt>
      <trkpt lat="45.10955" lon="0.59571">
        <ele>199.2</ele>
        <time>2025-06-15T08:20:28Z</time>
      </trkpt>
      <trkpt lat="45.10954" lon="0.59568">
        <ele>199.4</ele>
        <time>2025-06-15T08:20:29Z</time>
      </trkpt>
      <trkpt lat="45.10954" lon="0.59565">
        <ele>199.4</ele>
        <time>2025-06-15T08:20:30Z</time>
      </trkpt>
      <trkpt lat="45.10954" lon="0.59562">
        <ele>199.6</ele>
        <time>2025-06-15T08:20:31Z</time>
      </trkpt>
      <trkpt lat="45.10953" lon="0.59558">
        <ele>199.8</ele>
        <time>2025-06-15T08:20:32Z</time>
      </trkpt>
      <trkpt lat="45.10952" lon="0.59555">
        <ele>199.8</ele>
        <time>2025-06-15T08:20:33Z</time>
      </trkpt>
      <trkpt lat="45.10952" lon="0.59552">
        <ele>200</ele>
        <time>2025-06-15T08:20:34Z</time>
      </trkpt>
      <trkpt lat="45.10952" lon="0.59548">
        <ele>200.2</ele>
        <time>2025-06-15T08:20:35Z</time>
      </trkpt>
      <trkpt lat="45.10952" lon="0.59546">
        <ele>200.2</ele>
        <time>2025-06-15T08:20:36Z</time>
      </trkpt>
      <trkpt lat="45.10953" lon="0.59542">
        <ele>200.4</ele>
        <time>2025-06-15T08:20:37Z</time>
      </trkpt>
      <trkpt lat="45.10953" lon="0.59539">
        <ele>200.6</ele>
        <time>2025-06-15T08:20:38Z</time>
      </trkpt>
      <trkpt lat="45.10954" lon="0.59535">
        <ele>200.8</ele>
        <time>2025-06-15T08:20:39Z</time>
      </trkpt>
      <trkpt lat="45.10955" lon="0.59532">
        <ele>200.8</ele>
        <time>2025-06-15T08:20:40Z</time>
      </trkpt>
      <trkpt lat="45.10956" lon="0.59528">
        <ele>201</ele>
        <time>2025-06-15T08:20:41Z</time>
      </trkpt>
      <trkpt lat="45.10957" lon="0.59525">
        <ele>201.2</ele>
        <time>2025-06-15T08:20:42Z</time>
      </trkpt>
      <trkpt lat="45.10957" lon="0.59521">
        <ele>201.2</ele>
        <time>2025-06-15T08:20:43Z</time>
      </trkpt>
      <trkpt lat="45.10958" lon="0.59518">
        <ele>201.4</ele>
        <time>2025-06-15T08:20:44Z</time>
      </trkpt>
      <trkpt lat="45.10959" lon="0.59515">
        <ele>201.4</ele>
        <time>2025-06-15T08:20:45Z</time>
      </trkpt>
      <trkpt lat="45.1096" lon="0.59512">
        <ele>201.4</ele>
        <time>2025-06-15T08:20:46Z</time>
      </trkpt>
      <trkpt lat="45.10962" lon="0.59509">
        <ele>201.4</ele>
        <time>2025-06-15T08:20:47Z</time>
      </trkpt>
      <trkpt lat="45.10963" lon="0.59506">
        <ele>201.4</ele>
        <time>2025-06-15T08:20:48Z</time>
      </trkpt>
      <trkpt lat="45.10964" lon="0.59503">
        <ele>201.4</ele>
        <time>2025-06-15T08:20:49Z</time>
      </trkpt>
      <trkpt lat="45.10965" lon="0.595">
        <ele>201.6</ele>
        <time>2025-06-15T08:20:50Z</time>
      </trkpt>
      <trkpt lat="45.10966" lon="0.59496">
        <ele>201.6</ele>
        <time>2025-06-15T08:20:51Z</time>
      </trkpt>
      <trkpt lat="45.10967" lon="0.59493">
        <ele>201.6</ele>
        <time>2025-06-15T08:20:52Z</time>
      </trkpt>
      <trkpt lat="45.10967" lon="0.59489">
        <ele>201.8</ele>
        <time>2025-06-15T08:20:53Z</time>
      </trkpt>
      <trkpt lat="45.10968" lon="0.59486">
        <ele>201.8</ele>
        <time>2025-06-15T08:20:54Z</time>
      </trkpt>
      <trkpt lat="45.10968" lon="0.59483">
        <ele>202</ele>
        <time>2025-06-15T08:20:55Z</time>
      </trkpt>
      <trkpt lat="45.10968" lon="0.59479">
        <ele>202.2</ele>
        <time>2025-06-15T08:20:56Z</time>
      </trkpt>
      <trkpt lat="45.1097" lon="0.59477">
        <ele>202.4</ele>
        <time>2025-06-15T08:20:57Z</time>
      </trkpt>
      <trkpt lat="45.1097" lon="0.59474">
        <ele>202.6</ele>
        <time>2025-06-15T08:20:58Z</time>
      </trkpt>
      <trkpt lat="45.10971" lon="0.59471">
        <ele>202.8</ele>
        <time>2025-06-15T08:20:59Z</time>
      </trkpt>
      <trkpt lat="45.10972" lon="0.59467">
        <ele>203.2</ele>
        <time>2025-06-15T08:21:00Z</time>
      </trkpt>
      <trkpt lat="45.10972" lon="0.59463">
        <ele>203.2</ele>
        <time>2025-06-15T08:21:01Z</time>
      </trkpt>
      <trkpt lat="45.10972" lon="0.5946">
        <ele>203.4</ele>
        <time>2025-06-15T08:21:02Z</time>
      </trkpt>
      <trkpt lat="45.10973" lon="0.59456">
        <ele>203.6</ele>
        <time>2025-06-15T08:21:03Z</time>
      </trkpt>
      <trkpt lat="45.10973" lon="0.59452">
        <ele>203.6</ele>
        <time>2025-06-15T08:21:04Z</time>
      </trkpt>
      <trkpt lat="45.10974" lon="0.59448">
        <ele>203.8</ele>
        <time>2025-06-15T08:21:05Z</time>
      </trkpt>
      <trkpt lat="45.10974" lon="0.59445">
        <ele>204</ele>
        <time>2025-06-15T08:21:06Z</time>
      </trkpt>
      <trkpt lat="45.10975" lon="0.59441">
        <ele>204</ele>
        <time>2025-06-15T08:21:07Z</time>
      </trkpt>
      <trkpt lat="45.10975" lon="0.59438">
        <ele>204.2</ele>
        <time>2025-06-15T08:21:08Z</time>
      </trkpt>
      <trkpt lat="45.10975" lon="0.59434">
        <ele>204.4</ele>
        <time>2025-06-15T08:21:09Z</time>
      </trkpt>
      <trkpt lat="45.10976" lon="0.59431">
        <ele>204.4</ele>
        <time>2025-06-15T08:21:10Z</time>
      </trkpt>
      <trkpt lat="45.10976" lon="0.59427">
        <ele>204.6</ele>
        <time>2025-06-15T08:21:11Z</time>
      </trkpt>
      <trkpt lat="45.10977" lon="0.59423">
        <ele>204.6</ele>
        <time>2025-06-15T08:21:12Z</time>
      </trkpt>
      <trkpt lat="45.10977" lon="0.59419">
        <ele>204.8</ele>
        <time>2025-06-15T08:21:13Z</time>
      </trkpt>
      <trkpt lat="45.10978" lon="0.59416">
        <ele>204.8</ele>
        <time>2025-06-15T08:21:14Z</time>
      </trkpt>
      <trkpt lat="45.10978" lon="0.59412">
        <ele>204.8</ele>
        <time>2025-06-15T08:21:15Z</time>
      </trkpt>
      <trkpt lat="45.10978" lon="0.59408">
        <ele>204.8</ele>
        <time>2025-06-15T08:21:16Z</time>
      </trkpt>
      <trkpt lat="45.10979" lon="0.59404">
        <ele>205</ele>
        <time>2025-06-15T08:21:17Z</time>
      </trkpt>
      <trkpt lat="45.1098" lon="0.594">
        <ele>205</ele>
        <time>2025-06-15T08:21:18Z</time>
      </trkpt>
      <trkpt lat="45.10981" lon="0.59397">
        <ele>205</ele>
        <time>2025-06-15T08:21:19Z</time>
      </trkpt>
      <trkpt lat="45.10982" lon="0.59392">
        <ele>205</ele>
        <time>2025-06-15T08:21:20Z</time>
      </trkpt>
      <trkpt lat="45.10982" lon="0.59388">
        <ele>205</ele>
        <time>2025-06-15T08:21:21Z</time>
      </trkpt>
      <trkpt lat="45.10983" lon="0.59383">
        <ele>205</ele>
        <time>2025-06-15T08:21:22Z</time>
      </trkpt>
      <trkpt lat="45.10983" lon="0.59379">
        <ele>204.8</ele>
        <time>2025-06-15T08:21:23Z</time>
      </trkpt>
      <trkpt lat="45.10984" lon="0.59374">
        <ele>204.8</ele>
        <time>2025-06-15T08:21:24Z</time>
      </trkpt>
      <trkpt lat="45.10985" lon="0.5937">
        <ele>204.8</ele>
        <time>2025-06-15T08:21:25Z</time>
      </trkpt>
      <trkpt lat="45.10986" lon="0.59365">
        <ele>204.8</ele>
        <time>2025-06-15T08:21:26Z</time>
      </trkpt>
      <trkpt lat="45.10987" lon="0.59361">
        <ele>204.8</ele>
        <time>2025-06-15T08:21:27Z</time>
      </trkpt>
      <trkpt lat="45.10988" lon="0.59357">
        <ele>204.6</ele>
        <time>2025-06-15T08:21:28Z</time>
      </trkpt>
      <trkpt lat="45.10989" lon="0.59352">
        <ele>204.6</ele>
        <time>2025-06-15T08:21:29Z</time>
      </trkpt>
      <trkpt lat="45.10991" lon="0.59347">
        <ele>204.4</ele>
        <time>2025-06-15T08:21:30Z</time>
      </trkpt>
      <trkpt lat="45.10992" lon="0.59342">
        <ele>204.4</ele>
        <time>2025-06-15T08:21:31Z</time>
      </trkpt>
      <trkpt lat="45.10993" lon="0.59338">
        <ele>204.4</ele>
        <time>2025-06-15T08:21:32Z</time>
      </trkpt>
      <trkpt lat="45.10995" lon="0.59333">
        <ele>204.2</ele>
        <time>2025-06-15T08:21:33Z</time>
      </trkpt>
      <trkpt lat="45.10996" lon="0.59329">
        <ele>204.2</ele>
        <time>2025-06-15T08:21:34Z</time>
      </trkpt>
      <trkpt lat="45.10998" lon="0.59324">
        <ele>204.2</ele>
        <time>2025-06-15T08:21:35Z</time>
      </trkpt>
      <trkpt lat="45.10999" lon="0.59319">
        <ele>204.2</ele>
        <time>2025-06-15T08:21:36Z</time>
      </trkpt>
      <trkpt lat="45.11" lon="0.59315">
        <ele>204.2</ele>
        <time>2025-06-15T08:21:37Z</time>
      </trkpt>
      <trkpt lat="45.11001" lon="0.5931">
        <ele>204.2</ele>
        <time>2025-06-15T08:21:38Z</time>
      </trkpt>
      <trkpt lat="45.11003" lon="0.59306">
        <ele>204.4</ele>
        <time>2025-06-15T08:21:39Z</time>
      </trkpt>
      <trkpt lat="45.11004" lon="0.59302">
        <ele>204.4</ele>
        <time>2025-06-15T08:21:40Z</time>
      </trkpt>
      <trkpt lat="45.11005" lon="0.59296">
        <ele>204.4</ele>
        <time>2025-06-15T08:21:41Z</time>
      </trkpt>
      <trkpt lat="45.11006" lon="0.59292">
        <ele>204.4</ele>
        <time>2025-06-15T08:21:42Z</time>
      </trkpt>
      <trkpt lat="45.11008" lon="0.59288">
        <ele>204.4</ele>
        <time>2025-06-15T08:21:43Z</time>
      </trkpt>
      <trkpt lat="45.11009" lon="0.59284">
        <ele>204.6</ele>
        <time>2025-06-15T08:21:44Z</time>
      </trkpt>
      <trkpt lat="45.1101" lon="0.59279">
        <ele>204.6</ele>
        <time>2025-06-15T08:21:45Z</time>
      </trkpt>
      <trkpt lat="45.11011" lon="0.59275">
        <ele>204.6</ele>
        <time>2025-06-15T08:21:46Z</time>
      </trkpt>
      <trkpt lat="45.11012" lon="0.59271">
        <ele>204.6</ele>
        <time>2025-06-15T08:21:47Z</time>
      </trkpt>
      <trkpt lat="45.11014" lon="0.59266">
        <ele>204.6</ele>
        <time>2025-06-15T08:21:48Z</time>
      </trkpt>
      <trkpt lat="45.11015" lon="0.59262">
        <ele>204.8</ele>
        <time>2025-06-15T08:21:49Z</time>
      </trkpt>
      <trkpt lat="45.11017" lon="0.59257">
        <ele>204.8</ele>
        <time>2025-06-15T08:21:50Z</time>
      </trkpt>
      <trkpt lat="45.11018" lon="0.59253">
        <ele>205</ele>
        <time>2025-06-15T08:21:51Z</time>
      </trkpt>
      <trkpt lat="45.11019" lon="0.59249">
        <ele>205</ele>
        <time>2025-06-15T08:21:52Z</time>
      </trkpt>
      <trkpt lat="45.11021" lon="0.59245">
        <ele>205</ele>
        <time>2025-06-15T08:21:53Z</time>
      </trkpt>
      <trkpt lat="45.11022" lon="0.5924">
        <ele>205.2</ele>
        <time>2025-06-15T08:21:54Z</time>
      </trkpt>
      <trkpt lat="45.11024" lon="0.59236">
        <ele>205.2</ele>
        <time>2025-06-15T08:21:55Z</time>
      </trkpt>
      <trkpt lat="45.11025" lon="0.59232">
        <ele>205.2</ele>
        <time>2025-06-15T08:21:56Z</time>
      </trkpt>
      <trkpt lat="45.11026" lon="0.59227">
        <ele>205.2</ele>
        <time>2025-06-15T08:21:57Z</time>
      </trkpt>
      <trkpt lat="45.11028" lon="0.59223">
        <ele>205.2</ele>
        <time>2025-06-15T08:21:58Z</time>
      </trkpt>
      <trkpt lat="45.11029" lon="0.59218">
        <ele>205.2</ele>
        <time>2025-06-15T08:21:59Z</time>
      </trkpt>
      <trkpt lat="45.1103" lon="0.59214">
        <ele>205.4</ele>
        <time>2025-06-15T08:22:00Z</time>
      </trkpt>
      <trkpt lat="45.11031" lon="0.5921">
        <ele>205.4</ele>
        <time>2025-06-15T08:22:01Z</time>
      </trkpt>
      <trkpt lat="45.11032" lon="0.59205">
        <ele>205.4</ele>
        <time>2025-06-15T08:22:02Z</time>
      </trkpt>
      <trkpt lat="45.11034" lon="0.59201">
        <ele>205.4</ele>
        <time>2025-06-15T08:22:03Z</time>
      </trkpt>
      <trkpt lat="45.11035" lon="0.59197">
        <ele>205.4</ele>
        <time>2025-06-15T08:22:04Z</time>
      </trkpt>
      <trkpt lat="45.11036" lon="0.59192">
        <ele>205.4</ele>
        <time>2025-06-15T08:22:05Z</time>
      </trkpt>
      <trkpt lat="45.11037" lon="0.59187">
        <ele>205.6</ele>
        <time>2025-06-15T08:22:06Z</time>
      </trkpt>
      <trkpt lat="45.11039" lon="0.59182">
        <ele>205.6</ele>
        <time>2025-06-15T08:22:07Z</time>
      </trkpt>
      <trkpt lat="45.1104" lon="0.59178">
        <ele>205.6</ele>
        <time>2025-06-15T08:22:08Z</time>
      </trkpt>
      <trkpt lat="45.11042" lon="0.59174">
        <ele>205.6</ele>
        <time>2025-06-15T08:22:09Z</time>
      </trkpt>
      <trkpt lat="45.11043" lon="0.5917">
        <ele>205.6</ele>
        <time>2025-06-15T08:22:10Z</time>
      </trkpt>
      <trkpt lat="45.11044" lon="0.59166">
        <ele>205.6</ele>
        <time>2025-06-15T08:22:11Z</time>
      </trkpt>
      <trkpt lat="45.11045" lon="0.59161">
        <ele>205.6</ele>
        <time>2025-06-15T08:22:12Z</time>
      </trkpt>
      <trkpt lat="45.11046" lon="0.59157">
        <ele>205.8</ele>
        <time>2025-06-15T08:22:13Z</time>
      </trkpt>
      <trkpt lat="45.11047" lon="0.59153">
        <ele>205.8</ele>
        <time>2025-06-15T08:22:14Z</time>
      </trkpt>
      <trkpt lat="45.11048" lon="0.59148">
        <ele>205.8</ele>
        <time>2025-06-15T08:22:15Z</time>
      </trkpt>
      <trkpt lat="45.1105" lon="0.59144">
        <ele>205.8</ele>
        <time>2025-06-15T08:22:16Z</time>
      </trkpt>
      <trkpt lat="45.11052" lon="0.59141">
        <ele>206</ele>
        <time>2025-06-15T08:22:17Z</time>
      </trkpt>
      <trkpt lat="45.11054" lon="0.59137">
        <ele>206</ele>
        <time>2025-06-15T08:22:18Z</time>
      </trkpt>
      <trkpt lat="45.11055" lon="0.59132">
        <ele>206</ele>
        <time>2025-06-15T08:22:19Z</time>
      </trkpt>
      <trkpt lat="45.11056" lon="0.59128">
        <ele>206</ele>
        <time>2025-06-15T08:22:20Z</time>
      </trkpt>
      <trkpt lat="45.11057" lon="0.59123">
        <ele>206</ele>
        <time>2025-06-15T08:22:21Z</time>
      </trkpt>
      <trkpt lat="45.11059" lon="0.5912">
        <ele>206.2</ele>
        <time>2025-06-15T08:22:22Z</time>
      </trkpt>
      <trkpt lat="45.1106" lon="0.59116">
        <ele>206.2</ele>
        <time>2025-06-15T08:22:23Z</time>
      </trkpt>
      <trkpt lat="45.11061" lon="0.59111">
        <ele>206.2</ele>
        <time>2025-06-15T08:22:24Z</time>
      </trkpt>
      <trkpt lat="45.11063" lon="0.59106">
        <ele>206.2</ele>
        <time>2025-06-15T08:22:25Z</time>
      </trkpt>
      <trkpt lat="45.11065" lon="0.59102">
        <ele>206.2</ele>
        <time>2025-06-15T08:22:26Z</time>
      </trkpt>
      <trkpt lat="45.11066" lon="0.59098">
        <ele>206.2</ele>
        <time>2025-06-15T08:22:27Z</time>
      </trkpt>
      <trkpt lat="45.11066" lon="0.59094">
        <ele>206.2</ele>
        <time>2025-06-15T08:22:28Z</time>
      </trkpt>
      <trkpt lat="45.11064" lon="0.59091">
        <ele>206.2</ele>
        <time>2025-06-15T08:22:29Z</time>
      </trkpt>
      <trkpt lat="45.11061" lon="0.59089">
        <ele>206.2</ele>
        <time>2025-06-15T08:22:30Z</time>
      </trkpt>
      <trkpt lat="45.11058" lon="0.59086">
        <ele>206.2</ele>
        <time>2025-06-15T08:22:31Z</time>
      </trkpt>
      <trkpt lat="45.11055" lon="0.59083">
        <ele>206</ele>
        <time>2025-06-15T08:22:32Z</time>
      </trkpt>
      <trkpt lat="45.11051" lon="0.59081">
        <ele>205.8</ele>
        <time>2025-06-15T08:22:33Z</time>
      </trkpt>
      <trkpt lat="45.11047" lon="0.59078">
        <ele>205.6</ele>
        <time>2025-06-15T08:22:34Z</time>
      </trkpt>
      <trkpt lat="45.11043" lon="0.59075">
        <ele>205.4</ele>
        <time>2025-06-15T08:22:35Z</time>
      </trkpt>
      <trkpt lat="45.11038" lon="0.59072">
        <ele>205.2</ele>
        <time>2025-06-15T08:22:36Z</time>
      </trkpt>
      <trkpt lat="45.11033" lon="0.5907">
        <ele>205</ele>
        <time>2025-06-15T08:22:37Z</time>
      </trkpt>
      <trkpt lat="45.11028" lon="0.59067">
        <ele>204.8</ele>
        <time>2025-06-15T08:22:38Z</time>
      </trkpt>
      <trkpt lat="45.11024" lon="0.59063">
        <ele>204.6</ele>
        <time>2025-06-15T08:22:39Z</time>
      </trkpt>
      <trkpt lat="45.11019" lon="0.59061">
        <ele>204.4</ele>
        <time>2025-06-15T08:22:40Z</time>
      </trkpt>
      <trkpt lat="45.11015" lon="0.59058">
        <ele>204.2</ele>
        <time>2025-06-15T08:22:41Z</time>
      </trkpt>
      <trkpt lat="45.11011" lon="0.59056">
        <ele>204</ele>
        <time>2025-06-15T08:22:42Z</time>
      </trkpt>
      <trkpt lat="45.11005" lon="0.59053">
        <ele>203.8</ele>
        <time>2025-06-15T08:22:43Z</time>
      </trkpt>
      <trkpt lat="45.11" lon="0.59049">
        <ele>203.4</ele>
        <time>2025-06-15T08:22:44Z</time>
      </trkpt>
      <trkpt lat="45.10993" lon="0.59046">
        <ele>203.2</ele>
        <time>2025-06-15T08:22:45Z</time>
      </trkpt>
      <trkpt lat="45.10987" lon="0.59043">
        <ele>202.8</ele>
        <time>2025-06-15T08:22:46Z</time>
      </trkpt>
      <trkpt lat="45.10982" lon="0.5904">
        <ele>202.4</ele>
        <time>2025-06-15T08:22:47Z</time>
      </trkpt>
      <trkpt lat="45.10977" lon="0.59038">
        <ele>202</ele>
        <time>2025-06-15T08:22:48Z</time>
      </trkpt>
      <trkpt lat="45.10971" lon="0.59036">
        <ele>201.6</ele>
        <time>2025-06-15T08:22:49Z</time>
      </trkpt>
      <trkpt lat="45.10966" lon="0.59034">
        <ele>201.2</ele>
        <time>2025-06-15T08:22:50Z</time>
      </trkpt>
      <trkpt lat="45.10961" lon="0.59031">
        <ele>201</ele>
        <time>2025-06-15T08:22:51Z</time>
      </trkpt>
      <trkpt lat="45.10956" lon="0.59029">
        <ele>200.6</ele>
        <time>2025-06-15T08:22:52Z</time>
      </trkpt>
      <trkpt lat="45.1095" lon="0.59027">
        <ele>200.2</ele>
        <time>2025-06-15T08:22:53Z</time>
      </trkpt>
      <trkpt lat="45.10944" lon="0.59025">
        <ele>199.8</ele>
        <time>2025-06-15T08:22:54Z</time>
      </trkpt>
      <trkpt lat="45.10937" lon="0.59023">
        <ele>199.4</ele>
        <time>2025-06-15T08:22:55Z</time>
      </trkpt>
      <trkpt lat="45.10931" lon="0.59022">
        <ele>199</ele>
        <time>2025-06-15T08:22:56Z</time>
      </trkpt>
      <trkpt lat="45.10924" lon="0.59021">
        <ele>198.6</ele>
        <time>2025-06-15T08:22:57Z</time>
      </trkpt>
      <trkpt lat="45.10917" lon="0.5902">
        <ele>198</ele>
        <time>2025-06-15T08:22:58Z</time>
      </trkpt>
      <trkpt lat="45.1091" lon="0.59019">
        <ele>197.2</ele>
        <time>2025-06-15T08:22:59Z</time>
      </trkpt>
      <trkpt lat="45.10902" lon="0.5902">
        <ele>196.6</ele>
        <time>2025-06-15T08:23:00Z</time>
      </trkpt>
      <trkpt lat="45.10895" lon="0.5902">
        <ele>196</ele>
        <time>2025-06-15T08:23:01Z</time>
      </trkpt>
      <trkpt lat="45.10888" lon="0.5902">
        <ele>195.6</ele>
        <time>2025-06-15T08:23:02Z</time>
      </trkpt>
      <trkpt lat="45.10881" lon="0.59021">
        <ele>195.2</ele>
        <time>2025-06-15T08:23:03Z</time>
      </trkpt>
      <trkpt lat="45.10874" lon="0.59023">
        <ele>194.2</ele>
        <time>2025-06-15T08:23:04Z</time>
      </trkpt>
      <trkpt lat="45.10867" lon="0.59026">
        <ele>193.6</ele>
        <time>2025-06-15T08:23:05Z</time>
      </trkpt>
      <trkpt lat="45.10863" lon="0.5903">
        <ele>192.8</ele>
        <time>2025-06-15T08:23:06Z</time>
      </trkpt>
      <trkpt lat="45.1086" lon="0.59033">
        <ele>192.2</ele>
        <time>2025-06-15T08:23:07Z</time>
      </trkpt>
      <trkpt lat="45.10857" lon="0.59035">
        <ele>191.6</ele>
        <time>2025-06-15T08:23:08Z</time>
      </trkpt>
      <trkpt lat="45.10856" lon="0.59035">
        <ele>191</ele>
        <time>2025-06-15T08:23:09Z</time>
      </trkpt>
      <trkpt lat="45.10855" lon="0.59033">
        <ele>190.6</ele>
        <time>2025-06-15T08:23:10Z</time>
      </trkpt>
      <trkpt lat="45.10855" lon="0.59031">
        <ele>190.2</ele>
        <time>2025-06-15T08:23:11Z</time>
      </trkpt>
      <trkpt lat="45.10856" lon="0.5903">
        <ele>190</ele>
        <time>2025-06-15T08:23:12Z</time>
      </trkpt>
      <trkpt lat="45.10857" lon="0.5903">
        <ele>189.8</ele>
        <time>2025-06-15T08:23:13Z</time>
      </trkpt>
      <trkpt lat="45.10858" lon="0.59029">
        <ele>189.6</ele>
        <time>2025-06-15T08:23:14Z</time>
      </trkpt>
      <trkpt lat="45.10859" lon="0.59028">
        <ele>189.4</ele>
        <time>2025-06-15T08:23:15Z</time>
      </trkpt>
      <trkpt lat="45.10861" lon="0.59026">
        <ele>189.4</ele>
        <time>2025-06-15T08:23:16Z</time>
      </trkpt>
      <trkpt lat="45.10862" lon="0.59024">
        <ele>189.4</ele>
        <time>2025-06-15T08:23:17Z</time>
      </trkpt>
      <trkpt lat="45.10863" lon="0.59022">
        <ele>189.4</ele>
        <time>2025-06-15T08:23:18Z</time>
      </trkpt>
      <trkpt lat="45.10864" lon="0.5902">
        <ele>189.6</ele>
        <time>2025-06-15T08:23:19Z</time>
      </trkpt>
      <trkpt lat="45.10866" lon="0.59017">
        <ele>189.8</ele>
        <time>2025-06-15T08:23:20Z</time>
      </trkpt>
      <trkpt lat="45.10867" lon="0.59014">
        <ele>190.2</ele>
        <time>2025-06-15T08:23:21Z</time>
      </trkpt>
      <trkpt lat="45.10869" lon="0.59012">
        <ele>190.4</ele>
        <time>2025-06-15T08:23:22Z</time>
      </trkpt>
      <trkpt lat="45.10871" lon="0.5901">
        <ele>190.6</ele>
        <time>2025-06-15T08:23:23Z</time>
      </trkpt>
      <trkpt lat="45.10873" lon="0.59008">
        <ele>191</ele>
        <time>2025-06-15T08:23:24Z</time>
      </trkpt>
      <trkpt lat="45.10876" lon="0.59005">
        <ele>191.2</ele>
        <time>2025-06-15T08:23:25Z</time>
      </trkpt>
      <trkpt lat="45.10878" lon="0.59002">
        <ele>191.4</ele>
        <time>2025-06-15T08:23:26Z</time>
      </trkpt>
      <trkpt lat="45.1088" lon="0.58999">
        <ele>191.8</ele>
        <time>2025-06-15T08:23:27Z</time>
      </trkpt>
      <trkpt lat="45.10882" lon="0.58996">
        <ele>192</ele>
        <time>2025-06-15T08:23:28Z</time>
      </trkpt>
      <trkpt lat="45.10884" lon="0.58993">
        <ele>192.2</ele>
        <time>2025-06-15T08:23:29Z</time>
      </trkpt>
      <trkpt lat="45.10886" lon="0.58989">
        <ele>192.4</ele>
        <time>2025-06-15T08:23:30Z</time>
      </trkpt>
      <trkpt lat="45.10887" lon="0.58985">
        <ele>192.6</ele>
        <time>2025-06-15T08:23:31Z</time>
      </trkpt>
      <trkpt lat="45.10888" lon="0.58981">
        <ele>192.8</ele>
        <time>2025-06-15T08:23:32Z</time>
      </trkpt>
      <trkpt lat="45.1089" lon="0.58978">
        <ele>193</ele>
        <time>2025-06-15T08:23:33Z</time>
      </trkpt>
      <trkpt lat="45.10892" lon="0.58975">
        <ele>193</ele>
        <time>2025-06-15T08:23:34Z</time>
      </trkpt>
      <trkpt lat="45.10893" lon="0.58971">
        <ele>193.2</ele>
        <time>2025-06-15T08:23:35Z</time>
      </trkpt>
      <trkpt lat="45.10895" lon="0.58967">
        <ele>193.2</ele>
        <time>2025-06-15T08:23:36Z</time>
      </trkpt>
      <trkpt lat="45.10897" lon="0.58964">
        <ele>193.2</ele>
        <time>2025-06-15T08:23:37Z</time>
      </trkpt>
      <trkpt lat="45.10899" lon="0.58961">
        <ele>193.4</ele>
        <time>2025-06-15T08:23:38Z</time>
      </trkpt>
      <trkpt lat="45.109" lon="0.58957">
        <ele>193.4</ele>
        <time>2025-06-15T08:23:39Z</time>
      </trkpt>
      <trkpt lat="45.10901" lon="0.58954">
        <ele>193.4</ele>
        <time>2025-06-15T08:23:40Z</time>
      </trkpt>
      <trkpt lat="45.10903" lon="0.5895">
        <ele>193.6</ele>
        <time>2025-06-15T08:23:41Z</time>
      </trkpt>
      <trkpt lat="45.10905" lon="0.58946">
        <ele>193.6</ele>
        <time>2025-06-15T08:23:42Z</time>
      </trkpt>
      <trkpt lat="45.10907" lon="0.58942">
        <ele>193.6</ele>
        <time>2025-06-15T08:23:43Z</time>
      </trkpt>
      <trkpt lat="45.10909" lon="0.58939">
        <ele>193.8</ele>
        <time>2025-06-15T08:23:44Z</time>
      </trkpt>
      <trkpt lat="45.10912" lon="0.58935">
        <ele>193.8</ele>
        <time>2025-06-15T08:23:45Z</time>
      </trkpt>
      <trkpt lat="45.10914" lon="0.58932">
        <ele>194</ele>
        <time>2025-06-15T08:23:46Z</time>
      </trkpt>
      <trkpt lat="45.10917" lon="0.5893">
        <ele>194.2</ele>
        <time>2025-06-15T08:23:47Z</time>
      </trkpt>
      <trkpt lat="45.10919" lon="0.58928">
        <ele>194.4</ele>
        <time>2025-06-15T08:23:48Z</time>
      </trkpt>
      <trkpt lat="45.10921" lon="0.58926">
        <ele>194.6</ele>
        <time>2025-06-15T08:23:49Z</time>
      </trkpt>
      <trkpt lat="45.10923" lon="0.58924">
        <ele>194.8</ele>
        <time>2025-06-15T08:23:50Z</time>
      </trkpt>
      <trkpt lat="45.10925" lon="0.58921">
        <ele>195</ele>
        <time>2025-06-15T08:23:51Z</time>
      </trkpt>
      <trkpt lat="45.10927" lon="0.58919">
        <ele>195.2</ele>
        <time>2025-06-15T08:23:52Z</time>
      </trkpt>
      <trkpt lat="45.10929" lon="0.58917">
        <ele>195.4</ele>
        <time>2025-06-15T08:23:53Z</time>
      </trkpt>
      <trkpt lat="45.1093" lon="0.58915">
        <ele>195.6</ele>
        <time>2025-06-15T08:23:54Z</time>
      </trkpt>
      <trkpt lat="45.10931" lon="0.58912">
        <ele>196</ele>
        <time>2025-06-15T08:23:55Z</time>
      </trkpt>
      <trkpt lat="45.10933" lon="0.5891">
        <ele>196.2</ele>
        <time>2025-06-15T08:23:56Z</time>
      </trkpt>
      <trkpt lat="45.10934" lon="0.58908">
        <ele>196.6</ele>
        <time>2025-06-15T08:23:57Z</time>
      </trkpt>
      <trkpt lat="45.10935" lon="0.58905">
        <ele>196.8</ele>
        <time>2025-06-15T08:23:58Z</time>
      </trkpt>
      <trkpt lat="45.10936" lon="0.58903">
        <ele>197.2</ele>
        <time>2025-06-15T08:23:59Z</time>
      </trkpt>
      <trkpt lat="45.10938" lon="0.589">
        <ele>197.4</ele>
        <time>2025-06-15T08:24:00Z</time>
      </trkpt>
      <trkpt lat="45.10939" lon="0.58898">
        <ele>197.6</ele>
        <time>2025-06-15T08:24:01Z</time>
      </trkpt>
      <trkpt lat="45.10941" lon="0.58896">
        <ele>197.8</ele>
        <time>2025-06-15T08:24:02Z</time>
      </trkpt>
      <trkpt lat="45.10942" lon="0.58893">
        <ele>198</ele>
        <time>2025-06-15T08:24:03Z</time>
      </trkpt>
      <trkpt lat="45.10943" lon="0.5889">
        <ele>198.2</ele>
        <time>2025-06-15T08:24:04Z</time>
      </trkpt>
      <trkpt lat="45.10944" lon="0.58888">
        <ele>198.2</ele>
        <time>2025-06-15T08:24:05Z</time>
      </trkpt>
      <trkpt lat="45.10946" lon="0.58884">
        <ele>198.4</ele>
        <time>2025-06-15T08:24:06Z</time>
      </trkpt>
      <trkpt lat="45.10947" lon="0.58882">
        <ele>198.6</ele>
        <time>2025-06-15T08:24:07Z</time>
      </trkpt>
      <trkpt lat="45.10949" lon="0.58879">
        <ele>198.6</ele>
        <time>2025-06-15T08:24:08Z</time>
      </trkpt>
      <trkpt lat="45.1095" lon="0.58876">
        <ele>198.6</ele>
        <time>2025-06-15T08:24:09Z</time>
      </trkpt>
      <trkpt lat="45.10951" lon="0.58873">
        <ele>198.8</ele>
        <time>2025-06-15T08:24:10Z</time>
      </trkpt>
      <trkpt lat="45.10953" lon="0.5887">
        <ele>198.8</ele>
        <time>2025-06-15T08:24:11Z</time>
      </trkpt>
      <trkpt lat="45.10954" lon="0.58867">
        <ele>199</ele>
        <time>2025-06-15T08:24:12Z</time>
      </trkpt>
      <trkpt lat="45.10955" lon="0.58864">
        <ele>199</ele>
        <time>2025-06-15T08:24:13Z</time>
      </trkpt>
      <trkpt lat="45.10955" lon="0.58861">
        <ele>199.2</ele>
        <time>2025-06-15T08:24:14Z</time>
      </trkpt>
      <trkpt lat="45.10955" lon="0.58858">
        <ele>199.4</ele>
        <time>2025-06-15T08:24:15Z</time>
      </trkpt>
      <trkpt lat="45.10956" lon="0.58855">
        <ele>199.4</ele>
        <time>2025-06-15T08:24:16Z</time>
      </trkpt>
      <trkpt lat="45.10957" lon="0.58851">
        <ele>199.6</ele>
        <time>2025-06-15T08:24:17Z</time>
      </trkpt>
      <trkpt lat="45.10958" lon="0.58849">
        <ele>199.8</ele>
        <time>2025-06-15T08:24:18Z</time>
      </trkpt>
      <trkpt lat="45.10958" lon="0.58846">
        <ele>200</ele>
        <time>2025-06-15T08:24:19Z</time>
      </trkpt>
      <trkpt lat="45.10959" lon="0.58843">
        <ele>200.2</ele>
        <time>2025-06-15T08:24:20Z</time>
      </trkpt>
      <trkpt lat="45.1096" lon="0.5884">
        <ele>200.2</ele>
        <time>2025-06-15T08:24:21Z</time>
      </trkpt>
      <trkpt lat="45.10961" lon="0.58837">
        <ele>200.6</ele>
        <time>2025-06-15T08:24:22Z</time>
      </trkpt>
      <trkpt lat="45.10961" lon="0.58834">
        <ele>200.6</ele>
        <time>2025-06-15T08:24:23Z</time>
      </trkpt>
      <trkpt lat="45.10962" lon="0.58832">
        <ele>201</ele>
        <time>2025-06-15T08:24:24Z</time>
      </trkpt>
      <trkpt lat="45.10963" lon="0.58828">
        <ele>201.2</ele>
        <time>2025-06-15T08:24:25Z</time>
      </trkpt>
      <trkpt lat="45.10963" lon="0.58825">
        <ele>201.2</ele>
        <time>2025-06-15T08:24:26Z</time>
      </trkpt>
      <trkpt lat="45.10964" lon="0.58822">
        <ele>201.4</ele>
        <time>2025-06-15T08:24:27Z</time>
      </trkpt>
      <trkpt lat="45.10964" lon="0.5882">
        <ele>201.6</ele>
        <time>2025-06-15T08:24:28Z</time>
      </trkpt>
      <trkpt lat="45.10965" lon="0.58817">
        <ele>201.8</ele>
        <time>2025-06-15T08:24:29Z</time>
      </trkpt>
      <trkpt lat="45.10966" lon="0.58814">
        <ele>201.8</ele>
        <time>2025-06-15T08:24:30Z</time>
      </trkpt>
      <trkpt lat="45.10967" lon="0.58811">
        <ele>202</ele>
        <time>2025-06-15T08:24:31Z</time>
      </trkpt>
      <trkpt lat="45.10967" lon="0.58808">
        <ele>202.2</ele>
        <time>2025-06-15T08:24:32Z</time>
      </trkpt>
      <trkpt lat="45.10968" lon="0.58806">
        <ele>202.4</ele>
        <time>2025-06-15T08:24:33Z</time>
      </trkpt>
      <trkpt lat="45.10969" lon="0.58803">
        <ele>202.4</ele>
        <time>2025-06-15T08:24:34Z</time>
      </trkpt>
      <trkpt lat="45.10969" lon="0.588">
        <ele>202.8</ele>
        <time>2025-06-15T08:24:35Z</time>
      </trkpt>
      <trkpt lat="45.1097" lon="0.58796">
        <ele>203</ele>
        <time>2025-06-15T08:24:36Z</time>
      </trkpt>
      <trkpt lat="45.10971" lon="0.58793">
        <ele>203</ele>
        <time>2025-06-15T08:24:37Z</time>
      </trkpt>
      <trkpt lat="45.10972" lon="0.5879">
        <ele>203.2</ele>
        <time>2025-06-15T08:24:38Z</time>
      </trkpt>
      <trkpt lat="45.10973" lon="0.58787">
        <ele>203.4</ele>
        <time>2025-06-15T08:24:39Z</time>
      </trkpt>
      <trkpt lat="45.10974" lon="0.58784">
        <ele>203.4</ele>
        <time>2025-06-15T08:24:40Z</time>
      </trkpt>
      <trkpt lat="45.10974" lon="0.58781">
        <ele>203.6</ele>
        <time>2025-06-15T08:24:41Z</time>
      </trkpt>
      <trkpt lat="45.10975" lon="0.58778">
        <ele>203.8</ele>
        <time>2025-06-15T08:24:42Z</time>
      </trkpt>
      <trkpt lat="45.10975" lon="0.58774">
        <ele>204</ele>
        <time>2025-06-15T08:24:43Z</time>
      </trkpt>
      <trkpt lat="45.10976" lon="0.58771">
        <ele>204</ele>
        <time>2025-06-15T08:24:44Z</time>
      </trkpt>
      <trkpt lat="45.10977" lon="0.58768">
        <ele>204.2</ele>
        <time>2025-06-15T08:24:45Z</time>
      </trkpt>
      <trkpt lat="45.10978" lon="0.58765">
        <ele>204.4</ele>
        <time>2025-06-15T08:24:46Z</time>
      </trkpt>
      <trkpt lat="45.10978" lon="0.58762">
        <ele>204.6</ele>
        <time>2025-06-15T08:24:47Z</time>
      </trkpt>
      <trkpt lat="45.10979" lon="0.58759">
        <ele>204.6</ele>
        <time>2025-06-15T08:24:48Z</time>
      </trkpt>
      <trkpt lat="45.10981" lon="0.58756">
        <ele>204.8</ele>
        <time>2025-06-15T08:24:49Z</time>
      </trkpt>
      <trkpt lat="45.10982" lon="0.58753">
        <ele>205</ele>
        <time>2025-06-15T08:24:50Z</time>
      </trkpt>
      <trkpt lat="45.10983" lon="0.5875">
        <ele>205</ele>
        <time>2025-06-15T08:24:51Z</time>
      </trkpt>
      <trkpt lat="45.10984" lon="0.58748">
        <ele>205.2</ele>
        <time>2025-06-15T08:24:52Z</time>
      </trkpt>
      <trkpt lat="45.10984" lon="0.58745">
        <ele>205.4</ele>
        <time>2025-06-15T08:24:53Z</time>
      </trkpt>
      <trkpt lat="45.10985" lon="0.58742">
        <ele>205.4</ele>
        <time>2025-06-15T08:24:54Z</time>
      </trkpt>
      <trkpt lat="45.10987" lon="0.58739">
        <ele>205.6</ele>
        <time>2025-06-15T08:24:55Z</time>
      </trkpt>
      <trkpt lat="45.10988" lon="0.58735">
        <ele>205.6</ele>
        <time>2025-06-15T08:24:56Z</time>
      </trkpt>
      <trkpt lat="45.10989" lon="0.58732">
        <ele>205.8</ele>
        <time>2025-06-15T08:24:57Z</time>
      </trkpt>
      <trkpt lat="45.1099" lon="0.58729">
        <ele>205.8</ele>
        <time>2025-06-15T08:24:58Z</time>
      </trkpt>
      <trkpt lat="45.1099" lon="0.58726">
        <ele>206</ele>
        <time>2025-06-15T08:24:59Z</time>
      </trkpt>
      <trkpt lat="45.10992" lon="0.58723">
        <ele>206</ele>
        <time>2025-06-15T08:25:00Z</time>
      </trkpt>
      <trkpt lat="45.10993" lon="0.5872">
        <ele>206</ele>
        <time>2025-06-15T08:25:01Z</time>
      </trkpt>
      <trkpt lat="45.10994" lon="0.58717">
        <ele>206.2</ele>
        <time>2025-06-15T08:25:02Z</time>
      </trkpt>
      <trkpt lat="45.10995" lon="0.58714">
        <ele>206.2</ele>
        <time>2025-06-15T08:25:03Z</time>
      </trkpt>
      <trkpt lat="45.10996" lon="0.58711">
        <ele>206.2</ele>
        <time>2025-06-15T08:25:04Z</time>
      </trkpt>
      <trkpt lat="45.10998" lon="0.58709">
        <ele>206.4</ele>
        <time>2025-06-15T08:25:05Z</time>
      </trkpt>
      <trkpt lat="45.11" lon="0.58707">
        <ele>206.4</ele>
        <time>2025-06-15T08:25:06Z</time>
      </trkpt>
      <trkpt lat="45.11002" lon="0.58706">
        <ele>206.4</ele>
        <time>2025-06-15T08:25:07Z</time>
      </trkpt>
      <trkpt lat="45.11004" lon="0.58704">
        <ele>206.6</ele>
        <time>2025-06-15T08:25:08Z</time>
      </trkpt>
      <trkpt lat="45.11006" lon="0.58702">
        <ele>206.8</ele>
        <time>2025-06-15T08:25:09Z</time>
      </trkpt>
      <trkpt lat="45.11008" lon="0.587">
        <ele>207</ele>
        <time>2025-06-15T08:25:10Z</time>
      </trkpt>
      <trkpt lat="45.1101" lon="0.58699">
        <ele>207</ele>
        <time>2025-06-15T08:25:11Z</time>
      </trkpt>
      <trkpt lat="45.11012" lon="0.58697">
        <ele>207.2</ele>
        <time>2025-06-15T08:25:12Z</time>
      </trkpt>
      <trkpt lat="45.11014" lon="0.58696">
        <ele>207.4</ele>
        <time>2025-06-15T08:25:13Z</time>
      </trkpt>
      <trkpt lat="45.11016" lon="0.58694">
        <ele>207.6</ele>
        <time>2025-06-15T08:25:14Z</time>
      </trkpt>
      <trkpt lat="45.11019" lon="0.58692">
        <ele>207.6</ele>
        <time>2025-06-15T08:25:15Z</time>
      </trkpt>
      <trkpt lat="45.1102" lon="0.58691">
        <ele>207.8</ele>
        <time>2025-06-15T08:25:16Z</time>
      </trkpt>
      <trkpt lat="45.11022" lon="0.58689">
        <ele>208</ele>
        <time>2025-06-15T08:25:17Z</time>
      </trkpt>
      <trkpt lat="45.11024" lon="0.58688">
        <ele>208.2</ele>
        <time>2025-06-15T08:25:18Z</time>
      </trkpt>
      <trkpt lat="45.11026" lon="0.58686">
        <ele>208.4</ele>
        <time>2025-06-15T08:25:19Z</time>
      </trkpt>
      <trkpt lat="45.11027" lon="0.58684">
        <ele>208.6</ele>
        <time>2025-06-15T08:25:20Z</time>
      </trkpt>
      <trkpt lat="45.11029" lon="0.58681">
        <ele>208.8</ele>
        <time>2025-06-15T08:25:21Z</time>
      </trkpt>
      <trkpt lat="45.1103" lon="0.58678">
        <ele>208.8</ele>
        <time>2025-06-15T08:25:22Z</time>
      </trkpt>
      <trkpt lat="45.11031" lon="0.58675">
        <ele>209</ele>
        <time>2025-06-15T08:25:23Z</time>
      </trkpt>
      <trkpt lat="45.11032" lon="0.58671">
        <ele>209</ele>
        <time>2025-06-15T08:25:24Z</time>
      </trkpt>
      <trkpt lat="45.11034" lon="0.58668">
        <ele>209</ele>
        <time>2025-06-15T08:25:25Z</time>
      </trkpt>
      <trkpt lat="45.11035" lon="0.58665">
        <ele>209</ele>
        <time>2025-06-15T08:25:26Z</time>
      </trkpt>
      <trkpt lat="45.11037" lon="0.58662">
        <ele>209</ele>
        <time>2025-06-15T08:25:27Z</time>
      </trkpt>
      <trkpt lat="45.11038" lon="0.58659">
        <ele>209</ele>
        <time>2025-06-15T08:25:28Z</time>
      </trkpt>
      <trkpt lat="45.1104" lon="0.58655">
        <ele>209</ele>
        <time>2025-06-15T08:25:29Z</time>
      </trkpt>
      <trkpt lat="45.11041" lon="0.58652">
        <ele>209</ele>
        <time>2025-06-15T08:25:30Z</time>
      </trkpt>
      <trkpt lat="45.11042" lon="0.58647">
        <ele>209</ele>
        <time>2025-06-15T08:25:31Z</time>
      </trkpt>
      <trkpt lat="45.11043" lon="0.58643">
        <ele>209.2</ele>
        <time>2025-06-15T08:25:32Z</time>
      </trkpt>
      <trkpt lat="45.11044" lon="0.58639">
        <ele>209.2</ele>
        <time>2025-06-15T08:25:33Z</time>
      </trkpt>
      <trkpt lat="45.11046" lon="0.58635">
        <ele>209.2</ele>
        <time>2025-06-15T08:25:34Z</time>
      </trkpt>
      <trkpt lat="45.11047" lon="0.58631">
        <ele>209.4</ele>
        <time>2025-06-15T08:25:35Z</time>
      </trkpt>
      <trkpt lat="45.11049" lon="0.58627">
        <ele>209.6</ele>
        <time>2025-06-15T08:25:36Z</time>
      </trkpt>
      <trkpt lat="45.11051" lon="0.58624">
        <ele>209.6</ele>
        <time>2025-06-15T08:25:37Z</time>
      </trkpt>
      <trkpt lat="45.11053" lon="0.5862">
        <ele>209.6</ele>
        <time>2025-06-15T08:25:38Z</time>
      </trkpt>
      <trkpt lat="45.11055" lon="0.58617">
        <ele>209.6</ele>
        <time>2025-06-15T08:25:39Z</time>
      </trkpt>
      <trkpt lat="45.11059" lon="0.58614">
        <ele>209.6</ele>
        <time>2025-06-15T08:25:40Z</time>
      </trkpt>
      <trkpt lat="45.11062" lon="0.5861">
        <ele>209.6</ele>
        <time>2025-06-15T08:25:41Z</time>
      </trkpt>
      <trkpt lat="45.11066" lon="0.58607">
        <ele>209.4</ele>
        <time>2025-06-15T08:25:42Z</time>
      </trkpt>
      <trkpt lat="45.1107" lon="0.58603">
        <ele>209.2</ele>
        <time>2025-06-15T08:25:43Z</time>
      </trkpt>
      <trkpt lat="45.11074" lon="0.58599">
        <ele>209</ele>
        <time>2025-06-15T08:25:44Z</time>
      </trkpt>
      <trkpt lat="45.11078" lon="0.58593">
        <ele>208.8</ele>
        <time>2025-06-15T08:25:45Z</time>
      </trkpt>
      <trkpt lat="45.11083" lon="0.58589">
        <ele>208.4</ele>
        <time>2025-06-15T08:25:46Z</time>
      </trkpt>
      <trkpt lat="45.11088" lon="0.58583">
        <ele>208</ele>
        <time>2025-06-15T08:25:47Z</time>
      </trkpt>
      <trkpt lat="45.11092" lon="0.58576">
        <ele>207.6</ele>
        <time>2025-06-15T08:25:48Z</time>
      </trkpt>
      <trkpt lat="45.11095" lon="0.58569">
        <ele>207.2</ele>
        <time>2025-06-15T08:25:49Z</time>
      </trkpt>
      <trkpt lat="45.11099" lon="0.58563">
        <ele>206.6</ele>
        <time>2025-06-15T08:25:50Z</time>
      </trkpt>
      <trkpt lat="45.11103" lon="0.58557">
        <ele>206.2</ele>
        <time>2025-06-15T08:25:51Z</time>
      </trkpt>
      <trkpt lat="45.11107" lon="0.5855">
        <ele>206</ele>
        <time>2025-06-15T08:25:52Z</time>
      </trkpt>
      <trkpt lat="45.11112" lon="0.58543">
        <ele>205.6</ele>
        <time>2025-06-15T08:25:53Z</time>
      </trkpt>
      <trkpt lat="45.11117" lon="0.58536">
        <ele>204.8</ele>
        <time>2025-06-15T08:25:54Z</time>
      </trkpt>
      <trkpt lat="45.11122" lon="0.58529">
        <ele>204.4</ele>
        <time>2025-06-15T08:25:55Z</time>
      </trkpt>
      <trkpt lat="45.11128" lon="0.58523">
        <ele>204</ele>
        <time>2025-06-15T08:25:56Z</time>
      </trkpt>
      <trkpt lat="45.11135" lon="0.58519">
        <ele>203.4</ele>
        <time>2025-06-15T08:25:57Z</time>
      </trkpt>
      <trkpt lat="45.11141" lon="0.58512">
        <ele>202.8</ele>
        <time>2025-06-15T08:25:58Z</time>
      </trkpt>
      <trkpt lat="45.11147" lon="0.58506">
        <ele>202.2</ele>
        <time>2025-06-15T08:25:59Z</time>
      </trkpt>
      <trkpt lat="45.11153" lon="0.58499">
        <ele>201.8</ele>
        <time>2025-06-15T08:26:00Z</time>
      </trkpt>
      <trkpt lat="45.11159" lon="0.58494">
        <ele>201.4</ele>
        <time>2025-06-15T08:26:01Z</time>
      </trkpt>
      <trkpt lat="45.11166" lon="0.58491">
        <ele>201</ele>
        <time>2025-06-15T08:26:02Z</time>
      </trkpt>
      <trkpt lat="45.11172" lon="0.58487">
        <ele>200.8</ele>
        <time>2025-06-15T08:26:03Z</time>
      </trkpt>
      <trkpt lat="45.11178" lon="0.58484">
        <ele>200.8</ele>
        <time>2025-06-15T08:26:04Z</time>
      </trkpt>
      <trkpt lat="45.11183" lon="0.58483">
        <ele>200.8</ele>
        <time>2025-06-15T08:26:05Z</time>
      </trkpt>
      <trkpt lat="45.11189" lon="0.58481">
        <ele>200.8</ele>
        <time>2025-06-15T08:26:06Z</time>
      </trkpt>
      <trkpt lat="45.11195" lon="0.58479">
        <ele>201</ele>
        <time>2025-06-15T08:26:07Z</time>
      </trkpt>
      <trkpt lat="45.112" lon="0.58477">
        <ele>201</ele>
        <time>2025-06-15T08:26:08Z</time>
      </trkpt>
      <trkpt lat="45.11206" lon="0.58475">
        <ele>201.2</ele>
        <time>2025-06-15T08:26:09Z</time>
      </trkpt>
      <trkpt lat="45.11211" lon="0.58473">
        <ele>201.2</ele>
        <time>2025-06-15T08:26:10Z</time>
      </trkpt>
      <trkpt lat="45.11215" lon="0.58472">
        <ele>201.4</ele>
        <time>2025-06-15T08:26:11Z</time>
      </trkpt>
      <trkpt lat="45.1122" lon="0.5847">
        <ele>201.4</ele>
        <time>2025-06-15T08:26:12Z</time>
      </trkpt>
      <trkpt lat="45.11225" lon="0.58469">
        <ele>201.6</ele>
        <time>2025-06-15T08:26:13Z</time>
      </trkpt>
      <trkpt lat="45.11229" lon="0.58468">
        <ele>201.6</ele>
        <time>2025-06-15T08:26:14Z</time>
      </trkpt>
      <trkpt lat="45.11233" lon="0.58465">
        <ele>201.8</ele>
        <time>2025-06-15T08:26:15Z</time>
      </trkpt>
      <trkpt lat="45.11236" lon="0.58463">
        <ele>202</ele>
        <time>2025-06-15T08:26:16Z</time>
      </trkpt>
      <trkpt lat="45.11239" lon="0.58461">
        <ele>202.2</ele>
        <time>2025-06-15T08:26:17Z</time>
      </trkpt>
      <trkpt lat="45.11243" lon="0.5846">
        <ele>202.4</ele>
        <time>2025-06-15T08:26:18Z</time>
      </trkpt>
      <trkpt lat="45.11246" lon="0.5846">
        <ele>202.6</ele>
        <time>2025-06-15T08:26:19Z</time>
      </trkpt>
      <trkpt lat="45.11249" lon="0.58459">
        <ele>202.6</ele>
        <time>2025-06-15T08:26:20Z</time>
      </trkpt>
      <trkpt lat="45.11252" lon="0.58458">
        <ele>202.8</ele>
        <time>2025-06-15T08:26:21Z</time>
      </trkpt>
      <trkpt lat="45.11254" lon="0.58457">
        <ele>203</ele>
        <time>2025-06-15T08:26:22Z</time>
      </trkpt>
      <trkpt lat="45.11256" lon="0.58456">
        <ele>203.2</ele>
        <time>2025-06-15T08:26:23Z</time>
      </trkpt>
      <trkpt lat="45.11259" lon="0.58455">
        <ele>203.4</ele>
        <time>2025-06-15T08:26:24Z</time>
      </trkpt>
      <trkpt lat="45.11261" lon="0.58454">
        <ele>203.4</ele>
        <time>2025-06-15T08:26:25Z</time>
      </trkpt>
      <trkpt lat="45.11264" lon="0.58453">
        <ele>203.6</ele>
        <time>2025-06-15T08:26:26Z</time>
      </trkpt>
      <trkpt lat="45.11266" lon="0.58452">
        <ele>203.6</ele>
        <time>2025-06-15T08:26:27Z</time>
      </trkpt>
      <trkpt lat="45.11268" lon="0.58452">
        <ele>203.8</ele>
        <time>2025-06-15T08:26:28Z</time>
      </trkpt>
      <trkpt lat="45.1127" lon="0.58451">
        <ele>203.8</ele>
        <time>2025-06-15T08:26:29Z</time>
      </trkpt>
      <trkpt lat="45.11272" lon="0.5845">
        <ele>204</ele>
        <time>2025-06-15T08:26:30Z</time>
      </trkpt>
      <trkpt lat="45.11274" lon="0.58448">
        <ele>204</ele>
        <time>2025-06-15T08:26:31Z</time>
      </trkpt>
      <trkpt lat="45.11277" lon="0.58447">
        <ele>204</ele>
        <time>2025-06-15T08:26:32Z</time>
      </trkpt>
      <trkpt lat="45.11278" lon="0.58446">
        <ele>204</ele>
        <time>2025-06-15T08:26:33Z</time>
      </trkpt>
      <trkpt lat="45.1128" lon="0.58444">
        <ele>204</ele>
        <time>2025-06-15T08:26:34Z</time>
      </trkpt>
      <trkpt lat="45.11282" lon="0.58443">
        <ele>204</ele>
        <time>2025-06-15T08:26:35Z</time>
      </trkpt>
      <trkpt lat="45.11284" lon="0.58443">
        <ele>204.2</ele>
        <time>2025-06-15T08:26:36Z</time>
      </trkpt>
      <trkpt lat="45.11286" lon="0.58443">
        <ele>204.2</ele>
        <time>2025-06-15T08:26:37Z</time>
      </trkpt>
      <trkpt lat="45.11288" lon="0.58442">
        <ele>204.4</ele>
        <time>2025-06-15T08:26:38Z</time>
      </trkpt>
      <trkpt lat="45.11291" lon="0.58442">
        <ele>204.4</ele>
        <time>2025-06-15T08:26:39Z</time>
      </trkpt>
      <trkpt lat="45.11293" lon="0.58441">
        <ele>204.6</ele>
        <time>2025-06-15T08:26:40Z</time>
      </trkpt>
      <trkpt lat="45.11296" lon="0.5844">
        <ele>204.6</ele>
        <time>2025-06-15T08:26:41Z</time>
      </trkpt>
      <trkpt lat="45.11298" lon="0.58439">
        <ele>204.8</ele>
        <time>2025-06-15T08:26:42Z</time>
      </trkpt>
      <trkpt lat="45.11301" lon="0.58438">
        <ele>204.8</ele>
        <time>2025-06-15T08:26:43Z</time>
      </trkpt>
      <trkpt lat="45.11304" lon="0.58438">
        <ele>204.8</ele>
        <time>2025-06-15T08:26:44Z</time>
      </trkpt>
      <trkpt lat="45.11308" lon="0.58438">
        <ele>204.8</ele>
        <time>2025-06-15T08:26:45Z</time>
      </trkpt>
      <trkpt lat="45.11311" lon="0.58438">
        <ele>204.8</ele>
        <time>2025-06-15T08:26:46Z</time>
      </trkpt>
      <trkpt lat="45.11314" lon="0.58437">
        <ele>204.8</ele>
        <time>2025-06-15T08:26:47Z</time>
      </trkpt>
      <trkpt lat="45.11318" lon="0.58436">
        <ele>204.4</ele>
        <time>2025-06-15T08:26:48Z</time>
      </trkpt>
      <trkpt lat="45.11322" lon="0.58435">
        <ele>204.4</ele>
        <time>2025-06-15T08:26:49Z</time>
      </trkpt>
      <trkpt lat="45.11327" lon="0.58434">
        <ele>204.2</ele>
        <time>2025-06-15T08:26:50Z</time>
      </trkpt>
      <trkpt lat="45.11331" lon="0.58434">
        <ele>203.8</ele>
        <time>2025-06-15T08:26:51Z</time>
      </trkpt>
      <trkpt lat="45.11335" lon="0.58434">
        <ele>203.6</ele>
        <time>2025-06-15T08:26:52Z</time>
      </trkpt>
      <trkpt lat="45.1134" lon="0.58433">
        <ele>203.4</ele>
        <time>2025-06-15T08:26:53Z</time>
      </trkpt>
      <trkpt lat="45.11344" lon="0.58433">
        <ele>203</ele>
        <time>2025-06-15T08:26:54Z</time>
      </trkpt>
      <trkpt lat="45.11349" lon="0.58433">
        <ele>202.8</ele>
        <time>2025-06-15T08:26:55Z</time>
      </trkpt>
      <trkpt lat="45.11353" lon="0.58431">
        <ele>202.4</ele>
        <time>2025-06-15T08:26:56Z</time>
      </trkpt>
      <trkpt lat="45.11357" lon="0.5843">
        <ele>202.2</ele>
        <time>2025-06-15T08:26:57Z</time>
      </trkpt>
      <trkpt lat="45.11361" lon="0.58429">
        <ele>202</ele>
        <time>2025-06-15T08:26:58Z</time>
      </trkpt>
      <trkpt lat="45.11365" lon="0.58429">
        <ele>201.8</ele>
        <time>2025-06-15T08:26:59Z</time>
      </trkpt>
      <trkpt lat="45.11369" lon="0.58428">
        <ele>201.8</ele>
        <time>2025-06-15T08:27:00Z</time>
      </trkpt>
      <trkpt lat="45.11373" lon="0.58427">
        <ele>201.6</ele>
        <time>2025-06-15T08:27:01Z</time>
      </trkpt>
      <trkpt lat="45.11376" lon="0.58425">
        <ele>201.4</ele>
        <time>2025-06-15T08:27:02Z</time>
      </trkpt>
      <trkpt lat="45.1138" lon="0.58423">
        <ele>201.4</ele>
        <time>2025-06-15T08:27:03Z</time>
      </trkpt>
      <trkpt lat="45.11384" lon="0.58422">
        <ele>201.4</ele>
        <time>2025-06-15T08:27:04Z</time>
      </trkpt>
      <trkpt lat="45.11387" lon="0.58419">
        <ele>201.2</ele>
        <time>2025-06-15T08:27:05Z</time>
      </trkpt>
      <trkpt lat="45.1139" lon="0.58417">
        <ele>201.2</ele>
        <time>2025-06-15T08:27:06Z</time>
      </trkpt>
      <trkpt lat="45.11393" lon="0.58415">
        <ele>201.2</ele>
        <time>2025-06-15T08:27:07Z</time>
      </trkpt>
      <trkpt lat="45.11397" lon="0.58412">
        <ele>201.2</ele>
        <time>2025-06-15T08:27:08Z</time>
      </trkpt>
      <trkpt lat="45.11401" lon="0.5841">
        <ele>201.2</ele>
        <time>2025-06-15T08:27:09Z</time>
      </trkpt>
      <trkpt lat="45.11404" lon="0.58407">
        <ele>201.4</ele>
        <time>2025-06-15T08:27:10Z</time>
      </trkpt>
      <trkpt lat="45.11408" lon="0.58406">
        <ele>201.4</ele>
        <time>2025-06-15T08:27:11Z</time>
      </trkpt>
      <trkpt lat="45.11412" lon="0.58404">
        <ele>201.4</ele>
        <time>2025-06-15T08:27:12Z</time>
      </trkpt>
      <trkpt lat="45.11416" lon="0.58402">
        <ele>201.6</ele>
        <time>2025-06-15T08:27:13Z</time>
      </trkpt>
      <trkpt lat="45.1142" lon="0.584">
        <ele>201.6</ele>
        <time>2025-06-15T08:27:14Z</time>
      </trkpt>
      <trkpt lat="45.11425" lon="0.58397">
        <ele>201.6</ele>
        <time>2025-06-15T08:27:15Z</time>
      </trkpt>
      <trkpt lat="45.11428" lon="0.58394">
        <ele>201.8</ele>
        <time>2025-06-15T08:27:16Z</time>
      </trkpt>
      <trkpt lat="45.11432" lon="0.58391">
        <ele>201.8</ele>
        <time>2025-06-15T08:27:17Z</time>
      </trkpt>
      <trkpt lat="45.11435" lon="0.58389">
        <ele>202</ele>
        <time>2025-06-15T08:27:18Z</time>
      </trkpt>
      <trkpt lat="45.11439" lon="0.58386">
        <ele>202</ele>
        <time>2025-06-15T08:27:19Z</time>
      </trkpt>
      <trkpt lat="45.11442" lon="0.58384">
        <ele>202.2</ele>
        <time>2025-06-15T08:27:20Z</time>
      </trkpt>
      <trkpt lat="45.11445" lon="0.58381">
        <ele>202.2</ele>
        <time>2025-06-15T08:27:21Z</time>
      </trkpt>
      <trkpt lat="45.11448" lon="0.58378">
        <ele>202.4</ele>
        <time>2025-06-15T08:27:22Z</time>
      </trkpt>
      <trkpt lat="45.11451" lon="0.58375">
        <ele>202.6</ele>
        <time>2025-06-15T08:27:23Z</time>
      </trkpt>
      <trkpt lat="45.11454" lon="0.58372">
        <ele>202.8</ele>
        <time>2025-06-15T08:27:24Z</time>
      </trkpt>
      <trkpt lat="45.11457" lon="0.58369">
        <ele>203</ele>
        <time>2025-06-15T08:27:25Z</time>
      </trkpt>
      <trkpt lat="45.1146" lon="0.58366">
        <ele>203.2</ele>
        <time>2025-06-15T08:27:26Z</time>
      </trkpt>
      <trkpt lat="45.11462" lon="0.58363">
        <ele>203.2</ele>
        <time>2025-06-15T08:27:27Z</time>
      </trkpt>
      <trkpt lat="45.11465" lon="0.5836">
        <ele>203.4</ele>
        <time>2025-06-15T08:27:28Z</time>
      </trkpt>
      <trkpt lat="45.11468" lon="0.58357">
        <ele>203.6</ele>
        <time>2025-06-15T08:27:29Z</time>
      </trkpt>
      <trkpt lat="45.11471" lon="0.58354">
        <ele>203.8</ele>
        <time>2025-06-15T08:27:30Z</time>
      </trkpt>
      <trkpt lat="45.11474" lon="0.58351">
        <ele>204</ele>
        <time>2025-06-15T08:27:31Z</time>
      </trkpt>
      <trkpt lat="45.11477" lon="0.58349">
        <ele>204.2</ele>
        <time>2025-06-15T08:27:32Z</time>
      </trkpt>
      <trkpt lat="45.11479" lon="0.58346">
        <ele>204.2</ele>
        <time>2025-06-15T08:27:33Z</time>
      </trkpt>
      <trkpt lat="45.11482" lon="0.58343">
        <ele>204.4</ele>
        <time>2025-06-15T08:27:34Z</time>
      </trkpt>
      <trkpt lat="45.11484" lon="0.5834">
        <ele>204.4</ele>
        <time>2025-06-15T08:27:35Z</time>
      </trkpt>
      <trkpt lat="45.11488" lon="0.58338">
        <ele>204.6</ele>
        <time>2025-06-15T08:27:36Z</time>
      </trkpt>
      <trkpt lat="45.1149" lon="0.58338">
        <ele>204.8</ele>
        <time>2025-06-15T08:27:37Z</time>
      </trkpt>
      <trkpt lat="45.11493" lon="0.58338">
        <ele>204.8</ele>
        <time>2025-06-15T08:27:38Z</time>
      </trkpt>
      <trkpt lat="45.11497" lon="0.58339">
        <ele>204.8</ele>
        <time>2025-06-15T08:27:39Z</time>
      </trkpt>
      <trkpt lat="45.115" lon="0.58338">
        <ele>204.8</ele>
        <time>2025-06-15T08:27:40Z</time>
      </trkpt>
      <trkpt lat="45.11503" lon="0.58334">
        <ele>204.6</ele>
        <time>2025-06-15T08:27:41Z</time>
      </trkpt>
      <trkpt lat="45.11505" lon="0.58331">
        <ele>204.6</ele>
        <time>2025-06-15T08:27:42Z</time>
      </trkpt>
      <trkpt lat="45.11507" lon="0.58326">
        <ele>204.6</ele>
        <time>2025-06-15T08:27:43Z</time>
      </trkpt>
      <trkpt lat="45.11508" lon="0.58322">
        <ele>204.4</ele>
        <time>2025-06-15T08:27:44Z</time>
      </trkpt>
      <trkpt lat="45.1151" lon="0.58316">
        <ele>204.4</ele>
        <time>2025-06-15T08:27:45Z</time>
      </trkpt>
      <trkpt lat="45.11511" lon="0.58311">
        <ele>204.4</ele>
        <time>2025-06-15T08:27:46Z</time>
      </trkpt>
      <trkpt lat="45.11513" lon="0.58307">
        <ele>204.2</ele>
        <time>2025-06-15T08:27:47Z</time>
      </trkpt>
      <trkpt lat="45.11515" lon="0.58302">
        <ele>204.2</ele>
        <time>2025-06-15T08:27:48Z</time>
      </trkpt>
      <trkpt lat="45.11517" lon="0.58297">
        <ele>204.2</ele>
        <time>2025-06-15T08:27:49Z</time>
      </trkpt>
      <trkpt lat="45.11519" lon="0.58291">
        <ele>204.2</ele>
        <time>2025-06-15T08:27:50Z</time>
      </trkpt>
      <trkpt lat="45.1152" lon="0.58285">
        <ele>204.2</ele>
        <time>2025-06-15T08:27:51Z</time>
      </trkpt>
      <trkpt lat="45.11522" lon="0.5828">
        <ele>204</ele>
        <time>2025-06-15T08:27:52Z</time>
      </trkpt>
      <trkpt lat="45.11525" lon="0.58274">
        <ele>204</ele>
        <time>2025-06-15T08:27:53Z</time>
      </trkpt>
      <trkpt lat="45.11527" lon="0.58267">
        <ele>203.8</ele>
        <time>2025-06-15T08:27:54Z</time>
      </trkpt>
      <trkpt lat="45.11528" lon="0.58261">
        <ele>203.6</ele>
        <time>2025-06-15T08:27:55Z</time>
      </trkpt>
      <trkpt lat="45.1153" lon="0.58255">
        <ele>203.4</ele>
        <time>2025-06-15T08:27:56Z</time>
      </trkpt>
      <trkpt lat="45.11532" lon="0.58248">
        <ele>203.2</ele>
        <time>2025-06-15T08:27:57Z</time>
      </trkpt>
      <trkpt lat="45.11534" lon="0.58241">
        <ele>203</ele>
        <time>2025-06-15T08:27:58Z</time>
      </trkpt>
      <trkpt lat="45.11536" lon="0.58234">
        <ele>203</ele>
        <time>2025-06-15T08:27:59Z</time>
      </trkpt>
      <trkpt lat="45.11538" lon="0.58228">
        <ele>202.8</ele>
        <time>2025-06-15T08:28:00Z</time>
      </trkpt>
      <trkpt lat="45.1154" lon="0.58222">
        <ele>202.8</ele>
        <time>2025-06-15T08:28:01Z</time>
      </trkpt>
      <trkpt lat="45.11541" lon="0.58216">
        <ele>202.6</ele>
        <time>2025-06-15T08:28:02Z</time>
      </trkpt>
      <trkpt lat="45.11542" lon="0.58209">
        <ele>202.6</ele>
        <time>2025-06-15T08:28:03Z</time>
      </trkpt>
      <trkpt lat="45.11544" lon="0.58202">
        <ele>202.6</ele>
        <time>2025-06-15T08:28:04Z</time>
      </trkpt>
      <trkpt lat="45.11545" lon="0.58195">
        <ele>202.8</ele>
        <time>2025-06-15T08:28:05Z</time>
      </trkpt>
      <trkpt lat="45.11547" lon="0.58189">
        <ele>202.8</ele>
        <time>2025-06-15T08:28:06Z</time>
      </trkpt>
      <trkpt lat="45.11549" lon="0.58183">
        <ele>203</ele>
        <time>2025-06-15T08:28:07Z</time>
      </trkpt>
      <trkpt lat="45.11551" lon="0.58178">
        <ele>203.2</ele>
        <time>2025-06-15T08:28:08Z</time>
      </trkpt>
      <trkpt lat="45.11552" lon="0.58172">
        <ele>203.4</ele>
        <time>2025-06-15T08:28:09Z</time>
      </trkpt>
      <trkpt lat="45.11554" lon="0.58167">
        <ele>203.4</ele>
        <time>2025-06-15T08:28:10Z</time>
      </trkpt>
      <trkpt lat="45.11556" lon="0.58162">
        <ele>203.6</ele>
        <time>2025-06-15T08:28:11Z</time>
      </trkpt>
      <trkpt lat="45.11557" lon="0.58158">
        <ele>203.6</ele>
        <time>2025-06-15T08:28:12Z</time>
      </trkpt>
      <trkpt lat="45.11559" lon="0.58152">
        <ele>203.8</ele>
        <time>2025-06-15T08:28:13Z</time>
      </trkpt>
      <trkpt lat="45.1156" lon="0.58147">
        <ele>203.8</ele>
        <time>2025-06-15T08:28:14Z</time>
      </trkpt>
      <trkpt lat="45.11562" lon="0.58142">
        <ele>204</ele>
        <time>2025-06-15T08:28:15Z</time>
      </trkpt>
      <trkpt lat="45.11564" lon="0.58138">
        <ele>204.2</ele>
        <time>2025-06-15T08:28:16Z</time>
      </trkpt>
      <trkpt lat="45.11565" lon="0.58132">
        <ele>204.2</ele>
        <time>2025-06-15T08:28:17Z</time>
      </trkpt>
      <trkpt lat="45.11567" lon="0.58127">
        <ele>204.4</ele>
        <time>2025-06-15T08:28:18Z</time>
      </trkpt>
      <trkpt lat="45.11568" lon="0.58122">
        <ele>204.4</ele>
        <time>2025-06-15T08:28:19Z</time>
      </trkpt>
      <trkpt lat="45.1157" lon="0.58118">
        <ele>204.6</ele>
        <time>2025-06-15T08:28:20Z</time>
      </trkpt>
      <trkpt lat="45.11572" lon="0.58113">
        <ele>204.6</ele>
        <time>2025-06-15T08:28:21Z</time>
      </trkpt>
      <trkpt lat="45.11572" lon="0.58108">
        <ele>204.8</ele>
        <time>2025-06-15T08:28:22Z</time>
      </trkpt>
      <trkpt lat="45.11574" lon="0.58104">
        <ele>205</ele>
        <time>2025-06-15T08:28:23Z</time>
      </trkpt>
      <trkpt lat="45.11575" lon="0.58099">
        <ele>205.2</ele>
        <time>2025-06-15T08:28:24Z</time>
      </trkpt>
      <trkpt lat="45.11577" lon="0.58094">
        <ele>205.2</ele>
        <time>2025-06-15T08:28:25Z</time>
      </trkpt>
      <trkpt lat="45.11577" lon="0.5809">
        <ele>205.4</ele>
        <time>2025-06-15T08:28:26Z</time>
      </trkpt>
      <trkpt lat="45.11579" lon="0.58085">
        <ele>205.6</ele>
        <time>2025-06-15T08:28:27Z</time>
      </trkpt>
      <trkpt lat="45.1158" lon="0.58081">
        <ele>205.8</ele>
        <time>2025-06-15T08:28:28Z</time>
      </trkpt>
      <trkpt lat="45.11581" lon="0.58077">
        <ele>205.8</ele>
        <time>2025-06-15T08:28:29Z</time>
      </trkpt>
      <trkpt lat="45.11583" lon="0.58072">
        <ele>206</ele>
        <time>2025-06-15T08:28:30Z</time>
      </trkpt>
      <trkpt lat="45.11584" lon="0.58068">
        <ele>206</ele>
        <time>2025-06-15T08:28:31Z</time>
      </trkpt>
      <trkpt lat="45.11585" lon="0.58062">
        <ele>206</ele>
        <time>2025-06-15T08:28:32Z</time>
      </trkpt>
      <trkpt lat="45.11587" lon="0.58058">
        <ele>206.2</ele>
        <time>2025-06-15T08:28:33Z</time>
      </trkpt>
      <trkpt lat="45.11588" lon="0.58054">
        <ele>206.2</ele>
        <time>2025-06-15T08:28:34Z</time>
      </trkpt>
      <trkpt lat="45.11589" lon="0.58049">
        <ele>206.2</ele>
        <time>2025-06-15T08:28:35Z</time>
      </trkpt>
      <trkpt lat="45.1159" lon="0.58045">
        <ele>206.4</ele>
        <time>2025-06-15T08:28:36Z</time>
      </trkpt>
      <trkpt lat="45.11592" lon="0.5804">
        <ele>206.4</ele>
        <time>2025-06-15T08:28:37Z</time>
      </trkpt>
      <trkpt lat="45.11593" lon="0.58036">
        <ele>206.6</ele>
        <time>2025-06-15T08:28:38Z</time>
      </trkpt>
      <trkpt lat="45.11594" lon="0.58031">
        <ele>206.8</ele>
        <time>2025-06-15T08:28:39Z</time>
      </trkpt>
      <trkpt lat="45.11595" lon="0.58026">
        <ele>206.8</ele>
        <time>2025-06-15T08:28:40Z</time>
      </trkpt>
      <trkpt lat="45.11597" lon="0.58021">
        <ele>206.8</ele>
        <time>2025-06-15T08:28:41Z</time>
      </trkpt>
      <trkpt lat="45.11598" lon="0.58016">
        <ele>207</ele>
        <time>2025-06-15T08:28:42Z</time>
      </trkpt>
      <trkpt lat="45.11598" lon="0.58011">
        <ele>207</ele>
        <time>2025-06-15T08:28:43Z</time>
      </trkpt>
      <trkpt lat="45.11599" lon="0.58007">
        <ele>207</ele>
        <time>2025-06-15T08:28:44Z</time>
      </trkpt>
      <trkpt lat="45.116" lon="0.58003">
        <ele>207.2</ele>
        <time>2025-06-15T08:28:45Z</time>
      </trkpt>
      <trkpt lat="45.11601" lon="0.57998">
        <ele>207.2</ele>
        <time>2025-06-15T08:28:46Z</time>
      </trkpt>
      <trkpt lat="45.11603" lon="0.57993">
        <ele>207.2</ele>
        <time>2025-06-15T08:28:47Z</time>
      </trkpt>
      <trkpt lat="45.11604" lon="0.57988">
        <ele>207.4</ele>
        <time>2025-06-15T08:28:48Z</time>
      </trkpt>
      <trkpt lat="45.11605" lon="0.57983">
        <ele>207.4</ele>
        <time>2025-06-15T08:28:49Z</time>
      </trkpt>
      <trkpt lat="45.11606" lon="0.57978">
        <ele>207.4</ele>
        <time>2025-06-15T08:28:50Z</time>
      </trkpt>
      <trkpt lat="45.11608" lon="0.57974">
        <ele>207.4</ele>
        <time>2025-06-15T08:28:51Z</time>
      </trkpt>
      <trkpt lat="45.11608" lon="0.57969">
        <ele>207.6</ele>
        <time>2025-06-15T08:28:52Z</time>
      </trkpt>
      <trkpt lat="45.11609" lon="0.57964">
        <ele>207.6</ele>
        <time>2025-06-15T08:28:53Z</time>
      </trkpt>
      <trkpt lat="45.1161" lon="0.57959">
        <ele>207.6</ele>
        <time>2025-06-15T08:28:54Z</time>
      </trkpt>
      <trkpt lat="45.1161" lon="0.57954">
        <ele>207.6</ele>
        <time>2025-06-15T08:28:55Z</time>
      </trkpt>
      <trkpt lat="45.1161" lon="0.57949">
        <ele>207.8</ele>
        <time>2025-06-15T08:28:56Z</time>
      </trkpt>
      <trkpt lat="45.11609" lon="0.57944">
        <ele>207.8</ele>
        <time>2025-06-15T08:28:57Z</time>
      </trkpt>
      <trkpt lat="45.11609" lon="0.57939">
        <ele>207.8</ele>
        <time>2025-06-15T08:28:58Z</time>
      </trkpt>
      <trkpt lat="45.11609" lon="0.57933">
        <ele>207.8</ele>
        <time>2025-06-15T08:28:59Z</time>
      </trkpt>
      <trkpt lat="45.11609" lon="0.57926">
        <ele>207.8</ele>
        <time>2025-06-15T08:29:00Z</time>
      </trkpt>
      <trkpt lat="45.11608" lon="0.5792">
        <ele>207.8</ele>
        <time>2025-06-15T08:29:01Z</time>
      </trkpt>
      <trkpt lat="45.11607" lon="0.57915">
        <ele>207.8</ele>
        <time>2025-06-15T08:29:02Z</time>
      </trkpt>
      <trkpt lat="45.11607" lon="0.57909">
        <ele>207.8</ele>
        <time>2025-06-15T08:29:03Z</time>
      </trkpt>
      <trkpt lat="45.11606" lon="0.57903">
        <ele>207.6</ele>
        <time>2025-06-15T08:29:04Z</time>
      </trkpt>
      <trkpt lat="45.11605" lon="0.57897">
        <ele>207.6</ele>
        <time>2025-06-15T08:29:05Z</time>
      </trkpt>
      <trkpt lat="45.11604" lon="0.5789">
        <ele>207.6</ele>
        <time>2025-06-15T08:29:06Z</time>
      </trkpt>
      <trkpt lat="45.11605" lon="0.57884">
        <ele>207.4</ele>
        <time>2025-06-15T08:29:07Z</time>
      </trkpt>
      <trkpt lat="45.11605" lon="0.57877">
        <ele>207.4</ele>
        <time>2025-06-15T08:29:08Z</time>
      </trkpt>
      <trkpt lat="45.11605" lon="0.5787">
        <ele>207.4</ele>
        <time>2025-06-15T08:29:09Z</time>
      </trkpt>
      <trkpt lat="45.11605" lon="0.57864">
        <ele>207.2</ele>
        <time>2025-06-15T08:29:10Z</time>
      </trkpt>
      <trkpt lat="45.11606" lon="0.57859">
        <ele>207</ele>
        <time>2025-06-15T08:29:11Z</time>
      </trkpt>
      <trkpt lat="45.11606" lon="0.57854">
        <ele>206.8</ele>
        <time>2025-06-15T08:29:12Z</time>
      </trkpt>
      <trkpt lat="45.11606" lon="0.5785">
        <ele>206.6</ele>
        <time>2025-06-15T08:29:13Z</time>
      </trkpt>
      <trkpt lat="45.11607" lon="0.57846">
        <ele>206.4</ele>
        <time>2025-06-15T08:29:14Z</time>
      </trkpt>
      <trkpt lat="45.11606" lon="0.57842">
        <ele>206.2</ele>
        <time>2025-06-15T08:29:15Z</time>
      </trkpt>
      <trkpt lat="45.11606" lon="0.57838">
        <ele>206</ele>
        <time>2025-06-15T08:29:16Z</time>
      </trkpt>
      <trkpt lat="45.11605" lon="0.57834">
        <ele>205.8</ele>
        <time>2025-06-15T08:29:17Z</time>
      </trkpt>
      <trkpt lat="45.11603" lon="0.5783">
        <ele>205.8</ele>
        <time>2025-06-15T08:29:18Z</time>
      </trkpt>
      <trkpt lat="45.11602" lon="0.57828">
        <ele>205.6</ele>
        <time>2025-06-15T08:29:19Z</time>
      </trkpt>
      <trkpt lat="45.11602" lon="0.57826">
        <ele>205.6</ele>
        <time>2025-06-15T08:29:20Z</time>
      </trkpt>
      <trkpt lat="45.11601" lon="0.57824">
        <ele>205.6</ele>
        <time>2025-06-15T08:29:21Z</time>
      </trkpt>
      <trkpt lat="45.11601" lon="0.57821">
        <ele>205.6</ele>
        <time>2025-06-15T08:29:22Z</time>
      </trkpt>
      <trkpt lat="45.11602" lon="0.57819">
        <ele>205.6</ele>
        <time>2025-06-15T08:29:23Z</time>
      </trkpt>
      <trkpt lat="45.11603" lon="0.57816">
        <ele>205.6</ele>
        <time>2025-06-15T08:29:24Z</time>
      </trkpt>
      <trkpt lat="45.11604" lon="0.57814">
        <ele>205.6</ele>
        <time>2025-06-15T08:29:25Z</time>
      </trkpt>
      <trkpt lat="45.11606" lon="0.57811">
        <ele>205.6</ele>
        <time>2025-06-15T08:29:26Z</time>
      </trkpt>
      <trkpt lat="45.11608" lon="0.57808">
        <ele>205.6</ele>
        <time>2025-06-15T08:29:27Z</time>
      </trkpt>
      <trkpt lat="45.1161" lon="0.57806">
        <ele>205.4</ele>
        <time>2025-06-15T08:29:28Z</time>
      </trkpt>
      <trkpt lat="45.11612" lon="0.57803">
        <ele>205.4</ele>
        <time>2025-06-15T08:29:29Z</time>
      </trkpt>
      <trkpt lat="45.11614" lon="0.578">
        <ele>205.4</ele>
        <time>2025-06-15T08:29:30Z</time>
      </trkpt>
      <trkpt lat="45.11616" lon="0.57796">
        <ele>205.4</ele>
        <time>2025-06-15T08:29:31Z</time>
      </trkpt>
      <trkpt lat="45.11618" lon="0.57792">
        <ele>205.2</ele>
        <time>2025-06-15T08:29:32Z</time>
      </trkpt>
      <trkpt lat="45.11621" lon="0.57789">
        <ele>205.2</ele>
        <time>2025-06-15T08:29:33Z</time>
      </trkpt>
      <trkpt lat="45.11624" lon="0.57786">
        <ele>205.2</ele>
        <time>2025-06-15T08:29:34Z</time>
      </trkpt>
      <trkpt lat="45.11628" lon="0.57781">
        <ele>205</ele>
        <time>2025-06-15T08:29:35Z</time>
      </trkpt>
      <trkpt lat="45.11631" lon="0.57777">
        <ele>205</ele>
        <time>2025-06-15T08:29:36Z</time>
      </trkpt>
      <trkpt lat="45.11635" lon="0.57772">
        <ele>204.8</ele>
        <time>2025-06-15T08:29:37Z</time>
      </trkpt>
      <trkpt lat="45.11639" lon="0.57767">
        <ele>204.6</ele>
        <time>2025-06-15T08:29:38Z</time>
      </trkpt>
      <trkpt lat="45.11642" lon="0.57761">
        <ele>204.4</ele>
        <time>2025-06-15T08:29:39Z</time>
      </trkpt>
      <trkpt lat="45.11646" lon="0.57756">
        <ele>204.2</ele>
        <time>2025-06-15T08:29:40Z</time>
      </trkpt>
      <trkpt lat="45.1165" lon="0.57751">
        <ele>204.2</ele>
        <time>2025-06-15T08:29:41Z</time>
      </trkpt>
      <trkpt lat="45.11653" lon="0.57747">
        <ele>204</ele>
        <time>2025-06-15T08:29:42Z</time>
      </trkpt>
      <trkpt lat="45.11657" lon="0.57742">
        <ele>204</ele>
        <time>2025-06-15T08:29:43Z</time>
      </trkpt>
      <trkpt lat="45.1166" lon="0.57737">
        <ele>204</ele>
        <time>2025-06-15T08:29:44Z</time>
      </trkpt>
      <trkpt lat="45.11664" lon="0.57733">
        <ele>203.8</ele>
        <time>2025-06-15T08:29:45Z</time>
      </trkpt>
      <trkpt lat="45.11667" lon="0.57728">
        <ele>203.8</ele>
        <time>2025-06-15T08:29:46Z</time>
      </trkpt>
      <trkpt lat="45.11671" lon="0.57724">
        <ele>203.8</ele>
        <time>2025-06-15T08:29:47Z</time>
      </trkpt>
      <trkpt lat="45.11675" lon="0.57719">
        <ele>203.6</ele>
        <time>2025-06-15T08:29:48Z</time>
      </trkpt>
      <trkpt lat="45.1168" lon="0.57715">
        <ele>203.6</ele>
        <time>2025-06-15T08:29:49Z</time>
      </trkpt>
      <trkpt lat="45.11684" lon="0.5771">
        <ele>203.6</ele>
        <time>2025-06-15T08:29:50Z</time>
      </trkpt>
      <trkpt lat="45.11688" lon="0.57706">
        <ele>203.6</ele>
        <time>2025-06-15T08:29:51Z</time>
      </trkpt>
      <trkpt lat="45.11693" lon="0.57702">
        <ele>203.6</ele>
        <time>2025-06-15T08:29:52Z</time>
      </trkpt>
      <trkpt lat="45.11697" lon="0.57698">
        <ele>203.4</ele>
        <time>2025-06-15T08:29:53Z</time>
      </trkpt>
      <trkpt lat="45.11702" lon="0.57694">
        <ele>203.4</ele>
        <time>2025-06-15T08:29:54Z</time>
      </trkpt>
      <trkpt lat="45.11707" lon="0.57691">
        <ele>203.4</ele>
        <time>2025-06-15T08:29:55Z</time>
      </trkpt>
      <trkpt lat="45.11711" lon="0.57687">
        <ele>203.4</ele>
        <time>2025-06-15T08:29:56Z</time>
      </trkpt>
      <trkpt lat="45.11717" lon="0.57684">
        <ele>203.8</ele>
        <time>2025-06-15T08:29:57Z</time>
      </trkpt>
      <trkpt lat="45.11722" lon="0.57681">
        <ele>204</ele>
        <time>2025-06-15T08:29:58Z</time>
      </trkpt>
      <trkpt lat="45.11728" lon="0.57679">
        <ele>204</ele>
        <time>2025-06-15T08:29:59Z</time>
      </trkpt>
      <trkpt lat="45.11733" lon="0.57676">
        <ele>204</ele>
        <time>2025-06-15T08:30:00Z</time>
      </trkpt>
      <trkpt lat="45.11739" lon="0.57674">
        <ele>204</ele>
        <time>2025-06-15T08:30:01Z</time>
      </trkpt>
      <trkpt lat="45.11744" lon="0.57672">
        <ele>203.6</ele>
        <time>2025-06-15T08:30:02Z</time>
      </trkpt>
      <trkpt lat="45.11749" lon="0.57669">
        <ele>203.4</ele>
        <time>2025-06-15T08:30:03Z</time>
      </trkpt>
      <trkpt lat="45.11754" lon="0.57666">
        <ele>203.4</ele>
        <time>2025-06-15T08:30:04Z</time>
      </trkpt>
      <trkpt lat="45.11757" lon="0.57661">
        <ele>203.4</ele>
        <time>2025-06-15T08:30:05Z</time>
      </trkpt>
      <trkpt lat="45.11761" lon="0.57656">
        <ele>203.2</ele>
        <time>2025-06-15T08:30:06Z</time>
      </trkpt>
      <trkpt lat="45.11765" lon="0.57652">
        <ele>203.2</ele>
        <time>2025-06-15T08:30:07Z</time>
      </trkpt>
      <trkpt lat="45.11769" lon="0.57648">
        <ele>203</ele>
        <time>2025-06-15T08:30:08Z</time>
      </trkpt>
      <trkpt lat="45.11772" lon="0.57644">
        <ele>203</ele>
        <time>2025-06-15T08:30:09Z</time>
      </trkpt>
      <trkpt lat="45.11777" lon="0.57639">
        <ele>203</ele>
        <time>2025-06-15T08:30:10Z</time>
      </trkpt>
      <trkpt lat="45.11781" lon="0.57635">
        <ele>202.8</ele>
        <time>2025-06-15T08:30:11Z</time>
      </trkpt>
      <trkpt lat="45.11785" lon="0.57631">
        <ele>202.8</ele>
        <time>2025-06-15T08:30:12Z</time>
      </trkpt>
      <trkpt lat="45.11789" lon="0.57626">
        <ele>202.8</ele>
        <time>2025-06-15T08:30:13Z</time>
      </trkpt>
      <trkpt lat="45.11793" lon="0.57622">
        <ele>202.6</ele>
        <time>2025-06-15T08:30:14Z</time>
      </trkpt>
      <trkpt lat="45.11797" lon="0.57618">
        <ele>202.6</ele>
        <time>2025-06-15T08:30:15Z</time>
      </trkpt>
      <trkpt lat="45.11801" lon="0.57614">
        <ele>202.6</ele>
        <time>2025-06-15T08:30:16Z</time>
      </trkpt>
      <trkpt lat="45.11805" lon="0.5761">
        <ele>202.6</ele>
        <time>2025-06-15T08:30:17Z</time>
      </trkpt>
      <trkpt lat="45.11809" lon="0.57606">
        <ele>202.6</ele>
        <time>2025-06-15T08:30:18Z</time>
      </trkpt>
      <trkpt lat="45.11813" lon="0.57602">
        <ele>202.6</ele>
        <time>2025-06-15T08:30:19Z</time>
      </trkpt>
      <trkpt lat="45.11817" lon="0.57597">
        <ele>202.6</ele>
        <time>2025-06-15T08:30:20Z</time>
      </trkpt>
      <trkpt lat="45.11821" lon="0.57593">
        <ele>202.8</ele>
        <time>2025-06-15T08:30:21Z</time>
      </trkpt>
      <trkpt lat="45.11825" lon="0.57588">
        <ele>202.8</ele>
        <time>2025-06-15T08:30:22Z</time>
      </trkpt>
      <trkpt lat="45.11828" lon="0.57583">
        <ele>202.8</ele>
        <time>2025-06-15T08:30:23Z</time>
      </trkpt>
      <trkpt lat="45.11832" lon="0.57576">
        <ele>202.8</ele>
        <time>2025-06-15T08:30:24Z</time>
      </trkpt>
      <trkpt lat="45.11835" lon="0.5757">
        <ele>203</ele>
        <time>2025-06-15T08:30:25Z</time>
      </trkpt>
      <trkpt lat="45.11839" lon="0.57565">
        <ele>203</ele>
        <time>2025-06-15T08:30:26Z</time>
      </trkpt>
      <trkpt lat="45.11843" lon="0.57559">
        <ele>203</ele>
        <time>2025-06-15T08:30:27Z</time>
      </trkpt>
      <trkpt lat="45.11847" lon="0.57553">
        <ele>203</ele>
        <time>2025-06-15T08:30:28Z</time>
      </trkpt>
      <trkpt lat="45.11852" lon="0.57547">
        <ele>203</ele>
        <time>2025-06-15T08:30:29Z</time>
      </trkpt>
      <trkpt lat="45.11856" lon="0.57541">
        <ele>203</ele>
        <time>2025-06-15T08:30:30Z</time>
      </trkpt>
      <trkpt lat="45.11859" lon="0.57536">
        <ele>203.2</ele>
        <time>2025-06-15T08:30:31Z</time>
      </trkpt>
      <trkpt lat="45.11863" lon="0.5753">
        <ele>203.2</ele>
        <time>2025-06-15T08:30:32Z</time>
      </trkpt>
      <trkpt lat="45.11868" lon="0.57524">
        <ele>203.2</ele>
        <time>2025-06-15T08:30:33Z</time>
      </trkpt>
      <trkpt lat="45.11871" lon="0.57518">
        <ele>203.2</ele>
        <time>2025-06-15T08:30:34Z</time>
      </trkpt>
      <trkpt lat="45.11874" lon="0.5751">
        <ele>203.2</ele>
        <time>2025-06-15T08:30:35Z</time>
      </trkpt>
      <trkpt lat="45.11879" lon="0.57503">
        <ele>203.4</ele>
        <time>2025-06-15T08:30:36Z</time>
      </trkpt>
      <trkpt lat="45.11884" lon="0.57497">
        <ele>203.4</ele>
        <time>2025-06-15T08:30:37Z</time>
      </trkpt>
      <trkpt lat="45.11888" lon="0.57491">
        <ele>203.4</ele>
        <time>2025-06-15T08:30:38Z</time>
      </trkpt>
      <trkpt lat="45.11892" lon="0.57486">
        <ele>203.4</ele>
        <time>2025-06-15T08:30:39Z</time>
      </trkpt>
      <trkpt lat="45.11896" lon="0.57481">
        <ele>203.4</ele>
        <time>2025-06-15T08:30:40Z</time>
      </trkpt>
      <trkpt lat="45.11899" lon="0.57476">
        <ele>203.4</ele>
        <time>2025-06-15T08:30:41Z</time>
      </trkpt>
      <trkpt lat="45.11903" lon="0.5747">
        <ele>203.4</ele>
        <time>2025-06-15T08:30:42Z</time>
      </trkpt>
      <trkpt lat="45.11906" lon="0.57463">
        <ele>203.4</ele>
        <time>2025-06-15T08:30:43Z</time>
      </trkpt>
      <trkpt lat="45.11911" lon="0.57458">
        <ele>203.4</ele>
        <time>2025-06-15T08:30:44Z</time>
      </trkpt>
      <trkpt lat="45.11916" lon="0.57453">
        <ele>203.4</ele>
        <time>2025-06-15T08:30:45Z</time>
      </trkpt>
      <trkpt lat="45.1192" lon="0.57447">
        <ele>203.4</ele>
        <time>2025-06-15T08:30:46Z</time>
      </trkpt>
      <trkpt lat="45.11925" lon="0.5744">
        <ele>203.4</ele>
        <time>2025-06-15T08:30:47Z</time>
      </trkpt>
      <trkpt lat="45.11928" lon="0.57433">
        <ele>203.2</ele>
        <time>2025-06-15T08:30:48Z</time>
      </trkpt>
      <trkpt lat="45.11933" lon="0.57424">
        <ele>203.2</ele>
        <time>2025-06-15T08:30:49Z</time>
      </trkpt>
      <trkpt lat="45.11937" lon="0.57418">
        <ele>203.4</ele>
        <time>2025-06-15T08:30:50Z</time>
      </trkpt>
      <trkpt lat="45.11942" lon="0.57412">
        <ele>203.4</ele>
        <time>2025-06-15T08:30:51Z</time>
      </trkpt>
      <trkpt lat="45.11947" lon="0.57406">
        <ele>203.4</ele>
        <time>2025-06-15T08:30:52Z</time>
      </trkpt>
      <trkpt lat="45.11953" lon="0.57401">
        <ele>203.4</ele>
        <time>2025-06-15T08:30:53Z</time>
      </trkpt>
      <trkpt lat="45.11958" lon="0.57395">
        <ele>203.4</ele>
        <time>2025-06-15T08:30:54Z</time>
      </trkpt>
      <trkpt lat="45.11963" lon="0.57391">
        <ele>203.4</ele>
        <time>2025-06-15T08:30:55Z</time>
      </trkpt>
      <trkpt lat="45.11968" lon="0.57386">
        <ele>203.4</ele>
        <time>2025-06-15T08:30:56Z</time>
      </trkpt>
      <trkpt lat="45.11973" lon="0.57381">
        <ele>203.6</ele>
        <time>2025-06-15T08:30:57Z</time>
      </trkpt>
      <trkpt lat="45.11979" lon="0.57377">
        <ele>203.6</ele>
        <time>2025-06-15T08:30:58Z</time>
      </trkpt>
      <trkpt lat="45.11984" lon="0.57372">
        <ele>203.6</ele>
        <time>2025-06-15T08:30:59Z</time>
      </trkpt>
      <trkpt lat="45.1199" lon="0.57367">
        <ele>203.8</ele>
        <time>2025-06-15T08:31:00Z</time>
      </trkpt>
      <trkpt lat="45.11995" lon="0.57362">
        <ele>203.8</ele>
        <time>2025-06-15T08:31:01Z</time>
      </trkpt>
      <trkpt lat="45.12002" lon="0.57357">
        <ele>203.8</ele>
        <time>2025-06-15T08:31:02Z</time>
      </trkpt>
      <trkpt lat="45.12008" lon="0.57352">
        <ele>203.8</ele>
        <time>2025-06-15T08:31:03Z</time>
      </trkpt>
      <trkpt lat="45.12014" lon="0.57348">
        <ele>203.8</ele>
        <time>2025-06-15T08:31:04Z</time>
      </trkpt>
      <trkpt lat="45.1202" lon="0.57344">
        <ele>203.8</ele>
        <time>2025-06-15T08:31:05Z</time>
      </trkpt>
      <trkpt lat="45.12026" lon="0.5734">
        <ele>203.8</ele>
        <time>2025-06-15T08:31:06Z</time>
      </trkpt>
      <trkpt lat="45.12032" lon="0.57336">
        <ele>203.8</ele>
        <time>2025-06-15T08:31:07Z</time>
      </trkpt>
      <trkpt lat="45.12037" lon="0.57332">
        <ele>203.8</ele>
        <time>2025-06-15T08:31:08Z</time>
      </trkpt>
      <trkpt lat="45.12044" lon="0.5733">
        <ele>203.8</ele>
        <time>2025-06-15T08:31:09Z</time>
      </trkpt>
      <trkpt lat="45.1205" lon="0.57327">
        <ele>203.8</ele>
        <time>2025-06-15T08:31:10Z</time>
      </trkpt>
      <trkpt lat="45.12056" lon="0.57325">
        <ele>203.8</ele>
        <time>2025-06-15T08:31:11Z</time>
      </trkpt>
      <trkpt lat="45.12062" lon="0.57322">
        <ele>203.8</ele>
        <time>2025-06-15T08:31:12Z</time>
      </trkpt>
      <trkpt lat="45.12068" lon="0.57319">
        <ele>203.8</ele>
        <time>2025-06-15T08:31:13Z</time>
      </trkpt>
      <trkpt lat="45.12074" lon="0.57316">
        <ele>203.8</ele>
        <time>2025-06-15T08:31:14Z</time>
      </trkpt>
      <trkpt lat="45.12081" lon="0.57313">
        <ele>203.8</ele>
        <time>2025-06-15T08:31:15Z</time>
      </trkpt>
      <trkpt lat="45.12087" lon="0.5731">
        <ele>203.6</ele>
        <time>2025-06-15T08:31:16Z</time>
      </trkpt>
      <trkpt lat="45.12093" lon="0.57307">
        <ele>203.6</ele>
        <time>2025-06-15T08:31:17Z</time>
      </trkpt>
      <trkpt lat="45.12098" lon="0.57303">
        <ele>203.6</ele>
        <time>2025-06-15T08:31:18Z</time>
      </trkpt>
      <trkpt lat="45.12104" lon="0.57299">
        <ele>203.6</ele>
        <time>2025-06-15T08:31:19Z</time>
      </trkpt>
      <trkpt lat="45.12109" lon="0.57297">
        <ele>203.6</ele>
        <time>2025-06-15T08:31:20Z</time>
      </trkpt>
      <trkpt lat="45.12115" lon="0.57294">
        <ele>203.4</ele>
        <time>2025-06-15T08:31:21Z</time>
      </trkpt>
      <trkpt lat="45.12119" lon="0.57292">
        <ele>203.4</ele>
        <time>2025-06-15T08:31:22Z</time>
      </trkpt>
      <trkpt lat="45.12124" lon="0.57289">
        <ele>203.4</ele>
        <time>2025-06-15T08:31:23Z</time>
      </trkpt>
      <trkpt lat="45.12128" lon="0.57287">
        <ele>203.4</ele>
        <time>2025-06-15T08:31:24Z</time>
      </trkpt>
      <trkpt lat="45.12132" lon="0.57285">
        <ele>203.4</ele>
        <time>2025-06-15T08:31:25Z</time>
      </trkpt>
      <trkpt lat="45.12137" lon="0.57284">
        <ele>203.4</ele>
        <time>2025-06-15T08:31:26Z</time>
      </trkpt>
      <trkpt lat="45.12141" lon="0.57283">
        <ele>203.4</ele>
        <time>2025-06-15T08:31:27Z</time>
      </trkpt>
      <trkpt lat="45.12145" lon="0.57281">
        <ele>203.4</ele>
        <time>2025-06-15T08:31:28Z</time>
      </trkpt>
      <trkpt lat="45.1215" lon="0.5728">
        <ele>203.4</ele>
        <time>2025-06-15T08:31:29Z</time>
      </trkpt>
      <trkpt lat="45.12154" lon="0.57278">
        <ele>203.2</ele>
        <time>2025-06-15T08:31:30Z</time>
      </trkpt>
      <trkpt lat="45.12158" lon="0.57276">
        <ele>203.2</ele>
        <time>2025-06-15T08:31:31Z</time>
      </trkpt>
      <trkpt lat="45.12163" lon="0.57275">
        <ele>203.2</ele>
        <time>2025-06-15T08:31:32Z</time>
      </trkpt>
      <trkpt lat="45.12168" lon="0.57273">
        <ele>203.2</ele>
        <time>2025-06-15T08:31:33Z</time>
      </trkpt>
      <trkpt lat="45.12172" lon="0.57272">
        <ele>203.2</ele>
        <time>2025-06-15T08:31:34Z</time>
      </trkpt>
      <trkpt lat="45.12176" lon="0.5727">
        <ele>203.2</ele>
        <time>2025-06-15T08:31:35Z</time>
      </trkpt>
      <trkpt lat="45.1218" lon="0.57268">
        <ele>203.2</ele>
        <time>2025-06-15T08:31:36Z</time>
      </trkpt>
      <trkpt lat="45.12184" lon="0.57265">
        <ele>203.2</ele>
        <time>2025-06-15T08:31:37Z</time>
      </trkpt>
      <trkpt lat="45.12188" lon="0.57262">
        <ele>203.2</ele>
        <time>2025-06-15T08:31:38Z</time>
      </trkpt>
      <trkpt lat="45.12193" lon="0.5726">
        <ele>203</ele>
        <time>2025-06-15T08:31:39Z</time>
      </trkpt>
      <trkpt lat="45.12198" lon="0.5726">
        <ele>203.2</ele>
        <time>2025-06-15T08:31:40Z</time>
      </trkpt>
      <trkpt lat="45.12202" lon="0.5726">
        <ele>203</ele>
        <time>2025-06-15T08:31:41Z</time>
      </trkpt>
      <trkpt lat="45.12207" lon="0.57259">
        <ele>203</ele>
        <time>2025-06-15T08:31:42Z</time>
      </trkpt>
      <trkpt lat="45.12211" lon="0.57257">
        <ele>203</ele>
        <time>2025-06-15T08:31:43Z</time>
      </trkpt>
      <trkpt lat="45.12216" lon="0.57255">
        <ele>203</ele>
        <time>2025-06-15T08:31:44Z</time>
      </trkpt>
      <trkpt lat="45.12221" lon="0.57253">
        <ele>202.8</ele>
        <time>2025-06-15T08:31:45Z</time>
      </trkpt>
      <trkpt lat="45.12227" lon="0.57252">
        <ele>202.8</ele>
        <time>2025-06-15T08:31:46Z</time>
      </trkpt>
      <trkpt lat="45.12232" lon="0.57251">
        <ele>202.8</ele>
        <time>2025-06-15T08:31:47Z</time>
      </trkpt>
      <trkpt lat="45.12236" lon="0.57249">
        <ele>202.8</ele>
        <time>2025-06-15T08:31:48Z</time>
      </trkpt>
      <trkpt lat="45.12241" lon="0.57247">
        <ele>202.8</ele>
        <time>2025-06-15T08:31:49Z</time>
      </trkpt>
      <trkpt lat="45.12246" lon="0.57245">
        <ele>202.8</ele>
        <time>2025-06-15T08:31:50Z</time>
      </trkpt>
      <trkpt lat="45.12251" lon="0.57243">
        <ele>202.8</ele>
        <time>2025-06-15T08:31:51Z</time>
      </trkpt>
      <trkpt lat="45.12256" lon="0.5724">
        <ele>202.8</ele>
        <time>2025-06-15T08:31:52Z</time>
      </trkpt>
      <trkpt lat="45.12261" lon="0.57236">
        <ele>202.8</ele>
        <time>2025-06-15T08:31:53Z</time>
      </trkpt>
      <trkpt lat="45.12265" lon="0.57232">
        <ele>202.8</ele>
        <time>2025-06-15T08:31:54Z</time>
      </trkpt>
      <trkpt lat="45.1227" lon="0.57227">
        <ele>202.8</ele>
        <time>2025-06-15T08:31:55Z</time>
      </trkpt>
      <trkpt lat="45.12274" lon="0.57223">
        <ele>202.8</ele>
        <time>2025-06-15T08:31:56Z</time>
      </trkpt>
      <trkpt lat="45.12278" lon="0.57218">
        <ele>202.6</ele>
        <time>2025-06-15T08:31:57Z</time>
      </trkpt>
      <trkpt lat="45.12282" lon="0.57213">
        <ele>202.6</ele>
        <time>2025-06-15T08:31:58Z</time>
      </trkpt>
      <trkpt lat="45.12287" lon="0.57208">
        <ele>202.6</ele>
        <time>2025-06-15T08:31:59Z</time>
      </trkpt>
      <trkpt lat="45.12291" lon="0.57202">
        <ele>202.4</ele>
        <time>2025-06-15T08:32:00Z</time>
      </trkpt>
      <trkpt lat="45.12296" lon="0.57196">
        <ele>202.6</ele>
        <time>2025-06-15T08:32:01Z</time>
      </trkpt>
      <trkpt lat="45.123" lon="0.57191">
        <ele>202.6</ele>
        <time>2025-06-15T08:32:02Z</time>
      </trkpt>
      <trkpt lat="45.12305" lon="0.57185">
        <ele>202.4</ele>
        <time>2025-06-15T08:32:03Z</time>
      </trkpt>
      <trkpt lat="45.12309" lon="0.5718">
        <ele>202.4</ele>
        <time>2025-06-15T08:32:04Z</time>
      </trkpt>
      <trkpt lat="45.12314" lon="0.57175">
        <ele>202.4</ele>
        <time>2025-06-15T08:32:05Z</time>
      </trkpt>
      <trkpt lat="45.12319" lon="0.5717">
        <ele>202.4</ele>
        <time>2025-06-15T08:32:06Z</time>
      </trkpt>
      <trkpt lat="45.12325" lon="0.57166">
        <ele>202.4</ele>
        <time>2025-06-15T08:32:07Z</time>
      </trkpt>
      <trkpt lat="45.12332" lon="0.57164">
        <ele>202.4</ele>
        <time>2025-06-15T08:32:08Z</time>
      </trkpt>
      <trkpt lat="45.12339" lon="0.57161">
        <ele>202.2</ele>
        <time>2025-06-15T08:32:09Z</time>
      </trkpt>
      <trkpt lat="45.12344" lon="0.57157">
        <ele>202.2</ele>
        <time>2025-06-15T08:32:10Z</time>
      </trkpt>
      <trkpt lat="45.12351" lon="0.57153">
        <ele>202.4</ele>
        <time>2025-06-15T08:32:11Z</time>
      </trkpt>
      <trkpt lat="45.12358" lon="0.5715">
        <ele>202.2</ele>
        <time>2025-06-15T08:32:12Z</time>
      </trkpt>
      <trkpt lat="45.12364" lon="0.57146">
        <ele>202.2</ele>
        <time>2025-06-15T08:32:13Z</time>
      </trkpt>
      <trkpt lat="45.12371" lon="0.57144">
        <ele>202</ele>
        <time>2025-06-15T08:32:14Z</time>
      </trkpt>
      <trkpt lat="45.12378" lon="0.57141">
        <ele>201.8</ele>
        <time>2025-06-15T08:32:15Z</time>
      </trkpt>
      <trkpt lat="45.12384" lon="0.57139">
        <ele>201.6</ele>
        <time>2025-06-15T08:32:16Z</time>
      </trkpt>
      <trkpt lat="45.1239" lon="0.57136">
        <ele>201.4</ele>
        <time>2025-06-15T08:32:17Z</time>
      </trkpt>
      <trkpt lat="45.12394" lon="0.57134">
        <ele>201.4</ele>
        <time>2025-06-15T08:32:18Z</time>
      </trkpt>
      <trkpt lat="45.12398" lon="0.57132">
        <ele>201.4</ele>
        <time>2025-06-15T08:32:19Z</time>
      </trkpt>
      <trkpt lat="45.12402" lon="0.5713">
        <ele>201.2</ele>
        <time>2025-06-15T08:32:20Z</time>
      </trkpt>
      <trkpt lat="45.12406" lon="0.57129">
        <ele>201</ele>
        <time>2025-06-15T08:32:21Z</time>
      </trkpt>
      <trkpt lat="45.1241" lon="0.57126">
        <ele>200.8</ele>
        <time>2025-06-15T08:32:22Z</time>
      </trkpt>
      <trkpt lat="45.12414" lon="0.57122">
        <ele>200.8</ele>
        <time>2025-06-15T08:32:23Z</time>
      </trkpt>
      <trkpt lat="45.12419" lon="0.57118">
        <ele>200.8</ele>
        <time>2025-06-15T08:32:24Z</time>
      </trkpt>
      <trkpt lat="45.12425" lon="0.57115">
        <ele>200.8</ele>
        <time>2025-06-15T08:32:25Z</time>
      </trkpt>
      <trkpt lat="45.12431" lon="0.57113">
        <ele>200.8</ele>
        <time>2025-06-15T08:32:26Z</time>
      </trkpt>
      <trkpt lat="45.12436" lon="0.57109">
        <ele>200.8</ele>
        <time>2025-06-15T08:32:27Z</time>
      </trkpt>
      <trkpt lat="45.12442" lon="0.57106">
        <ele>200.8</ele>
        <time>2025-06-15T08:32:28Z</time>
      </trkpt>
      <trkpt lat="45.12447" lon="0.57102">
        <ele>200.6</ele>
        <time>2025-06-15T08:32:29Z</time>
      </trkpt>
      <trkpt lat="45.12453" lon="0.57099">
        <ele>200.4</ele>
        <time>2025-06-15T08:32:30Z</time>
      </trkpt>
      <trkpt lat="45.12459" lon="0.57095">
        <ele>200.4</ele>
        <time>2025-06-15T08:32:31Z</time>
      </trkpt>
      <trkpt lat="45.12464" lon="0.57091">
        <ele>200.2</ele>
        <time>2025-06-15T08:32:32Z</time>
      </trkpt>
      <trkpt lat="45.1247" lon="0.57087">
        <ele>199.8</ele>
        <time>2025-06-15T08:32:33Z</time>
      </trkpt>
      <trkpt lat="45.12476" lon="0.57083">
        <ele>199.8</ele>
        <time>2025-06-15T08:32:34Z</time>
      </trkpt>
      <trkpt lat="45.12483" lon="0.57079">
        <ele>199.8</ele>
        <time>2025-06-15T08:32:35Z</time>
      </trkpt>
      <trkpt lat="45.12489" lon="0.57076">
        <ele>199.6</ele>
        <time>2025-06-15T08:32:36Z</time>
      </trkpt>
      <trkpt lat="45.12495" lon="0.57072">
        <ele>199.6</ele>
        <time>2025-06-15T08:32:37Z</time>
      </trkpt>
      <trkpt lat="45.12503" lon="0.5707">
        <ele>199.6</ele>
        <time>2025-06-15T08:32:38Z</time>
      </trkpt>
      <trkpt lat="45.1251" lon="0.57068">
        <ele>199.4</ele>
        <time>2025-06-15T08:32:39Z</time>
      </trkpt>
      <trkpt lat="45.12517" lon="0.57065">
        <ele>199.2</ele>
        <time>2025-06-15T08:32:40Z</time>
      </trkpt>
      <trkpt lat="45.12524" lon="0.57063">
        <ele>199</ele>
        <time>2025-06-15T08:32:41Z</time>
      </trkpt>
      <trkpt lat="45.1253" lon="0.57061">
        <ele>199</ele>
        <time>2025-06-15T08:32:42Z</time>
      </trkpt>
      <trkpt lat="45.12536" lon="0.57058">
        <ele>198.8</ele>
        <time>2025-06-15T08:32:43Z</time>
      </trkpt>
      <trkpt lat="45.12543" lon="0.57055">
        <ele>198.6</ele>
        <time>2025-06-15T08:32:44Z</time>
      </trkpt>
      <trkpt lat="45.12549" lon="0.57053">
        <ele>198.4</ele>
        <time>2025-06-15T08:32:45Z</time>
      </trkpt>
      <trkpt lat="45.12555" lon="0.57052">
        <ele>198.2</ele>
        <time>2025-06-15T08:32:46Z</time>
      </trkpt>
      <trkpt lat="45.12562" lon="0.57051">
        <ele>198.2</ele>
        <time>2025-06-15T08:32:47Z</time>
      </trkpt>
      <trkpt lat="45.12567" lon="0.57051">
        <ele>198</ele>
        <time>2025-06-15T08:32:48Z</time>
      </trkpt>
      <trkpt lat="45.12573" lon="0.5705">
        <ele>197.8</ele>
        <time>2025-06-15T08:32:49Z</time>
      </trkpt>
      <trkpt lat="45.12579" lon="0.57048">
        <ele>197.8</ele>
        <time>2025-06-15T08:32:50Z</time>
      </trkpt>
      <trkpt lat="45.12584" lon="0.57046">
        <ele>197.6</ele>
        <time>2025-06-15T08:32:51Z</time>
      </trkpt>
      <trkpt lat="45.12588" lon="0.57043">
        <ele>197.6</ele>
        <time>2025-06-15T08:32:52Z</time>
      </trkpt>
      <trkpt lat="45.12593" lon="0.57039">
        <ele>197.4</ele>
        <time>2025-06-15T08:32:53Z</time>
      </trkpt>
      <trkpt lat="45.12598" lon="0.57035">
        <ele>197.6</ele>
        <time>2025-06-15T08:32:54Z</time>
      </trkpt>
      <trkpt lat="45.12603" lon="0.57032">
        <ele>197.4</ele>
        <time>2025-06-15T08:32:55Z</time>
      </trkpt>
      <trkpt lat="45.12609" lon="0.57029">
        <ele>197.4</ele>
        <time>2025-06-15T08:32:56Z</time>
      </trkpt>
      <trkpt lat="45.12614" lon="0.57025">
        <ele>197.4</ele>
        <time>2025-06-15T08:32:57Z</time>
      </trkpt>
      <trkpt lat="45.12619" lon="0.57022">
        <ele>197.2</ele>
        <time>2025-06-15T08:32:58Z</time>
      </trkpt>
      <trkpt lat="45.12625" lon="0.57018">
        <ele>197</ele>
        <time>2025-06-15T08:32:59Z</time>
      </trkpt>
      <trkpt lat="45.12629" lon="0.57013">
        <ele>197</ele>
        <time>2025-06-15T08:33:00Z</time>
      </trkpt>
      <trkpt lat="45.12633" lon="0.5701">
        <ele>196.8</ele>
        <time>2025-06-15T08:33:01Z</time>
      </trkpt>
      <trkpt lat="45.12635" lon="0.57011">
        <ele>196.6</ele>
        <time>2025-06-15T08:33:02Z</time>
      </trkpt>
      <trkpt lat="45.12636" lon="0.57013">
        <ele>196.6</ele>
        <time>2025-06-15T08:33:03Z</time>
      </trkpt>
      <trkpt lat="45.12637" lon="0.57014">
        <ele>196.6</ele>
        <time>2025-06-15T08:33:04Z</time>
      </trkpt>
      <trkpt lat="45.12638" lon="0.57017">
        <ele>196.6</ele>
        <time>2025-06-15T08:33:05Z</time>
      </trkpt>
      <trkpt lat="45.12639" lon="0.57019">
        <ele>196.6</ele>
        <time>2025-06-15T08:33:06Z</time>
      </trkpt>
      <trkpt lat="45.1264" lon="0.57023">
        <ele>196.6</ele>
        <time>2025-06-15T08:33:07Z</time>
      </trkpt>
      <trkpt lat="45.12639" lon="0.57027">
        <ele>196.6</ele>
        <time>2025-06-15T08:33:08Z</time>
      </trkpt>
      <trkpt lat="45.12639" lon="0.57031">
        <ele>196.6</ele>
        <time>2025-06-15T08:33:09Z</time>
      </trkpt>
      <trkpt lat="45.12638" lon="0.57035">
        <ele>196.4</ele>
        <time>2025-06-15T08:33:10Z</time>
      </trkpt>
      <trkpt lat="45.12638" lon="0.57041">
        <ele>196.4</ele>
        <time>2025-06-15T08:33:11Z</time>
      </trkpt>
      <trkpt lat="45.12638" lon="0.57048">
        <ele>196.4</ele>
        <time>2025-06-15T08:33:12Z</time>
      </trkpt>
      <trkpt lat="45.12639" lon="0.57055">
        <ele>196.4</ele>
        <time>2025-06-15T08:33:13Z</time>
      </trkpt>
      <trkpt lat="45.12639" lon="0.57062">
        <ele>196.2</ele>
        <time>2025-06-15T08:33:14Z</time>
      </trkpt>
      <trkpt lat="45.12639" lon="0.57069">
        <ele>196</ele>
        <time>2025-06-15T08:33:15Z</time>
      </trkpt>
      <trkpt lat="45.1264" lon="0.57075">
        <ele>196</ele>
        <time>2025-06-15T08:33:16Z</time>
      </trkpt>
      <trkpt lat="45.1264" lon="0.57081">
        <ele>195.8</ele>
        <time>2025-06-15T08:33:17Z</time>
      </trkpt>
      <trkpt lat="45.12642" lon="0.57087">
        <ele>195.8</ele>
        <time>2025-06-15T08:33:18Z</time>
      </trkpt>
      <trkpt lat="45.12644" lon="0.57093">
        <ele>195.6</ele>
        <time>2025-06-15T08:33:19Z</time>
      </trkpt>
      <trkpt lat="45.12647" lon="0.57099">
        <ele>195.6</ele>
        <time>2025-06-15T08:33:20Z</time>
      </trkpt>
      <trkpt lat="45.12649" lon="0.57104">
        <ele>195.6</ele>
        <time>2025-06-15T08:33:21Z</time>
      </trkpt>
      <trkpt lat="45.12651" lon="0.57109">
        <ele>195.4</ele>
        <time>2025-06-15T08:33:22Z</time>
      </trkpt>
      <trkpt lat="45.12653" lon="0.57114">
        <ele>195.4</ele>
        <time>2025-06-15T08:33:23Z</time>
      </trkpt>
      <trkpt lat="45.12655" lon="0.57119">
        <ele>195.4</ele>
        <time>2025-06-15T08:33:24Z</time>
      </trkpt>
      <trkpt lat="45.12657" lon="0.57124">
        <ele>195.2</ele>
        <time>2025-06-15T08:33:25Z</time>
      </trkpt>
      <trkpt lat="45.1266" lon="0.57129">
        <ele>195.2</ele>
        <time>2025-06-15T08:33:26Z</time>
      </trkpt>
      <trkpt lat="45.12662" lon="0.57133">
        <ele>195.2</ele>
        <time>2025-06-15T08:33:27Z</time>
      </trkpt>
      <trkpt lat="45.12664" lon="0.57139">
        <ele>195.2</ele>
        <time>2025-06-15T08:33:28Z</time>
      </trkpt>
      <trkpt lat="45.12666" lon="0.57144">
        <ele>195.2</ele>
        <time>2025-06-15T08:33:29Z</time>
      </trkpt>
      <trkpt lat="45.12669" lon="0.57149">
        <ele>195.2</ele>
        <time>2025-06-15T08:33:30Z</time>
      </trkpt>
      <trkpt lat="45.12672" lon="0.57154">
        <ele>195</ele>
        <time>2025-06-15T08:33:31Z</time>
      </trkpt>
      <trkpt lat="45.12674" lon="0.57159">
        <ele>195</ele>
        <time>2025-06-15T08:33:32Z</time>
      </trkpt>
      <trkpt lat="45.12675" lon="0.57164">
        <ele>195</ele>
        <time>2025-06-15T08:33:33Z</time>
      </trkpt>
      <trkpt lat="45.12676" lon="0.57168">
        <ele>195</ele>
        <time>2025-06-15T08:33:34Z</time>
      </trkpt>
      <trkpt lat="45.12677" lon="0.57173">
        <ele>195</ele>
        <time>2025-06-15T08:33:35Z</time>
      </trkpt>
      <trkpt lat="45.12677" lon="0.57178">
        <ele>195</ele>
        <time>2025-06-15T08:33:36Z</time>
      </trkpt>
      <trkpt lat="45.12678" lon="0.57183">
        <ele>195</ele>
        <time>2025-06-15T08:33:37Z</time>
      </trkpt>
      <trkpt lat="45.12678" lon="0.57188">
        <ele>195</ele>
        <time>2025-06-15T08:33:38Z</time>
      </trkpt>
      <trkpt lat="45.12679" lon="0.57194">
        <ele>195</ele>
        <time>2025-06-15T08:33:39Z</time>
      </trkpt>
      <trkpt lat="45.1268" lon="0.572">
        <ele>195</ele>
        <time>2025-06-15T08:33:40Z</time>
      </trkpt>
      <trkpt lat="45.12683" lon="0.57206">
        <ele>195</ele>
        <time>2025-06-15T08:33:41Z</time>
      </trkpt>
      <trkpt lat="45.12684" lon="0.57211">
        <ele>195</ele>
        <time>2025-06-15T08:33:42Z</time>
      </trkpt>
      <trkpt lat="45.12683" lon="0.57216">
        <ele>195</ele>
        <time>2025-06-15T08:33:43Z</time>
      </trkpt>
      <trkpt lat="45.12682" lon="0.57218">
        <ele>195</ele>
        <time>2025-06-15T08:33:44Z</time>
      </trkpt>
      <trkpt lat="45.1268" lon="0.5722">
        <ele>195</ele>
        <time>2025-06-15T08:33:45Z</time>
      </trkpt>
      <trkpt lat="45.12677" lon="0.57221">
        <ele>195</ele>
        <time>2025-06-15T08:33:46Z</time>
      </trkpt>
      <trkpt lat="45.12674" lon="0.57222">
        <ele>194.8</ele>
        <time>2025-06-15T08:33:47Z</time>
      </trkpt>
      <trkpt lat="45.1267" lon="0.57223">
        <ele>194.8</ele>
        <time>2025-06-15T08:33:48Z</time>
      </trkpt>
      <trkpt lat="45.12667" lon="0.57223">
        <ele>194.8</ele>
        <time>2025-06-15T08:33:49Z</time>
      </trkpt>
      <trkpt lat="45.12664" lon="0.57223">
        <ele>194.8</ele>
        <time>2025-06-15T08:33:50Z</time>
      </trkpt>
      <trkpt lat="45.12661" lon="0.57223">
        <ele>194.8</ele>
        <time>2025-06-15T08:33:51Z</time>
      </trkpt>
      <trkpt lat="45.12657" lon="0.57222">
        <ele>194.8</ele>
        <time>2025-06-15T08:33:52Z</time>
      </trkpt>
      <trkpt lat="45.12654" lon="0.57221">
        <ele>194.8</ele>
        <time>2025-06-15T08:33:53Z</time>
      </trkpt>
      <trkpt lat="45.12652" lon="0.57219">
        <ele>194.8</ele>
        <time>2025-06-15T08:33:54Z</time>
      </trkpt>
      <trkpt lat="45.12649" lon="0.57218">
        <ele>195</ele>
        <time>2025-06-15T08:33:55Z</time>
      </trkpt>
      <trkpt lat="45.12647" lon="0.57216">
        <ele>195</ele>
        <time>2025-06-15T08:33:56Z</time>
      </trkpt>
      <trkpt lat="45.12644" lon="0.57213">
        <ele>195</ele>
        <time>2025-06-15T08:33:57Z</time>
      </trkpt>
      <trkpt lat="45.12641" lon="0.57212">
        <ele>195</ele>
        <time>2025-06-15T08:33:58Z</time>
      </trkpt>
      <trkpt lat="45.12637" lon="0.57209">
        <ele>194.8</ele>
        <time>2025-06-15T08:33:59Z</time>
      </trkpt>
      <trkpt lat="45.12634" lon="0.57206">
        <ele>194.8</ele>
        <time>2025-06-15T08:34:00Z</time>
      </trkpt>
      <trkpt lat="45.12632" lon="0.57202">
        <ele>194.8</ele>
        <time>2025-06-15T08:34:01Z</time>
      </trkpt>
      <trkpt lat="45.12629" lon="0.57199">
        <ele>194.8</ele>
        <time>2025-06-15T08:34:02Z</time>
      </trkpt>
      <trkpt lat="45.12626" lon="0.57197">
        <ele>194.8</ele>
        <time>2025-06-15T08:34:03Z</time>
      </trkpt>
      <trkpt lat="45.12623" lon="0.57195">
        <ele>194.8</ele>
        <time>2025-06-15T08:34:04Z</time>
      </trkpt>
      <trkpt lat="45.12619" lon="0.57192">
        <ele>194.6</ele>
        <time>2025-06-15T08:34:05Z</time>
      </trkpt>
      <trkpt lat="45.12616" lon="0.57189">
        <ele>194.6</ele>
        <time>2025-06-15T08:34:06Z</time>
      </trkpt>
      <trkpt lat="45.12613" lon="0.57187">
        <ele>194.8</ele>
        <time>2025-06-15T08:34:07Z</time>
      </trkpt>
      <trkpt lat="45.12609" lon="0.57185">
        <ele>194.8</ele>
        <time>2025-06-15T08:34:08Z</time>
      </trkpt>
      <trkpt lat="45.12606" lon="0.57183">
        <ele>194.8</ele>
        <time>2025-06-15T08:34:09Z</time>
      </trkpt>
      <trkpt lat="45.12603" lon="0.57183">
        <ele>194.8</ele>
        <time>2025-06-15T08:34:10Z</time>
      </trkpt>
      <trkpt lat="45.126" lon="0.57183">
        <ele>194.8</ele>
        <time>2025-06-15T08:34:11Z</time>
      </trkpt>
      <trkpt lat="45.12597" lon="0.57184">
        <ele>194.8</ele>
        <time>2025-06-15T08:34:12Z</time>
      </trkpt>
      <trkpt lat="45.12594" lon="0.57185">
        <ele>194.8</ele>
        <time>2025-06-15T08:34:13Z</time>
      </trkpt>
      <trkpt lat="45.12591" lon="0.57186">
        <ele>194.8</ele>
        <time>2025-06-15T08:34:14Z</time>
      </trkpt>
      <trkpt lat="45.12589" lon="0.57187">
        <ele>194.8</ele>
        <time>2025-06-15T08:34:15Z</time>
      </trkpt>
      <trkpt lat="45.12586" lon="0.57188">
        <ele>194.8</ele>
        <time>2025-06-15T08:34:16Z</time>
      </trkpt>
      <trkpt lat="45.12583" lon="0.57189">
        <ele>194.6</ele>
        <time>2025-06-15T08:34:17Z</time>
      </trkpt>
      <trkpt lat="45.12579" lon="0.57191">
        <ele>194.6</ele>
        <time>2025-06-15T08:34:18Z</time>
      </trkpt>
      <trkpt lat="45.12576" lon="0.57192">
        <ele>194.6</ele>
        <time>2025-06-15T08:34:19Z</time>
      </trkpt>
      <trkpt lat="45.12574" lon="0.57194">
        <ele>194.6</ele>
        <time>2025-06-15T08:34:20Z</time>
      </trkpt>
      <trkpt lat="45.12571" lon="0.57195">
        <ele>194.6</ele>
        <time>2025-06-15T08:34:21Z</time>
      </trkpt>
      <trkpt lat="45.12568" lon="0.57195">
        <ele>194.4</ele>
        <time>2025-06-15T08:34:22Z</time>
      </trkpt>
      <trkpt lat="45.12566" lon="0.57197">
        <ele>194.4</ele>
        <time>2025-06-15T08:34:23Z</time>
      </trkpt>
      <trkpt lat="45.12563" lon="0.57198">
        <ele>194.4</ele>
        <time>2025-06-15T08:34:24Z</time>
      </trkpt>
      <trkpt lat="45.12561" lon="0.57198">
        <ele>194.4</ele>
        <time>2025-06-15T08:34:25Z</time>
      </trkpt>
      <trkpt lat="45.12558" lon="0.572">
        <ele>194.4</ele>
        <time>2025-06-15T08:34:26Z</time>
      </trkpt>
      <trkpt lat="45.12555" lon="0.572">
        <ele>194.4</ele>
        <time>2025-06-15T08:34:27Z</time>
      </trkpt>
      <trkpt lat="45.12552" lon="0.57201">
        <ele>194.4</ele>
        <time>2025-06-15T08:34:28Z</time>
      </trkpt>
      <trkpt lat="45.12549" lon="0.57202">
        <ele>194.4</ele>
        <time>2025-06-15T08:34:29Z</time>
      </trkpt>
      <trkpt lat="45.12547" lon="0.57204">
        <ele>194.4</ele>
        <time>2025-06-15T08:34:30Z</time>
      </trkpt>
      <trkpt lat="45.12544" lon="0.57204">
        <ele>194.4</ele>
        <time>2025-06-15T08:34:31Z</time>
      </trkpt>
      <trkpt lat="45.12541" lon="0.57205">
        <ele>194.4</ele>
        <time>2025-06-15T08:34:32Z</time>
      </trkpt>
      <trkpt lat="45.12538" lon="0.57206">
        <ele>194.2</ele>
        <time>2025-06-15T08:34:33Z</time>
      </trkpt>
      <trkpt lat="45.12535" lon="0.57207">
        <ele>194.2</ele>
        <time>2025-06-15T08:34:34Z</time>
      </trkpt>
      <trkpt lat="45.12533" lon="0.57209">
        <ele>194.2</ele>
        <time>2025-06-15T08:34:35Z</time>
      </trkpt>
      <trkpt lat="45.1253" lon="0.57211">
        <ele>194.2</ele>
        <time>2025-06-15T08:34:36Z</time>
      </trkpt>
      <trkpt lat="45.12527" lon="0.57212">
        <ele>194.2</ele>
        <time>2025-06-15T08:34:37Z</time>
      </trkpt>
      <trkpt lat="45.12525" lon="0.57213">
        <ele>194.2</ele>
        <time>2025-06-15T08:34:38Z</time>
      </trkpt>
      <trkpt lat="45.12522" lon="0.57215">
        <ele>194</ele>
        <time>2025-06-15T08:34:39Z</time>
      </trkpt>
      <trkpt lat="45.12519" lon="0.57217">
        <ele>194.2</ele>
        <time>2025-06-15T08:34:40Z</time>
      </trkpt>
      <trkpt lat="45.12516" lon="0.57218">
        <ele>194.2</ele>
        <time>2025-06-15T08:34:41Z</time>
      </trkpt>
      <trkpt lat="45.12514" lon="0.57219">
        <ele>194.2</ele>
        <time>2025-06-15T08:34:42Z</time>
      </trkpt>
      <trkpt lat="45.12511" lon="0.5722">
        <ele>194.2</ele>
        <time>2025-06-15T08:34:43Z</time>
      </trkpt>
      <trkpt lat="45.12508" lon="0.57222">
        <ele>194.2</ele>
        <time>2025-06-15T08:34:44Z</time>
      </trkpt>
      <trkpt lat="45.12506" lon="0.57223">
        <ele>194.2</ele>
        <time>2025-06-15T08:34:45Z</time>
      </trkpt>
      <trkpt lat="45.12503" lon="0.57225">
        <ele>194.2</ele>
        <time>2025-06-15T08:34:46Z</time>
      </trkpt>
      <trkpt lat="45.12501" lon="0.57226">
        <ele>194.2</ele>
        <time>2025-06-15T08:34:47Z</time>
      </trkpt>
      <trkpt lat="45.12498" lon="0.57227">
        <ele>194.2</ele>
        <time>2025-06-15T08:34:48Z</time>
      </trkpt>
      <trkpt lat="45.12496" lon="0.57228">
        <ele>194</ele>
        <time>2025-06-15T08:34:49Z</time>
      </trkpt>
      <trkpt lat="45.12493" lon="0.57229">
        <ele>194</ele>
        <time>2025-06-15T08:34:50Z</time>
      </trkpt>
      <trkpt lat="45.1249" lon="0.5723">
        <ele>194</ele>
        <time>2025-06-15T08:34:51Z</time>
      </trkpt>
      <trkpt lat="45.12488" lon="0.57231">
        <ele>193.8</ele>
        <time>2025-06-15T08:34:52Z</time>
      </trkpt>
      <trkpt lat="45.12485" lon="0.57232">
        <ele>193.8</ele>
        <time>2025-06-15T08:34:53Z</time>
      </trkpt>
      <trkpt lat="45.12483" lon="0.57233">
        <ele>193.8</ele>
        <time>2025-06-15T08:34:54Z</time>
      </trkpt>
      <trkpt lat="45.1248" lon="0.57234">
        <ele>194</ele>
        <time>2025-06-15T08:34:55Z</time>
      </trkpt>
      <trkpt lat="45.12478" lon="0.57235">
        <ele>194</ele>
        <time>2025-06-15T08:34:56Z</time>
      </trkpt>
      <trkpt lat="45.12475" lon="0.57236">
        <ele>194</ele>
        <time>2025-06-15T08:34:57Z</time>
      </trkpt>
      <trkpt lat="45.12472" lon="0.57238">
        <ele>194.2</ele>
        <time>2025-06-15T08:34:58Z</time>
      </trkpt>
      <trkpt lat="45.12469" lon="0.57239">
        <ele>194.2</ele>
        <time>2025-06-15T08:34:59Z</time>
      </trkpt>
      <trkpt lat="45.12466" lon="0.5724">
        <ele>194.2</ele>
        <time>2025-06-15T08:35:00Z</time>
      </trkpt>
      <trkpt lat="45.12463" lon="0.57241">
        <ele>194</ele>
        <time>2025-06-15T08:35:01Z</time>
      </trkpt>
      <trkpt lat="45.12461" lon="0.57242">
        <ele>194</ele>
        <time>2025-06-15T08:35:02Z</time>
      </trkpt>
      <trkpt lat="45.12458" lon="0.57243">
        <ele>194</ele>
        <time>2025-06-15T08:35:03Z</time>
      </trkpt>
      <trkpt lat="45.12456" lon="0.57244">
        <ele>194</ele>
        <time>2025-06-15T08:35:04Z</time>
      </trkpt>
      <trkpt lat="45.12453" lon="0.57246">
        <ele>194</ele>
        <time>2025-06-15T08:35:05Z</time>
      </trkpt>
      <trkpt lat="45.12451" lon="0.57247">
        <ele>193.8</ele>
        <time>2025-06-15T08:35:06Z</time>
      </trkpt>
      <trkpt lat="45.12449" lon="0.57248">
        <ele>193.8</ele>
        <time>2025-06-15T08:35:07Z</time>
      </trkpt>
      <trkpt lat="45.12447" lon="0.5725">
        <ele>193.8</ele>
        <time>2025-06-15T08:35:08Z</time>
      </trkpt>
      <trkpt lat="45.12445" lon="0.57252">
        <ele>193.8</ele>
        <time>2025-06-15T08:35:09Z</time>
      </trkpt>
      <trkpt lat="45.12445" lon="0.57255">
        <ele>193.8</ele>
        <time>2025-06-15T08:35:10Z</time>
      </trkpt>
      <trkpt lat="45.12443" lon="0.57258">
        <ele>193.8</ele>
        <time>2025-06-15T08:35:11Z</time>
      </trkpt>
      <trkpt lat="45.12441" lon="0.57261">
        <ele>193.6</ele>
        <time>2025-06-15T08:35:12Z</time>
      </trkpt>
      <trkpt lat="45.1244" lon="0.57264">
        <ele>193.6</ele>
        <time>2025-06-15T08:35:13Z</time>
      </trkpt>
      <trkpt lat="45.12439" lon="0.57269">
        <ele>193.6</ele>
        <time>2025-06-15T08:35:14Z</time>
      </trkpt>
      <trkpt lat="45.12437" lon="0.57273">
        <ele>193.4</ele>
        <time>2025-06-15T08:35:15Z</time>
      </trkpt>
      <trkpt lat="45.12435" lon="0.57276">
        <ele>193.4</ele>
        <time>2025-06-15T08:35:16Z</time>
      </trkpt>
      <trkpt lat="45.12434" lon="0.5728">
        <ele>193.2</ele>
        <time>2025-06-15T08:35:17Z</time>
      </trkpt>
      <trkpt lat="45.12432" lon="0.57285">
        <ele>193</ele>
        <time>2025-06-15T08:35:18Z</time>
      </trkpt>
      <trkpt lat="45.1243" lon="0.57289">
        <ele>192.8</ele>
        <time>2025-06-15T08:35:19Z</time>
      </trkpt>
      <trkpt lat="45.12428" lon="0.57293">
        <ele>192.8</ele>
        <time>2025-06-15T08:35:20Z</time>
      </trkpt>
      <trkpt lat="45.12425" lon="0.57298">
        <ele>192.8</ele>
        <time>2025-06-15T08:35:21Z</time>
      </trkpt>
      <trkpt lat="45.12423" lon="0.57302">
        <ele>192.6</ele>
        <time>2025-06-15T08:35:22Z</time>
      </trkpt>
      <trkpt lat="45.1242" lon="0.57307">
        <ele>192.6</ele>
        <time>2025-06-15T08:35:23Z</time>
      </trkpt>
      <trkpt lat="45.12418" lon="0.57311">
        <ele>192.6</ele>
        <time>2025-06-15T08:35:24Z</time>
      </trkpt>
      <trkpt lat="45.12415" lon="0.57316">
        <ele>192.6</ele>
        <time>2025-06-15T08:35:25Z</time>
      </trkpt>
      <trkpt lat="45.12412" lon="0.5732">
        <ele>192.4</ele>
        <time>2025-06-15T08:35:26Z</time>
      </trkpt>
      <trkpt lat="45.12408" lon="0.57325">
        <ele>192.4</ele>
        <time>2025-06-15T08:35:27Z</time>
      </trkpt>
      <trkpt lat="45.12405" lon="0.57329">
        <ele>192.4</ele>
        <time>2025-06-15T08:35:28Z</time>
      </trkpt>
      <trkpt lat="45.12401" lon="0.57334">
        <ele>192.4</ele>
        <time>2025-06-15T08:35:29Z</time>
      </trkpt>
      <trkpt lat="45.12397" lon="0.57339">
        <ele>192.4</ele>
        <time>2025-06-15T08:35:30Z</time>
      </trkpt>
      <trkpt lat="45.12393" lon="0.57344">
        <ele>192.4</ele>
        <time>2025-06-15T08:35:31Z</time>
      </trkpt>
      <trkpt lat="45.12389" lon="0.57349">
        <ele>192.4</ele>
        <time>2025-06-15T08:35:32Z</time>
      </trkpt>
      <trkpt lat="45.12385" lon="0.57354">
        <ele>192.2</ele>
        <time>2025-06-15T08:35:33Z</time>
      </trkpt>
      <trkpt lat="45.1238" lon="0.57359">
        <ele>192.2</ele>
        <time>2025-06-15T08:35:34Z</time>
      </trkpt>
      <trkpt lat="45.12376" lon="0.57363">
        <ele>192.2</ele>
        <time>2025-06-15T08:35:35Z</time>
      </trkpt>
      <trkpt lat="45.12372" lon="0.57368">
        <ele>192.2</ele>
        <time>2025-06-15T08:35:36Z</time>
      </trkpt>
      <trkpt lat="45.12367" lon="0.57374">
        <ele>192</ele>
        <time>2025-06-15T08:35:37Z</time>
      </trkpt>
      <trkpt lat="45.12363" lon="0.57379">
        <ele>192</ele>
        <time>2025-06-15T08:35:38Z</time>
      </trkpt>
      <trkpt lat="45.12359" lon="0.57385">
        <ele>192</ele>
        <time>2025-06-15T08:35:39Z</time>
      </trkpt>
      <trkpt lat="45.12357" lon="0.57389">
        <ele>192</ele>
        <time>2025-06-15T08:35:40Z</time>
      </trkpt>
      <trkpt lat="45.12358" lon="0.57392">
        <ele>191.8</ele>
        <time>2025-06-15T08:35:41Z</time>
      </trkpt>
      <trkpt lat="45.12361" lon="0.57393">
        <ele>191.8</ele>
        <time>2025-06-15T08:35:42Z</time>
      </trkpt>
      <trkpt lat="45.12363" lon="0.57394">
        <ele>191.8</ele>
        <time>2025-06-15T08:35:43Z</time>
      </trkpt>
      <trkpt lat="45.12365" lon="0.57395">
        <ele>191.8</ele>
        <time>2025-06-15T08:35:44Z</time>
      </trkpt>
      <trkpt lat="45.12367" lon="0.57398">
        <ele>191.8</ele>
        <time>2025-06-15T08:35:45Z</time>
      </trkpt>
      <trkpt lat="45.12369" lon="0.57401">
        <ele>191.8</ele>
        <time>2025-06-15T08:35:46Z</time>
      </trkpt>
      <trkpt lat="45.12372" lon="0.57404">
        <ele>191.6</ele>
        <time>2025-06-15T08:35:47Z</time>
      </trkpt>
      <trkpt lat="45.12374" lon="0.57405">
        <ele>191.6</ele>
        <time>2025-06-15T08:35:48Z</time>
      </trkpt>
      <trkpt lat="45.12376" lon="0.57405">
        <ele>191.6</ele>
        <time>2025-06-15T08:35:49Z</time>
      </trkpt>
      <trkpt lat="45.12378" lon="0.57406">
        <ele>191.4</ele>
        <time>2025-06-15T08:35:50Z</time>
      </trkpt>
      <trkpt lat="45.1238" lon="0.57407">
        <ele>191.4</ele>
        <time>2025-06-15T08:35:51Z</time>
      </trkpt>
      <trkpt lat="45.12383" lon="0.57408">
        <ele>191.4</ele>
        <time>2025-06-15T08:35:52Z</time>
      </trkpt>
      <trkpt lat="45.12385" lon="0.5741">
        <ele>191.2</ele>
        <time>2025-06-15T08:35:53Z</time>
      </trkpt>
      <trkpt lat="45.12388" lon="0.57411">
        <ele>191.2</ele>
        <time>2025-06-15T08:35:54Z</time>
      </trkpt>
      <trkpt lat="45.12391" lon="0.57414">
        <ele>191.2</ele>
        <time>2025-06-15T08:35:55Z</time>
      </trkpt>
      <trkpt lat="45.12395" lon="0.57416">
        <ele>191.2</ele>
        <time>2025-06-15T08:35:56Z</time>
      </trkpt>
      <trkpt lat="45.12398" lon="0.57418">
        <ele>191.2</ele>
        <time>2025-06-15T08:35:57Z</time>
      </trkpt>
      <trkpt lat="45.12402" lon="0.57419">
        <ele>191.2</ele>
        <time>2025-06-15T08:35:58Z</time>
      </trkpt>
      <trkpt lat="45.12407" lon="0.57419">
        <ele>191.2</ele>
        <time>2025-06-15T08:35:59Z</time>
      </trkpt>
      <trkpt lat="45.12412" lon="0.57417">
        <ele>191</ele>
        <time>2025-06-15T08:36:00Z</time>
      </trkpt>
      <trkpt lat="45.12416" lon="0.57415">
        <ele>191</ele>
        <time>2025-06-15T08:36:01Z</time>
      </trkpt>
      <trkpt lat="45.12421" lon="0.57413">
        <ele>191</ele>
        <time>2025-06-15T08:36:02Z</time>
      </trkpt>
      <trkpt lat="45.12426" lon="0.57411">
        <ele>191</ele>
        <time>2025-06-15T08:36:03Z</time>
      </trkpt>
      <trkpt lat="45.12431" lon="0.57409">
        <ele>190.8</ele>
        <time>2025-06-15T08:36:04Z</time>
      </trkpt>
      <trkpt lat="45.12435" lon="0.57407">
        <ele>190.8</ele>
        <time>2025-06-15T08:36:05Z</time>
      </trkpt>
      <trkpt lat="45.12439" lon="0.57405">
        <ele>190.8</ele>
        <time>2025-06-15T08:36:06Z</time>
      </trkpt>
      <trkpt lat="45.12444" lon="0.57403">
        <ele>190.6</ele>
        <time>2025-06-15T08:36:07Z</time>
      </trkpt>
      <trkpt lat="45.12448" lon="0.574">
        <ele>190.6</ele>
        <time>2025-06-15T08:36:08Z</time>
      </trkpt>
      <trkpt lat="45.12453" lon="0.57396">
        <ele>190.6</ele>
        <time>2025-06-15T08:36:09Z</time>
      </trkpt>
      <trkpt lat="45.12458" lon="0.57393">
        <ele>190.4</ele>
        <time>2025-06-15T08:36:10Z</time>
      </trkpt>
      <trkpt lat="45.12463" lon="0.57388">
        <ele>190.4</ele>
        <time>2025-06-15T08:36:11Z</time>
      </trkpt>
      <trkpt lat="45.12469" lon="0.57383">
        <ele>190.4</ele>
        <time>2025-06-15T08:36:12Z</time>
      </trkpt>
      <trkpt lat="45.12474" lon="0.57379">
        <ele>190.2</ele>
        <time>2025-06-15T08:36:13Z</time>
      </trkpt>
      <trkpt lat="45.1248" lon="0.57376">
        <ele>190</ele>
        <time>2025-06-15T08:36:14Z</time>
      </trkpt>
      <trkpt lat="45.12487" lon="0.57374">
        <ele>189.6</ele>
        <time>2025-06-15T08:36:15Z</time>
      </trkpt>
      <trkpt lat="45.12493" lon="0.57371">
        <ele>189.2</ele>
        <time>2025-06-15T08:36:16Z</time>
      </trkpt>
      <trkpt lat="45.12499" lon="0.57368">
        <ele>188.8</ele>
        <time>2025-06-15T08:36:17Z</time>
      </trkpt>
      <trkpt lat="45.12506" lon="0.57365">
        <ele>188.4</ele>
        <time>2025-06-15T08:36:18Z</time>
      </trkpt>
      <trkpt lat="45.12513" lon="0.57361">
        <ele>188</ele>
        <time>2025-06-15T08:36:19Z</time>
      </trkpt>
      <trkpt lat="45.1252" lon="0.57357">
        <ele>187.6</ele>
        <time>2025-06-15T08:36:20Z</time>
      </trkpt>
      <trkpt lat="45.12528" lon="0.57354">
        <ele>187.4</ele>
        <time>2025-06-15T08:36:21Z</time>
      </trkpt>
      <trkpt lat="45.12536" lon="0.57352">
        <ele>187.4</ele>
        <time>2025-06-15T08:36:22Z</time>
      </trkpt>
      <trkpt lat="45.12544" lon="0.57349">
        <ele>187.4</ele>
        <time>2025-06-15T08:36:23Z</time>
      </trkpt>
      <trkpt lat="45.12552" lon="0.57346">
        <ele>186.8</ele>
        <time>2025-06-15T08:36:24Z</time>
      </trkpt>
      <trkpt lat="45.1256" lon="0.57343">
        <ele>186.4</ele>
        <time>2025-06-15T08:36:25Z</time>
      </trkpt>
      <trkpt lat="45.12567" lon="0.57342">
        <ele>185.8</ele>
        <time>2025-06-15T08:36:26Z</time>
      </trkpt>
      <trkpt lat="45.12574" lon="0.57341">
        <ele>184.6</ele>
        <time>2025-06-15T08:36:27Z</time>
      </trkpt>
      <trkpt lat="45.12582" lon="0.57339">
        <ele>182.8</ele>
        <time>2025-06-15T08:36:28Z</time>
      </trkpt>
      <trkpt lat="45.1259" lon="0.57337">
        <ele>181</ele>
        <time>2025-06-15T08:36:29Z</time>
      </trkpt>
      <trkpt lat="45.12597" lon="0.57336">
        <ele>179.4</ele>
        <time>2025-06-15T08:36:30Z</time>
      </trkpt>
      <trkpt lat="45.12605" lon="0.57335">
        <ele>177.6</ele>
        <time>2025-06-15T08:36:31Z</time>
      </trkpt>
      <trkpt lat="45.12612" lon="0.57332">
        <ele>176</ele>
        <time>2025-06-15T08:36:32Z</time>
      </trkpt>
      <trkpt lat="45.12618" lon="0.5733">
        <ele>174.8</ele>
        <time>2025-06-15T08:36:33Z</time>
      </trkpt>
      <trkpt lat="45.12625" lon="0.57331">
        <ele>174</ele>
        <time>2025-06-15T08:36:34Z</time>
      </trkpt>
      <trkpt lat="45.12628" lon="0.57331">
        <ele>173.6</ele>
        <time>2025-06-15T08:36:35Z</time>
      </trkpt>
      <trkpt lat="45.12628" lon="0.5733">
        <ele>173.2</ele>
        <time>2025-06-15T08:36:36Z</time>
      </trkpt>
      <trkpt lat="45.12628" lon="0.57329">
        <ele>173</ele>
        <time>2025-06-15T08:36:37Z</time>
      </trkpt>
      <trkpt lat="45.12661" lon="0.57348">
        <ele>171.6</ele>
        <time>2025-06-15T08:37:19Z</time>
      </trkpt>
      <trkpt lat="45.12664" lon="0.57347">
        <ele>171.6</ele>
        <time>2025-06-15T08:37:20Z</time>
      </trkpt>
      <trkpt lat="45.12667" lon="0.57346">
        <ele>171.6</ele>
        <time>2025-06-15T08:37:21Z</time>
      </trkpt>
      <trkpt lat="45.1267" lon="0.57345">
        <ele>171.4</ele>
        <time>2025-06-15T08:37:22Z</time>
      </trkpt>
      <trkpt lat="45.12673" lon="0.57345">
        <ele>171.6</ele>
        <time>2025-06-15T08:37:23Z</time>
      </trkpt>
      <trkpt lat="45.12677" lon="0.57345">
        <ele>171.4</ele>
        <time>2025-06-15T08:37:24Z</time>
      </trkpt>
      <trkpt lat="45.12681" lon="0.57345">
        <ele>171.4</ele>
        <time>2025-06-15T08:37:25Z</time>
      </trkpt>
      <trkpt lat="45.12685" lon="0.57345">
        <ele>171.4</ele>
        <time>2025-06-15T08:37:26Z</time>
      </trkpt>
      <trkpt lat="45.1269" lon="0.57345">
        <ele>171.4</ele>
        <time>2025-06-15T08:37:27Z</time>
      </trkpt>
      <trkpt lat="45.12695" lon="0.57346">
        <ele>171.4</ele>
        <time>2025-06-15T08:37:28Z</time>
      </trkpt>
      <trkpt lat="45.12699" lon="0.57349">
        <ele>171.4</ele>
        <time>2025-06-15T08:37:29Z</time>
      </trkpt>
      <trkpt lat="45.12704" lon="0.5735">
        <ele>171.4</ele>
        <time>2025-06-15T08:37:30Z</time>
      </trkpt>
      <trkpt lat="45.12708" lon="0.57351">
        <ele>171.4</ele>
        <time>2025-06-15T08:37:31Z</time>
      </trkpt>
      <trkpt lat="45.12713" lon="0.57352">
        <ele>171.2</ele>
        <time>2025-06-15T08:37:32Z</time>
      </trkpt>
      <trkpt lat="45.12718" lon="0.57353">
        <ele>171</ele>
        <time>2025-06-15T08:37:33Z</time>
      </trkpt>
      <trkpt lat="45.12724" lon="0.57355">
        <ele>170.8</ele>
        <time>2025-06-15T08:37:34Z</time>
      </trkpt>
      <trkpt lat="45.12729" lon="0.57358">
        <ele>170.6</ele>
        <time>2025-06-15T08:37:35Z</time>
      </trkpt>
      <trkpt lat="45.12734" lon="0.57362">
        <ele>170.2</ele>
        <time>2025-06-15T08:37:36Z</time>
      </trkpt>
      <trkpt lat="45.1274" lon="0.57365">
        <ele>170</ele>
        <time>2025-06-15T08:37:37Z</time>
      </trkpt>
      <trkpt lat="45.12746" lon="0.57368">
        <ele>169.4</ele>
        <time>2025-06-15T08:37:38Z</time>
      </trkpt>
      <trkpt lat="45.12749" lon="0.57369">
        <ele>168.8</ele>
        <time>2025-06-15T08:37:39Z</time>
      </trkpt>
      <trkpt lat="45.12753" lon="0.5737">
        <ele>168.4</ele>
        <time>2025-06-15T08:37:40Z</time>
      </trkpt>
      <trkpt lat="45.12757" lon="0.57373">
        <ele>168</ele>
        <time>2025-06-15T08:37:41Z</time>
      </trkpt>
      <trkpt lat="45.12761" lon="0.57374">
        <ele>167.8</ele>
        <time>2025-06-15T08:37:42Z</time>
      </trkpt>
      <trkpt lat="45.12765" lon="0.57376">
        <ele>168</ele>
        <time>2025-06-15T08:37:43Z</time>
      </trkpt>
      <trkpt lat="45.12769" lon="0.57378">
        <ele>168</ele>
        <time>2025-06-15T08:37:44Z</time>
      </trkpt>
      <trkpt lat="45.12775" lon="0.5738">
        <ele>168</ele>
        <time>2025-06-15T08:37:45Z</time>
      </trkpt>
      <trkpt lat="45.1278" lon="0.57383">
        <ele>168</ele>
        <time>2025-06-15T08:37:46Z</time>
      </trkpt>
      <trkpt lat="45.12786" lon="0.57386">
        <ele>167.8</ele>
        <time>2025-06-15T08:37:47Z</time>
      </trkpt>
      <trkpt lat="45.12791" lon="0.57388">
        <ele>167.4</ele>
        <time>2025-06-15T08:37:48Z</time>
      </trkpt>
      <trkpt lat="45.12797" lon="0.5739">
        <ele>167</ele>
        <time>2025-06-15T08:37:49Z</time>
      </trkpt>
      <trkpt lat="45.12803" lon="0.57392">
        <ele>166.6</ele>
        <time>2025-06-15T08:37:50Z</time>
      </trkpt>
      <trkpt lat="45.12809" lon="0.57393">
        <ele>166</ele>
        <time>2025-06-15T08:37:51Z</time>
      </trkpt>
      <trkpt lat="45.12813" lon="0.57395">
        <ele>165.4</ele>
        <time>2025-06-15T08:37:52Z</time>
      </trkpt>
      <trkpt lat="45.12818" lon="0.57395">
        <ele>165</ele>
        <time>2025-06-15T08:37:53Z</time>
      </trkpt>
      <trkpt lat="45.12822" lon="0.57395">
        <ele>164.4</ele>
        <time>2025-06-15T08:37:54Z</time>
      </trkpt>
      <trkpt lat="45.12828" lon="0.57395">
        <ele>164</ele>
        <time>2025-06-15T08:37:55Z</time>
      </trkpt>
      <trkpt lat="45.12833" lon="0.57394">
        <ele>164.2</ele>
        <time>2025-06-15T08:37:56Z</time>
      </trkpt>
      <trkpt lat="45.12839" lon="0.57394">
        <ele>164.2</ele>
        <time>2025-06-15T08:37:57Z</time>
      </trkpt>
      <trkpt lat="45.12844" lon="0.57393">
        <ele>164.4</ele>
        <time>2025-06-15T08:37:58Z</time>
      </trkpt>
      <trkpt lat="45.12849" lon="0.57392">
        <ele>164.4</ele>
        <time>2025-06-15T08:37:59Z</time>
      </trkpt>
      <trkpt lat="45.12854" lon="0.57392">
        <ele>164.4</ele>
        <time>2025-06-15T08:38:00Z</time>
      </trkpt>
      <trkpt lat="45.12858" lon="0.57392">
        <ele>164.4</ele>
        <time>2025-06-15T08:38:01Z</time>
      </trkpt>
      <trkpt lat="45.12862" lon="0.57392">
        <ele>164.4</ele>
        <time>2025-06-15T08:38:02Z</time>
      </trkpt>
      <trkpt lat="45.12866" lon="0.57392">
        <ele>164.4</ele>
        <time>2025-06-15T08:38:03Z</time>
      </trkpt>
      <trkpt lat="45.1287" lon="0.57392">
        <ele>164.4</ele>
        <time>2025-06-15T08:38:04Z</time>
      </trkpt>
      <trkpt lat="45.12874" lon="0.57392">
        <ele>164.4</ele>
        <time>2025-06-15T08:38:05Z</time>
      </trkpt>
      <trkpt lat="45.12878" lon="0.57392">
        <ele>164.4</ele>
        <time>2025-06-15T08:38:06Z</time>
      </trkpt>
      <trkpt lat="45.12882" lon="0.57392">
        <ele>164.6</ele>
        <time>2025-06-15T08:38:07Z</time>
      </trkpt>
      <trkpt lat="45.12885" lon="0.57392">
        <ele>164.6</ele>
        <time>2025-06-15T08:38:08Z</time>
      </trkpt>
      <trkpt lat="45.12888" lon="0.57392">
        <ele>164.6</ele>
        <time>2025-06-15T08:38:09Z</time>
      </trkpt>
      <trkpt lat="45.12891" lon="0.57391">
        <ele>164.6</ele>
        <time>2025-06-15T08:38:10Z</time>
      </trkpt>
      <trkpt lat="45.12893" lon="0.57391">
        <ele>164.6</ele>
        <time>2025-06-15T08:38:11Z</time>
      </trkpt>
      <trkpt lat="45.12896" lon="0.57391">
        <ele>164.6</ele>
        <time>2025-06-15T08:38:12Z</time>
      </trkpt>
      <trkpt lat="45.12899" lon="0.5739">
        <ele>164.6</ele>
        <time>2025-06-15T08:38:13Z</time>
      </trkpt>
      <trkpt lat="45.12901" lon="0.57389">
        <ele>164.6</ele>
        <time>2025-06-15T08:38:14Z</time>
      </trkpt>
      <trkpt lat="45.12904" lon="0.57388">
        <ele>164.6</ele>
        <time>2025-06-15T08:38:15Z</time>
      </trkpt>
      <trkpt lat="45.12907" lon="0.57388">
        <ele>164.6</ele>
        <time>2025-06-15T08:38:16Z</time>
      </trkpt>
      <trkpt lat="45.1291" lon="0.57387">
        <ele>164.6</ele>
        <time>2025-06-15T08:38:17Z</time>
      </trkpt>
      <trkpt lat="45.12913" lon="0.57387">
        <ele>164.6</ele>
        <time>2025-06-15T08:38:18Z</time>
      </trkpt>
      <trkpt lat="45.12916" lon="0.57386">
        <ele>164.8</ele>
        <time>2025-06-15T08:38:19Z</time>
      </trkpt>
      <trkpt lat="45.12918" lon="0.57386">
        <ele>164.8</ele>
        <time>2025-06-15T08:38:20Z</time>
      </trkpt>
      <trkpt lat="45.12921" lon="0.57386">
        <ele>164.8</ele>
        <time>2025-06-15T08:38:21Z</time>
      </trkpt>
      <trkpt lat="45.12924" lon="0.57385">
        <ele>164.8</ele>
        <time>2025-06-15T08:38:22Z</time>
      </trkpt>
      <trkpt lat="45.12927" lon="0.57385">
        <ele>164.8</ele>
        <time>2025-06-15T08:38:23Z</time>
      </trkpt>
      <trkpt lat="45.1293" lon="0.57384">
        <ele>164.8</ele>
        <time>2025-06-15T08:38:24Z</time>
      </trkpt>
      <trkpt lat="45.12933" lon="0.57384">
        <ele>164.8</ele>
        <time>2025-06-15T08:38:25Z</time>
      </trkpt>
      <trkpt lat="45.12936" lon="0.57384">
        <ele>164.8</ele>
        <time>2025-06-15T08:38:26Z</time>
      </trkpt>
      <trkpt lat="45.12938" lon="0.57383">
        <ele>164.8</ele>
        <time>2025-06-15T08:38:27Z</time>
      </trkpt>
      <trkpt lat="45.12941" lon="0.57383">
        <ele>164.8</ele>
        <time>2025-06-15T08:38:28Z</time>
      </trkpt>
      <trkpt lat="45.12943" lon="0.57383">
        <ele>165</ele>
        <time>2025-06-15T08:38:29Z</time>
      </trkpt>
      <trkpt lat="45.12946" lon="0.57383">
        <ele>165</ele>
        <time>2025-06-15T08:38:30Z</time>
      </trkpt>
      <trkpt lat="45.12948" lon="0.57382">
        <ele>165</ele>
        <time>2025-06-15T08:38:31Z</time>
      </trkpt>
      <trkpt lat="45.1295" lon="0.57381">
        <ele>165</ele>
        <time>2025-06-15T08:38:32Z</time>
      </trkpt>
      <trkpt lat="45.12953" lon="0.57381">
        <ele>165</ele>
        <time>2025-06-15T08:38:33Z</time>
      </trkpt>
      <trkpt lat="45.12955" lon="0.57381">
        <ele>165</ele>
        <time>2025-06-15T08:38:34Z</time>
      </trkpt>
      <trkpt lat="45.12957" lon="0.5738">
        <ele>165</ele>
        <time>2025-06-15T08:38:35Z</time>
      </trkpt>
      <trkpt lat="45.12959" lon="0.57379">
        <ele>165</ele>
        <time>2025-06-15T08:38:36Z</time>
      </trkpt>
      <trkpt lat="45.12962" lon="0.57379">
        <ele>165.2</ele>
        <time>2025-06-15T08:38:37Z</time>
      </trkpt>
      <trkpt lat="45.12964" lon="0.57379">
        <ele>165.2</ele>
        <time>2025-06-15T08:38:38Z</time>
      </trkpt>
      <trkpt lat="45.12967" lon="0.57378">
        <ele>165.2</ele>
        <time>2025-06-15T08:38:39Z</time>
      </trkpt>
      <trkpt lat="45.1297" lon="0.57377">
        <ele>165.2</ele>
        <time>2025-06-15T08:38:40Z</time>
      </trkpt>
      <trkpt lat="45.12973" lon="0.57376">
        <ele>165</ele>
        <time>2025-06-15T08:38:41Z</time>
      </trkpt>
      <trkpt lat="45.12975" lon="0.57375">
        <ele>165.2</ele>
        <time>2025-06-15T08:38:42Z</time>
      </trkpt>
      <trkpt lat="45.12978" lon="0.57374">
        <ele>165.2</ele>
        <time>2025-06-15T08:38:43Z</time>
      </trkpt>
      <trkpt lat="45.12981" lon="0.57373">
        <ele>165.2</ele>
        <time>2025-06-15T08:38:44Z</time>
      </trkpt>
      <trkpt lat="45.12983" lon="0.57373">
        <ele>165.2</ele>
        <time>2025-06-15T08:38:45Z</time>
      </trkpt>
      <trkpt lat="45.12985" lon="0.57372">
        <ele>165.2</ele>
        <time>2025-06-15T08:38:46Z</time>
      </trkpt>
      <trkpt lat="45.12987" lon="0.57371">
        <ele>165.2</ele>
        <time>2025-06-15T08:38:47Z</time>
      </trkpt>
      <trkpt lat="45.12989" lon="0.57372">
        <ele>165.2</ele>
        <time>2025-06-15T08:38:48Z</time>
      </trkpt>
      <trkpt lat="45.12992" lon="0.57371">
        <ele>165.2</ele>
        <time>2025-06-15T08:38:49Z</time>
      </trkpt>
      <trkpt lat="45.12994" lon="0.57371">
        <ele>165.2</ele>
        <time>2025-06-15T08:38:50Z</time>
      </trkpt>
      <trkpt lat="45.12996" lon="0.57371">
        <ele>165.2</ele>
        <time>2025-06-15T08:38:51Z</time>
      </trkpt>
      <trkpt lat="45.12998" lon="0.57371">
        <ele>165.2</ele>
        <time>2025-06-15T08:38:52Z</time>
      </trkpt>
      <trkpt lat="45.13" lon="0.57371">
        <ele>165.2</ele>
        <time>2025-06-15T08:38:53Z</time>
      </trkpt>
      <trkpt lat="45.13001" lon="0.57371">
        <ele>165.4</ele>
        <time>2025-06-15T08:38:54Z</time>
      </trkpt>
      <trkpt lat="45.13003" lon="0.5737">
        <ele>165.4</ele>
        <time>2025-06-15T08:38:55Z</time>
      </trkpt>
      <trkpt lat="45.13005" lon="0.57369">
        <ele>165.4</ele>
        <time>2025-06-15T08:38:56Z</time>
      </trkpt>
      <trkpt lat="45.13007" lon="0.57369">
        <ele>165.4</ele>
        <time>2025-06-15T08:38:57Z</time>
      </trkpt>
      <trkpt lat="45.13009" lon="0.57369">
        <ele>165.4</ele>
        <time>2025-06-15T08:38:58Z</time>
      </trkpt>
      <trkpt lat="45.1301" lon="0.57369">
        <ele>165.4</ele>
        <time>2025-06-15T08:38:59Z</time>
      </trkpt>
      <trkpt lat="45.13012" lon="0.57369">
        <ele>165.4</ele>
        <time>2025-06-15T08:39:00Z</time>
      </trkpt>
      <trkpt lat="45.13014" lon="0.57368">
        <ele>165.4</ele>
        <time>2025-06-15T08:39:01Z</time>
      </trkpt>
      <trkpt lat="45.13016" lon="0.57368">
        <ele>165.4</ele>
        <time>2025-06-15T08:39:02Z</time>
      </trkpt>
      <trkpt lat="45.13018" lon="0.57368">
        <ele>165.4</ele>
        <time>2025-06-15T08:39:03Z</time>
      </trkpt>
      <trkpt lat="45.1302" lon="0.57368">
        <ele>165.6</ele>
        <time>2025-06-15T08:39:04Z</time>
      </trkpt>
      <trkpt lat="45.13022" lon="0.57368">
        <ele>165.6</ele>
        <time>2025-06-15T08:39:05Z</time>
      </trkpt>
      <trkpt lat="45.13023" lon="0.57368">
        <ele>165.6</ele>
        <time>2025-06-15T08:39:06Z</time>
      </trkpt>
      <trkpt lat="45.13025" lon="0.57368">
        <ele>165.6</ele>
        <time>2025-06-15T08:39:07Z</time>
      </trkpt>
      <trkpt lat="45.13027" lon="0.57368">
        <ele>165.6</ele>
        <time>2025-06-15T08:39:08Z</time>
      </trkpt>
      <trkpt lat="45.13029" lon="0.57367">
        <ele>165.6</ele>
        <time>2025-06-15T08:39:09Z</time>
      </trkpt>
      <trkpt lat="45.1303" lon="0.57367">
        <ele>165.6</ele>
        <time>2025-06-15T08:39:10Z</time>
      </trkpt>
      <trkpt lat="45.13032" lon="0.57367">
        <ele>165.6</ele>
        <time>2025-06-15T08:39:11Z</time>
      </trkpt>
      <trkpt lat="45.13034" lon="0.57366">
        <ele>165.8</ele>
        <time>2025-06-15T08:39:12Z</time>
      </trkpt>
      <trkpt lat="45.13035" lon="0.57366">
        <ele>165.6</ele>
        <time>2025-06-15T08:39:13Z</time>
      </trkpt>
      <trkpt lat="45.13037" lon="0.57366">
        <ele>165.6</ele>
        <time>2025-06-15T08:39:14Z</time>
      </trkpt>
      <trkpt lat="45.13039" lon="0.57365">
        <ele>165.6</ele>
        <time>2025-06-15T08:39:15Z</time>
      </trkpt>
      <trkpt lat="45.1304" lon="0.57366">
        <ele>165.6</ele>
        <time>2025-06-15T08:39:16Z</time>
      </trkpt>
      <trkpt lat="45.13042" lon="0.57366">
        <ele>165.6</ele>
        <time>2025-06-15T08:39:17Z</time>
      </trkpt>
      <trkpt lat="45.13043" lon="0.57367">
        <ele>165.4</ele>
        <time>2025-06-15T08:39:18Z</time>
      </trkpt>
      <trkpt lat="45.13045" lon="0.57367">
        <ele>165.4</ele>
        <time>2025-06-15T08:39:19Z</time>
      </trkpt>
      <trkpt lat="45.13047" lon="0.57367">
        <ele>165.2</ele>
        <time>2025-06-15T08:39:20Z</time>
      </trkpt>
      <trkpt lat="45.13049" lon="0.57367">
        <ele>165.2</ele>
        <time>2025-06-15T08:39:21Z</time>
      </trkpt>
      <trkpt lat="45.13051" lon="0.57367">
        <ele>165.2</ele>
        <time>2025-06-15T08:39:22Z</time>
      </trkpt>
      <trkpt lat="45.13052" lon="0.57367">
        <ele>165.2</ele>
        <time>2025-06-15T08:39:23Z</time>
      </trkpt>
      <trkpt lat="45.13054" lon="0.57366">
        <ele>165.2</ele>
        <time>2025-06-15T08:39:24Z</time>
      </trkpt>
      <trkpt lat="45.13056" lon="0.57366">
        <ele>165.2</ele>
        <time>2025-06-15T08:39:25Z</time>
      </trkpt>
      <trkpt lat="45.13058" lon="0.57366">
        <ele>165.4</ele>
        <time>2025-06-15T08:39:26Z</time>
      </trkpt>
      <trkpt lat="45.1306" lon="0.57366">
        <ele>165.4</ele>
        <time>2025-06-15T08:39:27Z</time>
      </trkpt>
      <trkpt lat="45.13061" lon="0.57366">
        <ele>165.4</ele>
        <time>2025-06-15T08:39:28Z</time>
      </trkpt>
      <trkpt lat="45.13063" lon="0.57366">
        <ele>165.4</ele>
        <time>2025-06-15T08:39:29Z</time>
      </trkpt>
      <trkpt lat="45.13064" lon="0.57367">
        <ele>165.4</ele>
        <time>2025-06-15T08:39:30Z</time>
      </trkpt>
      <trkpt lat="45.13066" lon="0.57367">
        <ele>165.4</ele>
        <time>2025-06-15T08:39:31Z</time>
      </trkpt>
      <trkpt lat="45.13068" lon="0.57368">
        <ele>165.4</ele>
        <time>2025-06-15T08:39:32Z</time>
      </trkpt>
      <trkpt lat="45.1307" lon="0.57369">
        <ele>165.4</ele>
        <time>2025-06-15T08:39:33Z</time>
      </trkpt>
      <trkpt lat="45.13072" lon="0.57369">
        <ele>165.4</ele>
        <time>2025-06-15T08:39:34Z</time>
      </trkpt>
      <trkpt lat="45.13073" lon="0.5737">
        <ele>165.4</ele>
        <time>2025-06-15T08:39:35Z</time>
      </trkpt>
      <trkpt lat="45.13075" lon="0.5737">
        <ele>165.4</ele>
        <time>2025-06-15T08:39:36Z</time>
      </trkpt>
      <trkpt lat="45.13077" lon="0.5737">
        <ele>165.4</ele>
        <time>2025-06-15T08:39:37Z</time>
      </trkpt>
      <trkpt lat="45.13079" lon="0.5737">
        <ele>165.4</ele>
        <time>2025-06-15T08:39:38Z</time>
      </trkpt>
      <trkpt lat="45.13081" lon="0.5737">
        <ele>165.6</ele>
        <time>2025-06-15T08:39:39Z</time>
      </trkpt>
      <trkpt lat="45.13082" lon="0.5737">
        <ele>165.6</ele>
        <time>2025-06-15T08:39:40Z</time>
      </trkpt>
      <trkpt lat="45.13084" lon="0.5737">
        <ele>165.6</ele>
        <time>2025-06-15T08:39:41Z</time>
      </trkpt>
      <trkpt lat="45.13086" lon="0.57371">
        <ele>165.6</ele>
        <time>2025-06-15T08:39:42Z</time>
      </trkpt>
      <trkpt lat="45.13088" lon="0.57372">
        <ele>165.6</ele>
        <time>2025-06-15T08:39:43Z</time>
      </trkpt>
      <trkpt lat="45.1309" lon="0.57373">
        <ele>165.6</ele>
        <time>2025-06-15T08:39:44Z</time>
      </trkpt>
      <trkpt lat="45.13092" lon="0.57374">
        <ele>165.6</ele>
        <time>2025-06-15T08:39:45Z</time>
      </trkpt>
      <trkpt lat="45.13094" lon="0.57376">
        <ele>165.4</ele>
        <time>2025-06-15T08:39:46Z</time>
      </trkpt>
      <trkpt lat="45.13096" lon="0.57377">
        <ele>165.4</ele>
        <time>2025-06-15T08:39:47Z</time>
      </trkpt>
      <trkpt lat="45.13097" lon="0.5738">
        <ele>165.4</ele>
        <time>2025-06-15T08:39:48Z</time>
      </trkpt>
      <trkpt lat="45.13099" lon="0.57381">
        <ele>165.4</ele>
        <time>2025-06-15T08:39:49Z</time>
      </trkpt>
      <trkpt lat="45.131" lon="0.57383">
        <ele>165.4</ele>
        <time>2025-06-15T08:39:50Z</time>
      </trkpt>
      <trkpt lat="45.13101" lon="0.57385">
        <ele>165.4</ele>
        <time>2025-06-15T08:39:51Z</time>
      </trkpt>
      <trkpt lat="45.13102" lon="0.57387">
        <ele>165.4</ele>
        <time>2025-06-15T08:39:52Z</time>
      </trkpt>
      <trkpt lat="45.13102" lon="0.57389">
        <ele>165.4</ele>
        <time>2025-06-15T08:39:53Z</time>
      </trkpt>
      <trkpt lat="45.13102" lon="0.57391">
        <ele>165.4</ele>
        <time>2025-06-15T08:39:54Z</time>
      </trkpt>
      <trkpt lat="45.13102" lon="0.57394">
        <ele>165.4</ele>
        <time>2025-06-15T08:39:55Z</time>
      </trkpt>
      <trkpt lat="45.13102" lon="0.57397">
        <ele>165.4</ele>
        <time>2025-06-15T08:39:56Z</time>
      </trkpt>
      <trkpt lat="45.13102" lon="0.57399">
        <ele>165.4</ele>
        <time>2025-06-15T08:39:57Z</time>
      </trkpt>
      <trkpt lat="45.13103" lon="0.57404">
        <ele>165.4</ele>
        <time>2025-06-15T08:39:58Z</time>
      </trkpt>
      <trkpt lat="45.13104" lon="0.57407">
        <ele>165.4</ele>
        <time>2025-06-15T08:39:59Z</time>
      </trkpt>
      <trkpt lat="45.13104" lon="0.57411">
        <ele>165.2</ele>
        <time>2025-06-15T08:40:00Z</time>
      </trkpt>
      <trkpt lat="45.13105" lon="0.57415">
        <ele>165.2</ele>
        <time>2025-06-15T08:40:01Z</time>
      </trkpt>
      <trkpt lat="45.13106" lon="0.57419">
        <ele>165.2</ele>
        <time>2025-06-15T08:40:02Z</time>
      </trkpt>
      <trkpt lat="45.13107" lon="0.57424">
        <ele>165</ele>
        <time>2025-06-15T08:40:03Z</time>
      </trkpt>
      <trkpt lat="45.13108" lon="0.57428">
        <ele>165</ele>
        <time>2025-06-15T08:40:04Z</time>
      </trkpt>
      <trkpt lat="45.13109" lon="0.57434">
        <ele>165</ele>
        <time>2025-06-15T08:40:05Z</time>
      </trkpt>
      <trkpt lat="45.1311" lon="0.57439">
        <ele>164.8</ele>
        <time>2025-06-15T08:40:06Z</time>
      </trkpt>
      <trkpt lat="45.13111" lon="0.57446">
        <ele>164.8</ele>
        <time>2025-06-15T08:40:07Z</time>
      </trkpt>
      <trkpt lat="45.13111" lon="0.57453">
        <ele>164.8</ele>
        <time>2025-06-15T08:40:08Z</time>
      </trkpt>
      <trkpt lat="45.13112" lon="0.5746">
        <ele>164.8</ele>
        <time>2025-06-15T08:40:09Z</time>
      </trkpt>
      <trkpt lat="45.13112" lon="0.57467">
        <ele>164.8</ele>
        <time>2025-06-15T08:40:10Z</time>
      </trkpt>
      <trkpt lat="45.13112" lon="0.57473">
        <ele>164.6</ele>
        <time>2025-06-15T08:40:11Z</time>
      </trkpt>
      <trkpt lat="45.13112" lon="0.57477">
        <ele>164.6</ele>
        <time>2025-06-15T08:40:12Z</time>
      </trkpt>
      <trkpt lat="45.13113" lon="0.5748">
        <ele>164.4</ele>
        <time>2025-06-15T08:40:13Z</time>
      </trkpt>
      <trkpt lat="45.13113" lon="0.57483">
        <ele>164.4</ele>
        <time>2025-06-15T08:40:14Z</time>
      </trkpt>
      <trkpt lat="45.13115" lon="0.57486">
        <ele>164.2</ele>
        <time>2025-06-15T08:40:15Z</time>
      </trkpt>
      <trkpt lat="45.13116" lon="0.57489">
        <ele>164.2</ele>
        <time>2025-06-15T08:40:16Z</time>
      </trkpt>
      <trkpt lat="45.13117" lon="0.57493">
        <ele>164.2</ele>
        <time>2025-06-15T08:40:17Z</time>
      </trkpt>
      <trkpt lat="45.13117" lon="0.57498">
        <ele>164</ele>
        <time>2025-06-15T08:40:18Z</time>
      </trkpt>
      <trkpt lat="45.13117" lon="0.57504">
        <ele>164</ele>
        <time>2025-06-15T08:40:19Z</time>
      </trkpt>
      <trkpt lat="45.13117" lon="0.57511">
        <ele>163.8</ele>
        <time>2025-06-15T08:40:20Z</time>
      </trkpt>
      <trkpt lat="45.13117" lon="0.57517">
        <ele>164</ele>
        <time>2025-06-15T08:40:21Z</time>
      </trkpt>
      <trkpt lat="45.13117" lon="0.57523">
        <ele>163.8</ele>
        <time>2025-06-15T08:40:22Z</time>
      </trkpt>
      <trkpt lat="45.13117" lon="0.57529">
        <ele>163.8</ele>
        <time>2025-06-15T08:40:23Z</time>
      </trkpt>
      <trkpt lat="45.13117" lon="0.57534">
        <ele>163.8</ele>
        <time>2025-06-15T08:40:24Z</time>
      </trkpt>
      <trkpt lat="45.13118" lon="0.57539">
        <ele>163.8</ele>
        <time>2025-06-15T08:40:25Z</time>
      </trkpt>
      <trkpt lat="45.13118" lon="0.57544">
        <ele>163.8</ele>
        <time>2025-06-15T08:40:26Z</time>
      </trkpt>
      <trkpt lat="45.13119" lon="0.57548">
        <ele>163.8</ele>
        <time>2025-06-15T08:40:27Z</time>
      </trkpt>
      <trkpt lat="45.13119" lon="0.57553">
        <ele>163.8</ele>
        <time>2025-06-15T08:40:28Z</time>
      </trkpt>
      <trkpt lat="45.13119" lon="0.57558">
        <ele>163.8</ele>
        <time>2025-06-15T08:40:29Z</time>
      </trkpt>
      <trkpt lat="45.13119" lon="0.57562">
        <ele>163.8</ele>
        <time>2025-06-15T08:40:30Z</time>
      </trkpt>
      <trkpt lat="45.13119" lon="0.57567">
        <ele>163.8</ele>
        <time>2025-06-15T08:40:31Z</time>
      </trkpt>
      <trkpt lat="45.1312" lon="0.57571">
        <ele>163.8</ele>
        <time>2025-06-15T08:40:32Z</time>
      </trkpt>
      <trkpt lat="45.1312" lon="0.57575">
        <ele>163.8</ele>
        <time>2025-06-15T08:40:33Z</time>
      </trkpt>
      <trkpt lat="45.13119" lon="0.5758">
        <ele>163.8</ele>
        <time>2025-06-15T08:40:34Z</time>
      </trkpt>
      <trkpt lat="45.13119" lon="0.57584">
        <ele>163.8</ele>
        <time>2025-06-15T08:40:35Z</time>
      </trkpt>
      <trkpt lat="45.13119" lon="0.57588">
        <ele>163.8</ele>
        <time>2025-06-15T08:40:36Z</time>
      </trkpt>
      <trkpt lat="45.13118" lon="0.57592">
        <ele>164</ele>
        <time>2025-06-15T08:40:37Z</time>
      </trkpt>
      <trkpt lat="45.13118" lon="0.57595">
        <ele>164</ele>
        <time>2025-06-15T08:40:38Z</time>
      </trkpt>
      <trkpt lat="45.13118" lon="0.57599">
        <ele>164</ele>
        <time>2025-06-15T08:40:39Z</time>
      </trkpt>
      <trkpt lat="45.13118" lon="0.57604">
        <ele>164</ele>
        <time>2025-06-15T08:40:40Z</time>
      </trkpt>
      <trkpt lat="45.13117" lon="0.57608">
        <ele>164</ele>
        <time>2025-06-15T08:40:41Z</time>
      </trkpt>
      <trkpt lat="45.13117" lon="0.57613">
        <ele>164</ele>
        <time>2025-06-15T08:40:42Z</time>
      </trkpt>
      <trkpt lat="45.13117" lon="0.57617">
        <ele>164</ele>
        <time>2025-06-15T08:40:43Z</time>
      </trkpt>
      <trkpt lat="45.13116" lon="0.57621">
        <ele>164</ele>
        <time>2025-06-15T08:40:44Z</time>
      </trkpt>
      <trkpt lat="45.13116" lon="0.57625">
        <ele>164</ele>
        <time>2025-06-15T08:40:45Z</time>
      </trkpt>
      <trkpt lat="45.13116" lon="0.5763">
        <ele>164</ele>
        <time>2025-06-15T08:40:46Z</time>
      </trkpt>
      <trkpt lat="45.13115" lon="0.57634">
        <ele>163.8</ele>
        <time>2025-06-15T08:40:47Z</time>
      </trkpt>
      <trkpt lat="45.13115" lon="0.57638">
        <ele>163.8</ele>
        <time>2025-06-15T08:40:48Z</time>
      </trkpt>
      <trkpt lat="45.13115" lon="0.57641">
        <ele>163.8</ele>
        <time>2025-06-15T08:40:49Z</time>
      </trkpt>
      <trkpt lat="45.13114" lon="0.57643">
        <ele>163.8</ele>
        <time>2025-06-15T08:40:50Z</time>
      </trkpt>
      <trkpt lat="45.13114" lon="0.57646">
        <ele>163.8</ele>
        <time>2025-06-15T08:40:51Z</time>
      </trkpt>
      <trkpt lat="45.13114" lon="0.57648">
        <ele>163.8</ele>
        <time>2025-06-15T08:40:52Z</time>
      </trkpt>
      <trkpt lat="45.13113" lon="0.57651">
        <ele>163.8</ele>
        <time>2025-06-15T08:40:53Z</time>
      </trkpt>
      <trkpt lat="45.13113" lon="0.57654">
        <ele>163.8</ele>
        <time>2025-06-15T08:40:54Z</time>
      </trkpt>
      <trkpt lat="45.13113" lon="0.57658">
        <ele>163.8</ele>
        <time>2025-06-15T08:40:55Z</time>
      </trkpt>
      <trkpt lat="45.13114" lon="0.57662">
        <ele>163.8</ele>
        <time>2025-06-15T08:40:56Z</time>
      </trkpt>
      <trkpt lat="45.13114" lon="0.57666">
        <ele>163.8</ele>
        <time>2025-06-15T08:40:57Z</time>
      </trkpt>
      <trkpt lat="45.13114" lon="0.57671">
        <ele>163.8</ele>
        <time>2025-06-15T08:40:58Z</time>
      </trkpt>
      <trkpt lat="45.13113" lon="0.57676">
        <ele>163.8</ele>
        <time>2025-06-15T08:40:59Z</time>
      </trkpt>
      <trkpt lat="45.13112" lon="0.57681">
        <ele>163.8</ele>
        <time>2025-06-15T08:41:00Z</time>
      </trkpt>
      <trkpt lat="45.13111" lon="0.57687">
        <ele>163.8</ele>
        <time>2025-06-15T08:41:01Z</time>
      </trkpt>
      <trkpt lat="45.13109" lon="0.57693">
        <ele>163.8</ele>
        <time>2025-06-15T08:41:02Z</time>
      </trkpt>
      <trkpt lat="45.13108" lon="0.57699">
        <ele>164</ele>
        <time>2025-06-15T08:41:03Z</time>
      </trkpt>
      <trkpt lat="45.13108" lon="0.57706">
        <ele>163.8</ele>
        <time>2025-06-15T08:41:04Z</time>
      </trkpt>
      <trkpt lat="45.13111" lon="0.57713">
        <ele>163.8</ele>
        <time>2025-06-15T08:41:05Z</time>
      </trkpt>
      <trkpt lat="45.13114" lon="0.5772">
        <ele>163.6</ele>
        <time>2025-06-15T08:41:06Z</time>
      </trkpt>
      <trkpt lat="45.13118" lon="0.57726">
        <ele>163.6</ele>
        <time>2025-06-15T08:41:07Z</time>
      </trkpt>
      <trkpt lat="45.13122" lon="0.57732">
        <ele>163.6</ele>
        <time>2025-06-15T08:41:08Z</time>
      </trkpt>
      <trkpt lat="45.13128" lon="0.57738">
        <ele>163.4</ele>
        <time>2025-06-15T08:41:09Z</time>
      </trkpt>
      <trkpt lat="45.13134" lon="0.57743">
        <ele>163.4</ele>
        <time>2025-06-15T08:41:10Z</time>
      </trkpt>
      <trkpt lat="45.13141" lon="0.57749">
        <ele>163.4</ele>
        <time>2025-06-15T08:41:11Z</time>
      </trkpt>
      <trkpt lat="45.13146" lon="0.57754">
        <ele>163.2</ele>
        <time>2025-06-15T08:41:12Z</time>
      </trkpt>
      <trkpt lat="45.1315" lon="0.57758">
        <ele>163</ele>
        <time>2025-06-15T08:41:13Z</time>
      </trkpt>
      <trkpt lat="45.13153" lon="0.57762">
        <ele>163</ele>
        <time>2025-06-15T08:41:14Z</time>
      </trkpt>
      <trkpt lat="45.13155" lon="0.57766">
        <ele>162.6</ele>
        <time>2025-06-15T08:41:15Z</time>
      </trkpt>
      <trkpt lat="45.13157" lon="0.5777">
        <ele>162.4</ele>
        <time>2025-06-15T08:41:16Z</time>
      </trkpt>
      <trkpt lat="45.1316" lon="0.57773">
        <ele>162.2</ele>
        <time>2025-06-15T08:41:17Z</time>
      </trkpt>
      <trkpt lat="45.13162" lon="0.57778">
        <ele>162</ele>
        <time>2025-06-15T08:41:18Z</time>
      </trkpt>
      <trkpt lat="45.13165" lon="0.57782">
        <ele>161.8</ele>
        <time>2025-06-15T08:41:19Z</time>
      </trkpt>
      <trkpt lat="45.13167" lon="0.57786">
        <ele>161.8</ele>
        <time>2025-06-15T08:41:20Z</time>
      </trkpt>
      <trkpt lat="45.1317" lon="0.57791">
        <ele>161.6</ele>
        <time>2025-06-15T08:41:21Z</time>
      </trkpt>
      <trkpt lat="45.13173" lon="0.57795">
        <ele>161.2</ele>
        <time>2025-06-15T08:41:22Z</time>
      </trkpt>
      <trkpt lat="45.13176" lon="0.578">
        <ele>160.8</ele>
        <time>2025-06-15T08:41:23Z</time>
      </trkpt>
      <trkpt lat="45.13178" lon="0.57805">
        <ele>160.4</ele>
        <time>2025-06-15T08:41:24Z</time>
      </trkpt>
      <trkpt lat="45.13181" lon="0.5781">
        <ele>159.4</ele>
        <time>2025-06-15T08:41:25Z</time>
      </trkpt>
      <trkpt lat="45.13185" lon="0.57816">
        <ele>158.8</ele>
        <time>2025-06-15T08:41:26Z</time>
      </trkpt>
      <trkpt lat="45.13188" lon="0.57821">
        <ele>158</ele>
        <time>2025-06-15T08:41:27Z</time>
      </trkpt>
      <trkpt lat="45.13191" lon="0.57827">
        <ele>157</ele>
        <time>2025-06-15T08:41:28Z</time>
      </trkpt>
      <trkpt lat="45.13194" lon="0.57832">
        <ele>156.4</ele>
        <time>2025-06-15T08:41:29Z</time>
      </trkpt>
      <trkpt lat="45.13197" lon="0.57838">
        <ele>155.8</ele>
        <time>2025-06-15T08:41:30Z</time>
      </trkpt>
      <trkpt lat="45.132" lon="0.57843">
        <ele>155.2</ele>
        <time>2025-06-15T08:41:31Z</time>
      </trkpt>
      <trkpt lat="45.13203" lon="0.57848">
        <ele>154</ele>
        <time>2025-06-15T08:41:32Z</time>
      </trkpt>
      <trkpt lat="45.13207" lon="0.57854">
        <ele>152.4</ele>
        <time>2025-06-15T08:41:33Z</time>
      </trkpt>
      <trkpt lat="45.1321" lon="0.57859">
        <ele>150.8</ele>
        <time>2025-06-15T08:41:34Z</time>
      </trkpt>
      <trkpt lat="45.13214" lon="0.57865">
        <ele>150</ele>
        <time>2025-06-15T08:41:35Z</time>
      </trkpt>
      <trkpt lat="45.13217" lon="0.57871">
        <ele>149</ele>
        <time>2025-06-15T08:41:36Z</time>
      </trkpt>
      <trkpt lat="45.13221" lon="0.57876">
        <ele>148.2</ele>
        <time>2025-06-15T08:41:37Z</time>
      </trkpt>
      <trkpt lat="45.13224" lon="0.57883">
        <ele>147.2</ele>
        <time>2025-06-15T08:41:38Z</time>
      </trkpt>
      <trkpt lat="45.13228" lon="0.57889">
        <ele>145.6</ele>
        <time>2025-06-15T08:41:39Z</time>
      </trkpt>
      <trkpt lat="45.13232" lon="0.57895">
        <ele>145</ele>
        <time>2025-06-15T08:41:40Z</time>
      </trkpt>
      <trkpt lat="45.13236" lon="0.57902">
        <ele>144.2</ele>
        <time>2025-06-15T08:41:41Z</time>
      </trkpt>
      <trkpt lat="45.1324" lon="0.57908">
        <ele>143.4</ele>
        <time>2025-06-15T08:41:42Z</time>
      </trkpt>
      <trkpt lat="45.13244" lon="0.57913">
        <ele>142.8</ele>
        <time>2025-06-15T08:41:43Z</time>
      </trkpt>
      <trkpt lat="45.13247" lon="0.57919">
        <ele>142.2</ele>
        <time>2025-06-15T08:41:44Z</time>
      </trkpt>
      <trkpt lat="45.1325" lon="0.57925">
        <ele>140.6</ele>
        <time>2025-06-15T08:41:45Z</time>
      </trkpt>
      <trkpt lat="45.13255" lon="0.57931">
        <ele>139.4</ele>
        <time>2025-06-15T08:41:46Z</time>
      </trkpt>
      <trkpt lat="45.13258" lon="0.57938">
        <ele>138</ele>
        <time>2025-06-15T08:41:47Z</time>
      </trkpt>
      <trkpt lat="45.13263" lon="0.57946">
        <ele>136.8</ele>
        <time>2025-06-15T08:41:48Z</time>
      </trkpt>
      <trkpt lat="45.13269" lon="0.57954">
        <ele>135.8</ele>
        <time>2025-06-15T08:41:49Z</time>
      </trkpt>
      <trkpt lat="45.13274" lon="0.57962">
        <ele>134.4</ele>
        <time>2025-06-15T08:41:50Z</time>
      </trkpt>
      <trkpt lat="45.13279" lon="0.57971">
        <ele>134</ele>
        <time>2025-06-15T08:41:51Z</time>
      </trkpt>
      <trkpt lat="45.13284" lon="0.5798">
        <ele>133</ele>
        <time>2025-06-15T08:41:52Z</time>
      </trkpt>
      <trkpt lat="45.1329" lon="0.57988">
        <ele>132</ele>
        <time>2025-06-15T08:41:53Z</time>
      </trkpt>
      <trkpt lat="45.13295" lon="0.57996">
        <ele>131</ele>
        <time>2025-06-15T08:41:54Z</time>
      </trkpt>
      <trkpt lat="45.13302" lon="0.58004">
        <ele>130</ele>
        <time>2025-06-15T08:41:55Z</time>
      </trkpt>
      <trkpt lat="45.13308" lon="0.58011">
        <ele>128.6</ele>
        <time>2025-06-15T08:41:56Z</time>
      </trkpt>
      <trkpt lat="45.13313" lon="0.58018">
        <ele>127.2</ele>
        <time>2025-06-15T08:41:57Z</time>
      </trkpt>
      <trkpt lat="45.13319" lon="0.58024">
        <ele>126.2</ele>
        <time>2025-06-15T08:41:58Z</time>
      </trkpt>
      <trkpt lat="45.13324" lon="0.58029">
        <ele>125.4</ele>
        <time>2025-06-15T08:41:59Z</time>
      </trkpt>
      <trkpt lat="45.13328" lon="0.58034">
        <ele>125</ele>
        <time>2025-06-15T08:42:00Z</time>
      </trkpt>
      <trkpt lat="45.1333" lon="0.58041">
        <ele>124.6</ele>
        <time>2025-06-15T08:42:01Z</time>
      </trkpt>
      <trkpt lat="45.13332" lon="0.58049">
        <ele>124.4</ele>
        <time>2025-06-15T08:42:02Z</time>
      </trkpt>
      <trkpt lat="45.13333" lon="0.58058">
        <ele>124</ele>
        <time>2025-06-15T08:42:03Z</time>
      </trkpt>
      <trkpt lat="45.13332" lon="0.58067">
        <ele>123.6</ele>
        <time>2025-06-15T08:42:04Z</time>
      </trkpt>
      <trkpt lat="45.13331" lon="0.58076">
        <ele>123.4</ele>
        <time>2025-06-15T08:42:05Z</time>
      </trkpt>
      <trkpt lat="45.13331" lon="0.58085">
        <ele>123.2</ele>
        <time>2025-06-15T08:42:06Z</time>
      </trkpt>
      <trkpt lat="45.13331" lon="0.58094">
        <ele>123</ele>
        <time>2025-06-15T08:42:07Z</time>
      </trkpt>
      <trkpt lat="45.13333" lon="0.58102">
        <ele>123</ele>
        <time>2025-06-15T08:42:08Z</time>
      </trkpt>
      <trkpt lat="45.13333" lon="0.58109">
        <ele>123</ele>
        <time>2025-06-15T08:42:09Z</time>
      </trkpt>
      <trkpt lat="45.13334" lon="0.58114">
        <ele>123</ele>
        <time>2025-06-15T08:42:10Z</time>
      </trkpt>
      <trkpt lat="45.13335" lon="0.58117">
        <ele>122.8</ele>
        <time>2025-06-15T08:42:11Z</time>
      </trkpt>
      <trkpt lat="45.13336" lon="0.58121">
        <ele>122.8</ele>
        <time>2025-06-15T08:42:12Z</time>
      </trkpt>
      <trkpt lat="45.13337" lon="0.58123">
        <ele>122.8</ele>
        <time>2025-06-15T08:42:13Z</time>
      </trkpt>
      <trkpt lat="45.13337" lon="0.58125">
        <ele>122.8</ele>
        <time>2025-06-15T08:42:14Z</time>
      </trkpt>
      <trkpt lat="45.13338" lon="0.58127">
        <ele>122.8</ele>
        <time>2025-06-15T08:42:15Z</time>
      </trkpt>
      <trkpt lat="45.13338" lon="0.58129">
        <ele>122.6</ele>
        <time>2025-06-15T08:42:16Z</time>
      </trkpt>
      <trkpt lat="45.13339" lon="0.58132">
        <ele>122.6</ele>
        <time>2025-06-15T08:42:17Z</time>
      </trkpt>
      <trkpt lat="45.1334" lon="0.58134">
        <ele>122.6</ele>
        <time>2025-06-15T08:42:18Z</time>
      </trkpt>
      <trkpt lat="45.1334" lon="0.58137">
        <ele>122.4</ele>
        <time>2025-06-15T08:42:19Z</time>
      </trkpt>
      <trkpt lat="45.13341" lon="0.58139">
        <ele>122.4</ele>
        <time>2025-06-15T08:42:20Z</time>
      </trkpt>
      <trkpt lat="45.13342" lon="0.58141">
        <ele>122.4</ele>
        <time>2025-06-15T08:42:21Z</time>
      </trkpt>
      <trkpt lat="45.13342" lon="0.58143">
        <ele>122.4</ele>
        <time>2025-06-15T08:42:22Z</time>
      </trkpt>
      <trkpt lat="45.13342" lon="0.58145">
        <ele>122.4</ele>
        <time>2025-06-15T08:42:23Z</time>
      </trkpt>
      <trkpt lat="45.13343" lon="0.58147">
        <ele>122.4</ele>
        <time>2025-06-15T08:42:24Z</time>
      </trkpt>
      <trkpt lat="45.13343" lon="0.5815">
        <ele>122.4</ele>
        <time>2025-06-15T08:42:25Z</time>
      </trkpt>
      <trkpt lat="45.13344" lon="0.58151">
        <ele>122.4</ele>
        <time>2025-06-15T08:42:26Z</time>
      </trkpt>
      <trkpt lat="45.13344" lon="0.58154">
        <ele>122.4</ele>
        <time>2025-06-15T08:42:27Z</time>
      </trkpt>
      <trkpt lat="45.13345" lon="0.58155">
        <ele>122.4</ele>
        <time>2025-06-15T08:42:28Z</time>
      </trkpt>
      <trkpt lat="45.13345" lon="0.58157">
        <ele>122.4</ele>
        <time>2025-06-15T08:42:29Z</time>
      </trkpt>
      <trkpt lat="45.13346" lon="0.58159">
        <ele>122.4</ele>
        <time>2025-06-15T08:42:30Z</time>
      </trkpt>
      <trkpt lat="45.13347" lon="0.58161">
        <ele>122.2</ele>
        <time>2025-06-15T08:42:31Z</time>
      </trkpt>
      <trkpt lat="45.13347" lon="0.58163">
        <ele>122.2</ele>
        <time>2025-06-15T08:42:32Z</time>
      </trkpt>
      <trkpt lat="45.13348" lon="0.58166">
        <ele>122.2</ele>
        <time>2025-06-15T08:42:33Z</time>
      </trkpt>
      <trkpt lat="45.13349" lon="0.58168">
        <ele>122.2</ele>
        <time>2025-06-15T08:42:34Z</time>
      </trkpt>
      <trkpt lat="45.1335" lon="0.5817">
        <ele>122.2</ele>
        <time>2025-06-15T08:42:35Z</time>
      </trkpt>
      <trkpt lat="45.13351" lon="0.58171">
        <ele>122</ele>
        <time>2025-06-15T08:42:36Z</time>
      </trkpt>
      <trkpt lat="45.13351" lon="0.58173">
        <ele>122</ele>
        <time>2025-06-15T08:42:37Z</time>
      </trkpt>
      <trkpt lat="45.13352" lon="0.58174">
        <ele>122</ele>
        <time>2025-06-15T08:42:38Z</time>
      </trkpt>
      <trkpt lat="45.13352" lon="0.58176">
        <ele>122</ele>
        <time>2025-06-15T08:42:39Z</time>
      </trkpt>
      <trkpt lat="45.13352" lon="0.58179">
        <ele>122</ele>
        <time>2025-06-15T08:42:40Z</time>
      </trkpt>
      <trkpt lat="45.13353" lon="0.5818">
        <ele>122</ele>
        <time>2025-06-15T08:42:41Z</time>
      </trkpt>
      <trkpt lat="45.13353" lon="0.58182">
        <ele>121.8</ele>
        <time>2025-06-15T08:42:42Z</time>
      </trkpt>
      <trkpt lat="45.13354" lon="0.58184">
        <ele>122</ele>
        <time>2025-06-15T08:42:43Z</time>
      </trkpt>
      <trkpt lat="45.13354" lon="0.58185">
        <ele>121.8</ele>
        <time>2025-06-15T08:42:44Z</time>
      </trkpt>
      <trkpt lat="45.13355" lon="0.58187">
        <ele>121.8</ele>
        <time>2025-06-15T08:42:45Z</time>
      </trkpt>
      <trkpt lat="45.13356" lon="0.58189">
        <ele>121.8</ele>
        <time>2025-06-15T08:42:46Z</time>
      </trkpt>
      <trkpt lat="45.13356" lon="0.58191">
        <ele>121.8</ele>
        <time>2025-06-15T08:42:47Z</time>
      </trkpt>
      <trkpt lat="45.13357" lon="0.58192">
        <ele>121.8</ele>
        <time>2025-06-15T08:42:48Z</time>
      </trkpt>
      <trkpt lat="45.13357" lon="0.58194">
        <ele>121.6</ele>
        <time>2025-06-15T08:42:49Z</time>
      </trkpt>
      <trkpt lat="45.13358" lon="0.58196">
        <ele>121.6</ele>
        <time>2025-06-15T08:42:50Z</time>
      </trkpt>
      <trkpt lat="45.13358" lon="0.58198">
        <ele>121.6</ele>
        <time>2025-06-15T08:42:51Z</time>
      </trkpt>
      <trkpt lat="45.13358" lon="0.582">
        <ele>121.6</ele>
        <time>2025-06-15T08:42:52Z</time>
      </trkpt>
      <trkpt lat="45.13358" lon="0.58202">
        <ele>121.6</ele>
        <time>2025-06-15T08:42:53Z</time>
      </trkpt>
      <trkpt lat="45.13358" lon="0.58204">
        <ele>121.6</ele>
        <time>2025-06-15T08:42:54Z</time>
      </trkpt>
      <trkpt lat="45.13359" lon="0.58206">
        <ele>121.6</ele>
        <time>2025-06-15T08:42:55Z</time>
      </trkpt>
      <trkpt lat="45.1336" lon="0.58208">
        <ele>121.6</ele>
        <time>2025-06-15T08:42:56Z</time>
      </trkpt>
      <trkpt lat="45.1336" lon="0.5821">
        <ele>121.6</ele>
        <time>2025-06-15T08:42:57Z</time>
      </trkpt>
      <trkpt lat="45.1336" lon="0.58212">
        <ele>121.6</ele>
        <time>2025-06-15T08:42:58Z</time>
      </trkpt>
      <trkpt lat="45.13361" lon="0.58213">
        <ele>121.6</ele>
        <time>2025-06-15T08:42:59Z</time>
      </trkpt>
      <trkpt lat="45.13361" lon="0.58216">
        <ele>121.4</ele>
        <time>2025-06-15T08:43:00Z</time>
      </trkpt>
      <trkpt lat="45.13362" lon="0.58218">
        <ele>121.4</ele>
        <time>2025-06-15T08:43:01Z</time>
      </trkpt>
      <trkpt lat="45.13363" lon="0.5822">
        <ele>121.4</ele>
        <time>2025-06-15T08:43:02Z</time>
      </trkpt>
      <trkpt lat="45.13363" lon="0.58222">
        <ele>121.4</ele>
        <time>2025-06-15T08:43:03Z</time>
      </trkpt>
      <trkpt lat="45.13364" lon="0.58224">
        <ele>121.4</ele>
        <time>2025-06-15T08:43:04Z</time>
      </trkpt>
      <trkpt lat="45.13364" lon="0.58226">
        <ele>121.4</ele>
        <time>2025-06-15T08:43:05Z</time>
      </trkpt>
      <trkpt lat="45.13364" lon="0.58228">
        <ele>121.2</ele>
        <time>2025-06-15T08:43:06Z</time>
      </trkpt>
      <trkpt lat="45.13364" lon="0.5823">
        <ele>121.2</ele>
        <time>2025-06-15T08:43:07Z</time>
      </trkpt>
      <trkpt lat="45.13365" lon="0.58232">
        <ele>121.2</ele>
        <time>2025-06-15T08:43:08Z</time>
      </trkpt>
      <trkpt lat="45.13365" lon="0.58235">
        <ele>121.2</ele>
        <time>2025-06-15T08:43:09Z</time>
      </trkpt>
      <trkpt lat="45.13365" lon="0.58237">
        <ele>121.2</ele>
        <time>2025-06-15T08:43:10Z</time>
      </trkpt>
      <trkpt lat="45.13366" lon="0.58239">
        <ele>121.2</ele>
        <time>2025-06-15T08:43:11Z</time>
      </trkpt>
      <trkpt lat="45.13366" lon="0.5824">
        <ele>121.2</ele>
        <time>2025-06-15T08:43:12Z</time>
      </trkpt>
      <trkpt lat="45.13367" lon="0.58242">
        <ele>121.2</ele>
        <time>2025-06-15T08:43:13Z</time>
      </trkpt>
      <trkpt lat="45.13367" lon="0.58244">
        <ele>121.2</ele>
        <time>2025-06-15T08:43:14Z</time>
      </trkpt>
      <trkpt lat="45.13367" lon="0.58246">
        <ele>121.2</ele>
        <time>2025-06-15T08:43:15Z</time>
      </trkpt>
      <trkpt lat="45.13367" lon="0.58248">
        <ele>121</ele>
        <time>2025-06-15T08:43:16Z</time>
      </trkpt>
      <trkpt lat="45.13368" lon="0.5825">
        <ele>120.8</ele>
        <time>2025-06-15T08:43:17Z</time>
      </trkpt>
      <trkpt lat="45.13368" lon="0.58252">
        <ele>120.8</ele>
        <time>2025-06-15T08:43:18Z</time>
      </trkpt>
      <trkpt lat="45.13368" lon="0.58253">
        <ele>120.6</ele>
        <time>2025-06-15T08:43:19Z</time>
      </trkpt>
      <trkpt lat="45.13368" lon="0.58255">
        <ele>120.6</ele>
        <time>2025-06-15T08:43:20Z</time>
      </trkpt>
      <trkpt lat="45.13368" lon="0.58257">
        <ele>120.4</ele>
        <time>2025-06-15T08:43:21Z</time>
      </trkpt>
      <trkpt lat="45.13368" lon="0.58259">
        <ele>120.4</ele>
        <time>2025-06-15T08:43:22Z</time>
      </trkpt>
      <trkpt lat="45.13368" lon="0.58262">
        <ele>120.4</ele>
        <time>2025-06-15T08:43:23Z</time>
      </trkpt>
      <trkpt lat="45.13369" lon="0.58264">
        <ele>120.4</ele>
        <time>2025-06-15T08:43:24Z</time>
      </trkpt>
      <trkpt lat="45.1337" lon="0.58265">
        <ele>120.4</ele>
        <time>2025-06-15T08:43:25Z</time>
      </trkpt>
      <trkpt lat="45.1337" lon="0.58266">
        <ele>120.4</ele>
        <time>2025-06-15T08:43:26Z</time>
      </trkpt>
      <trkpt lat="45.13371" lon="0.58268">
        <ele>120.4</ele>
        <time>2025-06-15T08:43:27Z</time>
      </trkpt>
      <trkpt lat="45.13371" lon="0.5827">
        <ele>120.4</ele>
        <time>2025-06-15T08:43:28Z</time>
      </trkpt>
      <trkpt lat="45.13371" lon="0.58272">
        <ele>120.4</ele>
        <time>2025-06-15T08:43:29Z</time>
      </trkpt>
      <trkpt lat="45.13372" lon="0.58274">
        <ele>120.4</ele>
        <time>2025-06-15T08:43:30Z</time>
      </trkpt>
      <trkpt lat="45.13373" lon="0.58276">
        <ele>120.4</ele>
        <time>2025-06-15T08:43:31Z</time>
      </trkpt>
      <trkpt lat="45.13373" lon="0.58278">
        <ele>120.4</ele>
        <time>2025-06-15T08:43:32Z</time>
      </trkpt>
      <trkpt lat="45.13373" lon="0.5828">
        <ele>120.4</ele>
        <time>2025-06-15T08:43:33Z</time>
      </trkpt>
      <trkpt lat="45.13374" lon="0.58282">
        <ele>120.4</ele>
        <time>2025-06-15T08:43:34Z</time>
      </trkpt>
      <trkpt lat="45.13374" lon="0.58284">
        <ele>120.4</ele>
        <time>2025-06-15T08:43:35Z</time>
      </trkpt>
      <trkpt lat="45.13374" lon="0.58286">
        <ele>120.4</ele>
        <time>2025-06-15T08:43:36Z</time>
      </trkpt>
      <trkpt lat="45.13375" lon="0.58288">
        <ele>120.4</ele>
        <time>2025-06-15T08:43:37Z</time>
      </trkpt>
      <trkpt lat="45.13375" lon="0.5829">
        <ele>120.4</ele>
        <time>2025-06-15T08:43:38Z</time>
      </trkpt>
      <trkpt lat="45.13376" lon="0.58292">
        <ele>120.4</ele>
        <time>2025-06-15T08:43:39Z</time>
      </trkpt>
      <trkpt lat="45.13376" lon="0.58294">
        <ele>120.4</ele>
        <time>2025-06-15T08:43:40Z</time>
      </trkpt>
      <trkpt lat="45.13377" lon="0.58296">
        <ele>120.4</ele>
        <time>2025-06-15T08:43:41Z</time>
      </trkpt>
      <trkpt lat="45.13377" lon="0.58298">
        <ele>120.4</ele>
        <time>2025-06-15T08:43:42Z</time>
      </trkpt>
      <trkpt lat="45.13377" lon="0.583">
        <ele>120.6</ele>
        <time>2025-06-15T08:43:43Z</time>
      </trkpt>
      <trkpt lat="45.13377" lon="0.58302">
        <ele>120.6</ele>
        <time>2025-06-15T08:43:44Z</time>
      </trkpt>
      <trkpt lat="45.13378" lon="0.58304">
        <ele>120.6</ele>
        <time>2025-06-15T08:43:45Z</time>
      </trkpt>
      <trkpt lat="45.13378" lon="0.58306">
        <ele>120.6</ele>
        <time>2025-06-15T08:43:46Z</time>
      </trkpt>
      <trkpt lat="45.13379" lon="0.58308">
        <ele>120.6</ele>
        <time>2025-06-15T08:43:47Z</time>
      </trkpt>
      <trkpt lat="45.13379" lon="0.5831">
        <ele>120.6</ele>
        <time>2025-06-15T08:43:48Z</time>
      </trkpt>
      <trkpt lat="45.1338" lon="0.58312">
        <ele>120.6</ele>
        <time>2025-06-15T08:43:49Z</time>
      </trkpt>
      <trkpt lat="45.1338" lon="0.58314">
        <ele>120.4</ele>
        <time>2025-06-15T08:43:50Z</time>
      </trkpt>
      <trkpt lat="45.13381" lon="0.58316">
        <ele>120.4</ele>
        <time>2025-06-15T08:43:51Z</time>
      </trkpt>
      <trkpt lat="45.13382" lon="0.58317">
        <ele>120.4</ele>
        <time>2025-06-15T08:43:52Z</time>
      </trkpt>
      <trkpt lat="45.13382" lon="0.58319">
        <ele>120.4</ele>
        <time>2025-06-15T08:43:53Z</time>
      </trkpt>
      <trkpt lat="45.13383" lon="0.58321">
        <ele>120.4</ele>
        <time>2025-06-15T08:43:54Z</time>
      </trkpt>
      <trkpt lat="45.13383" lon="0.58323">
        <ele>120.4</ele>
        <time>2025-06-15T08:43:55Z</time>
      </trkpt>
      <trkpt lat="45.13384" lon="0.58324">
        <ele>120.4</ele>
        <time>2025-06-15T08:43:56Z</time>
      </trkpt>
      <trkpt lat="45.13384" lon="0.58326">
        <ele>120.4</ele>
        <time>2025-06-15T08:43:57Z</time>
      </trkpt>
      <trkpt lat="45.13384" lon="0.58328">
        <ele>120.4</ele>
        <time>2025-06-15T08:43:58Z</time>
      </trkpt>
      <trkpt lat="45.13385" lon="0.5833">
        <ele>120.4</ele>
        <time>2025-06-15T08:43:59Z</time>
      </trkpt>
      <trkpt lat="45.13385" lon="0.58331">
        <ele>120.4</ele>
        <time>2025-06-15T08:44:00Z</time>
      </trkpt>
      <trkpt lat="45.13385" lon="0.58333">
        <ele>120.4</ele>
        <time>2025-06-15T08:44:01Z</time>
      </trkpt>
      <trkpt lat="45.13386" lon="0.58335">
        <ele>120.4</ele>
        <time>2025-06-15T08:44:02Z</time>
      </trkpt>
      <trkpt lat="45.13386" lon="0.58337">
        <ele>120.4</ele>
        <time>2025-06-15T08:44:03Z</time>
      </trkpt>
      <trkpt lat="45.13387" lon="0.58339">
        <ele>120.2</ele>
        <time>2025-06-15T08:44:04Z</time>
      </trkpt>
      <trkpt lat="45.13387" lon="0.5834">
        <ele>120.2</ele>
        <time>2025-06-15T08:44:05Z</time>
      </trkpt>
      <trkpt lat="45.13387" lon="0.58342">
        <ele>120.4</ele>
        <time>2025-06-15T08:44:06Z</time>
      </trkpt>
      <trkpt lat="45.13387" lon="0.58344">
        <ele>120.4</ele>
        <time>2025-06-15T08:44:07Z</time>
      </trkpt>
      <trkpt lat="45.13388" lon="0.58346">
        <ele>120.4</ele>
        <time>2025-06-15T08:44:08Z</time>
      </trkpt>
      <trkpt lat="45.13388" lon="0.58348">
        <ele>120.4</ele>
        <time>2025-06-15T08:44:09Z</time>
      </trkpt>
      <trkpt lat="45.13388" lon="0.5835">
        <ele>120.4</ele>
        <time>2025-06-15T08:44:10Z</time>
      </trkpt>
      <trkpt lat="45.13389" lon="0.58352">
        <ele>120.4</ele>
        <time>2025-06-15T08:44:11Z</time>
      </trkpt>
      <trkpt lat="45.13389" lon="0.58355">
        <ele>120.4</ele>
        <time>2025-06-15T08:44:12Z</time>
      </trkpt>
      <trkpt lat="45.13389" lon="0.58356">
        <ele>120.4</ele>
        <time>2025-06-15T08:44:13Z</time>
      </trkpt>
      <trkpt lat="45.1339" lon="0.58359">
        <ele>120.4</ele>
        <time>2025-06-15T08:44:14Z</time>
      </trkpt>
      <trkpt lat="45.1339" lon="0.58361">
        <ele>120.4</ele>
        <time>2025-06-15T08:44:15Z</time>
      </trkpt>
      <trkpt lat="45.13391" lon="0.58363">
        <ele>120.4</ele>
        <time>2025-06-15T08:44:16Z</time>
      </trkpt>
      <trkpt lat="45.13391" lon="0.58366">
        <ele>120.4</ele>
        <time>2025-06-15T08:44:17Z</time>
      </trkpt>
      <trkpt lat="45.13392" lon="0.58368">
        <ele>120.4</ele>
        <time>2025-06-15T08:44:18Z</time>
      </trkpt>
      <trkpt lat="45.13392" lon="0.58371">
        <ele>120.4</ele>
        <time>2025-06-15T08:44:19Z</time>
      </trkpt>
      <trkpt lat="45.13392" lon="0.58374">
        <ele>120.4</ele>
        <time>2025-06-15T08:44:20Z</time>
      </trkpt>
      <trkpt lat="45.13393" lon="0.58377">
        <ele>120.4</ele>
        <time>2025-06-15T08:44:21Z</time>
      </trkpt>
      <trkpt lat="45.13393" lon="0.58379">
        <ele>120.4</ele>
        <time>2025-06-15T08:44:22Z</time>
      </trkpt>
      <trkpt lat="45.13393" lon="0.58382">
        <ele>120.4</ele>
        <time>2025-06-15T08:44:23Z</time>
      </trkpt>
      <trkpt lat="45.13394" lon="0.58385">
        <ele>120.4</ele>
        <time>2025-06-15T08:44:24Z</time>
      </trkpt>
      <trkpt lat="45.13394" lon="0.58387">
        <ele>120.4</ele>
        <time>2025-06-15T08:44:25Z</time>
      </trkpt>
      <trkpt lat="45.13394" lon="0.58389">
        <ele>120.4</ele>
        <time>2025-06-15T08:44:26Z</time>
      </trkpt>
      <trkpt lat="45.13395" lon="0.58391">
        <ele>120.4</ele>
        <time>2025-06-15T08:44:27Z</time>
      </trkpt>
      <trkpt lat="45.13396" lon="0.58393">
        <ele>120.4</ele>
        <time>2025-06-15T08:44:28Z</time>
      </trkpt>
      <trkpt lat="45.13397" lon="0.58396">
        <ele>120.4</ele>
        <time>2025-06-15T08:44:29Z</time>
      </trkpt>
      <trkpt lat="45.13398" lon="0.58399">
        <ele>120.4</ele>
        <time>2025-06-15T08:44:30Z</time>
      </trkpt>
      <trkpt lat="45.13398" lon="0.58401">
        <ele>120.4</ele>
        <time>2025-06-15T08:44:31Z</time>
      </trkpt>
      <trkpt lat="45.13398" lon="0.58404">
        <ele>120.6</ele>
        <time>2025-06-15T08:44:32Z</time>
      </trkpt>
      <trkpt lat="45.13398" lon="0.58407">
        <ele>120.6</ele>
        <time>2025-06-15T08:44:33Z</time>
      </trkpt>
      <trkpt lat="45.13397" lon="0.5841">
        <ele>120.6</ele>
        <time>2025-06-15T08:44:34Z</time>
      </trkpt>
      <trkpt lat="45.13397" lon="0.58413">
        <ele>120.6</ele>
        <time>2025-06-15T08:44:35Z</time>
      </trkpt>
      <trkpt lat="45.13396" lon="0.58416">
        <ele>120.6</ele>
        <time>2025-06-15T08:44:36Z</time>
      </trkpt>
      <trkpt lat="45.13395" lon="0.58419">
        <ele>120.6</ele>
        <time>2025-06-15T08:44:37Z</time>
      </trkpt>
      <trkpt lat="45.13394" lon="0.58422">
        <ele>120.6</ele>
        <time>2025-06-15T08:44:38Z</time>
      </trkpt>
      <trkpt lat="45.13394" lon="0.58426">
        <ele>120.8</ele>
        <time>2025-06-15T08:44:39Z</time>
      </trkpt>
      <trkpt lat="45.13393" lon="0.5843">
        <ele>120.8</ele>
        <time>2025-06-15T08:44:40Z</time>
      </trkpt>
      <trkpt lat="45.13392" lon="0.58433">
        <ele>120.8</ele>
        <time>2025-06-15T08:44:41Z</time>
      </trkpt>
      <trkpt lat="45.13391" lon="0.58438">
        <ele>120.8</ele>
        <time>2025-06-15T08:44:42Z</time>
      </trkpt>
      <trkpt lat="45.1339" lon="0.58444">
        <ele>120.8</ele>
        <time>2025-06-15T08:44:43Z</time>
      </trkpt>
      <trkpt lat="45.1339" lon="0.5845">
        <ele>120.8</ele>
        <time>2025-06-15T08:44:44Z</time>
      </trkpt>
      <trkpt lat="45.13389" lon="0.58455">
        <ele>120.8</ele>
        <time>2025-06-15T08:44:45Z</time>
      </trkpt>
      <trkpt lat="45.13388" lon="0.58461">
        <ele>120.8</ele>
        <time>2025-06-15T08:44:46Z</time>
      </trkpt>
      <trkpt lat="45.13388" lon="0.58465">
        <ele>120.8</ele>
        <time>2025-06-15T08:44:47Z</time>
      </trkpt>
      <trkpt lat="45.13387" lon="0.5847">
        <ele>120.6</ele>
        <time>2025-06-15T08:44:48Z</time>
      </trkpt>
      <trkpt lat="45.13386" lon="0.58473">
        <ele>120.6</ele>
        <time>2025-06-15T08:44:49Z</time>
      </trkpt>
      <trkpt lat="45.13385" lon="0.58475">
        <ele>120.6</ele>
        <time>2025-06-15T08:44:50Z</time>
      </trkpt>
      <trkpt lat="45.13385" lon="0.58477">
        <ele>120.6</ele>
        <time>2025-06-15T08:44:51Z</time>
      </trkpt>
      <trkpt lat="45.13384" lon="0.58479">
        <ele>120.6</ele>
        <time>2025-06-15T08:44:52Z</time>
      </trkpt>
      <trkpt lat="45.13384" lon="0.58481">
        <ele>120.6</ele>
        <time>2025-06-15T08:44:53Z</time>
      </trkpt>
      <trkpt lat="45.13383" lon="0.58484">
        <ele>120.6</ele>
        <time>2025-06-15T08:44:54Z</time>
      </trkpt>
      <trkpt lat="45.13383" lon="0.58487">
        <ele>120.6</ele>
        <time>2025-06-15T08:44:55Z</time>
      </trkpt>
      <trkpt lat="45.13382" lon="0.58491">
        <ele>120.4</ele>
        <time>2025-06-15T08:44:56Z</time>
      </trkpt>
      <trkpt lat="45.13381" lon="0.58494">
        <ele>120.4</ele>
        <time>2025-06-15T08:44:57Z</time>
      </trkpt>
      <trkpt lat="45.1338" lon="0.58497">
        <ele>120.2</ele>
        <time>2025-06-15T08:44:58Z</time>
      </trkpt>
      <trkpt lat="45.13378" lon="0.585">
        <ele>120.2</ele>
        <time>2025-06-15T08:44:59Z</time>
      </trkpt>
      <trkpt lat="45.13377" lon="0.58503">
        <ele>120.2</ele>
        <time>2025-06-15T08:45:00Z</time>
      </trkpt>
      <trkpt lat="45.13375" lon="0.58505">
        <ele>120.2</ele>
        <time>2025-06-15T08:45:01Z</time>
      </trkpt>
      <trkpt lat="45.13373" lon="0.58508">
        <ele>120.2</ele>
        <time>2025-06-15T08:45:02Z</time>
      </trkpt>
      <trkpt lat="45.13372" lon="0.58511">
        <ele>120.2</ele>
        <time>2025-06-15T08:45:03Z</time>
      </trkpt>
      <trkpt lat="45.1337" lon="0.58513">
        <ele>120.2</ele>
        <time>2025-06-15T08:45:04Z</time>
      </trkpt>
      <trkpt lat="45.13368" lon="0.58515">
        <ele>120.2</ele>
        <time>2025-06-15T08:45:05Z</time>
      </trkpt>
      <trkpt lat="45.13367" lon="0.58518">
        <ele>120</ele>
        <time>2025-06-15T08:45:06Z</time>
      </trkpt>
      <trkpt lat="45.13365" lon="0.58521">
        <ele>120</ele>
        <time>2025-06-15T08:45:07Z</time>
      </trkpt>
      <trkpt lat="45.13364" lon="0.58524">
        <ele>120</ele>
        <time>2025-06-15T08:45:08Z</time>
      </trkpt>
      <trkpt lat="45.13363" lon="0.58528">
        <ele>119.8</ele>
        <time>2025-06-15T08:45:09Z</time>
      </trkpt>
      <trkpt lat="45.13361" lon="0.58534">
        <ele>119.8</ele>
        <time>2025-06-15T08:45:10Z</time>
      </trkpt>
      <trkpt lat="45.1336" lon="0.58541">
        <ele>119.8</ele>
        <time>2025-06-15T08:45:11Z</time>
      </trkpt>
      <trkpt lat="45.13359" lon="0.58549">
        <ele>119.8</ele>
        <time>2025-06-15T08:45:12Z</time>
      </trkpt>
      <trkpt lat="45.13359" lon="0.58558">
        <ele>119.8</ele>
        <time>2025-06-15T08:45:13Z</time>
      </trkpt>
      <trkpt lat="45.13359" lon="0.58566">
        <ele>119.6</ele>
        <time>2025-06-15T08:45:14Z</time>
      </trkpt>
      <trkpt lat="45.13359" lon="0.58575">
        <ele>119.6</ele>
        <time>2025-06-15T08:45:15Z</time>
      </trkpt>
      <trkpt lat="45.13358" lon="0.58584">
        <ele>119.6</ele>
        <time>2025-06-15T08:45:16Z</time>
      </trkpt>
      <trkpt lat="45.13356" lon="0.58593">
        <ele>119.4</ele>
        <time>2025-06-15T08:45:17Z</time>
      </trkpt>
      <trkpt lat="45.13354" lon="0.586">
        <ele>119.2</ele>
        <time>2025-06-15T08:45:18Z</time>
      </trkpt>
      <trkpt lat="45.13352" lon="0.58605">
        <ele>119.2</ele>
        <time>2025-06-15T08:45:19Z</time>
      </trkpt>
      <trkpt lat="45.13352" lon="0.58609">
        <ele>119.2</ele>
        <time>2025-06-15T08:45:20Z</time>
      </trkpt>
      <trkpt lat="45.13351" lon="0.58613">
        <ele>119.2</ele>
        <time>2025-06-15T08:45:21Z</time>
      </trkpt>
      <trkpt lat="45.1335" lon="0.58616">
        <ele>119.2</ele>
        <time>2025-06-15T08:45:22Z</time>
      </trkpt>
      <trkpt lat="45.1335" lon="0.58618">
        <ele>119.2</ele>
        <time>2025-06-15T08:45:23Z</time>
      </trkpt>
      <trkpt lat="45.13349" lon="0.58621">
        <ele>119.4</ele>
        <time>2025-06-15T08:45:24Z</time>
      </trkpt>
      <trkpt lat="45.13349" lon="0.58624">
        <ele>119.4</ele>
        <time>2025-06-15T08:45:25Z</time>
      </trkpt>
      <trkpt lat="45.13349" lon="0.58627">
        <ele>119.4</ele>
        <time>2025-06-15T08:45:26Z</time>
      </trkpt>
      <trkpt lat="45.13348" lon="0.58629">
        <ele>119.4</ele>
        <time>2025-06-15T08:45:27Z</time>
      </trkpt>
      <trkpt lat="45.13348" lon="0.58631">
        <ele>119.2</ele>
        <time>2025-06-15T08:45:28Z</time>
      </trkpt>
      <trkpt lat="45.13347" lon="0.58633">
        <ele>119.2</ele>
        <time>2025-06-15T08:45:29Z</time>
      </trkpt>
      <trkpt lat="45.13346" lon="0.58635">
        <ele>119.2</ele>
        <time>2025-06-15T08:45:30Z</time>
      </trkpt>
      <trkpt lat="45.13346" lon="0.58637">
        <ele>119.2</ele>
        <time>2025-06-15T08:45:31Z</time>
      </trkpt>
      <trkpt lat="45.13346" lon="0.5864">
        <ele>119.2</ele>
        <time>2025-06-15T08:45:32Z</time>
      </trkpt>
      <trkpt lat="45.13345" lon="0.58641">
        <ele>119.4</ele>
        <time>2025-06-15T08:45:33Z</time>
      </trkpt>
      <trkpt lat="45.13345" lon="0.58643">
        <ele>119.4</ele>
        <time>2025-06-15T08:45:34Z</time>
      </trkpt>
      <trkpt lat="45.13344" lon="0.58645">
        <ele>119.4</ele>
        <time>2025-06-15T08:45:35Z</time>
      </trkpt>
      <trkpt lat="45.13344" lon="0.58647">
        <ele>119.2</ele>
        <time>2025-06-15T08:45:36Z</time>
      </trkpt>
      <trkpt lat="45.13344" lon="0.58649">
        <ele>119.2</ele>
        <time>2025-06-15T08:45:37Z</time>
      </trkpt>
      <trkpt lat="45.13343" lon="0.58651">
        <ele>119.4</ele>
        <time>2025-06-15T08:45:38Z</time>
      </trkpt>
      <trkpt lat="45.13343" lon="0.58652">
        <ele>119.4</ele>
        <time>2025-06-15T08:45:39Z</time>
      </trkpt>
      <trkpt lat="45.13342" lon="0.58654">
        <ele>119.4</ele>
        <time>2025-06-15T08:45:40Z</time>
      </trkpt>
      <trkpt lat="45.13342" lon="0.58656">
        <ele>119.4</ele>
        <time>2025-06-15T08:45:41Z</time>
      </trkpt>
      <trkpt lat="45.13342" lon="0.58657">
        <ele>119.4</ele>
        <time>2025-06-15T08:45:42Z</time>
      </trkpt>
      <trkpt lat="45.13341" lon="0.58659">
        <ele>119.4</ele>
        <time>2025-06-15T08:45:43Z</time>
      </trkpt>
      <trkpt lat="45.13341" lon="0.5866">
        <ele>119.4</ele>
        <time>2025-06-15T08:45:44Z</time>
      </trkpt>
      <trkpt lat="45.13341" lon="0.58662">
        <ele>119.2</ele>
        <time>2025-06-15T08:45:45Z</time>
      </trkpt>
      <trkpt lat="45.13341" lon="0.58663">
        <ele>119.2</ele>
        <time>2025-06-15T08:45:46Z</time>
      </trkpt>
      <trkpt lat="45.1334" lon="0.58664">
        <ele>119.2</ele>
        <time>2025-06-15T08:45:47Z</time>
      </trkpt>
      <trkpt lat="45.1334" lon="0.58666">
        <ele>119.2</ele>
        <time>2025-06-15T08:45:48Z</time>
      </trkpt>
      <trkpt lat="45.1334" lon="0.58667">
        <ele>119.2</ele>
        <time>2025-06-15T08:45:49Z</time>
      </trkpt>
      <trkpt lat="45.1334" lon="0.58669">
        <ele>119.2</ele>
        <time>2025-06-15T08:45:50Z</time>
      </trkpt>
      <trkpt lat="45.13339" lon="0.5867">
        <ele>119.2</ele>
        <time>2025-06-15T08:45:51Z</time>
      </trkpt>
      <trkpt lat="45.13339" lon="0.58672">
        <ele>119.2</ele>
        <time>2025-06-15T08:45:52Z</time>
      </trkpt>
      <trkpt lat="45.13339" lon="0.58674">
        <ele>119.2</ele>
        <time>2025-06-15T08:45:53Z</time>
      </trkpt>
      <trkpt lat="45.13339" lon="0.58675">
        <ele>119.2</ele>
        <time>2025-06-15T08:45:54Z</time>
      </trkpt>
      <trkpt lat="45.13338" lon="0.58677">
        <ele>119.2</ele>
        <time>2025-06-15T08:45:55Z</time>
      </trkpt>
      <trkpt lat="45.13338" lon="0.58678">
        <ele>119.2</ele>
        <time>2025-06-15T08:45:56Z</time>
      </trkpt>
      <trkpt lat="45.13338" lon="0.5868">
        <ele>119</ele>
        <time>2025-06-15T08:45:57Z</time>
      </trkpt>
      <trkpt lat="45.13338" lon="0.58681">
        <ele>119</ele>
        <time>2025-06-15T08:45:58Z</time>
      </trkpt>
      <trkpt lat="45.13337" lon="0.58683">
        <ele>119</ele>
        <time>2025-06-15T08:45:59Z</time>
      </trkpt>
      <trkpt lat="45.13337" lon="0.58684">
        <ele>119</ele>
        <time>2025-06-15T08:46:00Z</time>
      </trkpt>
      <trkpt lat="45.13337" lon="0.58686">
        <ele>119</ele>
        <time>2025-06-15T08:46:01Z</time>
      </trkpt>
      <trkpt lat="45.13337" lon="0.58687">
        <ele>119</ele>
        <time>2025-06-15T08:46:02Z</time>
      </trkpt>
      <trkpt lat="45.13337" lon="0.58688">
        <ele>119</ele>
        <time>2025-06-15T08:46:03Z</time>
      </trkpt>
      <trkpt lat="45.13337" lon="0.5869">
        <ele>119</ele>
        <time>2025-06-15T08:46:04Z</time>
      </trkpt>
      <trkpt lat="45.13337" lon="0.58691">
        <ele>119</ele>
        <time>2025-06-15T08:46:05Z</time>
      </trkpt>
      <trkpt lat="45.13336" lon="0.58693">
        <ele>119</ele>
        <time>2025-06-15T08:46:06Z</time>
      </trkpt>
      <trkpt lat="45.13336" lon="0.58694">
        <ele>119</ele>
        <time>2025-06-15T08:46:07Z</time>
      </trkpt>
      <trkpt lat="45.13336" lon="0.58696">
        <ele>119</ele>
        <time>2025-06-15T08:46:08Z</time>
      </trkpt>
      <trkpt lat="45.13336" lon="0.58697">
        <ele>119</ele>
        <time>2025-06-15T08:46:09Z</time>
      </trkpt>
      <trkpt lat="45.13336" lon="0.58698">
        <ele>119</ele>
        <time>2025-06-15T08:46:10Z</time>
      </trkpt>
      <trkpt lat="45.13336" lon="0.587">
        <ele>119</ele>
        <time>2025-06-15T08:46:11Z</time>
      </trkpt>
      <trkpt lat="45.13335" lon="0.58701">
        <ele>119</ele>
        <time>2025-06-15T08:46:12Z</time>
      </trkpt>
      <trkpt lat="45.13335" lon="0.58702">
        <ele>119</ele>
        <time>2025-06-15T08:46:13Z</time>
      </trkpt>
      <trkpt lat="45.13335" lon="0.58704">
        <ele>119</ele>
        <time>2025-06-15T08:46:14Z</time>
      </trkpt>
      <trkpt lat="45.13335" lon="0.58705">
        <ele>118.8</ele>
        <time>2025-06-15T08:46:15Z</time>
      </trkpt>
      <trkpt lat="45.13334" lon="0.58707">
        <ele>118.8</ele>
        <time>2025-06-15T08:46:16Z</time>
      </trkpt>
      <trkpt lat="45.13333" lon="0.58708">
        <ele>118.8</ele>
        <time>2025-06-15T08:46:17Z</time>
      </trkpt>
      <trkpt lat="45.13333" lon="0.5871">
        <ele>118.8</ele>
        <time>2025-06-15T08:46:18Z</time>
      </trkpt>
      <trkpt lat="45.13333" lon="0.58711">
        <ele>118.8</ele>
        <time>2025-06-15T08:46:19Z</time>
      </trkpt>
      <trkpt lat="45.13333" lon="0.58712">
        <ele>118.8</ele>
        <time>2025-06-15T08:46:20Z</time>
      </trkpt>
      <trkpt lat="45.13333" lon="0.58714">
        <ele>118.8</ele>
        <time>2025-06-15T08:46:21Z</time>
      </trkpt>
      <trkpt lat="45.13333" lon="0.58715">
        <ele>118.8</ele>
        <time>2025-06-15T08:46:22Z</time>
      </trkpt>
      <trkpt lat="45.13332" lon="0.58716">
        <ele>118.8</ele>
        <time>2025-06-15T08:46:23Z</time>
      </trkpt>
      <trkpt lat="45.13332" lon="0.58717">
        <ele>118.8</ele>
        <time>2025-06-15T08:46:24Z</time>
      </trkpt>
      <trkpt lat="45.13332" lon="0.58719">
        <ele>118.8</ele>
        <time>2025-06-15T08:46:25Z</time>
      </trkpt>
      <trkpt lat="45.13332" lon="0.5872">
        <ele>118.8</ele>
        <time>2025-06-15T08:46:26Z</time>
      </trkpt>
      <trkpt lat="45.13331" lon="0.58722">
        <ele>118.8</ele>
        <time>2025-06-15T08:46:27Z</time>
      </trkpt>
      <trkpt lat="45.13331" lon="0.58723">
        <ele>118.8</ele>
        <time>2025-06-15T08:46:28Z</time>
      </trkpt>
      <trkpt lat="45.13331" lon="0.58725">
        <ele>118.8</ele>
        <time>2025-06-15T08:46:29Z</time>
      </trkpt>
      <trkpt lat="45.13331" lon="0.58726">
        <ele>118.8</ele>
        <time>2025-06-15T08:46:30Z</time>
      </trkpt>
      <trkpt lat="45.13331" lon="0.58728">
        <ele>118.8</ele>
        <time>2025-06-15T08:46:31Z</time>
      </trkpt>
      <trkpt lat="45.13331" lon="0.58729">
        <ele>118.8</ele>
        <time>2025-06-15T08:46:32Z</time>
      </trkpt>
      <trkpt lat="45.13331" lon="0.58731">
        <ele>119</ele>
        <time>2025-06-15T08:46:33Z</time>
      </trkpt>
      <trkpt lat="45.13331" lon="0.58732">
        <ele>119</ele>
        <time>2025-06-15T08:46:34Z</time>
      </trkpt>
      <trkpt lat="45.1333" lon="0.58734">
        <ele>119</ele>
        <time>2025-06-15T08:46:35Z</time>
      </trkpt>
      <trkpt lat="45.1333" lon="0.58735">
        <ele>119</ele>
        <time>2025-06-15T08:46:36Z</time>
      </trkpt>
      <trkpt lat="45.1333" lon="0.58736">
        <ele>119</ele>
        <time>2025-06-15T08:46:37Z</time>
      </trkpt>
      <trkpt lat="45.13331" lon="0.58737">
        <ele>119</ele>
        <time>2025-06-15T08:46:38Z</time>
      </trkpt>
      <trkpt lat="45.13331" lon="0.58739">
        <ele>119</ele>
        <time>2025-06-15T08:46:39Z</time>
      </trkpt>
      <trkpt lat="45.13331" lon="0.58741">
        <ele>119</ele>
        <time>2025-06-15T08:46:40Z</time>
      </trkpt>
      <trkpt lat="45.13331" lon="0.58742">
        <ele>119</ele>
        <time>2025-06-15T08:46:41Z</time>
      </trkpt>
      <trkpt lat="45.13331" lon="0.58743">
        <ele>119</ele>
        <time>2025-06-15T08:46:42Z</time>
      </trkpt>
      <trkpt lat="45.13331" lon="0.58745">
        <ele>119.2</ele>
        <time>2025-06-15T08:46:43Z</time>
      </trkpt>
      <trkpt lat="45.13331" lon="0.58746">
        <ele>119.2</ele>
        <time>2025-06-15T08:46:44Z</time>
      </trkpt>
      <trkpt lat="45.13331" lon="0.58748">
        <ele>119.2</ele>
        <time>2025-06-15T08:46:45Z</time>
      </trkpt>
      <trkpt lat="45.13332" lon="0.58749">
        <ele>119.2</ele>
        <time>2025-06-15T08:46:46Z</time>
      </trkpt>
      <trkpt lat="45.13332" lon="0.5875">
        <ele>119.2</ele>
        <time>2025-06-15T08:46:47Z</time>
      </trkpt>
      <trkpt lat="45.13332" lon="0.58751">
        <ele>119.4</ele>
        <time>2025-06-15T08:46:48Z</time>
      </trkpt>
      <trkpt lat="45.13332" lon="0.58752">
        <ele>119.4</ele>
        <time>2025-06-15T08:46:49Z</time>
      </trkpt>
      <trkpt lat="45.13332" lon="0.58753">
        <ele>119.4</ele>
        <time>2025-06-15T08:46:50Z</time>
      </trkpt>
      <trkpt lat="45.13332" lon="0.58754">
        <ele>119.4</ele>
        <time>2025-06-15T08:46:51Z</time>
      </trkpt>
      <trkpt lat="45.13333" lon="0.58755">
        <ele>119.4</ele>
        <time>2025-06-15T08:46:52Z</time>
      </trkpt>
      <trkpt lat="45.13333" lon="0.58757">
        <ele>119.4</ele>
        <time>2025-06-15T08:46:53Z</time>
      </trkpt>
      <trkpt lat="45.13332" lon="0.58758">
        <ele>119.6</ele>
        <time>2025-06-15T08:46:54Z</time>
      </trkpt>
      <trkpt lat="45.13332" lon="0.5876">
        <ele>119.6</ele>
        <time>2025-06-15T08:46:55Z</time>
      </trkpt>
      <trkpt lat="45.13333" lon="0.58762">
        <ele>119.6</ele>
        <time>2025-06-15T08:46:56Z</time>
      </trkpt>
      <trkpt lat="45.13333" lon="0.58763">
        <ele>119.6</ele>
        <time>2025-06-15T08:46:57Z</time>
      </trkpt>
      <trkpt lat="45.13333" lon="0.58764">
        <ele>119.6</ele>
        <time>2025-06-15T08:46:58Z</time>
      </trkpt>
      <trkpt lat="45.13333" lon="0.58765">
        <ele>119.8</ele>
        <time>2025-06-15T08:46:59Z</time>
      </trkpt>
      <trkpt lat="45.13333" lon="0.58767">
        <ele>119.8</ele>
        <time>2025-06-15T08:47:00Z</time>
      </trkpt>
      <trkpt lat="45.13333" lon="0.58768">
        <ele>119.8</ele>
        <time>2025-06-15T08:47:01Z</time>
      </trkpt>
      <trkpt lat="45.13333" lon="0.58769">
        <ele>120</ele>
        <time>2025-06-15T08:47:02Z</time>
      </trkpt>
      <trkpt lat="45.13334" lon="0.5877">
        <ele>120</ele>
        <time>2025-06-15T08:47:03Z</time>
      </trkpt>
      <trkpt lat="45.13335" lon="0.58771">
        <ele>120</ele>
        <time>2025-06-15T08:47:04Z</time>
      </trkpt>
      <trkpt lat="45.13335" lon="0.58773">
        <ele>120</ele>
        <time>2025-06-15T08:47:05Z</time>
      </trkpt>
      <trkpt lat="45.13335" lon="0.58775">
        <ele>120.2</ele>
        <time>2025-06-15T08:47:06Z</time>
      </trkpt>
      <trkpt lat="45.13335" lon="0.58776">
        <ele>120.2</ele>
        <time>2025-06-15T08:47:07Z</time>
      </trkpt>
      <trkpt lat="45.13336" lon="0.58778">
        <ele>120.2</ele>
        <time>2025-06-15T08:47:08Z</time>
      </trkpt>
      <trkpt lat="45.13336" lon="0.58779">
        <ele>120.4</ele>
        <time>2025-06-15T08:47:09Z</time>
      </trkpt>
      <trkpt lat="45.13337" lon="0.5878">
        <ele>120.4</ele>
        <time>2025-06-15T08:47:10Z</time>
      </trkpt>
      <trkpt lat="45.13337" lon="0.58781">
        <ele>120.4</ele>
        <time>2025-06-15T08:47:11Z</time>
      </trkpt>
      <trkpt lat="45.13338" lon="0.58782">
        <ele>120.6</ele>
        <time>2025-06-15T08:47:12Z</time>
      </trkpt>
      <trkpt lat="45.13339" lon="0.58783">
        <ele>120.8</ele>
        <time>2025-06-15T08:47:13Z</time>
      </trkpt>
      <trkpt lat="45.1334" lon="0.58784">
        <ele>121</ele>
        <time>2025-06-15T08:47:14Z</time>
      </trkpt>
      <trkpt lat="45.13341" lon="0.58785">
        <ele>121.2</ele>
        <time>2025-06-15T08:47:15Z</time>
      </trkpt>
      <trkpt lat="45.13342" lon="0.58786">
        <ele>122.8</ele>
        <time>2025-06-15T08:47:16Z</time>
      </trkpt>
      <trkpt lat="45.13342" lon="0.58788">
        <ele>125</ele>
        <time>2025-06-15T08:47:17Z</time>
      </trkpt>
      <trkpt lat="45.13343" lon="0.58789">
        <ele>126.2</ele>
        <time>2025-06-15T08:47:18Z</time>
      </trkpt>
      <trkpt lat="45.13343" lon="0.5879">
        <ele>126.4</ele>
        <time>2025-06-15T08:47:19Z</time>
      </trkpt>
      <trkpt lat="45.13344" lon="0.58791">
        <ele>126.6</ele>
        <time>2025-06-15T08:47:20Z</time>
      </trkpt>
      <trkpt lat="45.13345" lon="0.58793">
        <ele>127</ele>
        <time>2025-06-15T08:47:21Z</time>
      </trkpt>
      <trkpt lat="45.13345" lon="0.58795">
        <ele>127.2</ele>
        <time>2025-06-15T08:47:22Z</time>
      </trkpt>
      <trkpt lat="45.13346" lon="0.58796">
        <ele>127.4</ele>
        <time>2025-06-15T08:47:23Z</time>
      </trkpt>
      <trkpt lat="45.13347" lon="0.58798">
        <ele>127.6</ele>
        <time>2025-06-15T08:47:24Z</time>
      </trkpt>
      <trkpt lat="45.13348" lon="0.58799">
        <ele>127.8</ele>
        <time>2025-06-15T08:47:25Z</time>
      </trkpt>
      <trkpt lat="45.13349" lon="0.588">
        <ele>128</ele>
        <time>2025-06-15T08:47:26Z</time>
      </trkpt>
      <trkpt lat="45.1335" lon="0.588">
        <ele>128.2</ele>
        <time>2025-06-15T08:47:27Z</time>
      </trkpt>
      <trkpt lat="45.13351" lon="0.58801">
        <ele>128.4</ele>
        <time>2025-06-15T08:47:28Z</time>
      </trkpt>
      <trkpt lat="45.13352" lon="0.58802">
        <ele>128.6</ele>
        <time>2025-06-15T08:47:29Z</time>
      </trkpt>
      <trkpt lat="45.13353" lon="0.58803">
        <ele>128.8</ele>
        <time>2025-06-15T08:47:30Z</time>
      </trkpt>
      <trkpt lat="45.13354" lon="0.58804">
        <ele>129</ele>
        <time>2025-06-15T08:47:31Z</time>
      </trkpt>
      <trkpt lat="45.13355" lon="0.58806">
        <ele>129.2</ele>
        <time>2025-06-15T08:47:32Z</time>
      </trkpt>
      <trkpt lat="45.13356" lon="0.58807">
        <ele>129.4</ele>
        <time>2025-06-15T08:47:33Z</time>
      </trkpt>
      <trkpt lat="45.13356" lon="0.58808">
        <ele>129.6</ele>
        <time>2025-06-15T08:47:34Z</time>
      </trkpt>
      <trkpt lat="45.13357" lon="0.5881">
        <ele>129.8</ele>
        <time>2025-06-15T08:47:35Z</time>
      </trkpt>
      <trkpt lat="45.13358" lon="0.58811">
        <ele>130</ele>
        <time>2025-06-15T08:47:36Z</time>
      </trkpt>
      <trkpt lat="45.13359" lon="0.58812">
        <ele>130</ele>
        <time>2025-06-15T08:47:37Z</time>
      </trkpt>
      <trkpt lat="45.1336" lon="0.58814">
        <ele>130.2</ele>
        <time>2025-06-15T08:47:38Z</time>
      </trkpt>
      <trkpt lat="45.13361" lon="0.58816">
        <ele>130.4</ele>
        <time>2025-06-15T08:47:39Z</time>
      </trkpt>
      <trkpt lat="45.13362" lon="0.58818">
        <ele>130.6</ele>
        <time>2025-06-15T08:47:40Z</time>
      </trkpt>
      <trkpt lat="45.13363" lon="0.58819">
        <ele>130.8</ele>
        <time>2025-06-15T08:47:41Z</time>
      </trkpt>
      <trkpt lat="45.13364" lon="0.5882">
        <ele>130.8</ele>
        <time>2025-06-15T08:47:42Z</time>
      </trkpt>
      <trkpt lat="45.13365" lon="0.58821">
        <ele>131</ele>
        <time>2025-06-15T08:47:43Z</time>
      </trkpt>
      <trkpt lat="45.13366" lon="0.58823">
        <ele>131</ele>
        <time>2025-06-15T08:47:44Z</time>
      </trkpt>
      <trkpt lat="45.13367" lon="0.58824">
        <ele>131.2</ele>
        <time>2025-06-15T08:47:45Z</time>
      </trkpt>
      <trkpt lat="45.13368" lon="0.58825">
        <ele>131.4</ele>
        <time>2025-06-15T08:47:46Z</time>
      </trkpt>
      <trkpt lat="45.13369" lon="0.58826">
        <ele>131.6</ele>
        <time>2025-06-15T08:47:47Z</time>
      </trkpt>
      <trkpt lat="45.1337" lon="0.58827">
        <ele>131.8</ele>
        <time>2025-06-15T08:47:48Z</time>
      </trkpt>
      <trkpt lat="45.13371" lon="0.58829">
        <ele>132</ele>
        <time>2025-06-15T08:47:49Z</time>
      </trkpt>
      <trkpt lat="45.13372" lon="0.58829">
        <ele>132.2</ele>
        <time>2025-06-15T08:47:50Z</time>
      </trkpt>
      <trkpt lat="45.13373" lon="0.5883">
        <ele>132.4</ele>
        <time>2025-06-15T08:47:51Z</time>
      </trkpt>
      <trkpt lat="45.13374" lon="0.58831">
        <ele>132.6</ele>
        <time>2025-06-15T08:47:52Z</time>
      </trkpt>
      <trkpt lat="45.13376" lon="0.58833">
        <ele>132.6</ele>
        <time>2025-06-15T08:47:53Z</time>
      </trkpt>
      <trkpt lat="45.13377" lon="0.58834">
        <ele>132.8</ele>
        <time>2025-06-15T08:47:54Z</time>
      </trkpt>
      <trkpt lat="45.13378" lon="0.58836">
        <ele>133</ele>
        <time>2025-06-15T08:47:55Z</time>
      </trkpt>
      <trkpt lat="45.13379" lon="0.58837">
        <ele>133.2</ele>
        <time>2025-06-15T08:47:56Z</time>
      </trkpt>
      <trkpt lat="45.1338" lon="0.58839">
        <ele>133.4</ele>
        <time>2025-06-15T08:47:57Z</time>
      </trkpt>
      <trkpt lat="45.13381" lon="0.5884">
        <ele>133.4</ele>
        <time>2025-06-15T08:47:58Z</time>
      </trkpt>
      <trkpt lat="45.13382" lon="0.58841">
        <ele>133.6</ele>
        <time>2025-06-15T08:47:59Z</time>
      </trkpt>
      <trkpt lat="45.13382" lon="0.58843">
        <ele>133.8</ele>
        <time>2025-06-15T08:48:00Z</time>
      </trkpt>
      <trkpt lat="45.13383" lon="0.58844">
        <ele>134</ele>
        <time>2025-06-15T08:48:01Z</time>
      </trkpt>
      <trkpt lat="45.13384" lon="0.58846">
        <ele>134.2</ele>
        <time>2025-06-15T08:48:02Z</time>
      </trkpt>
      <trkpt lat="45.13384" lon="0.58847">
        <ele>134.4</ele>
        <time>2025-06-15T08:48:03Z</time>
      </trkpt>
      <trkpt lat="45.13385" lon="0.58849">
        <ele>134.6</ele>
        <time>2025-06-15T08:48:04Z</time>
      </trkpt>
      <trkpt lat="45.13386" lon="0.58851">
        <ele>134.8</ele>
        <time>2025-06-15T08:48:05Z</time>
      </trkpt>
      <trkpt lat="45.13387" lon="0.58853">
        <ele>135</ele>
        <time>2025-06-15T08:48:06Z</time>
      </trkpt>
      <trkpt lat="45.13387" lon="0.58854">
        <ele>135.2</ele>
        <time>2025-06-15T08:48:07Z</time>
      </trkpt>
      <trkpt lat="45.13388" lon="0.58855">
        <ele>135.4</ele>
        <time>2025-06-15T08:48:08Z</time>
      </trkpt>
      <trkpt lat="45.13388" lon="0.58857">
        <ele>135.6</ele>
        <time>2025-06-15T08:48:09Z</time>
      </trkpt>
      <trkpt lat="45.13389" lon="0.58858">
        <ele>135.8</ele>
        <time>2025-06-15T08:48:10Z</time>
      </trkpt>
      <trkpt lat="45.13389" lon="0.5886">
        <ele>136</ele>
        <time>2025-06-15T08:48:11Z</time>
      </trkpt>
      <trkpt lat="45.13389" lon="0.58861">
        <ele>136.2</ele>
        <time>2025-06-15T08:48:12Z</time>
      </trkpt>
      <trkpt lat="45.1339" lon="0.58863">
        <ele>136.4</ele>
        <time>2025-06-15T08:48:13Z</time>
      </trkpt>
      <trkpt lat="45.1339" lon="0.58865">
        <ele>136.6</ele>
        <time>2025-06-15T08:48:14Z</time>
      </trkpt>
      <trkpt lat="45.13391" lon="0.58866">
        <ele>136.8</ele>
        <time>2025-06-15T08:48:15Z</time>
      </trkpt>
      <trkpt lat="45.13391" lon="0.58868">
        <ele>137</ele>
        <time>2025-06-15T08:48:16Z</time>
      </trkpt>
      <trkpt lat="45.13392" lon="0.58869">
        <ele>137.2</ele>
        <time>2025-06-15T08:48:17Z</time>
      </trkpt>
      <trkpt lat="45.13392" lon="0.58871">
        <ele>137.4</ele>
        <time>2025-06-15T08:48:18Z</time>
      </trkpt>
      <trkpt lat="45.13393" lon="0.58873">
        <ele>137.8</ele>
        <time>2025-06-15T08:48:19Z</time>
      </trkpt>
      <trkpt lat="45.13394" lon="0.58875">
        <ele>138</ele>
        <time>2025-06-15T08:48:20Z</time>
      </trkpt>
      <trkpt lat="45.13394" lon="0.58877">
        <ele>138.2</ele>
        <time>2025-06-15T08:48:21Z</time>
      </trkpt>
      <trkpt lat="45.13394" lon="0.58878">
        <ele>138.6</ele>
        <time>2025-06-15T08:48:22Z</time>
      </trkpt>
      <trkpt lat="45.13395" lon="0.5888">
        <ele>138.8</ele>
        <time>2025-06-15T08:48:23Z</time>
      </trkpt>
      <trkpt lat="45.13395" lon="0.58881">
        <ele>139</ele>
        <time>2025-06-15T08:48:24Z</time>
      </trkpt>
      <trkpt lat="45.13395" lon="0.58882">
        <ele>139.4</ele>
        <time>2025-06-15T08:48:25Z</time>
      </trkpt>
      <trkpt lat="45.13395" lon="0.58883">
        <ele>139.6</ele>
        <time>2025-06-15T08:48:26Z</time>
      </trkpt>
      <trkpt lat="45.13396" lon="0.58885">
        <ele>139.8</ele>
        <time>2025-06-15T08:48:27Z</time>
      </trkpt>
      <trkpt lat="45.13396" lon="0.58887">
        <ele>140</ele>
        <time>2025-06-15T08:48:28Z</time>
      </trkpt>
      <trkpt lat="45.13397" lon="0.58889">
        <ele>140.2</ele>
        <time>2025-06-15T08:48:29Z</time>
      </trkpt>
      <trkpt lat="45.13397" lon="0.5889">
        <ele>140.6</ele>
        <time>2025-06-15T08:48:30Z</time>
      </trkpt>
      <trkpt lat="45.13398" lon="0.58892">
        <ele>140.8</ele>
        <time>2025-06-15T08:48:31Z</time>
      </trkpt>
      <trkpt lat="45.13398" lon="0.58893">
        <ele>141</ele>
        <time>2025-06-15T08:48:32Z</time>
      </trkpt>
      <trkpt lat="45.13398" lon="0.58895">
        <ele>141.2</ele>
        <time>2025-06-15T08:48:33Z</time>
      </trkpt>
      <trkpt lat="45.13399" lon="0.58897">
        <ele>141.4</ele>
        <time>2025-06-15T08:48:34Z</time>
      </trkpt>
      <trkpt lat="45.13399" lon="0.58898">
        <ele>141.6</ele>
        <time>2025-06-15T08:48:35Z</time>
      </trkpt>
      <trkpt lat="45.13399" lon="0.589">
        <ele>142</ele>
        <time>2025-06-15T08:48:36Z</time>
      </trkpt>
      <trkpt lat="45.13399" lon="0.58902">
        <ele>142.2</ele>
        <time>2025-06-15T08:48:37Z</time>
      </trkpt>
      <trkpt lat="45.13399" lon="0.58904">
        <ele>142.4</ele>
        <time>2025-06-15T08:48:38Z</time>
      </trkpt>
      <trkpt lat="45.13399" lon="0.58905">
        <ele>142.6</ele>
        <time>2025-06-15T08:48:39Z</time>
      </trkpt>
      <trkpt lat="45.13399" lon="0.58907">
        <ele>142.8</ele>
        <time>2025-06-15T08:48:40Z</time>
      </trkpt>
      <trkpt lat="45.13398" lon="0.58909">
        <ele>143.2</ele>
        <time>2025-06-15T08:48:41Z</time>
      </trkpt>
      <trkpt lat="45.13398" lon="0.5891">
        <ele>143.4</ele>
        <time>2025-06-15T08:48:42Z</time>
      </trkpt>
      <trkpt lat="45.13398" lon="0.58912">
        <ele>143.6</ele>
        <time>2025-06-15T08:48:43Z</time>
      </trkpt>
      <trkpt lat="45.13398" lon="0.58913">
        <ele>143.8</ele>
        <time>2025-06-15T08:48:44Z</time>
      </trkpt>
      <trkpt lat="45.13398" lon="0.58915">
        <ele>144</ele>
        <time>2025-06-15T08:48:45Z</time>
      </trkpt>
      <trkpt lat="45.13398" lon="0.58916">
        <ele>144.2</ele>
        <time>2025-06-15T08:48:46Z</time>
      </trkpt>
      <trkpt lat="45.13397" lon="0.58917">
        <ele>144.4</ele>
        <time>2025-06-15T08:48:47Z</time>
      </trkpt>
      <trkpt lat="45.13397" lon="0.58919">
        <ele>144.6</ele>
        <time>2025-06-15T08:48:48Z</time>
      </trkpt>
      <trkpt lat="45.13397" lon="0.5892">
        <ele>144.8</ele>
        <time>2025-06-15T08:48:49Z</time>
      </trkpt>
      <trkpt lat="45.13396" lon="0.58922">
        <ele>145</ele>
        <time>2025-06-15T08:48:50Z</time>
      </trkpt>
      <trkpt lat="45.13396" lon="0.58924">
        <ele>145.2</ele>
        <time>2025-06-15T08:48:51Z</time>
      </trkpt>
      <trkpt lat="45.13396" lon="0.58926">
        <ele>145.4</ele>
        <time>2025-06-15T08:48:52Z</time>
      </trkpt>
      <trkpt lat="45.13396" lon="0.58927">
        <ele>145.6</ele>
        <time>2025-06-15T08:48:53Z</time>
      </trkpt>
      <trkpt lat="45.13396" lon="0.58929">
        <ele>145.8</ele>
        <time>2025-06-15T08:48:54Z</time>
      </trkpt>
      <trkpt lat="45.13396" lon="0.5893">
        <ele>146</ele>
        <time>2025-06-15T08:48:55Z</time>
      </trkpt>
      <trkpt lat="45.13396" lon="0.58932">
        <ele>146.2</ele>
        <time>2025-06-15T08:48:56Z</time>
      </trkpt>
      <trkpt lat="45.13396" lon="0.58935">
        <ele>146.2</ele>
        <time>2025-06-15T08:48:57Z</time>
      </trkpt>
      <trkpt lat="45.13396" lon="0.58937">
        <ele>146.4</ele>
        <time>2025-06-15T08:48:58Z</time>
      </trkpt>
      <trkpt lat="45.13395" lon="0.5894">
        <ele>146.6</ele>
        <time>2025-06-15T08:48:59Z</time>
      </trkpt>
      <trkpt lat="45.13395" lon="0.58942">
        <ele>146.8</ele>
        <time>2025-06-15T08:49:00Z</time>
      </trkpt>
      <trkpt lat="45.13395" lon="0.58944">
        <ele>146.8</ele>
        <time>2025-06-15T08:49:01Z</time>
      </trkpt>
      <trkpt lat="45.13395" lon="0.58946">
        <ele>147</ele>
        <time>2025-06-15T08:49:02Z</time>
      </trkpt>
      <trkpt lat="45.13395" lon="0.58949">
        <ele>147.2</ele>
        <time>2025-06-15T08:49:03Z</time>
      </trkpt>
      <trkpt lat="45.13395" lon="0.58951">
        <ele>147.2</ele>
        <time>2025-06-15T08:49:04Z</time>
      </trkpt>
      <trkpt lat="45.13395" lon="0.58954">
        <ele>147.4</ele>
        <time>2025-06-15T08:49:05Z</time>
      </trkpt>
      <trkpt lat="45.13395" lon="0.58956">
        <ele>147.4</ele>
        <time>2025-06-15T08:49:06Z</time>
      </trkpt>
      <trkpt lat="45.13396" lon="0.58959">
        <ele>147.6</ele>
        <time>2025-06-15T08:49:07Z</time>
      </trkpt>
      <trkpt lat="45.13397" lon="0.58961">
        <ele>147.6</ele>
        <time>2025-06-15T08:49:08Z</time>
      </trkpt>
      <trkpt lat="45.13398" lon="0.58963">
        <ele>147.6</ele>
        <time>2025-06-15T08:49:09Z</time>
      </trkpt>
      <trkpt lat="45.13398" lon="0.58966">
        <ele>147.8</ele>
        <time>2025-06-15T08:49:10Z</time>
      </trkpt>
      <trkpt lat="45.13399" lon="0.58968">
        <ele>147.8</ele>
        <time>2025-06-15T08:49:11Z</time>
      </trkpt>
      <trkpt lat="45.13399" lon="0.58971">
        <ele>147.8</ele>
        <time>2025-06-15T08:49:12Z</time>
      </trkpt>
      <trkpt lat="45.134" lon="0.58974">
        <ele>147.8</ele>
        <time>2025-06-15T08:49:13Z</time>
      </trkpt>
      <trkpt lat="45.13401" lon="0.58976">
        <ele>147.8</ele>
        <time>2025-06-15T08:49:14Z</time>
      </trkpt>
      <trkpt lat="45.13401" lon="0.58979">
        <ele>147.8</ele>
        <time>2025-06-15T08:49:15Z</time>
      </trkpt>
      <trkpt lat="45.13402" lon="0.58981">
        <ele>147.8</ele>
        <time>2025-06-15T08:49:16Z</time>
      </trkpt>
      <trkpt lat="45.13403" lon="0.58984">
        <ele>147.8</ele>
        <time>2025-06-15T08:49:17Z</time>
      </trkpt>
      <trkpt lat="45.13404" lon="0.58987">
        <ele>147.8</ele>
        <time>2025-06-15T08:49:18Z</time>
      </trkpt>
      <trkpt lat="45.13405" lon="0.5899">
        <ele>147.8</ele>
        <time>2025-06-15T08:49:19Z</time>
      </trkpt>
      <trkpt lat="45.13406" lon="0.58993">
        <ele>147.8</ele>
        <time>2025-06-15T08:49:20Z</time>
      </trkpt>
      <trkpt lat="45.13406" lon="0.58997">
        <ele>147.8</ele>
        <time>2025-06-15T08:49:21Z</time>
      </trkpt>
      <trkpt lat="45.13406" lon="0.59">
        <ele>147.6</ele>
        <time>2025-06-15T08:49:22Z</time>
      </trkpt>
      <trkpt lat="45.13406" lon="0.59003">
        <ele>147.6</ele>
        <time>2025-06-15T08:49:23Z</time>
      </trkpt>
      <trkpt lat="45.13406" lon="0.59006">
        <ele>147.6</ele>
        <time>2025-06-15T08:49:24Z</time>
      </trkpt>
      <trkpt lat="45.13406" lon="0.59008">
        <ele>147.6</ele>
        <time>2025-06-15T08:49:25Z</time>
      </trkpt>
      <trkpt lat="45.13406" lon="0.5901">
        <ele>147.4</ele>
        <time>2025-06-15T08:49:26Z</time>
      </trkpt>
      <trkpt lat="45.13404" lon="0.59011">
        <ele>147.4</ele>
        <time>2025-06-15T08:49:27Z</time>
      </trkpt>
      <trkpt lat="45.13403" lon="0.59012">
        <ele>147.4</ele>
        <time>2025-06-15T08:49:28Z</time>
      </trkpt>
      <trkpt lat="45.13401" lon="0.59011">
        <ele>147.4</ele>
        <time>2025-06-15T08:49:29Z</time>
      </trkpt>
      <trkpt lat="45.13399" lon="0.59011">
        <ele>147.4</ele>
        <time>2025-06-15T08:49:30Z</time>
      </trkpt>
      <trkpt lat="45.13397" lon="0.59011">
        <ele>147.4</ele>
        <time>2025-06-15T08:49:31Z</time>
      </trkpt>
      <trkpt lat="45.13394" lon="0.59012">
        <ele>147.2</ele>
        <time>2025-06-15T08:49:32Z</time>
      </trkpt>
      <trkpt lat="45.13392" lon="0.59013">
        <ele>147.2</ele>
        <time>2025-06-15T08:49:33Z</time>
      </trkpt>
      <trkpt lat="45.13389" lon="0.59013">
        <ele>147.2</ele>
        <time>2025-06-15T08:49:34Z</time>
      </trkpt>
      <trkpt lat="45.13387" lon="0.59013">
        <ele>147.2</ele>
        <time>2025-06-15T08:49:35Z</time>
      </trkpt>
      <trkpt lat="45.13384" lon="0.59013">
        <ele>147.2</ele>
        <time>2025-06-15T08:49:36Z</time>
      </trkpt>
      <trkpt lat="45.13381" lon="0.59013">
        <ele>147.2</ele>
        <time>2025-06-15T08:49:37Z</time>
      </trkpt>
      <trkpt lat="45.13378" lon="0.59014">
        <ele>147.4</ele>
        <time>2025-06-15T08:49:38Z</time>
      </trkpt>
      <trkpt lat="45.13375" lon="0.59014">
        <ele>147.4</ele>
        <time>2025-06-15T08:49:39Z</time>
      </trkpt>
      <trkpt lat="45.13372" lon="0.59014">
        <ele>147.2</ele>
        <time>2025-06-15T08:49:40Z</time>
      </trkpt>
      <trkpt lat="45.13369" lon="0.59014">
        <ele>147.2</ele>
        <time>2025-06-15T08:49:41Z</time>
      </trkpt>
      <trkpt lat="45.13365" lon="0.59015">
        <ele>147.4</ele>
        <time>2025-06-15T08:49:42Z</time>
      </trkpt>
      <trkpt lat="45.13362" lon="0.59016">
        <ele>147.4</ele>
        <time>2025-06-15T08:49:43Z</time>
      </trkpt>
      <trkpt lat="45.13361" lon="0.59018">
        <ele>147.4</ele>
        <time>2025-06-15T08:49:44Z</time>
      </trkpt>
      <trkpt lat="45.13361" lon="0.59021">
        <ele>147.4</ele>
        <time>2025-06-15T08:49:45Z</time>
      </trkpt>
      <trkpt lat="45.1336" lon="0.59024">
        <ele>147.2</ele>
        <time>2025-06-15T08:49:46Z</time>
      </trkpt>
      <trkpt lat="45.13359" lon="0.59026">
        <ele>147</ele>
        <time>2025-06-15T08:49:47Z</time>
      </trkpt>
      <trkpt lat="45.13357" lon="0.59029">
        <ele>146.8</ele>
        <time>2025-06-15T08:49:48Z</time>
      </trkpt>
      <trkpt lat="45.13355" lon="0.59033">
        <ele>146.4</ele>
        <time>2025-06-15T08:49:49Z</time>
      </trkpt>
      <trkpt lat="45.13352" lon="0.59035">
        <ele>146</ele>
        <time>2025-06-15T08:49:50Z</time>
      </trkpt>
      <trkpt lat="45.13348" lon="0.59037">
        <ele>145.6</ele>
        <time>2025-06-15T08:49:51Z</time>
      </trkpt>
      <trkpt lat="45.13344" lon="0.59039">
        <ele>145.4</ele>
        <time>2025-06-15T08:49:52Z</time>
      </trkpt>
      <trkpt lat="45.13339" lon="0.59041">
        <ele>145.2</ele>
        <time>2025-06-15T08:49:53Z</time>
      </trkpt>
      <trkpt lat="45.13333" lon="0.59044">
        <ele>145.2</ele>
        <time>2025-06-15T08:49:54Z</time>
      </trkpt>
      <trkpt lat="45.13326" lon="0.59047">
        <ele>145.2</ele>
        <time>2025-06-15T08:49:55Z</time>
      </trkpt>
      <trkpt lat="45.13319" lon="0.5905">
        <ele>145.2</ele>
        <time>2025-06-15T08:49:56Z</time>
      </trkpt>
      <trkpt lat="45.13312" lon="0.59052">
        <ele>145</ele>
        <time>2025-06-15T08:49:57Z</time>
      </trkpt>
      <trkpt lat="45.13307" lon="0.59053">
        <ele>145.2</ele>
        <time>2025-06-15T08:49:58Z</time>
      </trkpt>
      <trkpt lat="45.13302" lon="0.59054">
        <ele>145.2</ele>
        <time>2025-06-15T08:49:59Z</time>
      </trkpt>
      <trkpt lat="45.13298" lon="0.59055">
        <ele>145</ele>
        <time>2025-06-15T08:50:00Z</time>
      </trkpt>
      <trkpt lat="45.13296" lon="0.59058">
        <ele>145</ele>
        <time>2025-06-15T08:50:01Z</time>
      </trkpt>
      <trkpt lat="45.13295" lon="0.59063">
        <ele>145</ele>
        <time>2025-06-15T08:50:02Z</time>
      </trkpt>
      <trkpt lat="45.13294" lon="0.59069">
        <ele>144.8</ele>
        <time>2025-06-15T08:50:03Z</time>
      </trkpt>
      <trkpt lat="45.13294" lon="0.59076">
        <ele>144.8</ele>
        <time>2025-06-15T08:50:04Z</time>
      </trkpt>
      <trkpt lat="45.13294" lon="0.59086">
        <ele>144.8</ele>
        <time>2025-06-15T08:50:05Z</time>
      </trkpt>
      <trkpt lat="45.13294" lon="0.59097">
        <ele>144.6</ele>
        <time>2025-06-15T08:50:06Z</time>
      </trkpt>
      <trkpt lat="45.13294" lon="0.59108">
        <ele>144.4</ele>
        <time>2025-06-15T08:50:07Z</time>
      </trkpt>
      <trkpt lat="45.13294" lon="0.59118">
        <ele>144.2</ele>
        <time>2025-06-15T08:50:08Z</time>
      </trkpt>
      <trkpt lat="45.13294" lon="0.59128">
        <ele>144</ele>
        <time>2025-06-15T08:50:09Z</time>
      </trkpt>
      <trkpt lat="45.13293" lon="0.59139">
        <ele>143</ele>
        <time>2025-06-15T08:50:10Z</time>
      </trkpt>
      <trkpt lat="45.13291" lon="0.5915">
        <ele>142.2</ele>
        <time>2025-06-15T08:50:11Z</time>
      </trkpt>
      <trkpt lat="45.1329" lon="0.59161">
        <ele>141</ele>
        <time>2025-06-15T08:50:12Z</time>
      </trkpt>
      <trkpt lat="45.13288" lon="0.59172">
        <ele>140.2</ele>
        <time>2025-06-15T08:50:13Z</time>
      </trkpt>
      <trkpt lat="45.13286" lon="0.59184">
        <ele>139</ele>
        <time>2025-06-15T08:50:14Z</time>
      </trkpt>
      <trkpt lat="45.13283" lon="0.59196">
        <ele>138.6</ele>
        <time>2025-06-15T08:50:15Z</time>
      </trkpt>
      <trkpt lat="45.1328" lon="0.59208">
        <ele>137.8</ele>
        <time>2025-06-15T08:50:16Z</time>
      </trkpt>
      <trkpt lat="45.13277" lon="0.59218">
        <ele>136.8</ele>
        <time>2025-06-15T08:50:17Z</time>
      </trkpt>
      <trkpt lat="45.13274" lon="0.59228">
        <ele>135.6</ele>
        <time>2025-06-15T08:50:18Z</time>
      </trkpt>
      <trkpt lat="45.13271" lon="0.59237">
        <ele>134.2</ele>
        <time>2025-06-15T08:50:19Z</time>
      </trkpt>
      <trkpt lat="45.13268" lon="0.59245">
        <ele>132.8</ele>
        <time>2025-06-15T08:50:20Z</time>
      </trkpt>
      <trkpt lat="45.13267" lon="0.59253">
        <ele>131.6</ele>
        <time>2025-06-15T08:50:21Z</time>
      </trkpt>
      <trkpt lat="45.13265" lon="0.59259">
        <ele>130.8</ele>
        <time>2025-06-15T08:50:22Z</time>
      </trkpt>
      <trkpt lat="45.13264" lon="0.59265">
        <ele>130</ele>
        <time>2025-06-15T08:50:23Z</time>
      </trkpt>
      <trkpt lat="45.13264" lon="0.59271">
        <ele>129.8</ele>
        <time>2025-06-15T08:50:24Z</time>
      </trkpt>
      <trkpt lat="45.13264" lon="0.59276">
        <ele>130</ele>
        <time>2025-06-15T08:50:25Z</time>
      </trkpt>
      <trkpt lat="45.13264" lon="0.5928">
        <ele>129.8</ele>
        <time>2025-06-15T08:50:26Z</time>
      </trkpt>
      <trkpt lat="45.13264" lon="0.59282">
        <ele>129.8</ele>
        <time>2025-06-15T08:50:27Z</time>
      </trkpt>
      <trkpt lat="45.13263" lon="0.59285">
        <ele>129.8</ele>
        <time>2025-06-15T08:50:28Z</time>
      </trkpt>
      <trkpt lat="45.13263" lon="0.59287">
        <ele>129.8</ele>
        <time>2025-06-15T08:50:29Z</time>
      </trkpt>
      <trkpt lat="45.13263" lon="0.59289">
        <ele>129.8</ele>
        <time>2025-06-15T08:50:30Z</time>
      </trkpt>
      <trkpt lat="45.13263" lon="0.59292">
        <ele>129.8</ele>
        <time>2025-06-15T08:50:31Z</time>
      </trkpt>
      <trkpt lat="45.13263" lon="0.59294">
        <ele>129.8</ele>
        <time>2025-06-15T08:50:32Z</time>
      </trkpt>
      <trkpt lat="45.13262" lon="0.59296">
        <ele>129.8</ele>
        <time>2025-06-15T08:50:33Z</time>
      </trkpt>
      <trkpt lat="45.13262" lon="0.59298">
        <ele>129.6</ele>
        <time>2025-06-15T08:50:34Z</time>
      </trkpt>
      <trkpt lat="45.13262" lon="0.593">
        <ele>129.6</ele>
        <time>2025-06-15T08:50:35Z</time>
      </trkpt>
      <trkpt lat="45.13262" lon="0.59302">
        <ele>129.6</ele>
        <time>2025-06-15T08:50:36Z</time>
      </trkpt>
      <trkpt lat="45.13262" lon="0.59303">
        <ele>129.6</ele>
        <time>2025-06-15T08:50:37Z</time>
      </trkpt>
      <trkpt lat="45.13262" lon="0.59305">
        <ele>129.6</ele>
        <time>2025-06-15T08:50:38Z</time>
      </trkpt>
      <trkpt lat="45.13262" lon="0.59307">
        <ele>129.6</ele>
        <time>2025-06-15T08:50:39Z</time>
      </trkpt>
      <trkpt lat="45.13261" lon="0.59309">
        <ele>129.4</ele>
        <time>2025-06-15T08:50:40Z</time>
      </trkpt>
      <trkpt lat="45.13261" lon="0.5931">
        <ele>129.4</ele>
        <time>2025-06-15T08:50:41Z</time>
      </trkpt>
      <trkpt lat="45.13261" lon="0.59312">
        <ele>129.4</ele>
        <time>2025-06-15T08:50:42Z</time>
      </trkpt>
      <trkpt lat="45.13261" lon="0.59314">
        <ele>129.4</ele>
        <time>2025-06-15T08:50:43Z</time>
      </trkpt>
      <trkpt lat="45.13261" lon="0.59316">
        <ele>129.2</ele>
        <time>2025-06-15T08:50:44Z</time>
      </trkpt>
      <trkpt lat="45.1326" lon="0.59317">
        <ele>129.2</ele>
        <time>2025-06-15T08:50:45Z</time>
      </trkpt>
      <trkpt lat="45.1326" lon="0.59319">
        <ele>129.2</ele>
        <time>2025-06-15T08:50:46Z</time>
      </trkpt>
      <trkpt lat="45.1326" lon="0.5932">
        <ele>129.2</ele>
        <time>2025-06-15T08:50:47Z</time>
      </trkpt>
      <trkpt lat="45.1326" lon="0.59322">
        <ele>129</ele>
        <time>2025-06-15T08:50:48Z</time>
      </trkpt>
      <trkpt lat="45.1326" lon="0.59323">
        <ele>129</ele>
        <time>2025-06-15T08:50:49Z</time>
      </trkpt>
      <trkpt lat="45.1326" lon="0.59325">
        <ele>129</ele>
        <time>2025-06-15T08:50:50Z</time>
      </trkpt>
      <trkpt lat="45.1326" lon="0.59326">
        <ele>128.8</ele>
        <time>2025-06-15T08:50:51Z</time>
      </trkpt>
      <trkpt lat="45.13259" lon="0.59327">
        <ele>128.8</ele>
        <time>2025-06-15T08:50:52Z</time>
      </trkpt>
      <trkpt lat="45.13259" lon="0.59329">
        <ele>128.8</ele>
        <time>2025-06-15T08:50:53Z</time>
      </trkpt>
      <trkpt lat="45.13259" lon="0.5933">
        <ele>128.8</ele>
        <time>2025-06-15T08:50:54Z</time>
      </trkpt>
      <trkpt lat="45.13259" lon="0.59332">
        <ele>128.8</ele>
        <time>2025-06-15T08:50:55Z</time>
      </trkpt>
      <trkpt lat="45.13259" lon="0.59333">
        <ele>128.8</ele>
        <time>2025-06-15T08:50:56Z</time>
      </trkpt>
      <trkpt lat="45.13259" lon="0.59334">
        <ele>128.6</ele>
        <time>2025-06-15T08:50:57Z</time>
      </trkpt>
      <trkpt lat="45.13258" lon="0.59336">
        <ele>128.6</ele>
        <time>2025-06-15T08:50:58Z</time>
      </trkpt>
      <trkpt lat="45.13258" lon="0.59337">
        <ele>128.6</ele>
        <time>2025-06-15T08:50:59Z</time>
      </trkpt>
      <trkpt lat="45.13258" lon="0.59339">
        <ele>128.6</ele>
        <time>2025-06-15T08:51:00Z</time>
      </trkpt>
      <trkpt lat="45.13258" lon="0.5934">
        <ele>128.6</ele>
        <time>2025-06-15T08:51:01Z</time>
      </trkpt>
      <trkpt lat="45.13258" lon="0.59341">
        <ele>128.4</ele>
        <time>2025-06-15T08:51:02Z</time>
      </trkpt>
      <trkpt lat="45.13258" lon="0.59343">
        <ele>128.4</ele>
        <time>2025-06-15T08:51:03Z</time>
      </trkpt>
      <trkpt lat="45.13257" lon="0.59344">
        <ele>128.2</ele>
        <time>2025-06-15T08:51:04Z</time>
      </trkpt>
      <trkpt lat="45.13257" lon="0.59345">
        <ele>128.2</ele>
        <time>2025-06-15T08:51:05Z</time>
      </trkpt>
      <trkpt lat="45.13257" lon="0.59346">
        <ele>128</ele>
        <time>2025-06-15T08:51:06Z</time>
      </trkpt>
      <trkpt lat="45.13257" lon="0.59348">
        <ele>128</ele>
        <time>2025-06-15T08:51:07Z</time>
      </trkpt>
      <trkpt lat="45.13257" lon="0.59349">
        <ele>128</ele>
        <time>2025-06-15T08:51:08Z</time>
      </trkpt>
      <trkpt lat="45.13257" lon="0.59351">
        <ele>128</ele>
        <time>2025-06-15T08:51:09Z</time>
      </trkpt>
      <trkpt lat="45.13257" lon="0.59352">
        <ele>128</ele>
        <time>2025-06-15T08:51:10Z</time>
      </trkpt>
      <trkpt lat="45.13257" lon="0.59353">
        <ele>127.8</ele>
        <time>2025-06-15T08:51:11Z</time>
      </trkpt>
      <trkpt lat="45.13257" lon="0.59355">
        <ele>127.8</ele>
        <time>2025-06-15T08:51:12Z</time>
      </trkpt>
      <trkpt lat="45.13257" lon="0.59356">
        <ele>127.8</ele>
        <time>2025-06-15T08:51:13Z</time>
      </trkpt>
      <trkpt lat="45.13257" lon="0.59357">
        <ele>127.6</ele>
        <time>2025-06-15T08:51:14Z</time>
      </trkpt>
      <trkpt lat="45.13257" lon="0.59359">
        <ele>127.6</ele>
        <time>2025-06-15T08:51:15Z</time>
      </trkpt>
      <trkpt lat="45.13256" lon="0.5936">
        <ele>127.4</ele>
        <time>2025-06-15T08:51:16Z</time>
      </trkpt>
      <trkpt lat="45.13256" lon="0.59362">
        <ele>127.2</ele>
        <time>2025-06-15T08:51:17Z</time>
      </trkpt>
      <trkpt lat="45.13256" lon="0.59363">
        <ele>127</ele>
        <time>2025-06-15T08:51:18Z</time>
      </trkpt>
      <trkpt lat="45.13256" lon="0.59365">
        <ele>126.8</ele>
        <time>2025-06-15T08:51:19Z</time>
      </trkpt>
      <trkpt lat="45.13256" lon="0.59366">
        <ele>126.8</ele>
        <time>2025-06-15T08:51:20Z</time>
      </trkpt>
      <trkpt lat="45.13256" lon="0.59367">
        <ele>126.6</ele>
        <time>2025-06-15T08:51:21Z</time>
      </trkpt>
      <trkpt lat="45.13256" lon="0.59368">
        <ele>126.6</ele>
        <time>2025-06-15T08:51:22Z</time>
      </trkpt>
      <trkpt lat="45.13256" lon="0.59369">
        <ele>126.6</ele>
        <time>2025-06-15T08:51:23Z</time>
      </trkpt>
      <trkpt lat="45.13255" lon="0.5937">
        <ele>126.4</ele>
        <time>2025-06-15T08:51:24Z</time>
      </trkpt>
      <trkpt lat="45.13255" lon="0.59372">
        <ele>126.4</ele>
        <time>2025-06-15T08:51:25Z</time>
      </trkpt>
      <trkpt lat="45.13255" lon="0.59374">
        <ele>126.4</ele>
        <time>2025-06-15T08:51:26Z</time>
      </trkpt>
      <trkpt lat="45.13255" lon="0.59375">
        <ele>126.4</ele>
        <time>2025-06-15T08:51:27Z</time>
      </trkpt>
      <trkpt lat="45.13255" lon="0.59376">
        <ele>126.4</ele>
        <time>2025-06-15T08:51:28Z</time>
      </trkpt>
      <trkpt lat="45.13254" lon="0.59377">
        <ele>126.4</ele>
        <time>2025-06-15T08:51:29Z</time>
      </trkpt>
      <trkpt lat="45.13254" lon="0.59378">
        <ele>126.2</ele>
        <time>2025-06-15T08:51:30Z</time>
      </trkpt>
      <trkpt lat="45.13254" lon="0.59379">
        <ele>126.2</ele>
        <time>2025-06-15T08:51:31Z</time>
      </trkpt>
      <trkpt lat="45.13254" lon="0.59381">
        <ele>126.2</ele>
        <time>2025-06-15T08:51:32Z</time>
      </trkpt>
      <trkpt lat="45.13253" lon="0.59382">
        <ele>126.2</ele>
        <time>2025-06-15T08:51:33Z</time>
      </trkpt>
      <trkpt lat="45.13253" lon="0.59383">
        <ele>126</ele>
        <time>2025-06-15T08:51:34Z</time>
      </trkpt>
      <trkpt lat="45.13253" lon="0.59384">
        <ele>126</ele>
        <time>2025-06-15T08:51:35Z</time>
      </trkpt>
      <trkpt lat="45.13253" lon="0.59385">
        <ele>126</ele>
        <time>2025-06-15T08:51:36Z</time>
      </trkpt>
      <trkpt lat="45.13253" lon="0.59387">
        <ele>125.8</ele>
        <time>2025-06-15T08:51:37Z</time>
      </trkpt>
      <trkpt lat="45.13253" lon="0.59388">
        <ele>125.8</ele>
        <time>2025-06-15T08:51:38Z</time>
      </trkpt>
      <trkpt lat="45.13253" lon="0.59389">
        <ele>125.8</ele>
        <time>2025-06-15T08:51:39Z</time>
      </trkpt>
      <trkpt lat="45.13253" lon="0.5939">
        <ele>125.8</ele>
        <time>2025-06-15T08:51:40Z</time>
      </trkpt>
      <trkpt lat="45.13253" lon="0.59391">
        <ele>125.8</ele>
        <time>2025-06-15T08:51:41Z</time>
      </trkpt>
      <trkpt lat="45.13253" lon="0.59392">
        <ele>126</ele>
        <time>2025-06-15T08:51:42Z</time>
      </trkpt>
      <trkpt lat="45.13253" lon="0.59393">
        <ele>126</ele>
        <time>2025-06-15T08:51:43Z</time>
      </trkpt>
      <trkpt lat="45.13253" lon="0.59394">
        <ele>125.8</ele>
        <time>2025-06-15T08:51:44Z</time>
      </trkpt>
      <trkpt lat="45.13253" lon="0.59395">
        <ele>125.8</ele>
        <time>2025-06-15T08:51:45Z</time>
      </trkpt>
      <trkpt lat="45.13253" lon="0.59397">
        <ele>125.8</ele>
        <time>2025-06-15T08:51:46Z</time>
      </trkpt>
      <trkpt lat="45.13252" lon="0.59398">
        <ele>125.8</ele>
        <time>2025-06-15T08:51:47Z</time>
      </trkpt>
      <trkpt lat="45.13252" lon="0.59399">
        <ele>125.8</ele>
        <time>2025-06-15T08:51:48Z</time>
      </trkpt>
      <trkpt lat="45.13252" lon="0.594">
        <ele>125.8</ele>
        <time>2025-06-15T08:51:49Z</time>
      </trkpt>
      <trkpt lat="45.13252" lon="0.59402">
        <ele>125.8</ele>
        <time>2025-06-15T08:51:50Z</time>
      </trkpt>
      <trkpt lat="45.13252" lon="0.59403">
        <ele>125.8</ele>
        <time>2025-06-15T08:51:51Z</time>
      </trkpt>
      <trkpt lat="45.13252" lon="0.59404">
        <ele>125.8</ele>
        <time>2025-06-15T08:51:52Z</time>
      </trkpt>
      <trkpt lat="45.13251" lon="0.59405">
        <ele>125.8</ele>
        <time>2025-06-15T08:51:53Z</time>
      </trkpt>
      <trkpt lat="45.13251" lon="0.59406">
        <ele>125.8</ele>
        <time>2025-06-15T08:51:54Z</time>
      </trkpt>
      <trkpt lat="45.13251" lon="0.59407">
        <ele>125.8</ele>
        <time>2025-06-15T08:51:55Z</time>
      </trkpt>
      <trkpt lat="45.1325" lon="0.59408">
        <ele>125.8</ele>
        <time>2025-06-15T08:51:56Z</time>
      </trkpt>
      <trkpt lat="45.13251" lon="0.59409">
        <ele>125.8</ele>
        <time>2025-06-15T08:51:57Z</time>
      </trkpt>
      <trkpt lat="45.1325" lon="0.59411">
        <ele>125.8</ele>
        <time>2025-06-15T08:51:58Z</time>
      </trkpt>
      <trkpt lat="45.1325" lon="0.59412">
        <ele>125.8</ele>
        <time>2025-06-15T08:51:59Z</time>
      </trkpt>
      <trkpt lat="45.1325" lon="0.59413">
        <ele>125.8</ele>
        <time>2025-06-15T08:52:00Z</time>
      </trkpt>
      <trkpt lat="45.1325" lon="0.59414">
        <ele>125.8</ele>
        <time>2025-06-15T08:52:01Z</time>
      </trkpt>
      <trkpt lat="45.1325" lon="0.59415">
        <ele>125.8</ele>
        <time>2025-06-15T08:52:02Z</time>
      </trkpt>
      <trkpt lat="45.1325" lon="0.59416">
        <ele>125.6</ele>
        <time>2025-06-15T08:52:03Z</time>
      </trkpt>
      <trkpt lat="45.13249" lon="0.59417">
        <ele>125.6</ele>
        <time>2025-06-15T08:52:04Z</time>
      </trkpt>
      <trkpt lat="45.13249" lon="0.59418">
        <ele>125.6</ele>
        <time>2025-06-15T08:52:05Z</time>
      </trkpt>
      <trkpt lat="45.13249" lon="0.59419">
        <ele>125.6</ele>
        <time>2025-06-15T08:52:06Z</time>
      </trkpt>
      <trkpt lat="45.13249" lon="0.5942">
        <ele>125.6</ele>
        <time>2025-06-15T08:52:07Z</time>
      </trkpt>
      <trkpt lat="45.13249" lon="0.59422">
        <ele>125.6</ele>
        <time>2025-06-15T08:52:08Z</time>
      </trkpt>
      <trkpt lat="45.13249" lon="0.59423">
        <ele>125.4</ele>
        <time>2025-06-15T08:52:09Z</time>
      </trkpt>
      <trkpt lat="45.13249" lon="0.59424">
        <ele>125.4</ele>
        <time>2025-06-15T08:52:10Z</time>
      </trkpt>
      <trkpt lat="45.13249" lon="0.59425">
        <ele>125.4</ele>
        <time>2025-06-15T08:52:11Z</time>
      </trkpt>
      <trkpt lat="45.13248" lon="0.59426">
        <ele>125.4</ele>
        <time>2025-06-15T08:52:12Z</time>
      </trkpt>
      <trkpt lat="45.13248" lon="0.59428">
        <ele>125.4</ele>
        <time>2025-06-15T08:52:13Z</time>
      </trkpt>
      <trkpt lat="45.13248" lon="0.59429">
        <ele>125.4</ele>
        <time>2025-06-15T08:52:14Z</time>
      </trkpt>
      <trkpt lat="45.13248" lon="0.5943">
        <ele>125.2</ele>
        <time>2025-06-15T08:52:15Z</time>
      </trkpt>
      <trkpt lat="45.13248" lon="0.59431">
        <ele>125.2</ele>
        <time>2025-06-15T08:52:16Z</time>
      </trkpt>
      <trkpt lat="45.13247" lon="0.59432">
        <ele>125.2</ele>
        <time>2025-06-15T08:52:17Z</time>
      </trkpt>
      <trkpt lat="45.13247" lon="0.59433">
        <ele>125</ele>
        <time>2025-06-15T08:52:18Z</time>
      </trkpt>
      <trkpt lat="45.13247" lon="0.59434">
        <ele>124.8</ele>
        <time>2025-06-15T08:52:19Z</time>
      </trkpt>
      <trkpt lat="45.13247" lon="0.59435">
        <ele>124.8</ele>
        <time>2025-06-15T08:52:20Z</time>
      </trkpt>
      <trkpt lat="45.13247" lon="0.59436">
        <ele>124.6</ele>
        <time>2025-06-15T08:52:21Z</time>
      </trkpt>
      <trkpt lat="45.13247" lon="0.59437">
        <ele>126.2</ele>
        <time>2025-06-15T08:52:22Z</time>
      </trkpt>
      <trkpt lat="45.13247" lon="0.59438">
        <ele>127.8</ele>
        <time>2025-06-15T08:52:23Z</time>
      </trkpt>
      <trkpt lat="45.13246" lon="0.59439">
        <ele>129.4</ele>
        <time>2025-06-15T08:52:24Z</time>
      </trkpt>
      <trkpt lat="45.13246" lon="0.59441">
        <ele>130.8</ele>
        <time>2025-06-15T08:52:25Z</time>
      </trkpt>
      <trkpt lat="45.13246" lon="0.59442">
        <ele>132.4</ele>
        <time>2025-06-15T08:52:26Z</time>
      </trkpt>
      <trkpt lat="45.13246" lon="0.59443">
        <ele>134</ele>
        <time>2025-06-15T08:52:27Z</time>
      </trkpt>
      <trkpt lat="45.13246" lon="0.59444">
        <ele>135.6</ele>
        <time>2025-06-15T08:52:28Z</time>
      </trkpt>
      <trkpt lat="45.13246" lon="0.59446">
        <ele>135.4</ele>
        <time>2025-06-15T08:52:29Z</time>
      </trkpt>
      <trkpt lat="45.13245" lon="0.59446">
        <ele>135.6</ele>
        <time>2025-06-15T08:52:30Z</time>
      </trkpt>
      <trkpt lat="45.13245" lon="0.59447">
        <ele>135.6</ele>
        <time>2025-06-15T08:52:31Z</time>
      </trkpt>
      <trkpt lat="45.13245" lon="0.59448">
        <ele>135.8</ele>
        <time>2025-06-15T08:52:32Z</time>
      </trkpt>
      <trkpt lat="45.13245" lon="0.5945">
        <ele>135.8</ele>
        <time>2025-06-15T08:52:33Z</time>
      </trkpt>
      <trkpt lat="45.13245" lon="0.59451">
        <ele>136</ele>
        <time>2025-06-15T08:52:34Z</time>
      </trkpt>
      <trkpt lat="45.13245" lon="0.59452">
        <ele>136.2</ele>
        <time>2025-06-15T08:52:35Z</time>
      </trkpt>
      <trkpt lat="45.13245" lon="0.59453">
        <ele>136.6</ele>
        <time>2025-06-15T08:52:36Z</time>
      </trkpt>
      <trkpt lat="45.13245" lon="0.59454">
        <ele>136.8</ele>
        <time>2025-06-15T08:52:37Z</time>
      </trkpt>
      <trkpt lat="45.13245" lon="0.59455">
        <ele>137</ele>
        <time>2025-06-15T08:52:38Z</time>
      </trkpt>
      <trkpt lat="45.13245" lon="0.59456">
        <ele>137.2</ele>
        <time>2025-06-15T08:52:39Z</time>
      </trkpt>
      <trkpt lat="45.13245" lon="0.59457">
        <ele>137.4</ele>
        <time>2025-06-15T08:52:40Z</time>
      </trkpt>
      <trkpt lat="45.13244" lon="0.59458">
        <ele>137.6</ele>
        <time>2025-06-15T08:52:41Z</time>
      </trkpt>
      <trkpt lat="45.13244" lon="0.59459">
        <ele>137.8</ele>
        <time>2025-06-15T08:52:42Z</time>
      </trkpt>
      <trkpt lat="45.13244" lon="0.59461">
        <ele>138.2</ele>
        <time>2025-06-15T08:52:43Z</time>
      </trkpt>
      <trkpt lat="45.13244" lon="0.59462">
        <ele>138.4</ele>
        <time>2025-06-15T08:52:44Z</time>
      </trkpt>
      <trkpt lat="45.13243" lon="0.59463">
        <ele>138.6</ele>
        <time>2025-06-15T08:52:45Z</time>
      </trkpt>
      <trkpt lat="45.13243" lon="0.59464">
        <ele>138.8</ele>
        <time>2025-06-15T08:52:46Z</time>
      </trkpt>
      <trkpt lat="45.13243" lon="0.59466">
        <ele>139</ele>
        <time>2025-06-15T08:52:47Z</time>
      </trkpt>
      <trkpt lat="45.13243" lon="0.59467">
        <ele>139.2</ele>
        <time>2025-06-15T08:52:48Z</time>
      </trkpt>
      <trkpt lat="45.13243" lon="0.59468">
        <ele>139.6</ele>
        <time>2025-06-15T08:52:49Z</time>
      </trkpt>
      <trkpt lat="45.13243" lon="0.59469">
        <ele>139.8</ele>
        <time>2025-06-15T08:52:50Z</time>
      </trkpt>
      <trkpt lat="45.13242" lon="0.5947">
        <ele>140</ele>
        <time>2025-06-15T08:52:51Z</time>
      </trkpt>
      <trkpt lat="45.13242" lon="0.59471">
        <ele>140.2</ele>
        <time>2025-06-15T08:52:52Z</time>
      </trkpt>
      <trkpt lat="45.13242" lon="0.59472">
        <ele>140.4</ele>
        <time>2025-06-15T08:52:53Z</time>
      </trkpt>
      <trkpt lat="45.13242" lon="0.59473">
        <ele>140.6</ele>
        <time>2025-06-15T08:52:54Z</time>
      </trkpt>
      <trkpt lat="45.13242" lon="0.59474">
        <ele>141</ele>
        <time>2025-06-15T08:52:55Z</time>
      </trkpt>
      <trkpt lat="45.13242" lon="0.59476">
        <ele>141.2</ele>
        <time>2025-06-15T08:52:56Z</time>
      </trkpt>
      <trkpt lat="45.13241" lon="0.59477">
        <ele>141.4</ele>
        <time>2025-06-15T08:52:57Z</time>
      </trkpt>
      <trkpt lat="45.13241" lon="0.59478">
        <ele>141.6</ele>
        <time>2025-06-15T08:52:58Z</time>
      </trkpt>
      <trkpt lat="45.13241" lon="0.59478">
        <ele>141.8</ele>
        <time>2025-06-15T08:52:59Z</time>
      </trkpt>
      <trkpt lat="45.13241" lon="0.5948">
        <ele>142</ele>
        <time>2025-06-15T08:53:00Z</time>
      </trkpt>
      <trkpt lat="45.13241" lon="0.59481">
        <ele>142.4</ele>
        <time>2025-06-15T08:53:01Z</time>
      </trkpt>
      <trkpt lat="45.13241" lon="0.59482">
        <ele>142.6</ele>
        <time>2025-06-15T08:53:02Z</time>
      </trkpt>
      <trkpt lat="45.13241" lon="0.59484">
        <ele>142.8</ele>
        <time>2025-06-15T08:53:03Z</time>
      </trkpt>
      <trkpt lat="45.1324" lon="0.59485">
        <ele>143</ele>
        <time>2025-06-15T08:53:04Z</time>
      </trkpt>
      <trkpt lat="45.1324" lon="0.59486">
        <ele>143.2</ele>
        <time>2025-06-15T08:53:05Z</time>
      </trkpt>
      <trkpt lat="45.1324" lon="0.59487">
        <ele>143.4</ele>
        <time>2025-06-15T08:53:06Z</time>
      </trkpt>
      <trkpt lat="45.1324" lon="0.59488">
        <ele>143.6</ele>
        <time>2025-06-15T08:53:07Z</time>
      </trkpt>
      <trkpt lat="45.1324" lon="0.59489">
        <ele>143.8</ele>
        <time>2025-06-15T08:53:08Z</time>
      </trkpt>
      <trkpt lat="45.1324" lon="0.5949">
        <ele>144</ele>
        <time>2025-06-15T08:53:09Z</time>
      </trkpt>
      <trkpt lat="45.1324" lon="0.59491">
        <ele>144.2</ele>
        <time>2025-06-15T08:53:10Z</time>
      </trkpt>
      <trkpt lat="45.1324" lon="0.59493">
        <ele>144.4</ele>
        <time>2025-06-15T08:53:11Z</time>
      </trkpt>
      <trkpt lat="45.13239" lon="0.59494">
        <ele>144.8</ele>
        <time>2025-06-15T08:53:12Z</time>
      </trkpt>
      <trkpt lat="45.13239" lon="0.59495">
        <ele>145</ele>
        <time>2025-06-15T08:53:13Z</time>
      </trkpt>
      <trkpt lat="45.13239" lon="0.59496">
        <ele>145.2</ele>
        <time>2025-06-15T08:53:14Z</time>
      </trkpt>
      <trkpt lat="45.13239" lon="0.59498">
        <ele>145.4</ele>
        <time>2025-06-15T08:53:15Z</time>
      </trkpt>
      <trkpt lat="45.13239" lon="0.59499">
        <ele>145.6</ele>
        <time>2025-06-15T08:53:16Z</time>
      </trkpt>
      <trkpt lat="45.13239" lon="0.59499">
        <ele>145.8</ele>
        <time>2025-06-15T08:53:17Z</time>
      </trkpt>
      <trkpt lat="45.13238" lon="0.59501">
        <ele>146</ele>
        <time>2025-06-15T08:53:18Z</time>
      </trkpt>
      <trkpt lat="45.13238" lon="0.59502">
        <ele>146.2</ele>
        <time>2025-06-15T08:53:19Z</time>
      </trkpt>
      <trkpt lat="45.13238" lon="0.59503">
        <ele>146.4</ele>
        <time>2025-06-15T08:53:20Z</time>
      </trkpt>
      <trkpt lat="45.13238" lon="0.59504">
        <ele>146.6</ele>
        <time>2025-06-15T08:53:21Z</time>
      </trkpt>
      <trkpt lat="45.13238" lon="0.59505">
        <ele>146.8</ele>
        <time>2025-06-15T08:53:22Z</time>
      </trkpt>
      <trkpt lat="45.13238" lon="0.59506">
        <ele>147.2</ele>
        <time>2025-06-15T08:53:23Z</time>
      </trkpt>
      <trkpt lat="45.13239" lon="0.59507">
        <ele>147.2</ele>
        <time>2025-06-15T08:53:24Z</time>
      </trkpt>
      <trkpt lat="45.1324" lon="0.59509">
        <ele>147.4</ele>
        <time>2025-06-15T08:53:25Z</time>
      </trkpt>
      <trkpt lat="45.1324" lon="0.5951">
        <ele>147.6</ele>
        <time>2025-06-15T08:53:26Z</time>
      </trkpt>
      <trkpt lat="45.13241" lon="0.59511">
        <ele>147.8</ele>
        <time>2025-06-15T08:53:27Z</time>
      </trkpt>
      <trkpt lat="45.13242" lon="0.59511">
        <ele>148</ele>
        <time>2025-06-15T08:53:28Z</time>
      </trkpt>
      <trkpt lat="45.13243" lon="0.59512">
        <ele>148.2</ele>
        <time>2025-06-15T08:53:29Z</time>
      </trkpt>
      <trkpt lat="45.13244" lon="0.59513">
        <ele>148.4</ele>
        <time>2025-06-15T08:53:30Z</time>
      </trkpt>
      <trkpt lat="45.13245" lon="0.59514">
        <ele>148.4</ele>
        <time>2025-06-15T08:53:31Z</time>
      </trkpt>
      <trkpt lat="45.13247" lon="0.59514">
        <ele>148.6</ele>
        <time>2025-06-15T08:53:32Z</time>
      </trkpt>
      <trkpt lat="45.13248" lon="0.59515">
        <ele>148.8</ele>
        <time>2025-06-15T08:53:33Z</time>
      </trkpt>
      <trkpt lat="45.13249" lon="0.59515">
        <ele>149</ele>
        <time>2025-06-15T08:53:34Z</time>
      </trkpt>
      <trkpt lat="45.13251" lon="0.59516">
        <ele>149</ele>
        <time>2025-06-15T08:53:35Z</time>
      </trkpt>
      <trkpt lat="45.13252" lon="0.59516">
        <ele>149</ele>
        <time>2025-06-15T08:53:36Z</time>
      </trkpt>
      <trkpt lat="45.13253" lon="0.59517">
        <ele>149</ele>
        <time>2025-06-15T08:53:37Z</time>
      </trkpt>
      <trkpt lat="45.13255" lon="0.59518">
        <ele>148.8</ele>
        <time>2025-06-15T08:53:38Z</time>
      </trkpt>
      <trkpt lat="45.13256" lon="0.59518">
        <ele>148.8</ele>
        <time>2025-06-15T08:53:39Z</time>
      </trkpt>
      <trkpt lat="45.13258" lon="0.59518">
        <ele>148.8</ele>
        <time>2025-06-15T08:53:40Z</time>
      </trkpt>
      <trkpt lat="45.13259" lon="0.59519">
        <ele>148.8</ele>
        <time>2025-06-15T08:53:41Z</time>
      </trkpt>
      <trkpt lat="45.1326" lon="0.59519">
        <ele>148.8</ele>
        <time>2025-06-15T08:53:42Z</time>
      </trkpt>
      <trkpt lat="45.13262" lon="0.5952">
        <ele>148.6</ele>
        <time>2025-06-15T08:53:43Z</time>
      </trkpt>
      <trkpt lat="45.13264" lon="0.5952">
        <ele>148.6</ele>
        <time>2025-06-15T08:53:44Z</time>
      </trkpt>
      <trkpt lat="45.13266" lon="0.59521">
        <ele>148.6</ele>
        <time>2025-06-15T08:53:45Z</time>
      </trkpt>
      <trkpt lat="45.13267" lon="0.59522">
        <ele>148.6</ele>
        <time>2025-06-15T08:53:46Z</time>
      </trkpt>
      <trkpt lat="45.13269" lon="0.59522">
        <ele>148.4</ele>
        <time>2025-06-15T08:53:47Z</time>
      </trkpt>
      <trkpt lat="45.13271" lon="0.59523">
        <ele>148.4</ele>
        <time>2025-06-15T08:53:48Z</time>
      </trkpt>
      <trkpt lat="45.13274" lon="0.59523">
        <ele>148.4</ele>
        <time>2025-06-15T08:53:49Z</time>
      </trkpt>
      <trkpt lat="45.13276" lon="0.59523">
        <ele>148.2</ele>
        <time>2025-06-15T08:53:50Z</time>
      </trkpt>
      <trkpt lat="45.13279" lon="0.59524">
        <ele>148.2</ele>
        <time>2025-06-15T08:53:51Z</time>
      </trkpt>
      <trkpt lat="45.13282" lon="0.59524">
        <ele>148</ele>
        <time>2025-06-15T08:53:52Z</time>
      </trkpt>
      <trkpt lat="45.13286" lon="0.59524">
        <ele>148</ele>
        <time>2025-06-15T08:53:53Z</time>
      </trkpt>
      <trkpt lat="45.13289" lon="0.59525">
        <ele>147.6</ele>
        <time>2025-06-15T08:53:54Z</time>
      </trkpt>
      <trkpt lat="45.13293" lon="0.59528">
        <ele>147.4</ele>
        <time>2025-06-15T08:53:55Z</time>
      </trkpt>
      <trkpt lat="45.13296" lon="0.59532">
        <ele>147.2</ele>
        <time>2025-06-15T08:53:56Z</time>
      </trkpt>
      <trkpt lat="45.13298" lon="0.59536">
        <ele>147</ele>
        <time>2025-06-15T08:53:57Z</time>
      </trkpt>
      <trkpt lat="45.13299" lon="0.5954">
        <ele>146.8</ele>
        <time>2025-06-15T08:53:58Z</time>
      </trkpt>
      <trkpt lat="45.13299" lon="0.59541">
        <ele>146.8</ele>
        <time>2025-06-15T08:53:59Z</time>
      </trkpt>
      <trkpt lat="45.133" lon="0.59543">
        <ele>147</ele>
        <time>2025-06-15T08:54:00Z</time>
      </trkpt>
      <trkpt lat="45.133" lon="0.59545">
        <ele>147.2</ele>
        <time>2025-06-15T08:54:01Z</time>
      </trkpt>
      <trkpt lat="45.133" lon="0.59547">
        <ele>147.6</ele>
        <time>2025-06-15T08:54:02Z</time>
      </trkpt>
      <trkpt lat="45.133" lon="0.59549">
        <ele>147.8</ele>
        <time>2025-06-15T08:54:03Z</time>
      </trkpt>
      <trkpt lat="45.133" lon="0.59551">
        <ele>148</ele>
        <time>2025-06-15T08:54:04Z</time>
      </trkpt>
      <trkpt lat="45.13301" lon="0.59553">
        <ele>148.4</ele>
        <time>2025-06-15T08:54:05Z</time>
      </trkpt>
      <trkpt lat="45.13301" lon="0.59555">
        <ele>148.6</ele>
        <time>2025-06-15T08:54:06Z</time>
      </trkpt>
      <trkpt lat="45.13301" lon="0.59558">
        <ele>148.8</ele>
        <time>2025-06-15T08:54:07Z</time>
      </trkpt>
      <trkpt lat="45.13301" lon="0.5956">
        <ele>149.2</ele>
        <time>2025-06-15T08:54:08Z</time>
      </trkpt>
      <trkpt lat="45.13301" lon="0.59562">
        <ele>149.4</ele>
        <time>2025-06-15T08:54:09Z</time>
      </trkpt>
      <trkpt lat="45.13302" lon="0.59565">
        <ele>149.6</ele>
        <time>2025-06-15T08:54:10Z</time>
      </trkpt>
      <trkpt lat="45.13302" lon="0.59567">
        <ele>149.8</ele>
        <time>2025-06-15T08:54:11Z</time>
      </trkpt>
      <trkpt lat="45.13302" lon="0.5957">
        <ele>150</ele>
        <time>2025-06-15T08:54:12Z</time>
      </trkpt>
      <trkpt lat="45.13302" lon="0.59572">
        <ele>150.2</ele>
        <time>2025-06-15T08:54:13Z</time>
      </trkpt>
      <trkpt lat="45.13302" lon="0.59574">
        <ele>150.4</ele>
        <time>2025-06-15T08:54:14Z</time>
      </trkpt>
      <trkpt lat="45.13302" lon="0.59576">
        <ele>150.6</ele>
        <time>2025-06-15T08:54:15Z</time>
      </trkpt>
      <trkpt lat="45.13302" lon="0.59578">
        <ele>150.8</ele>
        <time>2025-06-15T08:54:16Z</time>
      </trkpt>
      <trkpt lat="45.13302" lon="0.59581">
        <ele>151</ele>
        <time>2025-06-15T08:54:17Z</time>
      </trkpt>
      <trkpt lat="45.13302" lon="0.59584">
        <ele>151.2</ele>
        <time>2025-06-15T08:54:18Z</time>
      </trkpt>
      <trkpt lat="45.13302" lon="0.59586">
        <ele>151.4</ele>
        <time>2025-06-15T08:54:19Z</time>
      </trkpt>
      <trkpt lat="45.13303" lon="0.59589">
        <ele>151.6</ele>
        <time>2025-06-15T08:54:20Z</time>
      </trkpt>
      <trkpt lat="45.13303" lon="0.59592">
        <ele>151.6</ele>
        <time>2025-06-15T08:54:21Z</time>
      </trkpt>
      <trkpt lat="45.13302" lon="0.59594">
        <ele>151.8</ele>
        <time>2025-06-15T08:54:22Z</time>
      </trkpt>
      <trkpt lat="45.13302" lon="0.59597">
        <ele>152</ele>
        <time>2025-06-15T08:54:23Z</time>
      </trkpt>
      <trkpt lat="45.13302" lon="0.59599">
        <ele>152</ele>
        <time>2025-06-15T08:54:24Z</time>
      </trkpt>
      <trkpt lat="45.13302" lon="0.59602">
        <ele>152.2</ele>
        <time>2025-06-15T08:54:25Z</time>
      </trkpt>
      <trkpt lat="45.13302" lon="0.59605">
        <ele>152.4</ele>
        <time>2025-06-15T08:54:26Z</time>
      </trkpt>
      <trkpt lat="45.13302" lon="0.59607">
        <ele>152.6</ele>
        <time>2025-06-15T08:54:27Z</time>
      </trkpt>
      <trkpt lat="45.13302" lon="0.5961">
        <ele>152.8</ele>
        <time>2025-06-15T08:54:28Z</time>
      </trkpt>
      <trkpt lat="45.13303" lon="0.59612">
        <ele>152.8</ele>
        <time>2025-06-15T08:54:29Z</time>
      </trkpt>
      <trkpt lat="45.13302" lon="0.59614">
        <ele>153</ele>
        <time>2025-06-15T08:54:30Z</time>
      </trkpt>
      <trkpt lat="45.13302" lon="0.59616">
        <ele>153.2</ele>
        <time>2025-06-15T08:54:31Z</time>
      </trkpt>
      <trkpt lat="45.13302" lon="0.59618">
        <ele>153.4</ele>
        <time>2025-06-15T08:54:32Z</time>
      </trkpt>
      <trkpt lat="45.13303" lon="0.59621">
        <ele>153.6</ele>
        <time>2025-06-15T08:54:33Z</time>
      </trkpt>
      <trkpt lat="45.13303" lon="0.59623">
        <ele>153.8</ele>
        <time>2025-06-15T08:54:34Z</time>
      </trkpt>
      <trkpt lat="45.13303" lon="0.59626">
        <ele>154</ele>
        <time>2025-06-15T08:54:35Z</time>
      </trkpt>
      <trkpt lat="45.13303" lon="0.59629">
        <ele>154.2</ele>
        <time>2025-06-15T08:54:36Z</time>
      </trkpt>
      <trkpt lat="45.13303" lon="0.59632">
        <ele>154.4</ele>
        <time>2025-06-15T08:54:37Z</time>
      </trkpt>
      <trkpt lat="45.13303" lon="0.59634">
        <ele>154.6</ele>
        <time>2025-06-15T08:54:38Z</time>
      </trkpt>
      <trkpt lat="45.13303" lon="0.59637">
        <ele>154.6</ele>
        <time>2025-06-15T08:54:39Z</time>
      </trkpt>
      <trkpt lat="45.13303" lon="0.5964">
        <ele>154.8</ele>
        <time>2025-06-15T08:54:40Z</time>
      </trkpt>
      <trkpt lat="45.13304" lon="0.59642">
        <ele>155</ele>
        <time>2025-06-15T08:54:41Z</time>
      </trkpt>
      <trkpt lat="45.13304" lon="0.59645">
        <ele>155.2</ele>
        <time>2025-06-15T08:54:42Z</time>
      </trkpt>
      <trkpt lat="45.13304" lon="0.59647">
        <ele>155.4</ele>
        <time>2025-06-15T08:54:43Z</time>
      </trkpt>
      <trkpt lat="45.13303" lon="0.5965">
        <ele>155.4</ele>
        <time>2025-06-15T08:54:44Z</time>
      </trkpt>
      <trkpt lat="45.13304" lon="0.59653">
        <ele>155.6</ele>
        <time>2025-06-15T08:54:45Z</time>
      </trkpt>
      <trkpt lat="45.13305" lon="0.59655">
        <ele>155.8</ele>
        <time>2025-06-15T08:54:46Z</time>
      </trkpt>
      <trkpt lat="45.13306" lon="0.59656">
        <ele>155.8</ele>
        <time>2025-06-15T08:54:47Z</time>
      </trkpt>
      <trkpt lat="45.13308" lon="0.59657">
        <ele>156</ele>
        <time>2025-06-15T08:54:48Z</time>
      </trkpt>
      <trkpt lat="45.1331" lon="0.59656">
        <ele>156</ele>
        <time>2025-06-15T08:54:49Z</time>
      </trkpt>
      <trkpt lat="45.13313" lon="0.59656">
        <ele>156</ele>
        <time>2025-06-15T08:54:50Z</time>
      </trkpt>
      <trkpt lat="45.13316" lon="0.59656">
        <ele>155.8</ele>
        <time>2025-06-15T08:54:51Z</time>
      </trkpt>
      <trkpt lat="45.1332" lon="0.59656">
        <ele>155.6</ele>
        <time>2025-06-15T08:54:52Z</time>
      </trkpt>
      <trkpt lat="45.13324" lon="0.59657">
        <ele>155.4</ele>
        <time>2025-06-15T08:54:53Z</time>
      </trkpt>
      <trkpt lat="45.13329" lon="0.59659">
        <ele>155</ele>
        <time>2025-06-15T08:54:54Z</time>
      </trkpt>
      <trkpt lat="45.13333" lon="0.59664">
        <ele>154.4</ele>
        <time>2025-06-15T08:54:55Z</time>
      </trkpt>
      <trkpt lat="45.13337" lon="0.59669">
        <ele>154</ele>
        <time>2025-06-15T08:54:56Z</time>
      </trkpt>
      <trkpt lat="45.13341" lon="0.59674">
        <ele>153.6</ele>
        <time>2025-06-15T08:54:57Z</time>
      </trkpt>
      <trkpt lat="45.13343" lon="0.59679">
        <ele>153.4</ele>
        <time>2025-06-15T08:54:58Z</time>
      </trkpt>
      <trkpt lat="45.13346" lon="0.59684">
        <ele>153.2</ele>
        <time>2025-06-15T08:54:59Z</time>
      </trkpt>
      <trkpt lat="45.13349" lon="0.59688">
        <ele>153.2</ele>
        <time>2025-06-15T08:55:00Z</time>
      </trkpt>
      <trkpt lat="45.13352" lon="0.59692">
        <ele>153.2</ele>
        <time>2025-06-15T08:55:01Z</time>
      </trkpt>
      <trkpt lat="45.13355" lon="0.59695">
        <ele>153.2</ele>
        <time>2025-06-15T08:55:02Z</time>
      </trkpt>
      <trkpt lat="45.13358" lon="0.59698">
        <ele>153.2</ele>
        <time>2025-06-15T08:55:03Z</time>
      </trkpt>
      <trkpt lat="45.13362" lon="0.59701">
        <ele>153.2</ele>
        <time>2025-06-15T08:55:04Z</time>
      </trkpt>
      <trkpt lat="45.13365" lon="0.59703">
        <ele>153.2</ele>
        <time>2025-06-15T08:55:05Z</time>
      </trkpt>
      <trkpt lat="45.13369" lon="0.59705">
        <ele>153.2</ele>
        <time>2025-06-15T08:55:06Z</time>
      </trkpt>
      <trkpt lat="45.13373" lon="0.59707">
        <ele>153.2</ele>
        <time>2025-06-15T08:55:07Z</time>
      </trkpt>
      <trkpt lat="45.13377" lon="0.59709">
        <ele>153.2</ele>
        <time>2025-06-15T08:55:08Z</time>
      </trkpt>
      <trkpt lat="45.13382" lon="0.59711">
        <ele>153.2</ele>
        <time>2025-06-15T08:55:09Z</time>
      </trkpt>
      <trkpt lat="45.13386" lon="0.59715">
        <ele>153.2</ele>
        <time>2025-06-15T08:55:10Z</time>
      </trkpt>
      <trkpt lat="45.1339" lon="0.59719">
        <ele>153.2</ele>
        <time>2025-06-15T08:55:11Z</time>
      </trkpt>
      <trkpt lat="45.13393" lon="0.59723">
        <ele>153</ele>
        <time>2025-06-15T08:55:12Z</time>
      </trkpt>
      <trkpt lat="45.13395" lon="0.59727">
        <ele>153</ele>
        <time>2025-06-15T08:55:13Z</time>
      </trkpt>
      <trkpt lat="45.13396" lon="0.5973">
        <ele>153</ele>
        <time>2025-06-15T08:55:14Z</time>
      </trkpt>
      <trkpt lat="45.13396" lon="0.59732">
        <ele>153</ele>
        <time>2025-06-15T08:55:15Z</time>
      </trkpt>
      <trkpt lat="45.13396" lon="0.59735">
        <ele>152.8</ele>
        <time>2025-06-15T08:55:16Z</time>
      </trkpt>
      <trkpt lat="45.13396" lon="0.59738">
        <ele>152.8</ele>
        <time>2025-06-15T08:55:17Z</time>
      </trkpt>
      <trkpt lat="45.13395" lon="0.59741">
        <ele>152.6</ele>
        <time>2025-06-15T08:55:18Z</time>
      </trkpt>
      <trkpt lat="45.13396" lon="0.59745">
        <ele>152.6</ele>
        <time>2025-06-15T08:55:19Z</time>
      </trkpt>
      <trkpt lat="45.13397" lon="0.59749">
        <ele>152.6</ele>
        <time>2025-06-15T08:55:20Z</time>
      </trkpt>
      <trkpt lat="45.13398" lon="0.59752">
        <ele>152.4</ele>
        <time>2025-06-15T08:55:21Z</time>
      </trkpt>
      <trkpt lat="45.134" lon="0.59755">
        <ele>152.4</ele>
        <time>2025-06-15T08:55:22Z</time>
      </trkpt>
      <trkpt lat="45.13402" lon="0.59758">
        <ele>152.4</ele>
        <time>2025-06-15T08:55:23Z</time>
      </trkpt>
      <trkpt lat="45.13404" lon="0.59762">
        <ele>152.4</ele>
        <time>2025-06-15T08:55:24Z</time>
      </trkpt>
      <trkpt lat="45.13406" lon="0.59766">
        <ele>152.4</ele>
        <time>2025-06-15T08:55:25Z</time>
      </trkpt>
      <trkpt lat="45.13408" lon="0.59771">
        <ele>152.4</ele>
        <time>2025-06-15T08:55:26Z</time>
      </trkpt>
      <trkpt lat="45.13411" lon="0.59776">
        <ele>152.4</ele>
        <time>2025-06-15T08:55:27Z</time>
      </trkpt>
      <trkpt lat="45.13413" lon="0.59782">
        <ele>152.4</ele>
        <time>2025-06-15T08:55:28Z</time>
      </trkpt>
      <trkpt lat="45.13416" lon="0.59788">
        <ele>152.4</ele>
        <time>2025-06-15T08:55:29Z</time>
      </trkpt>
      <trkpt lat="45.13419" lon="0.59794">
        <ele>152.4</ele>
        <time>2025-06-15T08:55:30Z</time>
      </trkpt>
      <trkpt lat="45.13423" lon="0.598">
        <ele>152.4</ele>
        <time>2025-06-15T08:55:31Z</time>
      </trkpt>
      <trkpt lat="45.13427" lon="0.59805">
        <ele>152.4</ele>
        <time>2025-06-15T08:55:32Z</time>
      </trkpt>
      <trkpt lat="45.13432" lon="0.59811">
        <ele>152.6</ele>
        <time>2025-06-15T08:55:33Z</time>
      </trkpt>
      <trkpt lat="45.13436" lon="0.59814">
        <ele>152.4</ele>
        <time>2025-06-15T08:55:34Z</time>
      </trkpt>
      <trkpt lat="45.13441" lon="0.59815">
        <ele>152.4</ele>
        <time>2025-06-15T08:55:35Z</time>
      </trkpt>
      <trkpt lat="45.13445" lon="0.59817">
        <ele>152.4</ele>
        <time>2025-06-15T08:55:36Z</time>
      </trkpt>
      <trkpt lat="45.13449" lon="0.59818">
        <ele>152.4</ele>
        <time>2025-06-15T08:55:37Z</time>
      </trkpt>
      <trkpt lat="45.13455" lon="0.5982">
        <ele>152.6</ele>
        <time>2025-06-15T08:55:38Z</time>
      </trkpt>
      <trkpt lat="45.13461" lon="0.59821">
        <ele>152.6</ele>
        <time>2025-06-15T08:55:39Z</time>
      </trkpt>
      <trkpt lat="45.13467" lon="0.59824">
        <ele>152.6</ele>
        <time>2025-06-15T08:55:40Z</time>
      </trkpt>
      <trkpt lat="45.13471" lon="0.59826">
        <ele>152.6</ele>
        <time>2025-06-15T08:55:41Z</time>
      </trkpt>
      <trkpt lat="45.13476" lon="0.59831">
        <ele>152.6</ele>
        <time>2025-06-15T08:55:42Z</time>
      </trkpt>
      <trkpt lat="45.1348" lon="0.59838">
        <ele>152.4</ele>
        <time>2025-06-15T08:55:43Z</time>
      </trkpt>
      <trkpt lat="45.13485" lon="0.59846">
        <ele>152.4</ele>
        <time>2025-06-15T08:55:44Z</time>
      </trkpt>
      <trkpt lat="45.13491" lon="0.59853">
        <ele>152.6</ele>
        <time>2025-06-15T08:55:45Z</time>
      </trkpt>
      <trkpt lat="45.13497" lon="0.59858">
        <ele>152.8</ele>
        <time>2025-06-15T08:55:46Z</time>
      </trkpt>
      <trkpt lat="45.13503" lon="0.59861">
        <ele>153</ele>
        <time>2025-06-15T08:55:47Z</time>
      </trkpt>
      <trkpt lat="45.13509" lon="0.59864">
        <ele>153</ele>
        <time>2025-06-15T08:55:48Z</time>
      </trkpt>
      <trkpt lat="45.13515" lon="0.59868">
        <ele>153</ele>
        <time>2025-06-15T08:55:49Z</time>
      </trkpt>
      <trkpt lat="45.1352" lon="0.59875">
        <ele>153.2</ele>
        <time>2025-06-15T08:55:50Z</time>
      </trkpt>
      <trkpt lat="45.13522" lon="0.59884">
        <ele>153</ele>
        <time>2025-06-15T08:55:51Z</time>
      </trkpt>
      <trkpt lat="45.13525" lon="0.59895">
        <ele>152.6</ele>
        <time>2025-06-15T08:55:52Z</time>
      </trkpt>
      <trkpt lat="45.13529" lon="0.59907">
        <ele>152.2</ele>
        <time>2025-06-15T08:55:53Z</time>
      </trkpt>
      <trkpt lat="45.13532" lon="0.59919">
        <ele>151.6</ele>
        <time>2025-06-15T08:55:54Z</time>
      </trkpt>
      <trkpt lat="45.13534" lon="0.59931">
        <ele>151</ele>
        <time>2025-06-15T08:55:55Z</time>
      </trkpt>
      <trkpt lat="45.13535" lon="0.59945">
        <ele>150.2</ele>
        <time>2025-06-15T08:55:56Z</time>
      </trkpt>
      <trkpt lat="45.13535" lon="0.59958">
        <ele>149</ele>
        <time>2025-06-15T08:55:57Z</time>
      </trkpt>
      <trkpt lat="45.13535" lon="0.59971">
        <ele>148.2</ele>
        <time>2025-06-15T08:55:58Z</time>
      </trkpt>
      <trkpt lat="45.13535" lon="0.59982">
        <ele>147</ele>
        <time>2025-06-15T08:55:59Z</time>
      </trkpt>
      <trkpt lat="45.13537" lon="0.5999">
        <ele>146.6</ele>
        <time>2025-06-15T08:56:00Z</time>
      </trkpt>
      <trkpt lat="45.13539" lon="0.59998">
        <ele>145.8</ele>
        <time>2025-06-15T08:56:01Z</time>
      </trkpt>
      <trkpt lat="45.13542" lon="0.60002">
        <ele>144.6</ele>
        <time>2025-06-15T08:56:02Z</time>
      </trkpt>
      <trkpt lat="45.13545" lon="0.60006">
        <ele>143.6</ele>
        <time>2025-06-15T08:56:03Z</time>
      </trkpt>
      <trkpt lat="45.13545" lon="0.60011">
        <ele>142.6</ele>
        <time>2025-06-15T08:56:04Z</time>
      </trkpt>
      <trkpt lat="45.13545" lon="0.60018">
        <ele>141.6</ele>
        <time>2025-06-15T08:56:05Z</time>
      </trkpt>
      <trkpt lat="45.13545" lon="0.60024">
        <ele>140.8</ele>
        <time>2025-06-15T08:56:06Z</time>
      </trkpt>
      <trkpt lat="45.13546" lon="0.60031">
        <ele>140.6</ele>
        <time>2025-06-15T08:56:07Z</time>
      </trkpt>
      <trkpt lat="45.13547" lon="0.60037">
        <ele>140.6</ele>
        <time>2025-06-15T08:56:08Z</time>
      </trkpt>
      <trkpt lat="45.13547" lon="0.60044">
        <ele>140.2</ele>
        <time>2025-06-15T08:56:09Z</time>
      </trkpt>
      <trkpt lat="45.13548" lon="0.60051">
        <ele>139.8</ele>
        <time>2025-06-15T08:56:10Z</time>
      </trkpt>
      <trkpt lat="45.13548" lon="0.60058">
        <ele>139</ele>
        <time>2025-06-15T08:56:11Z</time>
      </trkpt>
      <trkpt lat="45.13547" lon="0.60067">
        <ele>138</ele>
        <time>2025-06-15T08:56:12Z</time>
      </trkpt>
      <trkpt lat="45.13545" lon="0.60076">
        <ele>136.8</ele>
        <time>2025-06-15T08:56:13Z</time>
      </trkpt>
      <trkpt lat="45.13542" lon="0.60087">
        <ele>135.6</ele>
        <time>2025-06-15T08:56:14Z</time>
      </trkpt>
      <trkpt lat="45.13541" lon="0.60099">
        <ele>134.4</ele>
        <time>2025-06-15T08:56:15Z</time>
      </trkpt>
      <trkpt lat="45.1354" lon="0.6011">
        <ele>133</ele>
        <time>2025-06-15T08:56:16Z</time>
      </trkpt>
      <trkpt lat="45.1354" lon="0.60119">
        <ele>132.4</ele>
        <time>2025-06-15T08:56:17Z</time>
      </trkpt>
      <trkpt lat="45.1354" lon="0.60127">
        <ele>131.6</ele>
        <time>2025-06-15T08:56:18Z</time>
      </trkpt>
      <trkpt lat="45.1354" lon="0.60135">
        <ele>131.2</ele>
        <time>2025-06-15T08:56:19Z</time>
      </trkpt>
      <trkpt lat="45.13543" lon="0.6014">
        <ele>131</ele>
        <time>2025-06-15T08:56:20Z</time>
      </trkpt>
      <trkpt lat="45.13547" lon="0.60144">
        <ele>130.8</ele>
        <time>2025-06-15T08:56:21Z</time>
      </trkpt>
      <trkpt lat="45.13551" lon="0.60146">
        <ele>130.6</ele>
        <time>2025-06-15T08:56:22Z</time>
      </trkpt>
      <trkpt lat="45.13556" lon="0.60147">
        <ele>130.4</ele>
        <time>2025-06-15T08:56:23Z</time>
      </trkpt>
      <trkpt lat="45.13561" lon="0.60148">
        <ele>130.2</ele>
        <time>2025-06-15T08:56:24Z</time>
      </trkpt>
      <trkpt lat="45.13566" lon="0.60149">
        <ele>130</ele>
        <time>2025-06-15T08:56:25Z</time>
      </trkpt>
      <trkpt lat="45.1357" lon="0.6015">
        <ele>129.8</ele>
        <time>2025-06-15T08:56:26Z</time>
      </trkpt>
      <trkpt lat="45.13574" lon="0.60151">
        <ele>129.6</ele>
        <time>2025-06-15T08:56:27Z</time>
      </trkpt>
      <trkpt lat="45.13578" lon="0.60152">
        <ele>129.6</ele>
        <time>2025-06-15T08:56:28Z</time>
      </trkpt>
      <trkpt lat="45.13583" lon="0.60153">
        <ele>129.4</ele>
        <time>2025-06-15T08:56:29Z</time>
      </trkpt>
      <trkpt lat="45.13587" lon="0.60154">
        <ele>129.4</ele>
        <time>2025-06-15T08:56:30Z</time>
      </trkpt>
      <trkpt lat="45.13592" lon="0.60156">
        <ele>129.4</ele>
        <time>2025-06-15T08:56:31Z</time>
      </trkpt>
      <trkpt lat="45.13597" lon="0.60159">
        <ele>129.4</ele>
        <time>2025-06-15T08:56:32Z</time>
      </trkpt>
      <trkpt lat="45.13602" lon="0.60161">
        <ele>129.2</ele>
        <time>2025-06-15T08:56:33Z</time>
      </trkpt>
      <trkpt lat="45.13608" lon="0.60164">
        <ele>129.2</ele>
        <time>2025-06-15T08:56:34Z</time>
      </trkpt>
      <trkpt lat="45.13613" lon="0.60168">
        <ele>129.2</ele>
        <time>2025-06-15T08:56:35Z</time>
      </trkpt>
      <trkpt lat="45.13619" lon="0.60171">
        <ele>129.2</ele>
        <time>2025-06-15T08:56:36Z</time>
      </trkpt>
      <trkpt lat="45.13624" lon="0.60172">
        <ele>129.2</ele>
        <time>2025-06-15T08:56:37Z</time>
      </trkpt>
      <trkpt lat="45.13629" lon="0.60174">
        <ele>129</ele>
        <time>2025-06-15T08:56:38Z</time>
      </trkpt>
      <trkpt lat="45.13634" lon="0.60176">
        <ele>128.6</ele>
        <time>2025-06-15T08:56:39Z</time>
      </trkpt>
      <trkpt lat="45.13639" lon="0.60179">
        <ele>128.4</ele>
        <time>2025-06-15T08:56:40Z</time>
      </trkpt>
      <trkpt lat="45.13642" lon="0.60183">
        <ele>128</ele>
        <time>2025-06-15T08:56:41Z</time>
      </trkpt>
      <trkpt lat="45.13644" lon="0.60189">
        <ele>127.8</ele>
        <time>2025-06-15T08:56:42Z</time>
      </trkpt>
      <trkpt lat="45.13643" lon="0.60194">
        <ele>127.6</ele>
        <time>2025-06-15T08:56:43Z</time>
      </trkpt>
      <trkpt lat="45.13642" lon="0.60198">
        <ele>127.6</ele>
        <time>2025-06-15T08:56:44Z</time>
      </trkpt>
      <trkpt lat="45.1364" lon="0.60202">
        <ele>127.6</ele>
        <time>2025-06-15T08:56:45Z</time>
      </trkpt>
      <trkpt lat="45.13638" lon="0.60205">
        <ele>127.4</ele>
        <time>2025-06-15T08:56:46Z</time>
      </trkpt>
      <trkpt lat="45.13636" lon="0.60208">
        <ele>127.4</ele>
        <time>2025-06-15T08:56:47Z</time>
      </trkpt>
      <trkpt lat="45.13634" lon="0.6021">
        <ele>127.2</ele>
        <time>2025-06-15T08:56:48Z</time>
      </trkpt>
      <trkpt lat="45.13632" lon="0.60213">
        <ele>127.4</ele>
        <time>2025-06-15T08:56:49Z</time>
      </trkpt>
      <trkpt lat="45.13629" lon="0.60214">
        <ele>127.2</ele>
        <time>2025-06-15T08:56:50Z</time>
      </trkpt>
      <trkpt lat="45.13626" lon="0.60214">
        <ele>127.2</ele>
        <time>2025-06-15T08:56:51Z</time>
      </trkpt>
      <trkpt lat="45.13623" lon="0.60215">
        <ele>127.2</ele>
        <time>2025-06-15T08:56:52Z</time>
      </trkpt>
      <trkpt lat="45.13621" lon="0.60216">
        <ele>127.2</ele>
        <time>2025-06-15T08:56:53Z</time>
      </trkpt>
      <trkpt lat="45.13619" lon="0.60217">
        <ele>127.2</ele>
        <time>2025-06-15T08:56:54Z</time>
      </trkpt>
      <trkpt lat="45.13617" lon="0.60218">
        <ele>127.2</ele>
        <time>2025-06-15T08:56:55Z</time>
      </trkpt>
      <trkpt lat="45.13615" lon="0.60219">
        <ele>127.2</ele>
        <time>2025-06-15T08:56:56Z</time>
      </trkpt>
      <trkpt lat="45.13613" lon="0.6022">
        <ele>127.2</ele>
        <time>2025-06-15T08:56:57Z</time>
      </trkpt>
      <trkpt lat="45.13611" lon="0.6022">
        <ele>127.2</ele>
        <time>2025-06-15T08:56:58Z</time>
      </trkpt>
      <trkpt lat="45.13609" lon="0.60221">
        <ele>127</ele>
        <time>2025-06-15T08:56:59Z</time>
      </trkpt>
      <trkpt lat="45.13607" lon="0.60222">
        <ele>127</ele>
        <time>2025-06-15T08:57:00Z</time>
      </trkpt>
      <trkpt lat="45.13604" lon="0.60223">
        <ele>127</ele>
        <time>2025-06-15T08:57:01Z</time>
      </trkpt>
      <trkpt lat="45.13602" lon="0.60224">
        <ele>127</ele>
        <time>2025-06-15T08:57:02Z</time>
      </trkpt>
      <trkpt lat="45.136" lon="0.60225">
        <ele>126.8</ele>
        <time>2025-06-15T08:57:03Z</time>
      </trkpt>
      <trkpt lat="45.13598" lon="0.60225">
        <ele>126.6</ele>
        <time>2025-06-15T08:57:04Z</time>
      </trkpt>
      <trkpt lat="45.13596" lon="0.60226">
        <ele>126.6</ele>
        <time>2025-06-15T08:57:05Z</time>
      </trkpt>
      <trkpt lat="45.13594" lon="0.60227">
        <ele>126.6</ele>
        <time>2025-06-15T08:57:06Z</time>
      </trkpt>
      <trkpt lat="45.13592" lon="0.60227">
        <ele>126.6</ele>
        <time>2025-06-15T08:57:07Z</time>
      </trkpt>
      <trkpt lat="45.1359" lon="0.60228">
        <ele>126.4</ele>
        <time>2025-06-15T08:57:08Z</time>
      </trkpt>
      <trkpt lat="45.13588" lon="0.60228">
        <ele>126.4</ele>
        <time>2025-06-15T08:57:09Z</time>
      </trkpt>
      <trkpt lat="45.13587" lon="0.60229">
        <ele>126.4</ele>
        <time>2025-06-15T08:57:10Z</time>
      </trkpt>
      <trkpt lat="45.13585" lon="0.60229">
        <ele>126.4</ele>
        <time>2025-06-15T08:57:11Z</time>
      </trkpt>
      <trkpt lat="45.13584" lon="0.60229">
        <ele>126.2</ele>
        <time>2025-06-15T08:57:12Z</time>
      </trkpt>
      <trkpt lat="45.13582" lon="0.6023">
        <ele>126.2</ele>
        <time>2025-06-15T08:57:13Z</time>
      </trkpt>
      <trkpt lat="45.13581" lon="0.6023">
        <ele>126.2</ele>
        <time>2025-06-15T08:57:14Z</time>
      </trkpt>
      <trkpt lat="45.13579" lon="0.6023">
        <ele>126</ele>
        <time>2025-06-15T08:57:15Z</time>
      </trkpt>
      <trkpt lat="45.13577" lon="0.60231">
        <ele>126</ele>
        <time>2025-06-15T08:57:16Z</time>
      </trkpt>
      <trkpt lat="45.13576" lon="0.60231">
        <ele>125.8</ele>
        <time>2025-06-15T08:57:17Z</time>
      </trkpt>
      <trkpt lat="45.13574" lon="0.60232">
        <ele>125.8</ele>
        <time>2025-06-15T08:57:18Z</time>
      </trkpt>
      <trkpt lat="45.13573" lon="0.60232">
        <ele>125.6</ele>
        <time>2025-06-15T08:57:19Z</time>
      </trkpt>
      <trkpt lat="45.13571" lon="0.60234">
        <ele>125.6</ele>
        <time>2025-06-15T08:57:20Z</time>
      </trkpt>
      <trkpt lat="45.1357" lon="0.60235">
        <ele>125.4</ele>
        <time>2025-06-15T08:57:21Z</time>
      </trkpt>
      <trkpt lat="45.13569" lon="0.60236">
        <ele>125.4</ele>
        <time>2025-06-15T08:57:22Z</time>
      </trkpt>
      <trkpt lat="45.13567" lon="0.60236">
        <ele>125.4</ele>
        <time>2025-06-15T08:57:23Z</time>
      </trkpt>
      <trkpt lat="45.13566" lon="0.60237">
        <ele>125.4</ele>
        <time>2025-06-15T08:57:24Z</time>
      </trkpt>
      <trkpt lat="45.13565" lon="0.60238">
        <ele>125.2</ele>
        <time>2025-06-15T08:57:25Z</time>
      </trkpt>
      <trkpt lat="45.13563" lon="0.60238">
        <ele>125.2</ele>
        <time>2025-06-15T08:57:26Z</time>
      </trkpt>
      <trkpt lat="45.13562" lon="0.6024">
        <ele>125</ele>
        <time>2025-06-15T08:57:27Z</time>
      </trkpt>
      <trkpt lat="45.13561" lon="0.6024">
        <ele>125</ele>
        <time>2025-06-15T08:57:28Z</time>
      </trkpt>
      <trkpt lat="45.13559" lon="0.60241">
        <ele>125</ele>
        <time>2025-06-15T08:57:29Z</time>
      </trkpt>
      <trkpt lat="45.13558" lon="0.60242">
        <ele>125</ele>
        <time>2025-06-15T08:57:30Z</time>
      </trkpt>
      <trkpt lat="45.13557" lon="0.60243">
        <ele>124.8</ele>
        <time>2025-06-15T08:57:31Z</time>
      </trkpt>
      <trkpt lat="45.13556" lon="0.60244">
        <ele>124.8</ele>
        <time>2025-06-15T08:57:32Z</time>
      </trkpt>
      <trkpt lat="45.13554" lon="0.60244">
        <ele>124.6</ele>
        <time>2025-06-15T08:57:33Z</time>
      </trkpt>
      <trkpt lat="45.13553" lon="0.60245">
        <ele>124.6</ele>
        <time>2025-06-15T08:57:34Z</time>
      </trkpt>
      <trkpt lat="45.13552" lon="0.60246">
        <ele>124.4</ele>
        <time>2025-06-15T08:57:35Z</time>
      </trkpt>
      <trkpt lat="45.1355" lon="0.60247">
        <ele>124.4</ele>
        <time>2025-06-15T08:57:36Z</time>
      </trkpt>
      <trkpt lat="45.13549" lon="0.60247">
        <ele>124.4</ele>
        <time>2025-06-15T08:57:37Z</time>
      </trkpt>
      <trkpt lat="45.13548" lon="0.60248">
        <ele>124.2</ele>
        <time>2025-06-15T08:57:38Z</time>
      </trkpt>
      <trkpt lat="45.13547" lon="0.6025">
        <ele>124.2</ele>
        <time>2025-06-15T08:57:39Z</time>
      </trkpt>
      <trkpt lat="45.13546" lon="0.60251">
        <ele>124.2</ele>
        <time>2025-06-15T08:57:40Z</time>
      </trkpt>
      <trkpt lat="45.13545" lon="0.60252">
        <ele>124</ele>
        <time>2025-06-15T08:57:41Z</time>
      </trkpt>
      <trkpt lat="45.13543" lon="0.60253">
        <ele>124</ele>
        <time>2025-06-15T08:57:42Z</time>
      </trkpt>
      <trkpt lat="45.13542" lon="0.60254">
        <ele>124</ele>
        <time>2025-06-15T08:57:43Z</time>
      </trkpt>
      <trkpt lat="45.13541" lon="0.60255">
        <ele>123.8</ele>
        <time>2025-06-15T08:57:44Z</time>
      </trkpt>
      <trkpt lat="45.1354" lon="0.60255">
        <ele>123.8</ele>
        <time>2025-06-15T08:57:45Z</time>
      </trkpt>
      <trkpt lat="45.13539" lon="0.60256">
        <ele>123.8</ele>
        <time>2025-06-15T08:57:46Z</time>
      </trkpt>
      <trkpt lat="45.13538" lon="0.60257">
        <ele>123.6</ele>
        <time>2025-06-15T08:57:47Z</time>
      </trkpt>
      <trkpt lat="45.13536" lon="0.60258">
        <ele>123.6</ele>
        <time>2025-06-15T08:57:48Z</time>
      </trkpt>
      <trkpt lat="45.13535" lon="0.60259">
        <ele>123.4</ele>
        <time>2025-06-15T08:57:49Z</time>
      </trkpt>
      <trkpt lat="45.13534" lon="0.6026">
        <ele>123.4</ele>
        <time>2025-06-15T08:57:50Z</time>
      </trkpt>
      <trkpt lat="45.13533" lon="0.60261">
        <ele>123.2</ele>
        <time>2025-06-15T08:57:51Z</time>
      </trkpt>
      <trkpt lat="45.13532" lon="0.60262">
        <ele>123.2</ele>
        <time>2025-06-15T08:57:52Z</time>
      </trkpt>
      <trkpt lat="45.13531" lon="0.60263">
        <ele>123.2</ele>
        <time>2025-06-15T08:57:53Z</time>
      </trkpt>
      <trkpt lat="45.1353" lon="0.60264">
        <ele>123.2</ele>
        <time>2025-06-15T08:57:54Z</time>
      </trkpt>
      <trkpt lat="45.13529" lon="0.60265">
        <ele>123</ele>
        <time>2025-06-15T08:57:55Z</time>
      </trkpt>
      <trkpt lat="45.13527" lon="0.60266">
        <ele>123</ele>
        <time>2025-06-15T08:57:56Z</time>
      </trkpt>
      <trkpt lat="45.13526" lon="0.60266">
        <ele>123</ele>
        <time>2025-06-15T08:57:57Z</time>
      </trkpt>
      <trkpt lat="45.13525" lon="0.60267">
        <ele>123</ele>
        <time>2025-06-15T08:57:58Z</time>
      </trkpt>
      <trkpt lat="45.13524" lon="0.60268">
        <ele>122.8</ele>
        <time>2025-06-15T08:57:59Z</time>
      </trkpt>
      <trkpt lat="45.13523" lon="0.60269">
        <ele>122.8</ele>
        <time>2025-06-15T08:58:00Z</time>
      </trkpt>
      <trkpt lat="45.13522" lon="0.6027">
        <ele>122.8</ele>
        <time>2025-06-15T08:58:01Z</time>
      </trkpt>
      <trkpt lat="45.13521" lon="0.60271">
        <ele>122.6</ele>
        <time>2025-06-15T08:58:02Z</time>
      </trkpt>
      <trkpt lat="45.1352" lon="0.60272">
        <ele>122.6</ele>
        <time>2025-06-15T08:58:03Z</time>
      </trkpt>
      <trkpt lat="45.13519" lon="0.60273">
        <ele>122.6</ele>
        <time>2025-06-15T08:58:04Z</time>
      </trkpt>
      <trkpt lat="45.13518" lon="0.60275">
        <ele>122.4</ele>
        <time>2025-06-15T08:58:05Z</time>
      </trkpt>
      <trkpt lat="45.13517" lon="0.60275">
        <ele>122.4</ele>
        <time>2025-06-15T08:58:06Z</time>
      </trkpt>
      <trkpt lat="45.13516" lon="0.60277">
        <ele>122.4</ele>
        <time>2025-06-15T08:58:07Z</time>
      </trkpt>
      <trkpt lat="45.13515" lon="0.60278">
        <ele>122.4</ele>
        <time>2025-06-15T08:58:08Z</time>
      </trkpt>
      <trkpt lat="45.13514" lon="0.60279">
        <ele>122.4</ele>
        <time>2025-06-15T08:58:09Z</time>
      </trkpt>
      <trkpt lat="45.13513" lon="0.6028">
        <ele>122.2</ele>
        <time>2025-06-15T08:58:10Z</time>
      </trkpt>
      <trkpt lat="45.13511" lon="0.60281">
        <ele>122.2</ele>
        <time>2025-06-15T08:58:11Z</time>
      </trkpt>
      <trkpt lat="45.1351" lon="0.60282">
        <ele>122.2</ele>
        <time>2025-06-15T08:58:12Z</time>
      </trkpt>
      <trkpt lat="45.13509" lon="0.60283">
        <ele>122.2</ele>
        <time>2025-06-15T08:58:13Z</time>
      </trkpt>
      <trkpt lat="45.13508" lon="0.60284">
        <ele>122.2</ele>
        <time>2025-06-15T08:58:14Z</time>
      </trkpt>
      <trkpt lat="45.13507" lon="0.60285">
        <ele>122</ele>
        <time>2025-06-15T08:58:15Z</time>
      </trkpt>
      <trkpt lat="45.13506" lon="0.60286">
        <ele>122</ele>
        <time>2025-06-15T08:58:16Z</time>
      </trkpt>
      <trkpt lat="45.13505" lon="0.60287">
        <ele>122</ele>
        <time>2025-06-15T08:58:17Z</time>
      </trkpt>
      <trkpt lat="45.13504" lon="0.60288">
        <ele>121.8</ele>
        <time>2025-06-15T08:58:18Z</time>
      </trkpt>
      <trkpt lat="45.13503" lon="0.60289">
        <ele>121.8</ele>
        <time>2025-06-15T08:58:19Z</time>
      </trkpt>
      <trkpt lat="45.13502" lon="0.60291">
        <ele>121.8</ele>
        <time>2025-06-15T08:58:20Z</time>
      </trkpt>
      <trkpt lat="45.13501" lon="0.60292">
        <ele>121.6</ele>
        <time>2025-06-15T08:58:21Z</time>
      </trkpt>
      <trkpt lat="45.13499" lon="0.60293">
        <ele>121.6</ele>
        <time>2025-06-15T08:58:22Z</time>
      </trkpt>
      <trkpt lat="45.13498" lon="0.60294">
        <ele>121.6</ele>
        <time>2025-06-15T08:58:23Z</time>
      </trkpt>
      <trkpt lat="45.13497" lon="0.60296">
        <ele>121.6</ele>
        <time>2025-06-15T08:58:24Z</time>
      </trkpt>
      <trkpt lat="45.13496" lon="0.60296">
        <ele>121.6</ele>
        <time>2025-06-15T08:58:25Z</time>
      </trkpt>
      <trkpt lat="45.13495" lon="0.60297">
        <ele>121.6</ele>
        <time>2025-06-15T08:58:26Z</time>
      </trkpt>
      <trkpt lat="45.13494" lon="0.60299">
        <ele>121.6</ele>
        <time>2025-06-15T08:58:27Z</time>
      </trkpt>
      <trkpt lat="45.13493" lon="0.60301">
        <ele>121.6</ele>
        <time>2025-06-15T08:58:28Z</time>
      </trkpt>
      <trkpt lat="45.13492" lon="0.60302">
        <ele>121.4</ele>
        <time>2025-06-15T08:58:29Z</time>
      </trkpt>
      <trkpt lat="45.13491" lon="0.60303">
        <ele>121.4</ele>
        <time>2025-06-15T08:58:30Z</time>
      </trkpt>
      <trkpt lat="45.1349" lon="0.60305">
        <ele>121.4</ele>
        <time>2025-06-15T08:58:31Z</time>
      </trkpt>
      <trkpt lat="45.13489" lon="0.60307">
        <ele>121.4</ele>
        <time>2025-06-15T08:58:32Z</time>
      </trkpt>
      <trkpt lat="45.13488" lon="0.60309">
        <ele>121.4</ele>
        <time>2025-06-15T08:58:33Z</time>
      </trkpt>
      <trkpt lat="45.13487" lon="0.60311">
        <ele>121.2</ele>
        <time>2025-06-15T08:58:34Z</time>
      </trkpt>
      <trkpt lat="45.13486" lon="0.60312">
        <ele>121.2</ele>
        <time>2025-06-15T08:58:35Z</time>
      </trkpt>
      <trkpt lat="45.13485" lon="0.60314">
        <ele>121.2</ele>
        <time>2025-06-15T08:58:36Z</time>
      </trkpt>
      <trkpt lat="45.13484" lon="0.60316">
        <ele>121.2</ele>
        <time>2025-06-15T08:58:37Z</time>
      </trkpt>
      <trkpt lat="45.13483" lon="0.60318">
        <ele>121.2</ele>
        <time>2025-06-15T08:58:38Z</time>
      </trkpt>
      <trkpt lat="45.13482" lon="0.60319">
        <ele>121.2</ele>
        <time>2025-06-15T08:58:39Z</time>
      </trkpt>
      <trkpt lat="45.13481" lon="0.6032">
        <ele>121.2</ele>
        <time>2025-06-15T08:58:40Z</time>
      </trkpt>
      <trkpt lat="45.1348" lon="0.60321">
        <ele>121.2</ele>
        <time>2025-06-15T08:58:41Z</time>
      </trkpt>
      <trkpt lat="45.13479" lon="0.60323">
        <ele>121.2</ele>
        <time>2025-06-15T08:58:42Z</time>
      </trkpt>
      <trkpt lat="45.13478" lon="0.60324">
        <ele>121.2</ele>
        <time>2025-06-15T08:58:43Z</time>
      </trkpt>
      <trkpt lat="45.13477" lon="0.60326">
        <ele>121.2</ele>
        <time>2025-06-15T08:58:44Z</time>
      </trkpt>
      <trkpt lat="45.13476" lon="0.60327">
        <ele>121.2</ele>
        <time>2025-06-15T08:58:45Z</time>
      </trkpt>
      <trkpt lat="45.13475" lon="0.60329">
        <ele>121.2</ele>
        <time>2025-06-15T08:58:46Z</time>
      </trkpt>
      <trkpt lat="45.13474" lon="0.6033">
        <ele>121.2</ele>
        <time>2025-06-15T08:58:47Z</time>
      </trkpt>
      <trkpt lat="45.13473" lon="0.60331">
        <ele>121.2</ele>
        <time>2025-06-15T08:58:48Z</time>
      </trkpt>
      <trkpt lat="45.13472" lon="0.60332">
        <ele>121.2</ele>
        <time>2025-06-15T08:58:49Z</time>
      </trkpt>
      <trkpt lat="45.13471" lon="0.60333">
        <ele>121.2</ele>
        <time>2025-06-15T08:58:50Z</time>
      </trkpt>
      <trkpt lat="45.1347" lon="0.60335">
        <ele>121.2</ele>
        <time>2025-06-15T08:58:51Z</time>
      </trkpt>
      <trkpt lat="45.1347" lon="0.60336">
        <ele>121.2</ele>
        <time>2025-06-15T08:58:52Z</time>
      </trkpt>
      <trkpt lat="45.13468" lon="0.60338">
        <ele>121.2</ele>
        <time>2025-06-15T08:58:53Z</time>
      </trkpt>
      <trkpt lat="45.13467" lon="0.6034">
        <ele>121.4</ele>
        <time>2025-06-15T08:58:54Z</time>
      </trkpt>
      <trkpt lat="45.13467" lon="0.60341">
        <ele>121.4</ele>
        <time>2025-06-15T08:58:55Z</time>
      </trkpt>
      <trkpt lat="45.13465" lon="0.60343">
        <ele>121.4</ele>
        <time>2025-06-15T08:58:56Z</time>
      </trkpt>
      <trkpt lat="45.13465" lon="0.60345">
        <ele>121.4</ele>
        <time>2025-06-15T08:58:57Z</time>
      </trkpt>
      <trkpt lat="45.13464" lon="0.60347">
        <ele>121.6</ele>
        <time>2025-06-15T08:58:58Z</time>
      </trkpt>
      <trkpt lat="45.13463" lon="0.60349">
        <ele>121.6</ele>
        <time>2025-06-15T08:58:59Z</time>
      </trkpt>
      <trkpt lat="45.13462" lon="0.6035">
        <ele>121.6</ele>
        <time>2025-06-15T08:59:00Z</time>
      </trkpt>
      <trkpt lat="45.13461" lon="0.60352">
        <ele>121.6</ele>
        <time>2025-06-15T08:59:01Z</time>
      </trkpt>
      <trkpt lat="45.1346" lon="0.60354">
        <ele>121.8</ele>
        <time>2025-06-15T08:59:02Z</time>
      </trkpt>
      <trkpt lat="45.13459" lon="0.60357">
        <ele>121.8</ele>
        <time>2025-06-15T08:59:03Z</time>
      </trkpt>
      <trkpt lat="45.13458" lon="0.6036">
        <ele>121.8</ele>
        <time>2025-06-15T08:59:04Z</time>
      </trkpt>
      <trkpt lat="45.13457" lon="0.60361">
        <ele>121.8</ele>
        <time>2025-06-15T08:59:05Z</time>
      </trkpt>
      <trkpt lat="45.13456" lon="0.60363">
        <ele>121.8</ele>
        <time>2025-06-15T08:59:06Z</time>
      </trkpt>
      <trkpt lat="45.13456" lon="0.60364">
        <ele>121.8</ele>
        <time>2025-06-15T08:59:07Z</time>
      </trkpt>
      <trkpt lat="45.13456" lon="0.60365">
        <ele>122</ele>
        <time>2025-06-15T08:59:08Z</time>
      </trkpt>
      <trkpt lat="45.13455" lon="0.60367">
        <ele>122</ele>
        <time>2025-06-15T08:59:09Z</time>
      </trkpt>
      <trkpt lat="45.13454" lon="0.60369">
        <ele>122</ele>
        <time>2025-06-15T08:59:10Z</time>
      </trkpt>
      <trkpt lat="45.13453" lon="0.60371">
        <ele>122.2</ele>
        <time>2025-06-15T08:59:11Z</time>
      </trkpt>
      <trkpt lat="45.13452" lon="0.60374">
        <ele>122.2</ele>
        <time>2025-06-15T08:59:12Z</time>
      </trkpt>
      <trkpt lat="45.13451" lon="0.60376">
        <ele>122.2</ele>
        <time>2025-06-15T08:59:13Z</time>
      </trkpt>
      <trkpt lat="45.13451" lon="0.60377">
        <ele>122.2</ele>
        <time>2025-06-15T08:59:14Z</time>
      </trkpt>
      <trkpt lat="45.1345" lon="0.6038">
        <ele>122.2</ele>
        <time>2025-06-15T08:59:15Z</time>
      </trkpt>
      <trkpt lat="45.13449" lon="0.60381">
        <ele>122.2</ele>
        <time>2025-06-15T08:59:16Z</time>
      </trkpt>
      <trkpt lat="45.13448" lon="0.60382">
        <ele>122.2</ele>
        <time>2025-06-15T08:59:17Z</time>
      </trkpt>
      <trkpt lat="45.13447" lon="0.60384">
        <ele>122</ele>
        <time>2025-06-15T08:59:18Z</time>
      </trkpt>
      <trkpt lat="45.13446" lon="0.60385">
        <ele>122</ele>
        <time>2025-06-15T08:59:19Z</time>
      </trkpt>
      <trkpt lat="45.13445" lon="0.60387">
        <ele>122</ele>
        <time>2025-06-15T08:59:20Z</time>
      </trkpt>
      <trkpt lat="45.13443" lon="0.60389">
        <ele>122</ele>
        <time>2025-06-15T08:59:21Z</time>
      </trkpt>
      <trkpt lat="45.13442" lon="0.6039">
        <ele>122</ele>
        <time>2025-06-15T08:59:22Z</time>
      </trkpt>
      <trkpt lat="45.13442" lon="0.60392">
        <ele>122</ele>
        <time>2025-06-15T08:59:23Z</time>
      </trkpt>
      <trkpt lat="45.1344" lon="0.60394">
        <ele>122.2</ele>
        <time>2025-06-15T08:59:24Z</time>
      </trkpt>
      <trkpt lat="45.13439" lon="0.60395">
        <ele>123</ele>
        <time>2025-06-15T08:59:25Z</time>
      </trkpt>
      <trkpt lat="45.13438" lon="0.60397">
        <ele>124</ele>
        <time>2025-06-15T08:59:26Z</time>
      </trkpt>
      <trkpt lat="45.13437" lon="0.60399">
        <ele>125</ele>
        <time>2025-06-15T08:59:27Z</time>
      </trkpt>
      <trkpt lat="45.13436" lon="0.604">
        <ele>126</ele>
        <time>2025-06-15T08:59:28Z</time>
      </trkpt>
      <trkpt lat="45.13434" lon="0.60403">
        <ele>126.6</ele>
        <time>2025-06-15T08:59:29Z</time>
      </trkpt>
      <trkpt lat="45.13433" lon="0.60405">
        <ele>126.8</ele>
        <time>2025-06-15T08:59:30Z</time>
      </trkpt>
      <trkpt lat="45.13432" lon="0.60407">
        <ele>127</ele>
        <time>2025-06-15T08:59:31Z</time>
      </trkpt>
      <trkpt lat="45.13431" lon="0.6041">
        <ele>127.2</ele>
        <time>2025-06-15T08:59:32Z</time>
      </trkpt>
      <trkpt lat="45.13429" lon="0.60411">
        <ele>127.4</ele>
        <time>2025-06-15T08:59:33Z</time>
      </trkpt>
      <trkpt lat="45.13428" lon="0.60414">
        <ele>127.6</ele>
        <time>2025-06-15T08:59:34Z</time>
      </trkpt>
      <trkpt lat="45.13427" lon="0.60416">
        <ele>127.6</ele>
        <time>2025-06-15T08:59:35Z</time>
      </trkpt>
      <trkpt lat="45.13426" lon="0.60418">
        <ele>127.8</ele>
        <time>2025-06-15T08:59:36Z</time>
      </trkpt>
      <trkpt lat="45.13425" lon="0.60421">
        <ele>128</ele>
        <time>2025-06-15T08:59:37Z</time>
      </trkpt>
      <trkpt lat="45.13424" lon="0.60422">
        <ele>128.2</ele>
        <time>2025-06-15T08:59:38Z</time>
      </trkpt>
      <trkpt lat="45.13422" lon="0.60425">
        <ele>128.4</ele>
        <time>2025-06-15T08:59:39Z</time>
      </trkpt>
      <trkpt lat="45.13421" lon="0.60426">
        <ele>128.6</ele>
        <time>2025-06-15T08:59:40Z</time>
      </trkpt>
      <trkpt lat="45.1342" lon="0.60428">
        <ele>128.8</ele>
        <time>2025-06-15T08:59:41Z</time>
      </trkpt>
      <trkpt lat="45.13419" lon="0.6043">
        <ele>129</ele>
        <time>2025-06-15T08:59:42Z</time>
      </trkpt>
      <trkpt lat="45.13418" lon="0.60431">
        <ele>129.2</ele>
        <time>2025-06-15T08:59:43Z</time>
      </trkpt>
      <trkpt lat="45.13417" lon="0.60433">
        <ele>129.4</ele>
        <time>2025-06-15T08:59:44Z</time>
      </trkpt>
      <trkpt lat="45.13416" lon="0.60435">
        <ele>129.6</ele>
        <time>2025-06-15T08:59:45Z</time>
      </trkpt>
      <trkpt lat="45.13414" lon="0.60437">
        <ele>129.8</ele>
        <time>2025-06-15T08:59:46Z</time>
      </trkpt>
      <trkpt lat="45.13413" lon="0.6044">
        <ele>130</ele>
        <time>2025-06-15T08:59:47Z</time>
      </trkpt>
      <trkpt lat="45.13411" lon="0.60442">
        <ele>130</ele>
        <time>2025-06-15T08:59:48Z</time>
      </trkpt>
      <trkpt lat="45.1341" lon="0.60444">
        <ele>130.2</ele>
        <time>2025-06-15T08:59:49Z</time>
      </trkpt>
      <trkpt lat="45.13408" lon="0.60446">
        <ele>130.4</ele>
        <time>2025-06-15T08:59:50Z</time>
      </trkpt>
      <trkpt lat="45.13407" lon="0.60448">
        <ele>130.6</ele>
        <time>2025-06-15T08:59:51Z</time>
      </trkpt>
      <trkpt lat="45.13406" lon="0.60449">
        <ele>130.8</ele>
        <time>2025-06-15T08:59:52Z</time>
      </trkpt>
      <trkpt lat="45.13404" lon="0.6045">
        <ele>131</ele>
        <time>2025-06-15T08:59:53Z</time>
      </trkpt>
      <trkpt lat="45.13403" lon="0.60451">
        <ele>131.2</ele>
        <time>2025-06-15T08:59:54Z</time>
      </trkpt>
      <trkpt lat="45.13402" lon="0.60453">
        <ele>131.4</ele>
        <time>2025-06-15T08:59:55Z</time>
      </trkpt>
      <trkpt lat="45.13402" lon="0.60455">
        <ele>131.6</ele>
        <time>2025-06-15T08:59:56Z</time>
      </trkpt>
      <trkpt lat="45.134" lon="0.60456">
        <ele>131.8</ele>
        <time>2025-06-15T08:59:57Z</time>
      </trkpt>
      <trkpt lat="45.13399" lon="0.60457">
        <ele>131.8</ele>
        <time>2025-06-15T08:59:58Z</time>
      </trkpt>
      <trkpt lat="45.13398" lon="0.60458">
        <ele>132</ele>
        <time>2025-06-15T08:59:59Z</time>
      </trkpt>
      <trkpt lat="45.13397" lon="0.60459">
        <ele>132.2</ele>
        <time>2025-06-15T09:00:00Z</time>
      </trkpt>
      <trkpt lat="45.13395" lon="0.6046">
        <ele>132.4</ele>
        <time>2025-06-15T09:00:01Z</time>
      </trkpt>
      <trkpt lat="45.13393" lon="0.6046">
        <ele>132.4</ele>
        <time>2025-06-15T09:00:02Z</time>
      </trkpt>
      <trkpt lat="45.13392" lon="0.60461">
        <ele>132.6</ele>
        <time>2025-06-15T09:00:03Z</time>
      </trkpt>
      <trkpt lat="45.1339" lon="0.60462">
        <ele>132.8</ele>
        <time>2025-06-15T09:00:04Z</time>
      </trkpt>
      <trkpt lat="45.13389" lon="0.60462">
        <ele>133</ele>
        <time>2025-06-15T09:00:05Z</time>
      </trkpt>
      <trkpt lat="45.13387" lon="0.60463">
        <ele>133.2</ele>
        <time>2025-06-15T09:00:06Z</time>
      </trkpt>
      <trkpt lat="45.13386" lon="0.60462">
        <ele>133.4</ele>
        <time>2025-06-15T09:00:07Z</time>
      </trkpt>
      <trkpt lat="45.13384" lon="0.60462">
        <ele>133.4</ele>
        <time>2025-06-15T09:00:08Z</time>
      </trkpt>
      <trkpt lat="45.13383" lon="0.60461">
        <ele>133.8</ele>
        <time>2025-06-15T09:00:09Z</time>
      </trkpt>
      <trkpt lat="45.13382" lon="0.60461">
        <ele>133.8</ele>
        <time>2025-06-15T09:00:10Z</time>
      </trkpt>
      <trkpt lat="45.13381" lon="0.6046">
        <ele>134</ele>
        <time>2025-06-15T09:00:11Z</time>
      </trkpt>
      <trkpt lat="45.1338" lon="0.60459">
        <ele>134.2</ele>
        <time>2025-06-15T09:00:12Z</time>
      </trkpt>
      <trkpt lat="45.13379" lon="0.60459">
        <ele>134.4</ele>
        <time>2025-06-15T09:00:13Z</time>
      </trkpt>
      <trkpt lat="45.13378" lon="0.60458">
        <ele>134.6</ele>
        <time>2025-06-15T09:00:14Z</time>
      </trkpt>
      <trkpt lat="45.13377" lon="0.60457">
        <ele>134.8</ele>
        <time>2025-06-15T09:00:15Z</time>
      </trkpt>
      <trkpt lat="45.13376" lon="0.60457">
        <ele>135</ele>
        <time>2025-06-15T09:00:16Z</time>
      </trkpt>
      <trkpt lat="45.13375" lon="0.60457">
        <ele>135.2</ele>
        <time>2025-06-15T09:00:17Z</time>
      </trkpt>
      <trkpt lat="45.13374" lon="0.60456">
        <ele>135.4</ele>
        <time>2025-06-15T09:00:18Z</time>
      </trkpt>
      <trkpt lat="45.13373" lon="0.60455">
        <ele>135.6</ele>
        <time>2025-06-15T09:00:19Z</time>
      </trkpt>
      <trkpt lat="45.13372" lon="0.60454">
        <ele>135.8</ele>
        <time>2025-06-15T09:00:20Z</time>
      </trkpt>
      <trkpt lat="45.1337" lon="0.60454">
        <ele>136</ele>
        <time>2025-06-15T09:00:21Z</time>
      </trkpt>
      <trkpt lat="45.13369" lon="0.60453">
        <ele>136.2</ele>
        <time>2025-06-15T09:00:22Z</time>
      </trkpt>
      <trkpt lat="45.13368" lon="0.60452">
        <ele>136.4</ele>
        <time>2025-06-15T09:00:23Z</time>
      </trkpt>
      <trkpt lat="45.13367" lon="0.60451">
        <ele>136.6</ele>
        <time>2025-06-15T09:00:24Z</time>
      </trkpt>
      <trkpt lat="45.13366" lon="0.60451">
        <ele>136.8</ele>
        <time>2025-06-15T09:00:25Z</time>
      </trkpt>
      <trkpt lat="45.13364" lon="0.6045">
        <ele>137</ele>
        <time>2025-06-15T09:00:26Z</time>
      </trkpt>
      <trkpt lat="45.13363" lon="0.60449">
        <ele>137.2</ele>
        <time>2025-06-15T09:00:27Z</time>
      </trkpt>
      <trkpt lat="45.13362" lon="0.60449">
        <ele>137.4</ele>
        <time>2025-06-15T09:00:28Z</time>
      </trkpt>
      <trkpt lat="45.13361" lon="0.60448">
        <ele>137.6</ele>
        <time>2025-06-15T09:00:29Z</time>
      </trkpt>
      <trkpt lat="45.1336" lon="0.60448">
        <ele>137.8</ele>
        <time>2025-06-15T09:00:30Z</time>
      </trkpt>
      <trkpt lat="45.13359" lon="0.60447">
        <ele>138</ele>
        <time>2025-06-15T09:00:31Z</time>
      </trkpt>
      <trkpt lat="45.13358" lon="0.60446">
        <ele>138.2</ele>
        <time>2025-06-15T09:00:32Z</time>
      </trkpt>
      <trkpt lat="45.13357" lon="0.60445">
        <ele>138.4</ele>
        <time>2025-06-15T09:00:33Z</time>
      </trkpt>
      <trkpt lat="45.13356" lon="0.60444">
        <ele>138.6</ele>
        <time>2025-06-15T09:00:34Z</time>
      </trkpt>
      <trkpt lat="45.13356" lon="0.60443">
        <ele>138.8</ele>
        <time>2025-06-15T09:00:35Z</time>
      </trkpt>
      <trkpt lat="45.13355" lon="0.60442">
        <ele>139</ele>
        <time>2025-06-15T09:00:36Z</time>
      </trkpt>
      <trkpt lat="45.13354" lon="0.60441">
        <ele>139.2</ele>
        <time>2025-06-15T09:00:37Z</time>
      </trkpt>
      <trkpt lat="45.13353" lon="0.6044">
        <ele>139.4</ele>
        <time>2025-06-15T09:00:38Z</time>
      </trkpt>
      <trkpt lat="45.13352" lon="0.6044">
        <ele>139.6</ele>
        <time>2025-06-15T09:00:39Z</time>
      </trkpt>
      <trkpt lat="45.13352" lon="0.60439">
        <ele>139.8</ele>
        <time>2025-06-15T09:00:40Z</time>
      </trkpt>
      <trkpt lat="45.13351" lon="0.60438">
        <ele>140</ele>
        <time>2025-06-15T09:00:41Z</time>
      </trkpt>
      <trkpt lat="45.1335" lon="0.60436">
        <ele>140.2</ele>
        <time>2025-06-15T09:00:42Z</time>
      </trkpt>
      <trkpt lat="45.13348" lon="0.60436">
        <ele>140.4</ele>
        <time>2025-06-15T09:00:43Z</time>
      </trkpt>
      <trkpt lat="45.13347" lon="0.60435">
        <ele>140.6</ele>
        <time>2025-06-15T09:00:44Z</time>
      </trkpt>
      <trkpt lat="45.13346" lon="0.60435">
        <ele>140.8</ele>
        <time>2025-06-15T09:00:45Z</time>
      </trkpt>
      <trkpt lat="45.13345" lon="0.60434">
        <ele>141</ele>
        <time>2025-06-15T09:00:46Z</time>
      </trkpt>
      <trkpt lat="45.13344" lon="0.60434">
        <ele>141.2</ele>
        <time>2025-06-15T09:00:47Z</time>
      </trkpt>
      <trkpt lat="45.13343" lon="0.60433">
        <ele>141.4</ele>
        <time>2025-06-15T09:00:48Z</time>
      </trkpt>
      <trkpt lat="45.13342" lon="0.60432">
        <ele>141.4</ele>
        <time>2025-06-15T09:00:49Z</time>
      </trkpt>
      <trkpt lat="45.13341" lon="0.60431">
        <ele>141.6</ele>
        <time>2025-06-15T09:00:50Z</time>
      </trkpt>
      <trkpt lat="45.1334" lon="0.6043">
        <ele>141.8</ele>
        <time>2025-06-15T09:00:51Z</time>
      </trkpt>
      <trkpt lat="45.13339" lon="0.60429">
        <ele>142</ele>
        <time>2025-06-15T09:00:52Z</time>
      </trkpt>
      <trkpt lat="45.13338" lon="0.60428">
        <ele>142.2</ele>
        <time>2025-06-15T09:00:53Z</time>
      </trkpt>
      <trkpt lat="45.13337" lon="0.60428">
        <ele>142.4</ele>
        <time>2025-06-15T09:00:54Z</time>
      </trkpt>
      <trkpt lat="45.13335" lon="0.60426">
        <ele>142.6</ele>
        <time>2025-06-15T09:00:55Z</time>
      </trkpt>
      <trkpt lat="45.13334" lon="0.60426">
        <ele>142.8</ele>
        <time>2025-06-15T09:00:56Z</time>
      </trkpt>
      <trkpt lat="45.13333" lon="0.60425">
        <ele>142.8</ele>
        <time>2025-06-15T09:00:57Z</time>
      </trkpt>
      <trkpt lat="45.13332" lon="0.60424">
        <ele>143</ele>
        <time>2025-06-15T09:00:58Z</time>
      </trkpt>
      <trkpt lat="45.13331" lon="0.60423">
        <ele>143.4</ele>
        <time>2025-06-15T09:00:59Z</time>
      </trkpt>
      <trkpt lat="45.13329" lon="0.60423">
        <ele>143.4</ele>
        <time>2025-06-15T09:01:00Z</time>
      </trkpt>
      <trkpt lat="45.13328" lon="0.60422">
        <ele>143.6</ele>
        <time>2025-06-15T09:01:01Z</time>
      </trkpt>
      <trkpt lat="45.13328" lon="0.60422">
        <ele>143.8</ele>
        <time>2025-06-15T09:01:02Z</time>
      </trkpt>
      <trkpt lat="45.13326" lon="0.60421">
        <ele>144</ele>
        <time>2025-06-15T09:01:03Z</time>
      </trkpt>
      <trkpt lat="45.13326" lon="0.6042">
        <ele>144</ele>
        <time>2025-06-15T09:01:04Z</time>
      </trkpt>
      <trkpt lat="45.13325" lon="0.60419">
        <ele>144.4</ele>
        <time>2025-06-15T09:01:05Z</time>
      </trkpt>
      <trkpt lat="45.13323" lon="0.60419">
        <ele>144.6</ele>
        <time>2025-06-15T09:01:06Z</time>
      </trkpt>
      <trkpt lat="45.13322" lon="0.60418">
        <ele>144.6</ele>
        <time>2025-06-15T09:01:07Z</time>
      </trkpt>
      <trkpt lat="45.13321" lon="0.60417">
        <ele>144.8</ele>
        <time>2025-06-15T09:01:08Z</time>
      </trkpt>
      <trkpt lat="45.1332" lon="0.60416">
        <ele>145</ele>
        <time>2025-06-15T09:01:09Z</time>
      </trkpt>
      <trkpt lat="45.13319" lon="0.60415">
        <ele>145.2</ele>
        <time>2025-06-15T09:01:10Z</time>
      </trkpt>
      <trkpt lat="45.13317" lon="0.60414">
        <ele>145.2</ele>
        <time>2025-06-15T09:01:11Z</time>
      </trkpt>
      <trkpt lat="45.13316" lon="0.60413">
        <ele>145.4</ele>
        <time>2025-06-15T09:01:12Z</time>
      </trkpt>
      <trkpt lat="45.13315" lon="0.60413">
        <ele>145.4</ele>
        <time>2025-06-15T09:01:13Z</time>
      </trkpt>
      <trkpt lat="45.13313" lon="0.60412">
        <ele>145.6</ele>
        <time>2025-06-15T09:01:14Z</time>
      </trkpt>
      <trkpt lat="45.13312" lon="0.60412">
        <ele>145.8</ele>
        <time>2025-06-15T09:01:15Z</time>
      </trkpt>
      <trkpt lat="45.13311" lon="0.60411">
        <ele>145.8</ele>
        <time>2025-06-15T09:01:16Z</time>
      </trkpt>
      <trkpt lat="45.13309" lon="0.6041">
        <ele>146</ele>
        <time>2025-06-15T09:01:17Z</time>
      </trkpt>
      <trkpt lat="45.13308" lon="0.6041">
        <ele>146.2</ele>
        <time>2025-06-15T09:01:18Z</time>
      </trkpt>
      <trkpt lat="45.13307" lon="0.6041">
        <ele>146.2</ele>
        <time>2025-06-15T09:01:19Z</time>
      </trkpt>
      <trkpt lat="45.13306" lon="0.60409">
        <ele>146.4</ele>
        <time>2025-06-15T09:01:20Z</time>
      </trkpt>
      <trkpt lat="45.13305" lon="0.60409">
        <ele>146.6</ele>
        <time>2025-06-15T09:01:21Z</time>
      </trkpt>
      <trkpt lat="45.13303" lon="0.60409">
        <ele>146.8</ele>
        <time>2025-06-15T09:01:22Z</time>
      </trkpt>
      <trkpt lat="45.13302" lon="0.60409">
        <ele>147</ele>
        <time>2025-06-15T09:01:23Z</time>
      </trkpt>
      <trkpt lat="45.13301" lon="0.60409">
        <ele>147</ele>
        <time>2025-06-15T09:01:24Z</time>
      </trkpt>
      <trkpt lat="45.13299" lon="0.60409">
        <ele>147.2</ele>
        <time>2025-06-15T09:01:25Z</time>
      </trkpt>
      <trkpt lat="45.13298" lon="0.60409">
        <ele>147.4</ele>
        <time>2025-06-15T09:01:26Z</time>
      </trkpt>
      <trkpt lat="45.13297" lon="0.60409">
        <ele>147.4</ele>
        <time>2025-06-15T09:01:27Z</time>
      </trkpt>
      <trkpt lat="45.13295" lon="0.60409">
        <ele>147.6</ele>
        <time>2025-06-15T09:01:28Z</time>
      </trkpt>
      <trkpt lat="45.13294" lon="0.6041">
        <ele>147.8</ele>
        <time>2025-06-15T09:01:29Z</time>
      </trkpt>
      <trkpt lat="45.13293" lon="0.6041">
        <ele>148</ele>
        <time>2025-06-15T09:01:30Z</time>
      </trkpt>
      <trkpt lat="45.13291" lon="0.6041">
        <ele>148</ele>
        <time>2025-06-15T09:01:31Z</time>
      </trkpt>
      <trkpt lat="45.1329" lon="0.6041">
        <ele>148.2</ele>
        <time>2025-06-15T09:01:32Z</time>
      </trkpt>
      <trkpt lat="45.13289" lon="0.60411">
        <ele>148.4</ele>
        <time>2025-06-15T09:01:33Z</time>
      </trkpt>
      <trkpt lat="45.13288" lon="0.60412">
        <ele>148.4</ele>
        <time>2025-06-15T09:01:34Z</time>
      </trkpt>
      <trkpt lat="45.13286" lon="0.60413">
        <ele>148.6</ele>
        <time>2025-06-15T09:01:35Z</time>
      </trkpt>
      <trkpt lat="45.13285" lon="0.60413">
        <ele>148.8</ele>
        <time>2025-06-15T09:01:36Z</time>
      </trkpt>
      <trkpt lat="45.13283" lon="0.60414">
        <ele>148.8</ele>
        <time>2025-06-15T09:01:37Z</time>
      </trkpt>
      <trkpt lat="45.13282" lon="0.60415">
        <ele>149</ele>
        <time>2025-06-15T09:01:38Z</time>
      </trkpt>
      <trkpt lat="45.13281" lon="0.60415">
        <ele>149.2</ele>
        <time>2025-06-15T09:01:39Z</time>
      </trkpt>
      <trkpt lat="45.13279" lon="0.60416">
        <ele>149.2</ele>
        <time>2025-06-15T09:01:40Z</time>
      </trkpt>
      <trkpt lat="45.13278" lon="0.60416">
        <ele>149.4</ele>
        <time>2025-06-15T09:01:41Z</time>
      </trkpt>
      <trkpt lat="45.13277" lon="0.60417">
        <ele>149.6</ele>
        <time>2025-06-15T09:01:42Z</time>
      </trkpt>
      <trkpt lat="45.13275" lon="0.60418">
        <ele>149.6</ele>
        <time>2025-06-15T09:01:43Z</time>
      </trkpt>
      <trkpt lat="45.13274" lon="0.60418">
        <ele>149.8</ele>
        <time>2025-06-15T09:01:44Z</time>
      </trkpt>
      <trkpt lat="45.13273" lon="0.60419">
        <ele>150</ele>
        <time>2025-06-15T09:01:45Z</time>
      </trkpt>
      <trkpt lat="45.13271" lon="0.60419">
        <ele>150</ele>
        <time>2025-06-15T09:01:46Z</time>
      </trkpt>
      <trkpt lat="45.1327" lon="0.6042">
        <ele>150.2</ele>
        <time>2025-06-15T09:01:47Z</time>
      </trkpt>
      <trkpt lat="45.13269" lon="0.6042">
        <ele>150.4</ele>
        <time>2025-06-15T09:01:48Z</time>
      </trkpt>
      <trkpt lat="45.13268" lon="0.60421">
        <ele>150.4</ele>
        <time>2025-06-15T09:01:49Z</time>
      </trkpt>
      <trkpt lat="45.13266" lon="0.60421">
        <ele>150.6</ele>
        <time>2025-06-15T09:01:50Z</time>
      </trkpt>
      <trkpt lat="45.13265" lon="0.60422">
        <ele>150.8</ele>
        <time>2025-06-15T09:01:51Z</time>
      </trkpt>
      <trkpt lat="45.13264" lon="0.60422">
        <ele>150.8</ele>
        <time>2025-06-15T09:01:52Z</time>
      </trkpt>
      <trkpt lat="45.13263" lon="0.60422">
        <ele>151</ele>
        <time>2025-06-15T09:01:53Z</time>
      </trkpt>
      <trkpt lat="45.13261" lon="0.60422">
        <ele>151.2</ele>
        <time>2025-06-15T09:01:54Z</time>
      </trkpt>
      <trkpt lat="45.1326" lon="0.60423">
        <ele>151.2</ele>
        <time>2025-06-15T09:01:55Z</time>
      </trkpt>
      <trkpt lat="45.13258" lon="0.60423">
        <ele>151.4</ele>
        <time>2025-06-15T09:01:56Z</time>
      </trkpt>
      <trkpt lat="45.13257" lon="0.60423">
        <ele>151.6</ele>
        <time>2025-06-15T09:01:57Z</time>
      </trkpt>
      <trkpt lat="45.13256" lon="0.60423">
        <ele>151.8</ele>
        <time>2025-06-15T09:01:58Z</time>
      </trkpt>
      <trkpt lat="45.13255" lon="0.60423">
        <ele>151.8</ele>
        <time>2025-06-15T09:01:59Z</time>
      </trkpt>
      <trkpt lat="45.13254" lon="0.60424">
        <ele>152</ele>
        <time>2025-06-15T09:02:00Z</time>
      </trkpt>
      <trkpt lat="45.13252" lon="0.60424">
        <ele>152.2</ele>
        <time>2025-06-15T09:02:01Z</time>
      </trkpt>
      <trkpt lat="45.13251" lon="0.60424">
        <ele>152.4</ele>
        <time>2025-06-15T09:02:02Z</time>
      </trkpt>
      <trkpt lat="45.13249" lon="0.60424">
        <ele>152.6</ele>
        <time>2025-06-15T09:02:03Z</time>
      </trkpt>
      <trkpt lat="45.13248" lon="0.60424">
        <ele>152.6</ele>
        <time>2025-06-15T09:02:04Z</time>
      </trkpt>
      <trkpt lat="45.13247" lon="0.60424">
        <ele>152.8</ele>
        <time>2025-06-15T09:02:05Z</time>
      </trkpt>
      <trkpt lat="45.13245" lon="0.60424">
        <ele>153</ele>
        <time>2025-06-15T09:02:06Z</time>
      </trkpt>
      <trkpt lat="45.13244" lon="0.60425">
        <ele>153.2</ele>
        <time>2025-06-15T09:02:07Z</time>
      </trkpt>
      <trkpt lat="45.13242" lon="0.60425">
        <ele>153.4</ele>
        <time>2025-06-15T09:02:08Z</time>
      </trkpt>
      <trkpt lat="45.13241" lon="0.60425">
        <ele>153.6</ele>
        <time>2025-06-15T09:02:09Z</time>
      </trkpt>
      <trkpt lat="45.1324" lon="0.60425">
        <ele>153.8</ele>
        <time>2025-06-15T09:02:10Z</time>
      </trkpt>
      <trkpt lat="45.13239" lon="0.60426">
        <ele>154</ele>
        <time>2025-06-15T09:02:11Z</time>
      </trkpt>
      <trkpt lat="45.13237" lon="0.60427">
        <ele>154</ele>
        <time>2025-06-15T09:02:12Z</time>
      </trkpt>
      <trkpt lat="45.13236" lon="0.60428">
        <ele>154.4</ele>
        <time>2025-06-15T09:02:13Z</time>
      </trkpt>
      <trkpt lat="45.13234" lon="0.60428">
        <ele>154.4</ele>
        <time>2025-06-15T09:02:14Z</time>
      </trkpt>
      <trkpt lat="45.13233" lon="0.60428">
        <ele>154.6</ele>
        <time>2025-06-15T09:02:15Z</time>
      </trkpt>
      <trkpt lat="45.13231" lon="0.60429">
        <ele>154.8</ele>
        <time>2025-06-15T09:02:16Z</time>
      </trkpt>
      <trkpt lat="45.1323" lon="0.60429">
        <ele>155</ele>
        <time>2025-06-15T09:02:17Z</time>
      </trkpt>
      <trkpt lat="45.13228" lon="0.6043">
        <ele>155.2</ele>
        <time>2025-06-15T09:02:18Z</time>
      </trkpt>
      <trkpt lat="45.13227" lon="0.6043">
        <ele>155.2</ele>
        <time>2025-06-15T09:02:19Z</time>
      </trkpt>
      <trkpt lat="45.13226" lon="0.60431">
        <ele>155.4</ele>
        <time>2025-06-15T09:02:20Z</time>
      </trkpt>
      <trkpt lat="45.13225" lon="0.60431">
        <ele>155.6</ele>
        <time>2025-06-15T09:02:21Z</time>
      </trkpt>
      <trkpt lat="45.13223" lon="0.60432">
        <ele>155.8</ele>
        <time>2025-06-15T09:02:22Z</time>
      </trkpt>
      <trkpt lat="45.13222" lon="0.60432">
        <ele>155.8</ele>
        <time>2025-06-15T09:02:23Z</time>
      </trkpt>
      <trkpt lat="45.13221" lon="0.60433">
        <ele>156.2</ele>
        <time>2025-06-15T09:02:24Z</time>
      </trkpt>
      <trkpt lat="45.13219" lon="0.60433">
        <ele>156.2</ele>
        <time>2025-06-15T09:02:25Z</time>
      </trkpt>
      <trkpt lat="45.13218" lon="0.60434">
        <ele>156.4</ele>
        <time>2025-06-15T09:02:26Z</time>
      </trkpt>
      <trkpt lat="45.13217" lon="0.60434">
        <ele>156.6</ele>
        <time>2025-06-15T09:02:27Z</time>
      </trkpt>
      <trkpt lat="45.13216" lon="0.60435">
        <ele>156.6</ele>
        <time>2025-06-15T09:02:28Z</time>
      </trkpt>
      <trkpt lat="45.13214" lon="0.60435">
        <ele>156.8</ele>
        <time>2025-06-15T09:02:29Z</time>
      </trkpt>
      <trkpt lat="45.13213" lon="0.60435">
        <ele>157</ele>
        <time>2025-06-15T09:02:30Z</time>
      </trkpt>
      <trkpt lat="45.13211" lon="0.60436">
        <ele>157.2</ele>
        <time>2025-06-15T09:02:31Z</time>
      </trkpt>
      <trkpt lat="45.1321" lon="0.60436">
        <ele>157.2</ele>
        <time>2025-06-15T09:02:32Z</time>
      </trkpt>
      <trkpt lat="45.13209" lon="0.60437">
        <ele>157.4</ele>
        <time>2025-06-15T09:02:33Z</time>
      </trkpt>
      <trkpt lat="45.13207" lon="0.60437">
        <ele>157.6</ele>
        <time>2025-06-15T09:02:34Z</time>
      </trkpt>
      <trkpt lat="45.13206" lon="0.60438">
        <ele>157.8</ele>
        <time>2025-06-15T09:02:35Z</time>
      </trkpt>
      <trkpt lat="45.13204" lon="0.60439">
        <ele>158</ele>
        <time>2025-06-15T09:02:36Z</time>
      </trkpt>
      <trkpt lat="45.13203" lon="0.60439">
        <ele>158</ele>
        <time>2025-06-15T09:02:37Z</time>
      </trkpt>
      <trkpt lat="45.13202" lon="0.6044">
        <ele>158.2</ele>
        <time>2025-06-15T09:02:38Z</time>
      </trkpt>
      <trkpt lat="45.13201" lon="0.60441">
        <ele>158.4</ele>
        <time>2025-06-15T09:02:39Z</time>
      </trkpt>
      <trkpt lat="45.132" lon="0.60442">
        <ele>158.4</ele>
        <time>2025-06-15T09:02:40Z</time>
      </trkpt>
      <trkpt lat="45.13198" lon="0.60443">
        <ele>158.6</ele>
        <time>2025-06-15T09:02:41Z</time>
      </trkpt>
      <trkpt lat="45.13197" lon="0.60444">
        <ele>158.8</ele>
        <time>2025-06-15T09:02:42Z</time>
      </trkpt>
      <trkpt lat="45.13196" lon="0.60445">
        <ele>158.8</ele>
        <time>2025-06-15T09:02:43Z</time>
      </trkpt>
      <trkpt lat="45.13195" lon="0.60446">
        <ele>159</ele>
        <time>2025-06-15T09:02:44Z</time>
      </trkpt>
      <trkpt lat="45.13193" lon="0.60448">
        <ele>159</ele>
        <time>2025-06-15T09:02:45Z</time>
      </trkpt>
      <trkpt lat="45.13192" lon="0.6045">
        <ele>159.2</ele>
        <time>2025-06-15T09:02:46Z</time>
      </trkpt>
      <trkpt lat="45.13191" lon="0.60451">
        <ele>159.4</ele>
        <time>2025-06-15T09:02:47Z</time>
      </trkpt>
      <trkpt lat="45.13191" lon="0.60453">
        <ele>159.6</ele>
        <time>2025-06-15T09:02:48Z</time>
      </trkpt>
      <trkpt lat="45.1319" lon="0.60455">
        <ele>159.8</ele>
        <time>2025-06-15T09:02:49Z</time>
      </trkpt>
      <trkpt lat="45.13189" lon="0.60457">
        <ele>159.8</ele>
        <time>2025-06-15T09:02:50Z</time>
      </trkpt>
      <trkpt lat="45.13189" lon="0.60459">
        <ele>160</ele>
        <time>2025-06-15T09:02:51Z</time>
      </trkpt>
      <trkpt lat="45.13188" lon="0.60461">
        <ele>160.2</ele>
        <time>2025-06-15T09:02:52Z</time>
      </trkpt>
      <trkpt lat="45.13188" lon="0.60463">
        <ele>160.4</ele>
        <time>2025-06-15T09:02:53Z</time>
      </trkpt>
      <trkpt lat="45.13187" lon="0.60465">
        <ele>160.4</ele>
        <time>2025-06-15T09:02:54Z</time>
      </trkpt>
      <trkpt lat="45.13187" lon="0.60467">
        <ele>160.4</ele>
        <time>2025-06-15T09:02:55Z</time>
      </trkpt>
      <trkpt lat="45.13186" lon="0.6047">
        <ele>160.6</ele>
        <time>2025-06-15T09:02:56Z</time>
      </trkpt>
      <trkpt lat="45.13185" lon="0.60472">
        <ele>160.6</ele>
        <time>2025-06-15T09:02:57Z</time>
      </trkpt>
      <trkpt lat="45.13184" lon="0.60475">
        <ele>160.8</ele>
        <time>2025-06-15T09:02:58Z</time>
      </trkpt>
      <trkpt lat="45.13183" lon="0.60477">
        <ele>160.8</ele>
        <time>2025-06-15T09:02:59Z</time>
      </trkpt>
      <trkpt lat="45.13182" lon="0.60479">
        <ele>161</ele>
        <time>2025-06-15T09:03:00Z</time>
      </trkpt>
      <trkpt lat="45.13182" lon="0.60481">
        <ele>161.2</ele>
        <time>2025-06-15T09:03:01Z</time>
      </trkpt>
      <trkpt lat="45.13181" lon="0.60483">
        <ele>161.2</ele>
        <time>2025-06-15T09:03:02Z</time>
      </trkpt>
      <trkpt lat="45.1318" lon="0.60485">
        <ele>161.4</ele>
        <time>2025-06-15T09:03:03Z</time>
      </trkpt>
      <trkpt lat="45.13179" lon="0.60487">
        <ele>161.6</ele>
        <time>2025-06-15T09:03:04Z</time>
      </trkpt>
      <trkpt lat="45.13178" lon="0.60489">
        <ele>161.6</ele>
        <time>2025-06-15T09:03:05Z</time>
      </trkpt>
      <trkpt lat="45.13177" lon="0.60491">
        <ele>161.8</ele>
        <time>2025-06-15T09:03:06Z</time>
      </trkpt>
      <trkpt lat="45.13175" lon="0.60492">
        <ele>161.8</ele>
        <time>2025-06-15T09:03:07Z</time>
      </trkpt>
      <trkpt lat="45.13175" lon="0.60494">
        <ele>162</ele>
        <time>2025-06-15T09:03:08Z</time>
      </trkpt>
      <trkpt lat="45.13174" lon="0.60496">
        <ele>162.2</ele>
        <time>2025-06-15T09:03:09Z</time>
      </trkpt>
      <trkpt lat="45.13173" lon="0.60498">
        <ele>162.2</ele>
        <time>2025-06-15T09:03:10Z</time>
      </trkpt>
      <trkpt lat="45.13171" lon="0.60502">
        <ele>162.4</ele>
        <time>2025-06-15T09:03:11Z</time>
      </trkpt>
      <trkpt lat="45.13169" lon="0.60505">
        <ele>162.6</ele>
        <time>2025-06-15T09:03:12Z</time>
      </trkpt>
      <trkpt lat="45.13168" lon="0.60507">
        <ele>162.6</ele>
        <time>2025-06-15T09:03:13Z</time>
      </trkpt>
      <trkpt lat="45.13167" lon="0.6051">
        <ele>162.8</ele>
        <time>2025-06-15T09:03:14Z</time>
      </trkpt>
      <trkpt lat="45.13165" lon="0.60511">
        <ele>162.8</ele>
        <time>2025-06-15T09:03:15Z</time>
      </trkpt>
      <trkpt lat="45.13164" lon="0.60513">
        <ele>163</ele>
        <time>2025-06-15T09:03:16Z</time>
      </trkpt>
      <trkpt lat="45.13162" lon="0.60515">
        <ele>163</ele>
        <time>2025-06-15T09:03:17Z</time>
      </trkpt>
      <trkpt lat="45.13161" lon="0.60516">
        <ele>163.2</ele>
        <time>2025-06-15T09:03:18Z</time>
      </trkpt>
      <trkpt lat="45.13159" lon="0.60518">
        <ele>163.4</ele>
        <time>2025-06-15T09:03:19Z</time>
      </trkpt>
      <trkpt lat="45.13158" lon="0.60521">
        <ele>163.4</ele>
        <time>2025-06-15T09:03:20Z</time>
      </trkpt>
      <trkpt lat="45.13157" lon="0.60523">
        <ele>163.6</ele>
        <time>2025-06-15T09:03:21Z</time>
      </trkpt>
      <trkpt lat="45.13155" lon="0.60525">
        <ele>163.8</ele>
        <time>2025-06-15T09:03:22Z</time>
      </trkpt>
      <trkpt lat="45.13154" lon="0.60527">
        <ele>163.8</ele>
        <time>2025-06-15T09:03:23Z</time>
      </trkpt>
      <trkpt lat="45.13152" lon="0.60529">
        <ele>164</ele>
        <time>2025-06-15T09:03:24Z</time>
      </trkpt>
      <trkpt lat="45.13151" lon="0.60531">
        <ele>164</ele>
        <time>2025-06-15T09:03:25Z</time>
      </trkpt>
      <trkpt lat="45.13149" lon="0.60533">
        <ele>164.2</ele>
        <time>2025-06-15T09:03:26Z</time>
      </trkpt>
      <trkpt lat="45.13148" lon="0.60535">
        <ele>164.4</ele>
        <time>2025-06-15T09:03:27Z</time>
      </trkpt>
      <trkpt lat="45.13146" lon="0.60538">
        <ele>164.4</ele>
        <time>2025-06-15T09:03:28Z</time>
      </trkpt>
      <trkpt lat="45.13145" lon="0.6054">
        <ele>164.4</ele>
        <time>2025-06-15T09:03:29Z</time>
      </trkpt>
      <trkpt lat="45.13144" lon="0.60543">
        <ele>164.6</ele>
        <time>2025-06-15T09:03:30Z</time>
      </trkpt>
      <trkpt lat="45.13143" lon="0.60545">
        <ele>164.6</ele>
        <time>2025-06-15T09:03:31Z</time>
      </trkpt>
      <trkpt lat="45.13142" lon="0.60545">
        <ele>164.8</ele>
        <time>2025-06-15T09:03:32Z</time>
      </trkpt>
      <trkpt lat="45.13142" lon="0.60545">
        <ele>164.8</ele>
        <time>2025-06-15T09:03:33Z</time>
      </trkpt>
      <trkpt lat="45.13138" lon="0.60555">
        <ele>165</ele>
        <time>2025-06-15T09:03:57Z</time>
      </trkpt>
      <trkpt lat="45.13137" lon="0.60556">
        <ele>165</ele>
        <time>2025-06-15T09:03:58Z</time>
      </trkpt>
      <trkpt lat="45.13136" lon="0.60558">
        <ele>165</ele>
        <time>2025-06-15T09:03:59Z</time>
      </trkpt>
      <trkpt lat="45.13136" lon="0.6056">
        <ele>165</ele>
        <time>2025-06-15T09:04:00Z</time>
      </trkpt>
      <trkpt lat="45.13135" lon="0.60561">
        <ele>165</ele>
        <time>2025-06-15T09:04:01Z</time>
      </trkpt>
      <trkpt lat="45.13134" lon="0.60563">
        <ele>165</ele>
        <time>2025-06-15T09:04:02Z</time>
      </trkpt>
      <trkpt lat="45.13134" lon="0.60564">
        <ele>165</ele>
        <time>2025-06-15T09:04:03Z</time>
      </trkpt>
      <trkpt lat="45.13134" lon="0.60564">
        <ele>165</ele>
        <time>2025-06-15T09:04:04Z</time>
      </trkpt>
      <trkpt lat="45.13134" lon="0.60563">
        <ele>165</ele>
        <time>2025-06-15T09:04:05Z</time>
      </trkpt>
      <trkpt lat="45.13132" lon="0.6057">
        <ele>165.2</ele>
        <time>2025-06-15T09:04:18Z</time>
      </trkpt>
      <trkpt lat="45.13132" lon="0.60573">
        <ele>165.2</ele>
        <time>2025-06-15T09:04:19Z</time>
      </trkpt>
      <trkpt lat="45.1313" lon="0.60577">
        <ele>165.2</ele>
        <time>2025-06-15T09:04:20Z</time>
      </trkpt>
      <trkpt lat="45.1313" lon="0.60582">
        <ele>165</ele>
        <time>2025-06-15T09:04:21Z</time>
      </trkpt>
      <trkpt lat="45.13129" lon="0.60586">
        <ele>164.8</ele>
        <time>2025-06-15T09:04:22Z</time>
      </trkpt>
      <trkpt lat="45.13129" lon="0.60592">
        <ele>164.6</ele>
        <time>2025-06-15T09:04:23Z</time>
      </trkpt>
      <trkpt lat="45.13128" lon="0.60597">
        <ele>164.4</ele>
        <time>2025-06-15T09:04:24Z</time>
      </trkpt>
      <trkpt lat="45.13128" lon="0.60603">
        <ele>164.2</ele>
        <time>2025-06-15T09:04:25Z</time>
      </trkpt>
      <trkpt lat="45.13127" lon="0.60609">
        <ele>164</ele>
        <time>2025-06-15T09:04:26Z</time>
      </trkpt>
      <trkpt lat="45.13127" lon="0.60615">
        <ele>164</ele>
        <time>2025-06-15T09:04:27Z</time>
      </trkpt>
      <trkpt lat="45.13127" lon="0.6062">
        <ele>164</ele>
        <time>2025-06-15T09:04:28Z</time>
      </trkpt>
      <trkpt lat="45.13126" lon="0.60627">
        <ele>163.8</ele>
        <time>2025-06-15T09:04:29Z</time>
      </trkpt>
      <trkpt lat="45.13126" lon="0.60633">
        <ele>163.8</ele>
        <time>2025-06-15T09:04:30Z</time>
      </trkpt>
      <trkpt lat="45.13126" lon="0.60639">
        <ele>163.8</ele>
        <time>2025-06-15T09:04:31Z</time>
      </trkpt>
      <trkpt lat="45.13125" lon="0.60647">
        <ele>163.6</ele>
        <time>2025-06-15T09:04:32Z</time>
      </trkpt>
      <trkpt lat="45.13125" lon="0.60652">
        <ele>163.6</ele>
        <time>2025-06-15T09:04:33Z</time>
      </trkpt>
      <trkpt lat="45.13123" lon="0.60658">
        <ele>163.8</ele>
        <time>2025-06-15T09:04:34Z</time>
      </trkpt>
      <trkpt lat="45.13123" lon="0.60665">
        <ele>163.8</ele>
        <time>2025-06-15T09:04:35Z</time>
      </trkpt>
      <trkpt lat="45.13121" lon="0.60671">
        <ele>163.8</ele>
        <time>2025-06-15T09:04:36Z</time>
      </trkpt>
      <trkpt lat="45.13121" lon="0.60677">
        <ele>164</ele>
        <time>2025-06-15T09:04:37Z</time>
      </trkpt>
      <trkpt lat="45.13119" lon="0.60683">
        <ele>164.2</ele>
        <time>2025-06-15T09:04:38Z</time>
      </trkpt>
      <trkpt lat="45.13118" lon="0.60688">
        <ele>164.6</ele>
        <time>2025-06-15T09:04:39Z</time>
      </trkpt>
      <trkpt lat="45.13117" lon="0.60694">
        <ele>164.8</ele>
        <time>2025-06-15T09:04:40Z</time>
      </trkpt>
      <trkpt lat="45.13115" lon="0.60699">
        <ele>165</ele>
        <time>2025-06-15T09:04:41Z</time>
      </trkpt>
      <trkpt lat="45.13113" lon="0.60705">
        <ele>165</ele>
        <time>2025-06-15T09:04:42Z</time>
      </trkpt>
      <trkpt lat="45.13112" lon="0.60711">
        <ele>165.2</ele>
        <time>2025-06-15T09:04:43Z</time>
      </trkpt>
      <trkpt lat="45.13111" lon="0.60715">
        <ele>165.2</ele>
        <time>2025-06-15T09:04:44Z</time>
      </trkpt>
      <trkpt lat="45.1311" lon="0.6072">
        <ele>165.4</ele>
        <time>2025-06-15T09:04:45Z</time>
      </trkpt>
      <trkpt lat="45.13108" lon="0.60724">
        <ele>165.6</ele>
        <time>2025-06-15T09:04:46Z</time>
      </trkpt>
      <trkpt lat="45.13107" lon="0.60729">
        <ele>165.8</ele>
        <time>2025-06-15T09:04:47Z</time>
      </trkpt>
      <trkpt lat="45.13105" lon="0.60734">
        <ele>165.8</ele>
        <time>2025-06-15T09:04:48Z</time>
      </trkpt>
      <trkpt lat="45.13104" lon="0.60738">
        <ele>166</ele>
        <time>2025-06-15T09:04:49Z</time>
      </trkpt>
      <trkpt lat="45.13104" lon="0.60744">
        <ele>166.2</ele>
        <time>2025-06-15T09:04:50Z</time>
      </trkpt>
      <trkpt lat="45.13105" lon="0.60749">
        <ele>166.2</ele>
        <time>2025-06-15T09:04:51Z</time>
      </trkpt>
      <trkpt lat="45.13108" lon="0.60753">
        <ele>166.2</ele>
        <time>2025-06-15T09:04:52Z</time>
      </trkpt>
      <trkpt lat="45.1311" lon="0.60758">
        <ele>166.2</ele>
        <time>2025-06-15T09:04:53Z</time>
      </trkpt>
      <trkpt lat="45.13114" lon="0.60761">
        <ele>166</ele>
        <time>2025-06-15T09:04:54Z</time>
      </trkpt>
      <trkpt lat="45.13119" lon="0.60764">
        <ele>165.8</ele>
        <time>2025-06-15T09:04:55Z</time>
      </trkpt>
      <trkpt lat="45.13125" lon="0.60765">
        <ele>165.4</ele>
        <time>2025-06-15T09:04:56Z</time>
      </trkpt>
      <trkpt lat="45.1313" lon="0.60765">
        <ele>165</ele>
        <time>2025-06-15T09:04:57Z</time>
      </trkpt>
      <trkpt lat="45.13136" lon="0.60762">
        <ele>164.6</ele>
        <time>2025-06-15T09:04:58Z</time>
      </trkpt>
      <trkpt lat="45.13142" lon="0.60759">
        <ele>164.2</ele>
        <time>2025-06-15T09:04:59Z</time>
      </trkpt>
      <trkpt lat="45.13148" lon="0.60754">
        <ele>163.8</ele>
        <time>2025-06-15T09:05:00Z</time>
      </trkpt>
      <trkpt lat="45.13154" lon="0.60748">
        <ele>163.4</ele>
        <time>2025-06-15T09:05:01Z</time>
      </trkpt>
      <trkpt lat="45.13159" lon="0.60743">
        <ele>163</ele>
        <time>2025-06-15T09:05:02Z</time>
      </trkpt>
      <trkpt lat="45.13165" lon="0.60738">
        <ele>162.6</ele>
        <time>2025-06-15T09:05:03Z</time>
      </trkpt>
      <trkpt lat="45.13171" lon="0.60734">
        <ele>162</ele>
        <time>2025-06-15T09:05:04Z</time>
      </trkpt>
      <trkpt lat="45.13177" lon="0.60731">
        <ele>161.4</ele>
        <time>2025-06-15T09:05:05Z</time>
      </trkpt>
      <trkpt lat="45.13184" lon="0.6073">
        <ele>160.8</ele>
        <time>2025-06-15T09:05:06Z</time>
      </trkpt>
      <trkpt lat="45.13191" lon="0.6073">
        <ele>160</ele>
        <time>2025-06-15T09:05:07Z</time>
      </trkpt>
      <trkpt lat="45.13198" lon="0.6073">
        <ele>159.2</ele>
        <time>2025-06-15T09:05:08Z</time>
      </trkpt>
      <trkpt lat="45.13206" lon="0.60731">
        <ele>158.4</ele>
        <time>2025-06-15T09:05:09Z</time>
      </trkpt>
      <trkpt lat="45.13214" lon="0.60732">
        <ele>157.6</ele>
        <time>2025-06-15T09:05:10Z</time>
      </trkpt>
      <trkpt lat="45.13222" lon="0.60735">
        <ele>156.8</ele>
        <time>2025-06-15T09:05:11Z</time>
      </trkpt>
      <trkpt lat="45.13229" lon="0.60738">
        <ele>156</ele>
        <time>2025-06-15T09:05:12Z</time>
      </trkpt>
      <trkpt lat="45.13237" lon="0.60743">
        <ele>155</ele>
        <time>2025-06-15T09:05:13Z</time>
      </trkpt>
      <trkpt lat="45.13244" lon="0.60747">
        <ele>154</ele>
        <time>2025-06-15T09:05:14Z</time>
      </trkpt>
      <trkpt lat="45.13251" lon="0.60752">
        <ele>153</ele>
        <time>2025-06-15T09:05:15Z</time>
      </trkpt>
      <trkpt lat="45.13257" lon="0.60757">
        <ele>152</ele>
        <time>2025-06-15T09:05:16Z</time>
      </trkpt>
      <trkpt lat="45.13262" lon="0.60763">
        <ele>151</ele>
        <time>2025-06-15T09:05:17Z</time>
      </trkpt>
      <trkpt lat="45.13268" lon="0.60769">
        <ele>149.6</ele>
        <time>2025-06-15T09:05:18Z</time>
      </trkpt>
      <trkpt lat="45.13274" lon="0.60776">
        <ele>148.6</ele>
        <time>2025-06-15T09:05:19Z</time>
      </trkpt>
      <trkpt lat="45.1328" lon="0.60783">
        <ele>147.6</ele>
        <time>2025-06-15T09:05:20Z</time>
      </trkpt>
      <trkpt lat="45.13286" lon="0.6079">
        <ele>146.6</ele>
        <time>2025-06-15T09:05:21Z</time>
      </trkpt>
      <trkpt lat="45.13291" lon="0.60797">
        <ele>145.6</ele>
        <time>2025-06-15T09:05:22Z</time>
      </trkpt>
      <trkpt lat="45.13297" lon="0.60803">
        <ele>144.4</ele>
        <time>2025-06-15T09:05:23Z</time>
      </trkpt>
      <trkpt lat="45.13303" lon="0.60809">
        <ele>142.8</ele>
        <time>2025-06-15T09:05:24Z</time>
      </trkpt>
      <trkpt lat="45.1331" lon="0.60812">
        <ele>141.6</ele>
        <time>2025-06-15T09:05:25Z</time>
      </trkpt>
      <trkpt lat="45.13316" lon="0.60813">
        <ele>140.2</ele>
        <time>2025-06-15T09:05:26Z</time>
      </trkpt>
      <trkpt lat="45.13323" lon="0.60811">
        <ele>138.8</ele>
        <time>2025-06-15T09:05:27Z</time>
      </trkpt>
      <trkpt lat="45.13329" lon="0.60809">
        <ele>137.6</ele>
        <time>2025-06-15T09:05:28Z</time>
      </trkpt>
      <trkpt lat="45.13335" lon="0.60806">
        <ele>136.4</ele>
        <time>2025-06-15T09:05:29Z</time>
      </trkpt>
      <trkpt lat="45.1334" lon="0.60803">
        <ele>135</ele>
        <time>2025-06-15T09:05:30Z</time>
      </trkpt>
      <trkpt lat="45.13346" lon="0.60804">
        <ele>133.8</ele>
        <time>2025-06-15T09:05:31Z</time>
      </trkpt>
      <trkpt lat="45.13351" lon="0.60806">
        <ele>133</ele>
        <time>2025-06-15T09:05:32Z</time>
      </trkpt>
      <trkpt lat="45.13355" lon="0.60811">
        <ele>132.2</ele>
        <time>2025-06-15T09:05:33Z</time>
      </trkpt>
      <trkpt lat="45.13358" lon="0.60817">
        <ele>131.4</ele>
        <time>2025-06-15T09:05:34Z</time>
      </trkpt>
      <trkpt lat="45.1336" lon="0.60825">
        <ele>130.4</ele>
        <time>2025-06-15T09:05:35Z</time>
      </trkpt>
      <trkpt lat="45.13362" lon="0.60834">
        <ele>129.6</ele>
        <time>2025-06-15T09:05:36Z</time>
      </trkpt>
      <trkpt lat="45.13364" lon="0.60843">
        <ele>128.8</ele>
        <time>2025-06-15T09:05:37Z</time>
      </trkpt>
      <trkpt lat="45.13365" lon="0.60852">
        <ele>128</ele>
        <time>2025-06-15T09:05:38Z</time>
      </trkpt>
      <trkpt lat="45.13368" lon="0.6086">
        <ele>127.2</ele>
        <time>2025-06-15T09:05:39Z</time>
      </trkpt>
      <trkpt lat="45.13371" lon="0.60867">
        <ele>126.4</ele>
        <time>2025-06-15T09:05:40Z</time>
      </trkpt>
      <trkpt lat="45.13375" lon="0.60871">
        <ele>125.6</ele>
        <time>2025-06-15T09:05:41Z</time>
      </trkpt>
      <trkpt lat="45.1338" lon="0.60872">
        <ele>124.8</ele>
        <time>2025-06-15T09:05:42Z</time>
      </trkpt>
      <trkpt lat="45.13386" lon="0.60871">
        <ele>124</ele>
        <time>2025-06-15T09:05:43Z</time>
      </trkpt>
      <trkpt lat="45.13392" lon="0.60871">
        <ele>123.2</ele>
        <time>2025-06-15T09:05:44Z</time>
      </trkpt>
      <trkpt lat="45.13398" lon="0.60871">
        <ele>122.2</ele>
        <time>2025-06-15T09:05:45Z</time>
      </trkpt>
      <trkpt lat="45.13403" lon="0.60873">
        <ele>121</ele>
        <time>2025-06-15T09:05:46Z</time>
      </trkpt>
      <trkpt lat="45.13407" lon="0.60876">
        <ele>120</ele>
        <time>2025-06-15T09:05:47Z</time>
      </trkpt>
      <trkpt lat="45.13411" lon="0.60881">
        <ele>119</ele>
        <time>2025-06-15T09:05:48Z</time>
      </trkpt>
      <trkpt lat="45.13415" lon="0.60889">
        <ele>118</ele>
        <time>2025-06-15T09:05:49Z</time>
      </trkpt>
      <trkpt lat="45.13418" lon="0.60898">
        <ele>117</ele>
        <time>2025-06-15T09:05:50Z</time>
      </trkpt>
      <trkpt lat="45.13421" lon="0.60906">
        <ele>116</ele>
        <time>2025-06-15T09:05:51Z</time>
      </trkpt>
      <trkpt lat="45.13426" lon="0.60913">
        <ele>114.8</ele>
        <time>2025-06-15T09:05:52Z</time>
      </trkpt>
      <trkpt lat="45.13433" lon="0.60918">
        <ele>113.8</ele>
        <time>2025-06-15T09:05:53Z</time>
      </trkpt>
      <trkpt lat="45.1344" lon="0.6092">
        <ele>112.8</ele>
        <time>2025-06-15T09:05:54Z</time>
      </trkpt>
      <trkpt lat="45.13449" lon="0.60921">
        <ele>111.8</ele>
        <time>2025-06-15T09:05:55Z</time>
      </trkpt>
      <trkpt lat="45.13457" lon="0.60919">
        <ele>111</ele>
        <time>2025-06-15T09:05:56Z</time>
      </trkpt>
      <trkpt lat="45.13464" lon="0.60915">
        <ele>110.2</ele>
        <time>2025-06-15T09:05:57Z</time>
      </trkpt>
      <trkpt lat="45.13472" lon="0.60911">
        <ele>109.2</ele>
        <time>2025-06-15T09:05:58Z</time>
      </trkpt>
      <trkpt lat="45.1348" lon="0.6091">
        <ele>108.8</ele>
        <time>2025-06-15T09:05:59Z</time>
      </trkpt>
      <trkpt lat="45.13487" lon="0.6091">
        <ele>108.4</ele>
        <time>2025-06-15T09:06:00Z</time>
      </trkpt>
      <trkpt lat="45.13493" lon="0.60913">
        <ele>108.2</ele>
        <time>2025-06-15T09:06:01Z</time>
      </trkpt>
      <trkpt lat="45.13499" lon="0.60917">
        <ele>108.2</ele>
        <time>2025-06-15T09:06:02Z</time>
      </trkpt>
      <trkpt lat="45.13504" lon="0.6092">
        <ele>108.4</ele>
        <time>2025-06-15T09:06:03Z</time>
      </trkpt>
      <trkpt lat="45.13508" lon="0.60924">
        <ele>108.6</ele>
        <time>2025-06-15T09:06:04Z</time>
      </trkpt>
      <trkpt lat="45.13511" lon="0.60926">
        <ele>109.2</ele>
        <time>2025-06-15T09:06:05Z</time>
      </trkpt>
      <trkpt lat="45.13514" lon="0.60929">
        <ele>109.8</ele>
        <time>2025-06-15T09:06:06Z</time>
      </trkpt>
      <trkpt lat="45.13516" lon="0.60932">
        <ele>110.4</ele>
        <time>2025-06-15T09:06:07Z</time>
      </trkpt>
      <trkpt lat="45.13519" lon="0.60934">
        <ele>111</ele>
        <time>2025-06-15T09:06:08Z</time>
      </trkpt>
      <trkpt lat="45.13521" lon="0.60935">
        <ele>111.6</ele>
        <time>2025-06-15T09:06:09Z</time>
      </trkpt>
      <trkpt lat="45.13523" lon="0.60937">
        <ele>112.2</ele>
        <time>2025-06-15T09:06:10Z</time>
      </trkpt>
      <trkpt lat="45.13525" lon="0.60939">
        <ele>112.6</ele>
        <time>2025-06-15T09:06:11Z</time>
      </trkpt>
      <trkpt lat="45.13526" lon="0.60941">
        <ele>113</ele>
        <time>2025-06-15T09:06:12Z</time>
      </trkpt>
      <trkpt lat="45.13528" lon="0.60942">
        <ele>113.4</ele>
        <time>2025-06-15T09:06:13Z</time>
      </trkpt>
      <trkpt lat="45.1353" lon="0.60944">
        <ele>113.8</ele>
        <time>2025-06-15T09:06:14Z</time>
      </trkpt>
      <trkpt lat="45.13532" lon="0.60946">
        <ele>114.2</ele>
        <time>2025-06-15T09:06:15Z</time>
      </trkpt>
      <trkpt lat="45.13534" lon="0.60947">
        <ele>114.6</ele>
        <time>2025-06-15T09:06:16Z</time>
      </trkpt>
      <trkpt lat="45.13535" lon="0.60949">
        <ele>114.8</ele>
        <time>2025-06-15T09:06:17Z</time>
      </trkpt>
      <trkpt lat="45.13537" lon="0.60951">
        <ele>115.2</ele>
        <time>2025-06-15T09:06:18Z</time>
      </trkpt>
      <trkpt lat="45.13539" lon="0.60953">
        <ele>115.4</ele>
        <time>2025-06-15T09:06:19Z</time>
      </trkpt>
      <trkpt lat="45.13542" lon="0.60954">
        <ele>115.6</ele>
        <time>2025-06-15T09:06:20Z</time>
      </trkpt>
      <trkpt lat="45.13544" lon="0.60957">
        <ele>115.8</ele>
        <time>2025-06-15T09:06:21Z</time>
      </trkpt>
      <trkpt lat="45.13547" lon="0.60958">
        <ele>115.8</ele>
        <time>2025-06-15T09:06:22Z</time>
      </trkpt>
      <trkpt lat="45.1355" lon="0.60956">
        <ele>115.8</ele>
        <time>2025-06-15T09:06:23Z</time>
      </trkpt>
      <trkpt lat="45.13552" lon="0.60953">
        <ele>116</ele>
        <time>2025-06-15T09:06:24Z</time>
      </trkpt>
      <trkpt lat="45.13553" lon="0.6095">
        <ele>116.2</ele>
        <time>2025-06-15T09:06:25Z</time>
      </trkpt>
      <trkpt lat="45.13555" lon="0.60947">
        <ele>116.4</ele>
        <time>2025-06-15T09:06:26Z</time>
      </trkpt>
      <trkpt lat="45.13555" lon="0.60944">
        <ele>116.6</ele>
        <time>2025-06-15T09:06:27Z</time>
      </trkpt>
      <trkpt lat="45.13556" lon="0.60942">
        <ele>116.8</ele>
        <time>2025-06-15T09:06:28Z</time>
      </trkpt>
      <trkpt lat="45.13557" lon="0.60939">
        <ele>116.8</ele>
        <time>2025-06-15T09:06:29Z</time>
      </trkpt>
      <trkpt lat="45.13558" lon="0.60936">
        <ele>117</ele>
        <time>2025-06-15T09:06:30Z</time>
      </trkpt>
      <trkpt lat="45.13559" lon="0.60933">
        <ele>117.4</ele>
        <time>2025-06-15T09:06:31Z</time>
      </trkpt>
      <trkpt lat="45.1356" lon="0.60931">
        <ele>117.6</ele>
        <time>2025-06-15T09:06:32Z</time>
      </trkpt>
      <trkpt lat="45.13561" lon="0.60928">
        <ele>117.6</ele>
        <time>2025-06-15T09:06:33Z</time>
      </trkpt>
      <trkpt lat="45.13562" lon="0.60925">
        <ele>117.8</ele>
        <time>2025-06-15T09:06:34Z</time>
      </trkpt>
      <trkpt lat="45.13563" lon="0.60923">
        <ele>118</ele>
        <time>2025-06-15T09:06:35Z</time>
      </trkpt>
      <trkpt lat="45.13563" lon="0.6092">
        <ele>118.2</ele>
        <time>2025-06-15T09:06:36Z</time>
      </trkpt>
      <trkpt lat="45.13564" lon="0.60918">
        <ele>118.6</ele>
        <time>2025-06-15T09:06:37Z</time>
      </trkpt>
      <trkpt lat="45.13565" lon="0.60915">
        <ele>118.8</ele>
        <time>2025-06-15T09:06:38Z</time>
      </trkpt>
      <trkpt lat="45.13566" lon="0.60913">
        <ele>119</ele>
        <time>2025-06-15T09:06:39Z</time>
      </trkpt>
      <trkpt lat="45.13566" lon="0.6091">
        <ele>119.4</ele>
        <time>2025-06-15T09:06:40Z</time>
      </trkpt>
      <trkpt lat="45.13567" lon="0.60907">
        <ele>119.6</ele>
        <time>2025-06-15T09:06:41Z</time>
      </trkpt>
      <trkpt lat="45.13567" lon="0.60905">
        <ele>119.8</ele>
        <time>2025-06-15T09:06:42Z</time>
      </trkpt>
      <trkpt lat="45.13568" lon="0.60904">
        <ele>120</ele>
        <time>2025-06-15T09:06:43Z</time>
      </trkpt>
      <trkpt lat="45.1357" lon="0.60902">
        <ele>120.2</ele>
        <time>2025-06-15T09:06:44Z</time>
      </trkpt>
      <trkpt lat="45.13572" lon="0.60903">
        <ele>120.4</ele>
        <time>2025-06-15T09:06:45Z</time>
      </trkpt>
      <trkpt lat="45.13573" lon="0.60903">
        <ele>120.4</ele>
        <time>2025-06-15T09:06:46Z</time>
      </trkpt>
      <trkpt lat="45.13574" lon="0.60904">
        <ele>120.6</ele>
        <time>2025-06-15T09:06:47Z</time>
      </trkpt>
      <trkpt lat="45.13576" lon="0.60904">
        <ele>120.6</ele>
        <time>2025-06-15T09:06:48Z</time>
      </trkpt>
      <trkpt lat="45.13578" lon="0.60905">
        <ele>120.8</ele>
        <time>2025-06-15T09:06:49Z</time>
      </trkpt>
      <trkpt lat="45.13578" lon="0.60905">
        <ele>120.8</ele>
        <time>2025-06-15T09:06:50Z</time>
      </trkpt>
      <trkpt lat="45.13579" lon="0.60905">
        <ele>121</ele>
        <time>2025-06-15T09:06:51Z</time>
      </trkpt>
      <trkpt lat="45.1358" lon="0.60905">
        <ele>121</ele>
        <time>2025-06-15T09:06:52Z</time>
      </trkpt>
      <trkpt lat="45.1358" lon="0.60904">
        <ele>121.2</ele>
        <time>2025-06-15T09:06:53Z</time>
      </trkpt>
      <trkpt lat="45.13582" lon="0.60903">
        <ele>121.2</ele>
        <time>2025-06-15T09:06:54Z</time>
      </trkpt>
      <trkpt lat="45.13583" lon="0.60903">
        <ele>121.4</ele>
        <time>2025-06-15T09:06:55Z</time>
      </trkpt>
      <trkpt lat="45.13585" lon="0.60903">
        <ele>121.6</ele>
        <time>2025-06-15T09:06:56Z</time>
      </trkpt>
      <trkpt lat="45.13588" lon="0.60904">
        <ele>121.6</ele>
        <time>2025-06-15T09:06:57Z</time>
      </trkpt>
      <trkpt lat="45.1359" lon="0.60904">
        <ele>121.8</ele>
        <time>2025-06-15T09:06:58Z</time>
      </trkpt>
      <trkpt lat="45.13593" lon="0.60905">
        <ele>121.8</ele>
        <time>2025-06-15T09:06:59Z</time>
      </trkpt>
      <trkpt lat="45.13595" lon="0.60906">
        <ele>122</ele>
        <time>2025-06-15T09:07:00Z</time>
      </trkpt>
      <trkpt lat="45.13596" lon="0.60906">
        <ele>122.2</ele>
        <time>2025-06-15T09:07:01Z</time>
      </trkpt>
      <trkpt lat="45.13601" lon="0.60908">
        <ele>122.2</ele>
        <time>2025-06-15T09:07:02Z</time>
      </trkpt>
      <trkpt lat="45.13605" lon="0.60909">
        <ele>122.2</ele>
        <time>2025-06-15T09:07:03Z</time>
      </trkpt>
      <trkpt lat="45.13608" lon="0.60912">
        <ele>122.4</ele>
        <time>2025-06-15T09:07:04Z</time>
      </trkpt>
      <trkpt lat="45.13611" lon="0.60913">
        <ele>122.6</ele>
        <time>2025-06-15T09:07:05Z</time>
      </trkpt>
      <trkpt lat="45.13613" lon="0.60915">
        <ele>122.8</ele>
        <time>2025-06-15T09:07:06Z</time>
      </trkpt>
      <trkpt lat="45.13615" lon="0.60917">
        <ele>122.8</ele>
        <time>2025-06-15T09:07:07Z</time>
      </trkpt>
      <trkpt lat="45.13616" lon="0.60921">
        <ele>123</ele>
        <time>2025-06-15T09:07:08Z</time>
      </trkpt>
      <trkpt lat="45.13618" lon="0.60922">
        <ele>123.2</ele>
        <time>2025-06-15T09:07:09Z</time>
      </trkpt>
      <trkpt lat="45.13619" lon="0.60922">
        <ele>123.2</ele>
        <time>2025-06-15T09:07:10Z</time>
      </trkpt>
      <trkpt lat="45.1362" lon="0.60923">
        <ele>123.4</ele>
        <time>2025-06-15T09:07:11Z</time>
      </trkpt>
      <trkpt lat="45.13622" lon="0.60923">
        <ele>123.6</ele>
        <time>2025-06-15T09:07:12Z</time>
      </trkpt>
      <trkpt lat="45.13624" lon="0.60924">
        <ele>123.8</ele>
        <time>2025-06-15T09:07:13Z</time>
      </trkpt>
      <trkpt lat="45.13625" lon="0.60926">
        <ele>124</ele>
        <time>2025-06-15T09:07:14Z</time>
      </trkpt>
      <trkpt lat="45.13627" lon="0.60929">
        <ele>124.2</ele>
        <time>2025-06-15T09:07:15Z</time>
      </trkpt>
      <trkpt lat="45.13628" lon="0.60932">
        <ele>124.4</ele>
        <time>2025-06-15T09:07:16Z</time>
      </trkpt>
      <trkpt lat="45.13628" lon="0.60936">
        <ele>124.4</ele>
        <time>2025-06-15T09:07:17Z</time>
      </trkpt>
      <trkpt lat="45.13629" lon="0.6094">
        <ele>124.6</ele>
        <time>2025-06-15T09:07:18Z</time>
      </trkpt>
      <trkpt lat="45.13629" lon="0.60944">
        <ele>124.4</ele>
        <time>2025-06-15T09:07:19Z</time>
      </trkpt>
      <trkpt lat="45.13629" lon="0.60948">
        <ele>124.4</ele>
        <time>2025-06-15T09:07:20Z</time>
      </trkpt>
      <trkpt lat="45.13629" lon="0.60952">
        <ele>124.4</ele>
        <time>2025-06-15T09:07:21Z</time>
      </trkpt>
      <trkpt lat="45.13628" lon="0.60957">
        <ele>124.2</ele>
        <time>2025-06-15T09:07:22Z</time>
      </trkpt>
      <trkpt lat="45.13628" lon="0.60962">
        <ele>124.2</ele>
        <time>2025-06-15T09:07:23Z</time>
      </trkpt>
      <trkpt lat="45.13627" lon="0.60966">
        <ele>124</ele>
        <time>2025-06-15T09:07:24Z</time>
      </trkpt>
      <trkpt lat="45.13626" lon="0.60971">
        <ele>124</ele>
        <time>2025-06-15T09:07:25Z</time>
      </trkpt>
      <trkpt lat="45.13626" lon="0.60975">
        <ele>123.8</ele>
        <time>2025-06-15T09:07:26Z</time>
      </trkpt>
      <trkpt lat="45.13625" lon="0.6098">
        <ele>123.8</ele>
        <time>2025-06-15T09:07:27Z</time>
      </trkpt>
      <trkpt lat="45.13625" lon="0.60984">
        <ele>123.8</ele>
        <time>2025-06-15T09:07:28Z</time>
      </trkpt>
      <trkpt lat="45.13625" lon="0.60989">
        <ele>123.8</ele>
        <time>2025-06-15T09:07:29Z</time>
      </trkpt>
      <trkpt lat="45.13624" lon="0.60993">
        <ele>123.8</ele>
        <time>2025-06-15T09:07:30Z</time>
      </trkpt>
      <trkpt lat="45.13624" lon="0.60997">
        <ele>124</ele>
        <time>2025-06-15T09:07:31Z</time>
      </trkpt>
      <trkpt lat="45.13623" lon="0.61001">
        <ele>124</ele>
        <time>2025-06-15T09:07:32Z</time>
      </trkpt>
      <trkpt lat="45.13622" lon="0.61005">
        <ele>124.2</ele>
        <time>2025-06-15T09:07:33Z</time>
      </trkpt>
      <trkpt lat="45.13621" lon="0.61009">
        <ele>124.4</ele>
        <time>2025-06-15T09:07:34Z</time>
      </trkpt>
      <trkpt lat="45.1362" lon="0.61012">
        <ele>124.6</ele>
        <time>2025-06-15T09:07:35Z</time>
      </trkpt>
      <trkpt lat="45.1362" lon="0.61015">
        <ele>124.8</ele>
        <time>2025-06-15T09:07:36Z</time>
      </trkpt>
      <trkpt lat="45.13619" lon="0.61018">
        <ele>125.2</ele>
        <time>2025-06-15T09:07:37Z</time>
      </trkpt>
      <trkpt lat="45.13618" lon="0.6102">
        <ele>125.4</ele>
        <time>2025-06-15T09:07:38Z</time>
      </trkpt>
      <trkpt lat="45.13617" lon="0.61023">
        <ele>125.6</ele>
        <time>2025-06-15T09:07:39Z</time>
      </trkpt>
      <trkpt lat="45.13617" lon="0.61025">
        <ele>126</ele>
        <time>2025-06-15T09:07:40Z</time>
      </trkpt>
      <trkpt lat="45.13616" lon="0.61028">
        <ele>126.2</ele>
        <time>2025-06-15T09:07:41Z</time>
      </trkpt>
      <trkpt lat="45.13615" lon="0.6103">
        <ele>126.6</ele>
        <time>2025-06-15T09:07:42Z</time>
      </trkpt>
      <trkpt lat="45.13615" lon="0.61032">
        <ele>126.8</ele>
        <time>2025-06-15T09:07:43Z</time>
      </trkpt>
      <trkpt lat="45.13614" lon="0.61034">
        <ele>127.2</ele>
        <time>2025-06-15T09:07:44Z</time>
      </trkpt>
      <trkpt lat="45.13613" lon="0.61035">
        <ele>127.4</ele>
        <time>2025-06-15T09:07:45Z</time>
      </trkpt>
      <trkpt lat="45.13612" lon="0.61037">
        <ele>127.6</ele>
        <time>2025-06-15T09:07:46Z</time>
      </trkpt>
      <trkpt lat="45.13612" lon="0.61039">
        <ele>128</ele>
        <time>2025-06-15T09:07:47Z</time>
      </trkpt>
      <trkpt lat="45.13611" lon="0.61041">
        <ele>128.2</ele>
        <time>2025-06-15T09:07:48Z</time>
      </trkpt>
      <trkpt lat="45.13611" lon="0.61043">
        <ele>128.6</ele>
        <time>2025-06-15T09:07:49Z</time>
      </trkpt>
      <trkpt lat="45.1361" lon="0.61045">
        <ele>128.8</ele>
        <time>2025-06-15T09:07:50Z</time>
      </trkpt>
      <trkpt lat="45.1361" lon="0.61046">
        <ele>129.2</ele>
        <time>2025-06-15T09:07:51Z</time>
      </trkpt>
      <trkpt lat="45.13609" lon="0.61048">
        <ele>129.4</ele>
        <time>2025-06-15T09:07:52Z</time>
      </trkpt>
      <trkpt lat="45.13609" lon="0.6105">
        <ele>129.8</ele>
        <time>2025-06-15T09:07:53Z</time>
      </trkpt>
      <trkpt lat="45.13608" lon="0.61052">
        <ele>130</ele>
        <time>2025-06-15T09:07:54Z</time>
      </trkpt>
      <trkpt lat="45.13608" lon="0.61053">
        <ele>130.2</ele>
        <time>2025-06-15T09:07:55Z</time>
      </trkpt>
      <trkpt lat="45.13607" lon="0.61055">
        <ele>130.6</ele>
        <time>2025-06-15T09:07:56Z</time>
      </trkpt>
      <trkpt lat="45.13607" lon="0.61057">
        <ele>130.8</ele>
        <time>2025-06-15T09:07:57Z</time>
      </trkpt>
      <trkpt lat="45.13607" lon="0.61059">
        <ele>131</ele>
        <time>2025-06-15T09:07:58Z</time>
      </trkpt>
      <trkpt lat="45.13607" lon="0.61061">
        <ele>131.2</ele>
        <time>2025-06-15T09:07:59Z</time>
      </trkpt>
      <trkpt lat="45.13606" lon="0.61063">
        <ele>131.4</ele>
        <time>2025-06-15T09:08:00Z</time>
      </trkpt>
      <trkpt lat="45.13606" lon="0.61065">
        <ele>131.6</ele>
        <time>2025-06-15T09:08:01Z</time>
      </trkpt>
      <trkpt lat="45.13606" lon="0.61067">
        <ele>131.8</ele>
        <time>2025-06-15T09:08:02Z</time>
      </trkpt>
      <trkpt lat="45.13606" lon="0.61069">
        <ele>132</ele>
        <time>2025-06-15T09:08:03Z</time>
      </trkpt>
      <trkpt lat="45.13606" lon="0.61071">
        <ele>132.2</ele>
        <time>2025-06-15T09:08:04Z</time>
      </trkpt>
      <trkpt lat="45.13606" lon="0.61073">
        <ele>132.4</ele>
        <time>2025-06-15T09:08:05Z</time>
      </trkpt>
      <trkpt lat="45.13606" lon="0.61075">
        <ele>132.6</ele>
        <time>2025-06-15T09:08:06Z</time>
      </trkpt>
      <trkpt lat="45.13607" lon="0.61077">
        <ele>132.8</ele>
        <time>2025-06-15T09:08:07Z</time>
      </trkpt>
      <trkpt lat="45.13607" lon="0.61078">
        <ele>133</ele>
        <time>2025-06-15T09:08:08Z</time>
      </trkpt>
      <trkpt lat="45.13607" lon="0.6108">
        <ele>133.2</ele>
        <time>2025-06-15T09:08:09Z</time>
      </trkpt>
      <trkpt lat="45.13608" lon="0.61082">
        <ele>133.4</ele>
        <time>2025-06-15T09:08:10Z</time>
      </trkpt>
      <trkpt lat="45.13608" lon="0.61084">
        <ele>133.6</ele>
        <time>2025-06-15T09:08:11Z</time>
      </trkpt>
      <trkpt lat="45.13608" lon="0.61086">
        <ele>133.8</ele>
        <time>2025-06-15T09:08:12Z</time>
      </trkpt>
      <trkpt lat="45.13608" lon="0.61088">
        <ele>134</ele>
        <time>2025-06-15T09:08:13Z</time>
      </trkpt>
      <trkpt lat="45.13608" lon="0.6109">
        <ele>134.2</ele>
        <time>2025-06-15T09:08:14Z</time>
      </trkpt>
      <trkpt lat="45.13609" lon="0.61092">
        <ele>134.4</ele>
        <time>2025-06-15T09:08:15Z</time>
      </trkpt>
      <trkpt lat="45.13609" lon="0.61093">
        <ele>134.6</ele>
        <time>2025-06-15T09:08:16Z</time>
      </trkpt>
      <trkpt lat="45.1361" lon="0.61096">
        <ele>134.8</ele>
        <time>2025-06-15T09:08:17Z</time>
      </trkpt>
      <trkpt lat="45.1361" lon="0.61098">
        <ele>135</ele>
        <time>2025-06-15T09:08:18Z</time>
      </trkpt>
      <trkpt lat="45.13611" lon="0.611">
        <ele>135.2</ele>
        <time>2025-06-15T09:08:19Z</time>
      </trkpt>
      <trkpt lat="45.13611" lon="0.61101">
        <ele>135.4</ele>
        <time>2025-06-15T09:08:20Z</time>
      </trkpt>
      <trkpt lat="45.13612" lon="0.61103">
        <ele>135.6</ele>
        <time>2025-06-15T09:08:21Z</time>
      </trkpt>
      <trkpt lat="45.13612" lon="0.61105">
        <ele>135.8</ele>
        <time>2025-06-15T09:08:22Z</time>
      </trkpt>
      <trkpt lat="45.13612" lon="0.61107">
        <ele>136</ele>
        <time>2025-06-15T09:08:23Z</time>
      </trkpt>
      <trkpt lat="45.13613" lon="0.61109">
        <ele>136.2</ele>
        <time>2025-06-15T09:08:24Z</time>
      </trkpt>
      <trkpt lat="45.13613" lon="0.61111">
        <ele>136.6</ele>
        <time>2025-06-15T09:08:25Z</time>
      </trkpt>
      <trkpt lat="45.13613" lon="0.61112">
        <ele>136.8</ele>
        <time>2025-06-15T09:08:26Z</time>
      </trkpt>
      <trkpt lat="45.13613" lon="0.61114">
        <ele>137</ele>
        <time>2025-06-15T09:08:27Z</time>
      </trkpt>
      <trkpt lat="45.13613" lon="0.61116">
        <ele>137.2</ele>
        <time>2025-06-15T09:08:28Z</time>
      </trkpt>
      <trkpt lat="45.13614" lon="0.61117">
        <ele>137.4</ele>
        <time>2025-06-15T09:08:29Z</time>
      </trkpt>
      <trkpt lat="45.13614" lon="0.61119">
        <ele>137.6</ele>
        <time>2025-06-15T09:08:30Z</time>
      </trkpt>
      <trkpt lat="45.13614" lon="0.61121">
        <ele>137.8</ele>
        <time>2025-06-15T09:08:31Z</time>
      </trkpt>
      <trkpt lat="45.13614" lon="0.61123">
        <ele>138</ele>
        <time>2025-06-15T09:08:32Z</time>
      </trkpt>
      <trkpt lat="45.13614" lon="0.61124">
        <ele>138.2</ele>
        <time>2025-06-15T09:08:33Z</time>
      </trkpt>
      <trkpt lat="45.13614" lon="0.61126">
        <ele>138.4</ele>
        <time>2025-06-15T09:08:34Z</time>
      </trkpt>
      <trkpt lat="45.13614" lon="0.61128">
        <ele>138.6</ele>
        <time>2025-06-15T09:08:35Z</time>
      </trkpt>
      <trkpt lat="45.13614" lon="0.6113">
        <ele>138.8</ele>
        <time>2025-06-15T09:08:36Z</time>
      </trkpt>
      <trkpt lat="45.13614" lon="0.61131">
        <ele>139</ele>
        <time>2025-06-15T09:08:37Z</time>
      </trkpt>
      <trkpt lat="45.13614" lon="0.61133">
        <ele>139.2</ele>
        <time>2025-06-15T09:08:38Z</time>
      </trkpt>
      <trkpt lat="45.13615" lon="0.61135">
        <ele>139.4</ele>
        <time>2025-06-15T09:08:39Z</time>
      </trkpt>
      <trkpt lat="45.13615" lon="0.61137">
        <ele>139.8</ele>
        <time>2025-06-15T09:08:40Z</time>
      </trkpt>
      <trkpt lat="45.13615" lon="0.61139">
        <ele>140</ele>
        <time>2025-06-15T09:08:41Z</time>
      </trkpt>
      <trkpt lat="45.13615" lon="0.61141">
        <ele>140.2</ele>
        <time>2025-06-15T09:08:42Z</time>
      </trkpt>
      <trkpt lat="45.13615" lon="0.61143">
        <ele>140.4</ele>
        <time>2025-06-15T09:08:43Z</time>
      </trkpt>
      <trkpt lat="45.13615" lon="0.61144">
        <ele>140.6</ele>
        <time>2025-06-15T09:08:44Z</time>
      </trkpt>
      <trkpt lat="45.13615" lon="0.61146">
        <ele>140.8</ele>
        <time>2025-06-15T09:08:45Z</time>
      </trkpt>
      <trkpt lat="45.13615" lon="0.61148">
        <ele>141</ele>
        <time>2025-06-15T09:08:46Z</time>
      </trkpt>
      <trkpt lat="45.13615" lon="0.6115">
        <ele>141.2</ele>
        <time>2025-06-15T09:08:47Z</time>
      </trkpt>
      <trkpt lat="45.13615" lon="0.61151">
        <ele>141.4</ele>
        <time>2025-06-15T09:08:48Z</time>
      </trkpt>
      <trkpt lat="45.13616" lon="0.61153">
        <ele>141.6</ele>
        <time>2025-06-15T09:08:49Z</time>
      </trkpt>
      <trkpt lat="45.13616" lon="0.61154">
        <ele>141.8</ele>
        <time>2025-06-15T09:08:50Z</time>
      </trkpt>
      <trkpt lat="45.13616" lon="0.61155">
        <ele>142</ele>
        <time>2025-06-15T09:08:51Z</time>
      </trkpt>
      <trkpt lat="45.13616" lon="0.61157">
        <ele>142.2</ele>
        <time>2025-06-15T09:08:52Z</time>
      </trkpt>
      <trkpt lat="45.13616" lon="0.61159">
        <ele>142.6</ele>
        <time>2025-06-15T09:08:53Z</time>
      </trkpt>
      <trkpt lat="45.13616" lon="0.6116">
        <ele>142.8</ele>
        <time>2025-06-15T09:08:54Z</time>
      </trkpt>
      <trkpt lat="45.13616" lon="0.61162">
        <ele>143</ele>
        <time>2025-06-15T09:08:55Z</time>
      </trkpt>
      <trkpt lat="45.13616" lon="0.61164">
        <ele>143.2</ele>
        <time>2025-06-15T09:08:56Z</time>
      </trkpt>
      <trkpt lat="45.13617" lon="0.61166">
        <ele>143.4</ele>
        <time>2025-06-15T09:08:57Z</time>
      </trkpt>
      <trkpt lat="45.13617" lon="0.61167">
        <ele>143.8</ele>
        <time>2025-06-15T09:08:58Z</time>
      </trkpt>
      <trkpt lat="45.13617" lon="0.61169">
        <ele>144</ele>
        <time>2025-06-15T09:08:59Z</time>
      </trkpt>
      <trkpt lat="45.13618" lon="0.6117">
        <ele>144.2</ele>
        <time>2025-06-15T09:09:00Z</time>
      </trkpt>
      <trkpt lat="45.13618" lon="0.61172">
        <ele>144.4</ele>
        <time>2025-06-15T09:09:01Z</time>
      </trkpt>
      <trkpt lat="45.13618" lon="0.61174">
        <ele>144.6</ele>
        <time>2025-06-15T09:09:02Z</time>
      </trkpt>
      <trkpt lat="45.13618" lon="0.61176">
        <ele>144.6</ele>
        <time>2025-06-15T09:09:03Z</time>
      </trkpt>
      <trkpt lat="45.13618" lon="0.61177">
        <ele>145</ele>
        <time>2025-06-15T09:09:04Z</time>
      </trkpt>
      <trkpt lat="45.13618" lon="0.61179">
        <ele>145.2</ele>
        <time>2025-06-15T09:09:05Z</time>
      </trkpt>
      <trkpt lat="45.13618" lon="0.61181">
        <ele>145.2</ele>
        <time>2025-06-15T09:09:06Z</time>
      </trkpt>
      <trkpt lat="45.13618" lon="0.61183">
        <ele>145.6</ele>
        <time>2025-06-15T09:09:07Z</time>
      </trkpt>
      <trkpt lat="45.13618" lon="0.61185">
        <ele>145.8</ele>
        <time>2025-06-15T09:09:08Z</time>
      </trkpt>
      <trkpt lat="45.13619" lon="0.61186">
        <ele>146</ele>
        <time>2025-06-15T09:09:09Z</time>
      </trkpt>
      <trkpt lat="45.13619" lon="0.61188">
        <ele>146.2</ele>
        <time>2025-06-15T09:09:10Z</time>
      </trkpt>
      <trkpt lat="45.13618" lon="0.61189">
        <ele>146.4</ele>
        <time>2025-06-15T09:09:11Z</time>
      </trkpt>
      <trkpt lat="45.13619" lon="0.61191">
        <ele>146.6</ele>
        <time>2025-06-15T09:09:12Z</time>
      </trkpt>
      <trkpt lat="45.13619" lon="0.61193">
        <ele>146.8</ele>
        <time>2025-06-15T09:09:13Z</time>
      </trkpt>
      <trkpt lat="45.13619" lon="0.61194">
        <ele>147</ele>
        <time>2025-06-15T09:09:14Z</time>
      </trkpt>
      <trkpt lat="45.13619" lon="0.61196">
        <ele>147.2</ele>
        <time>2025-06-15T09:09:15Z</time>
      </trkpt>
      <trkpt lat="45.13619" lon="0.61198">
        <ele>147.4</ele>
        <time>2025-06-15T09:09:16Z</time>
      </trkpt>
      <trkpt lat="45.13619" lon="0.612">
        <ele>147.6</ele>
        <time>2025-06-15T09:09:17Z</time>
      </trkpt>
      <trkpt lat="45.13619" lon="0.61202">
        <ele>147.8</ele>
        <time>2025-06-15T09:09:18Z</time>
      </trkpt>
      <trkpt lat="45.13619" lon="0.61203">
        <ele>148</ele>
        <time>2025-06-15T09:09:19Z</time>
      </trkpt>
      <trkpt lat="45.13619" lon="0.61205">
        <ele>148.2</ele>
        <time>2025-06-15T09:09:20Z</time>
      </trkpt>
      <trkpt lat="45.1362" lon="0.61207">
        <ele>148.4</ele>
        <time>2025-06-15T09:09:21Z</time>
      </trkpt>
      <trkpt lat="45.1362" lon="0.61209">
        <ele>148.6</ele>
        <time>2025-06-15T09:09:22Z</time>
      </trkpt>
      <trkpt lat="45.1362" lon="0.61211">
        <ele>148.8</ele>
        <time>2025-06-15T09:09:23Z</time>
      </trkpt>
      <trkpt lat="45.1362" lon="0.61213">
        <ele>149</ele>
        <time>2025-06-15T09:09:24Z</time>
      </trkpt>
      <trkpt lat="45.1362" lon="0.61214">
        <ele>149.2</ele>
        <time>2025-06-15T09:09:25Z</time>
      </trkpt>
      <trkpt lat="45.1362" lon="0.61217">
        <ele>149.4</ele>
        <time>2025-06-15T09:09:26Z</time>
      </trkpt>
      <trkpt lat="45.1362" lon="0.61219">
        <ele>149.6</ele>
        <time>2025-06-15T09:09:27Z</time>
      </trkpt>
      <trkpt lat="45.13621" lon="0.6122">
        <ele>149.6</ele>
        <time>2025-06-15T09:09:28Z</time>
      </trkpt>
      <trkpt lat="45.13621" lon="0.61223">
        <ele>149.8</ele>
        <time>2025-06-15T09:09:29Z</time>
      </trkpt>
      <trkpt lat="45.13621" lon="0.61225">
        <ele>150</ele>
        <time>2025-06-15T09:09:30Z</time>
      </trkpt>
      <trkpt lat="45.13621" lon="0.61226">
        <ele>150.2</ele>
        <time>2025-06-15T09:09:31Z</time>
      </trkpt>
      <trkpt lat="45.13621" lon="0.61228">
        <ele>150.4</ele>
        <time>2025-06-15T09:09:32Z</time>
      </trkpt>
      <trkpt lat="45.13622" lon="0.6123">
        <ele>150.4</ele>
        <time>2025-06-15T09:09:33Z</time>
      </trkpt>
      <trkpt lat="45.13622" lon="0.61233">
        <ele>150.6</ele>
        <time>2025-06-15T09:09:34Z</time>
      </trkpt>
      <trkpt lat="45.13621" lon="0.61235">
        <ele>150.8</ele>
        <time>2025-06-15T09:09:35Z</time>
      </trkpt>
      <trkpt lat="45.13621" lon="0.61237">
        <ele>151</ele>
        <time>2025-06-15T09:09:36Z</time>
      </trkpt>
      <trkpt lat="45.13621" lon="0.61239">
        <ele>151.2</ele>
        <time>2025-06-15T09:09:37Z</time>
      </trkpt>
      <trkpt lat="45.13621" lon="0.61241">
        <ele>151.4</ele>
        <time>2025-06-15T09:09:38Z</time>
      </trkpt>
      <trkpt lat="45.13621" lon="0.61243">
        <ele>151.4</ele>
        <time>2025-06-15T09:09:39Z</time>
      </trkpt>
      <trkpt lat="45.13621" lon="0.61245">
        <ele>151.6</ele>
        <time>2025-06-15T09:09:40Z</time>
      </trkpt>
      <trkpt lat="45.13621" lon="0.61247">
        <ele>151.8</ele>
        <time>2025-06-15T09:09:41Z</time>
      </trkpt>
      <trkpt lat="45.13621" lon="0.61249">
        <ele>152</ele>
        <time>2025-06-15T09:09:42Z</time>
      </trkpt>
      <trkpt lat="45.13622" lon="0.61251">
        <ele>152.2</ele>
        <time>2025-06-15T09:09:43Z</time>
      </trkpt>
      <trkpt lat="45.13622" lon="0.61253">
        <ele>152.4</ele>
        <time>2025-06-15T09:09:44Z</time>
      </trkpt>
      <trkpt lat="45.13622" lon="0.61255">
        <ele>152.6</ele>
        <time>2025-06-15T09:09:45Z</time>
      </trkpt>
      <trkpt lat="45.13622" lon="0.61257">
        <ele>152.6</ele>
        <time>2025-06-15T09:09:46Z</time>
      </trkpt>
      <trkpt lat="45.13622" lon="0.61259">
        <ele>152.8</ele>
        <time>2025-06-15T09:09:47Z</time>
      </trkpt>
      <trkpt lat="45.13623" lon="0.61261">
        <ele>153</ele>
        <time>2025-06-15T09:09:48Z</time>
      </trkpt>
      <trkpt lat="45.13623" lon="0.61263">
        <ele>153.2</ele>
        <time>2025-06-15T09:09:49Z</time>
      </trkpt>
      <trkpt lat="45.13623" lon="0.61266">
        <ele>153.4</ele>
        <time>2025-06-15T09:09:50Z</time>
      </trkpt>
      <trkpt lat="45.13623" lon="0.61268">
        <ele>153.6</ele>
        <time>2025-06-15T09:09:51Z</time>
      </trkpt>
      <trkpt lat="45.13624" lon="0.61271">
        <ele>153.6</ele>
        <time>2025-06-15T09:09:52Z</time>
      </trkpt>
      <trkpt lat="45.13624" lon="0.61273">
        <ele>153.8</ele>
        <time>2025-06-15T09:09:53Z</time>
      </trkpt>
      <trkpt lat="45.13624" lon="0.61275">
        <ele>154</ele>
        <time>2025-06-15T09:09:54Z</time>
      </trkpt>
      <trkpt lat="45.13624" lon="0.61277">
        <ele>154.2</ele>
        <time>2025-06-15T09:09:55Z</time>
      </trkpt>
      <trkpt lat="45.13624" lon="0.61279">
        <ele>154.4</ele>
        <time>2025-06-15T09:09:56Z</time>
      </trkpt>
      <trkpt lat="45.13624" lon="0.61281">
        <ele>154.4</ele>
        <time>2025-06-15T09:09:57Z</time>
      </trkpt>
      <trkpt lat="45.13624" lon="0.61283">
        <ele>154.6</ele>
        <time>2025-06-15T09:09:58Z</time>
      </trkpt>
      <trkpt lat="45.13623" lon="0.61284">
        <ele>154.6</ele>
        <time>2025-06-15T09:09:59Z</time>
      </trkpt>
      <trkpt lat="45.13623" lon="0.61286">
        <ele>154.8</ele>
        <time>2025-06-15T09:10:00Z</time>
      </trkpt>
      <trkpt lat="45.13623" lon="0.61288">
        <ele>155</ele>
        <time>2025-06-15T09:10:01Z</time>
      </trkpt>
      <trkpt lat="45.13623" lon="0.6129">
        <ele>155.2</ele>
        <time>2025-06-15T09:10:02Z</time>
      </trkpt>
      <trkpt lat="45.13623" lon="0.61292">
        <ele>155.4</ele>
        <time>2025-06-15T09:10:03Z</time>
      </trkpt>
      <trkpt lat="45.13623" lon="0.61294">
        <ele>155.6</ele>
        <time>2025-06-15T09:10:04Z</time>
      </trkpt>
      <trkpt lat="45.13623" lon="0.61296">
        <ele>155.8</ele>
        <time>2025-06-15T09:10:05Z</time>
      </trkpt>
      <trkpt lat="45.13624" lon="0.61298">
        <ele>156</ele>
        <time>2025-06-15T09:10:06Z</time>
      </trkpt>
      <trkpt lat="45.13624" lon="0.613">
        <ele>156.2</ele>
        <time>2025-06-15T09:10:07Z</time>
      </trkpt>
      <trkpt lat="45.13624" lon="0.61303">
        <ele>156.4</ele>
        <time>2025-06-15T09:10:08Z</time>
      </trkpt>
      <trkpt lat="45.13624" lon="0.61305">
        <ele>156.6</ele>
        <time>2025-06-15T09:10:09Z</time>
      </trkpt>
      <trkpt lat="45.13624" lon="0.61307">
        <ele>156.6</ele>
        <time>2025-06-15T09:10:10Z</time>
      </trkpt>
      <trkpt lat="45.13624" lon="0.61309">
        <ele>156.8</ele>
        <time>2025-06-15T09:10:11Z</time>
      </trkpt>
      <trkpt lat="45.13624" lon="0.61311">
        <ele>157</ele>
        <time>2025-06-15T09:10:12Z</time>
      </trkpt>
      <trkpt lat="45.13624" lon="0.61313">
        <ele>157.2</ele>
        <time>2025-06-15T09:10:13Z</time>
      </trkpt>
      <trkpt lat="45.13625" lon="0.61314">
        <ele>157.2</ele>
        <time>2025-06-15T09:10:14Z</time>
      </trkpt>
      <trkpt lat="45.13624" lon="0.61316">
        <ele>157.4</ele>
        <time>2025-06-15T09:10:15Z</time>
      </trkpt>
      <trkpt lat="45.13625" lon="0.61318">
        <ele>157.4</ele>
        <time>2025-06-15T09:10:16Z</time>
      </trkpt>
      <trkpt lat="45.13625" lon="0.6132">
        <ele>157.6</ele>
        <time>2025-06-15T09:10:17Z</time>
      </trkpt>
      <trkpt lat="45.13624" lon="0.61322">
        <ele>157.8</ele>
        <time>2025-06-15T09:10:18Z</time>
      </trkpt>
      <trkpt lat="45.13624" lon="0.61324">
        <ele>158</ele>
        <time>2025-06-15T09:10:19Z</time>
      </trkpt>
      <trkpt lat="45.13624" lon="0.61326">
        <ele>158.2</ele>
        <time>2025-06-15T09:10:20Z</time>
      </trkpt>
      <trkpt lat="45.13624" lon="0.61328">
        <ele>158.4</ele>
        <time>2025-06-15T09:10:21Z</time>
      </trkpt>
      <trkpt lat="45.13624" lon="0.6133">
        <ele>158.6</ele>
        <time>2025-06-15T09:10:22Z</time>
      </trkpt>
      <trkpt lat="45.13624" lon="0.61332">
        <ele>158.8</ele>
        <time>2025-06-15T09:10:23Z</time>
      </trkpt>
      <trkpt lat="45.13624" lon="0.61334">
        <ele>159</ele>
        <time>2025-06-15T09:10:24Z</time>
      </trkpt>
      <trkpt lat="45.13624" lon="0.61336">
        <ele>159.2</ele>
        <time>2025-06-15T09:10:25Z</time>
      </trkpt>
      <trkpt lat="45.13625" lon="0.61338">
        <ele>159.4</ele>
        <time>2025-06-15T09:10:26Z</time>
      </trkpt>
      <trkpt lat="45.13625" lon="0.6134">
        <ele>159.6</ele>
        <time>2025-06-15T09:10:27Z</time>
      </trkpt>
      <trkpt lat="45.13625" lon="0.61343">
        <ele>159.8</ele>
        <time>2025-06-15T09:10:28Z</time>
      </trkpt>
      <trkpt lat="45.13625" lon="0.61345">
        <ele>160</ele>
        <time>2025-06-15T09:10:29Z</time>
      </trkpt>
      <trkpt lat="45.13625" lon="0.61347">
        <ele>160.2</ele>
        <time>2025-06-15T09:10:30Z</time>
      </trkpt>
      <trkpt lat="45.13626" lon="0.61349">
        <ele>160.2</ele>
        <time>2025-06-15T09:10:31Z</time>
      </trkpt>
      <trkpt lat="45.13626" lon="0.61351">
        <ele>160.4</ele>
        <time>2025-06-15T09:10:32Z</time>
      </trkpt>
      <trkpt lat="45.13626" lon="0.61352">
        <ele>160.6</ele>
        <time>2025-06-15T09:10:33Z</time>
      </trkpt>
      <trkpt lat="45.13626" lon="0.61354">
        <ele>160.8</ele>
        <time>2025-06-15T09:10:34Z</time>
      </trkpt>
      <trkpt lat="45.13626" lon="0.61356">
        <ele>160.8</ele>
        <time>2025-06-15T09:10:35Z</time>
      </trkpt>
      <trkpt lat="45.13626" lon="0.61359">
        <ele>161</ele>
        <time>2025-06-15T09:10:36Z</time>
      </trkpt>
      <trkpt lat="45.13626" lon="0.6136">
        <ele>161.2</ele>
        <time>2025-06-15T09:10:37Z</time>
      </trkpt>
      <trkpt lat="45.13626" lon="0.61363">
        <ele>161.4</ele>
        <time>2025-06-15T09:10:38Z</time>
      </trkpt>
      <trkpt lat="45.13626" lon="0.61365">
        <ele>161.4</ele>
        <time>2025-06-15T09:10:39Z</time>
      </trkpt>
      <trkpt lat="45.13626" lon="0.61367">
        <ele>161.6</ele>
        <time>2025-06-15T09:10:40Z</time>
      </trkpt>
      <trkpt lat="45.13626" lon="0.61369">
        <ele>161.8</ele>
        <time>2025-06-15T09:10:41Z</time>
      </trkpt>
      <trkpt lat="45.13627" lon="0.61371">
        <ele>162</ele>
        <time>2025-06-15T09:10:42Z</time>
      </trkpt>
      <trkpt lat="45.13627" lon="0.61373">
        <ele>162</ele>
        <time>2025-06-15T09:10:43Z</time>
      </trkpt>
      <trkpt lat="45.13627" lon="0.61375">
        <ele>162.2</ele>
        <time>2025-06-15T09:10:44Z</time>
      </trkpt>
      <trkpt lat="45.13627" lon="0.61377">
        <ele>162.4</ele>
        <time>2025-06-15T09:10:45Z</time>
      </trkpt>
      <trkpt lat="45.13628" lon="0.61379">
        <ele>162.6</ele>
        <time>2025-06-15T09:10:46Z</time>
      </trkpt>
      <trkpt lat="45.13628" lon="0.61382">
        <ele>162.6</ele>
        <time>2025-06-15T09:10:47Z</time>
      </trkpt>
      <trkpt lat="45.13628" lon="0.61384">
        <ele>162.8</ele>
        <time>2025-06-15T09:10:48Z</time>
      </trkpt>
      <trkpt lat="45.13629" lon="0.61386">
        <ele>163</ele>
        <time>2025-06-15T09:10:49Z</time>
      </trkpt>
      <trkpt lat="45.13629" lon="0.61388">
        <ele>163.2</ele>
        <time>2025-06-15T09:10:50Z</time>
      </trkpt>
      <trkpt lat="45.1363" lon="0.6139">
        <ele>163.4</ele>
        <time>2025-06-15T09:10:51Z</time>
      </trkpt>
      <trkpt lat="45.1363" lon="0.61392">
        <ele>163.6</ele>
        <time>2025-06-15T09:10:52Z</time>
      </trkpt>
      <trkpt lat="45.1363" lon="0.61394">
        <ele>163.8</ele>
        <time>2025-06-15T09:10:53Z</time>
      </trkpt>
      <trkpt lat="45.1363" lon="0.61396">
        <ele>163.8</ele>
        <time>2025-06-15T09:10:54Z</time>
      </trkpt>
      <trkpt lat="45.13631" lon="0.61399">
        <ele>164</ele>
        <time>2025-06-15T09:10:55Z</time>
      </trkpt>
      <trkpt lat="45.13631" lon="0.61401">
        <ele>164.2</ele>
        <time>2025-06-15T09:10:56Z</time>
      </trkpt>
      <trkpt lat="45.13631" lon="0.61403">
        <ele>164.4</ele>
        <time>2025-06-15T09:10:57Z</time>
      </trkpt>
      <trkpt lat="45.13632" lon="0.61404">
        <ele>164.6</ele>
        <time>2025-06-15T09:10:58Z</time>
      </trkpt>
      <trkpt lat="45.13633" lon="0.61406">
        <ele>164.8</ele>
        <time>2025-06-15T09:10:59Z</time>
      </trkpt>
      <trkpt lat="45.13633" lon="0.61408">
        <ele>164.8</ele>
        <time>2025-06-15T09:11:00Z</time>
      </trkpt>
      <trkpt lat="45.13633" lon="0.6141">
        <ele>165</ele>
        <time>2025-06-15T09:11:01Z</time>
      </trkpt>
      <trkpt lat="45.13634" lon="0.61412">
        <ele>165.2</ele>
        <time>2025-06-15T09:11:02Z</time>
      </trkpt>
      <trkpt lat="45.13634" lon="0.61414">
        <ele>165.4</ele>
        <time>2025-06-15T09:11:03Z</time>
      </trkpt>
      <trkpt lat="45.13635" lon="0.61415">
        <ele>165.6</ele>
        <time>2025-06-15T09:11:04Z</time>
      </trkpt>
      <trkpt lat="45.13636" lon="0.61417">
        <ele>165.8</ele>
        <time>2025-06-15T09:11:05Z</time>
      </trkpt>
      <trkpt lat="45.13636" lon="0.61418">
        <ele>166</ele>
        <time>2025-06-15T09:11:06Z</time>
      </trkpt>
      <trkpt lat="45.13637" lon="0.61421">
        <ele>166.2</ele>
        <time>2025-06-15T09:11:07Z</time>
      </trkpt>
      <trkpt lat="45.13637" lon="0.61423">
        <ele>166.6</ele>
        <time>2025-06-15T09:11:08Z</time>
      </trkpt>
      <trkpt lat="45.13637" lon="0.61425">
        <ele>166.8</ele>
        <time>2025-06-15T09:11:09Z</time>
      </trkpt>
      <trkpt lat="45.13638" lon="0.61426">
        <ele>167</ele>
        <time>2025-06-15T09:11:10Z</time>
      </trkpt>
      <trkpt lat="45.13638" lon="0.61429">
        <ele>167.2</ele>
        <time>2025-06-15T09:11:11Z</time>
      </trkpt>
      <trkpt lat="45.13639" lon="0.61431">
        <ele>167.4</ele>
        <time>2025-06-15T09:11:12Z</time>
      </trkpt>
      <trkpt lat="45.13639" lon="0.61432">
        <ele>167.6</ele>
        <time>2025-06-15T09:11:13Z</time>
      </trkpt>
      <trkpt lat="45.13639" lon="0.61434">
        <ele>167.8</ele>
        <time>2025-06-15T09:11:14Z</time>
      </trkpt>
      <trkpt lat="45.13639" lon="0.61436">
        <ele>168</ele>
        <time>2025-06-15T09:11:15Z</time>
      </trkpt>
      <trkpt lat="45.13639" lon="0.61437">
        <ele>168.2</ele>
        <time>2025-06-15T09:11:16Z</time>
      </trkpt>
      <trkpt lat="45.13639" lon="0.61439">
        <ele>168.4</ele>
        <time>2025-06-15T09:11:17Z</time>
      </trkpt>
      <trkpt lat="45.1364" lon="0.6144">
        <ele>168.6</ele>
        <time>2025-06-15T09:11:18Z</time>
      </trkpt>
      <trkpt lat="45.13641" lon="0.61442">
        <ele>168.8</ele>
        <time>2025-06-15T09:11:19Z</time>
      </trkpt>
      <trkpt lat="45.13641" lon="0.61443">
        <ele>169.2</ele>
        <time>2025-06-15T09:11:20Z</time>
      </trkpt>
      <trkpt lat="45.13641" lon="0.61445">
        <ele>169.4</ele>
        <time>2025-06-15T09:11:21Z</time>
      </trkpt>
      <trkpt lat="45.13642" lon="0.61446">
        <ele>169.6</ele>
        <time>2025-06-15T09:11:22Z</time>
      </trkpt>
      <trkpt lat="45.13642" lon="0.61447">
        <ele>169.8</ele>
        <time>2025-06-15T09:11:23Z</time>
      </trkpt>
      <trkpt lat="45.13642" lon="0.61449">
        <ele>170</ele>
        <time>2025-06-15T09:11:24Z</time>
      </trkpt>
      <trkpt lat="45.13643" lon="0.6145">
        <ele>170.4</ele>
        <time>2025-06-15T09:11:25Z</time>
      </trkpt>
      <trkpt lat="45.13643" lon="0.61452">
        <ele>170.6</ele>
        <time>2025-06-15T09:11:26Z</time>
      </trkpt>
      <trkpt lat="45.13643" lon="0.61454">
        <ele>170.8</ele>
        <time>2025-06-15T09:11:27Z</time>
      </trkpt>
      <trkpt lat="45.13643" lon="0.61455">
        <ele>171</ele>
        <time>2025-06-15T09:11:28Z</time>
      </trkpt>
      <trkpt lat="45.13643" lon="0.61457">
        <ele>171.2</ele>
        <time>2025-06-15T09:11:29Z</time>
      </trkpt>
      <trkpt lat="45.13643" lon="0.61459">
        <ele>171.4</ele>
        <time>2025-06-15T09:11:30Z</time>
      </trkpt>
      <trkpt lat="45.13643" lon="0.61461">
        <ele>171.8</ele>
        <time>2025-06-15T09:11:31Z</time>
      </trkpt>
      <trkpt lat="45.13643" lon="0.61463">
        <ele>172</ele>
        <time>2025-06-15T09:11:32Z</time>
      </trkpt>
      <trkpt lat="45.13643" lon="0.61465">
        <ele>172.2</ele>
        <time>2025-06-15T09:11:33Z</time>
      </trkpt>
      <trkpt lat="45.13643" lon="0.61467">
        <ele>172.4</ele>
        <time>2025-06-15T09:11:34Z</time>
      </trkpt>
      <trkpt lat="45.13643" lon="0.61468">
        <ele>172.6</ele>
        <time>2025-06-15T09:11:35Z</time>
      </trkpt>
      <trkpt lat="45.13643" lon="0.6147">
        <ele>172.8</ele>
        <time>2025-06-15T09:11:36Z</time>
      </trkpt>
      <trkpt lat="45.13643" lon="0.61471">
        <ele>173.2</ele>
        <time>2025-06-15T09:11:37Z</time>
      </trkpt>
      <trkpt lat="45.13643" lon="0.61473">
        <ele>173.4</ele>
        <time>2025-06-15T09:11:38Z</time>
      </trkpt>
      <trkpt lat="45.13644" lon="0.61474">
        <ele>173.6</ele>
        <time>2025-06-15T09:11:39Z</time>
      </trkpt>
      <trkpt lat="45.13644" lon="0.61475">
        <ele>173.8</ele>
        <time>2025-06-15T09:11:40Z</time>
      </trkpt>
      <trkpt lat="45.13644" lon="0.61477">
        <ele>173.8</ele>
        <time>2025-06-15T09:11:41Z</time>
      </trkpt>
      <trkpt lat="45.13645" lon="0.61479">
        <ele>174</ele>
        <time>2025-06-15T09:11:42Z</time>
      </trkpt>
      <trkpt lat="45.13645" lon="0.6148">
        <ele>174.2</ele>
        <time>2025-06-15T09:11:43Z</time>
      </trkpt>
      <trkpt lat="45.13646" lon="0.61482">
        <ele>174.4</ele>
        <time>2025-06-15T09:11:44Z</time>
      </trkpt>
      <trkpt lat="45.13646" lon="0.61483">
        <ele>174.6</ele>
        <time>2025-06-15T09:11:45Z</time>
      </trkpt>
      <trkpt lat="45.13646" lon="0.61485">
        <ele>174.8</ele>
        <time>2025-06-15T09:11:46Z</time>
      </trkpt>
      <trkpt lat="45.13647" lon="0.61487">
        <ele>175</ele>
        <time>2025-06-15T09:11:47Z</time>
      </trkpt>
      <trkpt lat="45.13648" lon="0.61489">
        <ele>175.4</ele>
        <time>2025-06-15T09:11:48Z</time>
      </trkpt>
      <trkpt lat="45.13649" lon="0.61491">
        <ele>175.6</ele>
        <time>2025-06-15T09:11:49Z</time>
      </trkpt>
      <trkpt lat="45.13649" lon="0.61493">
        <ele>175.8</ele>
        <time>2025-06-15T09:11:50Z</time>
      </trkpt>
      <trkpt lat="45.1365" lon="0.61495">
        <ele>176</ele>
        <time>2025-06-15T09:11:51Z</time>
      </trkpt>
      <trkpt lat="45.13651" lon="0.61497">
        <ele>176.2</ele>
        <time>2025-06-15T09:11:52Z</time>
      </trkpt>
      <trkpt lat="45.13652" lon="0.61498">
        <ele>176.4</ele>
        <time>2025-06-15T09:11:53Z</time>
      </trkpt>
      <trkpt lat="45.13652" lon="0.615">
        <ele>176.6</ele>
        <time>2025-06-15T09:11:54Z</time>
      </trkpt>
      <trkpt lat="45.13653" lon="0.61501">
        <ele>176.8</ele>
        <time>2025-06-15T09:11:55Z</time>
      </trkpt>
      <trkpt lat="45.13654" lon="0.61503">
        <ele>177</ele>
        <time>2025-06-15T09:11:56Z</time>
      </trkpt>
      <trkpt lat="45.13654" lon="0.61504">
        <ele>177.2</ele>
        <time>2025-06-15T09:11:57Z</time>
      </trkpt>
      <trkpt lat="45.13655" lon="0.61506">
        <ele>177.4</ele>
        <time>2025-06-15T09:11:58Z</time>
      </trkpt>
      <trkpt lat="45.13656" lon="0.61507">
        <ele>177.6</ele>
        <time>2025-06-15T09:11:59Z</time>
      </trkpt>
      <trkpt lat="45.13657" lon="0.61508">
        <ele>177.8</ele>
        <time>2025-06-15T09:12:00Z</time>
      </trkpt>
      <trkpt lat="45.13657" lon="0.6151">
        <ele>178</ele>
        <time>2025-06-15T09:12:01Z</time>
      </trkpt>
      <trkpt lat="45.13658" lon="0.61511">
        <ele>178.2</ele>
        <time>2025-06-15T09:12:02Z</time>
      </trkpt>
      <trkpt lat="45.13659" lon="0.61513">
        <ele>178.4</ele>
        <time>2025-06-15T09:12:03Z</time>
      </trkpt>
      <trkpt lat="45.1366" lon="0.61513">
        <ele>178.6</ele>
        <time>2025-06-15T09:12:04Z</time>
      </trkpt>
      <trkpt lat="45.1366" lon="0.61515">
        <ele>178.8</ele>
        <time>2025-06-15T09:12:05Z</time>
      </trkpt>
      <trkpt lat="45.13661" lon="0.61517">
        <ele>179</ele>
        <time>2025-06-15T09:12:06Z</time>
      </trkpt>
      <trkpt lat="45.13662" lon="0.61518">
        <ele>179.2</ele>
        <time>2025-06-15T09:12:07Z</time>
      </trkpt>
      <trkpt lat="45.13663" lon="0.61519">
        <ele>179.4</ele>
        <time>2025-06-15T09:12:08Z</time>
      </trkpt>
      <trkpt lat="45.13664" lon="0.61521">
        <ele>179.6</ele>
        <time>2025-06-15T09:12:09Z</time>
      </trkpt>
      <trkpt lat="45.13665" lon="0.61522">
        <ele>179.8</ele>
        <time>2025-06-15T09:12:10Z</time>
      </trkpt>
      <trkpt lat="45.13665" lon="0.61523">
        <ele>180</ele>
        <time>2025-06-15T09:12:11Z</time>
      </trkpt>
      <trkpt lat="45.13666" lon="0.61525">
        <ele>180.2</ele>
        <time>2025-06-15T09:12:12Z</time>
      </trkpt>
      <trkpt lat="45.13667" lon="0.61526">
        <ele>180.4</ele>
        <time>2025-06-15T09:12:13Z</time>
      </trkpt>
      <trkpt lat="45.13668" lon="0.61527">
        <ele>180.6</ele>
        <time>2025-06-15T09:12:14Z</time>
      </trkpt>
      <trkpt lat="45.13669" lon="0.61529">
        <ele>180.8</ele>
        <time>2025-06-15T09:12:15Z</time>
      </trkpt>
      <trkpt lat="45.1367" lon="0.6153">
        <ele>181</ele>
        <time>2025-06-15T09:12:16Z</time>
      </trkpt>
      <trkpt lat="45.13671" lon="0.61531">
        <ele>181.2</ele>
        <time>2025-06-15T09:12:17Z</time>
      </trkpt>
      <trkpt lat="45.13673" lon="0.61532">
        <ele>181.4</ele>
        <time>2025-06-15T09:12:18Z</time>
      </trkpt>
      <trkpt lat="45.13674" lon="0.61533">
        <ele>181.4</ele>
        <time>2025-06-15T09:12:19Z</time>
      </trkpt>
      <trkpt lat="45.13675" lon="0.61533">
        <ele>181.6</ele>
        <time>2025-06-15T09:12:20Z</time>
      </trkpt>
      <trkpt lat="45.13676" lon="0.61534">
        <ele>181.8</ele>
        <time>2025-06-15T09:12:21Z</time>
      </trkpt>
      <trkpt lat="45.13677" lon="0.61535">
        <ele>182</ele>
        <time>2025-06-15T09:12:22Z</time>
      </trkpt>
      <trkpt lat="45.13678" lon="0.61536">
        <ele>182.2</ele>
        <time>2025-06-15T09:12:23Z</time>
      </trkpt>
      <trkpt lat="45.1368" lon="0.61537">
        <ele>182.4</ele>
        <time>2025-06-15T09:12:24Z</time>
      </trkpt>
      <trkpt lat="45.13681" lon="0.61538">
        <ele>182.6</ele>
        <time>2025-06-15T09:12:25Z</time>
      </trkpt>
      <trkpt lat="45.13682" lon="0.61539">
        <ele>182.8</ele>
        <time>2025-06-15T09:12:26Z</time>
      </trkpt>
      <trkpt lat="45.13683" lon="0.6154">
        <ele>183</ele>
        <time>2025-06-15T09:12:27Z</time>
      </trkpt>
      <trkpt lat="45.13685" lon="0.61541">
        <ele>183.2</ele>
        <time>2025-06-15T09:12:28Z</time>
      </trkpt>
      <trkpt lat="45.13686" lon="0.61542">
        <ele>183.4</ele>
        <time>2025-06-15T09:12:29Z</time>
      </trkpt>
      <trkpt lat="45.13687" lon="0.61543">
        <ele>183.6</ele>
        <time>2025-06-15T09:12:30Z</time>
      </trkpt>
      <trkpt lat="45.13688" lon="0.61544">
        <ele>183.8</ele>
        <time>2025-06-15T09:12:31Z</time>
      </trkpt>
      <trkpt lat="45.13689" lon="0.61545">
        <ele>183.8</ele>
        <time>2025-06-15T09:12:32Z</time>
      </trkpt>
      <trkpt lat="45.1369" lon="0.61545">
        <ele>184.2</ele>
        <time>2025-06-15T09:12:33Z</time>
      </trkpt>
      <trkpt lat="45.13692" lon="0.61546">
        <ele>184.4</ele>
        <time>2025-06-15T09:12:34Z</time>
      </trkpt>
      <trkpt lat="45.13693" lon="0.61547">
        <ele>184.4</ele>
        <time>2025-06-15T09:12:35Z</time>
      </trkpt>
      <trkpt lat="45.13694" lon="0.61548">
        <ele>184.6</ele>
        <time>2025-06-15T09:12:36Z</time>
      </trkpt>
      <trkpt lat="45.13695" lon="0.61549">
        <ele>184.8</ele>
        <time>2025-06-15T09:12:37Z</time>
      </trkpt>
      <trkpt lat="45.13697" lon="0.6155">
        <ele>185</ele>
        <time>2025-06-15T09:12:38Z</time>
      </trkpt>
      <trkpt lat="45.13698" lon="0.61551">
        <ele>185.2</ele>
        <time>2025-06-15T09:12:39Z</time>
      </trkpt>
      <trkpt lat="45.13699" lon="0.61552">
        <ele>185.4</ele>
        <time>2025-06-15T09:12:40Z</time>
      </trkpt>
      <trkpt lat="45.137" lon="0.61553">
        <ele>185.6</ele>
        <time>2025-06-15T09:12:41Z</time>
      </trkpt>
      <trkpt lat="45.13701" lon="0.61554">
        <ele>185.8</ele>
        <time>2025-06-15T09:12:42Z</time>
      </trkpt>
      <trkpt lat="45.13702" lon="0.61555">
        <ele>186</ele>
        <time>2025-06-15T09:12:43Z</time>
      </trkpt>
      <trkpt lat="45.13704" lon="0.61556">
        <ele>186.2</ele>
        <time>2025-06-15T09:12:44Z</time>
      </trkpt>
      <trkpt lat="45.13705" lon="0.61556">
        <ele>186.4</ele>
        <time>2025-06-15T09:12:45Z</time>
      </trkpt>
      <trkpt lat="45.13706" lon="0.61557">
        <ele>186.6</ele>
        <time>2025-06-15T09:12:46Z</time>
      </trkpt>
      <trkpt lat="45.13707" lon="0.61558">
        <ele>186.8</ele>
        <time>2025-06-15T09:12:47Z</time>
      </trkpt>
      <trkpt lat="45.13708" lon="0.6156">
        <ele>187</ele>
        <time>2025-06-15T09:12:48Z</time>
      </trkpt>
      <trkpt lat="45.13709" lon="0.6156">
        <ele>187.2</ele>
        <time>2025-06-15T09:12:49Z</time>
      </trkpt>
      <trkpt lat="45.13711" lon="0.61561">
        <ele>187.4</ele>
        <time>2025-06-15T09:12:50Z</time>
      </trkpt>
      <trkpt lat="45.13712" lon="0.61561">
        <ele>187.6</ele>
        <time>2025-06-15T09:12:51Z</time>
      </trkpt>
      <trkpt lat="45.13713" lon="0.61562">
        <ele>187.8</ele>
        <time>2025-06-15T09:12:52Z</time>
      </trkpt>
      <trkpt lat="45.13714" lon="0.61563">
        <ele>188</ele>
        <time>2025-06-15T09:12:53Z</time>
      </trkpt>
      <trkpt lat="45.13716" lon="0.61564">
        <ele>188.2</ele>
        <time>2025-06-15T09:12:54Z</time>
      </trkpt>
      <trkpt lat="45.13717" lon="0.61564">
        <ele>188.4</ele>
        <time>2025-06-15T09:12:55Z</time>
      </trkpt>
      <trkpt lat="45.13719" lon="0.61564">
        <ele>188.6</ele>
        <time>2025-06-15T09:12:56Z</time>
      </trkpt>
      <trkpt lat="45.13721" lon="0.61564">
        <ele>188.8</ele>
        <time>2025-06-15T09:12:57Z</time>
      </trkpt>
      <trkpt lat="45.13722" lon="0.61564">
        <ele>189</ele>
        <time>2025-06-15T09:12:58Z</time>
      </trkpt>
      <trkpt lat="45.13723" lon="0.61564">
        <ele>189</ele>
        <time>2025-06-15T09:12:59Z</time>
      </trkpt>
      <trkpt lat="45.13725" lon="0.61564">
        <ele>189.2</ele>
        <time>2025-06-15T09:13:00Z</time>
      </trkpt>
      <trkpt lat="45.13726" lon="0.61565">
        <ele>189.4</ele>
        <time>2025-06-15T09:13:01Z</time>
      </trkpt>
      <trkpt lat="45.13728" lon="0.61565">
        <ele>189.6</ele>
        <time>2025-06-15T09:13:02Z</time>
      </trkpt>
      <trkpt lat="45.13729" lon="0.61565">
        <ele>189.8</ele>
        <time>2025-06-15T09:13:03Z</time>
      </trkpt>
      <trkpt lat="45.13731" lon="0.61565">
        <ele>190</ele>
        <time>2025-06-15T09:13:04Z</time>
      </trkpt>
      <trkpt lat="45.13732" lon="0.61565">
        <ele>190.2</ele>
        <time>2025-06-15T09:13:05Z</time>
      </trkpt>
      <trkpt lat="45.13734" lon="0.61565">
        <ele>190.2</ele>
        <time>2025-06-15T09:13:06Z</time>
      </trkpt>
      <trkpt lat="45.13735" lon="0.61565">
        <ele>190.4</ele>
        <time>2025-06-15T09:13:07Z</time>
      </trkpt>
      <trkpt lat="45.13737" lon="0.61566">
        <ele>190.6</ele>
        <time>2025-06-15T09:13:08Z</time>
      </trkpt>
      <trkpt lat="45.13739" lon="0.61566">
        <ele>190.8</ele>
        <time>2025-06-15T09:13:09Z</time>
      </trkpt>
      <trkpt lat="45.1374" lon="0.61566">
        <ele>190.8</ele>
        <time>2025-06-15T09:13:10Z</time>
      </trkpt>
      <trkpt lat="45.13742" lon="0.61566">
        <ele>191</ele>
        <time>2025-06-15T09:13:11Z</time>
      </trkpt>
      <trkpt lat="45.13744" lon="0.61566">
        <ele>191.2</ele>
        <time>2025-06-15T09:13:12Z</time>
      </trkpt>
      <trkpt lat="45.13746" lon="0.61566">
        <ele>191.4</ele>
        <time>2025-06-15T09:13:13Z</time>
      </trkpt>
      <trkpt lat="45.13748" lon="0.61566">
        <ele>191.4</ele>
        <time>2025-06-15T09:13:14Z</time>
      </trkpt>
      <trkpt lat="45.13749" lon="0.61565">
        <ele>191.6</ele>
        <time>2025-06-15T09:13:15Z</time>
      </trkpt>
      <trkpt lat="45.13751" lon="0.61566">
        <ele>191.6</ele>
        <time>2025-06-15T09:13:16Z</time>
      </trkpt>
      <trkpt lat="45.13753" lon="0.61566">
        <ele>191.8</ele>
        <time>2025-06-15T09:13:17Z</time>
      </trkpt>
      <trkpt lat="45.13754" lon="0.61566">
        <ele>192</ele>
        <time>2025-06-15T09:13:18Z</time>
      </trkpt>
      <trkpt lat="45.13756" lon="0.61566">
        <ele>192.2</ele>
        <time>2025-06-15T09:13:19Z</time>
      </trkpt>
      <trkpt lat="45.13758" lon="0.61565">
        <ele>192.4</ele>
        <time>2025-06-15T09:13:20Z</time>
      </trkpt>
      <trkpt lat="45.1376" lon="0.61565">
        <ele>192.4</ele>
        <time>2025-06-15T09:13:21Z</time>
      </trkpt>
      <trkpt lat="45.13762" lon="0.61565">
        <ele>192.6</ele>
        <time>2025-06-15T09:13:22Z</time>
      </trkpt>
      <trkpt lat="45.13764" lon="0.61564">
        <ele>192.8</ele>
        <time>2025-06-15T09:13:23Z</time>
      </trkpt>
      <trkpt lat="45.13766" lon="0.61564">
        <ele>192.8</ele>
        <time>2025-06-15T09:13:24Z</time>
      </trkpt>
      <trkpt lat="45.13767" lon="0.61564">
        <ele>193</ele>
        <time>2025-06-15T09:13:25Z</time>
      </trkpt>
      <trkpt lat="45.13769" lon="0.61564">
        <ele>193.2</ele>
        <time>2025-06-15T09:13:26Z</time>
      </trkpt>
      <trkpt lat="45.13771" lon="0.61564">
        <ele>193.2</ele>
        <time>2025-06-15T09:13:27Z</time>
      </trkpt>
      <trkpt lat="45.13773" lon="0.61564">
        <ele>193.4</ele>
        <time>2025-06-15T09:13:28Z</time>
      </trkpt>
      <trkpt lat="45.13775" lon="0.61564">
        <ele>193.4</ele>
        <time>2025-06-15T09:13:29Z</time>
      </trkpt>
      <trkpt lat="45.13778" lon="0.61564">
        <ele>193.6</ele>
        <time>2025-06-15T09:13:30Z</time>
      </trkpt>
      <trkpt lat="45.13779" lon="0.61564">
        <ele>193.8</ele>
        <time>2025-06-15T09:13:31Z</time>
      </trkpt>
      <trkpt lat="45.13781" lon="0.61564">
        <ele>193.8</ele>
        <time>2025-06-15T09:13:32Z</time>
      </trkpt>
      <trkpt lat="45.13783" lon="0.61565">
        <ele>194</ele>
        <time>2025-06-15T09:13:33Z</time>
      </trkpt>
      <trkpt lat="45.13785" lon="0.61564">
        <ele>194</ele>
        <time>2025-06-15T09:13:34Z</time>
      </trkpt>
      <trkpt lat="45.13787" lon="0.61564">
        <ele>194.2</ele>
        <time>2025-06-15T09:13:35Z</time>
      </trkpt>
      <trkpt lat="45.13789" lon="0.61564">
        <ele>194.4</ele>
        <time>2025-06-15T09:13:36Z</time>
      </trkpt>
      <trkpt lat="45.13791" lon="0.61564">
        <ele>194.6</ele>
        <time>2025-06-15T09:13:37Z</time>
      </trkpt>
      <trkpt lat="45.13792" lon="0.61564">
        <ele>194.8</ele>
        <time>2025-06-15T09:13:38Z</time>
      </trkpt>
      <trkpt lat="45.13794" lon="0.61564">
        <ele>194.8</ele>
        <time>2025-06-15T09:13:39Z</time>
      </trkpt>
      <trkpt lat="45.13796" lon="0.61565">
        <ele>195</ele>
        <time>2025-06-15T09:13:40Z</time>
      </trkpt>
      <trkpt lat="45.13797" lon="0.61565">
        <ele>195.2</ele>
        <time>2025-06-15T09:13:41Z</time>
      </trkpt>
      <trkpt lat="45.13799" lon="0.61565">
        <ele>195.4</ele>
        <time>2025-06-15T09:13:42Z</time>
      </trkpt>
      <trkpt lat="45.138" lon="0.61565">
        <ele>195.6</ele>
        <time>2025-06-15T09:13:43Z</time>
      </trkpt>
      <trkpt lat="45.13801" lon="0.61565">
        <ele>195.6</ele>
        <time>2025-06-15T09:13:44Z</time>
      </trkpt>
      <trkpt lat="45.13802" lon="0.61564">
        <ele>195.8</ele>
        <time>2025-06-15T09:13:45Z</time>
      </trkpt>
      <trkpt lat="45.13804" lon="0.61564">
        <ele>195.8</ele>
        <time>2025-06-15T09:13:46Z</time>
      </trkpt>
      <trkpt lat="45.13805" lon="0.61565">
        <ele>196</ele>
        <time>2025-06-15T09:13:47Z</time>
      </trkpt>
      <trkpt lat="45.13806" lon="0.61566">
        <ele>196</ele>
        <time>2025-06-15T09:13:48Z</time>
      </trkpt>
      <trkpt lat="45.13808" lon="0.61567">
        <ele>196.2</ele>
        <time>2025-06-15T09:13:49Z</time>
      </trkpt>
      <trkpt lat="45.13808" lon="0.61568">
        <ele>196.2</ele>
        <time>2025-06-15T09:13:50Z</time>
      </trkpt>
      <trkpt lat="45.13808" lon="0.6157">
        <ele>196.2</ele>
        <time>2025-06-15T09:13:51Z</time>
      </trkpt>
      <trkpt lat="45.13807" lon="0.61571">
        <ele>196.4</ele>
        <time>2025-06-15T09:13:52Z</time>
      </trkpt>
      <trkpt lat="45.13806" lon="0.61572">
        <ele>196.6</ele>
        <time>2025-06-15T09:13:53Z</time>
      </trkpt>
      <trkpt lat="45.13805" lon="0.61574">
        <ele>196.6</ele>
        <time>2025-06-15T09:13:54Z</time>
      </trkpt>
      <trkpt lat="45.13805" lon="0.61576">
        <ele>196.6</ele>
        <time>2025-06-15T09:13:55Z</time>
      </trkpt>
      <trkpt lat="45.13805" lon="0.61579">
        <ele>196.8</ele>
        <time>2025-06-15T09:13:56Z</time>
      </trkpt>
      <trkpt lat="45.13805" lon="0.61581">
        <ele>196.8</ele>
        <time>2025-06-15T09:13:57Z</time>
      </trkpt>
      <trkpt lat="45.13804" lon="0.61584">
        <ele>196.8</ele>
        <time>2025-06-15T09:13:58Z</time>
      </trkpt>
      <trkpt lat="45.13804" lon="0.61586">
        <ele>197</ele>
        <time>2025-06-15T09:13:59Z</time>
      </trkpt>
      <trkpt lat="45.13804" lon="0.61589">
        <ele>197</ele>
        <time>2025-06-15T09:14:00Z</time>
      </trkpt>
      <trkpt lat="45.13803" lon="0.61592">
        <ele>197</ele>
        <time>2025-06-15T09:14:01Z</time>
      </trkpt>
      <trkpt lat="45.13802" lon="0.61594">
        <ele>197.2</ele>
        <time>2025-06-15T09:14:02Z</time>
      </trkpt>
      <trkpt lat="45.13801" lon="0.61597">
        <ele>197.2</ele>
        <time>2025-06-15T09:14:03Z</time>
      </trkpt>
      <trkpt lat="45.13801" lon="0.61601">
        <ele>197.4</ele>
        <time>2025-06-15T09:14:04Z</time>
      </trkpt>
      <trkpt lat="45.138" lon="0.61605">
        <ele>197.4</ele>
        <time>2025-06-15T09:14:05Z</time>
      </trkpt>
      <trkpt lat="45.138" lon="0.61608">
        <ele>197.6</ele>
        <time>2025-06-15T09:14:06Z</time>
      </trkpt>
      <trkpt lat="45.13799" lon="0.61613">
        <ele>197.6</ele>
        <time>2025-06-15T09:14:07Z</time>
      </trkpt>
      <trkpt lat="45.13799" lon="0.61616">
        <ele>197.6</ele>
        <time>2025-06-15T09:14:08Z</time>
      </trkpt>
      <trkpt lat="45.13798" lon="0.61621">
        <ele>197.8</ele>
        <time>2025-06-15T09:14:09Z</time>
      </trkpt>
      <trkpt lat="45.13798" lon="0.61626">
        <ele>197.8</ele>
        <time>2025-06-15T09:14:10Z</time>
      </trkpt>
      <trkpt lat="45.13797" lon="0.61631">
        <ele>198</ele>
        <time>2025-06-15T09:14:11Z</time>
      </trkpt>
      <trkpt lat="45.13797" lon="0.61636">
        <ele>198</ele>
        <time>2025-06-15T09:14:12Z</time>
      </trkpt>
      <trkpt lat="45.13797" lon="0.61642">
        <ele>198.2</ele>
        <time>2025-06-15T09:14:13Z</time>
      </trkpt>
      <trkpt lat="45.13797" lon="0.61647">
        <ele>198.4</ele>
        <time>2025-06-15T09:14:14Z</time>
      </trkpt>
      <trkpt lat="45.13797" lon="0.61653">
        <ele>198.4</ele>
        <time>2025-06-15T09:14:15Z</time>
      </trkpt>
      <trkpt lat="45.13797" lon="0.61659">
        <ele>198.4</ele>
        <time>2025-06-15T09:14:16Z</time>
      </trkpt>
      <trkpt lat="45.13798" lon="0.61664">
        <ele>198.6</ele>
        <time>2025-06-15T09:14:17Z</time>
      </trkpt>
      <trkpt lat="45.13799" lon="0.6167">
        <ele>198.6</ele>
        <time>2025-06-15T09:14:18Z</time>
      </trkpt>
      <trkpt lat="45.138" lon="0.61676">
        <ele>198.6</ele>
        <time>2025-06-15T09:14:19Z</time>
      </trkpt>
      <trkpt lat="45.13801" lon="0.61683">
        <ele>198.8</ele>
        <time>2025-06-15T09:14:20Z</time>
      </trkpt>
      <trkpt lat="45.13802" lon="0.6169">
        <ele>198.8</ele>
        <time>2025-06-15T09:14:21Z</time>
      </trkpt>
      <trkpt lat="45.13803" lon="0.61696">
        <ele>199</ele>
        <time>2025-06-15T09:14:22Z</time>
      </trkpt>
      <trkpt lat="45.13804" lon="0.61702">
        <ele>199</ele>
        <time>2025-06-15T09:14:23Z</time>
      </trkpt>
      <trkpt lat="45.13806" lon="0.61708">
        <ele>199</ele>
        <time>2025-06-15T09:14:24Z</time>
      </trkpt>
      <trkpt lat="45.13808" lon="0.61714">
        <ele>199</ele>
        <time>2025-06-15T09:14:25Z</time>
      </trkpt>
      <trkpt lat="45.13811" lon="0.6172">
        <ele>199</ele>
        <time>2025-06-15T09:14:26Z</time>
      </trkpt>
      <trkpt lat="45.13815" lon="0.61726">
        <ele>198.8</ele>
        <time>2025-06-15T09:14:27Z</time>
      </trkpt>
      <trkpt lat="45.13818" lon="0.61733">
        <ele>198.8</ele>
        <time>2025-06-15T09:14:28Z</time>
      </trkpt>
      <trkpt lat="45.13821" lon="0.61739">
        <ele>198.6</ele>
        <time>2025-06-15T09:14:29Z</time>
      </trkpt>
      <trkpt lat="45.13825" lon="0.61746">
        <ele>198.6</ele>
        <time>2025-06-15T09:14:30Z</time>
      </trkpt>
      <trkpt lat="45.13829" lon="0.61752">
        <ele>198.4</ele>
        <time>2025-06-15T09:14:31Z</time>
      </trkpt>
      <trkpt lat="45.13833" lon="0.61758">
        <ele>198.2</ele>
        <time>2025-06-15T09:14:32Z</time>
      </trkpt>
      <trkpt lat="45.13837" lon="0.61764">
        <ele>198</ele>
        <time>2025-06-15T09:14:33Z</time>
      </trkpt>
      <trkpt lat="45.13841" lon="0.61771">
        <ele>197.6</ele>
        <time>2025-06-15T09:14:34Z</time>
      </trkpt>
      <trkpt lat="45.13844" lon="0.61779">
        <ele>197.4</ele>
        <time>2025-06-15T09:14:35Z</time>
      </trkpt>
      <trkpt lat="45.13847" lon="0.61786">
        <ele>197.2</ele>
        <time>2025-06-15T09:14:36Z</time>
      </trkpt>
      <trkpt lat="45.1385" lon="0.61793">
        <ele>197</ele>
        <time>2025-06-15T09:14:37Z</time>
      </trkpt>
      <trkpt lat="45.13852" lon="0.61799">
        <ele>196.6</ele>
        <time>2025-06-15T09:14:38Z</time>
      </trkpt>
      <trkpt lat="45.13854" lon="0.61805">
        <ele>196.6</ele>
        <time>2025-06-15T09:14:39Z</time>
      </trkpt>
      <trkpt lat="45.13856" lon="0.61809">
        <ele>196.4</ele>
        <time>2025-06-15T09:14:40Z</time>
      </trkpt>
      <trkpt lat="45.13858" lon="0.61813">
        <ele>196.2</ele>
        <time>2025-06-15T09:14:41Z</time>
      </trkpt>
      <trkpt lat="45.1386" lon="0.61814">
        <ele>196.2</ele>
        <time>2025-06-15T09:14:42Z</time>
      </trkpt>
      <trkpt lat="45.1386" lon="0.61815">
        <ele>196.2</ele>
        <time>2025-06-15T09:14:43Z</time>
      </trkpt>
      <trkpt lat="45.1386" lon="0.61816">
        <ele>196.2</ele>
        <time>2025-06-15T09:14:44Z</time>
      </trkpt>
      <trkpt lat="45.1386" lon="0.61816">
        <ele>196.2</ele>
        <time>2025-06-15T09:14:45Z</time>
      </trkpt>
      <trkpt lat="45.13861" lon="0.61826">
        <ele>196.2</ele>
        <time>2025-06-15T09:21:18Z</time>
      </trkpt>
      <trkpt lat="45.1386" lon="0.61829">
        <ele>196.2</ele>
        <time>2025-06-15T09:21:19Z</time>
      </trkpt>
      <trkpt lat="45.1386" lon="0.61833">
        <ele>196</ele>
        <time>2025-06-15T09:21:20Z</time>
      </trkpt>
      <trkpt lat="45.13859" lon="0.61837">
        <ele>196</ele>
        <time>2025-06-15T09:21:21Z</time>
      </trkpt>
      <trkpt lat="45.13858" lon="0.61842">
        <ele>196</ele>
        <time>2025-06-15T09:21:22Z</time>
      </trkpt>
      <trkpt lat="45.13857" lon="0.61847">
        <ele>195.8</ele>
        <time>2025-06-15T09:21:23Z</time>
      </trkpt>
      <trkpt lat="45.13856" lon="0.61853">
        <ele>195.8</ele>
        <time>2025-06-15T09:21:24Z</time>
      </trkpt>
      <trkpt lat="45.13855" lon="0.61859">
        <ele>195.6</ele>
        <time>2025-06-15T09:21:25Z</time>
      </trkpt>
      <trkpt lat="45.13853" lon="0.61866">
        <ele>195.6</ele>
        <time>2025-06-15T09:21:26Z</time>
      </trkpt>
      <trkpt lat="45.13851" lon="0.61873">
        <ele>195.4</ele>
        <time>2025-06-15T09:21:27Z</time>
      </trkpt>
      <trkpt lat="45.13849" lon="0.6188">
        <ele>195.4</ele>
        <time>2025-06-15T09:21:28Z</time>
      </trkpt>
      <trkpt lat="45.13846" lon="0.61887">
        <ele>195.4</ele>
        <time>2025-06-15T09:21:29Z</time>
      </trkpt>
      <trkpt lat="45.13843" lon="0.61894">
        <ele>195.4</ele>
        <time>2025-06-15T09:21:30Z</time>
      </trkpt>
      <trkpt lat="45.13839" lon="0.61901">
        <ele>195.2</ele>
        <time>2025-06-15T09:21:31Z</time>
      </trkpt>
      <trkpt lat="45.13835" lon="0.61907">
        <ele>195.2</ele>
        <time>2025-06-15T09:21:32Z</time>
      </trkpt>
      <trkpt lat="45.13832" lon="0.61914">
        <ele>195</ele>
        <time>2025-06-15T09:21:33Z</time>
      </trkpt>
      <trkpt lat="45.13828" lon="0.61922">
        <ele>195</ele>
        <time>2025-06-15T09:21:34Z</time>
      </trkpt>
      <trkpt lat="45.13823" lon="0.61929">
        <ele>194.8</ele>
        <time>2025-06-15T09:21:35Z</time>
      </trkpt>
      <trkpt lat="45.13819" lon="0.61936">
        <ele>194.8</ele>
        <time>2025-06-15T09:21:36Z</time>
      </trkpt>
      <trkpt lat="45.13815" lon="0.61944">
        <ele>194.8</ele>
        <time>2025-06-15T09:21:37Z</time>
      </trkpt>
      <trkpt lat="45.13811" lon="0.61951">
        <ele>194.6</ele>
        <time>2025-06-15T09:21:38Z</time>
      </trkpt>
      <trkpt lat="45.13807" lon="0.61958">
        <ele>194.6</ele>
        <time>2025-06-15T09:21:39Z</time>
      </trkpt>
      <trkpt lat="45.13804" lon="0.61965">
        <ele>194.4</ele>
        <time>2025-06-15T09:21:40Z</time>
      </trkpt>
      <trkpt lat="45.138" lon="0.61972">
        <ele>194.4</ele>
        <time>2025-06-15T09:21:41Z</time>
      </trkpt>
      <trkpt lat="45.13796" lon="0.61979">
        <ele>194.4</ele>
        <time>2025-06-15T09:21:42Z</time>
      </trkpt>
      <trkpt lat="45.13793" lon="0.61986">
        <ele>194.2</ele>
        <time>2025-06-15T09:21:43Z</time>
      </trkpt>
      <trkpt lat="45.1379" lon="0.61993">
        <ele>194.2</ele>
        <time>2025-06-15T09:21:44Z</time>
      </trkpt>
      <trkpt lat="45.13787" lon="0.62002">
        <ele>194.2</ele>
        <time>2025-06-15T09:21:45Z</time>
      </trkpt>
      <trkpt lat="45.13784" lon="0.6201">
        <ele>194.2</ele>
        <time>2025-06-15T09:21:46Z</time>
      </trkpt>
      <trkpt lat="45.13782" lon="0.62019">
        <ele>194.2</ele>
        <time>2025-06-15T09:21:47Z</time>
      </trkpt>
      <trkpt lat="45.1378" lon="0.62027">
        <ele>194</ele>
        <time>2025-06-15T09:21:48Z</time>
      </trkpt>
      <trkpt lat="45.13779" lon="0.62036">
        <ele>194</ele>
        <time>2025-06-15T09:21:49Z</time>
      </trkpt>
      <trkpt lat="45.13777" lon="0.62045">
        <ele>194</ele>
        <time>2025-06-15T09:21:50Z</time>
      </trkpt>
      <trkpt lat="45.13776" lon="0.62055">
        <ele>193.8</ele>
        <time>2025-06-15T09:21:51Z</time>
      </trkpt>
      <trkpt lat="45.13776" lon="0.62064">
        <ele>193.8</ele>
        <time>2025-06-15T09:21:52Z</time>
      </trkpt>
      <trkpt lat="45.13775" lon="0.62073">
        <ele>193.6</ele>
        <time>2025-06-15T09:21:53Z</time>
      </trkpt>
      <trkpt lat="45.13774" lon="0.62083">
        <ele>193.6</ele>
        <time>2025-06-15T09:21:54Z</time>
      </trkpt>
      <trkpt lat="45.13773" lon="0.62092">
        <ele>193.4</ele>
        <time>2025-06-15T09:21:55Z</time>
      </trkpt>
      <trkpt lat="45.13773" lon="0.62102">
        <ele>193.4</ele>
        <time>2025-06-15T09:21:56Z</time>
      </trkpt>
      <trkpt lat="45.13772" lon="0.62112">
        <ele>193.2</ele>
        <time>2025-06-15T09:21:57Z</time>
      </trkpt>
      <trkpt lat="45.13771" lon="0.62123">
        <ele>193</ele>
        <time>2025-06-15T09:21:58Z</time>
      </trkpt>
      <trkpt lat="45.13769" lon="0.62133">
        <ele>192.8</ele>
        <time>2025-06-15T09:21:59Z</time>
      </trkpt>
      <trkpt lat="45.13767" lon="0.62144">
        <ele>192.8</ele>
        <time>2025-06-15T09:22:00Z</time>
      </trkpt>
      <trkpt lat="45.13765" lon="0.62154">
        <ele>192.4</ele>
        <time>2025-06-15T09:22:01Z</time>
      </trkpt>
      <trkpt lat="45.13763" lon="0.62164">
        <ele>192.2</ele>
        <time>2025-06-15T09:22:02Z</time>
      </trkpt>
      <trkpt lat="45.1376" lon="0.62175">
        <ele>191.8</ele>
        <time>2025-06-15T09:22:03Z</time>
      </trkpt>
      <trkpt lat="45.13757" lon="0.62186">
        <ele>191.6</ele>
        <time>2025-06-15T09:22:04Z</time>
      </trkpt>
      <trkpt lat="45.13754" lon="0.62197">
        <ele>191.4</ele>
        <time>2025-06-15T09:22:05Z</time>
      </trkpt>
      <trkpt lat="45.13751" lon="0.62207">
        <ele>191</ele>
        <time>2025-06-15T09:22:06Z</time>
      </trkpt>
      <trkpt lat="45.13748" lon="0.62218">
        <ele>190.6</ele>
        <time>2025-06-15T09:22:07Z</time>
      </trkpt>
      <trkpt lat="45.13745" lon="0.62229">
        <ele>190.4</ele>
        <time>2025-06-15T09:22:08Z</time>
      </trkpt>
      <trkpt lat="45.13742" lon="0.62239">
        <ele>190</ele>
        <time>2025-06-15T09:22:09Z</time>
      </trkpt>
      <trkpt lat="45.13739" lon="0.6225">
        <ele>189.6</ele>
        <time>2025-06-15T09:22:10Z</time>
      </trkpt>
      <trkpt lat="45.13735" lon="0.62261">
        <ele>189.4</ele>
        <time>2025-06-15T09:22:11Z</time>
      </trkpt>
      <trkpt lat="45.13732" lon="0.62272">
        <ele>189</ele>
        <time>2025-06-15T09:22:12Z</time>
      </trkpt>
      <trkpt lat="45.13729" lon="0.62283">
        <ele>188.8</ele>
        <time>2025-06-15T09:22:13Z</time>
      </trkpt>
      <trkpt lat="45.13726" lon="0.62294">
        <ele>188.4</ele>
        <time>2025-06-15T09:22:14Z</time>
      </trkpt>
      <trkpt lat="45.13722" lon="0.62304">
        <ele>188</ele>
        <time>2025-06-15T09:22:15Z</time>
      </trkpt>
      <trkpt lat="45.13718" lon="0.62315">
        <ele>187.8</ele>
        <time>2025-06-15T09:22:16Z</time>
      </trkpt>
      <trkpt lat="45.13713" lon="0.62324">
        <ele>187.6</ele>
        <time>2025-06-15T09:22:17Z</time>
      </trkpt>
      <trkpt lat="45.13709" lon="0.62333">
        <ele>187.4</ele>
        <time>2025-06-15T09:22:18Z</time>
      </trkpt>
      <trkpt lat="45.13704" lon="0.62342">
        <ele>187</ele>
        <time>2025-06-15T09:22:19Z</time>
      </trkpt>
      <trkpt lat="45.13699" lon="0.62351">
        <ele>186.8</ele>
        <time>2025-06-15T09:22:20Z</time>
      </trkpt>
      <trkpt lat="45.13696" lon="0.62362">
        <ele>186.6</ele>
        <time>2025-06-15T09:22:21Z</time>
      </trkpt>
      <trkpt lat="45.13693" lon="0.62374">
        <ele>186.4</ele>
        <time>2025-06-15T09:22:22Z</time>
      </trkpt>
      <trkpt lat="45.13691" lon="0.62385">
        <ele>186.2</ele>
        <time>2025-06-15T09:22:23Z</time>
      </trkpt>
      <trkpt lat="45.13689" lon="0.62397">
        <ele>186</ele>
        <time>2025-06-15T09:22:24Z</time>
      </trkpt>
      <trkpt lat="45.13686" lon="0.62408">
        <ele>186</ele>
        <time>2025-06-15T09:22:25Z</time>
      </trkpt>
      <trkpt lat="45.13684" lon="0.62418">
        <ele>186</ele>
        <time>2025-06-15T09:22:26Z</time>
      </trkpt>
      <trkpt lat="45.13681" lon="0.62428">
        <ele>186.2</ele>
        <time>2025-06-15T09:22:27Z</time>
      </trkpt>
      <trkpt lat="45.13678" lon="0.62437">
        <ele>186.2</ele>
        <time>2025-06-15T09:22:28Z</time>
      </trkpt>
      <trkpt lat="45.13675" lon="0.62447">
        <ele>186.4</ele>
        <time>2025-06-15T09:22:29Z</time>
      </trkpt>
      <trkpt lat="45.13673" lon="0.62456">
        <ele>186.6</ele>
        <time>2025-06-15T09:22:30Z</time>
      </trkpt>
      <trkpt lat="45.1367" lon="0.62465">
        <ele>187</ele>
        <time>2025-06-15T09:22:31Z</time>
      </trkpt>
      <trkpt lat="45.13667" lon="0.62474">
        <ele>187.2</ele>
        <time>2025-06-15T09:22:32Z</time>
      </trkpt>
      <trkpt lat="45.13664" lon="0.62483">
        <ele>187.4</ele>
        <time>2025-06-15T09:22:33Z</time>
      </trkpt>
      <trkpt lat="45.13662" lon="0.62493">
        <ele>187.6</ele>
        <time>2025-06-15T09:22:34Z</time>
      </trkpt>
      <trkpt lat="45.13659" lon="0.62502">
        <ele>187.8</ele>
        <time>2025-06-15T09:22:35Z</time>
      </trkpt>
      <trkpt lat="45.13657" lon="0.62511">
        <ele>188</ele>
        <time>2025-06-15T09:22:36Z</time>
      </trkpt>
      <trkpt lat="45.13654" lon="0.62521">
        <ele>188.2</ele>
        <time>2025-06-15T09:22:37Z</time>
      </trkpt>
      <trkpt lat="45.13651" lon="0.6253">
        <ele>188.4</ele>
        <time>2025-06-15T09:22:38Z</time>
      </trkpt>
      <trkpt lat="45.13648" lon="0.62539">
        <ele>188.6</ele>
        <time>2025-06-15T09:22:39Z</time>
      </trkpt>
      <trkpt lat="45.13645" lon="0.62548">
        <ele>188.8</ele>
        <time>2025-06-15T09:22:40Z</time>
      </trkpt>
      <trkpt lat="45.13642" lon="0.62556">
        <ele>189</ele>
        <time>2025-06-15T09:22:41Z</time>
      </trkpt>
      <trkpt lat="45.13638" lon="0.62564">
        <ele>189.2</ele>
        <time>2025-06-15T09:22:42Z</time>
      </trkpt>
      <trkpt lat="45.13635" lon="0.62573">
        <ele>189.4</ele>
        <time>2025-06-15T09:22:43Z</time>
      </trkpt>
      <trkpt lat="45.13632" lon="0.62582">
        <ele>189.6</ele>
        <time>2025-06-15T09:22:44Z</time>
      </trkpt>
      <trkpt lat="45.13629" lon="0.6259">
        <ele>189.8</ele>
        <time>2025-06-15T09:22:45Z</time>
      </trkpt>
      <trkpt lat="45.13626" lon="0.62598">
        <ele>190</ele>
        <time>2025-06-15T09:22:46Z</time>
      </trkpt>
      <trkpt lat="45.13624" lon="0.62606">
        <ele>190.2</ele>
        <time>2025-06-15T09:22:47Z</time>
      </trkpt>
      <trkpt lat="45.13621" lon="0.62614">
        <ele>190.4</ele>
        <time>2025-06-15T09:22:48Z</time>
      </trkpt>
      <trkpt lat="45.13619" lon="0.62621">
        <ele>190.8</ele>
        <time>2025-06-15T09:22:49Z</time>
      </trkpt>
      <trkpt lat="45.13618" lon="0.62628">
        <ele>191</ele>
        <time>2025-06-15T09:22:50Z</time>
      </trkpt>
      <trkpt lat="45.13616" lon="0.62634">
        <ele>191.4</ele>
        <time>2025-06-15T09:22:51Z</time>
      </trkpt>
      <trkpt lat="45.13616" lon="0.62641">
        <ele>191.8</ele>
        <time>2025-06-15T09:22:52Z</time>
      </trkpt>
      <trkpt lat="45.13616" lon="0.62647">
        <ele>192.2</ele>
        <time>2025-06-15T09:22:53Z</time>
      </trkpt>
      <trkpt lat="45.13617" lon="0.62654">
        <ele>192.6</ele>
        <time>2025-06-15T09:22:54Z</time>
      </trkpt>
      <trkpt lat="45.13617" lon="0.62661">
        <ele>193</ele>
        <time>2025-06-15T09:22:55Z</time>
      </trkpt>
      <trkpt lat="45.13618" lon="0.62667">
        <ele>193.4</ele>
        <time>2025-06-15T09:22:56Z</time>
      </trkpt>
      <trkpt lat="45.13619" lon="0.62673">
        <ele>193.6</ele>
        <time>2025-06-15T09:22:57Z</time>
      </trkpt>
      <trkpt lat="45.1362" lon="0.62679">
        <ele>194</ele>
        <time>2025-06-15T09:22:58Z</time>
      </trkpt>
      <trkpt lat="45.1362" lon="0.62684">
        <ele>194.2</ele>
        <time>2025-06-15T09:22:59Z</time>
      </trkpt>
      <trkpt lat="45.13621" lon="0.6269">
        <ele>194.6</ele>
        <time>2025-06-15T09:23:00Z</time>
      </trkpt>
      <trkpt lat="45.13622" lon="0.62696">
        <ele>194.8</ele>
        <time>2025-06-15T09:23:01Z</time>
      </trkpt>
      <trkpt lat="45.13623" lon="0.62701">
        <ele>195.2</ele>
        <time>2025-06-15T09:23:02Z</time>
      </trkpt>
      <trkpt lat="45.13623" lon="0.62706">
        <ele>195.4</ele>
        <time>2025-06-15T09:23:03Z</time>
      </trkpt>
      <trkpt lat="45.13623" lon="0.62711">
        <ele>195.6</ele>
        <time>2025-06-15T09:23:04Z</time>
      </trkpt>
      <trkpt lat="45.13622" lon="0.62716">
        <ele>195.8</ele>
        <time>2025-06-15T09:23:05Z</time>
      </trkpt>
      <trkpt lat="45.13622" lon="0.62722">
        <ele>196</ele>
        <time>2025-06-15T09:23:06Z</time>
      </trkpt>
      <trkpt lat="45.13622" lon="0.62727">
        <ele>196.2</ele>
        <time>2025-06-15T09:23:07Z</time>
      </trkpt>
      <trkpt lat="45.13621" lon="0.62732">
        <ele>196.4</ele>
        <time>2025-06-15T09:23:08Z</time>
      </trkpt>
      <trkpt lat="45.1362" lon="0.62738">
        <ele>196.4</ele>
        <time>2025-06-15T09:23:09Z</time>
      </trkpt>
      <trkpt lat="45.1362" lon="0.62743">
        <ele>196.4</ele>
        <time>2025-06-15T09:23:10Z</time>
      </trkpt>
      <trkpt lat="45.1362" lon="0.62747">
        <ele>196.4</ele>
        <time>2025-06-15T09:23:11Z</time>
      </trkpt>
      <trkpt lat="45.13622" lon="0.6275">
        <ele>196.6</ele>
        <time>2025-06-15T09:23:12Z</time>
      </trkpt>
      <trkpt lat="45.13624" lon="0.62752">
        <ele>196.6</ele>
        <time>2025-06-15T09:23:13Z</time>
      </trkpt>
      <trkpt lat="45.13626" lon="0.62754">
        <ele>196.6</ele>
        <time>2025-06-15T09:23:14Z</time>
      </trkpt>
      <trkpt lat="45.13629" lon="0.62755">
        <ele>196.4</ele>
        <time>2025-06-15T09:23:15Z</time>
      </trkpt>
      <trkpt lat="45.13632" lon="0.62755">
        <ele>196.4</ele>
        <time>2025-06-15T09:23:16Z</time>
      </trkpt>
      <trkpt lat="45.13636" lon="0.62756">
        <ele>196.4</ele>
        <time>2025-06-15T09:23:17Z</time>
      </trkpt>
      <trkpt lat="45.1364" lon="0.62757">
        <ele>196.4</ele>
        <time>2025-06-15T09:23:18Z</time>
      </trkpt>
      <trkpt lat="45.13644" lon="0.62757">
        <ele>196.4</ele>
        <time>2025-06-15T09:23:19Z</time>
      </trkpt>
      <trkpt lat="45.13649" lon="0.62756">
        <ele>196.4</ele>
        <time>2025-06-15T09:23:20Z</time>
      </trkpt>
      <trkpt lat="45.13655" lon="0.62755">
        <ele>196.4</ele>
        <time>2025-06-15T09:23:21Z</time>
      </trkpt>
      <trkpt lat="45.1366" lon="0.62754">
        <ele>196.4</ele>
        <time>2025-06-15T09:23:22Z</time>
      </trkpt>
      <trkpt lat="45.13665" lon="0.62753">
        <ele>196.4</ele>
        <time>2025-06-15T09:23:23Z</time>
      </trkpt>
      <trkpt lat="45.1367" lon="0.62751">
        <ele>196.4</ele>
        <time>2025-06-15T09:23:24Z</time>
      </trkpt>
      <trkpt lat="45.13675" lon="0.62749">
        <ele>196.4</ele>
        <time>2025-06-15T09:23:25Z</time>
      </trkpt>
      <trkpt lat="45.1368" lon="0.62747">
        <ele>196.2</ele>
        <time>2025-06-15T09:23:26Z</time>
      </trkpt>
      <trkpt lat="45.13685" lon="0.62746">
        <ele>196.2</ele>
        <time>2025-06-15T09:23:27Z</time>
      </trkpt>
      <trkpt lat="45.13691" lon="0.62744">
        <ele>196.2</ele>
        <time>2025-06-15T09:23:28Z</time>
      </trkpt>
      <trkpt lat="45.13696" lon="0.62741">
        <ele>196</ele>
        <time>2025-06-15T09:23:29Z</time>
      </trkpt>
      <trkpt lat="45.13702" lon="0.6274">
        <ele>196</ele>
        <time>2025-06-15T09:23:30Z</time>
      </trkpt>
      <trkpt lat="45.13708" lon="0.62738">
        <ele>195.8</ele>
        <time>2025-06-15T09:23:31Z</time>
      </trkpt>
      <trkpt lat="45.13714" lon="0.62738">
        <ele>195.8</ele>
        <time>2025-06-15T09:23:32Z</time>
      </trkpt>
      <trkpt lat="45.1372" lon="0.62737">
        <ele>195.6</ele>
        <time>2025-06-15T09:23:33Z</time>
      </trkpt>
      <trkpt lat="45.13726" lon="0.62737">
        <ele>195.4</ele>
        <time>2025-06-15T09:23:34Z</time>
      </trkpt>
      <trkpt lat="45.13731" lon="0.62737">
        <ele>195.4</ele>
        <time>2025-06-15T09:23:35Z</time>
      </trkpt>
      <trkpt lat="45.13738" lon="0.62737">
        <ele>195.2</ele>
        <time>2025-06-15T09:23:36Z</time>
      </trkpt>
      <trkpt lat="45.13744" lon="0.62737">
        <ele>195.2</ele>
        <time>2025-06-15T09:23:37Z</time>
      </trkpt>
      <trkpt lat="45.1375" lon="0.62738">
        <ele>195</ele>
        <time>2025-06-15T09:23:38Z</time>
      </trkpt>
      <trkpt lat="45.13756" lon="0.6274">
        <ele>194.8</ele>
        <time>2025-06-15T09:23:39Z</time>
      </trkpt>
      <trkpt lat="45.13763" lon="0.62742">
        <ele>194.6</ele>
        <time>2025-06-15T09:23:40Z</time>
      </trkpt>
      <trkpt lat="45.13769" lon="0.62745">
        <ele>194.4</ele>
        <time>2025-06-15T09:23:41Z</time>
      </trkpt>
      <trkpt lat="45.13776" lon="0.62748">
        <ele>194.2</ele>
        <time>2025-06-15T09:23:42Z</time>
      </trkpt>
      <trkpt lat="45.13783" lon="0.62751">
        <ele>194</ele>
        <time>2025-06-15T09:23:43Z</time>
      </trkpt>
      <trkpt lat="45.1379" lon="0.62755">
        <ele>193.6</ele>
        <time>2025-06-15T09:23:44Z</time>
      </trkpt>
      <trkpt lat="45.13796" lon="0.62758">
        <ele>193.4</ele>
        <time>2025-06-15T09:23:45Z</time>
      </trkpt>
      <trkpt lat="45.13803" lon="0.62761">
        <ele>193</ele>
        <time>2025-06-15T09:23:46Z</time>
      </trkpt>
      <trkpt lat="45.1381" lon="0.62763">
        <ele>192.8</ele>
        <time>2025-06-15T09:23:47Z</time>
      </trkpt>
      <trkpt lat="45.13817" lon="0.62766">
        <ele>192.4</ele>
        <time>2025-06-15T09:23:48Z</time>
      </trkpt>
      <trkpt lat="45.13824" lon="0.62768">
        <ele>192.2</ele>
        <time>2025-06-15T09:23:49Z</time>
      </trkpt>
      <trkpt lat="45.13831" lon="0.62771">
        <ele>192</ele>
        <time>2025-06-15T09:23:50Z</time>
      </trkpt>
      <trkpt lat="45.13839" lon="0.62773">
        <ele>191.8</ele>
        <time>2025-06-15T09:23:51Z</time>
      </trkpt>
      <trkpt lat="45.13846" lon="0.62775">
        <ele>191.6</ele>
        <time>2025-06-15T09:23:52Z</time>
      </trkpt>
      <trkpt lat="45.13853" lon="0.62777">
        <ele>191.2</ele>
        <time>2025-06-15T09:23:53Z</time>
      </trkpt>
      <trkpt lat="45.13861" lon="0.6278">
        <ele>191</ele>
        <time>2025-06-15T09:23:54Z</time>
      </trkpt>
      <trkpt lat="45.13869" lon="0.62782">
        <ele>190.6</ele>
        <time>2025-06-15T09:23:55Z</time>
      </trkpt>
      <trkpt lat="45.13877" lon="0.62785">
        <ele>190.2</ele>
        <time>2025-06-15T09:23:56Z</time>
      </trkpt>
      <trkpt lat="45.13884" lon="0.62788">
        <ele>189.8</ele>
        <time>2025-06-15T09:23:57Z</time>
      </trkpt>
      <trkpt lat="45.13892" lon="0.62791">
        <ele>189.4</ele>
        <time>2025-06-15T09:23:58Z</time>
      </trkpt>
      <trkpt lat="45.13901" lon="0.62795">
        <ele>189</ele>
        <time>2025-06-15T09:23:59Z</time>
      </trkpt>
      <trkpt lat="45.13909" lon="0.62798">
        <ele>188.4</ele>
        <time>2025-06-15T09:24:00Z</time>
      </trkpt>
      <trkpt lat="45.13918" lon="0.62802">
        <ele>188</ele>
        <time>2025-06-15T09:24:01Z</time>
      </trkpt>
      <trkpt lat="45.13925" lon="0.62804">
        <ele>187.2</ele>
        <time>2025-06-15T09:24:02Z</time>
      </trkpt>
      <trkpt lat="45.13933" lon="0.62807">
        <ele>186.8</ele>
        <time>2025-06-15T09:24:03Z</time>
      </trkpt>
      <trkpt lat="45.13939" lon="0.6281">
        <ele>186.4</ele>
        <time>2025-06-15T09:24:04Z</time>
      </trkpt>
      <trkpt lat="45.13945" lon="0.62814">
        <ele>186</ele>
        <time>2025-06-15T09:24:05Z</time>
      </trkpt>
      <trkpt lat="45.1395" lon="0.62817">
        <ele>185.6</ele>
        <time>2025-06-15T09:24:06Z</time>
      </trkpt>
      <trkpt lat="45.13954" lon="0.62819">
        <ele>185</ele>
        <time>2025-06-15T09:24:07Z</time>
      </trkpt>
      <trkpt lat="45.13958" lon="0.62821">
        <ele>184.4</ele>
        <time>2025-06-15T09:24:08Z</time>
      </trkpt>
      <trkpt lat="45.13963" lon="0.62821">
        <ele>183.8</ele>
        <time>2025-06-15T09:24:09Z</time>
      </trkpt>
      <trkpt lat="45.13967" lon="0.6282">
        <ele>183.2</ele>
        <time>2025-06-15T09:24:10Z</time>
      </trkpt>
      <trkpt lat="45.13972" lon="0.62817">
        <ele>182.6</ele>
        <time>2025-06-15T09:24:11Z</time>
      </trkpt>
      <trkpt lat="45.13977" lon="0.62814">
        <ele>181.8</ele>
        <time>2025-06-15T09:24:12Z</time>
      </trkpt>
      <trkpt lat="45.13982" lon="0.62812">
        <ele>181.2</ele>
        <time>2025-06-15T09:24:13Z</time>
      </trkpt>
      <trkpt lat="45.1399" lon="0.62808">
        <ele>180.6</ele>
        <time>2025-06-15T09:24:14Z</time>
      </trkpt>
      <trkpt lat="45.13997" lon="0.62805">
        <ele>180.2</ele>
        <time>2025-06-15T09:24:15Z</time>
      </trkpt>
      <trkpt lat="45.14006" lon="0.62801">
        <ele>180</ele>
        <time>2025-06-15T09:24:16Z</time>
      </trkpt>
      <trkpt lat="45.14016" lon="0.62798">
        <ele>180</ele>
        <time>2025-06-15T09:24:17Z</time>
      </trkpt>
      <trkpt lat="45.14025" lon="0.62794">
        <ele>180</ele>
        <time>2025-06-15T09:24:18Z</time>
      </trkpt>
      <trkpt lat="45.14034" lon="0.62789">
        <ele>180</ele>
        <time>2025-06-15T09:24:19Z</time>
      </trkpt>
      <trkpt lat="45.14043" lon="0.62788">
        <ele>180</ele>
        <time>2025-06-15T09:24:20Z</time>
      </trkpt>
      <trkpt lat="45.1405" lon="0.62785">
        <ele>180</ele>
        <time>2025-06-15T09:24:21Z</time>
      </trkpt>
      <trkpt lat="45.14057" lon="0.6278">
        <ele>180</ele>
        <time>2025-06-15T09:24:22Z</time>
      </trkpt>
      <trkpt lat="45.14062" lon="0.62774">
        <ele>180</ele>
        <time>2025-06-15T09:24:23Z</time>
      </trkpt>
      <trkpt lat="45.14067" lon="0.62766">
        <ele>180.2</ele>
        <time>2025-06-15T09:24:24Z</time>
      </trkpt>
      <trkpt lat="45.14072" lon="0.62758">
        <ele>180.6</ele>
        <time>2025-06-15T09:24:25Z</time>
      </trkpt>
      <trkpt lat="45.14075" lon="0.62749">
        <ele>180.8</ele>
        <time>2025-06-15T09:24:26Z</time>
      </trkpt>
      <trkpt lat="45.14078" lon="0.6274">
        <ele>181</ele>
        <time>2025-06-15T09:24:27Z</time>
      </trkpt>
      <trkpt lat="45.14081" lon="0.62731">
        <ele>181.2</ele>
        <time>2025-06-15T09:24:28Z</time>
      </trkpt>
      <trkpt lat="45.14084" lon="0.62724">
        <ele>181.6</ele>
        <time>2025-06-15T09:24:29Z</time>
      </trkpt>
      <trkpt lat="45.14087" lon="0.62718">
        <ele>181.6</ele>
        <time>2025-06-15T09:24:30Z</time>
      </trkpt>
      <trkpt lat="45.14092" lon="0.62715">
        <ele>181.6</ele>
        <time>2025-06-15T09:24:31Z</time>
      </trkpt>
      <trkpt lat="45.14096" lon="0.62713">
        <ele>181.8</ele>
        <time>2025-06-15T09:24:32Z</time>
      </trkpt>
      <trkpt lat="45.14101" lon="0.62715">
        <ele>181.8</ele>
        <time>2025-06-15T09:24:33Z</time>
      </trkpt>
      <trkpt lat="45.14106" lon="0.62719">
        <ele>181.8</ele>
        <time>2025-06-15T09:24:34Z</time>
      </trkpt>
      <trkpt lat="45.14111" lon="0.62723">
        <ele>181.8</ele>
        <time>2025-06-15T09:24:35Z</time>
      </trkpt>
      <trkpt lat="45.14117" lon="0.62726">
        <ele>181.8</ele>
        <time>2025-06-15T09:24:36Z</time>
      </trkpt>
      <trkpt lat="45.14124" lon="0.62731">
        <ele>181.4</ele>
        <time>2025-06-15T09:24:37Z</time>
      </trkpt>
      <trkpt lat="45.14131" lon="0.62735">
        <ele>181</ele>
        <time>2025-06-15T09:24:38Z</time>
      </trkpt>
      <trkpt lat="45.1414" lon="0.62736">
        <ele>180.2</ele>
        <time>2025-06-15T09:24:39Z</time>
      </trkpt>
      <trkpt lat="45.14149" lon="0.62735">
        <ele>179.6</ele>
        <time>2025-06-15T09:24:40Z</time>
      </trkpt>
      <trkpt lat="45.14158" lon="0.62736">
        <ele>178.8</ele>
        <time>2025-06-15T09:24:41Z</time>
      </trkpt>
      <trkpt lat="45.14168" lon="0.62738">
        <ele>178.4</ele>
        <time>2025-06-15T09:24:42Z</time>
      </trkpt>
      <trkpt lat="45.14176" lon="0.62741">
        <ele>178</ele>
        <time>2025-06-15T09:24:43Z</time>
      </trkpt>
      <trkpt lat="45.14185" lon="0.62747">
        <ele>177.6</ele>
        <time>2025-06-15T09:24:44Z</time>
      </trkpt>
      <trkpt lat="45.14193" lon="0.62753">
        <ele>176.8</ele>
        <time>2025-06-15T09:24:45Z</time>
      </trkpt>
      <trkpt lat="45.14202" lon="0.62761">
        <ele>176</ele>
        <time>2025-06-15T09:24:46Z</time>
      </trkpt>
      <trkpt lat="45.14211" lon="0.62768">
        <ele>174.4</ele>
        <time>2025-06-15T09:24:47Z</time>
      </trkpt>
      <trkpt lat="45.14219" lon="0.62775">
        <ele>173.6</ele>
        <time>2025-06-15T09:24:48Z</time>
      </trkpt>
      <trkpt lat="45.14227" lon="0.62783">
        <ele>172.8</ele>
        <time>2025-06-15T09:24:49Z</time>
      </trkpt>
      <trkpt lat="45.14235" lon="0.6279">
        <ele>171.8</ele>
        <time>2025-06-15T09:24:50Z</time>
      </trkpt>
      <trkpt lat="45.14241" lon="0.62797">
        <ele>171</ele>
        <time>2025-06-15T09:24:51Z</time>
      </trkpt>
      <trkpt lat="45.14248" lon="0.62804">
        <ele>170</ele>
        <time>2025-06-15T09:24:52Z</time>
      </trkpt>
      <trkpt lat="45.14254" lon="0.62808">
        <ele>168.6</ele>
        <time>2025-06-15T09:24:53Z</time>
      </trkpt>
      <trkpt lat="45.1426" lon="0.62811">
        <ele>167.6</ele>
        <time>2025-06-15T09:24:54Z</time>
      </trkpt>
      <trkpt lat="45.14267" lon="0.62812">
        <ele>166.8</ele>
        <time>2025-06-15T09:24:55Z</time>
      </trkpt>
      <trkpt lat="45.14274" lon="0.62812">
        <ele>166.2</ele>
        <time>2025-06-15T09:24:56Z</time>
      </trkpt>
      <trkpt lat="45.14281" lon="0.62811">
        <ele>165.6</ele>
        <time>2025-06-15T09:24:57Z</time>
      </trkpt>
      <trkpt lat="45.14288" lon="0.62812">
        <ele>165</ele>
        <time>2025-06-15T09:24:58Z</time>
      </trkpt>
      <trkpt lat="45.14295" lon="0.62814">
        <ele>164.6</ele>
        <time>2025-06-15T09:24:59Z</time>
      </trkpt>
      <trkpt lat="45.14303" lon="0.62819">
        <ele>164.2</ele>
        <time>2025-06-15T09:25:00Z</time>
      </trkpt>
      <trkpt lat="45.1431" lon="0.62825">
        <ele>163.6</ele>
        <time>2025-06-15T09:25:01Z</time>
      </trkpt>
      <trkpt lat="45.14317" lon="0.62832">
        <ele>162.8</ele>
        <time>2025-06-15T09:25:02Z</time>
      </trkpt>
      <trkpt lat="45.14324" lon="0.6284">
        <ele>161.4</ele>
        <time>2025-06-15T09:25:03Z</time>
      </trkpt>
      <trkpt lat="45.14331" lon="0.62848">
        <ele>160</ele>
        <time>2025-06-15T09:25:04Z</time>
      </trkpt>
      <trkpt lat="45.14338" lon="0.62856">
        <ele>158</ele>
        <time>2025-06-15T09:25:05Z</time>
      </trkpt>
      <trkpt lat="45.14345" lon="0.62865">
        <ele>156</ele>
        <time>2025-06-15T09:25:06Z</time>
      </trkpt>
      <trkpt lat="45.14353" lon="0.62875">
        <ele>154.4</ele>
        <time>2025-06-15T09:25:07Z</time>
      </trkpt>
      <trkpt lat="45.14359" lon="0.62885">
        <ele>153</ele>
        <time>2025-06-15T09:25:08Z</time>
      </trkpt>
      <trkpt lat="45.14366" lon="0.62896">
        <ele>151</ele>
        <time>2025-06-15T09:25:09Z</time>
      </trkpt>
      <trkpt lat="45.14373" lon="0.62906">
        <ele>150</ele>
        <time>2025-06-15T09:25:10Z</time>
      </trkpt>
      <trkpt lat="45.1438" lon="0.62916">
        <ele>149.4</ele>
        <time>2025-06-15T09:25:11Z</time>
      </trkpt>
      <trkpt lat="45.14386" lon="0.62925">
        <ele>149.4</ele>
        <time>2025-06-15T09:25:12Z</time>
      </trkpt>
      <trkpt lat="45.14393" lon="0.62935">
        <ele>149</ele>
        <time>2025-06-15T09:25:13Z</time>
      </trkpt>
      <trkpt lat="45.14399" lon="0.62944">
        <ele>148.8</ele>
        <time>2025-06-15T09:25:14Z</time>
      </trkpt>
      <trkpt lat="45.14406" lon="0.62953">
        <ele>148.8</ele>
        <time>2025-06-15T09:25:15Z</time>
      </trkpt>
      <trkpt lat="45.14413" lon="0.62961">
        <ele>148.6</ele>
        <time>2025-06-15T09:25:16Z</time>
      </trkpt>
      <trkpt lat="45.1442" lon="0.62969">
        <ele>148.6</ele>
        <time>2025-06-15T09:25:17Z</time>
      </trkpt>
      <trkpt lat="45.14427" lon="0.62977">
        <ele>148.2</ele>
        <time>2025-06-15T09:25:18Z</time>
      </trkpt>
      <trkpt lat="45.14434" lon="0.62986">
        <ele>147.8</ele>
        <time>2025-06-15T09:25:19Z</time>
      </trkpt>
      <trkpt lat="45.14441" lon="0.62994">
        <ele>147.4</ele>
        <time>2025-06-15T09:25:20Z</time>
      </trkpt>
      <trkpt lat="45.14448" lon="0.63001">
        <ele>146.8</ele>
        <time>2025-06-15T09:25:21Z</time>
      </trkpt>
      <trkpt lat="45.14455" lon="0.63009">
        <ele>146.2</ele>
        <time>2025-06-15T09:25:22Z</time>
      </trkpt>
      <trkpt lat="45.14462" lon="0.63018">
        <ele>146.2</ele>
        <time>2025-06-15T09:25:23Z</time>
      </trkpt>
      <trkpt lat="45.14468" lon="0.63026">
        <ele>146.2</ele>
        <time>2025-06-15T09:25:24Z</time>
      </trkpt>
      <trkpt lat="45.14475" lon="0.63035">
        <ele>146.2</ele>
        <time>2025-06-15T09:25:25Z</time>
      </trkpt>
      <trkpt lat="45.14482" lon="0.63043">
        <ele>146</ele>
        <time>2025-06-15T09:25:26Z</time>
      </trkpt>
      <trkpt lat="45.1449" lon="0.63052">
        <ele>145.8</ele>
        <time>2025-06-15T09:25:27Z</time>
      </trkpt>
      <trkpt lat="45.14497" lon="0.63062">
        <ele>145.8</ele>
        <time>2025-06-15T09:25:28Z</time>
      </trkpt>
      <trkpt lat="45.14505" lon="0.63071">
        <ele>145.6</ele>
        <time>2025-06-15T09:25:29Z</time>
      </trkpt>
      <trkpt lat="45.14513" lon="0.63081">
        <ele>145.4</ele>
        <time>2025-06-15T09:25:30Z</time>
      </trkpt>
      <trkpt lat="45.1452" lon="0.6309">
        <ele>145.6</ele>
        <time>2025-06-15T09:25:31Z</time>
      </trkpt>
      <trkpt lat="45.14527" lon="0.63099">
        <ele>145.6</ele>
        <time>2025-06-15T09:25:32Z</time>
      </trkpt>
      <trkpt lat="45.14534" lon="0.63107">
        <ele>145.6</ele>
        <time>2025-06-15T09:25:33Z</time>
      </trkpt>
      <trkpt lat="45.14542" lon="0.63113">
        <ele>145.6</ele>
        <time>2025-06-15T09:25:34Z</time>
      </trkpt>
      <trkpt lat="45.14551" lon="0.63117">
        <ele>145.6</ele>
        <time>2025-06-15T09:25:35Z</time>
      </trkpt>
      <trkpt lat="45.1456" lon="0.6312">
        <ele>145.6</ele>
        <time>2025-06-15T09:25:36Z</time>
      </trkpt>
      <trkpt lat="45.14569" lon="0.63123">
        <ele>145.6</ele>
        <time>2025-06-15T09:25:37Z</time>
      </trkpt>
      <trkpt lat="45.14577" lon="0.63128">
        <ele>145.6</ele>
        <time>2025-06-15T09:25:38Z</time>
      </trkpt>
      <trkpt lat="45.14585" lon="0.63134">
        <ele>145.4</ele>
        <time>2025-06-15T09:25:39Z</time>
      </trkpt>
      <trkpt lat="45.14594" lon="0.63141">
        <ele>145.2</ele>
        <time>2025-06-15T09:25:40Z</time>
      </trkpt>
      <trkpt lat="45.14602" lon="0.6315">
        <ele>145.2</ele>
        <time>2025-06-15T09:25:41Z</time>
      </trkpt>
      <trkpt lat="45.14609" lon="0.6316">
        <ele>145</ele>
        <time>2025-06-15T09:25:42Z</time>
      </trkpt>
      <trkpt lat="45.14617" lon="0.63169">
        <ele>145</ele>
        <time>2025-06-15T09:25:43Z</time>
      </trkpt>
      <trkpt lat="45.14624" lon="0.63176">
        <ele>145</ele>
        <time>2025-06-15T09:25:44Z</time>
      </trkpt>
      <trkpt lat="45.14629" lon="0.63183">
        <ele>145.2</ele>
        <time>2025-06-15T09:25:45Z</time>
      </trkpt>
      <trkpt lat="45.14633" lon="0.63191">
        <ele>145</ele>
        <time>2025-06-15T09:25:46Z</time>
      </trkpt>
      <trkpt lat="45.14634" lon="0.63198">
        <ele>145</ele>
        <time>2025-06-15T09:25:47Z</time>
      </trkpt>
      <trkpt lat="45.14634" lon="0.63205">
        <ele>144.8</ele>
        <time>2025-06-15T09:25:48Z</time>
      </trkpt>
      <trkpt lat="45.14633" lon="0.63211">
        <ele>144.8</ele>
        <time>2025-06-15T09:25:49Z</time>
      </trkpt>
      <trkpt lat="45.14632" lon="0.63216">
        <ele>144.8</ele>
        <time>2025-06-15T09:25:50Z</time>
      </trkpt>
      <trkpt lat="45.14633" lon="0.6322">
        <ele>144.6</ele>
        <time>2025-06-15T09:25:51Z</time>
      </trkpt>
      <trkpt lat="45.14635" lon="0.63223">
        <ele>144.8</ele>
        <time>2025-06-15T09:25:52Z</time>
      </trkpt>
      <trkpt lat="45.14637" lon="0.63226">
        <ele>144.8</ele>
        <time>2025-06-15T09:25:53Z</time>
      </trkpt>
      <trkpt lat="45.1464" lon="0.63226">
        <ele>144.6</ele>
        <time>2025-06-15T09:25:54Z</time>
      </trkpt>
      <trkpt lat="45.14643" lon="0.63226">
        <ele>144.6</ele>
        <time>2025-06-15T09:25:55Z</time>
      </trkpt>
      <trkpt lat="45.14646" lon="0.63226">
        <ele>144.6</ele>
        <time>2025-06-15T09:25:56Z</time>
      </trkpt>
      <trkpt lat="45.1465" lon="0.63226">
        <ele>144.6</ele>
        <time>2025-06-15T09:25:57Z</time>
      </trkpt>
      <trkpt lat="45.14653" lon="0.63226">
        <ele>144.4</ele>
        <time>2025-06-15T09:25:58Z</time>
      </trkpt>
      <trkpt lat="45.14657" lon="0.63227">
        <ele>144.4</ele>
        <time>2025-06-15T09:25:59Z</time>
      </trkpt>
      <trkpt lat="45.14661" lon="0.63228">
        <ele>144.4</ele>
        <time>2025-06-15T09:26:00Z</time>
      </trkpt>
      <trkpt lat="45.14665" lon="0.63229">
        <ele>144.2</ele>
        <time>2025-06-15T09:26:01Z</time>
      </trkpt>
      <trkpt lat="45.14669" lon="0.63231">
        <ele>144.2</ele>
        <time>2025-06-15T09:26:02Z</time>
      </trkpt>
      <trkpt lat="45.14674" lon="0.63232">
        <ele>144.2</ele>
        <time>2025-06-15T09:26:03Z</time>
      </trkpt>
      <trkpt lat="45.14679" lon="0.63234">
        <ele>144</ele>
        <time>2025-06-15T09:26:04Z</time>
      </trkpt>
      <trkpt lat="45.14684" lon="0.63236">
        <ele>144</ele>
        <time>2025-06-15T09:26:05Z</time>
      </trkpt>
      <trkpt lat="45.14689" lon="0.63238">
        <ele>143.8</ele>
        <time>2025-06-15T09:26:06Z</time>
      </trkpt>
      <trkpt lat="45.14694" lon="0.6324">
        <ele>143.8</ele>
        <time>2025-06-15T09:26:07Z</time>
      </trkpt>
      <trkpt lat="45.147" lon="0.63243">
        <ele>143.8</ele>
        <time>2025-06-15T09:26:08Z</time>
      </trkpt>
      <trkpt lat="45.14705" lon="0.63246">
        <ele>143.8</ele>
        <time>2025-06-15T09:26:09Z</time>
      </trkpt>
      <trkpt lat="45.1471" lon="0.63248">
        <ele>143.6</ele>
        <time>2025-06-15T09:26:10Z</time>
      </trkpt>
      <trkpt lat="45.14716" lon="0.63251">
        <ele>143.6</ele>
        <time>2025-06-15T09:26:11Z</time>
      </trkpt>
      <trkpt lat="45.14721" lon="0.63253">
        <ele>143.6</ele>
        <time>2025-06-15T09:26:12Z</time>
      </trkpt>
      <trkpt lat="45.14726" lon="0.63255">
        <ele>143.4</ele>
        <time>2025-06-15T09:26:13Z</time>
      </trkpt>
      <trkpt lat="45.14731" lon="0.63257">
        <ele>143.4</ele>
        <time>2025-06-15T09:26:14Z</time>
      </trkpt>
      <trkpt lat="45.14735" lon="0.63259">
        <ele>143.4</ele>
        <time>2025-06-15T09:26:15Z</time>
      </trkpt>
      <trkpt lat="45.1474" lon="0.6326">
        <ele>143.2</ele>
        <time>2025-06-15T09:26:16Z</time>
      </trkpt>
      <trkpt lat="45.14744" lon="0.63262">
        <ele>143</ele>
        <time>2025-06-15T09:26:17Z</time>
      </trkpt>
      <trkpt lat="45.14749" lon="0.63264">
        <ele>143</ele>
        <time>2025-06-15T09:26:18Z</time>
      </trkpt>
      <trkpt lat="45.14754" lon="0.63266">
        <ele>142.8</ele>
        <time>2025-06-15T09:26:19Z</time>
      </trkpt>
      <trkpt lat="45.14759" lon="0.63268">
        <ele>142.8</ele>
        <time>2025-06-15T09:26:20Z</time>
      </trkpt>
      <trkpt lat="45.14763" lon="0.6327">
        <ele>142.8</ele>
        <time>2025-06-15T09:26:21Z</time>
      </trkpt>
      <trkpt lat="45.14768" lon="0.63271">
        <ele>142.6</ele>
        <time>2025-06-15T09:26:22Z</time>
      </trkpt>
      <trkpt lat="45.14774" lon="0.63273">
        <ele>142.4</ele>
        <time>2025-06-15T09:26:23Z</time>
      </trkpt>
      <trkpt lat="45.14779" lon="0.63275">
        <ele>142.4</ele>
        <time>2025-06-15T09:26:24Z</time>
      </trkpt>
      <trkpt lat="45.14784" lon="0.63276">
        <ele>142.2</ele>
        <time>2025-06-15T09:26:25Z</time>
      </trkpt>
      <trkpt lat="45.14789" lon="0.63278">
        <ele>142.2</ele>
        <time>2025-06-15T09:26:26Z</time>
      </trkpt>
      <trkpt lat="45.14794" lon="0.6328">
        <ele>142.2</ele>
        <time>2025-06-15T09:26:27Z</time>
      </trkpt>
      <trkpt lat="45.14799" lon="0.63282">
        <ele>142</ele>
        <time>2025-06-15T09:26:28Z</time>
      </trkpt>
      <trkpt lat="45.14804" lon="0.63283">
        <ele>141.8</ele>
        <time>2025-06-15T09:26:29Z</time>
      </trkpt>
      <trkpt lat="45.1481" lon="0.63285">
        <ele>141.8</ele>
        <time>2025-06-15T09:26:30Z</time>
      </trkpt>
      <trkpt lat="45.14815" lon="0.63287">
        <ele>141.6</ele>
        <time>2025-06-15T09:26:31Z</time>
      </trkpt>
      <trkpt lat="45.14821" lon="0.63289">
        <ele>141.6</ele>
        <time>2025-06-15T09:26:32Z</time>
      </trkpt>
      <trkpt lat="45.14826" lon="0.6329">
        <ele>141.4</ele>
        <time>2025-06-15T09:26:33Z</time>
      </trkpt>
      <trkpt lat="45.14833" lon="0.63291">
        <ele>141.2</ele>
        <time>2025-06-15T09:26:34Z</time>
      </trkpt>
      <trkpt lat="45.1484" lon="0.63291">
        <ele>141.2</ele>
        <time>2025-06-15T09:26:35Z</time>
      </trkpt>
      <trkpt lat="45.14846" lon="0.63292">
        <ele>141</ele>
        <time>2025-06-15T09:26:36Z</time>
      </trkpt>
      <trkpt lat="45.14853" lon="0.63292">
        <ele>141</ele>
        <time>2025-06-15T09:26:37Z</time>
      </trkpt>
      <trkpt lat="45.14859" lon="0.63293">
        <ele>141</ele>
        <time>2025-06-15T09:26:38Z</time>
      </trkpt>
      <trkpt lat="45.14865" lon="0.63295">
        <ele>140.8</ele>
        <time>2025-06-15T09:26:39Z</time>
      </trkpt>
      <trkpt lat="45.14872" lon="0.63296">
        <ele>140.8</ele>
        <time>2025-06-15T09:26:40Z</time>
      </trkpt>
      <trkpt lat="45.14877" lon="0.63296">
        <ele>140.8</ele>
        <time>2025-06-15T09:26:41Z</time>
      </trkpt>
      <trkpt lat="45.14883" lon="0.63297">
        <ele>140.8</ele>
        <time>2025-06-15T09:26:42Z</time>
      </trkpt>
      <trkpt lat="45.14891" lon="0.633">
        <ele>140.8</ele>
        <time>2025-06-15T09:26:43Z</time>
      </trkpt>
      <trkpt lat="45.14898" lon="0.63303">
        <ele>140.8</ele>
        <time>2025-06-15T09:26:44Z</time>
      </trkpt>
      <trkpt lat="45.14906" lon="0.63307">
        <ele>140.8</ele>
        <time>2025-06-15T09:26:45Z</time>
      </trkpt>
      <trkpt lat="45.14914" lon="0.63311">
        <ele>140.6</ele>
        <time>2025-06-15T09:26:46Z</time>
      </trkpt>
      <trkpt lat="45.14922" lon="0.63314">
        <ele>140.6</ele>
        <time>2025-06-15T09:26:47Z</time>
      </trkpt>
      <trkpt lat="45.1493" lon="0.63319">
        <ele>140.4</ele>
        <time>2025-06-15T09:26:48Z</time>
      </trkpt>
      <trkpt lat="45.14937" lon="0.63324">
        <ele>140.4</ele>
        <time>2025-06-15T09:26:49Z</time>
      </trkpt>
      <trkpt lat="45.14944" lon="0.63329">
        <ele>140.2</ele>
        <time>2025-06-15T09:26:50Z</time>
      </trkpt>
      <trkpt lat="45.1495" lon="0.63335">
        <ele>140.2</ele>
        <time>2025-06-15T09:26:51Z</time>
      </trkpt>
      <trkpt lat="45.14956" lon="0.63341">
        <ele>140.2</ele>
        <time>2025-06-15T09:26:52Z</time>
      </trkpt>
      <trkpt lat="45.14962" lon="0.63347">
        <ele>140.2</ele>
        <time>2025-06-15T09:26:53Z</time>
      </trkpt>
      <trkpt lat="45.14967" lon="0.63353">
        <ele>140.2</ele>
        <time>2025-06-15T09:26:54Z</time>
      </trkpt>
      <trkpt lat="45.14972" lon="0.6336">
        <ele>140.2</ele>
        <time>2025-06-15T09:26:55Z</time>
      </trkpt>
      <trkpt lat="45.14976" lon="0.63366">
        <ele>140.2</ele>
        <time>2025-06-15T09:26:56Z</time>
      </trkpt>
      <trkpt lat="45.14981" lon="0.63373">
        <ele>140.2</ele>
        <time>2025-06-15T09:26:57Z</time>
      </trkpt>
      <trkpt lat="45.14987" lon="0.63381">
        <ele>140.2</ele>
        <time>2025-06-15T09:26:58Z</time>
      </trkpt>
      <trkpt lat="45.14992" lon="0.63388">
        <ele>140</ele>
        <time>2025-06-15T09:26:59Z</time>
      </trkpt>
      <trkpt lat="45.14998" lon="0.63395">
        <ele>140</ele>
        <time>2025-06-15T09:27:00Z</time>
      </trkpt>
      <trkpt lat="45.15004" lon="0.63402">
        <ele>140</ele>
        <time>2025-06-15T09:27:01Z</time>
      </trkpt>
      <trkpt lat="45.15009" lon="0.63409">
        <ele>140</ele>
        <time>2025-06-15T09:27:02Z</time>
      </trkpt>
      <trkpt lat="45.15015" lon="0.63416">
        <ele>140</ele>
        <time>2025-06-15T09:27:03Z</time>
      </trkpt>
      <trkpt lat="45.15022" lon="0.63422">
        <ele>140</ele>
        <time>2025-06-15T09:27:04Z</time>
      </trkpt>
      <trkpt lat="45.15028" lon="0.63428">
        <ele>139.8</ele>
        <time>2025-06-15T09:27:05Z</time>
      </trkpt>
      <trkpt lat="45.15035" lon="0.63434">
        <ele>140</ele>
        <time>2025-06-15T09:27:06Z</time>
      </trkpt>
      <trkpt lat="45.15041" lon="0.63439">
        <ele>140</ele>
        <time>2025-06-15T09:27:07Z</time>
      </trkpt>
      <trkpt lat="45.15048" lon="0.63443">
        <ele>139.8</ele>
        <time>2025-06-15T09:27:08Z</time>
      </trkpt>
      <trkpt lat="45.15055" lon="0.63447">
        <ele>139.8</ele>
        <time>2025-06-15T09:27:09Z</time>
      </trkpt>
      <trkpt lat="45.15062" lon="0.6345">
        <ele>139.6</ele>
        <time>2025-06-15T09:27:10Z</time>
      </trkpt>
      <trkpt lat="45.15069" lon="0.63453">
        <ele>139.6</ele>
        <time>2025-06-15T09:27:11Z</time>
      </trkpt>
      <trkpt lat="45.15076" lon="0.63456">
        <ele>139.4</ele>
        <time>2025-06-15T09:27:12Z</time>
      </trkpt>
      <trkpt lat="45.15083" lon="0.63459">
        <ele>139.4</ele>
        <time>2025-06-15T09:27:13Z</time>
      </trkpt>
      <trkpt lat="45.1509" lon="0.63462">
        <ele>139.2</ele>
        <time>2025-06-15T09:27:14Z</time>
      </trkpt>
      <trkpt lat="45.15098" lon="0.63466">
        <ele>139</ele>
        <time>2025-06-15T09:27:15Z</time>
      </trkpt>
      <trkpt lat="45.15105" lon="0.63469">
        <ele>138.8</ele>
        <time>2025-06-15T09:27:16Z</time>
      </trkpt>
      <trkpt lat="45.15112" lon="0.63472">
        <ele>138.6</ele>
        <time>2025-06-15T09:27:17Z</time>
      </trkpt>
      <trkpt lat="45.1512" lon="0.63475">
        <ele>138.2</ele>
        <time>2025-06-15T09:27:18Z</time>
      </trkpt>
      <trkpt lat="45.15127" lon="0.63479">
        <ele>138</ele>
        <time>2025-06-15T09:27:19Z</time>
      </trkpt>
      <trkpt lat="45.15134" lon="0.63482">
        <ele>137.8</ele>
        <time>2025-06-15T09:27:20Z</time>
      </trkpt>
      <trkpt lat="45.1514" lon="0.63487">
        <ele>137.6</ele>
        <time>2025-06-15T09:27:21Z</time>
      </trkpt>
      <trkpt lat="45.15146" lon="0.63492">
        <ele>137.6</ele>
        <time>2025-06-15T09:27:22Z</time>
      </trkpt>
      <trkpt lat="45.15152" lon="0.63498">
        <ele>137.6</ele>
        <time>2025-06-15T09:27:23Z</time>
      </trkpt>
      <trkpt lat="45.15157" lon="0.63504">
        <ele>137.4</ele>
        <time>2025-06-15T09:27:24Z</time>
      </trkpt>
      <trkpt lat="45.15163" lon="0.6351">
        <ele>137.2</ele>
        <time>2025-06-15T09:27:25Z</time>
      </trkpt>
      <trkpt lat="45.15168" lon="0.63516">
        <ele>137.2</ele>
        <time>2025-06-15T09:27:26Z</time>
      </trkpt>
      <trkpt lat="45.15173" lon="0.63521">
        <ele>137.2</ele>
        <time>2025-06-15T09:27:27Z</time>
      </trkpt>
      <trkpt lat="45.15178" lon="0.63527">
        <ele>137.2</ele>
        <time>2025-06-15T09:27:28Z</time>
      </trkpt>
      <trkpt lat="45.15183" lon="0.63532">
        <ele>137</ele>
        <time>2025-06-15T09:27:29Z</time>
      </trkpt>
      <trkpt lat="45.15188" lon="0.63538">
        <ele>137</ele>
        <time>2025-06-15T09:27:30Z</time>
      </trkpt>
      <trkpt lat="45.15193" lon="0.63542">
        <ele>137</ele>
        <time>2025-06-15T09:27:31Z</time>
      </trkpt>
      <trkpt lat="45.15197" lon="0.63546">
        <ele>137</ele>
        <time>2025-06-15T09:27:32Z</time>
      </trkpt>
      <trkpt lat="45.152" lon="0.63549">
        <ele>137</ele>
        <time>2025-06-15T09:27:33Z</time>
      </trkpt>
      <trkpt lat="45.15203" lon="0.63552">
        <ele>136.8</ele>
        <time>2025-06-15T09:27:34Z</time>
      </trkpt>
      <trkpt lat="45.15204" lon="0.63554">
        <ele>136.8</ele>
        <time>2025-06-15T09:27:35Z</time>
      </trkpt>
      <trkpt lat="45.15206" lon="0.63557">
        <ele>136.8</ele>
        <time>2025-06-15T09:27:36Z</time>
      </trkpt>
      <trkpt lat="45.15209" lon="0.63559">
        <ele>136.8</ele>
        <time>2025-06-15T09:27:37Z</time>
      </trkpt>
      <trkpt lat="45.15212" lon="0.63563">
        <ele>136.8</ele>
        <time>2025-06-15T09:27:38Z</time>
      </trkpt>
      <trkpt lat="45.15215" lon="0.63566">
        <ele>137</ele>
        <time>2025-06-15T09:27:39Z</time>
      </trkpt>
      <trkpt lat="45.15218" lon="0.63569">
        <ele>136.8</ele>
        <time>2025-06-15T09:27:40Z</time>
      </trkpt>
      <trkpt lat="45.15221" lon="0.6357">
        <ele>136.8</ele>
        <time>2025-06-15T09:27:41Z</time>
      </trkpt>
      <trkpt lat="45.15223" lon="0.63572">
        <ele>136.8</ele>
        <time>2025-06-15T09:27:42Z</time>
      </trkpt>
      <trkpt lat="45.15226" lon="0.63574">
        <ele>136.6</ele>
        <time>2025-06-15T09:27:43Z</time>
      </trkpt>
      <trkpt lat="45.15228" lon="0.63576">
        <ele>136.6</ele>
        <time>2025-06-15T09:27:44Z</time>
      </trkpt>
      <trkpt lat="45.1523" lon="0.63579">
        <ele>136.6</ele>
        <time>2025-06-15T09:27:45Z</time>
      </trkpt>
      <trkpt lat="45.15232" lon="0.63581">
        <ele>136.4</ele>
        <time>2025-06-15T09:27:46Z</time>
      </trkpt>
      <trkpt lat="45.15234" lon="0.63583">
        <ele>136.4</ele>
        <time>2025-06-15T09:27:47Z</time>
      </trkpt>
      <trkpt lat="45.15235" lon="0.63585">
        <ele>136.4</ele>
        <time>2025-06-15T09:27:48Z</time>
      </trkpt>
      <trkpt lat="45.15237" lon="0.63587">
        <ele>136.4</ele>
        <time>2025-06-15T09:27:49Z</time>
      </trkpt>
      <trkpt lat="45.15238" lon="0.63589">
        <ele>136.4</ele>
        <time>2025-06-15T09:27:50Z</time>
      </trkpt>
      <trkpt lat="45.1524" lon="0.6359">
        <ele>136.6</ele>
        <time>2025-06-15T09:27:51Z</time>
      </trkpt>
      <trkpt lat="45.15241" lon="0.63592">
        <ele>136.6</ele>
        <time>2025-06-15T09:27:52Z</time>
      </trkpt>
      <trkpt lat="45.15243" lon="0.63593">
        <ele>136.6</ele>
        <time>2025-06-15T09:27:53Z</time>
      </trkpt>
      <trkpt lat="45.15244" lon="0.63595">
        <ele>136.6</ele>
        <time>2025-06-15T09:27:54Z</time>
      </trkpt>
      <trkpt lat="45.15245" lon="0.63596">
        <ele>136.6</ele>
        <time>2025-06-15T09:27:55Z</time>
      </trkpt>
      <trkpt lat="45.15246" lon="0.63597">
        <ele>136.6</ele>
        <time>2025-06-15T09:27:56Z</time>
      </trkpt>
      <trkpt lat="45.15247" lon="0.63598">
        <ele>136.6</ele>
        <time>2025-06-15T09:27:57Z</time>
      </trkpt>
      <trkpt lat="45.15249" lon="0.63599">
        <ele>136.4</ele>
        <time>2025-06-15T09:27:58Z</time>
      </trkpt>
      <trkpt lat="45.1525" lon="0.636">
        <ele>136.4</ele>
        <time>2025-06-15T09:27:59Z</time>
      </trkpt>
      <trkpt lat="45.15251" lon="0.63601">
        <ele>136.4</ele>
        <time>2025-06-15T09:28:00Z</time>
      </trkpt>
      <trkpt lat="45.15252" lon="0.63602">
        <ele>136.4</ele>
        <time>2025-06-15T09:28:01Z</time>
      </trkpt>
      <trkpt lat="45.15253" lon="0.63603">
        <ele>136.2</ele>
        <time>2025-06-15T09:28:02Z</time>
      </trkpt>
      <trkpt lat="45.15254" lon="0.63605">
        <ele>136.2</ele>
        <time>2025-06-15T09:28:03Z</time>
      </trkpt>
      <trkpt lat="45.15255" lon="0.63606">
        <ele>136.2</ele>
        <time>2025-06-15T09:28:04Z</time>
      </trkpt>
      <trkpt lat="45.15256" lon="0.63607">
        <ele>136.2</ele>
        <time>2025-06-15T09:28:05Z</time>
      </trkpt>
      <trkpt lat="45.15258" lon="0.63608">
        <ele>136.2</ele>
        <time>2025-06-15T09:28:06Z</time>
      </trkpt>
      <trkpt lat="45.15259" lon="0.63609">
        <ele>136.2</ele>
        <time>2025-06-15T09:28:07Z</time>
      </trkpt>
      <trkpt lat="45.1526" lon="0.63609">
        <ele>136.2</ele>
        <time>2025-06-15T09:28:08Z</time>
      </trkpt>
      <trkpt lat="45.15261" lon="0.6361">
        <ele>136.2</ele>
        <time>2025-06-15T09:28:09Z</time>
      </trkpt>
      <trkpt lat="45.15262" lon="0.63611">
        <ele>136.2</ele>
        <time>2025-06-15T09:28:10Z</time>
      </trkpt>
      <trkpt lat="45.15263" lon="0.63613">
        <ele>136.2</ele>
        <time>2025-06-15T09:28:11Z</time>
      </trkpt>
      <trkpt lat="45.15264" lon="0.63614">
        <ele>136.2</ele>
        <time>2025-06-15T09:28:12Z</time>
      </trkpt>
      <trkpt lat="45.15266" lon="0.63616">
        <ele>136</ele>
        <time>2025-06-15T09:28:13Z</time>
      </trkpt>
      <trkpt lat="45.15267" lon="0.63616">
        <ele>136</ele>
        <time>2025-06-15T09:28:14Z</time>
      </trkpt>
      <trkpt lat="45.15268" lon="0.63617">
        <ele>136</ele>
        <time>2025-06-15T09:28:15Z</time>
      </trkpt>
      <trkpt lat="45.1527" lon="0.63618">
        <ele>136</ele>
        <time>2025-06-15T09:28:16Z</time>
      </trkpt>
      <trkpt lat="45.15271" lon="0.63619">
        <ele>135.8</ele>
        <time>2025-06-15T09:28:17Z</time>
      </trkpt>
      <trkpt lat="45.15273" lon="0.6362">
        <ele>135.8</ele>
        <time>2025-06-15T09:28:18Z</time>
      </trkpt>
      <trkpt lat="45.15274" lon="0.63622">
        <ele>135.8</ele>
        <time>2025-06-15T09:28:19Z</time>
      </trkpt>
      <trkpt lat="45.15275" lon="0.63623">
        <ele>135.8</ele>
        <time>2025-06-15T09:28:20Z</time>
      </trkpt>
      <trkpt lat="45.15277" lon="0.63624">
        <ele>135.8</ele>
        <time>2025-06-15T09:28:21Z</time>
      </trkpt>
      <trkpt lat="45.15278" lon="0.63625">
        <ele>135.8</ele>
        <time>2025-06-15T09:28:22Z</time>
      </trkpt>
      <trkpt lat="45.15279" lon="0.63626">
        <ele>135.8</ele>
        <time>2025-06-15T09:28:23Z</time>
      </trkpt>
      <trkpt lat="45.15281" lon="0.63627">
        <ele>135.8</ele>
        <time>2025-06-15T09:28:24Z</time>
      </trkpt>
      <trkpt lat="45.15282" lon="0.63629">
        <ele>135.8</ele>
        <time>2025-06-15T09:28:25Z</time>
      </trkpt>
      <trkpt lat="45.15283" lon="0.6363">
        <ele>135.8</ele>
        <time>2025-06-15T09:28:26Z</time>
      </trkpt>
      <trkpt lat="45.15284" lon="0.63632">
        <ele>135.6</ele>
        <time>2025-06-15T09:28:27Z</time>
      </trkpt>
      <trkpt lat="45.15285" lon="0.63633">
        <ele>135.4</ele>
        <time>2025-06-15T09:28:28Z</time>
      </trkpt>
      <trkpt lat="45.15287" lon="0.63634">
        <ele>135.2</ele>
        <time>2025-06-15T09:28:29Z</time>
      </trkpt>
      <trkpt lat="45.15288" lon="0.63634">
        <ele>135.2</ele>
        <time>2025-06-15T09:28:30Z</time>
      </trkpt>
      <trkpt lat="45.15289" lon="0.63635">
        <ele>135.2</ele>
        <time>2025-06-15T09:28:31Z</time>
      </trkpt>
      <trkpt lat="45.1529" lon="0.63636">
        <ele>135</ele>
        <time>2025-06-15T09:28:32Z</time>
      </trkpt>
      <trkpt lat="45.15292" lon="0.63637">
        <ele>134.8</ele>
        <time>2025-06-15T09:28:33Z</time>
      </trkpt>
      <trkpt lat="45.15293" lon="0.63638">
        <ele>134.8</ele>
        <time>2025-06-15T09:28:34Z</time>
      </trkpt>
      <trkpt lat="45.15294" lon="0.63639">
        <ele>134.8</ele>
        <time>2025-06-15T09:28:35Z</time>
      </trkpt>
      <trkpt lat="45.15295" lon="0.6364">
        <ele>134.8</ele>
        <time>2025-06-15T09:28:36Z</time>
      </trkpt>
      <trkpt lat="45.15296" lon="0.63641">
        <ele>134.6</ele>
        <time>2025-06-15T09:28:37Z</time>
      </trkpt>
      <trkpt lat="45.15297" lon="0.63642">
        <ele>134.6</ele>
        <time>2025-06-15T09:28:38Z</time>
      </trkpt>
      <trkpt lat="45.15298" lon="0.63643">
        <ele>134.4</ele>
        <time>2025-06-15T09:28:39Z</time>
      </trkpt>
      <trkpt lat="45.153" lon="0.63645">
        <ele>134.4</ele>
        <time>2025-06-15T09:28:40Z</time>
      </trkpt>
      <trkpt lat="45.15301" lon="0.63646">
        <ele>134.4</ele>
        <time>2025-06-15T09:28:41Z</time>
      </trkpt>
      <trkpt lat="45.15302" lon="0.63647">
        <ele>134.4</ele>
        <time>2025-06-15T09:28:42Z</time>
      </trkpt>
      <trkpt lat="45.15303" lon="0.63648">
        <ele>134.2</ele>
        <time>2025-06-15T09:28:43Z</time>
      </trkpt>
      <trkpt lat="45.15304" lon="0.63649">
        <ele>134.2</ele>
        <time>2025-06-15T09:28:44Z</time>
      </trkpt>
      <trkpt lat="45.15306" lon="0.6365">
        <ele>134</ele>
        <time>2025-06-15T09:28:45Z</time>
      </trkpt>
      <trkpt lat="45.15307" lon="0.63651">
        <ele>133.8</ele>
        <time>2025-06-15T09:28:46Z</time>
      </trkpt>
      <trkpt lat="45.15308" lon="0.63652">
        <ele>133.6</ele>
        <time>2025-06-15T09:28:47Z</time>
      </trkpt>
      <trkpt lat="45.15309" lon="0.63653">
        <ele>133.6</ele>
        <time>2025-06-15T09:28:48Z</time>
      </trkpt>
      <trkpt lat="45.1531" lon="0.63654">
        <ele>133.6</ele>
        <time>2025-06-15T09:28:49Z</time>
      </trkpt>
      <trkpt lat="45.15311" lon="0.63655">
        <ele>133.4</ele>
        <time>2025-06-15T09:28:50Z</time>
      </trkpt>
      <trkpt lat="45.15312" lon="0.63656">
        <ele>133.2</ele>
        <time>2025-06-15T09:28:51Z</time>
      </trkpt>
      <trkpt lat="45.15313" lon="0.63657">
        <ele>133.2</ele>
        <time>2025-06-15T09:28:52Z</time>
      </trkpt>
      <trkpt lat="45.15315" lon="0.63657">
        <ele>133.2</ele>
        <time>2025-06-15T09:28:53Z</time>
      </trkpt>
      <trkpt lat="45.15316" lon="0.63658">
        <ele>133.2</ele>
        <time>2025-06-15T09:28:54Z</time>
      </trkpt>
      <trkpt lat="45.15317" lon="0.63659">
        <ele>133</ele>
        <time>2025-06-15T09:28:55Z</time>
      </trkpt>
      <trkpt lat="45.15319" lon="0.6366">
        <ele>132.8</ele>
        <time>2025-06-15T09:28:56Z</time>
      </trkpt>
      <trkpt lat="45.1532" lon="0.63662">
        <ele>132.8</ele>
        <time>2025-06-15T09:28:57Z</time>
      </trkpt>
      <trkpt lat="45.15321" lon="0.63663">
        <ele>132.6</ele>
        <time>2025-06-15T09:28:58Z</time>
      </trkpt>
      <trkpt lat="45.15322" lon="0.63664">
        <ele>132.6</ele>
        <time>2025-06-15T09:28:59Z</time>
      </trkpt>
      <trkpt lat="45.15323" lon="0.63665">
        <ele>132.6</ele>
        <time>2025-06-15T09:29:00Z</time>
      </trkpt>
      <trkpt lat="45.15324" lon="0.63666">
        <ele>132.4</ele>
        <time>2025-06-15T09:29:01Z</time>
      </trkpt>
      <trkpt lat="45.15326" lon="0.63667">
        <ele>132.2</ele>
        <time>2025-06-15T09:29:02Z</time>
      </trkpt>
      <trkpt lat="45.15327" lon="0.63668">
        <ele>132.2</ele>
        <time>2025-06-15T09:29:03Z</time>
      </trkpt>
      <trkpt lat="45.15328" lon="0.63669">
        <ele>132</ele>
        <time>2025-06-15T09:29:04Z</time>
      </trkpt>
      <trkpt lat="45.15329" lon="0.6367">
        <ele>132</ele>
        <time>2025-06-15T09:29:05Z</time>
      </trkpt>
      <trkpt lat="45.1533" lon="0.63671">
        <ele>132</ele>
        <time>2025-06-15T09:29:06Z</time>
      </trkpt>
      <trkpt lat="45.15331" lon="0.63672">
        <ele>131.8</ele>
        <time>2025-06-15T09:29:07Z</time>
      </trkpt>
      <trkpt lat="45.15332" lon="0.63673">
        <ele>131.8</ele>
        <time>2025-06-15T09:29:08Z</time>
      </trkpt>
      <trkpt lat="45.15334" lon="0.63675">
        <ele>131.6</ele>
        <time>2025-06-15T09:29:09Z</time>
      </trkpt>
      <trkpt lat="45.15335" lon="0.63676">
        <ele>131.6</ele>
        <time>2025-06-15T09:29:10Z</time>
      </trkpt>
      <trkpt lat="45.15336" lon="0.63677">
        <ele>131.4</ele>
        <time>2025-06-15T09:29:11Z</time>
      </trkpt>
      <trkpt lat="45.15337" lon="0.63678">
        <ele>131.4</ele>
        <time>2025-06-15T09:29:12Z</time>
      </trkpt>
      <trkpt lat="45.15338" lon="0.6368">
        <ele>131.2</ele>
        <time>2025-06-15T09:29:13Z</time>
      </trkpt>
      <trkpt lat="45.1534" lon="0.63681">
        <ele>131</ele>
        <time>2025-06-15T09:29:14Z</time>
      </trkpt>
      <trkpt lat="45.15341" lon="0.63682">
        <ele>131</ele>
        <time>2025-06-15T09:29:15Z</time>
      </trkpt>
      <trkpt lat="45.15342" lon="0.63683">
        <ele>130.8</ele>
        <time>2025-06-15T09:29:16Z</time>
      </trkpt>
      <trkpt lat="45.15343" lon="0.63685">
        <ele>130.8</ele>
        <time>2025-06-15T09:29:17Z</time>
      </trkpt>
      <trkpt lat="45.15344" lon="0.63686">
        <ele>130.4</ele>
        <time>2025-06-15T09:29:18Z</time>
      </trkpt>
      <trkpt lat="45.15345" lon="0.63687">
        <ele>130.4</ele>
        <time>2025-06-15T09:29:19Z</time>
      </trkpt>
      <trkpt lat="45.15346" lon="0.63688">
        <ele>130.2</ele>
        <time>2025-06-15T09:29:20Z</time>
      </trkpt>
      <trkpt lat="45.15347" lon="0.63689">
        <ele>130</ele>
        <time>2025-06-15T09:29:21Z</time>
      </trkpt>
      <trkpt lat="45.15348" lon="0.6369">
        <ele>130</ele>
        <time>2025-06-15T09:29:22Z</time>
      </trkpt>
      <trkpt lat="45.15349" lon="0.63691">
        <ele>129.8</ele>
        <time>2025-06-15T09:29:23Z</time>
      </trkpt>
      <trkpt lat="45.1535" lon="0.63692">
        <ele>129.8</ele>
        <time>2025-06-15T09:29:24Z</time>
      </trkpt>
      <trkpt lat="45.15351" lon="0.63693">
        <ele>129.6</ele>
        <time>2025-06-15T09:29:25Z</time>
      </trkpt>
      <trkpt lat="45.15352" lon="0.63694">
        <ele>129.6</ele>
        <time>2025-06-15T09:29:26Z</time>
      </trkpt>
      <trkpt lat="45.15354" lon="0.63695">
        <ele>129.6</ele>
        <time>2025-06-15T09:29:27Z</time>
      </trkpt>
      <trkpt lat="45.15355" lon="0.63697">
        <ele>129.4</ele>
        <time>2025-06-15T09:29:28Z</time>
      </trkpt>
      <trkpt lat="45.15356" lon="0.63698">
        <ele>129.4</ele>
        <time>2025-06-15T09:29:29Z</time>
      </trkpt>
      <trkpt lat="45.15358" lon="0.63699">
        <ele>129.2</ele>
        <time>2025-06-15T09:29:30Z</time>
      </trkpt>
      <trkpt lat="45.15359" lon="0.63701">
        <ele>129</ele>
        <time>2025-06-15T09:29:31Z</time>
      </trkpt>
      <trkpt lat="45.1536" lon="0.63702">
        <ele>129</ele>
        <time>2025-06-15T09:29:32Z</time>
      </trkpt>
      <trkpt lat="45.15362" lon="0.63704">
        <ele>128.8</ele>
        <time>2025-06-15T09:29:33Z</time>
      </trkpt>
      <trkpt lat="45.15363" lon="0.63705">
        <ele>128.6</ele>
        <time>2025-06-15T09:29:34Z</time>
      </trkpt>
      <trkpt lat="45.15364" lon="0.63706">
        <ele>128.4</ele>
        <time>2025-06-15T09:29:35Z</time>
      </trkpt>
      <trkpt lat="45.15365" lon="0.63708">
        <ele>128.4</ele>
        <time>2025-06-15T09:29:36Z</time>
      </trkpt>
      <trkpt lat="45.15366" lon="0.6371">
        <ele>128.2</ele>
        <time>2025-06-15T09:29:37Z</time>
      </trkpt>
      <trkpt lat="45.15367" lon="0.63712">
        <ele>128.2</ele>
        <time>2025-06-15T09:29:38Z</time>
      </trkpt>
      <trkpt lat="45.15367" lon="0.63714">
        <ele>128</ele>
        <time>2025-06-15T09:29:39Z</time>
      </trkpt>
      <trkpt lat="45.15367" lon="0.63717">
        <ele>128</ele>
        <time>2025-06-15T09:29:40Z</time>
      </trkpt>
      <trkpt lat="45.15367" lon="0.63719">
        <ele>127.8</ele>
        <time>2025-06-15T09:29:41Z</time>
      </trkpt>
      <trkpt lat="45.15366" lon="0.63722">
        <ele>127.6</ele>
        <time>2025-06-15T09:29:42Z</time>
      </trkpt>
      <trkpt lat="45.15366" lon="0.63725">
        <ele>127.6</ele>
        <time>2025-06-15T09:29:43Z</time>
      </trkpt>
      <trkpt lat="45.15365" lon="0.63728">
        <ele>127.4</ele>
        <time>2025-06-15T09:29:44Z</time>
      </trkpt>
      <trkpt lat="45.15363" lon="0.6373">
        <ele>127.2</ele>
        <time>2025-06-15T09:29:45Z</time>
      </trkpt>
      <trkpt lat="45.15362" lon="0.63733">
        <ele>127</ele>
        <time>2025-06-15T09:29:46Z</time>
      </trkpt>
      <trkpt lat="45.1536" lon="0.63736">
        <ele>126.8</ele>
        <time>2025-06-15T09:29:47Z</time>
      </trkpt>
      <trkpt lat="45.15359" lon="0.63739">
        <ele>126.8</ele>
        <time>2025-06-15T09:29:48Z</time>
      </trkpt>
      <trkpt lat="45.15357" lon="0.63742">
        <ele>126.6</ele>
        <time>2025-06-15T09:29:49Z</time>
      </trkpt>
      <trkpt lat="45.15356" lon="0.63745">
        <ele>126.4</ele>
        <time>2025-06-15T09:29:50Z</time>
      </trkpt>
      <trkpt lat="45.15355" lon="0.63748">
        <ele>126.2</ele>
        <time>2025-06-15T09:29:51Z</time>
      </trkpt>
      <trkpt lat="45.15353" lon="0.63752">
        <ele>126</ele>
        <time>2025-06-15T09:29:52Z</time>
      </trkpt>
      <trkpt lat="45.15351" lon="0.63755">
        <ele>126</ele>
        <time>2025-06-15T09:29:53Z</time>
      </trkpt>
      <trkpt lat="45.1535" lon="0.63759">
        <ele>125.8</ele>
        <time>2025-06-15T09:29:54Z</time>
      </trkpt>
      <trkpt lat="45.15349" lon="0.63762">
        <ele>125.8</ele>
        <time>2025-06-15T09:29:55Z</time>
      </trkpt>
      <trkpt lat="45.15347" lon="0.63766">
        <ele>125.6</ele>
        <time>2025-06-15T09:29:56Z</time>
      </trkpt>
      <trkpt lat="45.15346" lon="0.63769">
        <ele>125.6</ele>
        <time>2025-06-15T09:29:57Z</time>
      </trkpt>
      <trkpt lat="45.15344" lon="0.63772">
        <ele>125.4</ele>
        <time>2025-06-15T09:29:58Z</time>
      </trkpt>
      <trkpt lat="45.15342" lon="0.63776">
        <ele>125.4</ele>
        <time>2025-06-15T09:29:59Z</time>
      </trkpt>
      <trkpt lat="45.1534" lon="0.6378">
        <ele>125.2</ele>
        <time>2025-06-15T09:30:00Z</time>
      </trkpt>
      <trkpt lat="45.15339" lon="0.63783">
        <ele>125.2</ele>
        <time>2025-06-15T09:30:01Z</time>
      </trkpt>
      <trkpt lat="45.15337" lon="0.63787">
        <ele>125</ele>
        <time>2025-06-15T09:30:02Z</time>
      </trkpt>
      <trkpt lat="45.15336" lon="0.63791">
        <ele>125</ele>
        <time>2025-06-15T09:30:03Z</time>
      </trkpt>
      <trkpt lat="45.15334" lon="0.63794">
        <ele>124.8</ele>
        <time>2025-06-15T09:30:04Z</time>
      </trkpt>
      <trkpt lat="45.15332" lon="0.63798">
        <ele>124.8</ele>
        <time>2025-06-15T09:30:05Z</time>
      </trkpt>
      <trkpt lat="45.15331" lon="0.63802">
        <ele>124.6</ele>
        <time>2025-06-15T09:30:06Z</time>
      </trkpt>
      <trkpt lat="45.15329" lon="0.63805">
        <ele>124.6</ele>
        <time>2025-06-15T09:30:07Z</time>
      </trkpt>
      <trkpt lat="45.15328" lon="0.63809">
        <ele>124.6</ele>
        <time>2025-06-15T09:30:08Z</time>
      </trkpt>
      <trkpt lat="45.15326" lon="0.63813">
        <ele>124.4</ele>
        <time>2025-06-15T09:30:09Z</time>
      </trkpt>
      <trkpt lat="45.15324" lon="0.63816">
        <ele>124.4</ele>
        <time>2025-06-15T09:30:10Z</time>
      </trkpt>
      <trkpt lat="45.15323" lon="0.63819">
        <ele>124.4</ele>
        <time>2025-06-15T09:30:11Z</time>
      </trkpt>
      <trkpt lat="45.15322" lon="0.63823">
        <ele>124.2</ele>
        <time>2025-06-15T09:30:12Z</time>
      </trkpt>
      <trkpt lat="45.1532" lon="0.63827">
        <ele>124.2</ele>
        <time>2025-06-15T09:30:13Z</time>
      </trkpt>
      <trkpt lat="45.15319" lon="0.63831">
        <ele>124</ele>
        <time>2025-06-15T09:30:14Z</time>
      </trkpt>
      <trkpt lat="45.15317" lon="0.63835">
        <ele>124</ele>
        <time>2025-06-15T09:30:15Z</time>
      </trkpt>
      <trkpt lat="45.15315" lon="0.63839">
        <ele>123.8</ele>
        <time>2025-06-15T09:30:16Z</time>
      </trkpt>
      <trkpt lat="45.15313" lon="0.63842">
        <ele>123.8</ele>
        <time>2025-06-15T09:30:17Z</time>
      </trkpt>
      <trkpt lat="45.15311" lon="0.63846">
        <ele>123.6</ele>
        <time>2025-06-15T09:30:18Z</time>
      </trkpt>
      <trkpt lat="45.15309" lon="0.6385">
        <ele>123.6</ele>
        <time>2025-06-15T09:30:19Z</time>
      </trkpt>
      <trkpt lat="45.15308" lon="0.63854">
        <ele>123.4</ele>
        <time>2025-06-15T09:30:20Z</time>
      </trkpt>
      <trkpt lat="45.15306" lon="0.63858">
        <ele>123.4</ele>
        <time>2025-06-15T09:30:21Z</time>
      </trkpt>
      <trkpt lat="45.15304" lon="0.63862">
        <ele>123.4</ele>
        <time>2025-06-15T09:30:22Z</time>
      </trkpt>
      <trkpt lat="45.15302" lon="0.63867">
        <ele>123.2</ele>
        <time>2025-06-15T09:30:23Z</time>
      </trkpt>
      <trkpt lat="45.15301" lon="0.63872">
        <ele>123.2</ele>
        <time>2025-06-15T09:30:24Z</time>
      </trkpt>
      <trkpt lat="45.15299" lon="0.63876">
        <ele>123</ele>
        <time>2025-06-15T09:30:25Z</time>
      </trkpt>
      <trkpt lat="45.15297" lon="0.6388">
        <ele>123</ele>
        <time>2025-06-15T09:30:26Z</time>
      </trkpt>
      <trkpt lat="45.15296" lon="0.63885">
        <ele>123</ele>
        <time>2025-06-15T09:30:27Z</time>
      </trkpt>
      <trkpt lat="45.15294" lon="0.6389">
        <ele>122.8</ele>
        <time>2025-06-15T09:30:28Z</time>
      </trkpt>
      <trkpt lat="45.15292" lon="0.63895">
        <ele>122.6</ele>
        <time>2025-06-15T09:30:29Z</time>
      </trkpt>
      <trkpt lat="45.15291" lon="0.639">
        <ele>122.4</ele>
        <time>2025-06-15T09:30:30Z</time>
      </trkpt>
      <trkpt lat="45.15289" lon="0.63905">
        <ele>122.4</ele>
        <time>2025-06-15T09:30:31Z</time>
      </trkpt>
      <trkpt lat="45.15288" lon="0.63909">
        <ele>122.2</ele>
        <time>2025-06-15T09:30:32Z</time>
      </trkpt>
      <trkpt lat="45.15286" lon="0.63914">
        <ele>122.2</ele>
        <time>2025-06-15T09:30:33Z</time>
      </trkpt>
      <trkpt lat="45.15284" lon="0.63918">
        <ele>122.2</ele>
        <time>2025-06-15T09:30:34Z</time>
      </trkpt>
      <trkpt lat="45.15281" lon="0.63922">
        <ele>122</ele>
        <time>2025-06-15T09:30:35Z</time>
      </trkpt>
      <trkpt lat="45.15278" lon="0.63926">
        <ele>122</ele>
        <time>2025-06-15T09:30:36Z</time>
      </trkpt>
      <trkpt lat="45.15274" lon="0.6393">
        <ele>122</ele>
        <time>2025-06-15T09:30:37Z</time>
      </trkpt>
      <trkpt lat="45.1527" lon="0.63932">
        <ele>121.8</ele>
        <time>2025-06-15T09:30:38Z</time>
      </trkpt>
      <trkpt lat="45.15266" lon="0.63934">
        <ele>121.8</ele>
        <time>2025-06-15T09:30:39Z</time>
      </trkpt>
      <trkpt lat="45.15261" lon="0.63934">
        <ele>121.8</ele>
        <time>2025-06-15T09:30:40Z</time>
      </trkpt>
      <trkpt lat="45.15256" lon="0.63936">
        <ele>121.6</ele>
        <time>2025-06-15T09:30:41Z</time>
      </trkpt>
      <trkpt lat="45.1525" lon="0.63937">
        <ele>121.4</ele>
        <time>2025-06-15T09:30:42Z</time>
      </trkpt>
      <trkpt lat="45.15244" lon="0.63937">
        <ele>121.4</ele>
        <time>2025-06-15T09:30:43Z</time>
      </trkpt>
      <trkpt lat="45.15238" lon="0.63936">
        <ele>121.4</ele>
        <time>2025-06-15T09:30:44Z</time>
      </trkpt>
      <trkpt lat="45.1523" lon="0.63936">
        <ele>121.4</ele>
        <time>2025-06-15T09:30:45Z</time>
      </trkpt>
      <trkpt lat="45.15223" lon="0.63935">
        <ele>121.2</ele>
        <time>2025-06-15T09:30:46Z</time>
      </trkpt>
      <trkpt lat="45.15216" lon="0.63934">
        <ele>121.4</ele>
        <time>2025-06-15T09:30:47Z</time>
      </trkpt>
      <trkpt lat="45.15209" lon="0.63934">
        <ele>121.2</ele>
        <time>2025-06-15T09:30:48Z</time>
      </trkpt>
      <trkpt lat="45.15202" lon="0.63934">
        <ele>121.2</ele>
        <time>2025-06-15T09:30:49Z</time>
      </trkpt>
      <trkpt lat="45.15196" lon="0.63933">
        <ele>121.2</ele>
        <time>2025-06-15T09:30:50Z</time>
      </trkpt>
      <trkpt lat="45.1519" lon="0.63933">
        <ele>121</ele>
        <time>2025-06-15T09:30:51Z</time>
      </trkpt>
      <trkpt lat="45.15184" lon="0.63933">
        <ele>121</ele>
        <time>2025-06-15T09:30:52Z</time>
      </trkpt>
      <trkpt lat="45.15178" lon="0.63933">
        <ele>120.8</ele>
        <time>2025-06-15T09:30:53Z</time>
      </trkpt>
      <trkpt lat="45.15172" lon="0.63933">
        <ele>120.8</ele>
        <time>2025-06-15T09:30:54Z</time>
      </trkpt>
      <trkpt lat="45.15165" lon="0.63933">
        <ele>120.6</ele>
        <time>2025-06-15T09:30:55Z</time>
      </trkpt>
      <trkpt lat="45.15159" lon="0.63933">
        <ele>120.6</ele>
        <time>2025-06-15T09:30:56Z</time>
      </trkpt>
      <trkpt lat="45.15152" lon="0.63933">
        <ele>120.6</ele>
        <time>2025-06-15T09:30:57Z</time>
      </trkpt>
      <trkpt lat="45.15145" lon="0.63933">
        <ele>120.4</ele>
        <time>2025-06-15T09:30:58Z</time>
      </trkpt>
      <trkpt lat="45.15138" lon="0.63933">
        <ele>120.4</ele>
        <time>2025-06-15T09:30:59Z</time>
      </trkpt>
      <trkpt lat="45.15131" lon="0.63934">
        <ele>120.2</ele>
        <time>2025-06-15T09:31:00Z</time>
      </trkpt>
      <trkpt lat="45.15124" lon="0.63934">
        <ele>120.2</ele>
        <time>2025-06-15T09:31:01Z</time>
      </trkpt>
      <trkpt lat="45.15117" lon="0.63935">
        <ele>120</ele>
        <time>2025-06-15T09:31:02Z</time>
      </trkpt>
      <trkpt lat="45.1511" lon="0.63937">
        <ele>120</ele>
        <time>2025-06-15T09:31:03Z</time>
      </trkpt>
      <trkpt lat="45.15103" lon="0.63938">
        <ele>119.8</ele>
        <time>2025-06-15T09:31:04Z</time>
      </trkpt>
      <trkpt lat="45.15096" lon="0.63941">
        <ele>119.6</ele>
        <time>2025-06-15T09:31:05Z</time>
      </trkpt>
      <trkpt lat="45.15088" lon="0.63943">
        <ele>119.4</ele>
        <time>2025-06-15T09:31:06Z</time>
      </trkpt>
      <trkpt lat="45.15081" lon="0.63947">
        <ele>119.2</ele>
        <time>2025-06-15T09:31:07Z</time>
      </trkpt>
      <trkpt lat="45.15073" lon="0.6395">
        <ele>119.2</ele>
        <time>2025-06-15T09:31:08Z</time>
      </trkpt>
      <trkpt lat="45.15066" lon="0.63953">
        <ele>119</ele>
        <time>2025-06-15T09:31:09Z</time>
      </trkpt>
      <trkpt lat="45.15058" lon="0.63956">
        <ele>119</ele>
        <time>2025-06-15T09:31:10Z</time>
      </trkpt>
      <trkpt lat="45.15049" lon="0.6396">
        <ele>118.8</ele>
        <time>2025-06-15T09:31:11Z</time>
      </trkpt>
      <trkpt lat="45.15041" lon="0.63965">
        <ele>118.6</ele>
        <time>2025-06-15T09:31:12Z</time>
      </trkpt>
      <trkpt lat="45.15032" lon="0.63971">
        <ele>118.4</ele>
        <time>2025-06-15T09:31:13Z</time>
      </trkpt>
      <trkpt lat="45.15024" lon="0.63977">
        <ele>118.4</ele>
        <time>2025-06-15T09:31:14Z</time>
      </trkpt>
      <trkpt lat="45.15016" lon="0.63984">
        <ele>118.2</ele>
        <time>2025-06-15T09:31:15Z</time>
      </trkpt>
      <trkpt lat="45.15009" lon="0.6399">
        <ele>118</ele>
        <time>2025-06-15T09:31:16Z</time>
      </trkpt>
      <trkpt lat="45.15003" lon="0.63994">
        <ele>117.6</ele>
        <time>2025-06-15T09:31:17Z</time>
      </trkpt>
      <trkpt lat="45.14999" lon="0.63997">
        <ele>117.4</ele>
        <time>2025-06-15T09:31:18Z</time>
      </trkpt>
      <trkpt lat="45.14996" lon="0.63999">
        <ele>117.2</ele>
        <time>2025-06-15T09:31:19Z</time>
      </trkpt>
      <trkpt lat="45.14994" lon="0.64003">
        <ele>117.2</ele>
        <time>2025-06-15T09:31:20Z</time>
      </trkpt>
      <trkpt lat="45.14993" lon="0.64007">
        <ele>117.2</ele>
        <time>2025-06-15T09:31:21Z</time>
      </trkpt>
      <trkpt lat="45.14994" lon="0.6401">
        <ele>117</ele>
        <time>2025-06-15T09:31:22Z</time>
      </trkpt>
      <trkpt lat="45.14996" lon="0.64013">
        <ele>117</ele>
        <time>2025-06-15T09:31:23Z</time>
      </trkpt>
      <trkpt lat="45.14999" lon="0.64014">
        <ele>116.8</ele>
        <time>2025-06-15T09:31:24Z</time>
      </trkpt>
      <trkpt lat="45.15002" lon="0.64015">
        <ele>116.8</ele>
        <time>2025-06-15T09:31:25Z</time>
      </trkpt>
      <trkpt lat="45.15005" lon="0.64016">
        <ele>116.8</ele>
        <time>2025-06-15T09:31:26Z</time>
      </trkpt>
      <trkpt lat="45.15008" lon="0.64016">
        <ele>116.8</ele>
        <time>2025-06-15T09:31:27Z</time>
      </trkpt>
      <trkpt lat="45.15011" lon="0.64016">
        <ele>116.6</ele>
        <time>2025-06-15T09:31:28Z</time>
      </trkpt>
      <trkpt lat="45.15014" lon="0.64017">
        <ele>116.6</ele>
        <time>2025-06-15T09:31:29Z</time>
      </trkpt>
      <trkpt lat="45.15017" lon="0.64017">
        <ele>116.6</ele>
        <time>2025-06-15T09:31:30Z</time>
      </trkpt>
      <trkpt lat="45.1502" lon="0.64017">
        <ele>116.6</ele>
        <time>2025-06-15T09:31:31Z</time>
      </trkpt>
      <trkpt lat="45.15023" lon="0.64018">
        <ele>116.4</ele>
        <time>2025-06-15T09:31:32Z</time>
      </trkpt>
      <trkpt lat="45.15026" lon="0.64018">
        <ele>116.4</ele>
        <time>2025-06-15T09:31:33Z</time>
      </trkpt>
      <trkpt lat="45.15028" lon="0.64019">
        <ele>116.2</ele>
        <time>2025-06-15T09:31:34Z</time>
      </trkpt>
      <trkpt lat="45.15031" lon="0.64019">
        <ele>116.2</ele>
        <time>2025-06-15T09:31:35Z</time>
      </trkpt>
      <trkpt lat="45.15033" lon="0.6402">
        <ele>116.2</ele>
        <time>2025-06-15T09:31:36Z</time>
      </trkpt>
      <trkpt lat="45.15035" lon="0.6402">
        <ele>116.2</ele>
        <time>2025-06-15T09:31:37Z</time>
      </trkpt>
      <trkpt lat="45.15038" lon="0.64021">
        <ele>116</ele>
        <time>2025-06-15T09:31:38Z</time>
      </trkpt>
      <trkpt lat="45.1504" lon="0.64021">
        <ele>116</ele>
        <time>2025-06-15T09:31:39Z</time>
      </trkpt>
      <trkpt lat="45.15043" lon="0.64022">
        <ele>116</ele>
        <time>2025-06-15T09:31:40Z</time>
      </trkpt>
      <trkpt lat="45.15045" lon="0.64022">
        <ele>116</ele>
        <time>2025-06-15T09:31:41Z</time>
      </trkpt>
      <trkpt lat="45.15048" lon="0.64022">
        <ele>116</ele>
        <time>2025-06-15T09:31:42Z</time>
      </trkpt>
      <trkpt lat="45.1505" lon="0.64023">
        <ele>116</ele>
        <time>2025-06-15T09:31:43Z</time>
      </trkpt>
      <trkpt lat="45.15053" lon="0.64024">
        <ele>116</ele>
        <time>2025-06-15T09:31:44Z</time>
      </trkpt>
      <trkpt lat="45.15055" lon="0.64024">
        <ele>115.8</ele>
        <time>2025-06-15T09:31:45Z</time>
      </trkpt>
      <trkpt lat="45.15058" lon="0.64025">
        <ele>115.8</ele>
        <time>2025-06-15T09:31:46Z</time>
      </trkpt>
      <trkpt lat="45.1506" lon="0.64026">
        <ele>115.8</ele>
        <time>2025-06-15T09:31:47Z</time>
      </trkpt>
      <trkpt lat="45.15063" lon="0.64026">
        <ele>115.6</ele>
        <time>2025-06-15T09:31:48Z</time>
      </trkpt>
      <trkpt lat="45.15065" lon="0.64027">
        <ele>115.6</ele>
        <time>2025-06-15T09:31:49Z</time>
      </trkpt>
      <trkpt lat="45.15067" lon="0.64027">
        <ele>115.6</ele>
        <time>2025-06-15T09:31:50Z</time>
      </trkpt>
      <trkpt lat="45.1507" lon="0.64028">
        <ele>115.4</ele>
        <time>2025-06-15T09:31:51Z</time>
      </trkpt>
      <trkpt lat="45.15073" lon="0.64029">
        <ele>115.4</ele>
        <time>2025-06-15T09:31:52Z</time>
      </trkpt>
      <trkpt lat="45.15075" lon="0.64029">
        <ele>115.2</ele>
        <time>2025-06-15T09:31:53Z</time>
      </trkpt>
      <trkpt lat="45.15078" lon="0.6403">
        <ele>115.2</ele>
        <time>2025-06-15T09:31:54Z</time>
      </trkpt>
      <trkpt lat="45.1508" lon="0.64031">
        <ele>115.2</ele>
        <time>2025-06-15T09:31:55Z</time>
      </trkpt>
      <trkpt lat="45.15083" lon="0.64032">
        <ele>115.2</ele>
        <time>2025-06-15T09:31:56Z</time>
      </trkpt>
      <trkpt lat="45.15085" lon="0.64033">
        <ele>115</ele>
        <time>2025-06-15T09:31:57Z</time>
      </trkpt>
      <trkpt lat="45.15088" lon="0.64033">
        <ele>115</ele>
        <time>2025-06-15T09:31:58Z</time>
      </trkpt>
      <trkpt lat="45.1509" lon="0.64034">
        <ele>115</ele>
        <time>2025-06-15T09:31:59Z</time>
      </trkpt>
      <trkpt lat="45.15093" lon="0.64036">
        <ele>115</ele>
        <time>2025-06-15T09:32:00Z</time>
      </trkpt>
      <trkpt lat="45.15095" lon="0.64037">
        <ele>114.8</ele>
        <time>2025-06-15T09:32:01Z</time>
      </trkpt>
      <trkpt lat="45.15098" lon="0.64038">
        <ele>114.8</ele>
        <time>2025-06-15T09:32:02Z</time>
      </trkpt>
      <trkpt lat="45.151" lon="0.6404">
        <ele>114.6</ele>
        <time>2025-06-15T09:32:03Z</time>
      </trkpt>
      <trkpt lat="45.15102" lon="0.64042">
        <ele>114.6</ele>
        <time>2025-06-15T09:32:04Z</time>
      </trkpt>
      <trkpt lat="45.15105" lon="0.64043">
        <ele>114.4</ele>
        <time>2025-06-15T09:32:05Z</time>
      </trkpt>
      <trkpt lat="45.15107" lon="0.64043">
        <ele>114.4</ele>
        <time>2025-06-15T09:32:06Z</time>
      </trkpt>
      <trkpt lat="45.15109" lon="0.64045">
        <ele>114.4</ele>
        <time>2025-06-15T09:32:07Z</time>
      </trkpt>
      <trkpt lat="45.15112" lon="0.64046">
        <ele>114.4</ele>
        <time>2025-06-15T09:32:08Z</time>
      </trkpt>
      <trkpt lat="45.15114" lon="0.64048">
        <ele>114.2</ele>
        <time>2025-06-15T09:32:09Z</time>
      </trkpt>
      <trkpt lat="45.15117" lon="0.64049">
        <ele>114.4</ele>
        <time>2025-06-15T09:32:10Z</time>
      </trkpt>
      <trkpt lat="45.15119" lon="0.64051">
        <ele>114.4</ele>
        <time>2025-06-15T09:32:11Z</time>
      </trkpt>
      <trkpt lat="45.15122" lon="0.64053">
        <ele>114.4</ele>
        <time>2025-06-15T09:32:12Z</time>
      </trkpt>
      <trkpt lat="45.15125" lon="0.64054">
        <ele>114.4</ele>
        <time>2025-06-15T09:32:13Z</time>
      </trkpt>
      <trkpt lat="45.15127" lon="0.64056">
        <ele>114.4</ele>
        <time>2025-06-15T09:32:14Z</time>
      </trkpt>
      <trkpt lat="45.1513" lon="0.64057">
        <ele>114.4</ele>
        <time>2025-06-15T09:32:15Z</time>
      </trkpt>
      <trkpt lat="45.15132" lon="0.64059">
        <ele>114.4</ele>
        <time>2025-06-15T09:32:16Z</time>
      </trkpt>
      <trkpt lat="45.15134" lon="0.64061">
        <ele>114.4</ele>
        <time>2025-06-15T09:32:17Z</time>
      </trkpt>
      <trkpt lat="45.15136" lon="0.64064">
        <ele>114.6</ele>
        <time>2025-06-15T09:32:18Z</time>
      </trkpt>
      <trkpt lat="45.15139" lon="0.64066">
        <ele>114.6</ele>
        <time>2025-06-15T09:32:19Z</time>
      </trkpt>
      <trkpt lat="45.15141" lon="0.64068">
        <ele>114.6</ele>
        <time>2025-06-15T09:32:20Z</time>
      </trkpt>
      <trkpt lat="45.15144" lon="0.6407">
        <ele>114.6</ele>
        <time>2025-06-15T09:32:21Z</time>
      </trkpt>
      <trkpt lat="45.15146" lon="0.64073">
        <ele>114.8</ele>
        <time>2025-06-15T09:32:22Z</time>
      </trkpt>
      <trkpt lat="45.15149" lon="0.64075">
        <ele>114.8</ele>
        <time>2025-06-15T09:32:23Z</time>
      </trkpt>
      <trkpt lat="45.15151" lon="0.64077">
        <ele>114.8</ele>
        <time>2025-06-15T09:32:24Z</time>
      </trkpt>
      <trkpt lat="45.15154" lon="0.64079">
        <ele>115</ele>
        <time>2025-06-15T09:32:25Z</time>
      </trkpt>
      <trkpt lat="45.15156" lon="0.64081">
        <ele>115</ele>
        <time>2025-06-15T09:32:26Z</time>
      </trkpt>
      <trkpt lat="45.15159" lon="0.64083">
        <ele>115.2</ele>
        <time>2025-06-15T09:32:27Z</time>
      </trkpt>
      <trkpt lat="45.15161" lon="0.64085">
        <ele>115.2</ele>
        <time>2025-06-15T09:32:28Z</time>
      </trkpt>
      <trkpt lat="45.15163" lon="0.64087">
        <ele>115.2</ele>
        <time>2025-06-15T09:32:29Z</time>
      </trkpt>
      <trkpt lat="45.15166" lon="0.6409">
        <ele>115.4</ele>
        <time>2025-06-15T09:32:30Z</time>
      </trkpt>
      <trkpt lat="45.15168" lon="0.64092">
        <ele>115.4</ele>
        <time>2025-06-15T09:32:31Z</time>
      </trkpt>
      <trkpt lat="45.1517" lon="0.64094">
        <ele>115.4</ele>
        <time>2025-06-15T09:32:32Z</time>
      </trkpt>
      <trkpt lat="45.15172" lon="0.64097">
        <ele>115.4</ele>
        <time>2025-06-15T09:32:33Z</time>
      </trkpt>
      <trkpt lat="45.15174" lon="0.64099">
        <ele>115.6</ele>
        <time>2025-06-15T09:32:34Z</time>
      </trkpt>
      <trkpt lat="45.15175" lon="0.64102">
        <ele>115.6</ele>
        <time>2025-06-15T09:32:35Z</time>
      </trkpt>
      <trkpt lat="45.15177" lon="0.64106">
        <ele>115.8</ele>
        <time>2025-06-15T09:32:36Z</time>
      </trkpt>
      <trkpt lat="45.1518" lon="0.6411">
        <ele>115.8</ele>
        <time>2025-06-15T09:32:37Z</time>
      </trkpt>
      <trkpt lat="45.15182" lon="0.64112">
        <ele>116</ele>
        <time>2025-06-15T09:32:38Z</time>
      </trkpt>
      <trkpt lat="45.15185" lon="0.64115">
        <ele>116</ele>
        <time>2025-06-15T09:32:39Z</time>
      </trkpt>
      <trkpt lat="45.15187" lon="0.64118">
        <ele>116</ele>
        <time>2025-06-15T09:32:40Z</time>
      </trkpt>
      <trkpt lat="45.15189" lon="0.64121">
        <ele>116.2</ele>
        <time>2025-06-15T09:32:41Z</time>
      </trkpt>
      <trkpt lat="45.15191" lon="0.64124">
        <ele>116.2</ele>
        <time>2025-06-15T09:32:42Z</time>
      </trkpt>
      <trkpt lat="45.15193" lon="0.64127">
        <ele>116.2</ele>
        <time>2025-06-15T09:32:43Z</time>
      </trkpt>
      <trkpt lat="45.15195" lon="0.6413">
        <ele>116.4</ele>
        <time>2025-06-15T09:32:44Z</time>
      </trkpt>
      <trkpt lat="45.15197" lon="0.64133">
        <ele>116.4</ele>
        <time>2025-06-15T09:32:45Z</time>
      </trkpt>
      <trkpt lat="45.15199" lon="0.64135">
        <ele>116.6</ele>
        <time>2025-06-15T09:32:46Z</time>
      </trkpt>
      <trkpt lat="45.15201" lon="0.64138">
        <ele>116.6</ele>
        <time>2025-06-15T09:32:47Z</time>
      </trkpt>
      <trkpt lat="45.15203" lon="0.64141">
        <ele>116.6</ele>
        <time>2025-06-15T09:32:48Z</time>
      </trkpt>
      <trkpt lat="45.15205" lon="0.64144">
        <ele>116.8</ele>
        <time>2025-06-15T09:32:49Z</time>
      </trkpt>
      <trkpt lat="45.15207" lon="0.64147">
        <ele>116.8</ele>
        <time>2025-06-15T09:32:50Z</time>
      </trkpt>
      <trkpt lat="45.15209" lon="0.6415">
        <ele>116.8</ele>
        <time>2025-06-15T09:32:51Z</time>
      </trkpt>
      <trkpt lat="45.15211" lon="0.64154">
        <ele>117</ele>
        <time>2025-06-15T09:32:52Z</time>
      </trkpt>
      <trkpt lat="45.15212" lon="0.64158">
        <ele>117</ele>
        <time>2025-06-15T09:32:53Z</time>
      </trkpt>
      <trkpt lat="45.15215" lon="0.64161">
        <ele>117</ele>
        <time>2025-06-15T09:32:54Z</time>
      </trkpt>
      <trkpt lat="45.15217" lon="0.64164">
        <ele>117</ele>
        <time>2025-06-15T09:32:55Z</time>
      </trkpt>
      <trkpt lat="45.15219" lon="0.64166">
        <ele>117.2</ele>
        <time>2025-06-15T09:32:56Z</time>
      </trkpt>
      <trkpt lat="45.15222" lon="0.64169">
        <ele>117.2</ele>
        <time>2025-06-15T09:32:57Z</time>
      </trkpt>
      <trkpt lat="45.15224" lon="0.64171">
        <ele>117.4</ele>
        <time>2025-06-15T09:32:58Z</time>
      </trkpt>
      <trkpt lat="45.15226" lon="0.64174">
        <ele>117.4</ele>
        <time>2025-06-15T09:32:59Z</time>
      </trkpt>
      <trkpt lat="45.15229" lon="0.64176">
        <ele>117.4</ele>
        <time>2025-06-15T09:33:00Z</time>
      </trkpt>
      <trkpt lat="45.15232" lon="0.64178">
        <ele>117.6</ele>
        <time>2025-06-15T09:33:01Z</time>
      </trkpt>
      <trkpt lat="45.15234" lon="0.6418">
        <ele>117.6</ele>
        <time>2025-06-15T09:33:02Z</time>
      </trkpt>
      <trkpt lat="45.15237" lon="0.64183">
        <ele>117.6</ele>
        <time>2025-06-15T09:33:03Z</time>
      </trkpt>
      <trkpt lat="45.1524" lon="0.64185">
        <ele>117.8</ele>
        <time>2025-06-15T09:33:04Z</time>
      </trkpt>
      <trkpt lat="45.15243" lon="0.64188">
        <ele>117.8</ele>
        <time>2025-06-15T09:33:05Z</time>
      </trkpt>
      <trkpt lat="45.15246" lon="0.64189">
        <ele>117.8</ele>
        <time>2025-06-15T09:33:06Z</time>
      </trkpt>
      <trkpt lat="45.15249" lon="0.64191">
        <ele>117.8</ele>
        <time>2025-06-15T09:33:07Z</time>
      </trkpt>
      <trkpt lat="45.15252" lon="0.64193">
        <ele>118</ele>
        <time>2025-06-15T09:33:08Z</time>
      </trkpt>
      <trkpt lat="45.15254" lon="0.64195">
        <ele>118</ele>
        <time>2025-06-15T09:33:09Z</time>
      </trkpt>
      <trkpt lat="45.15258" lon="0.64197">
        <ele>118</ele>
        <time>2025-06-15T09:33:10Z</time>
      </trkpt>
      <trkpt lat="45.15261" lon="0.64199">
        <ele>118.2</ele>
        <time>2025-06-15T09:33:11Z</time>
      </trkpt>
      <trkpt lat="45.15264" lon="0.64202">
        <ele>118.2</ele>
        <time>2025-06-15T09:33:12Z</time>
      </trkpt>
      <trkpt lat="45.15267" lon="0.64204">
        <ele>118.4</ele>
        <time>2025-06-15T09:33:13Z</time>
      </trkpt>
      <trkpt lat="45.1527" lon="0.64207">
        <ele>118.4</ele>
        <time>2025-06-15T09:33:14Z</time>
      </trkpt>
      <trkpt lat="45.15274" lon="0.64209">
        <ele>118.4</ele>
        <time>2025-06-15T09:33:15Z</time>
      </trkpt>
      <trkpt lat="45.15277" lon="0.64212">
        <ele>118.6</ele>
        <time>2025-06-15T09:33:16Z</time>
      </trkpt>
      <trkpt lat="45.1528" lon="0.64214">
        <ele>118.6</ele>
        <time>2025-06-15T09:33:17Z</time>
      </trkpt>
      <trkpt lat="45.15283" lon="0.64216">
        <ele>118.6</ele>
        <time>2025-06-15T09:33:18Z</time>
      </trkpt>
      <trkpt lat="45.15286" lon="0.64218">
        <ele>118.8</ele>
        <time>2025-06-15T09:33:19Z</time>
      </trkpt>
      <trkpt lat="45.15289" lon="0.6422">
        <ele>118.8</ele>
        <time>2025-06-15T09:33:20Z</time>
      </trkpt>
      <trkpt lat="45.15291" lon="0.64223">
        <ele>118.8</ele>
        <time>2025-06-15T09:33:21Z</time>
      </trkpt>
      <trkpt lat="45.15294" lon="0.64225">
        <ele>119</ele>
        <time>2025-06-15T09:33:22Z</time>
      </trkpt>
      <trkpt lat="45.15297" lon="0.64228">
        <ele>119</ele>
        <time>2025-06-15T09:33:23Z</time>
      </trkpt>
      <trkpt lat="45.153" lon="0.6423">
        <ele>119.2</ele>
        <time>2025-06-15T09:33:24Z</time>
      </trkpt>
      <trkpt lat="45.15302" lon="0.64232">
        <ele>119.2</ele>
        <time>2025-06-15T09:33:25Z</time>
      </trkpt>
      <trkpt lat="45.15304" lon="0.64234">
        <ele>119.4</ele>
        <time>2025-06-15T09:33:26Z</time>
      </trkpt>
      <trkpt lat="45.15307" lon="0.64236">
        <ele>119.4</ele>
        <time>2025-06-15T09:33:27Z</time>
      </trkpt>
      <trkpt lat="45.1531" lon="0.64238">
        <ele>119.6</ele>
        <time>2025-06-15T09:33:28Z</time>
      </trkpt>
      <trkpt lat="45.15313" lon="0.6424">
        <ele>119.8</ele>
        <time>2025-06-15T09:33:29Z</time>
      </trkpt>
      <trkpt lat="45.15315" lon="0.64243">
        <ele>119.8</ele>
        <time>2025-06-15T09:33:30Z</time>
      </trkpt>
      <trkpt lat="45.15317" lon="0.64245">
        <ele>120</ele>
        <time>2025-06-15T09:33:31Z</time>
      </trkpt>
      <trkpt lat="45.1532" lon="0.64248">
        <ele>120</ele>
        <time>2025-06-15T09:33:32Z</time>
      </trkpt>
      <trkpt lat="45.15322" lon="0.6425">
        <ele>120</ele>
        <time>2025-06-15T09:33:33Z</time>
      </trkpt>
      <trkpt lat="45.15324" lon="0.64252">
        <ele>120.2</ele>
        <time>2025-06-15T09:33:34Z</time>
      </trkpt>
      <trkpt lat="45.15327" lon="0.64254">
        <ele>120.2</ele>
        <time>2025-06-15T09:33:35Z</time>
      </trkpt>
      <trkpt lat="45.15329" lon="0.64256">
        <ele>120.2</ele>
        <time>2025-06-15T09:33:36Z</time>
      </trkpt>
      <trkpt lat="45.15331" lon="0.64258">
        <ele>120.4</ele>
        <time>2025-06-15T09:33:37Z</time>
      </trkpt>
      <trkpt lat="45.15334" lon="0.6426">
        <ele>120.4</ele>
        <time>2025-06-15T09:33:38Z</time>
      </trkpt>
      <trkpt lat="45.15336" lon="0.64261">
        <ele>120.4</ele>
        <time>2025-06-15T09:33:39Z</time>
      </trkpt>
      <trkpt lat="45.15338" lon="0.64263">
        <ele>120.4</ele>
        <time>2025-06-15T09:33:40Z</time>
      </trkpt>
      <trkpt lat="45.1534" lon="0.64263">
        <ele>120.4</ele>
        <time>2025-06-15T09:33:41Z</time>
      </trkpt>
      <trkpt lat="45.15342" lon="0.64264">
        <ele>120.4</ele>
        <time>2025-06-15T09:33:42Z</time>
      </trkpt>
      <trkpt lat="45.15345" lon="0.64266">
        <ele>120.6</ele>
        <time>2025-06-15T09:33:43Z</time>
      </trkpt>
      <trkpt lat="45.15347" lon="0.64267">
        <ele>120.6</ele>
        <time>2025-06-15T09:33:44Z</time>
      </trkpt>
      <trkpt lat="45.1535" lon="0.64268">
        <ele>120.6</ele>
        <time>2025-06-15T09:33:45Z</time>
      </trkpt>
      <trkpt lat="45.15353" lon="0.64268">
        <ele>120.8</ele>
        <time>2025-06-15T09:33:46Z</time>
      </trkpt>
      <trkpt lat="45.15356" lon="0.64269">
        <ele>120.8</ele>
        <time>2025-06-15T09:33:47Z</time>
      </trkpt>
      <trkpt lat="45.15358" lon="0.6427">
        <ele>120.8</ele>
        <time>2025-06-15T09:33:48Z</time>
      </trkpt>
      <trkpt lat="45.15361" lon="0.64271">
        <ele>120.8</ele>
        <time>2025-06-15T09:33:49Z</time>
      </trkpt>
      <trkpt lat="45.15364" lon="0.64272">
        <ele>120.8</ele>
        <time>2025-06-15T09:33:50Z</time>
      </trkpt>
      <trkpt lat="45.15367" lon="0.64273">
        <ele>121</ele>
        <time>2025-06-15T09:33:51Z</time>
      </trkpt>
      <trkpt lat="45.15369" lon="0.64273">
        <ele>121</ele>
        <time>2025-06-15T09:33:52Z</time>
      </trkpt>
      <trkpt lat="45.15372" lon="0.64274">
        <ele>120.8</ele>
        <time>2025-06-15T09:33:53Z</time>
      </trkpt>
      <trkpt lat="45.15374" lon="0.64274">
        <ele>120.8</ele>
        <time>2025-06-15T09:33:54Z</time>
      </trkpt>
      <trkpt lat="45.15377" lon="0.64275">
        <ele>120.8</ele>
        <time>2025-06-15T09:33:55Z</time>
      </trkpt>
      <trkpt lat="45.15379" lon="0.64275">
        <ele>120.8</ele>
        <time>2025-06-15T09:33:56Z</time>
      </trkpt>
      <trkpt lat="45.15382" lon="0.64276">
        <ele>120.8</ele>
        <time>2025-06-15T09:33:57Z</time>
      </trkpt>
      <trkpt lat="45.15384" lon="0.64276">
        <ele>120.8</ele>
        <time>2025-06-15T09:33:58Z</time>
      </trkpt>
      <trkpt lat="45.15387" lon="0.64276">
        <ele>120.8</ele>
        <time>2025-06-15T09:33:59Z</time>
      </trkpt>
      <trkpt lat="45.15389" lon="0.64277">
        <ele>120.6</ele>
        <time>2025-06-15T09:34:00Z</time>
      </trkpt>
      <trkpt lat="45.15391" lon="0.64277">
        <ele>120.6</ele>
        <time>2025-06-15T09:34:01Z</time>
      </trkpt>
      <trkpt lat="45.15393" lon="0.64278">
        <ele>120.6</ele>
        <time>2025-06-15T09:34:02Z</time>
      </trkpt>
      <trkpt lat="45.15396" lon="0.64279">
        <ele>120.6</ele>
        <time>2025-06-15T09:34:03Z</time>
      </trkpt>
      <trkpt lat="45.15398" lon="0.64279">
        <ele>120.6</ele>
        <time>2025-06-15T09:34:04Z</time>
      </trkpt>
      <trkpt lat="45.15399" lon="0.64281">
        <ele>120.4</ele>
        <time>2025-06-15T09:34:05Z</time>
      </trkpt>
      <trkpt lat="45.15401" lon="0.64282">
        <ele>120.4</ele>
        <time>2025-06-15T09:34:06Z</time>
      </trkpt>
      <trkpt lat="45.15402" lon="0.64284">
        <ele>120.4</ele>
        <time>2025-06-15T09:34:07Z</time>
      </trkpt>
      <trkpt lat="45.15404" lon="0.64285">
        <ele>120.4</ele>
        <time>2025-06-15T09:34:08Z</time>
      </trkpt>
      <trkpt lat="45.15405" lon="0.64287">
        <ele>120.4</ele>
        <time>2025-06-15T09:34:09Z</time>
      </trkpt>
      <trkpt lat="45.15406" lon="0.64289">
        <ele>120.4</ele>
        <time>2025-06-15T09:34:10Z</time>
      </trkpt>
      <trkpt lat="45.15407" lon="0.6429">
        <ele>120.4</ele>
        <time>2025-06-15T09:34:11Z</time>
      </trkpt>
      <trkpt lat="45.15408" lon="0.64292">
        <ele>120.4</ele>
        <time>2025-06-15T09:34:12Z</time>
      </trkpt>
      <trkpt lat="45.15409" lon="0.64294">
        <ele>120.2</ele>
        <time>2025-06-15T09:34:13Z</time>
      </trkpt>
      <trkpt lat="45.1541" lon="0.64297">
        <ele>120.2</ele>
        <time>2025-06-15T09:34:14Z</time>
      </trkpt>
      <trkpt lat="45.15411" lon="0.64299">
        <ele>120</ele>
        <time>2025-06-15T09:34:15Z</time>
      </trkpt>
      <trkpt lat="45.15412" lon="0.64301">
        <ele>120</ele>
        <time>2025-06-15T09:34:16Z</time>
      </trkpt>
      <trkpt lat="45.15413" lon="0.64303">
        <ele>119.8</ele>
        <time>2025-06-15T09:34:17Z</time>
      </trkpt>
      <trkpt lat="45.15413" lon="0.64306">
        <ele>119.8</ele>
        <time>2025-06-15T09:34:18Z</time>
      </trkpt>
      <trkpt lat="45.15414" lon="0.64308">
        <ele>119.8</ele>
        <time>2025-06-15T09:34:19Z</time>
      </trkpt>
      <trkpt lat="45.15415" lon="0.6431">
        <ele>119.6</ele>
        <time>2025-06-15T09:34:20Z</time>
      </trkpt>
      <trkpt lat="45.15416" lon="0.64313">
        <ele>119.6</ele>
        <time>2025-06-15T09:34:21Z</time>
      </trkpt>
      <trkpt lat="45.15417" lon="0.64315">
        <ele>119.6</ele>
        <time>2025-06-15T09:34:22Z</time>
      </trkpt>
      <trkpt lat="45.15417" lon="0.64318">
        <ele>119.4</ele>
        <time>2025-06-15T09:34:23Z</time>
      </trkpt>
      <trkpt lat="45.15418" lon="0.6432">
        <ele>119.4</ele>
        <time>2025-06-15T09:34:24Z</time>
      </trkpt>
      <trkpt lat="45.15419" lon="0.64322">
        <ele>119.4</ele>
        <time>2025-06-15T09:34:25Z</time>
      </trkpt>
      <trkpt lat="45.15419" lon="0.64325">
        <ele>119.2</ele>
        <time>2025-06-15T09:34:26Z</time>
      </trkpt>
      <trkpt lat="45.1542" lon="0.64327">
        <ele>119.2</ele>
        <time>2025-06-15T09:34:27Z</time>
      </trkpt>
      <trkpt lat="45.1542" lon="0.64329">
        <ele>119.2</ele>
        <time>2025-06-15T09:34:28Z</time>
      </trkpt>
      <trkpt lat="45.15421" lon="0.64331">
        <ele>119</ele>
        <time>2025-06-15T09:34:29Z</time>
      </trkpt>
      <trkpt lat="45.15422" lon="0.64333">
        <ele>119</ele>
        <time>2025-06-15T09:34:30Z</time>
      </trkpt>
      <trkpt lat="45.15422" lon="0.64335">
        <ele>119</ele>
        <time>2025-06-15T09:34:31Z</time>
      </trkpt>
      <trkpt lat="45.15423" lon="0.64337">
        <ele>118.8</ele>
        <time>2025-06-15T09:34:32Z</time>
      </trkpt>
      <trkpt lat="45.15424" lon="0.64338">
        <ele>118.8</ele>
        <time>2025-06-15T09:34:33Z</time>
      </trkpt>
      <trkpt lat="45.15424" lon="0.6434">
        <ele>118.8</ele>
        <time>2025-06-15T09:34:34Z</time>
      </trkpt>
      <trkpt lat="45.15425" lon="0.64342">
        <ele>118.8</ele>
        <time>2025-06-15T09:34:35Z</time>
      </trkpt>
      <trkpt lat="45.15426" lon="0.64343">
        <ele>118.6</ele>
        <time>2025-06-15T09:34:36Z</time>
      </trkpt>
      <trkpt lat="45.15427" lon="0.64344">
        <ele>118.6</ele>
        <time>2025-06-15T09:34:37Z</time>
      </trkpt>
      <trkpt lat="45.15428" lon="0.64346">
        <ele>118.6</ele>
        <time>2025-06-15T09:34:38Z</time>
      </trkpt>
      <trkpt lat="45.15429" lon="0.64347">
        <ele>118.6</ele>
        <time>2025-06-15T09:34:39Z</time>
      </trkpt>
      <trkpt lat="45.1543" lon="0.64348">
        <ele>118.4</ele>
        <time>2025-06-15T09:34:40Z</time>
      </trkpt>
      <trkpt lat="45.15431" lon="0.64348">
        <ele>118.4</ele>
        <time>2025-06-15T09:34:41Z</time>
      </trkpt>
      <trkpt lat="45.15432" lon="0.64349">
        <ele>118.4</ele>
        <time>2025-06-15T09:34:42Z</time>
      </trkpt>
      <trkpt lat="45.15433" lon="0.64349">
        <ele>118.4</ele>
        <time>2025-06-15T09:34:43Z</time>
      </trkpt>
      <trkpt lat="45.15435" lon="0.6435">
        <ele>118.2</ele>
        <time>2025-06-15T09:34:44Z</time>
      </trkpt>
      <trkpt lat="45.15436" lon="0.64351">
        <ele>118.2</ele>
        <time>2025-06-15T09:34:45Z</time>
      </trkpt>
      <trkpt lat="45.15437" lon="0.64351">
        <ele>118.2</ele>
        <time>2025-06-15T09:34:46Z</time>
      </trkpt>
      <trkpt lat="45.15438" lon="0.64351">
        <ele>118</ele>
        <time>2025-06-15T09:34:47Z</time>
      </trkpt>
      <trkpt lat="45.15439" lon="0.64352">
        <ele>118</ele>
        <time>2025-06-15T09:34:48Z</time>
      </trkpt>
      <trkpt lat="45.1544" lon="0.64352">
        <ele>118</ele>
        <time>2025-06-15T09:34:49Z</time>
      </trkpt>
      <trkpt lat="45.15441" lon="0.64352">
        <ele>118</ele>
        <time>2025-06-15T09:34:50Z</time>
      </trkpt>
      <trkpt lat="45.15442" lon="0.64353">
        <ele>117.8</ele>
        <time>2025-06-15T09:34:51Z</time>
      </trkpt>
      <trkpt lat="45.15443" lon="0.64353">
        <ele>117.8</ele>
        <time>2025-06-15T09:34:52Z</time>
      </trkpt>
      <trkpt lat="45.15445" lon="0.64353">
        <ele>117.6</ele>
        <time>2025-06-15T09:34:53Z</time>
      </trkpt>
      <trkpt lat="45.15446" lon="0.64353">
        <ele>117.6</ele>
        <time>2025-06-15T09:34:54Z</time>
      </trkpt>
      <trkpt lat="45.15447" lon="0.64353">
        <ele>117.6</ele>
        <time>2025-06-15T09:34:55Z</time>
      </trkpt>
      <trkpt lat="45.15448" lon="0.64353">
        <ele>117.4</ele>
        <time>2025-06-15T09:34:56Z</time>
      </trkpt>
      <trkpt lat="45.15449" lon="0.64353">
        <ele>117.4</ele>
        <time>2025-06-15T09:34:57Z</time>
      </trkpt>
      <trkpt lat="45.1545" lon="0.64352">
        <ele>117.2</ele>
        <time>2025-06-15T09:34:58Z</time>
      </trkpt>
      <trkpt lat="45.15451" lon="0.64352">
        <ele>117</ele>
        <time>2025-06-15T09:34:59Z</time>
      </trkpt>
      <trkpt lat="45.15452" lon="0.64352">
        <ele>117</ele>
        <time>2025-06-15T09:35:00Z</time>
      </trkpt>
      <trkpt lat="45.15454" lon="0.64352">
        <ele>116.8</ele>
        <time>2025-06-15T09:35:01Z</time>
      </trkpt>
      <trkpt lat="45.15455" lon="0.64352">
        <ele>116.6</ele>
        <time>2025-06-15T09:35:02Z</time>
      </trkpt>
      <trkpt lat="45.15456" lon="0.64352">
        <ele>116.6</ele>
        <time>2025-06-15T09:35:03Z</time>
      </trkpt>
      <trkpt lat="45.15457" lon="0.64352">
        <ele>116.6</ele>
        <time>2025-06-15T09:35:04Z</time>
      </trkpt>
      <trkpt lat="45.15458" lon="0.64352">
        <ele>116.4</ele>
        <time>2025-06-15T09:35:05Z</time>
      </trkpt>
      <trkpt lat="45.1546" lon="0.64352">
        <ele>116.2</ele>
        <time>2025-06-15T09:35:06Z</time>
      </trkpt>
      <trkpt lat="45.15461" lon="0.64352">
        <ele>116.2</ele>
        <time>2025-06-15T09:35:07Z</time>
      </trkpt>
      <trkpt lat="45.15462" lon="0.64353">
        <ele>116</ele>
        <time>2025-06-15T09:35:08Z</time>
      </trkpt>
      <trkpt lat="45.15463" lon="0.64353">
        <ele>116</ele>
        <time>2025-06-15T09:35:09Z</time>
      </trkpt>
      <trkpt lat="45.15464" lon="0.64353">
        <ele>116</ele>
        <time>2025-06-15T09:35:10Z</time>
      </trkpt>
      <trkpt lat="45.15466" lon="0.64353">
        <ele>115.8</ele>
        <time>2025-06-15T09:35:11Z</time>
      </trkpt>
      <trkpt lat="45.15467" lon="0.64353">
        <ele>115.8</ele>
        <time>2025-06-15T09:35:12Z</time>
      </trkpt>
      <trkpt lat="45.15468" lon="0.64354">
        <ele>115.6</ele>
        <time>2025-06-15T09:35:13Z</time>
      </trkpt>
      <trkpt lat="45.15469" lon="0.64354">
        <ele>115.4</ele>
        <time>2025-06-15T09:35:14Z</time>
      </trkpt>
      <trkpt lat="45.1547" lon="0.64355">
        <ele>115.2</ele>
        <time>2025-06-15T09:35:15Z</time>
      </trkpt>
      <trkpt lat="45.15471" lon="0.64355">
        <ele>115</ele>
        <time>2025-06-15T09:35:16Z</time>
      </trkpt>
      <trkpt lat="45.15472" lon="0.64356">
        <ele>114.8</ele>
        <time>2025-06-15T09:35:17Z</time>
      </trkpt>
      <trkpt lat="45.15473" lon="0.64356">
        <ele>114.6</ele>
        <time>2025-06-15T09:35:18Z</time>
      </trkpt>
      <trkpt lat="45.15474" lon="0.64357">
        <ele>114.4</ele>
        <time>2025-06-15T09:35:19Z</time>
      </trkpt>
      <trkpt lat="45.15475" lon="0.64357">
        <ele>114.4</ele>
        <time>2025-06-15T09:35:20Z</time>
      </trkpt>
      <trkpt lat="45.15477" lon="0.64357">
        <ele>114.2</ele>
        <time>2025-06-15T09:35:21Z</time>
      </trkpt>
      <trkpt lat="45.15478" lon="0.64358">
        <ele>114</ele>
        <time>2025-06-15T09:35:22Z</time>
      </trkpt>
      <trkpt lat="45.15479" lon="0.64358">
        <ele>114</ele>
        <time>2025-06-15T09:35:23Z</time>
      </trkpt>
      <trkpt lat="45.1548" lon="0.64359">
        <ele>114</ele>
        <time>2025-06-15T09:35:24Z</time>
      </trkpt>
      <trkpt lat="45.15481" lon="0.64359">
        <ele>113.8</ele>
        <time>2025-06-15T09:35:25Z</time>
      </trkpt>
      <trkpt lat="45.15483" lon="0.6436">
        <ele>113.8</ele>
        <time>2025-06-15T09:35:26Z</time>
      </trkpt>
      <trkpt lat="45.15484" lon="0.6436">
        <ele>113.6</ele>
        <time>2025-06-15T09:35:27Z</time>
      </trkpt>
      <trkpt lat="45.15485" lon="0.64361">
        <ele>113.6</ele>
        <time>2025-06-15T09:35:28Z</time>
      </trkpt>
      <trkpt lat="45.15486" lon="0.64361">
        <ele>113.4</ele>
        <time>2025-06-15T09:35:29Z</time>
      </trkpt>
      <trkpt lat="45.15487" lon="0.64362">
        <ele>113.4</ele>
        <time>2025-06-15T09:35:30Z</time>
      </trkpt>
      <trkpt lat="45.15488" lon="0.64363">
        <ele>113.2</ele>
        <time>2025-06-15T09:35:31Z</time>
      </trkpt>
      <trkpt lat="45.1549" lon="0.64363">
        <ele>113.2</ele>
        <time>2025-06-15T09:35:32Z</time>
      </trkpt>
      <trkpt lat="45.15491" lon="0.64364">
        <ele>113</ele>
        <time>2025-06-15T09:35:33Z</time>
      </trkpt>
      <trkpt lat="45.15493" lon="0.64365">
        <ele>113</ele>
        <time>2025-06-15T09:35:34Z</time>
      </trkpt>
      <trkpt lat="45.15494" lon="0.64366">
        <ele>112.8</ele>
        <time>2025-06-15T09:35:35Z</time>
      </trkpt>
      <trkpt lat="45.15495" lon="0.64367">
        <ele>112.8</ele>
        <time>2025-06-15T09:35:36Z</time>
      </trkpt>
      <trkpt lat="45.15496" lon="0.64368">
        <ele>112.8</ele>
        <time>2025-06-15T09:35:37Z</time>
      </trkpt>
      <trkpt lat="45.15497" lon="0.64369">
        <ele>112.6</ele>
        <time>2025-06-15T09:35:38Z</time>
      </trkpt>
      <trkpt lat="45.15498" lon="0.6437">
        <ele>112.6</ele>
        <time>2025-06-15T09:35:39Z</time>
      </trkpt>
      <trkpt lat="45.15499" lon="0.64371">
        <ele>112.4</ele>
        <time>2025-06-15T09:35:40Z</time>
      </trkpt>
      <trkpt lat="45.155" lon="0.64372">
        <ele>112.4</ele>
        <time>2025-06-15T09:35:41Z</time>
      </trkpt>
      <trkpt lat="45.15502" lon="0.64373">
        <ele>112.2</ele>
        <time>2025-06-15T09:35:42Z</time>
      </trkpt>
      <trkpt lat="45.15503" lon="0.64374">
        <ele>112.2</ele>
        <time>2025-06-15T09:35:43Z</time>
      </trkpt>
      <trkpt lat="45.15504" lon="0.64375">
        <ele>112</ele>
        <time>2025-06-15T09:35:44Z</time>
      </trkpt>
      <trkpt lat="45.15505" lon="0.64375">
        <ele>112</ele>
        <time>2025-06-15T09:35:45Z</time>
      </trkpt>
      <trkpt lat="45.15506" lon="0.64376">
        <ele>111.8</ele>
        <time>2025-06-15T09:35:46Z</time>
      </trkpt>
      <trkpt lat="45.15507" lon="0.64377">
        <ele>111.6</ele>
        <time>2025-06-15T09:35:47Z</time>
      </trkpt>
      <trkpt lat="45.15509" lon="0.64378">
        <ele>111.6</ele>
        <time>2025-06-15T09:35:48Z</time>
      </trkpt>
      <trkpt lat="45.1551" lon="0.64379">
        <ele>111.4</ele>
        <time>2025-06-15T09:35:49Z</time>
      </trkpt>
      <trkpt lat="45.15511" lon="0.6438">
        <ele>111.4</ele>
        <time>2025-06-15T09:35:50Z</time>
      </trkpt>
      <trkpt lat="45.15512" lon="0.64381">
        <ele>111.2</ele>
        <time>2025-06-15T09:35:51Z</time>
      </trkpt>
      <trkpt lat="45.15513" lon="0.64382">
        <ele>111.2</ele>
        <time>2025-06-15T09:35:52Z</time>
      </trkpt>
      <trkpt lat="45.15514" lon="0.64383">
        <ele>111.2</ele>
        <time>2025-06-15T09:35:53Z</time>
      </trkpt>
      <trkpt lat="45.15515" lon="0.64384">
        <ele>111.2</ele>
        <time>2025-06-15T09:35:54Z</time>
      </trkpt>
      <trkpt lat="45.15516" lon="0.64385">
        <ele>111</ele>
        <time>2025-06-15T09:35:55Z</time>
      </trkpt>
      <trkpt lat="45.15517" lon="0.64386">
        <ele>111</ele>
        <time>2025-06-15T09:35:56Z</time>
      </trkpt>
      <trkpt lat="45.15518" lon="0.64386">
        <ele>111</ele>
        <time>2025-06-15T09:35:57Z</time>
      </trkpt>
      <trkpt lat="45.15519" lon="0.64387">
        <ele>111</ele>
        <time>2025-06-15T09:35:58Z</time>
      </trkpt>
      <trkpt lat="45.1552" lon="0.64388">
        <ele>110.8</ele>
        <time>2025-06-15T09:35:59Z</time>
      </trkpt>
      <trkpt lat="45.15522" lon="0.64389">
        <ele>110.8</ele>
        <time>2025-06-15T09:36:00Z</time>
      </trkpt>
      <trkpt lat="45.15523" lon="0.6439">
        <ele>110.6</ele>
        <time>2025-06-15T09:36:01Z</time>
      </trkpt>
      <trkpt lat="45.15524" lon="0.64391">
        <ele>110.6</ele>
        <time>2025-06-15T09:36:02Z</time>
      </trkpt>
      <trkpt lat="45.15525" lon="0.64392">
        <ele>110.6</ele>
        <time>2025-06-15T09:36:03Z</time>
      </trkpt>
      <trkpt lat="45.15526" lon="0.64394">
        <ele>110.6</ele>
        <time>2025-06-15T09:36:04Z</time>
      </trkpt>
      <trkpt lat="45.15527" lon="0.64395">
        <ele>110.4</ele>
        <time>2025-06-15T09:36:05Z</time>
      </trkpt>
      <trkpt lat="45.15528" lon="0.64396">
        <ele>110.4</ele>
        <time>2025-06-15T09:36:06Z</time>
      </trkpt>
      <trkpt lat="45.15529" lon="0.64397">
        <ele>110.2</ele>
        <time>2025-06-15T09:36:07Z</time>
      </trkpt>
      <trkpt lat="45.1553" lon="0.64398">
        <ele>110.2</ele>
        <time>2025-06-15T09:36:08Z</time>
      </trkpt>
      <trkpt lat="45.15531" lon="0.64399">
        <ele>110.2</ele>
        <time>2025-06-15T09:36:09Z</time>
      </trkpt>
      <trkpt lat="45.15533" lon="0.644">
        <ele>110.2</ele>
        <time>2025-06-15T09:36:10Z</time>
      </trkpt>
      <trkpt lat="45.15534" lon="0.64401">
        <ele>110</ele>
        <time>2025-06-15T09:36:11Z</time>
      </trkpt>
      <trkpt lat="45.15535" lon="0.64402">
        <ele>110</ele>
        <time>2025-06-15T09:36:12Z</time>
      </trkpt>
      <trkpt lat="45.15537" lon="0.64403">
        <ele>110</ele>
        <time>2025-06-15T09:36:13Z</time>
      </trkpt>
      <trkpt lat="45.15538" lon="0.64404">
        <ele>110</ele>
        <time>2025-06-15T09:36:14Z</time>
      </trkpt>
      <trkpt lat="45.15539" lon="0.64405">
        <ele>109.8</ele>
        <time>2025-06-15T09:36:15Z</time>
      </trkpt>
      <trkpt lat="45.15541" lon="0.64406">
        <ele>109.8</ele>
        <time>2025-06-15T09:36:16Z</time>
      </trkpt>
      <trkpt lat="45.15542" lon="0.64407">
        <ele>109.6</ele>
        <time>2025-06-15T09:36:17Z</time>
      </trkpt>
      <trkpt lat="45.15543" lon="0.64408">
        <ele>109.6</ele>
        <time>2025-06-15T09:36:18Z</time>
      </trkpt>
      <trkpt lat="45.15544" lon="0.64409">
        <ele>109.6</ele>
        <time>2025-06-15T09:36:19Z</time>
      </trkpt>
      <trkpt lat="45.15545" lon="0.64409">
        <ele>109.6</ele>
        <time>2025-06-15T09:36:20Z</time>
      </trkpt>
      <trkpt lat="45.15546" lon="0.6441">
        <ele>109.6</ele>
        <time>2025-06-15T09:36:21Z</time>
      </trkpt>
      <trkpt lat="45.15547" lon="0.64411">
        <ele>109.6</ele>
        <time>2025-06-15T09:36:22Z</time>
      </trkpt>
      <trkpt lat="45.15549" lon="0.64412">
        <ele>109.4</ele>
        <time>2025-06-15T09:36:23Z</time>
      </trkpt>
      <trkpt lat="45.1555" lon="0.64413">
        <ele>109.4</ele>
        <time>2025-06-15T09:36:24Z</time>
      </trkpt>
      <trkpt lat="45.15551" lon="0.64414">
        <ele>109.4</ele>
        <time>2025-06-15T09:36:25Z</time>
      </trkpt>
      <trkpt lat="45.15552" lon="0.64415">
        <ele>109.4</ele>
        <time>2025-06-15T09:36:26Z</time>
      </trkpt>
      <trkpt lat="45.15554" lon="0.64416">
        <ele>109.4</ele>
        <time>2025-06-15T09:36:27Z</time>
      </trkpt>
      <trkpt lat="45.15555" lon="0.64417">
        <ele>109.4</ele>
        <time>2025-06-15T09:36:28Z</time>
      </trkpt>
      <trkpt lat="45.15556" lon="0.64418">
        <ele>109.2</ele>
        <time>2025-06-15T09:36:29Z</time>
      </trkpt>
      <trkpt lat="45.15557" lon="0.64419">
        <ele>109.2</ele>
        <time>2025-06-15T09:36:30Z</time>
      </trkpt>
      <trkpt lat="45.15559" lon="0.6442">
        <ele>109.2</ele>
        <time>2025-06-15T09:36:31Z</time>
      </trkpt>
      <trkpt lat="45.1556" lon="0.64421">
        <ele>109.2</ele>
        <time>2025-06-15T09:36:32Z</time>
      </trkpt>
      <trkpt lat="45.15561" lon="0.64422">
        <ele>109.2</ele>
        <time>2025-06-15T09:36:33Z</time>
      </trkpt>
      <trkpt lat="45.15562" lon="0.64423">
        <ele>109</ele>
        <time>2025-06-15T09:36:34Z</time>
      </trkpt>
      <trkpt lat="45.15564" lon="0.64424">
        <ele>109</ele>
        <time>2025-06-15T09:36:35Z</time>
      </trkpt>
      <trkpt lat="45.15565" lon="0.64424">
        <ele>108.8</ele>
        <time>2025-06-15T09:36:36Z</time>
      </trkpt>
      <trkpt lat="45.15566" lon="0.64425">
        <ele>108.8</ele>
        <time>2025-06-15T09:36:37Z</time>
      </trkpt>
      <trkpt lat="45.15567" lon="0.64426">
        <ele>108.8</ele>
        <time>2025-06-15T09:36:38Z</time>
      </trkpt>
      <trkpt lat="45.15569" lon="0.64427">
        <ele>108.8</ele>
        <time>2025-06-15T09:36:39Z</time>
      </trkpt>
      <trkpt lat="45.1557" lon="0.64428">
        <ele>108.8</ele>
        <time>2025-06-15T09:36:40Z</time>
      </trkpt>
      <trkpt lat="45.15571" lon="0.64429">
        <ele>108.8</ele>
        <time>2025-06-15T09:36:41Z</time>
      </trkpt>
      <trkpt lat="45.15573" lon="0.6443">
        <ele>108.8</ele>
        <time>2025-06-15T09:36:42Z</time>
      </trkpt>
      <trkpt lat="45.15574" lon="0.64431">
        <ele>108.6</ele>
        <time>2025-06-15T09:36:43Z</time>
      </trkpt>
      <trkpt lat="45.15575" lon="0.64432">
        <ele>108.6</ele>
        <time>2025-06-15T09:36:44Z</time>
      </trkpt>
      <trkpt lat="45.15577" lon="0.64433">
        <ele>108.6</ele>
        <time>2025-06-15T09:36:45Z</time>
      </trkpt>
      <trkpt lat="45.15578" lon="0.64434">
        <ele>108.6</ele>
        <time>2025-06-15T09:36:46Z</time>
      </trkpt>
      <trkpt lat="45.15579" lon="0.64435">
        <ele>108.4</ele>
        <time>2025-06-15T09:36:47Z</time>
      </trkpt>
      <trkpt lat="45.15581" lon="0.64436">
        <ele>108.4</ele>
        <time>2025-06-15T09:36:48Z</time>
      </trkpt>
      <trkpt lat="45.15582" lon="0.64437">
        <ele>108.4</ele>
        <time>2025-06-15T09:36:49Z</time>
      </trkpt>
      <trkpt lat="45.15583" lon="0.64438">
        <ele>108.2</ele>
        <time>2025-06-15T09:36:50Z</time>
      </trkpt>
      <trkpt lat="45.15584" lon="0.64439">
        <ele>108.2</ele>
        <time>2025-06-15T09:36:51Z</time>
      </trkpt>
      <trkpt lat="45.15586" lon="0.6444">
        <ele>108</ele>
        <time>2025-06-15T09:36:52Z</time>
      </trkpt>
      <trkpt lat="45.15587" lon="0.64441">
        <ele>108</ele>
        <time>2025-06-15T09:36:53Z</time>
      </trkpt>
      <trkpt lat="45.15589" lon="0.64442">
        <ele>107.8</ele>
        <time>2025-06-15T09:36:54Z</time>
      </trkpt>
      <trkpt lat="45.1559" lon="0.64443">
        <ele>107.8</ele>
        <time>2025-06-15T09:36:55Z</time>
      </trkpt>
      <trkpt lat="45.15591" lon="0.64444">
        <ele>107.8</ele>
        <time>2025-06-15T09:36:56Z</time>
      </trkpt>
      <trkpt lat="45.15592" lon="0.64445">
        <ele>107.6</ele>
        <time>2025-06-15T09:36:57Z</time>
      </trkpt>
      <trkpt lat="45.15594" lon="0.64446">
        <ele>107.6</ele>
        <time>2025-06-15T09:36:58Z</time>
      </trkpt>
      <trkpt lat="45.15595" lon="0.64447">
        <ele>107.6</ele>
        <time>2025-06-15T09:36:59Z</time>
      </trkpt>
      <trkpt lat="45.15597" lon="0.64448">
        <ele>107.4</ele>
        <time>2025-06-15T09:37:00Z</time>
      </trkpt>
      <trkpt lat="45.15598" lon="0.64449">
        <ele>107.4</ele>
        <time>2025-06-15T09:37:01Z</time>
      </trkpt>
      <trkpt lat="45.156" lon="0.6445">
        <ele>107.4</ele>
        <time>2025-06-15T09:37:02Z</time>
      </trkpt>
      <trkpt lat="45.15601" lon="0.64451">
        <ele>107.2</ele>
        <time>2025-06-15T09:37:03Z</time>
      </trkpt>
      <trkpt lat="45.15602" lon="0.64452">
        <ele>107.2</ele>
        <time>2025-06-15T09:37:04Z</time>
      </trkpt>
      <trkpt lat="45.15603" lon="0.64452">
        <ele>107.2</ele>
        <time>2025-06-15T09:37:05Z</time>
      </trkpt>
      <trkpt lat="45.15604" lon="0.64454">
        <ele>107.2</ele>
        <time>2025-06-15T09:37:06Z</time>
      </trkpt>
      <trkpt lat="45.15606" lon="0.64455">
        <ele>107.2</ele>
        <time>2025-06-15T09:37:07Z</time>
      </trkpt>
      <trkpt lat="45.15607" lon="0.64456">
        <ele>107</ele>
        <time>2025-06-15T09:37:08Z</time>
      </trkpt>
      <trkpt lat="45.15609" lon="0.64457">
        <ele>107</ele>
        <time>2025-06-15T09:37:09Z</time>
      </trkpt>
      <trkpt lat="45.15611" lon="0.64458">
        <ele>107</ele>
        <time>2025-06-15T09:37:10Z</time>
      </trkpt>
      <trkpt lat="45.15612" lon="0.64459">
        <ele>107</ele>
        <time>2025-06-15T09:37:11Z</time>
      </trkpt>
      <trkpt lat="45.15614" lon="0.6446">
        <ele>107</ele>
        <time>2025-06-15T09:37:12Z</time>
      </trkpt>
      <trkpt lat="45.15615" lon="0.64462">
        <ele>107</ele>
        <time>2025-06-15T09:37:13Z</time>
      </trkpt>
      <trkpt lat="45.15617" lon="0.64463">
        <ele>107</ele>
        <time>2025-06-15T09:37:14Z</time>
      </trkpt>
      <trkpt lat="45.15618" lon="0.64464">
        <ele>107</ele>
        <time>2025-06-15T09:37:15Z</time>
      </trkpt>
      <trkpt lat="45.1562" lon="0.64466">
        <ele>107</ele>
        <time>2025-06-15T09:37:16Z</time>
      </trkpt>
      <trkpt lat="45.15621" lon="0.64467">
        <ele>107</ele>
        <time>2025-06-15T09:37:17Z</time>
      </trkpt>
      <trkpt lat="45.15623" lon="0.64468">
        <ele>106.8</ele>
        <time>2025-06-15T09:37:18Z</time>
      </trkpt>
      <trkpt lat="45.15624" lon="0.64469">
        <ele>106.8</ele>
        <time>2025-06-15T09:37:19Z</time>
      </trkpt>
      <trkpt lat="45.15626" lon="0.6447">
        <ele>106.8</ele>
        <time>2025-06-15T09:37:20Z</time>
      </trkpt>
      <trkpt lat="45.15628" lon="0.64471">
        <ele>106.8</ele>
        <time>2025-06-15T09:37:21Z</time>
      </trkpt>
      <trkpt lat="45.15629" lon="0.64473">
        <ele>106.8</ele>
        <time>2025-06-15T09:37:22Z</time>
      </trkpt>
      <trkpt lat="45.15631" lon="0.64474">
        <ele>106.8</ele>
        <time>2025-06-15T09:37:23Z</time>
      </trkpt>
      <trkpt lat="45.15632" lon="0.64475">
        <ele>106.8</ele>
        <time>2025-06-15T09:37:24Z</time>
      </trkpt>
      <trkpt lat="45.15634" lon="0.64476">
        <ele>106.8</ele>
        <time>2025-06-15T09:37:25Z</time>
      </trkpt>
      <trkpt lat="45.15635" lon="0.64477">
        <ele>106.8</ele>
        <time>2025-06-15T09:37:26Z</time>
      </trkpt>
      <trkpt lat="45.15637" lon="0.64478">
        <ele>106.8</ele>
        <time>2025-06-15T09:37:27Z</time>
      </trkpt>
      <trkpt lat="45.15638" lon="0.6448">
        <ele>106.8</ele>
        <time>2025-06-15T09:37:28Z</time>
      </trkpt>
      <trkpt lat="45.1564" lon="0.64481">
        <ele>107</ele>
        <time>2025-06-15T09:37:29Z</time>
      </trkpt>
      <trkpt lat="45.15642" lon="0.64482">
        <ele>107</ele>
        <time>2025-06-15T09:37:30Z</time>
      </trkpt>
      <trkpt lat="45.15644" lon="0.64483">
        <ele>107</ele>
        <time>2025-06-15T09:37:31Z</time>
      </trkpt>
      <trkpt lat="45.15645" lon="0.64485">
        <ele>107</ele>
        <time>2025-06-15T09:37:32Z</time>
      </trkpt>
      <trkpt lat="45.15647" lon="0.64486">
        <ele>107</ele>
        <time>2025-06-15T09:37:33Z</time>
      </trkpt>
      <trkpt lat="45.15648" lon="0.64487">
        <ele>107</ele>
        <time>2025-06-15T09:37:34Z</time>
      </trkpt>
      <trkpt lat="45.1565" lon="0.64489">
        <ele>107</ele>
        <time>2025-06-15T09:37:35Z</time>
      </trkpt>
      <trkpt lat="45.15651" lon="0.6449">
        <ele>107</ele>
        <time>2025-06-15T09:37:36Z</time>
      </trkpt>
      <trkpt lat="45.15653" lon="0.64491">
        <ele>107</ele>
        <time>2025-06-15T09:37:37Z</time>
      </trkpt>
      <trkpt lat="45.15654" lon="0.64492">
        <ele>107</ele>
        <time>2025-06-15T09:37:38Z</time>
      </trkpt>
      <trkpt lat="45.15656" lon="0.64493">
        <ele>107</ele>
        <time>2025-06-15T09:37:39Z</time>
      </trkpt>
      <trkpt lat="45.15657" lon="0.64494">
        <ele>107</ele>
        <time>2025-06-15T09:37:40Z</time>
      </trkpt>
      <trkpt lat="45.15658" lon="0.64495">
        <ele>107.2</ele>
        <time>2025-06-15T09:37:41Z</time>
      </trkpt>
      <trkpt lat="45.15659" lon="0.64496">
        <ele>107.2</ele>
        <time>2025-06-15T09:37:42Z</time>
      </trkpt>
      <trkpt lat="45.15661" lon="0.64497">
        <ele>107.2</ele>
        <time>2025-06-15T09:37:43Z</time>
      </trkpt>
      <trkpt lat="45.15662" lon="0.64498">
        <ele>107.2</ele>
        <time>2025-06-15T09:37:44Z</time>
      </trkpt>
      <trkpt lat="45.15663" lon="0.645">
        <ele>107.2</ele>
        <time>2025-06-15T09:37:45Z</time>
      </trkpt>
      <trkpt lat="45.15664" lon="0.645">
        <ele>107.2</ele>
        <time>2025-06-15T09:37:46Z</time>
      </trkpt>
      <trkpt lat="45.15665" lon="0.64502">
        <ele>107.2</ele>
        <time>2025-06-15T09:37:47Z</time>
      </trkpt>
      <trkpt lat="45.15667" lon="0.64503">
        <ele>107.2</ele>
        <time>2025-06-15T09:37:48Z</time>
      </trkpt>
      <trkpt lat="45.15668" lon="0.64504">
        <ele>107.2</ele>
        <time>2025-06-15T09:37:49Z</time>
      </trkpt>
      <trkpt lat="45.15669" lon="0.64505">
        <ele>107.2</ele>
        <time>2025-06-15T09:37:50Z</time>
      </trkpt>
      <trkpt lat="45.15671" lon="0.64506">
        <ele>107.2</ele>
        <time>2025-06-15T09:37:51Z</time>
      </trkpt>
      <trkpt lat="45.15672" lon="0.64506">
        <ele>107.2</ele>
        <time>2025-06-15T09:37:52Z</time>
      </trkpt>
      <trkpt lat="45.15673" lon="0.64508">
        <ele>107.2</ele>
        <time>2025-06-15T09:37:53Z</time>
      </trkpt>
      <trkpt lat="45.15674" lon="0.64508">
        <ele>107.2</ele>
        <time>2025-06-15T09:37:54Z</time>
      </trkpt>
      <trkpt lat="45.15675" lon="0.6451">
        <ele>107.2</ele>
        <time>2025-06-15T09:37:55Z</time>
      </trkpt>
      <trkpt lat="45.15677" lon="0.64511">
        <ele>107.2</ele>
        <time>2025-06-15T09:37:56Z</time>
      </trkpt>
      <trkpt lat="45.15678" lon="0.64511">
        <ele>107.2</ele>
        <time>2025-06-15T09:37:57Z</time>
      </trkpt>
      <trkpt lat="45.15679" lon="0.64512">
        <ele>107.2</ele>
        <time>2025-06-15T09:37:58Z</time>
      </trkpt>
      <trkpt lat="45.15681" lon="0.64513">
        <ele>107.2</ele>
        <time>2025-06-15T09:37:59Z</time>
      </trkpt>
      <trkpt lat="45.15682" lon="0.64514">
        <ele>107.2</ele>
        <time>2025-06-15T09:38:00Z</time>
      </trkpt>
      <trkpt lat="45.15683" lon="0.64515">
        <ele>107.2</ele>
        <time>2025-06-15T09:38:01Z</time>
      </trkpt>
      <trkpt lat="45.15685" lon="0.64516">
        <ele>107.2</ele>
        <time>2025-06-15T09:38:02Z</time>
      </trkpt>
      <trkpt lat="45.15686" lon="0.64517">
        <ele>107.2</ele>
        <time>2025-06-15T09:38:03Z</time>
      </trkpt>
      <trkpt lat="45.15687" lon="0.64518">
        <ele>107</ele>
        <time>2025-06-15T09:38:04Z</time>
      </trkpt>
      <trkpt lat="45.15688" lon="0.64519">
        <ele>107</ele>
        <time>2025-06-15T09:38:05Z</time>
      </trkpt>
      <trkpt lat="45.1569" lon="0.6452">
        <ele>107</ele>
        <time>2025-06-15T09:38:06Z</time>
      </trkpt>
      <trkpt lat="45.15691" lon="0.64521">
        <ele>107</ele>
        <time>2025-06-15T09:38:07Z</time>
      </trkpt>
      <trkpt lat="45.15692" lon="0.64522">
        <ele>107.2</ele>
        <time>2025-06-15T09:38:08Z</time>
      </trkpt>
      <trkpt lat="45.15694" lon="0.64523">
        <ele>107.2</ele>
        <time>2025-06-15T09:38:09Z</time>
      </trkpt>
      <trkpt lat="45.15695" lon="0.64524">
        <ele>107.2</ele>
        <time>2025-06-15T09:38:10Z</time>
      </trkpt>
      <trkpt lat="45.15696" lon="0.64525">
        <ele>107.2</ele>
        <time>2025-06-15T09:38:11Z</time>
      </trkpt>
      <trkpt lat="45.15697" lon="0.64526">
        <ele>107.2</ele>
        <time>2025-06-15T09:38:12Z</time>
      </trkpt>
      <trkpt lat="45.15699" lon="0.64527">
        <ele>107.2</ele>
        <time>2025-06-15T09:38:13Z</time>
      </trkpt>
      <trkpt lat="45.157" lon="0.64528">
        <ele>107.2</ele>
        <time>2025-06-15T09:38:14Z</time>
      </trkpt>
      <trkpt lat="45.15701" lon="0.64529">
        <ele>107.2</ele>
        <time>2025-06-15T09:38:15Z</time>
      </trkpt>
      <trkpt lat="45.15702" lon="0.6453">
        <ele>107.2</ele>
        <time>2025-06-15T09:38:16Z</time>
      </trkpt>
      <trkpt lat="45.15704" lon="0.64531">
        <ele>107.2</ele>
        <time>2025-06-15T09:38:17Z</time>
      </trkpt>
      <trkpt lat="45.15705" lon="0.64532">
        <ele>107.2</ele>
        <time>2025-06-15T09:38:18Z</time>
      </trkpt>
      <trkpt lat="45.15706" lon="0.64533">
        <ele>107.2</ele>
        <time>2025-06-15T09:38:19Z</time>
      </trkpt>
      <trkpt lat="45.15708" lon="0.64534">
        <ele>107.2</ele>
        <time>2025-06-15T09:38:20Z</time>
      </trkpt>
      <trkpt lat="45.15709" lon="0.64535">
        <ele>107.2</ele>
        <time>2025-06-15T09:38:21Z</time>
      </trkpt>
      <trkpt lat="45.1571" lon="0.64536">
        <ele>107</ele>
        <time>2025-06-15T09:38:22Z</time>
      </trkpt>
      <trkpt lat="45.15711" lon="0.64537">
        <ele>107.2</ele>
        <time>2025-06-15T09:38:23Z</time>
      </trkpt>
      <trkpt lat="45.15712" lon="0.64538">
        <ele>107.2</ele>
        <time>2025-06-15T09:38:24Z</time>
      </trkpt>
      <trkpt lat="45.15714" lon="0.64539">
        <ele>107.2</ele>
        <time>2025-06-15T09:38:25Z</time>
      </trkpt>
      <trkpt lat="45.15715" lon="0.6454">
        <ele>107.2</ele>
        <time>2025-06-15T09:38:26Z</time>
      </trkpt>
      <trkpt lat="45.15716" lon="0.64541">
        <ele>107.2</ele>
        <time>2025-06-15T09:38:27Z</time>
      </trkpt>
      <trkpt lat="45.15717" lon="0.64542">
        <ele>107.2</ele>
        <time>2025-06-15T09:38:28Z</time>
      </trkpt>
      <trkpt lat="45.15719" lon="0.64542">
        <ele>107.2</ele>
        <time>2025-06-15T09:38:29Z</time>
      </trkpt>
      <trkpt lat="45.1572" lon="0.64543">
        <ele>107.2</ele>
        <time>2025-06-15T09:38:30Z</time>
      </trkpt>
      <trkpt lat="45.15721" lon="0.64544">
        <ele>107.2</ele>
        <time>2025-06-15T09:38:31Z</time>
      </trkpt>
      <trkpt lat="45.15722" lon="0.64544">
        <ele>107.2</ele>
        <time>2025-06-15T09:38:32Z</time>
      </trkpt>
      <trkpt lat="45.15723" lon="0.64545">
        <ele>107.2</ele>
        <time>2025-06-15T09:38:33Z</time>
      </trkpt>
      <trkpt lat="45.15725" lon="0.64547">
        <ele>107.2</ele>
        <time>2025-06-15T09:38:34Z</time>
      </trkpt>
      <trkpt lat="45.15726" lon="0.64548">
        <ele>107.2</ele>
        <time>2025-06-15T09:38:35Z</time>
      </trkpt>
      <trkpt lat="45.15727" lon="0.64548">
        <ele>107.2</ele>
        <time>2025-06-15T09:38:36Z</time>
      </trkpt>
      <trkpt lat="45.15729" lon="0.64549">
        <ele>107.2</ele>
        <time>2025-06-15T09:38:37Z</time>
      </trkpt>
      <trkpt lat="45.1573" lon="0.6455">
        <ele>107.2</ele>
        <time>2025-06-15T09:38:38Z</time>
      </trkpt>
      <trkpt lat="45.15731" lon="0.64551">
        <ele>107.2</ele>
        <time>2025-06-15T09:38:39Z</time>
      </trkpt>
      <trkpt lat="45.15732" lon="0.64552">
        <ele>107.2</ele>
        <time>2025-06-15T09:38:40Z</time>
      </trkpt>
      <trkpt lat="45.15733" lon="0.64553">
        <ele>107.2</ele>
        <time>2025-06-15T09:38:41Z</time>
      </trkpt>
      <trkpt lat="45.15734" lon="0.64554">
        <ele>107.2</ele>
        <time>2025-06-15T09:38:42Z</time>
      </trkpt>
      <trkpt lat="45.15735" lon="0.64555">
        <ele>107.2</ele>
        <time>2025-06-15T09:38:43Z</time>
      </trkpt>
      <trkpt lat="45.15737" lon="0.64556">
        <ele>107.2</ele>
        <time>2025-06-15T09:38:44Z</time>
      </trkpt>
      <trkpt lat="45.15738" lon="0.64557">
        <ele>107.2</ele>
        <time>2025-06-15T09:38:45Z</time>
      </trkpt>
      <trkpt lat="45.15739" lon="0.64558">
        <ele>107.2</ele>
        <time>2025-06-15T09:38:46Z</time>
      </trkpt>
      <trkpt lat="45.1574" lon="0.64559">
        <ele>107.2</ele>
        <time>2025-06-15T09:38:47Z</time>
      </trkpt>
      <trkpt lat="45.15741" lon="0.64559">
        <ele>107.2</ele>
        <time>2025-06-15T09:38:48Z</time>
      </trkpt>
      <trkpt lat="45.15742" lon="0.6456">
        <ele>107</ele>
        <time>2025-06-15T09:38:49Z</time>
      </trkpt>
      <trkpt lat="45.15744" lon="0.64562">
        <ele>107</ele>
        <time>2025-06-15T09:38:50Z</time>
      </trkpt>
      <trkpt lat="45.15745" lon="0.64563">
        <ele>107</ele>
        <time>2025-06-15T09:38:51Z</time>
      </trkpt>
      <trkpt lat="45.15746" lon="0.64564">
        <ele>107</ele>
        <time>2025-06-15T09:38:52Z</time>
      </trkpt>
      <trkpt lat="45.15747" lon="0.64565">
        <ele>107</ele>
        <time>2025-06-15T09:38:53Z</time>
      </trkpt>
      <trkpt lat="45.15748" lon="0.64566">
        <ele>107</ele>
        <time>2025-06-15T09:38:54Z</time>
      </trkpt>
      <trkpt lat="45.15749" lon="0.64566">
        <ele>107</ele>
        <time>2025-06-15T09:38:55Z</time>
      </trkpt>
      <trkpt lat="45.1575" lon="0.64567">
        <ele>107</ele>
        <time>2025-06-15T09:38:56Z</time>
      </trkpt>
      <trkpt lat="45.15752" lon="0.64568">
        <ele>107</ele>
        <time>2025-06-15T09:38:57Z</time>
      </trkpt>
      <trkpt lat="45.15753" lon="0.64568">
        <ele>107</ele>
        <time>2025-06-15T09:38:58Z</time>
      </trkpt>
      <trkpt lat="45.15754" lon="0.64569">
        <ele>107</ele>
        <time>2025-06-15T09:38:59Z</time>
      </trkpt>
      <trkpt lat="45.15755" lon="0.6457">
        <ele>107</ele>
        <time>2025-06-15T09:39:00Z</time>
      </trkpt>
      <trkpt lat="45.15756" lon="0.64571">
        <ele>107</ele>
        <time>2025-06-15T09:39:01Z</time>
      </trkpt>
      <trkpt lat="45.15757" lon="0.64572">
        <ele>107</ele>
        <time>2025-06-15T09:39:02Z</time>
      </trkpt>
      <trkpt lat="45.15759" lon="0.64573">
        <ele>107</ele>
        <time>2025-06-15T09:39:03Z</time>
      </trkpt>
      <trkpt lat="45.1576" lon="0.64574">
        <ele>107</ele>
        <time>2025-06-15T09:39:04Z</time>
      </trkpt>
      <trkpt lat="45.15761" lon="0.64575">
        <ele>107</ele>
        <time>2025-06-15T09:39:05Z</time>
      </trkpt>
      <trkpt lat="45.15762" lon="0.64576">
        <ele>107</ele>
        <time>2025-06-15T09:39:06Z</time>
      </trkpt>
      <trkpt lat="45.15764" lon="0.64577">
        <ele>107</ele>
        <time>2025-06-15T09:39:07Z</time>
      </trkpt>
      <trkpt lat="45.15765" lon="0.64578">
        <ele>107</ele>
        <time>2025-06-15T09:39:08Z</time>
      </trkpt>
      <trkpt lat="45.15766" lon="0.64579">
        <ele>107</ele>
        <time>2025-06-15T09:39:09Z</time>
      </trkpt>
      <trkpt lat="45.15768" lon="0.64579">
        <ele>107</ele>
        <time>2025-06-15T09:39:10Z</time>
      </trkpt>
      <trkpt lat="45.15769" lon="0.6458">
        <ele>107</ele>
        <time>2025-06-15T09:39:11Z</time>
      </trkpt>
      <trkpt lat="45.1577" lon="0.64581">
        <ele>107</ele>
        <time>2025-06-15T09:39:12Z</time>
      </trkpt>
      <trkpt lat="45.15771" lon="0.64582">
        <ele>107</ele>
        <time>2025-06-15T09:39:13Z</time>
      </trkpt>
      <trkpt lat="45.15772" lon="0.64582">
        <ele>107</ele>
        <time>2025-06-15T09:39:14Z</time>
      </trkpt>
      <trkpt lat="45.15773" lon="0.64583">
        <ele>107</ele>
        <time>2025-06-15T09:39:15Z</time>
      </trkpt>
      <trkpt lat="45.15774" lon="0.64584">
        <ele>106.8</ele>
        <time>2025-06-15T09:39:16Z</time>
      </trkpt>
      <trkpt lat="45.15775" lon="0.64585">
        <ele>106.8</ele>
        <time>2025-06-15T09:39:17Z</time>
      </trkpt>
      <trkpt lat="45.15776" lon="0.64586">
        <ele>106.8</ele>
        <time>2025-06-15T09:39:18Z</time>
      </trkpt>
      <trkpt lat="45.15777" lon="0.64588">
        <ele>106.6</ele>
        <time>2025-06-15T09:39:19Z</time>
      </trkpt>
      <trkpt lat="45.15779" lon="0.64588">
        <ele>106.6</ele>
        <time>2025-06-15T09:39:20Z</time>
      </trkpt>
      <trkpt lat="45.1578" lon="0.64589">
        <ele>106.6</ele>
        <time>2025-06-15T09:39:21Z</time>
      </trkpt>
      <trkpt lat="45.15781" lon="0.6459">
        <ele>106.8</ele>
        <time>2025-06-15T09:39:22Z</time>
      </trkpt>
      <trkpt lat="45.15782" lon="0.6459">
        <ele>106.8</ele>
        <time>2025-06-15T09:39:23Z</time>
      </trkpt>
      <trkpt lat="45.15783" lon="0.64591">
        <ele>106.8</ele>
        <time>2025-06-15T09:39:24Z</time>
      </trkpt>
      <trkpt lat="45.15784" lon="0.64592">
        <ele>106.8</ele>
        <time>2025-06-15T09:39:25Z</time>
      </trkpt>
      <trkpt lat="45.15785" lon="0.64593">
        <ele>106.8</ele>
        <time>2025-06-15T09:39:26Z</time>
      </trkpt>
      <trkpt lat="45.15786" lon="0.64594">
        <ele>106.8</ele>
        <time>2025-06-15T09:39:27Z</time>
      </trkpt>
      <trkpt lat="45.15787" lon="0.64595">
        <ele>106.8</ele>
        <time>2025-06-15T09:39:28Z</time>
      </trkpt>
      <trkpt lat="45.15788" lon="0.64596">
        <ele>107</ele>
        <time>2025-06-15T09:39:29Z</time>
      </trkpt>
      <trkpt lat="45.15789" lon="0.64597">
        <ele>107</ele>
        <time>2025-06-15T09:39:30Z</time>
      </trkpt>
      <trkpt lat="45.1579" lon="0.64598">
        <ele>107</ele>
        <time>2025-06-15T09:39:31Z</time>
      </trkpt>
      <trkpt lat="45.15791" lon="0.64599">
        <ele>107</ele>
        <time>2025-06-15T09:39:32Z</time>
      </trkpt>
      <trkpt lat="45.15792" lon="0.646">
        <ele>107</ele>
        <time>2025-06-15T09:39:33Z</time>
      </trkpt>
      <trkpt lat="45.15793" lon="0.646">
        <ele>107</ele>
        <time>2025-06-15T09:39:34Z</time>
      </trkpt>
      <trkpt lat="45.15795" lon="0.64601">
        <ele>107</ele>
        <time>2025-06-15T09:39:35Z</time>
      </trkpt>
      <trkpt lat="45.15796" lon="0.64602">
        <ele>107</ele>
        <time>2025-06-15T09:39:36Z</time>
      </trkpt>
      <trkpt lat="45.15797" lon="0.64602">
        <ele>107</ele>
        <time>2025-06-15T09:39:37Z</time>
      </trkpt>
      <trkpt lat="45.15798" lon="0.64603">
        <ele>107</ele>
        <time>2025-06-15T09:39:38Z</time>
      </trkpt>
      <trkpt lat="45.15799" lon="0.64604">
        <ele>107</ele>
        <time>2025-06-15T09:39:39Z</time>
      </trkpt>
      <trkpt lat="45.15801" lon="0.64605">
        <ele>107.2</ele>
        <time>2025-06-15T09:39:40Z</time>
      </trkpt>
      <trkpt lat="45.15802" lon="0.64606">
        <ele>107.2</ele>
        <time>2025-06-15T09:39:41Z</time>
      </trkpt>
      <trkpt lat="45.15803" lon="0.64607">
        <ele>107.2</ele>
        <time>2025-06-15T09:39:42Z</time>
      </trkpt>
      <trkpt lat="45.15804" lon="0.64608">
        <ele>107.2</ele>
        <time>2025-06-15T09:39:43Z</time>
      </trkpt>
      <trkpt lat="45.15805" lon="0.6461">
        <ele>107.4</ele>
        <time>2025-06-15T09:39:44Z</time>
      </trkpt>
      <trkpt lat="45.15806" lon="0.64611">
        <ele>107.4</ele>
        <time>2025-06-15T09:39:45Z</time>
      </trkpt>
      <trkpt lat="45.15807" lon="0.64613">
        <ele>107.4</ele>
        <time>2025-06-15T09:39:46Z</time>
      </trkpt>
      <trkpt lat="45.15808" lon="0.64614">
        <ele>107.4</ele>
        <time>2025-06-15T09:39:47Z</time>
      </trkpt>
      <trkpt lat="45.1581" lon="0.64615">
        <ele>107.4</ele>
        <time>2025-06-15T09:39:48Z</time>
      </trkpt>
      <trkpt lat="45.15811" lon="0.64616">
        <ele>107.4</ele>
        <time>2025-06-15T09:39:49Z</time>
      </trkpt>
      <trkpt lat="45.15811" lon="0.64617">
        <ele>107.4</ele>
        <time>2025-06-15T09:39:50Z</time>
      </trkpt>
      <trkpt lat="45.15813" lon="0.64618">
        <ele>107.6</ele>
        <time>2025-06-15T09:39:51Z</time>
      </trkpt>
      <trkpt lat="45.15814" lon="0.64619">
        <ele>107.6</ele>
        <time>2025-06-15T09:39:52Z</time>
      </trkpt>
      <trkpt lat="45.15815" lon="0.6462">
        <ele>107.6</ele>
        <time>2025-06-15T09:39:53Z</time>
      </trkpt>
      <trkpt lat="45.15816" lon="0.6462">
        <ele>107.6</ele>
        <time>2025-06-15T09:39:54Z</time>
      </trkpt>
      <trkpt lat="45.15816" lon="0.64621">
        <ele>107.8</ele>
        <time>2025-06-15T09:39:55Z</time>
      </trkpt>
      <trkpt lat="45.15817" lon="0.64622">
        <ele>107.8</ele>
        <time>2025-06-15T09:39:56Z</time>
      </trkpt>
      <trkpt lat="45.15818" lon="0.64624">
        <ele>107.8</ele>
        <time>2025-06-15T09:39:57Z</time>
      </trkpt>
      <trkpt lat="45.15819" lon="0.64625">
        <ele>108</ele>
        <time>2025-06-15T09:39:58Z</time>
      </trkpt>
      <trkpt lat="45.1582" lon="0.64626">
        <ele>108</ele>
        <time>2025-06-15T09:39:59Z</time>
      </trkpt>
      <trkpt lat="45.15821" lon="0.64627">
        <ele>108.2</ele>
        <time>2025-06-15T09:40:00Z</time>
      </trkpt>
      <trkpt lat="45.15822" lon="0.64628">
        <ele>108.2</ele>
        <time>2025-06-15T09:40:01Z</time>
      </trkpt>
      <trkpt lat="45.15824" lon="0.64628">
        <ele>108.2</ele>
        <time>2025-06-15T09:40:02Z</time>
      </trkpt>
      <trkpt lat="45.15825" lon="0.64629">
        <ele>108.4</ele>
        <time>2025-06-15T09:40:03Z</time>
      </trkpt>
      <trkpt lat="45.15826" lon="0.64629">
        <ele>108.4</ele>
        <time>2025-06-15T09:40:04Z</time>
      </trkpt>
      <trkpt lat="45.15827" lon="0.6463">
        <ele>108.6</ele>
        <time>2025-06-15T09:40:05Z</time>
      </trkpt>
      <trkpt lat="45.15829" lon="0.64631">
        <ele>108.8</ele>
        <time>2025-06-15T09:40:06Z</time>
      </trkpt>
      <trkpt lat="45.1583" lon="0.64632">
        <ele>108.8</ele>
        <time>2025-06-15T09:40:07Z</time>
      </trkpt>
      <trkpt lat="45.15831" lon="0.64633">
        <ele>109</ele>
        <time>2025-06-15T09:40:08Z</time>
      </trkpt>
      <trkpt lat="45.15832" lon="0.64634">
        <ele>109.2</ele>
        <time>2025-06-15T09:40:09Z</time>
      </trkpt>
      <trkpt lat="45.15833" lon="0.64635">
        <ele>109.2</ele>
        <time>2025-06-15T09:40:10Z</time>
      </trkpt>
      <trkpt lat="45.15834" lon="0.64635">
        <ele>109.4</ele>
        <time>2025-06-15T09:40:11Z</time>
      </trkpt>
      <trkpt lat="45.15836" lon="0.64635">
        <ele>109.6</ele>
        <time>2025-06-15T09:40:12Z</time>
      </trkpt>
      <trkpt lat="45.15837" lon="0.64636">
        <ele>109.6</ele>
        <time>2025-06-15T09:40:13Z</time>
      </trkpt>
      <trkpt lat="45.15838" lon="0.64637">
        <ele>109.8</ele>
        <time>2025-06-15T09:40:14Z</time>
      </trkpt>
      <trkpt lat="45.1584" lon="0.64637">
        <ele>110</ele>
        <time>2025-06-15T09:40:15Z</time>
      </trkpt>
      <trkpt lat="45.15842" lon="0.64637">
        <ele>110</ele>
        <time>2025-06-15T09:40:16Z</time>
      </trkpt>
      <trkpt lat="45.15843" lon="0.64636">
        <ele>110.2</ele>
        <time>2025-06-15T09:40:17Z</time>
      </trkpt>
      <trkpt lat="45.15845" lon="0.64635">
        <ele>110.4</ele>
        <time>2025-06-15T09:40:18Z</time>
      </trkpt>
      <trkpt lat="45.15846" lon="0.64633">
        <ele>110.4</ele>
        <time>2025-06-15T09:40:19Z</time>
      </trkpt>
      <trkpt lat="45.15848" lon="0.64633">
        <ele>110.6</ele>
        <time>2025-06-15T09:40:20Z</time>
      </trkpt>
      <trkpt lat="45.15849" lon="0.64632">
        <ele>110.8</ele>
        <time>2025-06-15T09:40:21Z</time>
      </trkpt>
      <trkpt lat="45.15851" lon="0.64631">
        <ele>111</ele>
        <time>2025-06-15T09:40:22Z</time>
      </trkpt>
      <trkpt lat="45.15853" lon="0.6463">
        <ele>111.2</ele>
        <time>2025-06-15T09:40:23Z</time>
      </trkpt>
      <trkpt lat="45.15854" lon="0.6463">
        <ele>111.2</ele>
        <time>2025-06-15T09:40:24Z</time>
      </trkpt>
      <trkpt lat="45.15856" lon="0.64629">
        <ele>111.4</ele>
        <time>2025-06-15T09:40:25Z</time>
      </trkpt>
      <trkpt lat="45.15858" lon="0.64629">
        <ele>111.8</ele>
        <time>2025-06-15T09:40:26Z</time>
      </trkpt>
      <trkpt lat="45.1586" lon="0.64628">
        <ele>111.8</ele>
        <time>2025-06-15T09:40:27Z</time>
      </trkpt>
      <trkpt lat="45.15862" lon="0.64628">
        <ele>112</ele>
        <time>2025-06-15T09:40:28Z</time>
      </trkpt>
      <trkpt lat="45.15864" lon="0.64627">
        <ele>112.2</ele>
        <time>2025-06-15T09:40:29Z</time>
      </trkpt>
      <trkpt lat="45.15866" lon="0.64626">
        <ele>112.4</ele>
        <time>2025-06-15T09:40:30Z</time>
      </trkpt>
      <trkpt lat="45.15868" lon="0.64626">
        <ele>112.4</ele>
        <time>2025-06-15T09:40:31Z</time>
      </trkpt>
      <trkpt lat="45.1587" lon="0.64627">
        <ele>112.6</ele>
        <time>2025-06-15T09:40:32Z</time>
      </trkpt>
      <trkpt lat="45.15872" lon="0.64626">
        <ele>112.8</ele>
        <time>2025-06-15T09:40:33Z</time>
      </trkpt>
      <trkpt lat="45.15874" lon="0.64626">
        <ele>112.8</ele>
        <time>2025-06-15T09:40:34Z</time>
      </trkpt>
      <trkpt lat="45.15875" lon="0.64626">
        <ele>113</ele>
        <time>2025-06-15T09:40:35Z</time>
      </trkpt>
      <trkpt lat="45.15877" lon="0.64626">
        <ele>113</ele>
        <time>2025-06-15T09:40:36Z</time>
      </trkpt>
      <trkpt lat="45.1588" lon="0.64626">
        <ele>113.2</ele>
        <time>2025-06-15T09:40:37Z</time>
      </trkpt>
      <trkpt lat="45.15882" lon="0.64627">
        <ele>113.4</ele>
        <time>2025-06-15T09:40:38Z</time>
      </trkpt>
      <trkpt lat="45.15884" lon="0.64627">
        <ele>113.4</ele>
        <time>2025-06-15T09:40:39Z</time>
      </trkpt>
      <trkpt lat="45.15885" lon="0.64627">
        <ele>113.6</ele>
        <time>2025-06-15T09:40:40Z</time>
      </trkpt>
      <trkpt lat="45.15887" lon="0.64626">
        <ele>113.8</ele>
        <time>2025-06-15T09:40:41Z</time>
      </trkpt>
      <trkpt lat="45.15889" lon="0.64626">
        <ele>113.8</ele>
        <time>2025-06-15T09:40:42Z</time>
      </trkpt>
      <trkpt lat="45.15892" lon="0.64626">
        <ele>114</ele>
        <time>2025-06-15T09:40:43Z</time>
      </trkpt>
      <trkpt lat="45.15894" lon="0.64625">
        <ele>114.2</ele>
        <time>2025-06-15T09:40:44Z</time>
      </trkpt>
      <trkpt lat="45.15896" lon="0.64623">
        <ele>114.2</ele>
        <time>2025-06-15T09:40:45Z</time>
      </trkpt>
      <trkpt lat="45.15898" lon="0.64622">
        <ele>114.4</ele>
        <time>2025-06-15T09:40:46Z</time>
      </trkpt>
      <trkpt lat="45.15899" lon="0.6462">
        <ele>114.6</ele>
        <time>2025-06-15T09:40:47Z</time>
      </trkpt>
      <trkpt lat="45.159" lon="0.64618">
        <ele>114.6</ele>
        <time>2025-06-15T09:40:48Z</time>
      </trkpt>
      <trkpt lat="45.15901" lon="0.64616">
        <ele>114.8</ele>
        <time>2025-06-15T09:40:49Z</time>
      </trkpt>
      <trkpt lat="45.15903" lon="0.64614">
        <ele>115</ele>
        <time>2025-06-15T09:40:50Z</time>
      </trkpt>
      <trkpt lat="45.15904" lon="0.64611">
        <ele>115</ele>
        <time>2025-06-15T09:40:51Z</time>
      </trkpt>
      <trkpt lat="45.15906" lon="0.64609">
        <ele>115.2</ele>
        <time>2025-06-15T09:40:52Z</time>
      </trkpt>
      <trkpt lat="45.15908" lon="0.64608">
        <ele>115.4</ele>
        <time>2025-06-15T09:40:53Z</time>
      </trkpt>
      <trkpt lat="45.15909" lon="0.64606">
        <ele>115.6</ele>
        <time>2025-06-15T09:40:54Z</time>
      </trkpt>
      <trkpt lat="45.15911" lon="0.64603">
        <ele>115.8</ele>
        <time>2025-06-15T09:40:55Z</time>
      </trkpt>
      <trkpt lat="45.15912" lon="0.64601">
        <ele>115.8</ele>
        <time>2025-06-15T09:40:56Z</time>
      </trkpt>
      <trkpt lat="45.15914" lon="0.64599">
        <ele>116</ele>
        <time>2025-06-15T09:40:57Z</time>
      </trkpt>
      <trkpt lat="45.15916" lon="0.64597">
        <ele>116.2</ele>
        <time>2025-06-15T09:40:58Z</time>
      </trkpt>
      <trkpt lat="45.15917" lon="0.64594">
        <ele>116.4</ele>
        <time>2025-06-15T09:40:59Z</time>
      </trkpt>
      <trkpt lat="45.15919" lon="0.64592">
        <ele>116.6</ele>
        <time>2025-06-15T09:41:00Z</time>
      </trkpt>
      <trkpt lat="45.1592" lon="0.64589">
        <ele>116.8</ele>
        <time>2025-06-15T09:41:01Z</time>
      </trkpt>
      <trkpt lat="45.15922" lon="0.64586">
        <ele>117</ele>
        <time>2025-06-15T09:41:02Z</time>
      </trkpt>
      <trkpt lat="45.15924" lon="0.64584">
        <ele>117.2</ele>
        <time>2025-06-15T09:41:03Z</time>
      </trkpt>
      <trkpt lat="45.15925" lon="0.64581">
        <ele>117.2</ele>
        <time>2025-06-15T09:41:04Z</time>
      </trkpt>
      <trkpt lat="45.15927" lon="0.64578">
        <ele>117.4</ele>
        <time>2025-06-15T09:41:05Z</time>
      </trkpt>
      <trkpt lat="45.15928" lon="0.64576">
        <ele>117.6</ele>
        <time>2025-06-15T09:41:06Z</time>
      </trkpt>
      <trkpt lat="45.1593" lon="0.64573">
        <ele>117.6</ele>
        <time>2025-06-15T09:41:07Z</time>
      </trkpt>
      <trkpt lat="45.15931" lon="0.64571">
        <ele>117.8</ele>
        <time>2025-06-15T09:41:08Z</time>
      </trkpt>
      <trkpt lat="45.15933" lon="0.64568">
        <ele>118</ele>
        <time>2025-06-15T09:41:09Z</time>
      </trkpt>
      <trkpt lat="45.15934" lon="0.64566">
        <ele>118.2</ele>
        <time>2025-06-15T09:41:10Z</time>
      </trkpt>
      <trkpt lat="45.15935" lon="0.64563">
        <ele>118.2</ele>
        <time>2025-06-15T09:41:11Z</time>
      </trkpt>
      <trkpt lat="45.15937" lon="0.64559">
        <ele>118.4</ele>
        <time>2025-06-15T09:41:12Z</time>
      </trkpt>
      <trkpt lat="45.15939" lon="0.64556">
        <ele>118.6</ele>
        <time>2025-06-15T09:41:13Z</time>
      </trkpt>
      <trkpt lat="45.15941" lon="0.64554">
        <ele>118.6</ele>
        <time>2025-06-15T09:41:14Z</time>
      </trkpt>
      <trkpt lat="45.15942" lon="0.64553">
        <ele>118.8</ele>
        <time>2025-06-15T09:41:15Z</time>
      </trkpt>
      <trkpt lat="45.15944" lon="0.64552">
        <ele>119</ele>
        <time>2025-06-15T09:41:16Z</time>
      </trkpt>
      <trkpt lat="45.15946" lon="0.64549">
        <ele>119</ele>
        <time>2025-06-15T09:41:17Z</time>
      </trkpt>
      <trkpt lat="45.15947" lon="0.64547">
        <ele>119.2</ele>
        <time>2025-06-15T09:41:18Z</time>
      </trkpt>
      <trkpt lat="45.15948" lon="0.64544">
        <ele>119.2</ele>
        <time>2025-06-15T09:41:19Z</time>
      </trkpt>
      <trkpt lat="45.15951" lon="0.64541">
        <ele>119.4</ele>
        <time>2025-06-15T09:41:20Z</time>
      </trkpt>
      <trkpt lat="45.15952" lon="0.64538">
        <ele>119.6</ele>
        <time>2025-06-15T09:41:21Z</time>
      </trkpt>
      <trkpt lat="45.15954" lon="0.64535">
        <ele>119.8</ele>
        <time>2025-06-15T09:41:22Z</time>
      </trkpt>
      <trkpt lat="45.15956" lon="0.64531">
        <ele>119.8</ele>
        <time>2025-06-15T09:41:23Z</time>
      </trkpt>
      <trkpt lat="45.15958" lon="0.64528">
        <ele>120</ele>
        <time>2025-06-15T09:41:24Z</time>
      </trkpt>
      <trkpt lat="45.1596" lon="0.64525">
        <ele>120.4</ele>
        <time>2025-06-15T09:41:25Z</time>
      </trkpt>
      <trkpt lat="45.15962" lon="0.64523">
        <ele>120.4</ele>
        <time>2025-06-15T09:41:26Z</time>
      </trkpt>
      <trkpt lat="45.15964" lon="0.6452">
        <ele>120.6</ele>
        <time>2025-06-15T09:41:27Z</time>
      </trkpt>
      <trkpt lat="45.15966" lon="0.64517">
        <ele>120.8</ele>
        <time>2025-06-15T09:41:28Z</time>
      </trkpt>
      <trkpt lat="45.15967" lon="0.64514">
        <ele>121</ele>
        <time>2025-06-15T09:41:29Z</time>
      </trkpt>
      <trkpt lat="45.15969" lon="0.64511">
        <ele>121</ele>
        <time>2025-06-15T09:41:30Z</time>
      </trkpt>
      <trkpt lat="45.1597" lon="0.64508">
        <ele>121.2</ele>
        <time>2025-06-15T09:41:31Z</time>
      </trkpt>
      <trkpt lat="45.15972" lon="0.64504">
        <ele>121.4</ele>
        <time>2025-06-15T09:41:32Z</time>
      </trkpt>
      <trkpt lat="45.15974" lon="0.64501">
        <ele>121.4</ele>
        <time>2025-06-15T09:41:33Z</time>
      </trkpt>
      <trkpt lat="45.15976" lon="0.64498">
        <ele>121.6</ele>
        <time>2025-06-15T09:41:34Z</time>
      </trkpt>
      <trkpt lat="45.15978" lon="0.64495">
        <ele>121.8</ele>
        <time>2025-06-15T09:41:35Z</time>
      </trkpt>
      <trkpt lat="45.1598" lon="0.64492">
        <ele>121.8</ele>
        <time>2025-06-15T09:41:36Z</time>
      </trkpt>
      <trkpt lat="45.15982" lon="0.64489">
        <ele>122</ele>
        <time>2025-06-15T09:41:37Z</time>
      </trkpt>
      <trkpt lat="45.15983" lon="0.64486">
        <ele>122</ele>
        <time>2025-06-15T09:41:38Z</time>
      </trkpt>
      <trkpt lat="45.15985" lon="0.64483">
        <ele>122.2</ele>
        <time>2025-06-15T09:41:39Z</time>
      </trkpt>
      <trkpt lat="45.15987" lon="0.6448">
        <ele>122.4</ele>
        <time>2025-06-15T09:41:40Z</time>
      </trkpt>
      <trkpt lat="45.15988" lon="0.64476">
        <ele>122.6</ele>
        <time>2025-06-15T09:41:41Z</time>
      </trkpt>
      <trkpt lat="45.1599" lon="0.64473">
        <ele>122.6</ele>
        <time>2025-06-15T09:41:42Z</time>
      </trkpt>
      <trkpt lat="45.15992" lon="0.6447">
        <ele>122.8</ele>
        <time>2025-06-15T09:41:43Z</time>
      </trkpt>
      <trkpt lat="45.15994" lon="0.64467">
        <ele>122.8</ele>
        <time>2025-06-15T09:41:44Z</time>
      </trkpt>
      <trkpt lat="45.15996" lon="0.64464">
        <ele>123</ele>
        <time>2025-06-15T09:41:45Z</time>
      </trkpt>
      <trkpt lat="45.15998" lon="0.6446">
        <ele>123</ele>
        <time>2025-06-15T09:41:46Z</time>
      </trkpt>
      <trkpt lat="45.16" lon="0.64457">
        <ele>123.2</ele>
        <time>2025-06-15T09:41:47Z</time>
      </trkpt>
      <trkpt lat="45.16002" lon="0.64454">
        <ele>123.2</ele>
        <time>2025-06-15T09:41:48Z</time>
      </trkpt>
      <trkpt lat="45.16004" lon="0.64451">
        <ele>123.4</ele>
        <time>2025-06-15T09:41:49Z</time>
      </trkpt>
      <trkpt lat="45.16006" lon="0.64448">
        <ele>123.4</ele>
        <time>2025-06-15T09:41:50Z</time>
      </trkpt>
      <trkpt lat="45.16007" lon="0.64445">
        <ele>123.6</ele>
        <time>2025-06-15T09:41:51Z</time>
      </trkpt>
      <trkpt lat="45.16009" lon="0.64443">
        <ele>123.6</ele>
        <time>2025-06-15T09:41:52Z</time>
      </trkpt>
      <trkpt lat="45.1601" lon="0.6444">
        <ele>123.8</ele>
        <time>2025-06-15T09:41:53Z</time>
      </trkpt>
      <trkpt lat="45.16013" lon="0.64436">
        <ele>123.8</ele>
        <time>2025-06-15T09:41:54Z</time>
      </trkpt>
      <trkpt lat="45.16014" lon="0.64433">
        <ele>124</ele>
        <time>2025-06-15T09:41:55Z</time>
      </trkpt>
      <trkpt lat="45.16016" lon="0.6443">
        <ele>124</ele>
        <time>2025-06-15T09:41:56Z</time>
      </trkpt>
      <trkpt lat="45.16018" lon="0.64426">
        <ele>124</ele>
        <time>2025-06-15T09:41:57Z</time>
      </trkpt>
      <trkpt lat="45.16021" lon="0.64422">
        <ele>124.2</ele>
        <time>2025-06-15T09:41:58Z</time>
      </trkpt>
      <trkpt lat="45.16023" lon="0.64418">
        <ele>124.2</ele>
        <time>2025-06-15T09:41:59Z</time>
      </trkpt>
      <trkpt lat="45.16025" lon="0.64414">
        <ele>124.4</ele>
        <time>2025-06-15T09:42:00Z</time>
      </trkpt>
      <trkpt lat="45.16027" lon="0.64411">
        <ele>124.6</ele>
        <time>2025-06-15T09:42:01Z</time>
      </trkpt>
      <trkpt lat="45.16029" lon="0.64409">
        <ele>124.6</ele>
        <time>2025-06-15T09:42:02Z</time>
      </trkpt>
      <trkpt lat="45.1603" lon="0.64405">
        <ele>124.8</ele>
        <time>2025-06-15T09:42:03Z</time>
      </trkpt>
      <trkpt lat="45.16033" lon="0.64402">
        <ele>125</ele>
        <time>2025-06-15T09:42:04Z</time>
      </trkpt>
      <trkpt lat="45.16035" lon="0.64398">
        <ele>125</ele>
        <time>2025-06-15T09:42:05Z</time>
      </trkpt>
      <trkpt lat="45.16038" lon="0.64396">
        <ele>125</ele>
        <time>2025-06-15T09:42:06Z</time>
      </trkpt>
      <trkpt lat="45.1604" lon="0.64393">
        <ele>125.2</ele>
        <time>2025-06-15T09:42:07Z</time>
      </trkpt>
      <trkpt lat="45.16041" lon="0.6439">
        <ele>125.2</ele>
        <time>2025-06-15T09:42:08Z</time>
      </trkpt>
      <trkpt lat="45.16041" lon="0.64386">
        <ele>125.4</ele>
        <time>2025-06-15T09:42:09Z</time>
      </trkpt>
      <trkpt lat="45.1604" lon="0.64382">
        <ele>125.4</ele>
        <time>2025-06-15T09:42:10Z</time>
      </trkpt>
      <trkpt lat="45.16039" lon="0.64379">
        <ele>125.6</ele>
        <time>2025-06-15T09:42:11Z</time>
      </trkpt>
      <trkpt lat="45.16039" lon="0.64375">
        <ele>125.6</ele>
        <time>2025-06-15T09:42:12Z</time>
      </trkpt>
      <trkpt lat="45.16038" lon="0.64371">
        <ele>125.8</ele>
        <time>2025-06-15T09:42:13Z</time>
      </trkpt>
      <trkpt lat="45.16037" lon="0.64367">
        <ele>126</ele>
        <time>2025-06-15T09:42:14Z</time>
      </trkpt>
      <trkpt lat="45.16035" lon="0.64363">
        <ele>126</ele>
        <time>2025-06-15T09:42:15Z</time>
      </trkpt>
      <trkpt lat="45.16034" lon="0.64357">
        <ele>126.2</ele>
        <time>2025-06-15T09:42:16Z</time>
      </trkpt>
      <trkpt lat="45.16035" lon="0.64351">
        <ele>126.2</ele>
        <time>2025-06-15T09:42:17Z</time>
      </trkpt>
      <trkpt lat="45.16037" lon="0.64345">
        <ele>126.4</ele>
        <time>2025-06-15T09:42:18Z</time>
      </trkpt>
      <trkpt lat="45.1604" lon="0.64343">
        <ele>126.4</ele>
        <time>2025-06-15T09:42:19Z</time>
      </trkpt>
      <trkpt lat="45.16043" lon="0.64341">
        <ele>126.6</ele>
        <time>2025-06-15T09:42:20Z</time>
      </trkpt>
      <trkpt lat="45.16046" lon="0.6434">
        <ele>126.6</ele>
        <time>2025-06-15T09:42:21Z</time>
      </trkpt>
      <trkpt lat="45.16049" lon="0.64339">
        <ele>126.8</ele>
        <time>2025-06-15T09:42:22Z</time>
      </trkpt>
      <trkpt lat="45.16052" lon="0.64338">
        <ele>126.8</ele>
        <time>2025-06-15T09:42:23Z</time>
      </trkpt>
      <trkpt lat="45.16055" lon="0.64337">
        <ele>126.8</ele>
        <time>2025-06-15T09:42:24Z</time>
      </trkpt>
      <trkpt lat="45.16058" lon="0.64336">
        <ele>127</ele>
        <time>2025-06-15T09:42:25Z</time>
      </trkpt>
      <trkpt lat="45.16062" lon="0.64335">
        <ele>127</ele>
        <time>2025-06-15T09:42:26Z</time>
      </trkpt>
      <trkpt lat="45.16065" lon="0.64333">
        <ele>127.2</ele>
        <time>2025-06-15T09:42:27Z</time>
      </trkpt>
      <trkpt lat="45.16069" lon="0.64332">
        <ele>127.2</ele>
        <time>2025-06-15T09:42:28Z</time>
      </trkpt>
      <trkpt lat="45.16072" lon="0.64331">
        <ele>127.2</ele>
        <time>2025-06-15T09:42:29Z</time>
      </trkpt>
      <trkpt lat="45.16075" lon="0.64329">
        <ele>127.4</ele>
        <time>2025-06-15T09:42:30Z</time>
      </trkpt>
      <trkpt lat="45.16078" lon="0.64327">
        <ele>127.4</ele>
        <time>2025-06-15T09:42:31Z</time>
      </trkpt>
      <trkpt lat="45.16082" lon="0.64326">
        <ele>127.4</ele>
        <time>2025-06-15T09:42:32Z</time>
      </trkpt>
      <trkpt lat="45.16085" lon="0.64324">
        <ele>127.4</ele>
        <time>2025-06-15T09:42:33Z</time>
      </trkpt>
      <trkpt lat="45.16088" lon="0.64322">
        <ele>127.6</ele>
        <time>2025-06-15T09:42:34Z</time>
      </trkpt>
      <trkpt lat="45.16092" lon="0.6432">
        <ele>127.6</ele>
        <time>2025-06-15T09:42:35Z</time>
      </trkpt>
      <trkpt lat="45.16095" lon="0.64317">
        <ele>127.6</ele>
        <time>2025-06-15T09:42:36Z</time>
      </trkpt>
      <trkpt lat="45.16099" lon="0.64315">
        <ele>127.8</ele>
        <time>2025-06-15T09:42:37Z</time>
      </trkpt>
      <trkpt lat="45.16103" lon="0.64313">
        <ele>127.8</ele>
        <time>2025-06-15T09:42:38Z</time>
      </trkpt>
      <trkpt lat="45.16106" lon="0.6431">
        <ele>127.8</ele>
        <time>2025-06-15T09:42:39Z</time>
      </trkpt>
      <trkpt lat="45.1611" lon="0.64308">
        <ele>128</ele>
        <time>2025-06-15T09:42:40Z</time>
      </trkpt>
      <trkpt lat="45.16113" lon="0.64305">
        <ele>128</ele>
        <time>2025-06-15T09:42:41Z</time>
      </trkpt>
      <trkpt lat="45.16117" lon="0.64302">
        <ele>128</ele>
        <time>2025-06-15T09:42:42Z</time>
      </trkpt>
      <trkpt lat="45.16122" lon="0.64299">
        <ele>128</ele>
        <time>2025-06-15T09:42:43Z</time>
      </trkpt>
      <trkpt lat="45.16126" lon="0.64295">
        <ele>128</ele>
        <time>2025-06-15T09:42:44Z</time>
      </trkpt>
      <trkpt lat="45.1613" lon="0.64292">
        <ele>128</ele>
        <time>2025-06-15T09:42:45Z</time>
      </trkpt>
      <trkpt lat="45.16135" lon="0.64289">
        <ele>128</ele>
        <time>2025-06-15T09:42:46Z</time>
      </trkpt>
      <trkpt lat="45.1614" lon="0.64286">
        <ele>128</ele>
        <time>2025-06-15T09:42:47Z</time>
      </trkpt>
      <trkpt lat="45.16144" lon="0.64282">
        <ele>128</ele>
        <time>2025-06-15T09:42:48Z</time>
      </trkpt>
      <trkpt lat="45.16149" lon="0.64279">
        <ele>128</ele>
        <time>2025-06-15T09:42:49Z</time>
      </trkpt>
      <trkpt lat="45.16154" lon="0.64274">
        <ele>128</ele>
        <time>2025-06-15T09:42:50Z</time>
      </trkpt>
      <trkpt lat="45.16159" lon="0.6427">
        <ele>128.2</ele>
        <time>2025-06-15T09:42:51Z</time>
      </trkpt>
      <trkpt lat="45.16164" lon="0.64265">
        <ele>128.2</ele>
        <time>2025-06-15T09:42:52Z</time>
      </trkpt>
      <trkpt lat="45.16169" lon="0.6426">
        <ele>128.2</ele>
        <time>2025-06-15T09:42:53Z</time>
      </trkpt>
      <trkpt lat="45.16176" lon="0.64256">
        <ele>128.2</ele>
        <time>2025-06-15T09:42:54Z</time>
      </trkpt>
      <trkpt lat="45.16183" lon="0.64252">
        <ele>128.2</ele>
        <time>2025-06-15T09:42:55Z</time>
      </trkpt>
      <trkpt lat="45.1619" lon="0.6425">
        <ele>128.2</ele>
        <time>2025-06-15T09:42:56Z</time>
      </trkpt>
      <trkpt lat="45.16197" lon="0.64246">
        <ele>128.4</ele>
        <time>2025-06-15T09:42:57Z</time>
      </trkpt>
      <trkpt lat="45.16204" lon="0.64243">
        <ele>128.4</ele>
        <time>2025-06-15T09:42:58Z</time>
      </trkpt>
      <trkpt lat="45.16212" lon="0.6424">
        <ele>128.4</ele>
        <time>2025-06-15T09:42:59Z</time>
      </trkpt>
      <trkpt lat="45.1622" lon="0.64237">
        <ele>128.4</ele>
        <time>2025-06-15T09:43:00Z</time>
      </trkpt>
      <trkpt lat="45.16229" lon="0.64234">
        <ele>128.2</ele>
        <time>2025-06-15T09:43:01Z</time>
      </trkpt>
      <trkpt lat="45.16237" lon="0.6423">
        <ele>128.4</ele>
        <time>2025-06-15T09:43:02Z</time>
      </trkpt>
      <trkpt lat="45.16244" lon="0.64227">
        <ele>128.6</ele>
        <time>2025-06-15T09:43:03Z</time>
      </trkpt>
      <trkpt lat="45.16249" lon="0.64223">
        <ele>128.6</ele>
        <time>2025-06-15T09:43:04Z</time>
      </trkpt>
      <trkpt lat="45.16254" lon="0.64221">
        <ele>128.8</ele>
        <time>2025-06-15T09:43:05Z</time>
      </trkpt>
      <trkpt lat="45.16257" lon="0.64219">
        <ele>128.6</ele>
        <time>2025-06-15T09:43:06Z</time>
      </trkpt>
      <trkpt lat="45.16261" lon="0.64219">
        <ele>128.8</ele>
        <time>2025-06-15T09:43:07Z</time>
      </trkpt>
      <trkpt lat="45.16264" lon="0.64218">
        <ele>128.8</ele>
        <time>2025-06-15T09:43:08Z</time>
      </trkpt>
      <trkpt lat="45.16267" lon="0.64217">
        <ele>129</ele>
        <time>2025-06-15T09:43:09Z</time>
      </trkpt>
      <trkpt lat="45.1627" lon="0.64216">
        <ele>129.2</ele>
        <time>2025-06-15T09:43:10Z</time>
      </trkpt>
      <trkpt lat="45.16274" lon="0.64214">
        <ele>129.2</ele>
        <time>2025-06-15T09:43:11Z</time>
      </trkpt>
      <trkpt lat="45.16277" lon="0.64211">
        <ele>129.4</ele>
        <time>2025-06-15T09:43:12Z</time>
      </trkpt>
      <trkpt lat="45.1628" lon="0.64208">
        <ele>129.4</ele>
        <time>2025-06-15T09:43:13Z</time>
      </trkpt>
      <trkpt lat="45.16284" lon="0.64204">
        <ele>129.6</ele>
        <time>2025-06-15T09:43:14Z</time>
      </trkpt>
      <trkpt lat="45.16288" lon="0.642">
        <ele>129.6</ele>
        <time>2025-06-15T09:43:15Z</time>
      </trkpt>
      <trkpt lat="45.16292" lon="0.64196">
        <ele>129.4</ele>
        <time>2025-06-15T09:43:16Z</time>
      </trkpt>
      <trkpt lat="45.16296" lon="0.64192">
        <ele>129.4</ele>
        <time>2025-06-15T09:43:17Z</time>
      </trkpt>
      <trkpt lat="45.16301" lon="0.64188">
        <ele>129.2</ele>
        <time>2025-06-15T09:43:18Z</time>
      </trkpt>
      <trkpt lat="45.16305" lon="0.64184">
        <ele>129.2</ele>
        <time>2025-06-15T09:43:19Z</time>
      </trkpt>
      <trkpt lat="45.1631" lon="0.64178">
        <ele>129.4</ele>
        <time>2025-06-15T09:43:20Z</time>
      </trkpt>
      <trkpt lat="45.16314" lon="0.64173">
        <ele>129.4</ele>
        <time>2025-06-15T09:43:21Z</time>
      </trkpt>
      <trkpt lat="45.16319" lon="0.64167">
        <ele>129.4</ele>
        <time>2025-06-15T09:43:22Z</time>
      </trkpt>
      <trkpt lat="45.16323" lon="0.64161">
        <ele>129.4</ele>
        <time>2025-06-15T09:43:23Z</time>
      </trkpt>
      <trkpt lat="45.16328" lon="0.64153">
        <ele>129.6</ele>
        <time>2025-06-15T09:43:24Z</time>
      </trkpt>
      <trkpt lat="45.16332" lon="0.64145">
        <ele>129.6</ele>
        <time>2025-06-15T09:43:25Z</time>
      </trkpt>
      <trkpt lat="45.16336" lon="0.64137">
        <ele>129.6</ele>
        <time>2025-06-15T09:43:26Z</time>
      </trkpt>
      <trkpt lat="45.16342" lon="0.64131">
        <ele>129.8</ele>
        <time>2025-06-15T09:43:27Z</time>
      </trkpt>
      <trkpt lat="45.16349" lon="0.64126">
        <ele>129.8</ele>
        <time>2025-06-15T09:43:28Z</time>
      </trkpt>
      <trkpt lat="45.16356" lon="0.64124">
        <ele>129.8</ele>
        <time>2025-06-15T09:43:29Z</time>
      </trkpt>
      <trkpt lat="45.16365" lon="0.64124">
        <ele>129.8</ele>
        <time>2025-06-15T09:43:30Z</time>
      </trkpt>
      <trkpt lat="45.16373" lon="0.64124">
        <ele>130</ele>
        <time>2025-06-15T09:43:31Z</time>
      </trkpt>
      <trkpt lat="45.16381" lon="0.64123">
        <ele>130</ele>
        <time>2025-06-15T09:43:32Z</time>
      </trkpt>
      <trkpt lat="45.16388" lon="0.64123">
        <ele>130</ele>
        <time>2025-06-15T09:43:33Z</time>
      </trkpt>
      <trkpt lat="45.16396" lon="0.64124">
        <ele>130</ele>
        <time>2025-06-15T09:43:34Z</time>
      </trkpt>
      <trkpt lat="45.16404" lon="0.64123">
        <ele>130</ele>
        <time>2025-06-15T09:43:35Z</time>
      </trkpt>
      <trkpt lat="45.16411" lon="0.64123">
        <ele>130.2</ele>
        <time>2025-06-15T09:43:36Z</time>
      </trkpt>
      <trkpt lat="45.16418" lon="0.64123">
        <ele>130.4</ele>
        <time>2025-06-15T09:43:37Z</time>
      </trkpt>
      <trkpt lat="45.16425" lon="0.64123">
        <ele>130.4</ele>
        <time>2025-06-15T09:43:38Z</time>
      </trkpt>
      <trkpt lat="45.16432" lon="0.64122">
        <ele>130.4</ele>
        <time>2025-06-15T09:43:39Z</time>
      </trkpt>
      <trkpt lat="45.16439" lon="0.64121">
        <ele>130.6</ele>
        <time>2025-06-15T09:43:40Z</time>
      </trkpt>
      <trkpt lat="45.16446" lon="0.64121">
        <ele>130.8</ele>
        <time>2025-06-15T09:43:41Z</time>
      </trkpt>
      <trkpt lat="45.16453" lon="0.6412">
        <ele>131</ele>
        <time>2025-06-15T09:43:42Z</time>
      </trkpt>
      <trkpt lat="45.1646" lon="0.6412">
        <ele>131.2</ele>
        <time>2025-06-15T09:43:43Z</time>
      </trkpt>
      <trkpt lat="45.16466" lon="0.64119">
        <ele>131.4</ele>
        <time>2025-06-15T09:43:44Z</time>
      </trkpt>
      <trkpt lat="45.16473" lon="0.64118">
        <ele>131.4</ele>
        <time>2025-06-15T09:43:45Z</time>
      </trkpt>
      <trkpt lat="45.1648" lon="0.64117">
        <ele>131.4</ele>
        <time>2025-06-15T09:43:46Z</time>
      </trkpt>
      <trkpt lat="45.16486" lon="0.64116">
        <ele>131.6</ele>
        <time>2025-06-15T09:43:47Z</time>
      </trkpt>
      <trkpt lat="45.16493" lon="0.64115">
        <ele>131.8</ele>
        <time>2025-06-15T09:43:48Z</time>
      </trkpt>
      <trkpt lat="45.16499" lon="0.64114">
        <ele>131.8</ele>
        <time>2025-06-15T09:43:49Z</time>
      </trkpt>
      <trkpt lat="45.16505" lon="0.64114">
        <ele>131.8</ele>
        <time>2025-06-15T09:43:50Z</time>
      </trkpt>
      <trkpt lat="45.16512" lon="0.64113">
        <ele>131.8</ele>
        <time>2025-06-15T09:43:51Z</time>
      </trkpt>
      <trkpt lat="45.16518" lon="0.64111">
        <ele>131.8</ele>
        <time>2025-06-15T09:43:52Z</time>
      </trkpt>
      <trkpt lat="45.16525" lon="0.6411">
        <ele>132</ele>
        <time>2025-06-15T09:43:53Z</time>
      </trkpt>
      <trkpt lat="45.16531" lon="0.64109">
        <ele>132.2</ele>
        <time>2025-06-15T09:43:54Z</time>
      </trkpt>
      <trkpt lat="45.16538" lon="0.64107">
        <ele>132.4</ele>
        <time>2025-06-15T09:43:55Z</time>
      </trkpt>
      <trkpt lat="45.16545" lon="0.64106">
        <ele>132.4</ele>
        <time>2025-06-15T09:43:56Z</time>
      </trkpt>
      <trkpt lat="45.16551" lon="0.64105">
        <ele>132.4</ele>
        <time>2025-06-15T09:43:57Z</time>
      </trkpt>
      <trkpt lat="45.16557" lon="0.64104">
        <ele>132.6</ele>
        <time>2025-06-15T09:43:58Z</time>
      </trkpt>
      <trkpt lat="45.16563" lon="0.64103">
        <ele>132.8</ele>
        <time>2025-06-15T09:43:59Z</time>
      </trkpt>
      <trkpt lat="45.1657" lon="0.64101">
        <ele>132.8</ele>
        <time>2025-06-15T09:44:00Z</time>
      </trkpt>
      <trkpt lat="45.16576" lon="0.641">
        <ele>132.8</ele>
        <time>2025-06-15T09:44:01Z</time>
      </trkpt>
      <trkpt lat="45.16583" lon="0.64099">
        <ele>132.8</ele>
        <time>2025-06-15T09:44:02Z</time>
      </trkpt>
      <trkpt lat="45.16589" lon="0.64097">
        <ele>133</ele>
        <time>2025-06-15T09:44:03Z</time>
      </trkpt>
      <trkpt lat="45.16595" lon="0.64096">
        <ele>133</ele>
        <time>2025-06-15T09:44:04Z</time>
      </trkpt>
      <trkpt lat="45.166" lon="0.64095">
        <ele>133</ele>
        <time>2025-06-15T09:44:05Z</time>
      </trkpt>
      <trkpt lat="45.16605" lon="0.64095">
        <ele>133</ele>
        <time>2025-06-15T09:44:06Z</time>
      </trkpt>
      <trkpt lat="45.16609" lon="0.64095">
        <ele>133</ele>
        <time>2025-06-15T09:44:07Z</time>
      </trkpt>
      <trkpt lat="45.16612" lon="0.64097">
        <ele>133.2</ele>
        <time>2025-06-15T09:44:08Z</time>
      </trkpt>
      <trkpt lat="45.16614" lon="0.641">
        <ele>133.2</ele>
        <time>2025-06-15T09:44:09Z</time>
      </trkpt>
      <trkpt lat="45.16615" lon="0.64105">
        <ele>133.4</ele>
        <time>2025-06-15T09:44:10Z</time>
      </trkpt>
      <trkpt lat="45.16615" lon="0.64111">
        <ele>133.6</ele>
        <time>2025-06-15T09:44:11Z</time>
      </trkpt>
      <trkpt lat="45.16615" lon="0.64117">
        <ele>133.6</ele>
        <time>2025-06-15T09:44:12Z</time>
      </trkpt>
      <trkpt lat="45.16614" lon="0.64123">
        <ele>133.6</ele>
        <time>2025-06-15T09:44:13Z</time>
      </trkpt>
      <trkpt lat="45.16613" lon="0.64129">
        <ele>133.6</ele>
        <time>2025-06-15T09:44:14Z</time>
      </trkpt>
      <trkpt lat="45.16612" lon="0.64136">
        <ele>133.8</ele>
        <time>2025-06-15T09:44:15Z</time>
      </trkpt>
      <trkpt lat="45.16612" lon="0.64142">
        <ele>134</ele>
        <time>2025-06-15T09:44:16Z</time>
      </trkpt>
      <trkpt lat="45.16611" lon="0.64149">
        <ele>134</ele>
        <time>2025-06-15T09:44:17Z</time>
      </trkpt>
      <trkpt lat="45.16611" lon="0.64156">
        <ele>134</ele>
        <time>2025-06-15T09:44:18Z</time>
      </trkpt>
      <trkpt lat="45.1661" lon="0.64163">
        <ele>134</ele>
        <time>2025-06-15T09:44:19Z</time>
      </trkpt>
      <trkpt lat="45.1661" lon="0.6417">
        <ele>134</ele>
        <time>2025-06-15T09:44:20Z</time>
      </trkpt>
      <trkpt lat="45.16609" lon="0.64178">
        <ele>134</ele>
        <time>2025-06-15T09:44:21Z</time>
      </trkpt>
      <trkpt lat="45.16608" lon="0.64186">
        <ele>134.2</ele>
        <time>2025-06-15T09:44:22Z</time>
      </trkpt>
      <trkpt lat="45.16607" lon="0.64194">
        <ele>134.4</ele>
        <time>2025-06-15T09:44:23Z</time>
      </trkpt>
      <trkpt lat="45.16606" lon="0.64201">
        <ele>134.4</ele>
        <time>2025-06-15T09:44:24Z</time>
      </trkpt>
      <trkpt lat="45.16605" lon="0.64208">
        <ele>134.6</ele>
        <time>2025-06-15T09:44:25Z</time>
      </trkpt>
      <trkpt lat="45.16603" lon="0.64215">
        <ele>134.8</ele>
        <time>2025-06-15T09:44:26Z</time>
      </trkpt>
      <trkpt lat="45.166" lon="0.64221">
        <ele>134.8</ele>
        <time>2025-06-15T09:44:27Z</time>
      </trkpt>
      <trkpt lat="45.16598" lon="0.64228">
        <ele>134.8</ele>
        <time>2025-06-15T09:44:28Z</time>
      </trkpt>
      <trkpt lat="45.16595" lon="0.64235">
        <ele>135</ele>
        <time>2025-06-15T09:44:29Z</time>
      </trkpt>
      <trkpt lat="45.16593" lon="0.64242">
        <ele>135</ele>
        <time>2025-06-15T09:44:30Z</time>
      </trkpt>
      <trkpt lat="45.1659" lon="0.6425">
        <ele>135.2</ele>
        <time>2025-06-15T09:44:31Z</time>
      </trkpt>
      <trkpt lat="45.16586" lon="0.64259">
        <ele>135.6</ele>
        <time>2025-06-15T09:44:32Z</time>
      </trkpt>
      <trkpt lat="45.16583" lon="0.64266">
        <ele>135.8</ele>
        <time>2025-06-15T09:44:33Z</time>
      </trkpt>
      <trkpt lat="45.16578" lon="0.64273">
        <ele>136</ele>
        <time>2025-06-15T09:44:34Z</time>
      </trkpt>
      <trkpt lat="45.16573" lon="0.64281">
        <ele>136</ele>
        <time>2025-06-15T09:44:35Z</time>
      </trkpt>
      <trkpt lat="45.16567" lon="0.64289">
        <ele>136.2</ele>
        <time>2025-06-15T09:44:36Z</time>
      </trkpt>
      <trkpt lat="45.16562" lon="0.64297">
        <ele>136.2</ele>
        <time>2025-06-15T09:44:37Z</time>
      </trkpt>
      <trkpt lat="45.16556" lon="0.64305">
        <ele>136.6</ele>
        <time>2025-06-15T09:44:38Z</time>
      </trkpt>
      <trkpt lat="45.16549" lon="0.64314">
        <ele>136.8</ele>
        <time>2025-06-15T09:44:39Z</time>
      </trkpt>
      <trkpt lat="45.16542" lon="0.64323">
        <ele>137</ele>
        <time>2025-06-15T09:44:40Z</time>
      </trkpt>
      <trkpt lat="45.16537" lon="0.64331">
        <ele>137.2</ele>
        <time>2025-06-15T09:44:41Z</time>
      </trkpt>
      <trkpt lat="45.16533" lon="0.64338">
        <ele>137.4</ele>
        <time>2025-06-15T09:44:42Z</time>
      </trkpt>
      <trkpt lat="45.16531" lon="0.64343">
        <ele>137.4</ele>
        <time>2025-06-15T09:44:43Z</time>
      </trkpt>
      <trkpt lat="45.16532" lon="0.64347">
        <ele>137.6</ele>
        <time>2025-06-15T09:44:44Z</time>
      </trkpt>
      <trkpt lat="45.16533" lon="0.64349">
        <ele>137.6</ele>
        <time>2025-06-15T09:44:45Z</time>
      </trkpt>
      <trkpt lat="45.16535" lon="0.64351">
        <ele>137.6</ele>
        <time>2025-06-15T09:44:46Z</time>
      </trkpt>
      <trkpt lat="45.16537" lon="0.64353">
        <ele>137.6</ele>
        <time>2025-06-15T09:44:47Z</time>
      </trkpt>
      <trkpt lat="45.16539" lon="0.64355">
        <ele>137.8</ele>
        <time>2025-06-15T09:44:48Z</time>
      </trkpt>
      <trkpt lat="45.16542" lon="0.64356">
        <ele>138.2</ele>
        <time>2025-06-15T09:44:49Z</time>
      </trkpt>
      <trkpt lat="45.16545" lon="0.64359">
        <ele>138.2</ele>
        <time>2025-06-15T09:44:50Z</time>
      </trkpt>
      <trkpt lat="45.16549" lon="0.64361">
        <ele>138.4</ele>
        <time>2025-06-15T09:44:51Z</time>
      </trkpt>
      <trkpt lat="45.16553" lon="0.64363">
        <ele>138.6</ele>
        <time>2025-06-15T09:44:52Z</time>
      </trkpt>
      <trkpt lat="45.16557" lon="0.64364">
        <ele>138.6</ele>
        <time>2025-06-15T09:44:53Z</time>
      </trkpt>
      <trkpt lat="45.16562" lon="0.64367">
        <ele>138.8</ele>
        <time>2025-06-15T09:44:54Z</time>
      </trkpt>
      <trkpt lat="45.16567" lon="0.64369">
        <ele>139</ele>
        <time>2025-06-15T09:44:55Z</time>
      </trkpt>
      <trkpt lat="45.16572" lon="0.6437">
        <ele>139.2</ele>
        <time>2025-06-15T09:44:56Z</time>
      </trkpt>
      <trkpt lat="45.16578" lon="0.64372">
        <ele>139.2</ele>
        <time>2025-06-15T09:44:57Z</time>
      </trkpt>
      <trkpt lat="45.16583" lon="0.64374">
        <ele>139.6</ele>
        <time>2025-06-15T09:44:58Z</time>
      </trkpt>
      <trkpt lat="45.16589" lon="0.64375">
        <ele>139.6</ele>
        <time>2025-06-15T09:44:59Z</time>
      </trkpt>
      <trkpt lat="45.16595" lon="0.64378">
        <ele>139.8</ele>
        <time>2025-06-15T09:45:00Z</time>
      </trkpt>
      <trkpt lat="45.166" lon="0.64381">
        <ele>139.8</ele>
        <time>2025-06-15T09:45:01Z</time>
      </trkpt>
      <trkpt lat="45.16606" lon="0.64385">
        <ele>140</ele>
        <time>2025-06-15T09:45:02Z</time>
      </trkpt>
      <trkpt lat="45.16612" lon="0.64389">
        <ele>140</ele>
        <time>2025-06-15T09:45:03Z</time>
      </trkpt>
      <trkpt lat="45.16617" lon="0.64392">
        <ele>139.8</ele>
        <time>2025-06-15T09:45:04Z</time>
      </trkpt>
      <trkpt lat="45.16623" lon="0.64395">
        <ele>139.8</ele>
        <time>2025-06-15T09:45:05Z</time>
      </trkpt>
      <trkpt lat="45.16629" lon="0.64398">
        <ele>140</ele>
        <time>2025-06-15T09:45:06Z</time>
      </trkpt>
      <trkpt lat="45.16635" lon="0.64401">
        <ele>140.2</ele>
        <time>2025-06-15T09:45:07Z</time>
      </trkpt>
      <trkpt lat="45.1664" lon="0.64404">
        <ele>140.2</ele>
        <time>2025-06-15T09:45:08Z</time>
      </trkpt>
      <trkpt lat="45.16645" lon="0.64406">
        <ele>140.2</ele>
        <time>2025-06-15T09:45:09Z</time>
      </trkpt>
      <trkpt lat="45.1665" lon="0.6441">
        <ele>140.6</ele>
        <time>2025-06-15T09:45:10Z</time>
      </trkpt>
      <trkpt lat="45.16655" lon="0.64414">
        <ele>140.6</ele>
        <time>2025-06-15T09:45:11Z</time>
      </trkpt>
      <trkpt lat="45.16661" lon="0.64418">
        <ele>140.8</ele>
        <time>2025-06-15T09:45:12Z</time>
      </trkpt>
      <trkpt lat="45.16666" lon="0.64421">
        <ele>141</ele>
        <time>2025-06-15T09:45:13Z</time>
      </trkpt>
      <trkpt lat="45.16672" lon="0.64426">
        <ele>141</ele>
        <time>2025-06-15T09:45:14Z</time>
      </trkpt>
      <trkpt lat="45.16677" lon="0.64429">
        <ele>141</ele>
        <time>2025-06-15T09:45:15Z</time>
      </trkpt>
      <trkpt lat="45.16682" lon="0.64434">
        <ele>141</ele>
        <time>2025-06-15T09:45:16Z</time>
      </trkpt>
      <trkpt lat="45.16688" lon="0.64439">
        <ele>141.2</ele>
        <time>2025-06-15T09:45:17Z</time>
      </trkpt>
      <trkpt lat="45.16693" lon="0.64444">
        <ele>141.2</ele>
        <time>2025-06-15T09:45:18Z</time>
      </trkpt>
      <trkpt lat="45.167" lon="0.64449">
        <ele>141.4</ele>
        <time>2025-06-15T09:45:19Z</time>
      </trkpt>
      <trkpt lat="45.16706" lon="0.64454">
        <ele>141.2</ele>
        <time>2025-06-15T09:45:20Z</time>
      </trkpt>
      <trkpt lat="45.16713" lon="0.64458">
        <ele>141.4</ele>
        <time>2025-06-15T09:45:21Z</time>
      </trkpt>
      <trkpt lat="45.16719" lon="0.64462">
        <ele>141.4</ele>
        <time>2025-06-15T09:45:22Z</time>
      </trkpt>
      <trkpt lat="45.16725" lon="0.64464">
        <ele>141.4</ele>
        <time>2025-06-15T09:45:23Z</time>
      </trkpt>
      <trkpt lat="45.16731" lon="0.64467">
        <ele>141.6</ele>
        <time>2025-06-15T09:45:24Z</time>
      </trkpt>
      <trkpt lat="45.16736" lon="0.64469">
        <ele>141.8</ele>
        <time>2025-06-15T09:45:25Z</time>
      </trkpt>
      <trkpt lat="45.16742" lon="0.64473">
        <ele>142</ele>
        <time>2025-06-15T09:45:26Z</time>
      </trkpt>
      <trkpt lat="45.16747" lon="0.64475">
        <ele>142</ele>
        <time>2025-06-15T09:45:27Z</time>
      </trkpt>
      <trkpt lat="45.16751" lon="0.64478">
        <ele>142</ele>
        <time>2025-06-15T09:45:28Z</time>
      </trkpt>
      <trkpt lat="45.16757" lon="0.6448">
        <ele>141.8</ele>
        <time>2025-06-15T09:45:29Z</time>
      </trkpt>
      <trkpt lat="45.16763" lon="0.64482">
        <ele>141.8</ele>
        <time>2025-06-15T09:45:30Z</time>
      </trkpt>
      <trkpt lat="45.16769" lon="0.64485">
        <ele>141.8</ele>
        <time>2025-06-15T09:45:31Z</time>
      </trkpt>
      <trkpt lat="45.16774" lon="0.64488">
        <ele>141.8</ele>
        <time>2025-06-15T09:45:32Z</time>
      </trkpt>
      <trkpt lat="45.16779" lon="0.64491">
        <ele>142</ele>
        <time>2025-06-15T09:45:33Z</time>
      </trkpt>
      <trkpt lat="45.16784" lon="0.64492">
        <ele>142</ele>
        <time>2025-06-15T09:45:34Z</time>
      </trkpt>
      <trkpt lat="45.16788" lon="0.64491">
        <ele>142</ele>
        <time>2025-06-15T09:45:35Z</time>
      </trkpt>
      <trkpt lat="45.16791" lon="0.64491">
        <ele>141.8</ele>
        <time>2025-06-15T09:45:36Z</time>
      </trkpt>
      <trkpt lat="45.16794" lon="0.64492">
        <ele>141.8</ele>
        <time>2025-06-15T09:45:37Z</time>
      </trkpt>
      <trkpt lat="45.16796" lon="0.64495">
        <ele>141.6</ele>
        <time>2025-06-15T09:45:38Z</time>
      </trkpt>
      <trkpt lat="45.16799" lon="0.64499">
        <ele>141.4</ele>
        <time>2025-06-15T09:45:39Z</time>
      </trkpt>
      <trkpt lat="45.16802" lon="0.64502">
        <ele>141.4</ele>
        <time>2025-06-15T09:45:40Z</time>
      </trkpt>
      <trkpt lat="45.16805" lon="0.64506">
        <ele>141.4</ele>
        <time>2025-06-15T09:45:41Z</time>
      </trkpt>
      <trkpt lat="45.16805" lon="0.64511">
        <ele>141.2</ele>
        <time>2025-06-15T09:45:42Z</time>
      </trkpt>
      <trkpt lat="45.16804" lon="0.64514">
        <ele>141.2</ele>
        <time>2025-06-15T09:45:43Z</time>
      </trkpt>
      <trkpt lat="45.16803" lon="0.64518">
        <ele>141.2</ele>
        <time>2025-06-15T09:45:44Z</time>
      </trkpt>
      <trkpt lat="45.16802" lon="0.64523">
        <ele>141.2</ele>
        <time>2025-06-15T09:45:45Z</time>
      </trkpt>
      <trkpt lat="45.16801" lon="0.64526">
        <ele>141.2</ele>
        <time>2025-06-15T09:45:46Z</time>
      </trkpt>
      <trkpt lat="45.168" lon="0.64531">
        <ele>141.2</ele>
        <time>2025-06-15T09:45:47Z</time>
      </trkpt>
      <trkpt lat="45.16799" lon="0.64535">
        <ele>141.2</ele>
        <time>2025-06-15T09:45:48Z</time>
      </trkpt>
      <trkpt lat="45.16799" lon="0.64538">
        <ele>141.2</ele>
        <time>2025-06-15T09:45:49Z</time>
      </trkpt>
      <trkpt lat="45.16798" lon="0.64542">
        <ele>141.2</ele>
        <time>2025-06-15T09:45:50Z</time>
      </trkpt>
      <trkpt lat="45.16797" lon="0.64546">
        <ele>141.2</ele>
        <time>2025-06-15T09:45:51Z</time>
      </trkpt>
      <trkpt lat="45.16796" lon="0.6455">
        <ele>141.2</ele>
        <time>2025-06-15T09:45:52Z</time>
      </trkpt>
      <trkpt lat="45.16795" lon="0.64554">
        <ele>141.2</ele>
        <time>2025-06-15T09:45:53Z</time>
      </trkpt>
      <trkpt lat="45.16795" lon="0.64558">
        <ele>141.4</ele>
        <time>2025-06-15T09:45:54Z</time>
      </trkpt>
      <trkpt lat="45.16795" lon="0.64562">
        <ele>141.4</ele>
        <time>2025-06-15T09:45:55Z</time>
      </trkpt>
      <trkpt lat="45.16794" lon="0.64567">
        <ele>141.4</ele>
        <time>2025-06-15T09:45:56Z</time>
      </trkpt>
      <trkpt lat="45.16794" lon="0.64571">
        <ele>141.6</ele>
        <time>2025-06-15T09:45:57Z</time>
      </trkpt>
      <trkpt lat="45.16794" lon="0.64575">
        <ele>141.6</ele>
        <time>2025-06-15T09:45:58Z</time>
      </trkpt>
      <trkpt lat="45.16794" lon="0.6458">
        <ele>141.8</ele>
        <time>2025-06-15T09:45:59Z</time>
      </trkpt>
      <trkpt lat="45.16794" lon="0.64585">
        <ele>141.8</ele>
        <time>2025-06-15T09:46:00Z</time>
      </trkpt>
      <trkpt lat="45.16794" lon="0.64589">
        <ele>142</ele>
        <time>2025-06-15T09:46:01Z</time>
      </trkpt>
      <trkpt lat="45.16794" lon="0.64594">
        <ele>142</ele>
        <time>2025-06-15T09:46:02Z</time>
      </trkpt>
      <trkpt lat="45.16794" lon="0.64598">
        <ele>142</ele>
        <time>2025-06-15T09:46:03Z</time>
      </trkpt>
      <trkpt lat="45.16795" lon="0.64602">
        <ele>142</ele>
        <time>2025-06-15T09:46:04Z</time>
      </trkpt>
      <trkpt lat="45.16795" lon="0.64606">
        <ele>142.2</ele>
        <time>2025-06-15T09:46:05Z</time>
      </trkpt>
      <trkpt lat="45.16795" lon="0.64611">
        <ele>142.2</ele>
        <time>2025-06-15T09:46:06Z</time>
      </trkpt>
      <trkpt lat="45.16796" lon="0.64615">
        <ele>142.2</ele>
        <time>2025-06-15T09:46:07Z</time>
      </trkpt>
      <trkpt lat="45.16796" lon="0.6462">
        <ele>142.4</ele>
        <time>2025-06-15T09:46:08Z</time>
      </trkpt>
      <trkpt lat="45.16797" lon="0.64624">
        <ele>142.4</ele>
        <time>2025-06-15T09:46:09Z</time>
      </trkpt>
      <trkpt lat="45.16797" lon="0.64628">
        <ele>142.6</ele>
        <time>2025-06-15T09:46:10Z</time>
      </trkpt>
      <trkpt lat="45.16797" lon="0.64632">
        <ele>142.6</ele>
        <time>2025-06-15T09:46:11Z</time>
      </trkpt>
      <trkpt lat="45.16797" lon="0.64636">
        <ele>142.6</ele>
        <time>2025-06-15T09:46:12Z</time>
      </trkpt>
      <trkpt lat="45.16798" lon="0.6464">
        <ele>142.8</ele>
        <time>2025-06-15T09:46:13Z</time>
      </trkpt>
      <trkpt lat="45.16799" lon="0.64645">
        <ele>142.8</ele>
        <time>2025-06-15T09:46:14Z</time>
      </trkpt>
      <trkpt lat="45.16799" lon="0.64648">
        <ele>142.8</ele>
        <time>2025-06-15T09:46:15Z</time>
      </trkpt>
      <trkpt lat="45.168" lon="0.64653">
        <ele>142.8</ele>
        <time>2025-06-15T09:46:16Z</time>
      </trkpt>
      <trkpt lat="45.16801" lon="0.64657">
        <ele>143</ele>
        <time>2025-06-15T09:46:17Z</time>
      </trkpt>
      <trkpt lat="45.16802" lon="0.64662">
        <ele>143</ele>
        <time>2025-06-15T09:46:18Z</time>
      </trkpt>
      <trkpt lat="45.16803" lon="0.64666">
        <ele>143</ele>
        <time>2025-06-15T09:46:19Z</time>
      </trkpt>
      <trkpt lat="45.16804" lon="0.64669">
        <ele>143.2</ele>
        <time>2025-06-15T09:46:20Z</time>
      </trkpt>
      <trkpt lat="45.16805" lon="0.64672">
        <ele>143.2</ele>
        <time>2025-06-15T09:46:21Z</time>
      </trkpt>
      <trkpt lat="45.16807" lon="0.64675">
        <ele>143.2</ele>
        <time>2025-06-15T09:46:22Z</time>
      </trkpt>
      <trkpt lat="45.16808" lon="0.64677">
        <ele>143.2</ele>
        <time>2025-06-15T09:46:23Z</time>
      </trkpt>
      <trkpt lat="45.16809" lon="0.6468">
        <ele>143.4</ele>
        <time>2025-06-15T09:46:24Z</time>
      </trkpt>
      <trkpt lat="45.1681" lon="0.64683">
        <ele>143.4</ele>
        <time>2025-06-15T09:46:25Z</time>
      </trkpt>
      <trkpt lat="45.16811" lon="0.64686">
        <ele>143.6</ele>
        <time>2025-06-15T09:46:26Z</time>
      </trkpt>
      <trkpt lat="45.16812" lon="0.64688">
        <ele>143.6</ele>
        <time>2025-06-15T09:46:27Z</time>
      </trkpt>
      <trkpt lat="45.16814" lon="0.6469">
        <ele>143.6</ele>
        <time>2025-06-15T09:46:28Z</time>
      </trkpt>
      <trkpt lat="45.16815" lon="0.64692">
        <ele>143.8</ele>
        <time>2025-06-15T09:46:29Z</time>
      </trkpt>
      <trkpt lat="45.16816" lon="0.64694">
        <ele>143.8</ele>
        <time>2025-06-15T09:46:30Z</time>
      </trkpt>
      <trkpt lat="45.16817" lon="0.64696">
        <ele>143.8</ele>
        <time>2025-06-15T09:46:31Z</time>
      </trkpt>
      <trkpt lat="45.16818" lon="0.64698">
        <ele>144</ele>
        <time>2025-06-15T09:46:32Z</time>
      </trkpt>
      <trkpt lat="45.1682" lon="0.647">
        <ele>144</ele>
        <time>2025-06-15T09:46:33Z</time>
      </trkpt>
      <trkpt lat="45.16822" lon="0.64702">
        <ele>144</ele>
        <time>2025-06-15T09:46:34Z</time>
      </trkpt>
      <trkpt lat="45.16824" lon="0.64703">
        <ele>144</ele>
        <time>2025-06-15T09:46:35Z</time>
      </trkpt>
      <trkpt lat="45.16826" lon="0.64704">
        <ele>144.2</ele>
        <time>2025-06-15T09:46:36Z</time>
      </trkpt>
      <trkpt lat="45.16827" lon="0.64706">
        <ele>144.2</ele>
        <time>2025-06-15T09:46:37Z</time>
      </trkpt>
      <trkpt lat="45.16829" lon="0.64708">
        <ele>144.2</ele>
        <time>2025-06-15T09:46:38Z</time>
      </trkpt>
      <trkpt lat="45.16831" lon="0.64709">
        <ele>144.2</ele>
        <time>2025-06-15T09:46:39Z</time>
      </trkpt>
      <trkpt lat="45.16833" lon="0.64711">
        <ele>144.2</ele>
        <time>2025-06-15T09:46:40Z</time>
      </trkpt>
      <trkpt lat="45.16834" lon="0.64713">
        <ele>144.2</ele>
        <time>2025-06-15T09:46:41Z</time>
      </trkpt>
      <trkpt lat="45.16836" lon="0.64715">
        <ele>144.4</ele>
        <time>2025-06-15T09:46:42Z</time>
      </trkpt>
      <trkpt lat="45.16838" lon="0.64718">
        <ele>144.4</ele>
        <time>2025-06-15T09:46:43Z</time>
      </trkpt>
      <trkpt lat="45.1684" lon="0.6472">
        <ele>144.4</ele>
        <time>2025-06-15T09:46:44Z</time>
      </trkpt>
      <trkpt lat="45.16841" lon="0.64722">
        <ele>144.6</ele>
        <time>2025-06-15T09:46:45Z</time>
      </trkpt>
      <trkpt lat="45.16843" lon="0.64724">
        <ele>144.6</ele>
        <time>2025-06-15T09:46:46Z</time>
      </trkpt>
      <trkpt lat="45.16844" lon="0.64726">
        <ele>144.6</ele>
        <time>2025-06-15T09:46:47Z</time>
      </trkpt>
      <trkpt lat="45.16847" lon="0.64728">
        <ele>144.6</ele>
        <time>2025-06-15T09:46:48Z</time>
      </trkpt>
      <trkpt lat="45.16848" lon="0.6473">
        <ele>144.6</ele>
        <time>2025-06-15T09:46:49Z</time>
      </trkpt>
      <trkpt lat="45.1685" lon="0.64732">
        <ele>144.6</ele>
        <time>2025-06-15T09:46:50Z</time>
      </trkpt>
      <trkpt lat="45.16852" lon="0.64734">
        <ele>144.8</ele>
        <time>2025-06-15T09:46:51Z</time>
      </trkpt>
      <trkpt lat="45.16854" lon="0.64736">
        <ele>144.8</ele>
        <time>2025-06-15T09:46:52Z</time>
      </trkpt>
      <trkpt lat="45.16855" lon="0.64738">
        <ele>144.8</ele>
        <time>2025-06-15T09:46:53Z</time>
      </trkpt>
      <trkpt lat="45.16856" lon="0.6474">
        <ele>144.8</ele>
        <time>2025-06-15T09:46:54Z</time>
      </trkpt>
      <trkpt lat="45.16857" lon="0.64743">
        <ele>144.8</ele>
        <time>2025-06-15T09:46:55Z</time>
      </trkpt>
      <trkpt lat="45.16859" lon="0.64745">
        <ele>144.8</ele>
        <time>2025-06-15T09:46:56Z</time>
      </trkpt>
      <trkpt lat="45.16861" lon="0.64747">
        <ele>145</ele>
        <time>2025-06-15T09:46:57Z</time>
      </trkpt>
      <trkpt lat="45.16862" lon="0.64749">
        <ele>145</ele>
        <time>2025-06-15T09:46:58Z</time>
      </trkpt>
      <trkpt lat="45.16863" lon="0.6475">
        <ele>145</ele>
        <time>2025-06-15T09:46:59Z</time>
      </trkpt>
      <trkpt lat="45.16865" lon="0.64752">
        <ele>145</ele>
        <time>2025-06-15T09:47:00Z</time>
      </trkpt>
      <trkpt lat="45.16867" lon="0.64753">
        <ele>145</ele>
        <time>2025-06-15T09:47:01Z</time>
      </trkpt>
      <trkpt lat="45.16868" lon="0.64755">
        <ele>145.2</ele>
        <time>2025-06-15T09:47:02Z</time>
      </trkpt>
      <trkpt lat="45.16871" lon="0.64756">
        <ele>145.2</ele>
        <time>2025-06-15T09:47:03Z</time>
      </trkpt>
      <trkpt lat="45.16873" lon="0.64757">
        <ele>145.4</ele>
        <time>2025-06-15T09:47:04Z</time>
      </trkpt>
      <trkpt lat="45.16875" lon="0.64757">
        <ele>145.4</ele>
        <time>2025-06-15T09:47:05Z</time>
      </trkpt>
      <trkpt lat="45.16877" lon="0.64758">
        <ele>145.4</ele>
        <time>2025-06-15T09:47:06Z</time>
      </trkpt>
      <trkpt lat="45.16879" lon="0.64759">
        <ele>145.4</ele>
        <time>2025-06-15T09:47:07Z</time>
      </trkpt>
      <trkpt lat="45.16881" lon="0.64759">
        <ele>145.4</ele>
        <time>2025-06-15T09:47:08Z</time>
      </trkpt>
      <trkpt lat="45.16883" lon="0.6476">
        <ele>145.4</ele>
        <time>2025-06-15T09:47:09Z</time>
      </trkpt>
      <trkpt lat="45.16885" lon="0.64761">
        <ele>145.6</ele>
        <time>2025-06-15T09:47:10Z</time>
      </trkpt>
      <trkpt lat="45.16887" lon="0.64762">
        <ele>145.6</ele>
        <time>2025-06-15T09:47:11Z</time>
      </trkpt>
      <trkpt lat="45.16889" lon="0.64762">
        <ele>145.6</ele>
        <time>2025-06-15T09:47:12Z</time>
      </trkpt>
      <trkpt lat="45.1689" lon="0.64763">
        <ele>145.6</ele>
        <time>2025-06-15T09:47:13Z</time>
      </trkpt>
      <trkpt lat="45.16892" lon="0.64764">
        <ele>145.6</ele>
        <time>2025-06-15T09:47:14Z</time>
      </trkpt>
      <trkpt lat="45.16894" lon="0.64765">
        <ele>145.6</ele>
        <time>2025-06-15T09:47:15Z</time>
      </trkpt>
      <trkpt lat="45.16895" lon="0.64767">
        <ele>145.6</ele>
        <time>2025-06-15T09:47:16Z</time>
      </trkpt>
      <trkpt lat="45.16897" lon="0.64768">
        <ele>145.4</ele>
        <time>2025-06-15T09:47:17Z</time>
      </trkpt>
      <trkpt lat="45.16899" lon="0.64769">
        <ele>145.4</ele>
        <time>2025-06-15T09:47:18Z</time>
      </trkpt>
      <trkpt lat="45.16901" lon="0.6477">
        <ele>145.4</ele>
        <time>2025-06-15T09:47:19Z</time>
      </trkpt>
      <trkpt lat="45.16902" lon="0.64772">
        <ele>145.4</ele>
        <time>2025-06-15T09:47:20Z</time>
      </trkpt>
      <trkpt lat="45.16904" lon="0.64774">
        <ele>145.2</ele>
        <time>2025-06-15T09:47:21Z</time>
      </trkpt>
      <trkpt lat="45.16905" lon="0.64776">
        <ele>145.2</ele>
        <time>2025-06-15T09:47:22Z</time>
      </trkpt>
      <trkpt lat="45.16906" lon="0.64778">
        <ele>145.4</ele>
        <time>2025-06-15T09:47:23Z</time>
      </trkpt>
      <trkpt lat="45.16908" lon="0.64782">
        <ele>145.4</ele>
        <time>2025-06-15T09:47:24Z</time>
      </trkpt>
      <trkpt lat="45.1691" lon="0.64785">
        <ele>145.4</ele>
        <time>2025-06-15T09:47:25Z</time>
      </trkpt>
      <trkpt lat="45.16911" lon="0.64788">
        <ele>145.4</ele>
        <time>2025-06-15T09:47:26Z</time>
      </trkpt>
      <trkpt lat="45.16912" lon="0.64791">
        <ele>145.6</ele>
        <time>2025-06-15T09:47:27Z</time>
      </trkpt>
      <trkpt lat="45.16913" lon="0.64795">
        <ele>145.6</ele>
        <time>2025-06-15T09:47:28Z</time>
      </trkpt>
      <trkpt lat="45.16913" lon="0.64798">
        <ele>145.6</ele>
        <time>2025-06-15T09:47:29Z</time>
      </trkpt>
      <trkpt lat="45.16914" lon="0.64801">
        <ele>145.6</ele>
        <time>2025-06-15T09:47:30Z</time>
      </trkpt>
      <trkpt lat="45.16914" lon="0.64804">
        <ele>145.8</ele>
        <time>2025-06-15T09:47:31Z</time>
      </trkpt>
      <trkpt lat="45.16915" lon="0.64806">
        <ele>145.8</ele>
        <time>2025-06-15T09:47:32Z</time>
      </trkpt>
      <trkpt lat="45.16915" lon="0.64809">
        <ele>145.8</ele>
        <time>2025-06-15T09:47:33Z</time>
      </trkpt>
      <trkpt lat="45.16915" lon="0.64811">
        <ele>146</ele>
        <time>2025-06-15T09:47:34Z</time>
      </trkpt>
      <trkpt lat="45.16916" lon="0.64813">
        <ele>146</ele>
        <time>2025-06-15T09:47:35Z</time>
      </trkpt>
      <trkpt lat="45.16916" lon="0.64816">
        <ele>146</ele>
        <time>2025-06-15T09:47:36Z</time>
      </trkpt>
      <trkpt lat="45.16916" lon="0.64818">
        <ele>146.2</ele>
        <time>2025-06-15T09:47:37Z</time>
      </trkpt>
      <trkpt lat="45.16916" lon="0.64821">
        <ele>146.2</ele>
        <time>2025-06-15T09:47:38Z</time>
      </trkpt>
      <trkpt lat="45.16916" lon="0.64824">
        <ele>146.2</ele>
        <time>2025-06-15T09:47:39Z</time>
      </trkpt>
      <trkpt lat="45.16917" lon="0.64826">
        <ele>146.2</ele>
        <time>2025-06-15T09:47:40Z</time>
      </trkpt>
      <trkpt lat="45.16917" lon="0.64829">
        <ele>146.2</ele>
        <time>2025-06-15T09:47:41Z</time>
      </trkpt>
      <trkpt lat="45.16918" lon="0.64832">
        <ele>146.2</ele>
        <time>2025-06-15T09:47:42Z</time>
      </trkpt>
      <trkpt lat="45.16918" lon="0.64835">
        <ele>146.2</ele>
        <time>2025-06-15T09:47:43Z</time>
      </trkpt>
      <trkpt lat="45.16919" lon="0.64838">
        <ele>146.2</ele>
        <time>2025-06-15T09:47:44Z</time>
      </trkpt>
      <trkpt lat="45.1692" lon="0.6484">
        <ele>146.2</ele>
        <time>2025-06-15T09:47:45Z</time>
      </trkpt>
      <trkpt lat="45.16921" lon="0.64842">
        <ele>146.2</ele>
        <time>2025-06-15T09:47:46Z</time>
      </trkpt>
      <trkpt lat="45.16922" lon="0.64845">
        <ele>146.4</ele>
        <time>2025-06-15T09:47:47Z</time>
      </trkpt>
      <trkpt lat="45.16922" lon="0.64848">
        <ele>146.4</ele>
        <time>2025-06-15T09:47:48Z</time>
      </trkpt>
      <trkpt lat="45.16923" lon="0.6485">
        <ele>146.4</ele>
        <time>2025-06-15T09:47:49Z</time>
      </trkpt>
      <trkpt lat="45.16924" lon="0.64853">
        <ele>146.6</ele>
        <time>2025-06-15T09:47:50Z</time>
      </trkpt>
      <trkpt lat="45.16924" lon="0.64856">
        <ele>146.6</ele>
        <time>2025-06-15T09:47:51Z</time>
      </trkpt>
      <trkpt lat="45.16924" lon="0.64859">
        <ele>146.6</ele>
        <time>2025-06-15T09:47:52Z</time>
      </trkpt>
      <trkpt lat="45.16925" lon="0.6486">
        <ele>146.6</ele>
        <time>2025-06-15T09:47:53Z</time>
      </trkpt>
      <trkpt lat="45.16925" lon="0.64863">
        <ele>146.8</ele>
        <time>2025-06-15T09:47:54Z</time>
      </trkpt>
      <trkpt lat="45.16926" lon="0.64865">
        <ele>146.8</ele>
        <time>2025-06-15T09:47:55Z</time>
      </trkpt>
      <trkpt lat="45.16927" lon="0.64868">
        <ele>147</ele>
        <time>2025-06-15T09:47:56Z</time>
      </trkpt>
      <trkpt lat="45.16926" lon="0.6487">
        <ele>147</ele>
        <time>2025-06-15T09:47:57Z</time>
      </trkpt>
      <trkpt lat="45.16927" lon="0.64873">
        <ele>147</ele>
        <time>2025-06-15T09:47:58Z</time>
      </trkpt>
      <trkpt lat="45.16927" lon="0.64875">
        <ele>147</ele>
        <time>2025-06-15T09:47:59Z</time>
      </trkpt>
      <trkpt lat="45.16927" lon="0.64878">
        <ele>147.2</ele>
        <time>2025-06-15T09:48:00Z</time>
      </trkpt>
      <trkpt lat="45.16927" lon="0.6488">
        <ele>147.2</ele>
        <time>2025-06-15T09:48:01Z</time>
      </trkpt>
      <trkpt lat="45.16927" lon="0.64883">
        <ele>147.2</ele>
        <time>2025-06-15T09:48:02Z</time>
      </trkpt>
      <trkpt lat="45.16927" lon="0.64884">
        <ele>147.2</ele>
        <time>2025-06-15T09:48:03Z</time>
      </trkpt>
      <trkpt lat="45.16927" lon="0.64886">
        <ele>147.2</ele>
        <time>2025-06-15T09:48:04Z</time>
      </trkpt>
      <trkpt lat="45.16927" lon="0.64889">
        <ele>147.4</ele>
        <time>2025-06-15T09:48:05Z</time>
      </trkpt>
      <trkpt lat="45.16927" lon="0.64892">
        <ele>147.4</ele>
        <time>2025-06-15T09:48:06Z</time>
      </trkpt>
      <trkpt lat="45.16926" lon="0.64893">
        <ele>147.6</ele>
        <time>2025-06-15T09:48:07Z</time>
      </trkpt>
      <trkpt lat="45.16926" lon="0.64896">
        <ele>147.6</ele>
        <time>2025-06-15T09:48:08Z</time>
      </trkpt>
      <trkpt lat="45.16926" lon="0.64898">
        <ele>147.6</ele>
        <time>2025-06-15T09:48:09Z</time>
      </trkpt>
      <trkpt lat="45.16927" lon="0.649">
        <ele>147.8</ele>
        <time>2025-06-15T09:48:10Z</time>
      </trkpt>
      <trkpt lat="45.16927" lon="0.64903">
        <ele>147.8</ele>
        <time>2025-06-15T09:48:11Z</time>
      </trkpt>
      <trkpt lat="45.16926" lon="0.64905">
        <ele>148</ele>
        <time>2025-06-15T09:48:12Z</time>
      </trkpt>
      <trkpt lat="45.16926" lon="0.64908">
        <ele>148</ele>
        <time>2025-06-15T09:48:13Z</time>
      </trkpt>
      <trkpt lat="45.16926" lon="0.64909">
        <ele>148</ele>
        <time>2025-06-15T09:48:14Z</time>
      </trkpt>
      <trkpt lat="45.16926" lon="0.64912">
        <ele>148</ele>
        <time>2025-06-15T09:48:15Z</time>
      </trkpt>
      <trkpt lat="45.16926" lon="0.64914">
        <ele>148</ele>
        <time>2025-06-15T09:48:16Z</time>
      </trkpt>
      <trkpt lat="45.16926" lon="0.64916">
        <ele>148.2</ele>
        <time>2025-06-15T09:48:17Z</time>
      </trkpt>
      <trkpt lat="45.16925" lon="0.64919">
        <ele>148.2</ele>
        <time>2025-06-15T09:48:18Z</time>
      </trkpt>
      <trkpt lat="45.16925" lon="0.64921">
        <ele>148.2</ele>
        <time>2025-06-15T09:48:19Z</time>
      </trkpt>
      <trkpt lat="45.16925" lon="0.64923">
        <ele>148.4</ele>
        <time>2025-06-15T09:48:20Z</time>
      </trkpt>
      <trkpt lat="45.16925" lon="0.64925">
        <ele>148.4</ele>
        <time>2025-06-15T09:48:21Z</time>
      </trkpt>
      <trkpt lat="45.16924" lon="0.64927">
        <ele>148.4</ele>
        <time>2025-06-15T09:48:22Z</time>
      </trkpt>
      <trkpt lat="45.16924" lon="0.64929">
        <ele>148.4</ele>
        <time>2025-06-15T09:48:23Z</time>
      </trkpt>
      <trkpt lat="45.16924" lon="0.64931">
        <ele>148.6</ele>
        <time>2025-06-15T09:48:24Z</time>
      </trkpt>
      <trkpt lat="45.16924" lon="0.64933">
        <ele>148.6</ele>
        <time>2025-06-15T09:48:25Z</time>
      </trkpt>
      <trkpt lat="45.16924" lon="0.64935">
        <ele>148.6</ele>
        <time>2025-06-15T09:48:26Z</time>
      </trkpt>
      <trkpt lat="45.16923" lon="0.64937">
        <ele>148.6</ele>
        <time>2025-06-15T09:48:27Z</time>
      </trkpt>
      <trkpt lat="45.16923" lon="0.6494">
        <ele>148.8</ele>
        <time>2025-06-15T09:48:28Z</time>
      </trkpt>
      <trkpt lat="45.16923" lon="0.64942">
        <ele>148.8</ele>
        <time>2025-06-15T09:48:29Z</time>
      </trkpt>
      <trkpt lat="45.16923" lon="0.64944">
        <ele>148.8</ele>
        <time>2025-06-15T09:48:30Z</time>
      </trkpt>
      <trkpt lat="45.16922" lon="0.64946">
        <ele>148.8</ele>
        <time>2025-06-15T09:48:31Z</time>
      </trkpt>
      <trkpt lat="45.16922" lon="0.64949">
        <ele>148.8</ele>
        <time>2025-06-15T09:48:32Z</time>
      </trkpt>
      <trkpt lat="45.16922" lon="0.64951">
        <ele>148.8</ele>
        <time>2025-06-15T09:48:33Z</time>
      </trkpt>
      <trkpt lat="45.16922" lon="0.64953">
        <ele>149</ele>
        <time>2025-06-15T09:48:34Z</time>
      </trkpt>
      <trkpt lat="45.16922" lon="0.64956">
        <ele>149</ele>
        <time>2025-06-15T09:48:35Z</time>
      </trkpt>
      <trkpt lat="45.16922" lon="0.64958">
        <ele>149</ele>
        <time>2025-06-15T09:48:36Z</time>
      </trkpt>
      <trkpt lat="45.16922" lon="0.6496">
        <ele>149</ele>
        <time>2025-06-15T09:48:37Z</time>
      </trkpt>
      <trkpt lat="45.16922" lon="0.64962">
        <ele>149.2</ele>
        <time>2025-06-15T09:48:38Z</time>
      </trkpt>
      <trkpt lat="45.16922" lon="0.64965">
        <ele>149.2</ele>
        <time>2025-06-15T09:48:39Z</time>
      </trkpt>
      <trkpt lat="45.16922" lon="0.64967">
        <ele>149.2</ele>
        <time>2025-06-15T09:48:40Z</time>
      </trkpt>
      <trkpt lat="45.16922" lon="0.64969">
        <ele>149.4</ele>
        <time>2025-06-15T09:48:41Z</time>
      </trkpt>
      <trkpt lat="45.16923" lon="0.64971">
        <ele>149.4</ele>
        <time>2025-06-15T09:48:42Z</time>
      </trkpt>
      <trkpt lat="45.16923" lon="0.64972">
        <ele>149.4</ele>
        <time>2025-06-15T09:48:43Z</time>
      </trkpt>
      <trkpt lat="45.16923" lon="0.64974">
        <ele>149.4</ele>
        <time>2025-06-15T09:48:44Z</time>
      </trkpt>
      <trkpt lat="45.16923" lon="0.64977">
        <ele>149.4</ele>
        <time>2025-06-15T09:48:45Z</time>
      </trkpt>
      <trkpt lat="45.16923" lon="0.64979">
        <ele>149.4</ele>
        <time>2025-06-15T09:48:46Z</time>
      </trkpt>
      <trkpt lat="45.16924" lon="0.64981">
        <ele>149.4</ele>
        <time>2025-06-15T09:48:47Z</time>
      </trkpt>
      <trkpt lat="45.16925" lon="0.64983">
        <ele>149.4</ele>
        <time>2025-06-15T09:48:48Z</time>
      </trkpt>
      <trkpt lat="45.16926" lon="0.64985">
        <ele>149.4</ele>
        <time>2025-06-15T09:48:49Z</time>
      </trkpt>
      <trkpt lat="45.16927" lon="0.64987">
        <ele>149.6</ele>
        <time>2025-06-15T09:48:50Z</time>
      </trkpt>
      <trkpt lat="45.16928" lon="0.64989">
        <ele>149.6</ele>
        <time>2025-06-15T09:48:51Z</time>
      </trkpt>
      <trkpt lat="45.16929" lon="0.64992">
        <ele>149.8</ele>
        <time>2025-06-15T09:48:52Z</time>
      </trkpt>
      <trkpt lat="45.1693" lon="0.64994">
        <ele>149.8</ele>
        <time>2025-06-15T09:48:53Z</time>
      </trkpt>
      <trkpt lat="45.16931" lon="0.64996">
        <ele>149.8</ele>
        <time>2025-06-15T09:48:54Z</time>
      </trkpt>
      <trkpt lat="45.16931" lon="0.64998">
        <ele>149.8</ele>
        <time>2025-06-15T09:48:55Z</time>
      </trkpt>
      <trkpt lat="45.16932" lon="0.65">
        <ele>150</ele>
        <time>2025-06-15T09:48:56Z</time>
      </trkpt>
      <trkpt lat="45.16932" lon="0.65003">
        <ele>150</ele>
        <time>2025-06-15T09:48:57Z</time>
      </trkpt>
      <trkpt lat="45.16933" lon="0.65005">
        <ele>150</ele>
        <time>2025-06-15T09:48:58Z</time>
      </trkpt>
      <trkpt lat="45.16934" lon="0.65009">
        <ele>150.2</ele>
        <time>2025-06-15T09:48:59Z</time>
      </trkpt>
      <trkpt lat="45.16935" lon="0.65011">
        <ele>150.2</ele>
        <time>2025-06-15T09:49:00Z</time>
      </trkpt>
      <trkpt lat="45.16935" lon="0.65014">
        <ele>150.2</ele>
        <time>2025-06-15T09:49:01Z</time>
      </trkpt>
      <trkpt lat="45.16936" lon="0.65016">
        <ele>150.2</ele>
        <time>2025-06-15T09:49:02Z</time>
      </trkpt>
      <trkpt lat="45.16936" lon="0.65018">
        <ele>150.2</ele>
        <time>2025-06-15T09:49:03Z</time>
      </trkpt>
      <trkpt lat="45.16937" lon="0.6502">
        <ele>150.4</ele>
        <time>2025-06-15T09:49:04Z</time>
      </trkpt>
      <trkpt lat="45.16937" lon="0.65023">
        <ele>150.4</ele>
        <time>2025-06-15T09:49:05Z</time>
      </trkpt>
      <trkpt lat="45.16938" lon="0.65025">
        <ele>150.4</ele>
        <time>2025-06-15T09:49:06Z</time>
      </trkpt>
      <trkpt lat="45.16939" lon="0.65028">
        <ele>150.4</ele>
        <time>2025-06-15T09:49:07Z</time>
      </trkpt>
      <trkpt lat="45.1694" lon="0.65031">
        <ele>150.6</ele>
        <time>2025-06-15T09:49:08Z</time>
      </trkpt>
      <trkpt lat="45.1694" lon="0.65032">
        <ele>150.6</ele>
        <time>2025-06-15T09:49:09Z</time>
      </trkpt>
      <trkpt lat="45.1694" lon="0.65034">
        <ele>150.6</ele>
        <time>2025-06-15T09:49:10Z</time>
      </trkpt>
      <trkpt lat="45.1694" lon="0.65036">
        <ele>150.8</ele>
        <time>2025-06-15T09:49:11Z</time>
      </trkpt>
      <trkpt lat="45.1694" lon="0.65037">
        <ele>150.8</ele>
        <time>2025-06-15T09:49:12Z</time>
      </trkpt>
      <trkpt lat="45.16939" lon="0.65038">
        <ele>150.8</ele>
        <time>2025-06-15T09:49:13Z</time>
      </trkpt>
      <trkpt lat="45.16938" lon="0.65038">
        <ele>150.8</ele>
        <time>2025-06-15T09:49:14Z</time>
      </trkpt>
      <trkpt lat="45.16937" lon="0.65038">
        <ele>150.8</ele>
        <time>2025-06-15T09:49:15Z</time>
      </trkpt>
      <trkpt lat="45.16936" lon="0.65039">
        <ele>150.8</ele>
        <time>2025-06-15T09:49:16Z</time>
      </trkpt>
      <trkpt lat="45.16934" lon="0.65039">
        <ele>150.8</ele>
        <time>2025-06-15T09:49:17Z</time>
      </trkpt>
      <trkpt lat="45.16933" lon="0.6504">
        <ele>150.8</ele>
        <time>2025-06-15T09:49:18Z</time>
      </trkpt>
      <trkpt lat="45.16931" lon="0.6504">
        <ele>151</ele>
        <time>2025-06-15T09:49:19Z</time>
      </trkpt>
      <trkpt lat="45.1693" lon="0.65041">
        <ele>151</ele>
        <time>2025-06-15T09:49:20Z</time>
      </trkpt>
      <trkpt lat="45.16929" lon="0.65041">
        <ele>151</ele>
        <time>2025-06-15T09:49:21Z</time>
      </trkpt>
      <trkpt lat="45.16927" lon="0.65041">
        <ele>151</ele>
        <time>2025-06-15T09:49:22Z</time>
      </trkpt>
      <trkpt lat="45.16926" lon="0.65042">
        <ele>151.2</ele>
        <time>2025-06-15T09:49:23Z</time>
      </trkpt>
      <trkpt lat="45.16924" lon="0.65042">
        <ele>151.2</ele>
        <time>2025-06-15T09:49:24Z</time>
      </trkpt>
      <trkpt lat="45.16923" lon="0.65042">
        <ele>151.4</ele>
        <time>2025-06-15T09:49:25Z</time>
      </trkpt>
      <trkpt lat="45.16922" lon="0.65042">
        <ele>151.4</ele>
        <time>2025-06-15T09:49:26Z</time>
      </trkpt>
      <trkpt lat="45.1692" lon="0.65043">
        <ele>151.4</ele>
        <time>2025-06-15T09:49:27Z</time>
      </trkpt>
      <trkpt lat="45.16918" lon="0.65043">
        <ele>151.4</ele>
        <time>2025-06-15T09:49:28Z</time>
      </trkpt>
      <trkpt lat="45.16917" lon="0.65044">
        <ele>151.6</ele>
        <time>2025-06-15T09:49:29Z</time>
      </trkpt>
      <trkpt lat="45.16916" lon="0.65044">
        <ele>151.6</ele>
        <time>2025-06-15T09:49:30Z</time>
      </trkpt>
      <trkpt lat="45.16914" lon="0.65044">
        <ele>151.6</ele>
        <time>2025-06-15T09:49:31Z</time>
      </trkpt>
      <trkpt lat="45.16912" lon="0.65044">
        <ele>151.6</ele>
        <time>2025-06-15T09:49:32Z</time>
      </trkpt>
      <trkpt lat="45.16911" lon="0.65044">
        <ele>151.8</ele>
        <time>2025-06-15T09:49:33Z</time>
      </trkpt>
      <trkpt lat="45.16909" lon="0.65044">
        <ele>151.8</ele>
        <time>2025-06-15T09:49:34Z</time>
      </trkpt>
      <trkpt lat="45.16908" lon="0.65045">
        <ele>151.8</ele>
        <time>2025-06-15T09:49:35Z</time>
      </trkpt>
      <trkpt lat="45.16906" lon="0.65045">
        <ele>152</ele>
        <time>2025-06-15T09:49:36Z</time>
      </trkpt>
      <trkpt lat="45.16905" lon="0.65045">
        <ele>152</ele>
        <time>2025-06-15T09:49:37Z</time>
      </trkpt>
      <trkpt lat="45.16904" lon="0.65046">
        <ele>152</ele>
        <time>2025-06-15T09:49:38Z</time>
      </trkpt>
      <trkpt lat="45.16904" lon="0.65046">
        <ele>152.2</ele>
        <time>2025-06-15T09:49:39Z</time>
      </trkpt>
      <trkpt lat="45.16901" lon="0.65047">
        <ele>152.2</ele>
        <time>2025-06-15T09:49:40Z</time>
      </trkpt>
      <trkpt lat="45.16899" lon="0.65047">
        <ele>152.2</ele>
        <time>2025-06-15T09:49:41Z</time>
      </trkpt>
      <trkpt lat="45.16898" lon="0.65047">
        <ele>152.4</ele>
        <time>2025-06-15T09:49:42Z</time>
      </trkpt>
      <trkpt lat="45.16896" lon="0.65047">
        <ele>152.4</ele>
        <time>2025-06-15T09:49:43Z</time>
      </trkpt>
      <trkpt lat="45.16895" lon="0.65048">
        <ele>152.6</ele>
        <time>2025-06-15T09:49:44Z</time>
      </trkpt>
      <trkpt lat="45.16894" lon="0.65048">
        <ele>152.6</ele>
        <time>2025-06-15T09:49:45Z</time>
      </trkpt>
      <trkpt lat="45.16892" lon="0.65048">
        <ele>152.6</ele>
        <time>2025-06-15T09:49:46Z</time>
      </trkpt>
      <trkpt lat="45.16891" lon="0.65048">
        <ele>152.6</ele>
        <time>2025-06-15T09:49:47Z</time>
      </trkpt>
      <trkpt lat="45.1689" lon="0.65049">
        <ele>152.6</ele>
        <time>2025-06-15T09:49:48Z</time>
      </trkpt>
      <trkpt lat="45.16889" lon="0.65049">
        <ele>152.8</ele>
        <time>2025-06-15T09:49:49Z</time>
      </trkpt>
      <trkpt lat="45.16887" lon="0.65049">
        <ele>152.8</ele>
        <time>2025-06-15T09:49:50Z</time>
      </trkpt>
      <trkpt lat="45.16886" lon="0.6505">
        <ele>152.8</ele>
        <time>2025-06-15T09:49:51Z</time>
      </trkpt>
      <trkpt lat="45.16885" lon="0.6505">
        <ele>153</ele>
        <time>2025-06-15T09:49:52Z</time>
      </trkpt>
      <trkpt lat="45.16884" lon="0.65051">
        <ele>153</ele>
        <time>2025-06-15T09:49:53Z</time>
      </trkpt>
      <trkpt lat="45.16883" lon="0.65051">
        <ele>153.2</ele>
        <time>2025-06-15T09:49:54Z</time>
      </trkpt>
      <trkpt lat="45.16881" lon="0.65051">
        <ele>153.2</ele>
        <time>2025-06-15T09:49:55Z</time>
      </trkpt>
      <trkpt lat="45.1688" lon="0.65052">
        <ele>153.2</ele>
        <time>2025-06-15T09:49:56Z</time>
      </trkpt>
      <trkpt lat="45.16878" lon="0.65052">
        <ele>153.2</ele>
        <time>2025-06-15T09:49:57Z</time>
      </trkpt>
      <trkpt lat="45.16877" lon="0.65053">
        <ele>153.4</ele>
        <time>2025-06-15T09:49:58Z</time>
      </trkpt>
      <trkpt lat="45.16876" lon="0.65053">
        <ele>153.4</ele>
        <time>2025-06-15T09:49:59Z</time>
      </trkpt>
      <trkpt lat="45.16875" lon="0.65053">
        <ele>153.4</ele>
        <time>2025-06-15T09:50:00Z</time>
      </trkpt>
      <trkpt lat="45.16873" lon="0.65053">
        <ele>153.4</ele>
        <time>2025-06-15T09:50:01Z</time>
      </trkpt>
      <trkpt lat="45.16872" lon="0.65054">
        <ele>153.6</ele>
        <time>2025-06-15T09:50:02Z</time>
      </trkpt>
      <trkpt lat="45.16871" lon="0.65054">
        <ele>153.6</ele>
        <time>2025-06-15T09:50:03Z</time>
      </trkpt>
      <trkpt lat="45.1687" lon="0.65054">
        <ele>153.6</ele>
        <time>2025-06-15T09:50:04Z</time>
      </trkpt>
      <trkpt lat="45.16868" lon="0.65055">
        <ele>153.6</ele>
        <time>2025-06-15T09:50:05Z</time>
      </trkpt>
      <trkpt lat="45.16867" lon="0.65055">
        <ele>153.6</ele>
        <time>2025-06-15T09:50:06Z</time>
      </trkpt>
      <trkpt lat="45.16866" lon="0.65056">
        <ele>153.8</ele>
        <time>2025-06-15T09:50:07Z</time>
      </trkpt>
      <trkpt lat="45.16864" lon="0.65056">
        <ele>153.8</ele>
        <time>2025-06-15T09:50:08Z</time>
      </trkpt>
      <trkpt lat="45.16863" lon="0.65056">
        <ele>153.8</ele>
        <time>2025-06-15T09:50:09Z</time>
      </trkpt>
      <trkpt lat="45.16862" lon="0.65057">
        <ele>154</ele>
        <time>2025-06-15T09:50:10Z</time>
      </trkpt>
      <trkpt lat="45.1686" lon="0.65057">
        <ele>154</ele>
        <time>2025-06-15T09:50:11Z</time>
      </trkpt>
      <trkpt lat="45.16859" lon="0.65058">
        <ele>154</ele>
        <time>2025-06-15T09:50:12Z</time>
      </trkpt>
      <trkpt lat="45.16857" lon="0.65059">
        <ele>154.2</ele>
        <time>2025-06-15T09:50:13Z</time>
      </trkpt>
      <trkpt lat="45.16856" lon="0.65059">
        <ele>154.2</ele>
        <time>2025-06-15T09:50:14Z</time>
      </trkpt>
      <trkpt lat="45.16854" lon="0.6506">
        <ele>154.2</ele>
        <time>2025-06-15T09:50:15Z</time>
      </trkpt>
      <trkpt lat="45.16852" lon="0.65061">
        <ele>154.4</ele>
        <time>2025-06-15T09:50:16Z</time>
      </trkpt>
      <trkpt lat="45.1685" lon="0.65063">
        <ele>154.4</ele>
        <time>2025-06-15T09:50:17Z</time>
      </trkpt>
      <trkpt lat="45.16848" lon="0.65063">
        <ele>154.4</ele>
        <time>2025-06-15T09:50:18Z</time>
      </trkpt>
      <trkpt lat="45.16847" lon="0.65064">
        <ele>154.4</ele>
        <time>2025-06-15T09:50:19Z</time>
      </trkpt>
      <trkpt lat="45.16845" lon="0.65064">
        <ele>154.4</ele>
        <time>2025-06-15T09:50:20Z</time>
      </trkpt>
      <trkpt lat="45.16843" lon="0.65065">
        <ele>154.6</ele>
        <time>2025-06-15T09:50:21Z</time>
      </trkpt>
      <trkpt lat="45.16841" lon="0.65066">
        <ele>154.6</ele>
        <time>2025-06-15T09:50:22Z</time>
      </trkpt>
      <trkpt lat="45.16839" lon="0.65067">
        <ele>154.6</ele>
        <time>2025-06-15T09:50:23Z</time>
      </trkpt>
      <trkpt lat="45.16838" lon="0.65068">
        <ele>154.8</ele>
        <time>2025-06-15T09:50:24Z</time>
      </trkpt>
      <trkpt lat="45.16835" lon="0.6507">
        <ele>154.8</ele>
        <time>2025-06-15T09:50:25Z</time>
      </trkpt>
      <trkpt lat="45.16833" lon="0.65071">
        <ele>154.8</ele>
        <time>2025-06-15T09:50:26Z</time>
      </trkpt>
      <trkpt lat="45.16831" lon="0.65072">
        <ele>155</ele>
        <time>2025-06-15T09:50:27Z</time>
      </trkpt>
      <trkpt lat="45.16829" lon="0.65073">
        <ele>155</ele>
        <time>2025-06-15T09:50:28Z</time>
      </trkpt>
      <trkpt lat="45.16827" lon="0.65074">
        <ele>155</ele>
        <time>2025-06-15T09:50:29Z</time>
      </trkpt>
      <trkpt lat="45.16825" lon="0.65075">
        <ele>155.2</ele>
        <time>2025-06-15T09:50:30Z</time>
      </trkpt>
      <trkpt lat="45.16824" lon="0.65076">
        <ele>155.2</ele>
        <time>2025-06-15T09:50:31Z</time>
      </trkpt>
      <trkpt lat="45.16821" lon="0.65077">
        <ele>155.4</ele>
        <time>2025-06-15T09:50:32Z</time>
      </trkpt>
      <trkpt lat="45.1682" lon="0.65079">
        <ele>155.4</ele>
        <time>2025-06-15T09:50:33Z</time>
      </trkpt>
      <trkpt lat="45.16818" lon="0.65079">
        <ele>155.4</ele>
        <time>2025-06-15T09:50:34Z</time>
      </trkpt>
      <trkpt lat="45.16816" lon="0.6508">
        <ele>155.4</ele>
        <time>2025-06-15T09:50:35Z</time>
      </trkpt>
      <trkpt lat="45.16814" lon="0.65081">
        <ele>155.4</ele>
        <time>2025-06-15T09:50:36Z</time>
      </trkpt>
      <trkpt lat="45.16812" lon="0.65082">
        <ele>155.4</ele>
        <time>2025-06-15T09:50:37Z</time>
      </trkpt>
      <trkpt lat="45.1681" lon="0.65084">
        <ele>155.6</ele>
        <time>2025-06-15T09:50:38Z</time>
      </trkpt>
      <trkpt lat="45.16807" lon="0.65085">
        <ele>155.6</ele>
        <time>2025-06-15T09:50:39Z</time>
      </trkpt>
      <trkpt lat="45.16805" lon="0.65086">
        <ele>155.6</ele>
        <time>2025-06-15T09:50:40Z</time>
      </trkpt>
      <trkpt lat="45.16802" lon="0.65087">
        <ele>155.6</ele>
        <time>2025-06-15T09:50:41Z</time>
      </trkpt>
      <trkpt lat="45.16799" lon="0.65088">
        <ele>155.8</ele>
        <time>2025-06-15T09:50:42Z</time>
      </trkpt>
      <trkpt lat="45.16796" lon="0.6509">
        <ele>155.8</ele>
        <time>2025-06-15T09:50:43Z</time>
      </trkpt>
      <trkpt lat="45.16793" lon="0.65092">
        <ele>156</ele>
        <time>2025-06-15T09:50:44Z</time>
      </trkpt>
      <trkpt lat="45.1679" lon="0.65094">
        <ele>156.2</ele>
        <time>2025-06-15T09:50:45Z</time>
      </trkpt>
      <trkpt lat="45.16787" lon="0.65096">
        <ele>156.2</ele>
        <time>2025-06-15T09:50:46Z</time>
      </trkpt>
      <trkpt lat="45.16783" lon="0.65098">
        <ele>156</ele>
        <time>2025-06-15T09:50:47Z</time>
      </trkpt>
      <trkpt lat="45.16781" lon="0.65101">
        <ele>156.2</ele>
        <time>2025-06-15T09:50:48Z</time>
      </trkpt>
      <trkpt lat="45.16778" lon="0.65103">
        <ele>156.2</ele>
        <time>2025-06-15T09:50:49Z</time>
      </trkpt>
      <trkpt lat="45.16775" lon="0.65106">
        <ele>156.2</ele>
        <time>2025-06-15T09:50:50Z</time>
      </trkpt>
      <trkpt lat="45.16772" lon="0.65108">
        <ele>156.2</ele>
        <time>2025-06-15T09:50:51Z</time>
      </trkpt>
      <trkpt lat="45.16769" lon="0.65111">
        <ele>156.4</ele>
        <time>2025-06-15T09:50:52Z</time>
      </trkpt>
      <trkpt lat="45.16767" lon="0.65113">
        <ele>156.4</ele>
        <time>2025-06-15T09:50:53Z</time>
      </trkpt>
      <trkpt lat="45.16764" lon="0.65116">
        <ele>156.4</ele>
        <time>2025-06-15T09:50:54Z</time>
      </trkpt>
      <trkpt lat="45.16761" lon="0.65118">
        <ele>156.6</ele>
        <time>2025-06-15T09:50:55Z</time>
      </trkpt>
      <trkpt lat="45.16759" lon="0.6512">
        <ele>156.6</ele>
        <time>2025-06-15T09:50:56Z</time>
      </trkpt>
      <trkpt lat="45.16756" lon="0.65123">
        <ele>156.6</ele>
        <time>2025-06-15T09:50:57Z</time>
      </trkpt>
      <trkpt lat="45.16753" lon="0.65126">
        <ele>156.8</ele>
        <time>2025-06-15T09:50:58Z</time>
      </trkpt>
      <trkpt lat="45.1675" lon="0.65128">
        <ele>156.8</ele>
        <time>2025-06-15T09:50:59Z</time>
      </trkpt>
      <trkpt lat="45.16746" lon="0.65131">
        <ele>157</ele>
        <time>2025-06-15T09:51:00Z</time>
      </trkpt>
      <trkpt lat="45.16742" lon="0.65134">
        <ele>157</ele>
        <time>2025-06-15T09:51:01Z</time>
      </trkpt>
      <trkpt lat="45.16738" lon="0.65137">
        <ele>157.2</ele>
        <time>2025-06-15T09:51:02Z</time>
      </trkpt>
      <trkpt lat="45.16733" lon="0.65141">
        <ele>157.2</ele>
        <time>2025-06-15T09:51:03Z</time>
      </trkpt>
      <trkpt lat="45.16729" lon="0.65144">
        <ele>157.2</ele>
        <time>2025-06-15T09:51:04Z</time>
      </trkpt>
      <trkpt lat="45.16723" lon="0.65147">
        <ele>157.2</ele>
        <time>2025-06-15T09:51:05Z</time>
      </trkpt>
      <trkpt lat="45.16719" lon="0.65151">
        <ele>157.2</ele>
        <time>2025-06-15T09:51:06Z</time>
      </trkpt>
      <trkpt lat="45.16716" lon="0.65155">
        <ele>157.2</ele>
        <time>2025-06-15T09:51:07Z</time>
      </trkpt>
      <trkpt lat="45.16713" lon="0.6516">
        <ele>157.2</ele>
        <time>2025-06-15T09:51:08Z</time>
      </trkpt>
      <trkpt lat="45.16711" lon="0.65166">
        <ele>157.2</ele>
        <time>2025-06-15T09:51:09Z</time>
      </trkpt>
      <trkpt lat="45.16709" lon="0.65172">
        <ele>157.2</ele>
        <time>2025-06-15T09:51:10Z</time>
      </trkpt>
      <trkpt lat="45.16706" lon="0.65178">
        <ele>157.4</ele>
        <time>2025-06-15T09:51:11Z</time>
      </trkpt>
      <trkpt lat="45.16703" lon="0.65185">
        <ele>157.2</ele>
        <time>2025-06-15T09:51:12Z</time>
      </trkpt>
      <trkpt lat="45.167" lon="0.65191">
        <ele>157.2</ele>
        <time>2025-06-15T09:51:13Z</time>
      </trkpt>
      <trkpt lat="45.16698" lon="0.65198">
        <ele>157.2</ele>
        <time>2025-06-15T09:51:14Z</time>
      </trkpt>
      <trkpt lat="45.16695" lon="0.65205">
        <ele>157.2</ele>
        <time>2025-06-15T09:51:15Z</time>
      </trkpt>
      <trkpt lat="45.16692" lon="0.65212">
        <ele>157</ele>
        <time>2025-06-15T09:51:16Z</time>
      </trkpt>
      <trkpt lat="45.16689" lon="0.65218">
        <ele>157</ele>
        <time>2025-06-15T09:51:17Z</time>
      </trkpt>
      <trkpt lat="45.16687" lon="0.65224">
        <ele>156.8</ele>
        <time>2025-06-15T09:51:18Z</time>
      </trkpt>
      <trkpt lat="45.16685" lon="0.65229">
        <ele>156.6</ele>
        <time>2025-06-15T09:51:19Z</time>
      </trkpt>
      <trkpt lat="45.16684" lon="0.65235">
        <ele>156.6</ele>
        <time>2025-06-15T09:51:20Z</time>
      </trkpt>
      <trkpt lat="45.16683" lon="0.65239">
        <ele>156.6</ele>
        <time>2025-06-15T09:51:21Z</time>
      </trkpt>
      <trkpt lat="45.16681" lon="0.65243">
        <ele>156.6</ele>
        <time>2025-06-15T09:51:22Z</time>
      </trkpt>
      <trkpt lat="45.1668" lon="0.65248">
        <ele>156.6</ele>
        <time>2025-06-15T09:51:23Z</time>
      </trkpt>
      <trkpt lat="45.16679" lon="0.65252">
        <ele>156.8</ele>
        <time>2025-06-15T09:51:24Z</time>
      </trkpt>
      <trkpt lat="45.16677" lon="0.65256">
        <ele>156.8</ele>
        <time>2025-06-15T09:51:25Z</time>
      </trkpt>
      <trkpt lat="45.16676" lon="0.65259">
        <ele>157</ele>
        <time>2025-06-15T09:51:26Z</time>
      </trkpt>
      <trkpt lat="45.16675" lon="0.65263">
        <ele>157</ele>
        <time>2025-06-15T09:51:27Z</time>
      </trkpt>
      <trkpt lat="45.16674" lon="0.65266">
        <ele>157</ele>
        <time>2025-06-15T09:51:28Z</time>
      </trkpt>
      <trkpt lat="45.16672" lon="0.6527">
        <ele>157.2</ele>
        <time>2025-06-15T09:51:29Z</time>
      </trkpt>
      <trkpt lat="45.16672" lon="0.65274">
        <ele>157.2</ele>
        <time>2025-06-15T09:51:30Z</time>
      </trkpt>
      <trkpt lat="45.1667" lon="0.65277">
        <ele>157.2</ele>
        <time>2025-06-15T09:51:31Z</time>
      </trkpt>
      <trkpt lat="45.16669" lon="0.6528">
        <ele>157.2</ele>
        <time>2025-06-15T09:51:32Z</time>
      </trkpt>
      <trkpt lat="45.16667" lon="0.65284">
        <ele>157.2</ele>
        <time>2025-06-15T09:51:33Z</time>
      </trkpt>
      <trkpt lat="45.16667" lon="0.65287">
        <ele>157.4</ele>
        <time>2025-06-15T09:51:34Z</time>
      </trkpt>
      <trkpt lat="45.16667" lon="0.65291">
        <ele>157.4</ele>
        <time>2025-06-15T09:51:35Z</time>
      </trkpt>
      <trkpt lat="45.16667" lon="0.65295">
        <ele>157.4</ele>
        <time>2025-06-15T09:51:36Z</time>
      </trkpt>
      <trkpt lat="45.16667" lon="0.65298">
        <ele>157.4</ele>
        <time>2025-06-15T09:51:37Z</time>
      </trkpt>
      <trkpt lat="45.16667" lon="0.65301">
        <ele>157.4</ele>
        <time>2025-06-15T09:51:38Z</time>
      </trkpt>
      <trkpt lat="45.16667" lon="0.65303">
        <ele>157.4</ele>
        <time>2025-06-15T09:51:39Z</time>
      </trkpt>
      <trkpt lat="45.16666" lon="0.65304">
        <ele>157.6</ele>
        <time>2025-06-15T09:51:40Z</time>
      </trkpt>
      <trkpt lat="45.16667" lon="0.65304">
        <ele>157.6</ele>
        <time>2025-06-15T09:51:41Z</time>
      </trkpt>
      <trkpt lat="45.1666" lon="0.653">
        <ele>155.6</ele>
        <time>2025-06-15T09:52:52Z</time>
      </trkpt>
      <trkpt lat="45.16658" lon="0.65298">
        <ele>155.4</ele>
        <time>2025-06-15T09:52:53Z</time>
      </trkpt>
      <trkpt lat="45.16656" lon="0.65299">
        <ele>155.4</ele>
        <time>2025-06-15T09:52:54Z</time>
      </trkpt>
      <trkpt lat="45.16654" lon="0.653">
        <ele>155.2</ele>
        <time>2025-06-15T09:52:55Z</time>
      </trkpt>
      <trkpt lat="45.16652" lon="0.653">
        <ele>155.2</ele>
        <time>2025-06-15T09:52:56Z</time>
      </trkpt>
      <trkpt lat="45.16649" lon="0.65301">
        <ele>155.2</ele>
        <time>2025-06-15T09:52:57Z</time>
      </trkpt>
      <trkpt lat="45.16647" lon="0.65302">
        <ele>155.2</ele>
        <time>2025-06-15T09:52:58Z</time>
      </trkpt>
      <trkpt lat="45.16645" lon="0.65302">
        <ele>155.2</ele>
        <time>2025-06-15T09:52:59Z</time>
      </trkpt>
      <trkpt lat="45.16642" lon="0.65303">
        <ele>155.2</ele>
        <time>2025-06-15T09:53:00Z</time>
      </trkpt>
      <trkpt lat="45.1664" lon="0.65304">
        <ele>155.2</ele>
        <time>2025-06-15T09:53:01Z</time>
      </trkpt>
      <trkpt lat="45.16638" lon="0.65305">
        <ele>155.2</ele>
        <time>2025-06-15T09:53:02Z</time>
      </trkpt>
      <trkpt lat="45.16635" lon="0.65306">
        <ele>155.2</ele>
        <time>2025-06-15T09:53:03Z</time>
      </trkpt>
      <trkpt lat="45.16631" lon="0.65307">
        <ele>155</ele>
        <time>2025-06-15T09:53:04Z</time>
      </trkpt>
      <trkpt lat="45.16628" lon="0.65308">
        <ele>155.2</ele>
        <time>2025-06-15T09:53:05Z</time>
      </trkpt>
      <trkpt lat="45.16625" lon="0.65309">
        <ele>155.2</ele>
        <time>2025-06-15T09:53:06Z</time>
      </trkpt>
      <trkpt lat="45.16622" lon="0.6531">
        <ele>155.2</ele>
        <time>2025-06-15T09:53:07Z</time>
      </trkpt>
      <trkpt lat="45.16618" lon="0.65311">
        <ele>155.2</ele>
        <time>2025-06-15T09:53:08Z</time>
      </trkpt>
      <trkpt lat="45.16615" lon="0.65312">
        <ele>155.2</ele>
        <time>2025-06-15T09:53:09Z</time>
      </trkpt>
      <trkpt lat="45.16612" lon="0.65313">
        <ele>155.2</ele>
        <time>2025-06-15T09:53:10Z</time>
      </trkpt>
      <trkpt lat="45.16608" lon="0.65314">
        <ele>155.2</ele>
        <time>2025-06-15T09:53:11Z</time>
      </trkpt>
      <trkpt lat="45.16604" lon="0.65315">
        <ele>155.2</ele>
        <time>2025-06-15T09:53:12Z</time>
      </trkpt>
      <trkpt lat="45.16601" lon="0.65316">
        <ele>155.2</ele>
        <time>2025-06-15T09:53:13Z</time>
      </trkpt>
      <trkpt lat="45.16598" lon="0.65317">
        <ele>155.2</ele>
        <time>2025-06-15T09:53:14Z</time>
      </trkpt>
      <trkpt lat="45.16595" lon="0.65318">
        <ele>155.2</ele>
        <time>2025-06-15T09:53:15Z</time>
      </trkpt>
      <trkpt lat="45.16591" lon="0.65319">
        <ele>155.2</ele>
        <time>2025-06-15T09:53:16Z</time>
      </trkpt>
      <trkpt lat="45.16588" lon="0.65321">
        <ele>155.2</ele>
        <time>2025-06-15T09:53:17Z</time>
      </trkpt>
      <trkpt lat="45.16585" lon="0.65324">
        <ele>155.2</ele>
        <time>2025-06-15T09:53:18Z</time>
      </trkpt>
      <trkpt lat="45.16582" lon="0.65327">
        <ele>155.2</ele>
        <time>2025-06-15T09:53:19Z</time>
      </trkpt>
      <trkpt lat="45.16581" lon="0.65331">
        <ele>155.2</ele>
        <time>2025-06-15T09:53:20Z</time>
      </trkpt>
      <trkpt lat="45.1658" lon="0.65335">
        <ele>155.2</ele>
        <time>2025-06-15T09:53:21Z</time>
      </trkpt>
      <trkpt lat="45.16578" lon="0.65339">
        <ele>155.2</ele>
        <time>2025-06-15T09:53:22Z</time>
      </trkpt>
      <trkpt lat="45.16577" lon="0.65343">
        <ele>155.2</ele>
        <time>2025-06-15T09:53:23Z</time>
      </trkpt>
      <trkpt lat="45.16576" lon="0.65347">
        <ele>155.2</ele>
        <time>2025-06-15T09:53:24Z</time>
      </trkpt>
      <trkpt lat="45.16574" lon="0.65352">
        <ele>155.2</ele>
        <time>2025-06-15T09:53:25Z</time>
      </trkpt>
      <trkpt lat="45.16573" lon="0.65356">
        <ele>155.4</ele>
        <time>2025-06-15T09:53:26Z</time>
      </trkpt>
      <trkpt lat="45.16572" lon="0.65359">
        <ele>155.4</ele>
        <time>2025-06-15T09:53:27Z</time>
      </trkpt>
      <trkpt lat="45.16571" lon="0.65362">
        <ele>155.4</ele>
        <time>2025-06-15T09:53:28Z</time>
      </trkpt>
      <trkpt lat="45.16572" lon="0.65366">
        <ele>155.4</ele>
        <time>2025-06-15T09:53:29Z</time>
      </trkpt>
      <trkpt lat="45.16572" lon="0.65369">
        <ele>155.4</ele>
        <time>2025-06-15T09:53:30Z</time>
      </trkpt>
      <trkpt lat="45.16573" lon="0.65372">
        <ele>155.4</ele>
        <time>2025-06-15T09:53:31Z</time>
      </trkpt>
      <trkpt lat="45.16573" lon="0.65376">
        <ele>155.4</ele>
        <time>2025-06-15T09:53:32Z</time>
      </trkpt>
      <trkpt lat="45.16574" lon="0.65379">
        <ele>155.6</ele>
        <time>2025-06-15T09:53:33Z</time>
      </trkpt>
      <trkpt lat="45.16575" lon="0.65382">
        <ele>155.4</ele>
        <time>2025-06-15T09:53:34Z</time>
      </trkpt>
      <trkpt lat="45.16577" lon="0.65385">
        <ele>155.4</ele>
        <time>2025-06-15T09:53:35Z</time>
      </trkpt>
      <trkpt lat="45.16578" lon="0.65387">
        <ele>155.2</ele>
        <time>2025-06-15T09:53:36Z</time>
      </trkpt>
      <trkpt lat="45.1658" lon="0.6539">
        <ele>155</ele>
        <time>2025-06-15T09:53:37Z</time>
      </trkpt>
      <trkpt lat="45.16582" lon="0.65392">
        <ele>155</ele>
        <time>2025-06-15T09:53:38Z</time>
      </trkpt>
      <trkpt lat="45.16584" lon="0.65394">
        <ele>154.6</ele>
        <time>2025-06-15T09:53:39Z</time>
      </trkpt>
      <trkpt lat="45.16586" lon="0.65396">
        <ele>154.4</ele>
        <time>2025-06-15T09:53:40Z</time>
      </trkpt>
      <trkpt lat="45.16588" lon="0.65398">
        <ele>154.2</ele>
        <time>2025-06-15T09:53:41Z</time>
      </trkpt>
      <trkpt lat="45.1659" lon="0.65399">
        <ele>154</ele>
        <time>2025-06-15T09:53:42Z</time>
      </trkpt>
      <trkpt lat="45.16593" lon="0.65401">
        <ele>153.6</ele>
        <time>2025-06-15T09:53:43Z</time>
      </trkpt>
      <trkpt lat="45.16595" lon="0.65403">
        <ele>153.4</ele>
        <time>2025-06-15T09:53:44Z</time>
      </trkpt>
      <trkpt lat="45.16598" lon="0.65406">
        <ele>153</ele>
        <time>2025-06-15T09:53:45Z</time>
      </trkpt>
      <trkpt lat="45.16601" lon="0.65408">
        <ele>152.8</ele>
        <time>2025-06-15T09:53:46Z</time>
      </trkpt>
      <trkpt lat="45.16603" lon="0.6541">
        <ele>152.4</ele>
        <time>2025-06-15T09:53:47Z</time>
      </trkpt>
      <trkpt lat="45.16606" lon="0.65412">
        <ele>152.2</ele>
        <time>2025-06-15T09:53:48Z</time>
      </trkpt>
      <trkpt lat="45.16608" lon="0.65415">
        <ele>151.8</ele>
        <time>2025-06-15T09:53:49Z</time>
      </trkpt>
      <trkpt lat="45.1661" lon="0.65417">
        <ele>151.4</ele>
        <time>2025-06-15T09:53:50Z</time>
      </trkpt>
      <trkpt lat="45.16613" lon="0.65419">
        <ele>151.2</ele>
        <time>2025-06-15T09:53:51Z</time>
      </trkpt>
      <trkpt lat="45.16615" lon="0.65422">
        <ele>150.8</ele>
        <time>2025-06-15T09:53:52Z</time>
      </trkpt>
      <trkpt lat="45.16617" lon="0.65425">
        <ele>150.4</ele>
        <time>2025-06-15T09:53:53Z</time>
      </trkpt>
      <trkpt lat="45.16619" lon="0.65428">
        <ele>150</ele>
        <time>2025-06-15T09:53:54Z</time>
      </trkpt>
      <trkpt lat="45.16621" lon="0.6543">
        <ele>149.6</ele>
        <time>2025-06-15T09:53:55Z</time>
      </trkpt>
      <trkpt lat="45.16623" lon="0.65433">
        <ele>149.2</ele>
        <time>2025-06-15T09:53:56Z</time>
      </trkpt>
      <trkpt lat="45.16626" lon="0.65435">
        <ele>148.8</ele>
        <time>2025-06-15T09:53:57Z</time>
      </trkpt>
      <trkpt lat="45.16628" lon="0.65437">
        <ele>148.4</ele>
        <time>2025-06-15T09:53:58Z</time>
      </trkpt>
      <trkpt lat="45.1663" lon="0.65439">
        <ele>148</ele>
        <time>2025-06-15T09:53:59Z</time>
      </trkpt>
      <trkpt lat="45.16632" lon="0.65442">
        <ele>147.6</ele>
        <time>2025-06-15T09:54:00Z</time>
      </trkpt>
      <trkpt lat="45.16634" lon="0.65445">
        <ele>147.2</ele>
        <time>2025-06-15T09:54:01Z</time>
      </trkpt>
      <trkpt lat="45.16636" lon="0.65448">
        <ele>147</ele>
        <time>2025-06-15T09:54:02Z</time>
      </trkpt>
      <trkpt lat="45.16639" lon="0.6545">
        <ele>146.6</ele>
        <time>2025-06-15T09:54:03Z</time>
      </trkpt>
      <trkpt lat="45.16641" lon="0.65453">
        <ele>146.2</ele>
        <time>2025-06-15T09:54:04Z</time>
      </trkpt>
      <trkpt lat="45.16643" lon="0.65456">
        <ele>145.8</ele>
        <time>2025-06-15T09:54:05Z</time>
      </trkpt>
      <trkpt lat="45.16645" lon="0.65458">
        <ele>145.6</ele>
        <time>2025-06-15T09:54:06Z</time>
      </trkpt>
      <trkpt lat="45.16648" lon="0.65461">
        <ele>145.2</ele>
        <time>2025-06-15T09:54:07Z</time>
      </trkpt>
      <trkpt lat="45.1665" lon="0.65464">
        <ele>144.8</ele>
        <time>2025-06-15T09:54:08Z</time>
      </trkpt>
      <trkpt lat="45.16652" lon="0.65466">
        <ele>144.6</ele>
        <time>2025-06-15T09:54:09Z</time>
      </trkpt>
      <trkpt lat="45.16654" lon="0.65469">
        <ele>144.4</ele>
        <time>2025-06-15T09:54:10Z</time>
      </trkpt>
      <trkpt lat="45.16656" lon="0.65472">
        <ele>144</ele>
        <time>2025-06-15T09:54:11Z</time>
      </trkpt>
      <trkpt lat="45.16659" lon="0.65475">
        <ele>143.8</ele>
        <time>2025-06-15T09:54:12Z</time>
      </trkpt>
      <trkpt lat="45.16661" lon="0.65478">
        <ele>143.6</ele>
        <time>2025-06-15T09:54:13Z</time>
      </trkpt>
      <trkpt lat="45.16663" lon="0.6548">
        <ele>143.2</ele>
        <time>2025-06-15T09:54:14Z</time>
      </trkpt>
      <trkpt lat="45.16665" lon="0.65483">
        <ele>142.8</ele>
        <time>2025-06-15T09:54:15Z</time>
      </trkpt>
      <trkpt lat="45.16667" lon="0.65486">
        <ele>142.8</ele>
        <time>2025-06-15T09:54:16Z</time>
      </trkpt>
      <trkpt lat="45.1667" lon="0.65488">
        <ele>142.4</ele>
        <time>2025-06-15T09:54:17Z</time>
      </trkpt>
      <trkpt lat="45.16672" lon="0.65491">
        <ele>141.8</ele>
        <time>2025-06-15T09:54:18Z</time>
      </trkpt>
      <trkpt lat="45.16674" lon="0.65494">
        <ele>141.4</ele>
        <time>2025-06-15T09:54:19Z</time>
      </trkpt>
      <trkpt lat="45.16676" lon="0.65497">
        <ele>140.8</ele>
        <time>2025-06-15T09:54:20Z</time>
      </trkpt>
      <trkpt lat="45.16678" lon="0.65499">
        <ele>140.2</ele>
        <time>2025-06-15T09:54:21Z</time>
      </trkpt>
      <trkpt lat="45.1668" lon="0.65502">
        <ele>139.6</ele>
        <time>2025-06-15T09:54:22Z</time>
      </trkpt>
      <trkpt lat="45.16682" lon="0.65504">
        <ele>139</ele>
        <time>2025-06-15T09:54:23Z</time>
      </trkpt>
      <trkpt lat="45.16684" lon="0.65507">
        <ele>138.4</ele>
        <time>2025-06-15T09:54:24Z</time>
      </trkpt>
      <trkpt lat="45.16686" lon="0.6551">
        <ele>138</ele>
        <time>2025-06-15T09:54:25Z</time>
      </trkpt>
      <trkpt lat="45.16688" lon="0.65512">
        <ele>137.4</ele>
        <time>2025-06-15T09:54:26Z</time>
      </trkpt>
      <trkpt lat="45.1669" lon="0.65515">
        <ele>137</ele>
        <time>2025-06-15T09:54:27Z</time>
      </trkpt>
      <trkpt lat="45.16693" lon="0.65518">
        <ele>136.8</ele>
        <time>2025-06-15T09:54:28Z</time>
      </trkpt>
      <trkpt lat="45.16695" lon="0.65521">
        <ele>136.4</ele>
        <time>2025-06-15T09:54:29Z</time>
      </trkpt>
      <trkpt lat="45.16697" lon="0.65523">
        <ele>136.2</ele>
        <time>2025-06-15T09:54:30Z</time>
      </trkpt>
      <trkpt lat="45.16699" lon="0.65526">
        <ele>135.8</ele>
        <time>2025-06-15T09:54:31Z</time>
      </trkpt>
      <trkpt lat="45.16701" lon="0.65529">
        <ele>135</ele>
        <time>2025-06-15T09:54:32Z</time>
      </trkpt>
      <trkpt lat="45.16704" lon="0.65531">
        <ele>134</ele>
        <time>2025-06-15T09:54:33Z</time>
      </trkpt>
      <trkpt lat="45.16706" lon="0.65533">
        <ele>133.2</ele>
        <time>2025-06-15T09:54:34Z</time>
      </trkpt>
      <trkpt lat="45.16708" lon="0.65536">
        <ele>132.4</ele>
        <time>2025-06-15T09:54:35Z</time>
      </trkpt>
      <trkpt lat="45.1671" lon="0.65538">
        <ele>131.8</ele>
        <time>2025-06-15T09:54:36Z</time>
      </trkpt>
      <trkpt lat="45.16712" lon="0.6554">
        <ele>131.6</ele>
        <time>2025-06-15T09:54:37Z</time>
      </trkpt>
      <trkpt lat="45.16715" lon="0.65543">
        <ele>131.4</ele>
        <time>2025-06-15T09:54:38Z</time>
      </trkpt>
      <trkpt lat="45.16717" lon="0.65545">
        <ele>131</ele>
        <time>2025-06-15T09:54:39Z</time>
      </trkpt>
      <trkpt lat="45.16719" lon="0.65548">
        <ele>130.8</ele>
        <time>2025-06-15T09:54:40Z</time>
      </trkpt>
      <trkpt lat="45.16721" lon="0.65551">
        <ele>130.4</ele>
        <time>2025-06-15T09:54:41Z</time>
      </trkpt>
      <trkpt lat="45.16724" lon="0.65553">
        <ele>130</ele>
        <time>2025-06-15T09:54:42Z</time>
      </trkpt>
      <trkpt lat="45.16726" lon="0.65556">
        <ele>129.8</ele>
        <time>2025-06-15T09:54:43Z</time>
      </trkpt>
      <trkpt lat="45.16728" lon="0.65559">
        <ele>129.4</ele>
        <time>2025-06-15T09:54:44Z</time>
      </trkpt>
      <trkpt lat="45.1673" lon="0.65561">
        <ele>129</ele>
        <time>2025-06-15T09:54:45Z</time>
      </trkpt>
      <trkpt lat="45.16733" lon="0.65564">
        <ele>128.6</ele>
        <time>2025-06-15T09:54:46Z</time>
      </trkpt>
      <trkpt lat="45.16735" lon="0.65566">
        <ele>128.2</ele>
        <time>2025-06-15T09:54:47Z</time>
      </trkpt>
      <trkpt lat="45.16737" lon="0.6557">
        <ele>128</ele>
        <time>2025-06-15T09:54:48Z</time>
      </trkpt>
      <trkpt lat="45.16739" lon="0.65573">
        <ele>127.6</ele>
        <time>2025-06-15T09:54:49Z</time>
      </trkpt>
      <trkpt lat="45.16741" lon="0.65575">
        <ele>127.4</ele>
        <time>2025-06-15T09:54:50Z</time>
      </trkpt>
      <trkpt lat="45.16743" lon="0.65578">
        <ele>127</ele>
        <time>2025-06-15T09:54:51Z</time>
      </trkpt>
      <trkpt lat="45.16746" lon="0.65581">
        <ele>126.6</ele>
        <time>2025-06-15T09:54:52Z</time>
      </trkpt>
      <trkpt lat="45.16748" lon="0.65583">
        <ele>126.2</ele>
        <time>2025-06-15T09:54:53Z</time>
      </trkpt>
      <trkpt lat="45.1675" lon="0.65586">
        <ele>125.8</ele>
        <time>2025-06-15T09:54:54Z</time>
      </trkpt>
      <trkpt lat="45.16753" lon="0.65589">
        <ele>125.6</ele>
        <time>2025-06-15T09:54:55Z</time>
      </trkpt>
      <trkpt lat="45.16755" lon="0.65591">
        <ele>125.2</ele>
        <time>2025-06-15T09:54:56Z</time>
      </trkpt>
      <trkpt lat="45.16757" lon="0.65593">
        <ele>124.8</ele>
        <time>2025-06-15T09:54:57Z</time>
      </trkpt>
      <trkpt lat="45.1676" lon="0.65596">
        <ele>124.4</ele>
        <time>2025-06-15T09:54:58Z</time>
      </trkpt>
      <trkpt lat="45.16762" lon="0.65598">
        <ele>124</ele>
        <time>2025-06-15T09:54:59Z</time>
      </trkpt>
      <trkpt lat="45.16765" lon="0.65601">
        <ele>123.8</ele>
        <time>2025-06-15T09:55:00Z</time>
      </trkpt>
      <trkpt lat="45.16767" lon="0.65603">
        <ele>123.4</ele>
        <time>2025-06-15T09:55:01Z</time>
      </trkpt>
      <trkpt lat="45.16769" lon="0.65606">
        <ele>123</ele>
        <time>2025-06-15T09:55:02Z</time>
      </trkpt>
      <trkpt lat="45.16769" lon="0.6561">
        <ele>122.6</ele>
        <time>2025-06-15T09:55:03Z</time>
      </trkpt>
      <trkpt lat="45.16769" lon="0.65614">
        <ele>122.2</ele>
        <time>2025-06-15T09:55:04Z</time>
      </trkpt>
      <trkpt lat="45.16769" lon="0.65618">
        <ele>122</ele>
        <time>2025-06-15T09:55:05Z</time>
      </trkpt>
      <trkpt lat="45.16768" lon="0.65622">
        <ele>121.6</ele>
        <time>2025-06-15T09:55:06Z</time>
      </trkpt>
      <trkpt lat="45.16767" lon="0.65625">
        <ele>121.2</ele>
        <time>2025-06-15T09:55:07Z</time>
      </trkpt>
      <trkpt lat="45.16765" lon="0.65628">
        <ele>121</ele>
        <time>2025-06-15T09:55:08Z</time>
      </trkpt>
      <trkpt lat="45.16764" lon="0.65631">
        <ele>120.6</ele>
        <time>2025-06-15T09:55:09Z</time>
      </trkpt>
      <trkpt lat="45.16763" lon="0.65634">
        <ele>120.4</ele>
        <time>2025-06-15T09:55:10Z</time>
      </trkpt>
      <trkpt lat="45.16762" lon="0.65637">
        <ele>120</ele>
        <time>2025-06-15T09:55:11Z</time>
      </trkpt>
      <trkpt lat="45.1676" lon="0.65641">
        <ele>119.8</ele>
        <time>2025-06-15T09:55:12Z</time>
      </trkpt>
      <trkpt lat="45.16759" lon="0.65645">
        <ele>119.4</ele>
        <time>2025-06-15T09:55:13Z</time>
      </trkpt>
      <trkpt lat="45.16759" lon="0.65648">
        <ele>119</ele>
        <time>2025-06-15T09:55:14Z</time>
      </trkpt>
      <trkpt lat="45.16758" lon="0.65652">
        <ele>118.6</ele>
        <time>2025-06-15T09:55:15Z</time>
      </trkpt>
      <trkpt lat="45.16757" lon="0.65656">
        <ele>118.2</ele>
        <time>2025-06-15T09:55:16Z</time>
      </trkpt>
      <trkpt lat="45.16756" lon="0.6566">
        <ele>117.8</ele>
        <time>2025-06-15T09:55:17Z</time>
      </trkpt>
      <trkpt lat="45.16756" lon="0.65663">
        <ele>117.6</ele>
        <time>2025-06-15T09:55:18Z</time>
      </trkpt>
      <trkpt lat="45.16755" lon="0.65667">
        <ele>117.2</ele>
        <time>2025-06-15T09:55:19Z</time>
      </trkpt>
      <trkpt lat="45.16755" lon="0.65672">
        <ele>117</ele>
        <time>2025-06-15T09:55:20Z</time>
      </trkpt>
      <trkpt lat="45.16756" lon="0.65677">
        <ele>116.8</ele>
        <time>2025-06-15T09:55:21Z</time>
      </trkpt>
      <trkpt lat="45.16756" lon="0.65682">
        <ele>116.8</ele>
        <time>2025-06-15T09:55:22Z</time>
      </trkpt>
      <trkpt lat="45.16757" lon="0.65688">
        <ele>116.6</ele>
        <time>2025-06-15T09:55:23Z</time>
      </trkpt>
      <trkpt lat="45.16758" lon="0.65693">
        <ele>116.4</ele>
        <time>2025-06-15T09:55:24Z</time>
      </trkpt>
      <trkpt lat="45.16759" lon="0.65699">
        <ele>116.2</ele>
        <time>2025-06-15T09:55:25Z</time>
      </trkpt>
      <trkpt lat="45.16759" lon="0.65705">
        <ele>116.2</ele>
        <time>2025-06-15T09:55:26Z</time>
      </trkpt>
      <trkpt lat="45.16759" lon="0.65711">
        <ele>116</ele>
        <time>2025-06-15T09:55:27Z</time>
      </trkpt>
      <trkpt lat="45.1676" lon="0.65717">
        <ele>115.8</ele>
        <time>2025-06-15T09:55:28Z</time>
      </trkpt>
      <trkpt lat="45.1676" lon="0.65724">
        <ele>115.6</ele>
        <time>2025-06-15T09:55:29Z</time>
      </trkpt>
      <trkpt lat="45.16759" lon="0.65731">
        <ele>115.4</ele>
        <time>2025-06-15T09:55:30Z</time>
      </trkpt>
      <trkpt lat="45.16759" lon="0.65739">
        <ele>115</ele>
        <time>2025-06-15T09:55:31Z</time>
      </trkpt>
      <trkpt lat="45.16757" lon="0.65746">
        <ele>114.8</ele>
        <time>2025-06-15T09:55:32Z</time>
      </trkpt>
      <trkpt lat="45.16756" lon="0.65754">
        <ele>114.6</ele>
        <time>2025-06-15T09:55:33Z</time>
      </trkpt>
      <trkpt lat="45.16754" lon="0.65763">
        <ele>114.4</ele>
        <time>2025-06-15T09:55:34Z</time>
      </trkpt>
      <trkpt lat="45.16752" lon="0.65772">
        <ele>114.2</ele>
        <time>2025-06-15T09:55:35Z</time>
      </trkpt>
      <trkpt lat="45.1675" lon="0.65782">
        <ele>114</ele>
        <time>2025-06-15T09:55:36Z</time>
      </trkpt>
      <trkpt lat="45.16747" lon="0.65792">
        <ele>113.8</ele>
        <time>2025-06-15T09:55:37Z</time>
      </trkpt>
      <trkpt lat="45.16746" lon="0.65802">
        <ele>113.6</ele>
        <time>2025-06-15T09:55:38Z</time>
      </trkpt>
      <trkpt lat="45.16746" lon="0.65813">
        <ele>113.4</ele>
        <time>2025-06-15T09:55:39Z</time>
      </trkpt>
      <trkpt lat="45.16746" lon="0.65824">
        <ele>113.4</ele>
        <time>2025-06-15T09:55:40Z</time>
      </trkpt>
      <trkpt lat="45.16746" lon="0.65835">
        <ele>113.2</ele>
        <time>2025-06-15T09:55:41Z</time>
      </trkpt>
      <trkpt lat="45.16746" lon="0.65847">
        <ele>113</ele>
        <time>2025-06-15T09:55:42Z</time>
      </trkpt>
      <trkpt lat="45.16746" lon="0.65858">
        <ele>112.8</ele>
        <time>2025-06-15T09:55:43Z</time>
      </trkpt>
      <trkpt lat="45.16746" lon="0.6587">
        <ele>112.6</ele>
        <time>2025-06-15T09:55:44Z</time>
      </trkpt>
      <trkpt lat="45.16745" lon="0.65882">
        <ele>112.4</ele>
        <time>2025-06-15T09:55:45Z</time>
      </trkpt>
      <trkpt lat="45.16744" lon="0.65893">
        <ele>112.2</ele>
        <time>2025-06-15T09:55:46Z</time>
      </trkpt>
      <trkpt lat="45.16742" lon="0.65904">
        <ele>112.2</ele>
        <time>2025-06-15T09:55:47Z</time>
      </trkpt>
      <trkpt lat="45.1674" lon="0.65914">
        <ele>112</ele>
        <time>2025-06-15T09:55:48Z</time>
      </trkpt>
      <trkpt lat="45.16738" lon="0.65924">
        <ele>111.8</ele>
        <time>2025-06-15T09:55:49Z</time>
      </trkpt>
      <trkpt lat="45.16736" lon="0.65934">
        <ele>111.8</ele>
        <time>2025-06-15T09:55:50Z</time>
      </trkpt>
      <trkpt lat="45.16734" lon="0.65943">
        <ele>111.8</ele>
        <time>2025-06-15T09:55:51Z</time>
      </trkpt>
      <trkpt lat="45.16732" lon="0.65951">
        <ele>111.6</ele>
        <time>2025-06-15T09:55:52Z</time>
      </trkpt>
      <trkpt lat="45.16729" lon="0.65959">
        <ele>111.6</ele>
        <time>2025-06-15T09:55:53Z</time>
      </trkpt>
      <trkpt lat="45.16726" lon="0.65966">
        <ele>111.6</ele>
        <time>2025-06-15T09:55:54Z</time>
      </trkpt>
      <trkpt lat="45.16724" lon="0.65973">
        <ele>111.4</ele>
        <time>2025-06-15T09:55:55Z</time>
      </trkpt>
      <trkpt lat="45.16722" lon="0.6598">
        <ele>111.2</ele>
        <time>2025-06-15T09:55:56Z</time>
      </trkpt>
      <trkpt lat="45.1672" lon="0.65987">
        <ele>111.2</ele>
        <time>2025-06-15T09:55:57Z</time>
      </trkpt>
      <trkpt lat="45.16717" lon="0.65994">
        <ele>111</ele>
        <time>2025-06-15T09:55:58Z</time>
      </trkpt>
      <trkpt lat="45.16715" lon="0.66001">
        <ele>110.8</ele>
        <time>2025-06-15T09:55:59Z</time>
      </trkpt>
      <trkpt lat="45.16713" lon="0.66007">
        <ele>110.6</ele>
        <time>2025-06-15T09:56:00Z</time>
      </trkpt>
      <trkpt lat="45.16711" lon="0.66014">
        <ele>110.6</ele>
        <time>2025-06-15T09:56:01Z</time>
      </trkpt>
      <trkpt lat="45.16709" lon="0.6602">
        <ele>110.4</ele>
        <time>2025-06-15T09:56:02Z</time>
      </trkpt>
      <trkpt lat="45.16706" lon="0.66025">
        <ele>110.4</ele>
        <time>2025-06-15T09:56:03Z</time>
      </trkpt>
      <trkpt lat="45.16704" lon="0.66031">
        <ele>110.2</ele>
        <time>2025-06-15T09:56:04Z</time>
      </trkpt>
      <trkpt lat="45.16702" lon="0.66037">
        <ele>110.2</ele>
        <time>2025-06-15T09:56:05Z</time>
      </trkpt>
      <trkpt lat="45.16699" lon="0.66043">
        <ele>110.2</ele>
        <time>2025-06-15T09:56:06Z</time>
      </trkpt>
      <trkpt lat="45.16697" lon="0.66049">
        <ele>110</ele>
        <time>2025-06-15T09:56:07Z</time>
      </trkpt>
      <trkpt lat="45.16694" lon="0.66055">
        <ele>110</ele>
        <time>2025-06-15T09:56:08Z</time>
      </trkpt>
      <trkpt lat="45.16692" lon="0.66061">
        <ele>109.8</ele>
        <time>2025-06-15T09:56:09Z</time>
      </trkpt>
      <trkpt lat="45.1669" lon="0.66067">
        <ele>109.6</ele>
        <time>2025-06-15T09:56:10Z</time>
      </trkpt>
      <trkpt lat="45.16687" lon="0.66072">
        <ele>109.6</ele>
        <time>2025-06-15T09:56:11Z</time>
      </trkpt>
      <trkpt lat="45.16685" lon="0.66078">
        <ele>109.4</ele>
        <time>2025-06-15T09:56:12Z</time>
      </trkpt>
      <trkpt lat="45.16683" lon="0.66084">
        <ele>109.2</ele>
        <time>2025-06-15T09:56:13Z</time>
      </trkpt>
      <trkpt lat="45.1668" lon="0.6609">
        <ele>109</ele>
        <time>2025-06-15T09:56:14Z</time>
      </trkpt>
      <trkpt lat="45.16677" lon="0.66096">
        <ele>108.8</ele>
        <time>2025-06-15T09:56:15Z</time>
      </trkpt>
      <trkpt lat="45.16675" lon="0.66102">
        <ele>108.6</ele>
        <time>2025-06-15T09:56:16Z</time>
      </trkpt>
      <trkpt lat="45.16672" lon="0.66108">
        <ele>108.6</ele>
        <time>2025-06-15T09:56:17Z</time>
      </trkpt>
      <trkpt lat="45.1667" lon="0.66114">
        <ele>108.4</ele>
        <time>2025-06-15T09:56:18Z</time>
      </trkpt>
      <trkpt lat="45.16667" lon="0.66119">
        <ele>108.2</ele>
        <time>2025-06-15T09:56:19Z</time>
      </trkpt>
      <trkpt lat="45.16666" lon="0.66125">
        <ele>108</ele>
        <time>2025-06-15T09:56:20Z</time>
      </trkpt>
      <trkpt lat="45.16665" lon="0.66131">
        <ele>107.8</ele>
        <time>2025-06-15T09:56:21Z</time>
      </trkpt>
      <trkpt lat="45.16664" lon="0.66137">
        <ele>107.6</ele>
        <time>2025-06-15T09:56:22Z</time>
      </trkpt>
      <trkpt lat="45.16663" lon="0.66143">
        <ele>107.4</ele>
        <time>2025-06-15T09:56:23Z</time>
      </trkpt>
      <trkpt lat="45.16662" lon="0.66148">
        <ele>107.4</ele>
        <time>2025-06-15T09:56:24Z</time>
      </trkpt>
      <trkpt lat="45.16662" lon="0.66151">
        <ele>107.2</ele>
        <time>2025-06-15T09:56:25Z</time>
      </trkpt>
      <trkpt lat="45.16663" lon="0.66155">
        <ele>107.2</ele>
        <time>2025-06-15T09:56:26Z</time>
      </trkpt>
      <trkpt lat="45.16665" lon="0.66158">
        <ele>107</ele>
        <time>2025-06-15T09:56:27Z</time>
      </trkpt>
      <trkpt lat="45.16667" lon="0.66159">
        <ele>107</ele>
        <time>2025-06-15T09:56:28Z</time>
      </trkpt>
      <trkpt lat="45.1667" lon="0.66159">
        <ele>107</ele>
        <time>2025-06-15T09:56:29Z</time>
      </trkpt>
      <trkpt lat="45.16674" lon="0.66158">
        <ele>107</ele>
        <time>2025-06-15T09:56:30Z</time>
      </trkpt>
      <trkpt lat="45.16678" lon="0.66159">
        <ele>107</ele>
        <time>2025-06-15T09:56:31Z</time>
      </trkpt>
      <trkpt lat="45.16682" lon="0.66159">
        <ele>107</ele>
        <time>2025-06-15T09:56:32Z</time>
      </trkpt>
      <trkpt lat="45.16686" lon="0.66159">
        <ele>107</ele>
        <time>2025-06-15T09:56:33Z</time>
      </trkpt>
      <trkpt lat="45.16691" lon="0.6616">
        <ele>107</ele>
        <time>2025-06-15T09:56:34Z</time>
      </trkpt>
      <trkpt lat="45.16696" lon="0.66164">
        <ele>107</ele>
        <time>2025-06-15T09:56:35Z</time>
      </trkpt>
      <trkpt lat="45.16701" lon="0.66167">
        <ele>107</ele>
        <time>2025-06-15T09:56:36Z</time>
      </trkpt>
      <trkpt lat="45.16706" lon="0.6617">
        <ele>107</ele>
        <time>2025-06-15T09:56:37Z</time>
      </trkpt>
      <trkpt lat="45.16711" lon="0.66172">
        <ele>107.2</ele>
        <time>2025-06-15T09:56:38Z</time>
      </trkpt>
      <trkpt lat="45.16715" lon="0.66175">
        <ele>107.2</ele>
        <time>2025-06-15T09:56:39Z</time>
      </trkpt>
      <trkpt lat="45.16718" lon="0.66178">
        <ele>107.2</ele>
        <time>2025-06-15T09:56:40Z</time>
      </trkpt>
      <trkpt lat="45.16719" lon="0.66183">
        <ele>107.4</ele>
        <time>2025-06-15T09:56:41Z</time>
      </trkpt>
      <trkpt lat="45.1672" lon="0.66188">
        <ele>107.6</ele>
        <time>2025-06-15T09:56:42Z</time>
      </trkpt>
      <trkpt lat="45.16719" lon="0.66192">
        <ele>107.8</ele>
        <time>2025-06-15T09:56:43Z</time>
      </trkpt>
      <trkpt lat="45.16718" lon="0.66196">
        <ele>107.8</ele>
        <time>2025-06-15T09:56:44Z</time>
      </trkpt>
      <trkpt lat="45.16716" lon="0.662">
        <ele>108</ele>
        <time>2025-06-15T09:56:45Z</time>
      </trkpt>
      <trkpt lat="45.16715" lon="0.66204">
        <ele>108.2</ele>
        <time>2025-06-15T09:56:46Z</time>
      </trkpt>
      <trkpt lat="45.16714" lon="0.66208">
        <ele>108.2</ele>
        <time>2025-06-15T09:56:47Z</time>
      </trkpt>
      <trkpt lat="45.16713" lon="0.66212">
        <ele>108.4</ele>
        <time>2025-06-15T09:56:48Z</time>
      </trkpt>
      <trkpt lat="45.16711" lon="0.66215">
        <ele>108.4</ele>
        <time>2025-06-15T09:56:49Z</time>
      </trkpt>
      <trkpt lat="45.16709" lon="0.66219">
        <ele>108.6</ele>
        <time>2025-06-15T09:56:50Z</time>
      </trkpt>
      <trkpt lat="45.16706" lon="0.66223">
        <ele>108.8</ele>
        <time>2025-06-15T09:56:51Z</time>
      </trkpt>
      <trkpt lat="45.16703" lon="0.66227">
        <ele>108.8</ele>
        <time>2025-06-15T09:56:52Z</time>
      </trkpt>
      <trkpt lat="45.16701" lon="0.66231">
        <ele>109</ele>
        <time>2025-06-15T09:56:53Z</time>
      </trkpt>
      <trkpt lat="45.16698" lon="0.66235">
        <ele>109.2</ele>
        <time>2025-06-15T09:56:54Z</time>
      </trkpt>
      <trkpt lat="45.16695" lon="0.66239">
        <ele>109.4</ele>
        <time>2025-06-15T09:56:55Z</time>
      </trkpt>
      <trkpt lat="45.16693" lon="0.66242">
        <ele>109.6</ele>
        <time>2025-06-15T09:56:56Z</time>
      </trkpt>
      <trkpt lat="45.1669" lon="0.66246">
        <ele>109.8</ele>
        <time>2025-06-15T09:56:57Z</time>
      </trkpt>
      <trkpt lat="45.16687" lon="0.6625">
        <ele>109.8</ele>
        <time>2025-06-15T09:56:58Z</time>
      </trkpt>
      <trkpt lat="45.16684" lon="0.66254">
        <ele>110</ele>
        <time>2025-06-15T09:56:59Z</time>
      </trkpt>
      <trkpt lat="45.16681" lon="0.66258">
        <ele>110.2</ele>
        <time>2025-06-15T09:57:00Z</time>
      </trkpt>
      <trkpt lat="45.16678" lon="0.66263">
        <ele>110.2</ele>
        <time>2025-06-15T09:57:01Z</time>
      </trkpt>
      <trkpt lat="45.16677" lon="0.66269">
        <ele>110.4</ele>
        <time>2025-06-15T09:57:02Z</time>
      </trkpt>
      <trkpt lat="45.16674" lon="0.66275">
        <ele>110.6</ele>
        <time>2025-06-15T09:57:03Z</time>
      </trkpt>
      <trkpt lat="45.16672" lon="0.66282">
        <ele>110.6</ele>
        <time>2025-06-15T09:57:04Z</time>
      </trkpt>
      <trkpt lat="45.1667" lon="0.66288">
        <ele>110.8</ele>
        <time>2025-06-15T09:57:05Z</time>
      </trkpt>
      <trkpt lat="45.16668" lon="0.66295">
        <ele>111</ele>
        <time>2025-06-15T09:57:06Z</time>
      </trkpt>
      <trkpt lat="45.16666" lon="0.66303">
        <ele>111.2</ele>
        <time>2025-06-15T09:57:07Z</time>
      </trkpt>
      <trkpt lat="45.16663" lon="0.66311">
        <ele>111.4</ele>
        <time>2025-06-15T09:57:08Z</time>
      </trkpt>
      <trkpt lat="45.1666" lon="0.66319">
        <ele>111.6</ele>
        <time>2025-06-15T09:57:09Z</time>
      </trkpt>
      <trkpt lat="45.16658" lon="0.66325">
        <ele>111.8</ele>
        <time>2025-06-15T09:57:10Z</time>
      </trkpt>
      <trkpt lat="45.16657" lon="0.66331">
        <ele>112</ele>
        <time>2025-06-15T09:57:11Z</time>
      </trkpt>
      <trkpt lat="45.16656" lon="0.66336">
        <ele>112.2</ele>
        <time>2025-06-15T09:57:12Z</time>
      </trkpt>
      <trkpt lat="45.16655" lon="0.6634">
        <ele>112.2</ele>
        <time>2025-06-15T09:57:13Z</time>
      </trkpt>
      <trkpt lat="45.16655" lon="0.66342">
        <ele>112.4</ele>
        <time>2025-06-15T09:57:14Z</time>
      </trkpt>
      <trkpt lat="45.16654" lon="0.66345">
        <ele>112.6</ele>
        <time>2025-06-15T09:57:15Z</time>
      </trkpt>
      <trkpt lat="45.16653" lon="0.66347">
        <ele>112.6</ele>
        <time>2025-06-15T09:57:16Z</time>
      </trkpt>
      <trkpt lat="45.16652" lon="0.66349">
        <ele>113</ele>
        <time>2025-06-15T09:57:17Z</time>
      </trkpt>
      <trkpt lat="45.1665" lon="0.66351">
        <ele>113.2</ele>
        <time>2025-06-15T09:57:18Z</time>
      </trkpt>
      <trkpt lat="45.16649" lon="0.66355">
        <ele>113.4</ele>
        <time>2025-06-15T09:57:19Z</time>
      </trkpt>
      <trkpt lat="45.16648" lon="0.66359">
        <ele>113.6</ele>
        <time>2025-06-15T09:57:20Z</time>
      </trkpt>
      <trkpt lat="45.16646" lon="0.66364">
        <ele>113.6</ele>
        <time>2025-06-15T09:57:21Z</time>
      </trkpt>
      <trkpt lat="45.16645" lon="0.66368">
        <ele>113.8</ele>
        <time>2025-06-15T09:57:22Z</time>
      </trkpt>
      <trkpt lat="45.16643" lon="0.66374">
        <ele>114</ele>
        <time>2025-06-15T09:57:23Z</time>
      </trkpt>
      <trkpt lat="45.16641" lon="0.66379">
        <ele>114.2</ele>
        <time>2025-06-15T09:57:24Z</time>
      </trkpt>
      <trkpt lat="45.1664" lon="0.66384">
        <ele>114.2</ele>
        <time>2025-06-15T09:57:25Z</time>
      </trkpt>
      <trkpt lat="45.16638" lon="0.6639">
        <ele>114.4</ele>
        <time>2025-06-15T09:57:26Z</time>
      </trkpt>
      <trkpt lat="45.16636" lon="0.66396">
        <ele>114.6</ele>
        <time>2025-06-15T09:57:27Z</time>
      </trkpt>
      <trkpt lat="45.16635" lon="0.66401">
        <ele>114.8</ele>
        <time>2025-06-15T09:57:28Z</time>
      </trkpt>
      <trkpt lat="45.16633" lon="0.66406">
        <ele>114.8</ele>
        <time>2025-06-15T09:57:29Z</time>
      </trkpt>
      <trkpt lat="45.16631" lon="0.66412">
        <ele>115</ele>
        <time>2025-06-15T09:57:30Z</time>
      </trkpt>
      <trkpt lat="45.16629" lon="0.66418">
        <ele>115</ele>
        <time>2025-06-15T09:57:31Z</time>
      </trkpt>
      <trkpt lat="45.16627" lon="0.66422">
        <ele>115.2</ele>
        <time>2025-06-15T09:57:32Z</time>
      </trkpt>
      <trkpt lat="45.16625" lon="0.66427">
        <ele>115.4</ele>
        <time>2025-06-15T09:57:33Z</time>
      </trkpt>
      <trkpt lat="45.16623" lon="0.66431">
        <ele>115.6</ele>
        <time>2025-06-15T09:57:34Z</time>
      </trkpt>
      <trkpt lat="45.16621" lon="0.66436">
        <ele>115.8</ele>
        <time>2025-06-15T09:57:35Z</time>
      </trkpt>
      <trkpt lat="45.1662" lon="0.66441">
        <ele>116</ele>
        <time>2025-06-15T09:57:36Z</time>
      </trkpt>
      <trkpt lat="45.16619" lon="0.66446">
        <ele>116.2</ele>
        <time>2025-06-15T09:57:37Z</time>
      </trkpt>
      <trkpt lat="45.16618" lon="0.66451">
        <ele>116.2</ele>
        <time>2025-06-15T09:57:38Z</time>
      </trkpt>
      <trkpt lat="45.16617" lon="0.66456">
        <ele>116.6</ele>
        <time>2025-06-15T09:57:39Z</time>
      </trkpt>
      <trkpt lat="45.16616" lon="0.66461">
        <ele>116.6</ele>
        <time>2025-06-15T09:57:40Z</time>
      </trkpt>
      <trkpt lat="45.16615" lon="0.66465">
        <ele>116.8</ele>
        <time>2025-06-15T09:57:41Z</time>
      </trkpt>
      <trkpt lat="45.16614" lon="0.66469">
        <ele>117</ele>
        <time>2025-06-15T09:57:42Z</time>
      </trkpt>
      <trkpt lat="45.16612" lon="0.66474">
        <ele>117.2</ele>
        <time>2025-06-15T09:57:43Z</time>
      </trkpt>
      <trkpt lat="45.16611" lon="0.66479">
        <ele>117.4</ele>
        <time>2025-06-15T09:57:44Z</time>
      </trkpt>
      <trkpt lat="45.1661" lon="0.66484">
        <ele>117.6</ele>
        <time>2025-06-15T09:57:45Z</time>
      </trkpt>
      <trkpt lat="45.16608" lon="0.66488">
        <ele>117.6</ele>
        <time>2025-06-15T09:57:46Z</time>
      </trkpt>
      <trkpt lat="45.16607" lon="0.66493">
        <ele>117.6</ele>
        <time>2025-06-15T09:57:47Z</time>
      </trkpt>
      <trkpt lat="45.16606" lon="0.66497">
        <ele>117.6</ele>
        <time>2025-06-15T09:57:48Z</time>
      </trkpt>
      <trkpt lat="45.16605" lon="0.66501">
        <ele>117.6</ele>
        <time>2025-06-15T09:57:49Z</time>
      </trkpt>
      <trkpt lat="45.16604" lon="0.66505">
        <ele>117.6</ele>
        <time>2025-06-15T09:57:50Z</time>
      </trkpt>
      <trkpt lat="45.16602" lon="0.6651">
        <ele>117.6</ele>
        <time>2025-06-15T09:57:51Z</time>
      </trkpt>
      <trkpt lat="45.16601" lon="0.66515">
        <ele>117.6</ele>
        <time>2025-06-15T09:57:52Z</time>
      </trkpt>
      <trkpt lat="45.16599" lon="0.66519">
        <ele>117.6</ele>
        <time>2025-06-15T09:57:53Z</time>
      </trkpt>
      <trkpt lat="45.16597" lon="0.66524">
        <ele>117.6</ele>
        <time>2025-06-15T09:57:54Z</time>
      </trkpt>
      <trkpt lat="45.16596" lon="0.66529">
        <ele>117.4</ele>
        <time>2025-06-15T09:57:55Z</time>
      </trkpt>
      <trkpt lat="45.16594" lon="0.66533">
        <ele>117.4</ele>
        <time>2025-06-15T09:57:56Z</time>
      </trkpt>
      <trkpt lat="45.16593" lon="0.66538">
        <ele>117.4</ele>
        <time>2025-06-15T09:57:57Z</time>
      </trkpt>
      <trkpt lat="45.16591" lon="0.66543">
        <ele>117.2</ele>
        <time>2025-06-15T09:57:58Z</time>
      </trkpt>
      <trkpt lat="45.1659" lon="0.66548">
        <ele>117.2</ele>
        <time>2025-06-15T09:57:59Z</time>
      </trkpt>
      <trkpt lat="45.16588" lon="0.66554">
        <ele>117</ele>
        <time>2025-06-15T09:58:00Z</time>
      </trkpt>
      <trkpt lat="45.16586" lon="0.66559">
        <ele>116.8</ele>
        <time>2025-06-15T09:58:01Z</time>
      </trkpt>
      <trkpt lat="45.16584" lon="0.66565">
        <ele>116.6</ele>
        <time>2025-06-15T09:58:02Z</time>
      </trkpt>
      <trkpt lat="45.16582" lon="0.6657">
        <ele>116.6</ele>
        <time>2025-06-15T09:58:03Z</time>
      </trkpt>
      <trkpt lat="45.1658" lon="0.66576">
        <ele>116.4</ele>
        <time>2025-06-15T09:58:04Z</time>
      </trkpt>
      <trkpt lat="45.16579" lon="0.66582">
        <ele>116.2</ele>
        <time>2025-06-15T09:58:05Z</time>
      </trkpt>
      <trkpt lat="45.16577" lon="0.6659">
        <ele>116.2</ele>
        <time>2025-06-15T09:58:06Z</time>
      </trkpt>
      <trkpt lat="45.16575" lon="0.66598">
        <ele>116</ele>
        <time>2025-06-15T09:58:07Z</time>
      </trkpt>
      <trkpt lat="45.16574" lon="0.66606">
        <ele>116</ele>
        <time>2025-06-15T09:58:08Z</time>
      </trkpt>
      <trkpt lat="45.16573" lon="0.66615">
        <ele>115.8</ele>
        <time>2025-06-15T09:58:09Z</time>
      </trkpt>
      <trkpt lat="45.16572" lon="0.66624">
        <ele>115.6</ele>
        <time>2025-06-15T09:58:10Z</time>
      </trkpt>
      <trkpt lat="45.16569" lon="0.66633">
        <ele>115.4</ele>
        <time>2025-06-15T09:58:11Z</time>
      </trkpt>
      <trkpt lat="45.16564" lon="0.66641">
        <ele>115.2</ele>
        <time>2025-06-15T09:58:12Z</time>
      </trkpt>
      <trkpt lat="45.16559" lon="0.66647">
        <ele>115</ele>
        <time>2025-06-15T09:58:13Z</time>
      </trkpt>
      <trkpt lat="45.16553" lon="0.6665">
        <ele>114.8</ele>
        <time>2025-06-15T09:58:14Z</time>
      </trkpt>
      <trkpt lat="45.16547" lon="0.66654">
        <ele>114.8</ele>
        <time>2025-06-15T09:58:15Z</time>
      </trkpt>
      <trkpt lat="45.1654" lon="0.66657">
        <ele>114.6</ele>
        <time>2025-06-15T09:58:16Z</time>
      </trkpt>
      <trkpt lat="45.16534" lon="0.66659">
        <ele>114.6</ele>
        <time>2025-06-15T09:58:17Z</time>
      </trkpt>
      <trkpt lat="45.16527" lon="0.66662">
        <ele>114.6</ele>
        <time>2025-06-15T09:58:18Z</time>
      </trkpt>
      <trkpt lat="45.16521" lon="0.66665">
        <ele>114.6</ele>
        <time>2025-06-15T09:58:19Z</time>
      </trkpt>
      <trkpt lat="45.16515" lon="0.66667">
        <ele>114.6</ele>
        <time>2025-06-15T09:58:20Z</time>
      </trkpt>
      <trkpt lat="45.16509" lon="0.66669">
        <ele>114.4</ele>
        <time>2025-06-15T09:58:21Z</time>
      </trkpt>
      <trkpt lat="45.16502" lon="0.66672">
        <ele>114.4</ele>
        <time>2025-06-15T09:58:22Z</time>
      </trkpt>
      <trkpt lat="45.16497" lon="0.66675">
        <ele>114.4</ele>
        <time>2025-06-15T09:58:23Z</time>
      </trkpt>
      <trkpt lat="45.16491" lon="0.66679">
        <ele>114.6</ele>
        <time>2025-06-15T09:58:24Z</time>
      </trkpt>
      <trkpt lat="45.16486" lon="0.66683">
        <ele>114.6</ele>
        <time>2025-06-15T09:58:25Z</time>
      </trkpt>
      <trkpt lat="45.16481" lon="0.66689">
        <ele>114.6</ele>
        <time>2025-06-15T09:58:26Z</time>
      </trkpt>
      <trkpt lat="45.16476" lon="0.66695">
        <ele>114.6</ele>
        <time>2025-06-15T09:58:27Z</time>
      </trkpt>
      <trkpt lat="45.16472" lon="0.66701">
        <ele>114.6</ele>
        <time>2025-06-15T09:58:28Z</time>
      </trkpt>
      <trkpt lat="45.16467" lon="0.66706">
        <ele>114.6</ele>
        <time>2025-06-15T09:58:29Z</time>
      </trkpt>
      <trkpt lat="45.16463" lon="0.6671">
        <ele>114.6</ele>
        <time>2025-06-15T09:58:30Z</time>
      </trkpt>
      <trkpt lat="45.16459" lon="0.66715">
        <ele>114.8</ele>
        <time>2025-06-15T09:58:31Z</time>
      </trkpt>
      <trkpt lat="45.16454" lon="0.66718">
        <ele>114.8</ele>
        <time>2025-06-15T09:58:32Z</time>
      </trkpt>
      <trkpt lat="45.1645" lon="0.66722">
        <ele>114.8</ele>
        <time>2025-06-15T09:58:33Z</time>
      </trkpt>
      <trkpt lat="45.16446" lon="0.66724">
        <ele>115</ele>
        <time>2025-06-15T09:58:34Z</time>
      </trkpt>
      <trkpt lat="45.16443" lon="0.66727">
        <ele>115</ele>
        <time>2025-06-15T09:58:35Z</time>
      </trkpt>
      <trkpt lat="45.16439" lon="0.66729">
        <ele>115</ele>
        <time>2025-06-15T09:58:36Z</time>
      </trkpt>
      <trkpt lat="45.16436" lon="0.66731">
        <ele>115</ele>
        <time>2025-06-15T09:58:37Z</time>
      </trkpt>
      <trkpt lat="45.16432" lon="0.66733">
        <ele>115</ele>
        <time>2025-06-15T09:58:38Z</time>
      </trkpt>
      <trkpt lat="45.16429" lon="0.66735">
        <ele>115</ele>
        <time>2025-06-15T09:58:39Z</time>
      </trkpt>
      <trkpt lat="45.16426" lon="0.66736">
        <ele>115</ele>
        <time>2025-06-15T09:58:40Z</time>
      </trkpt>
      <trkpt lat="45.16422" lon="0.66737">
        <ele>115</ele>
        <time>2025-06-15T09:58:41Z</time>
      </trkpt>
      <trkpt lat="45.16419" lon="0.66738">
        <ele>114.8</ele>
        <time>2025-06-15T09:58:42Z</time>
      </trkpt>
      <trkpt lat="45.16415" lon="0.66739">
        <ele>114.8</ele>
        <time>2025-06-15T09:58:43Z</time>
      </trkpt>
      <trkpt lat="45.16412" lon="0.6674">
        <ele>114.8</ele>
        <time>2025-06-15T09:58:44Z</time>
      </trkpt>
      <trkpt lat="45.16409" lon="0.6674">
        <ele>114.6</ele>
        <time>2025-06-15T09:58:45Z</time>
      </trkpt>
      <trkpt lat="45.16405" lon="0.6674">
        <ele>114.4</ele>
        <time>2025-06-15T09:58:46Z</time>
      </trkpt>
      <trkpt lat="45.16402" lon="0.6674">
        <ele>114.2</ele>
        <time>2025-06-15T09:58:47Z</time>
      </trkpt>
      <trkpt lat="45.16399" lon="0.6674">
        <ele>113.8</ele>
        <time>2025-06-15T09:58:48Z</time>
      </trkpt>
      <trkpt lat="45.16396" lon="0.6674">
        <ele>113.6</ele>
        <time>2025-06-15T09:58:49Z</time>
      </trkpt>
      <trkpt lat="45.16393" lon="0.66739">
        <ele>113.4</ele>
        <time>2025-06-15T09:58:50Z</time>
      </trkpt>
      <trkpt lat="45.1639" lon="0.66739">
        <ele>113</ele>
        <time>2025-06-15T09:58:51Z</time>
      </trkpt>
      <trkpt lat="45.16387" lon="0.66738">
        <ele>112.6</ele>
        <time>2025-06-15T09:58:52Z</time>
      </trkpt>
      <trkpt lat="45.16384" lon="0.66738">
        <ele>112</ele>
        <time>2025-06-15T09:58:53Z</time>
      </trkpt>
      <trkpt lat="45.16381" lon="0.66738">
        <ele>111.6</ele>
        <time>2025-06-15T09:58:54Z</time>
      </trkpt>
      <trkpt lat="45.16378" lon="0.66737">
        <ele>111.4</ele>
        <time>2025-06-15T09:58:55Z</time>
      </trkpt>
      <trkpt lat="45.16376" lon="0.66736">
        <ele>111</ele>
        <time>2025-06-15T09:58:56Z</time>
      </trkpt>
      <trkpt lat="45.16373" lon="0.66735">
        <ele>111</ele>
        <time>2025-06-15T09:58:57Z</time>
      </trkpt>
      <trkpt lat="45.1637" lon="0.66734">
        <ele>110.8</ele>
        <time>2025-06-15T09:58:58Z</time>
      </trkpt>
      <trkpt lat="45.16368" lon="0.66734">
        <ele>110.6</ele>
        <time>2025-06-15T09:58:59Z</time>
      </trkpt>
      <trkpt lat="45.16365" lon="0.66734">
        <ele>110.4</ele>
        <time>2025-06-15T09:59:00Z</time>
      </trkpt>
      <trkpt lat="45.16362" lon="0.66734">
        <ele>110.2</ele>
        <time>2025-06-15T09:59:01Z</time>
      </trkpt>
      <trkpt lat="45.1636" lon="0.66734">
        <ele>110</ele>
        <time>2025-06-15T09:59:02Z</time>
      </trkpt>
      <trkpt lat="45.16357" lon="0.66734">
        <ele>109.6</ele>
        <time>2025-06-15T09:59:03Z</time>
      </trkpt>
      <trkpt lat="45.16354" lon="0.66734">
        <ele>109.2</ele>
        <time>2025-06-15T09:59:04Z</time>
      </trkpt>
      <trkpt lat="45.16352" lon="0.66734">
        <ele>109</ele>
        <time>2025-06-15T09:59:05Z</time>
      </trkpt>
      <trkpt lat="45.16349" lon="0.66734">
        <ele>108.6</ele>
        <time>2025-06-15T09:59:06Z</time>
      </trkpt>
      <trkpt lat="45.16347" lon="0.66734">
        <ele>108.4</ele>
        <time>2025-06-15T09:59:07Z</time>
      </trkpt>
      <trkpt lat="45.16344" lon="0.66734">
        <ele>108</ele>
        <time>2025-06-15T09:59:08Z</time>
      </trkpt>
      <trkpt lat="45.16342" lon="0.66734">
        <ele>107.8</ele>
        <time>2025-06-15T09:59:09Z</time>
      </trkpt>
      <trkpt lat="45.1634" lon="0.66734">
        <ele>107.6</ele>
        <time>2025-06-15T09:59:10Z</time>
      </trkpt>
      <trkpt lat="45.16337" lon="0.66734">
        <ele>107.4</ele>
        <time>2025-06-15T09:59:11Z</time>
      </trkpt>
      <trkpt lat="45.16335" lon="0.66734">
        <ele>107</ele>
        <time>2025-06-15T09:59:12Z</time>
      </trkpt>
      <trkpt lat="45.16332" lon="0.66734">
        <ele>106.8</ele>
        <time>2025-06-15T09:59:13Z</time>
      </trkpt>
      <trkpt lat="45.16329" lon="0.66734">
        <ele>106.4</ele>
        <time>2025-06-15T09:59:14Z</time>
      </trkpt>
      <trkpt lat="45.16327" lon="0.66734">
        <ele>105.8</ele>
        <time>2025-06-15T09:59:15Z</time>
      </trkpt>
      <trkpt lat="45.16324" lon="0.66734">
        <ele>105.4</ele>
        <time>2025-06-15T09:59:16Z</time>
      </trkpt>
      <trkpt lat="45.16321" lon="0.66734">
        <ele>104.8</ele>
        <time>2025-06-15T09:59:17Z</time>
      </trkpt>
      <trkpt lat="45.16319" lon="0.66734">
        <ele>104.4</ele>
        <time>2025-06-15T09:59:18Z</time>
      </trkpt>
      <trkpt lat="45.16316" lon="0.66734">
        <ele>103.8</ele>
        <time>2025-06-15T09:59:19Z</time>
      </trkpt>
      <trkpt lat="45.16313" lon="0.66734">
        <ele>103.4</ele>
        <time>2025-06-15T09:59:20Z</time>
      </trkpt>
      <trkpt lat="45.16311" lon="0.66734">
        <ele>102.8</ele>
        <time>2025-06-15T09:59:21Z</time>
      </trkpt>
      <trkpt lat="45.16308" lon="0.66734">
        <ele>102.2</ele>
        <time>2025-06-15T09:59:22Z</time>
      </trkpt>
      <trkpt lat="45.16306" lon="0.66734">
        <ele>101.8</ele>
        <time>2025-06-15T09:59:23Z</time>
      </trkpt>
      <trkpt lat="45.16303" lon="0.66734">
        <ele>101.2</ele>
        <time>2025-06-15T09:59:24Z</time>
      </trkpt>
      <trkpt lat="45.16301" lon="0.66734">
        <ele>100.8</ele>
        <time>2025-06-15T09:59:25Z</time>
      </trkpt>
      <trkpt lat="45.16298" lon="0.66734">
        <ele>100.2</ele>
        <time>2025-06-15T09:59:26Z</time>
      </trkpt>
      <trkpt lat="45.16295" lon="0.66734">
        <ele>99.6</ele>
        <time>2025-06-15T09:59:27Z</time>
      </trkpt>
      <trkpt lat="45.16292" lon="0.66734">
        <ele>99.2</ele>
        <time>2025-06-15T09:59:28Z</time>
      </trkpt>
      <trkpt lat="45.1629" lon="0.66734">
        <ele>98.6</ele>
        <time>2025-06-15T09:59:29Z</time>
      </trkpt>
      <trkpt lat="45.16287" lon="0.66734">
        <ele>98.2</ele>
        <time>2025-06-15T09:59:30Z</time>
      </trkpt>
      <trkpt lat="45.16284" lon="0.66734">
        <ele>97.8</ele>
        <time>2025-06-15T09:59:31Z</time>
      </trkpt>
      <trkpt lat="45.16281" lon="0.66733">
        <ele>97.2</ele>
        <time>2025-06-15T09:59:32Z</time>
      </trkpt>
      <trkpt lat="45.16279" lon="0.66733">
        <ele>96.8</ele>
        <time>2025-06-15T09:59:33Z</time>
      </trkpt>
      <trkpt lat="45.16276" lon="0.66733">
        <ele>96.4</ele>
        <time>2025-06-15T09:59:34Z</time>
      </trkpt>
      <trkpt lat="45.16274" lon="0.66732">
        <ele>95.8</ele>
        <time>2025-06-15T09:59:35Z</time>
      </trkpt>
      <trkpt lat="45.16271" lon="0.66732">
        <ele>95.4</ele>
        <time>2025-06-15T09:59:36Z</time>
      </trkpt>
      <trkpt lat="45.16269" lon="0.66732">
        <ele>94.8</ele>
        <time>2025-06-15T09:59:37Z</time>
      </trkpt>
      <trkpt lat="45.16267" lon="0.66733">
        <ele>94.2</ele>
        <time>2025-06-15T09:59:38Z</time>
      </trkpt>
      <trkpt lat="45.16266" lon="0.66733">
        <ele>93.8</ele>
        <time>2025-06-15T09:59:39Z</time>
      </trkpt>
      <trkpt lat="45.16265" lon="0.66734">
        <ele>93.2</ele>
        <time>2025-06-15T09:59:40Z</time>
      </trkpt>
      <trkpt lat="45.16264" lon="0.66735">
        <ele>92.8</ele>
        <time>2025-06-15T09:59:41Z</time>
      </trkpt>
      <trkpt lat="45.16262" lon="0.66736">
        <ele>92.2</ele>
        <time>2025-06-15T09:59:42Z</time>
      </trkpt>
      <trkpt lat="45.1626" lon="0.66737">
        <ele>91.6</ele>
        <time>2025-06-15T09:59:43Z</time>
      </trkpt>
      <trkpt lat="45.16258" lon="0.66739">
        <ele>91.2</ele>
        <time>2025-06-15T09:59:44Z</time>
      </trkpt>
      <trkpt lat="45.16256" lon="0.66742">
        <ele>90.8</ele>
        <time>2025-06-15T09:59:45Z</time>
      </trkpt>
      <trkpt lat="45.16256" lon="0.66746">
        <ele>90.2</ele>
        <time>2025-06-15T09:59:46Z</time>
      </trkpt>
      <trkpt lat="45.16255" lon="0.6675">
        <ele>89.8</ele>
        <time>2025-06-15T09:59:47Z</time>
      </trkpt>
      <trkpt lat="45.16255" lon="0.66755">
        <ele>89.4</ele>
        <time>2025-06-15T09:59:48Z</time>
      </trkpt>
      <trkpt lat="45.16255" lon="0.66759">
        <ele>88.8</ele>
        <time>2025-06-15T09:59:49Z</time>
      </trkpt>
      <trkpt lat="45.16254" lon="0.66764">
        <ele>88.4</ele>
        <time>2025-06-15T09:59:50Z</time>
      </trkpt>
      <trkpt lat="45.16254" lon="0.66769">
        <ele>88</ele>
        <time>2025-06-15T09:59:51Z</time>
      </trkpt>
      <trkpt lat="45.16254" lon="0.66773">
        <ele>87.6</ele>
        <time>2025-06-15T09:59:52Z</time>
      </trkpt>
      <trkpt lat="45.16253" lon="0.66778">
        <ele>87.4</ele>
        <time>2025-06-15T09:59:53Z</time>
      </trkpt>
      <trkpt lat="45.16253" lon="0.66783">
        <ele>87</ele>
        <time>2025-06-15T09:59:54Z</time>
      </trkpt>
      <trkpt lat="45.16253" lon="0.66787">
        <ele>86.6</ele>
        <time>2025-06-15T09:59:55Z</time>
      </trkpt>
      <trkpt lat="45.16253" lon="0.66791">
        <ele>86.4</ele>
        <time>2025-06-15T09:59:56Z</time>
      </trkpt>
      <trkpt lat="45.16253" lon="0.66795">
        <ele>86</ele>
        <time>2025-06-15T09:59:57Z</time>
      </trkpt>
      <trkpt lat="45.16253" lon="0.66799">
        <ele>85.8</ele>
        <time>2025-06-15T09:59:58Z</time>
      </trkpt>
      <trkpt lat="45.16253" lon="0.66804">
        <ele>85.4</ele>
        <time>2025-06-15T09:59:59Z</time>
      </trkpt>
      <trkpt lat="45.16252" lon="0.66809">
        <ele>85.2</ele>
        <time>2025-06-15T10:00:00Z</time>
      </trkpt>
      <trkpt lat="45.16252" lon="0.66816">
        <ele>85</ele>
        <time>2025-06-15T10:00:01Z</time>
      </trkpt>
      <trkpt lat="45.16252" lon="0.66822">
        <ele>84.6</ele>
        <time>2025-06-15T10:00:02Z</time>
      </trkpt>
      <trkpt lat="45.16252" lon="0.66829">
        <ele>84.4</ele>
        <time>2025-06-15T10:00:03Z</time>
      </trkpt>
      <trkpt lat="45.16251" lon="0.66837">
        <ele>84</ele>
        <time>2025-06-15T10:00:04Z</time>
      </trkpt>
      <trkpt lat="45.1625" lon="0.66844">
        <ele>83.8</ele>
        <time>2025-06-15T10:00:05Z</time>
      </trkpt>
      <trkpt lat="45.16249" lon="0.66853">
        <ele>83.4</ele>
        <time>2025-06-15T10:00:06Z</time>
      </trkpt>
      <trkpt lat="45.16248" lon="0.66861">
        <ele>83.2</ele>
        <time>2025-06-15T10:00:07Z</time>
      </trkpt>
      <trkpt lat="45.16247" lon="0.6687">
        <ele>83</ele>
        <time>2025-06-15T10:00:08Z</time>
      </trkpt>
      <trkpt lat="45.16247" lon="0.6688">
        <ele>82.6</ele>
        <time>2025-06-15T10:00:09Z</time>
      </trkpt>
      <trkpt lat="45.16248" lon="0.6689">
        <ele>82.4</ele>
        <time>2025-06-15T10:00:10Z</time>
      </trkpt>
      <trkpt lat="45.16248" lon="0.669">
        <ele>82.2</ele>
        <time>2025-06-15T10:00:11Z</time>
      </trkpt>
      <trkpt lat="45.16249" lon="0.6691">
        <ele>82</ele>
        <time>2025-06-15T10:00:12Z</time>
      </trkpt>
      <trkpt lat="45.16249" lon="0.66921">
        <ele>81.8</ele>
        <time>2025-06-15T10:00:13Z</time>
      </trkpt>
      <trkpt lat="45.1625" lon="0.66933">
        <ele>81.6</ele>
        <time>2025-06-15T10:00:14Z</time>
      </trkpt>
      <trkpt lat="45.16251" lon="0.66945">
        <ele>81.6</ele>
        <time>2025-06-15T10:00:15Z</time>
      </trkpt>
      <trkpt lat="45.16253" lon="0.66957">
        <ele>81.6</ele>
        <time>2025-06-15T10:00:16Z</time>
      </trkpt>
      <trkpt lat="45.16255" lon="0.66969">
        <ele>81.4</ele>
        <time>2025-06-15T10:00:17Z</time>
      </trkpt>
      <trkpt lat="45.16258" lon="0.66982">
        <ele>81.4</ele>
        <time>2025-06-15T10:00:18Z</time>
      </trkpt>
      <trkpt lat="45.16261" lon="0.66995">
        <ele>81.4</ele>
        <time>2025-06-15T10:00:19Z</time>
      </trkpt>
      <trkpt lat="45.16264" lon="0.67007">
        <ele>81.4</ele>
        <time>2025-06-15T10:00:20Z</time>
      </trkpt>
      <trkpt lat="45.16267" lon="0.67021">
        <ele>81.6</ele>
        <time>2025-06-15T10:00:21Z</time>
      </trkpt>
      <trkpt lat="45.16269" lon="0.67036">
        <ele>81.4</ele>
        <time>2025-06-15T10:00:22Z</time>
      </trkpt>
      <trkpt lat="45.16272" lon="0.6705">
        <ele>81.6</ele>
        <time>2025-06-15T10:00:23Z</time>
      </trkpt>
      <trkpt lat="45.16274" lon="0.67066">
        <ele>81.6</ele>
        <time>2025-06-15T10:00:24Z</time>
      </trkpt>
      <trkpt lat="45.16276" lon="0.67082">
        <ele>81.6</ele>
        <time>2025-06-15T10:00:25Z</time>
      </trkpt>
      <trkpt lat="45.16278" lon="0.67098">
        <ele>81.6</ele>
        <time>2025-06-15T10:00:26Z</time>
      </trkpt>
      <trkpt lat="45.16279" lon="0.67114">
        <ele>81.8</ele>
        <time>2025-06-15T10:00:27Z</time>
      </trkpt>
      <trkpt lat="45.1628" lon="0.6713">
        <ele>82</ele>
        <time>2025-06-15T10:00:28Z</time>
      </trkpt>
      <trkpt lat="45.16281" lon="0.67145">
        <ele>82</ele>
        <time>2025-06-15T10:00:29Z</time>
      </trkpt>
      <trkpt lat="45.16283" lon="0.67159">
        <ele>82.2</ele>
        <time>2025-06-15T10:00:30Z</time>
      </trkpt>
      <trkpt lat="45.16286" lon="0.67173">
        <ele>82.2</ele>
        <time>2025-06-15T10:00:31Z</time>
      </trkpt>
      <trkpt lat="45.16289" lon="0.67186">
        <ele>82.2</ele>
        <time>2025-06-15T10:00:32Z</time>
      </trkpt>
      <trkpt lat="45.16291" lon="0.67198">
        <ele>82.2</ele>
        <time>2025-06-15T10:00:33Z</time>
      </trkpt>
      <trkpt lat="45.16292" lon="0.6721">
        <ele>82.4</ele>
        <time>2025-06-15T10:00:34Z</time>
      </trkpt>
      <trkpt lat="45.16292" lon="0.67223">
        <ele>82.4</ele>
        <time>2025-06-15T10:00:35Z</time>
      </trkpt>
      <trkpt lat="45.16291" lon="0.67235">
        <ele>82.4</ele>
        <time>2025-06-15T10:00:36Z</time>
      </trkpt>
      <trkpt lat="45.16291" lon="0.67246">
        <ele>82.6</ele>
        <time>2025-06-15T10:00:37Z</time>
      </trkpt>
      <trkpt lat="45.16291" lon="0.67257">
        <ele>82.6</ele>
        <time>2025-06-15T10:00:38Z</time>
      </trkpt>
      <trkpt lat="45.16292" lon="0.67268">
        <ele>82.8</ele>
        <time>2025-06-15T10:00:39Z</time>
      </trkpt>
      <trkpt lat="45.16294" lon="0.67279">
        <ele>83</ele>
        <time>2025-06-15T10:00:40Z</time>
      </trkpt>
      <trkpt lat="45.16296" lon="0.67288">
        <ele>83</ele>
        <time>2025-06-15T10:00:41Z</time>
      </trkpt>
      <trkpt lat="45.16299" lon="0.67297">
        <ele>83.2</ele>
        <time>2025-06-15T10:00:42Z</time>
      </trkpt>
      <trkpt lat="45.16301" lon="0.67305">
        <ele>83.2</ele>
        <time>2025-06-15T10:00:43Z</time>
      </trkpt>
      <trkpt lat="45.16304" lon="0.67312">
        <ele>83.4</ele>
        <time>2025-06-15T10:00:44Z</time>
      </trkpt>
      <trkpt lat="45.16306" lon="0.67318">
        <ele>83.6</ele>
        <time>2025-06-15T10:00:45Z</time>
      </trkpt>
      <trkpt lat="45.16308" lon="0.67324">
        <ele>84</ele>
        <time>2025-06-15T10:00:46Z</time>
      </trkpt>
      <trkpt lat="45.16311" lon="0.6733">
        <ele>84.2</ele>
        <time>2025-06-15T10:00:47Z</time>
      </trkpt>
      <trkpt lat="45.16313" lon="0.67334">
        <ele>84.4</ele>
        <time>2025-06-15T10:00:48Z</time>
      </trkpt>
      <trkpt lat="45.16315" lon="0.67338">
        <ele>84.6</ele>
        <time>2025-06-15T10:00:49Z</time>
      </trkpt>
      <trkpt lat="45.16316" lon="0.67342">
        <ele>84.8</ele>
        <time>2025-06-15T10:00:50Z</time>
      </trkpt>
      <trkpt lat="45.16318" lon="0.67345">
        <ele>85.2</ele>
        <time>2025-06-15T10:00:51Z</time>
      </trkpt>
      <trkpt lat="45.16319" lon="0.67348">
        <ele>85.4</ele>
        <time>2025-06-15T10:00:52Z</time>
      </trkpt>
      <trkpt lat="45.16321" lon="0.67352">
        <ele>85.6</ele>
        <time>2025-06-15T10:00:53Z</time>
      </trkpt>
      <trkpt lat="45.16322" lon="0.67355">
        <ele>86</ele>
        <time>2025-06-15T10:00:54Z</time>
      </trkpt>
      <trkpt lat="45.16324" lon="0.67358">
        <ele>86.2</ele>
        <time>2025-06-15T10:00:55Z</time>
      </trkpt>
      <trkpt lat="45.16325" lon="0.67362">
        <ele>86.6</ele>
        <time>2025-06-15T10:00:56Z</time>
      </trkpt>
      <trkpt lat="45.16327" lon="0.67365">
        <ele>86.8</ele>
        <time>2025-06-15T10:00:57Z</time>
      </trkpt>
      <trkpt lat="45.16328" lon="0.67368">
        <ele>87.2</ele>
        <time>2025-06-15T10:00:58Z</time>
      </trkpt>
      <trkpt lat="45.1633" lon="0.67371">
        <ele>87.4</ele>
        <time>2025-06-15T10:00:59Z</time>
      </trkpt>
      <trkpt lat="45.16331" lon="0.67374">
        <ele>87.8</ele>
        <time>2025-06-15T10:01:00Z</time>
      </trkpt>
      <trkpt lat="45.16333" lon="0.67378">
        <ele>88</ele>
        <time>2025-06-15T10:01:01Z</time>
      </trkpt>
      <trkpt lat="45.16334" lon="0.67381">
        <ele>88.2</ele>
        <time>2025-06-15T10:01:02Z</time>
      </trkpt>
      <trkpt lat="45.16336" lon="0.67385">
        <ele>88.4</ele>
        <time>2025-06-15T10:01:03Z</time>
      </trkpt>
      <trkpt lat="45.16337" lon="0.67388">
        <ele>88.4</ele>
        <time>2025-06-15T10:01:04Z</time>
      </trkpt>
      <trkpt lat="45.16338" lon="0.67392">
        <ele>88.6</ele>
        <time>2025-06-15T10:01:05Z</time>
      </trkpt>
      <trkpt lat="45.1634" lon="0.67395">
        <ele>88.6</ele>
        <time>2025-06-15T10:01:06Z</time>
      </trkpt>
      <trkpt lat="45.16341" lon="0.674">
        <ele>88.6</ele>
        <time>2025-06-15T10:01:07Z</time>
      </trkpt>
      <trkpt lat="45.16342" lon="0.67404">
        <ele>88.8</ele>
        <time>2025-06-15T10:01:08Z</time>
      </trkpt>
      <trkpt lat="45.16343" lon="0.67409">
        <ele>88.8</ele>
        <time>2025-06-15T10:01:09Z</time>
      </trkpt>
      <trkpt lat="45.16344" lon="0.67413">
        <ele>89</ele>
        <time>2025-06-15T10:01:10Z</time>
      </trkpt>
      <trkpt lat="45.16345" lon="0.67418">
        <ele>89.2</ele>
        <time>2025-06-15T10:01:11Z</time>
      </trkpt>
      <trkpt lat="45.16346" lon="0.67422">
        <ele>89.2</ele>
        <time>2025-06-15T10:01:12Z</time>
      </trkpt>
      <trkpt lat="45.16347" lon="0.67427">
        <ele>89.4</ele>
        <time>2025-06-15T10:01:13Z</time>
      </trkpt>
      <trkpt lat="45.16348" lon="0.67432">
        <ele>89.4</ele>
        <time>2025-06-15T10:01:14Z</time>
      </trkpt>
      <trkpt lat="45.16348" lon="0.67436">
        <ele>89.6</ele>
        <time>2025-06-15T10:01:15Z</time>
      </trkpt>
      <trkpt lat="45.16349" lon="0.67441">
        <ele>89.6</ele>
        <time>2025-06-15T10:01:16Z</time>
      </trkpt>
      <trkpt lat="45.1635" lon="0.67446">
        <ele>89.6</ele>
        <time>2025-06-15T10:01:17Z</time>
      </trkpt>
      <trkpt lat="45.16351" lon="0.67451">
        <ele>89.6</ele>
        <time>2025-06-15T10:01:18Z</time>
      </trkpt>
      <trkpt lat="45.16351" lon="0.67456">
        <ele>89.8</ele>
        <time>2025-06-15T10:01:19Z</time>
      </trkpt>
      <trkpt lat="45.16352" lon="0.6746">
        <ele>89.8</ele>
        <time>2025-06-15T10:01:20Z</time>
      </trkpt>
      <trkpt lat="45.16352" lon="0.67465">
        <ele>89.8</ele>
        <time>2025-06-15T10:01:21Z</time>
      </trkpt>
      <trkpt lat="45.16353" lon="0.67471">
        <ele>89.8</ele>
        <time>2025-06-15T10:01:22Z</time>
      </trkpt>
      <trkpt lat="45.16353" lon="0.67476">
        <ele>89.8</ele>
        <time>2025-06-15T10:01:23Z</time>
      </trkpt>
      <trkpt lat="45.16354" lon="0.67482">
        <ele>89.8</ele>
        <time>2025-06-15T10:01:24Z</time>
      </trkpt>
      <trkpt lat="45.16354" lon="0.67489">
        <ele>89.8</ele>
        <time>2025-06-15T10:01:25Z</time>
      </trkpt>
      <trkpt lat="45.16355" lon="0.67495">
        <ele>89.8</ele>
        <time>2025-06-15T10:01:26Z</time>
      </trkpt>
      <trkpt lat="45.16355" lon="0.67502">
        <ele>89.6</ele>
        <time>2025-06-15T10:01:27Z</time>
      </trkpt>
      <trkpt lat="45.16356" lon="0.67508">
        <ele>89.6</ele>
        <time>2025-06-15T10:01:28Z</time>
      </trkpt>
      <trkpt lat="45.16358" lon="0.67513">
        <ele>89.6</ele>
        <time>2025-06-15T10:01:29Z</time>
      </trkpt>
      <trkpt lat="45.16361" lon="0.67517">
        <ele>89.6</ele>
        <time>2025-06-15T10:01:30Z</time>
      </trkpt>
      <trkpt lat="45.16365" lon="0.67518">
        <ele>89.6</ele>
        <time>2025-06-15T10:01:31Z</time>
      </trkpt>
      <trkpt lat="45.1637" lon="0.67516">
        <ele>89.4</ele>
        <time>2025-06-15T10:01:32Z</time>
      </trkpt>
      <trkpt lat="45.16374" lon="0.67514">
        <ele>89.4</ele>
        <time>2025-06-15T10:01:33Z</time>
      </trkpt>
      <trkpt lat="45.16379" lon="0.67513">
        <ele>89.4</ele>
        <time>2025-06-15T10:01:34Z</time>
      </trkpt>
      <trkpt lat="45.16384" lon="0.67511">
        <ele>89.4</ele>
        <time>2025-06-15T10:01:35Z</time>
      </trkpt>
      <trkpt lat="45.16389" lon="0.6751">
        <ele>89.4</ele>
        <time>2025-06-15T10:01:36Z</time>
      </trkpt>
      <trkpt lat="45.16394" lon="0.67508">
        <ele>89.4</ele>
        <time>2025-06-15T10:01:37Z</time>
      </trkpt>
      <trkpt lat="45.16399" lon="0.67505">
        <ele>89.4</ele>
        <time>2025-06-15T10:01:38Z</time>
      </trkpt>
      <trkpt lat="45.16404" lon="0.67503">
        <ele>89.4</ele>
        <time>2025-06-15T10:01:39Z</time>
      </trkpt>
      <trkpt lat="45.1641" lon="0.675">
        <ele>89.4</ele>
        <time>2025-06-15T10:01:40Z</time>
      </trkpt>
      <trkpt lat="45.16415" lon="0.67497">
        <ele>89.4</ele>
        <time>2025-06-15T10:01:41Z</time>
      </trkpt>
      <trkpt lat="45.16421" lon="0.67495">
        <ele>89.4</ele>
        <time>2025-06-15T10:01:42Z</time>
      </trkpt>
      <trkpt lat="45.16426" lon="0.67493">
        <ele>89.6</ele>
        <time>2025-06-15T10:01:43Z</time>
      </trkpt>
      <trkpt lat="45.16431" lon="0.67492">
        <ele>89.8</ele>
        <time>2025-06-15T10:01:44Z</time>
      </trkpt>
      <trkpt lat="45.16435" lon="0.67494">
        <ele>89.8</ele>
        <time>2025-06-15T10:01:45Z</time>
      </trkpt>
      <trkpt lat="45.16438" lon="0.67497">
        <ele>89.8</ele>
        <time>2025-06-15T10:01:46Z</time>
      </trkpt>
      <trkpt lat="45.16439" lon="0.67501">
        <ele>90.2</ele>
        <time>2025-06-15T10:01:47Z</time>
      </trkpt>
      <trkpt lat="45.1644" lon="0.67508">
        <ele>90.2</ele>
        <time>2025-06-15T10:01:48Z</time>
      </trkpt>
      <trkpt lat="45.16439" lon="0.67514">
        <ele>90.4</ele>
        <time>2025-06-15T10:01:49Z</time>
      </trkpt>
      <trkpt lat="45.16439" lon="0.6752">
        <ele>90.6</ele>
        <time>2025-06-15T10:01:50Z</time>
      </trkpt>
      <trkpt lat="45.16439" lon="0.67526">
        <ele>90.8</ele>
        <time>2025-06-15T10:01:51Z</time>
      </trkpt>
      <trkpt lat="45.16439" lon="0.67531">
        <ele>91</ele>
        <time>2025-06-15T10:01:52Z</time>
      </trkpt>
      <trkpt lat="45.16441" lon="0.67536">
        <ele>91.2</ele>
        <time>2025-06-15T10:01:53Z</time>
      </trkpt>
      <trkpt lat="45.16444" lon="0.67539">
        <ele>91.6</ele>
        <time>2025-06-15T10:01:54Z</time>
      </trkpt>
      <trkpt lat="45.16447" lon="0.67539">
        <ele>91.8</ele>
        <time>2025-06-15T10:01:55Z</time>
      </trkpt>
      <trkpt lat="45.16452" lon="0.67538">
        <ele>92.2</ele>
        <time>2025-06-15T10:01:56Z</time>
      </trkpt>
      <trkpt lat="45.16455" lon="0.67539">
        <ele>92.4</ele>
        <time>2025-06-15T10:01:57Z</time>
      </trkpt>
      <trkpt lat="45.1646" lon="0.6754">
        <ele>92.8</ele>
        <time>2025-06-15T10:01:58Z</time>
      </trkpt>
      <trkpt lat="45.16465" lon="0.67541">
        <ele>93</ele>
        <time>2025-06-15T10:01:59Z</time>
      </trkpt>
      <trkpt lat="45.1647" lon="0.67542">
        <ele>93.2</ele>
        <time>2025-06-15T10:02:00Z</time>
      </trkpt>
      <trkpt lat="45.16475" lon="0.67543">
        <ele>93.6</ele>
        <time>2025-06-15T10:02:01Z</time>
      </trkpt>
      <trkpt lat="45.16479" lon="0.67545">
        <ele>93.8</ele>
        <time>2025-06-15T10:02:02Z</time>
      </trkpt>
      <trkpt lat="45.16483" lon="0.67546">
        <ele>94</ele>
        <time>2025-06-15T10:02:03Z</time>
      </trkpt>
      <trkpt lat="45.16487" lon="0.67548">
        <ele>94.4</ele>
        <time>2025-06-15T10:02:04Z</time>
      </trkpt>
      <trkpt lat="45.16491" lon="0.6755">
        <ele>94.8</ele>
        <time>2025-06-15T10:02:05Z</time>
      </trkpt>
      <trkpt lat="45.16495" lon="0.67553">
        <ele>95</ele>
        <time>2025-06-15T10:02:06Z</time>
      </trkpt>
      <trkpt lat="45.16498" lon="0.67556">
        <ele>95.4</ele>
        <time>2025-06-15T10:02:07Z</time>
      </trkpt>
      <trkpt lat="45.16501" lon="0.67559">
        <ele>95.6</ele>
        <time>2025-06-15T10:02:08Z</time>
      </trkpt>
      <trkpt lat="45.16506" lon="0.67562">
        <ele>96</ele>
        <time>2025-06-15T10:02:09Z</time>
      </trkpt>
      <trkpt lat="45.1651" lon="0.67566">
        <ele>96.2</ele>
        <time>2025-06-15T10:02:10Z</time>
      </trkpt>
      <trkpt lat="45.16513" lon="0.67569">
        <ele>96.6</ele>
        <time>2025-06-15T10:02:11Z</time>
      </trkpt>
      <trkpt lat="45.16517" lon="0.67572">
        <ele>96.8</ele>
        <time>2025-06-15T10:02:12Z</time>
      </trkpt>
      <trkpt lat="45.16522" lon="0.67573">
        <ele>97.2</ele>
        <time>2025-06-15T10:02:13Z</time>
      </trkpt>
      <trkpt lat="45.16526" lon="0.67573">
        <ele>97.4</ele>
        <time>2025-06-15T10:02:14Z</time>
      </trkpt>
      <trkpt lat="45.1653" lon="0.67573">
        <ele>98</ele>
        <time>2025-06-15T10:02:15Z</time>
      </trkpt>
      <trkpt lat="45.16534" lon="0.67573">
        <ele>98.2</ele>
        <time>2025-06-15T10:02:16Z</time>
      </trkpt>
      <trkpt lat="45.16538" lon="0.67573">
        <ele>98.4</ele>
        <time>2025-06-15T10:02:17Z</time>
      </trkpt>
      <trkpt lat="45.16543" lon="0.67573">
        <ele>98.8</ele>
        <time>2025-06-15T10:02:18Z</time>
      </trkpt>
      <trkpt lat="45.16547" lon="0.67574">
        <ele>99</ele>
        <time>2025-06-15T10:02:19Z</time>
      </trkpt>
      <trkpt lat="45.16552" lon="0.67574">
        <ele>99.4</ele>
        <time>2025-06-15T10:02:20Z</time>
      </trkpt>
      <trkpt lat="45.16557" lon="0.67575">
        <ele>99.8</ele>
        <time>2025-06-15T10:02:21Z</time>
      </trkpt>
      <trkpt lat="45.16562" lon="0.67576">
        <ele>100</ele>
        <time>2025-06-15T10:02:22Z</time>
      </trkpt>
      <trkpt lat="45.16567" lon="0.67576">
        <ele>100.2</ele>
        <time>2025-06-15T10:02:23Z</time>
      </trkpt>
      <trkpt lat="45.16572" lon="0.67575">
        <ele>100.6</ele>
        <time>2025-06-15T10:02:24Z</time>
      </trkpt>
      <trkpt lat="45.16577" lon="0.67575">
        <ele>100.8</ele>
        <time>2025-06-15T10:02:25Z</time>
      </trkpt>
      <trkpt lat="45.16582" lon="0.67575">
        <ele>101</ele>
        <time>2025-06-15T10:02:26Z</time>
      </trkpt>
      <trkpt lat="45.16587" lon="0.67574">
        <ele>101.4</ele>
        <time>2025-06-15T10:02:27Z</time>
      </trkpt>
      <trkpt lat="45.16592" lon="0.67573">
        <ele>101.6</ele>
        <time>2025-06-15T10:02:28Z</time>
      </trkpt>
      <trkpt lat="45.16597" lon="0.67571">
        <ele>101.8</ele>
        <time>2025-06-15T10:02:29Z</time>
      </trkpt>
      <trkpt lat="45.16603" lon="0.6757">
        <ele>102</ele>
        <time>2025-06-15T10:02:30Z</time>
      </trkpt>
      <trkpt lat="45.16608" lon="0.67568">
        <ele>102.2</ele>
        <time>2025-06-15T10:02:31Z</time>
      </trkpt>
      <trkpt lat="45.16613" lon="0.67566">
        <ele>102.4</ele>
        <time>2025-06-15T10:02:32Z</time>
      </trkpt>
      <trkpt lat="45.16619" lon="0.67563">
        <ele>102.8</ele>
        <time>2025-06-15T10:02:33Z</time>
      </trkpt>
      <trkpt lat="45.16624" lon="0.6756">
        <ele>103</ele>
        <time>2025-06-15T10:02:34Z</time>
      </trkpt>
      <trkpt lat="45.1663" lon="0.67556">
        <ele>103</ele>
        <time>2025-06-15T10:02:35Z</time>
      </trkpt>
      <trkpt lat="45.16635" lon="0.67553">
        <ele>103.2</ele>
        <time>2025-06-15T10:02:36Z</time>
      </trkpt>
      <trkpt lat="45.16641" lon="0.6755">
        <ele>103.6</ele>
        <time>2025-06-15T10:02:37Z</time>
      </trkpt>
      <trkpt lat="45.16646" lon="0.67547">
        <ele>103.8</ele>
        <time>2025-06-15T10:02:38Z</time>
      </trkpt>
      <trkpt lat="45.16651" lon="0.67545">
        <ele>104</ele>
        <time>2025-06-15T10:02:39Z</time>
      </trkpt>
      <trkpt lat="45.16656" lon="0.67542">
        <ele>104.4</ele>
        <time>2025-06-15T10:02:40Z</time>
      </trkpt>
      <trkpt lat="45.16662" lon="0.6754">
        <ele>104.6</ele>
        <time>2025-06-15T10:02:41Z</time>
      </trkpt>
      <trkpt lat="45.16667" lon="0.67539">
        <ele>104.8</ele>
        <time>2025-06-15T10:02:42Z</time>
      </trkpt>
      <trkpt lat="45.16673" lon="0.67537">
        <ele>105</ele>
        <time>2025-06-15T10:02:43Z</time>
      </trkpt>
      <trkpt lat="45.16678" lon="0.67536">
        <ele>105.2</ele>
        <time>2025-06-15T10:02:44Z</time>
      </trkpt>
      <trkpt lat="45.16683" lon="0.67534">
        <ele>105.2</ele>
        <time>2025-06-15T10:02:45Z</time>
      </trkpt>
      <trkpt lat="45.16688" lon="0.67533">
        <ele>105.4</ele>
        <time>2025-06-15T10:02:46Z</time>
      </trkpt>
      <trkpt lat="45.16694" lon="0.67532">
        <ele>105.4</ele>
        <time>2025-06-15T10:02:47Z</time>
      </trkpt>
      <trkpt lat="45.16699" lon="0.6753">
        <ele>105.4</ele>
        <time>2025-06-15T10:02:48Z</time>
      </trkpt>
      <trkpt lat="45.16704" lon="0.67529">
        <ele>105.4</ele>
        <time>2025-06-15T10:02:49Z</time>
      </trkpt>
      <trkpt lat="45.1671" lon="0.67528">
        <ele>105.6</ele>
        <time>2025-06-15T10:02:50Z</time>
      </trkpt>
      <trkpt lat="45.16715" lon="0.67528">
        <ele>105.6</ele>
        <time>2025-06-15T10:02:51Z</time>
      </trkpt>
      <trkpt lat="45.1672" lon="0.67527">
        <ele>105.8</ele>
        <time>2025-06-15T10:02:52Z</time>
      </trkpt>
      <trkpt lat="45.16725" lon="0.67525">
        <ele>106</ele>
        <time>2025-06-15T10:02:53Z</time>
      </trkpt>
      <trkpt lat="45.16731" lon="0.67524">
        <ele>106.2</ele>
        <time>2025-06-15T10:02:54Z</time>
      </trkpt>
      <trkpt lat="45.16736" lon="0.67522">
        <ele>106.4</ele>
        <time>2025-06-15T10:02:55Z</time>
      </trkpt>
      <trkpt lat="45.16742" lon="0.67521">
        <ele>106.4</ele>
        <time>2025-06-15T10:02:56Z</time>
      </trkpt>
      <trkpt lat="45.16747" lon="0.67519">
        <ele>106.4</ele>
        <time>2025-06-15T10:02:57Z</time>
      </trkpt>
      <trkpt lat="45.16752" lon="0.67518">
        <ele>106.6</ele>
        <time>2025-06-15T10:02:58Z</time>
      </trkpt>
      <trkpt lat="45.16757" lon="0.67516">
        <ele>106.6</ele>
        <time>2025-06-15T10:02:59Z</time>
      </trkpt>
      <trkpt lat="45.16763" lon="0.67514">
        <ele>106.6</ele>
        <time>2025-06-15T10:03:00Z</time>
      </trkpt>
      <trkpt lat="45.16768" lon="0.67512">
        <ele>106.8</ele>
        <time>2025-06-15T10:03:01Z</time>
      </trkpt>
      <trkpt lat="45.16773" lon="0.67511">
        <ele>107</ele>
        <time>2025-06-15T10:03:02Z</time>
      </trkpt>
      <trkpt lat="45.16778" lon="0.67508">
        <ele>107</ele>
        <time>2025-06-15T10:03:03Z</time>
      </trkpt>
      <trkpt lat="45.16783" lon="0.67506">
        <ele>107.2</ele>
        <time>2025-06-15T10:03:04Z</time>
      </trkpt>
      <trkpt lat="45.16788" lon="0.67503">
        <ele>107.2</ele>
        <time>2025-06-15T10:03:05Z</time>
      </trkpt>
      <trkpt lat="45.16792" lon="0.67501">
        <ele>107.4</ele>
        <time>2025-06-15T10:03:06Z</time>
      </trkpt>
      <trkpt lat="45.16797" lon="0.67499">
        <ele>107.4</ele>
        <time>2025-06-15T10:03:07Z</time>
      </trkpt>
      <trkpt lat="45.16802" lon="0.67496">
        <ele>107.4</ele>
        <time>2025-06-15T10:03:08Z</time>
      </trkpt>
      <trkpt lat="45.16806" lon="0.67493">
        <ele>107.4</ele>
        <time>2025-06-15T10:03:09Z</time>
      </trkpt>
      <trkpt lat="45.1681" lon="0.67489">
        <ele>107.2</ele>
        <time>2025-06-15T10:03:10Z</time>
      </trkpt>
      <trkpt lat="45.16814" lon="0.67484">
        <ele>107.4</ele>
        <time>2025-06-15T10:03:11Z</time>
      </trkpt>
      <trkpt lat="45.16818" lon="0.6748">
        <ele>107.4</ele>
        <time>2025-06-15T10:03:12Z</time>
      </trkpt>
      <trkpt lat="45.16822" lon="0.67475">
        <ele>107.2</ele>
        <time>2025-06-15T10:03:13Z</time>
      </trkpt>
      <trkpt lat="45.16826" lon="0.67471">
        <ele>107.2</ele>
        <time>2025-06-15T10:03:14Z</time>
      </trkpt>
      <trkpt lat="45.1683" lon="0.67467">
        <ele>107.2</ele>
        <time>2025-06-15T10:03:15Z</time>
      </trkpt>
      <trkpt lat="45.16835" lon="0.67465">
        <ele>107.2</ele>
        <time>2025-06-15T10:03:16Z</time>
      </trkpt>
      <trkpt lat="45.1684" lon="0.67463">
        <ele>107.2</ele>
        <time>2025-06-15T10:03:17Z</time>
      </trkpt>
      <trkpt lat="45.16845" lon="0.67462">
        <ele>107.2</ele>
        <time>2025-06-15T10:03:18Z</time>
      </trkpt>
      <trkpt lat="45.1685" lon="0.67462">
        <ele>107.2</ele>
        <time>2025-06-15T10:03:19Z</time>
      </trkpt>
      <trkpt lat="45.16855" lon="0.67461">
        <ele>107.4</ele>
        <time>2025-06-15T10:03:20Z</time>
      </trkpt>
      <trkpt lat="45.1686" lon="0.67461">
        <ele>107.4</ele>
        <time>2025-06-15T10:03:21Z</time>
      </trkpt>
      <trkpt lat="45.16865" lon="0.67461">
        <ele>107.4</ele>
        <time>2025-06-15T10:03:22Z</time>
      </trkpt>
      <trkpt lat="45.1687" lon="0.67461">
        <ele>107.6</ele>
        <time>2025-06-15T10:03:23Z</time>
      </trkpt>
      <trkpt lat="45.16875" lon="0.67461">
        <ele>107.6</ele>
        <time>2025-06-15T10:03:24Z</time>
      </trkpt>
      <trkpt lat="45.1688" lon="0.67462">
        <ele>107.6</ele>
        <time>2025-06-15T10:03:25Z</time>
      </trkpt>
      <trkpt lat="45.16885" lon="0.67462">
        <ele>107.6</ele>
        <time>2025-06-15T10:03:26Z</time>
      </trkpt>
      <trkpt lat="45.16889" lon="0.67462">
        <ele>107.6</ele>
        <time>2025-06-15T10:03:27Z</time>
      </trkpt>
      <trkpt lat="45.16894" lon="0.67462">
        <ele>107.4</ele>
        <time>2025-06-15T10:03:28Z</time>
      </trkpt>
      <trkpt lat="45.16898" lon="0.67462">
        <ele>107.2</ele>
        <time>2025-06-15T10:03:29Z</time>
      </trkpt>
      <trkpt lat="45.16902" lon="0.6746">
        <ele>107.2</ele>
        <time>2025-06-15T10:03:30Z</time>
      </trkpt>
      <trkpt lat="45.16906" lon="0.67459">
        <ele>107.2</ele>
        <time>2025-06-15T10:03:31Z</time>
      </trkpt>
      <trkpt lat="45.1691" lon="0.67456">
        <ele>107</ele>
        <time>2025-06-15T10:03:32Z</time>
      </trkpt>
      <trkpt lat="45.16914" lon="0.67454">
        <ele>107</ele>
        <time>2025-06-15T10:03:33Z</time>
      </trkpt>
      <trkpt lat="45.16918" lon="0.6745">
        <ele>107</ele>
        <time>2025-06-15T10:03:34Z</time>
      </trkpt>
      <trkpt lat="45.16921" lon="0.67447">
        <ele>106.8</ele>
        <time>2025-06-15T10:03:35Z</time>
      </trkpt>
      <trkpt lat="45.16925" lon="0.67444">
        <ele>106.6</ele>
        <time>2025-06-15T10:03:36Z</time>
      </trkpt>
      <trkpt lat="45.16928" lon="0.67442">
        <ele>106.4</ele>
        <time>2025-06-15T10:03:37Z</time>
      </trkpt>
      <trkpt lat="45.16932" lon="0.6744">
        <ele>106.4</ele>
        <time>2025-06-15T10:03:38Z</time>
      </trkpt>
      <trkpt lat="45.16935" lon="0.67437">
        <ele>106.4</ele>
        <time>2025-06-15T10:03:39Z</time>
      </trkpt>
      <trkpt lat="45.16938" lon="0.67433">
        <ele>106.2</ele>
        <time>2025-06-15T10:03:40Z</time>
      </trkpt>
      <trkpt lat="45.16941" lon="0.67428">
        <ele>106.2</ele>
        <time>2025-06-15T10:03:41Z</time>
      </trkpt>
      <trkpt lat="45.16944" lon="0.67424">
        <ele>106.2</ele>
        <time>2025-06-15T10:03:42Z</time>
      </trkpt>
      <trkpt lat="45.16946" lon="0.6742">
        <ele>106</ele>
        <time>2025-06-15T10:03:43Z</time>
      </trkpt>
      <trkpt lat="45.16948" lon="0.67415">
        <ele>106</ele>
        <time>2025-06-15T10:03:44Z</time>
      </trkpt>
      <trkpt lat="45.1695" lon="0.67409">
        <ele>106</ele>
        <time>2025-06-15T10:03:45Z</time>
      </trkpt>
      <trkpt lat="45.16953" lon="0.67404">
        <ele>105.8</ele>
        <time>2025-06-15T10:03:46Z</time>
      </trkpt>
      <trkpt lat="45.16956" lon="0.674">
        <ele>105.8</ele>
        <time>2025-06-15T10:03:47Z</time>
      </trkpt>
      <trkpt lat="45.1696" lon="0.67395">
        <ele>105.8</ele>
        <time>2025-06-15T10:03:48Z</time>
      </trkpt>
      <trkpt lat="45.16964" lon="0.6739">
        <ele>105.8</ele>
        <time>2025-06-15T10:03:49Z</time>
      </trkpt>
      <trkpt lat="45.16968" lon="0.67386">
        <ele>105.6</ele>
        <time>2025-06-15T10:03:50Z</time>
      </trkpt>
      <trkpt lat="45.16972" lon="0.67381">
        <ele>105.4</ele>
        <time>2025-06-15T10:03:51Z</time>
      </trkpt>
      <trkpt lat="45.16976" lon="0.67377">
        <ele>105.4</ele>
        <time>2025-06-15T10:03:52Z</time>
      </trkpt>
      <trkpt lat="45.16981" lon="0.67372">
        <ele>105.2</ele>
        <time>2025-06-15T10:03:53Z</time>
      </trkpt>
      <trkpt lat="45.16985" lon="0.67367">
        <ele>105.2</ele>
        <time>2025-06-15T10:03:54Z</time>
      </trkpt>
      <trkpt lat="45.1699" lon="0.67362">
        <ele>105</ele>
        <time>2025-06-15T10:03:55Z</time>
      </trkpt>
      <trkpt lat="45.16995" lon="0.67357">
        <ele>105</ele>
        <time>2025-06-15T10:03:56Z</time>
      </trkpt>
      <trkpt lat="45.16999" lon="0.67352">
        <ele>104.8</ele>
        <time>2025-06-15T10:03:57Z</time>
      </trkpt>
      <trkpt lat="45.17004" lon="0.67347">
        <ele>104.6</ele>
        <time>2025-06-15T10:03:58Z</time>
      </trkpt>
      <trkpt lat="45.17009" lon="0.67342">
        <ele>104.6</ele>
        <time>2025-06-15T10:03:59Z</time>
      </trkpt>
      <trkpt lat="45.17015" lon="0.67337">
        <ele>104.4</ele>
        <time>2025-06-15T10:04:00Z</time>
      </trkpt>
      <trkpt lat="45.1702" lon="0.67331">
        <ele>104.4</ele>
        <time>2025-06-15T10:04:01Z</time>
      </trkpt>
      <trkpt lat="45.17026" lon="0.67327">
        <ele>104.2</ele>
        <time>2025-06-15T10:04:02Z</time>
      </trkpt>
      <trkpt lat="45.17031" lon="0.67322">
        <ele>104</ele>
        <time>2025-06-15T10:04:03Z</time>
      </trkpt>
      <trkpt lat="45.17037" lon="0.67317">
        <ele>104</ele>
        <time>2025-06-15T10:04:04Z</time>
      </trkpt>
      <trkpt lat="45.17042" lon="0.67312">
        <ele>103.8</ele>
        <time>2025-06-15T10:04:05Z</time>
      </trkpt>
      <trkpt lat="45.17048" lon="0.67308">
        <ele>103.6</ele>
        <time>2025-06-15T10:04:06Z</time>
      </trkpt>
      <trkpt lat="45.17054" lon="0.67304">
        <ele>103.6</ele>
        <time>2025-06-15T10:04:07Z</time>
      </trkpt>
      <trkpt lat="45.17059" lon="0.673">
        <ele>103.4</ele>
        <time>2025-06-15T10:04:08Z</time>
      </trkpt>
      <trkpt lat="45.17064" lon="0.67294">
        <ele>103.2</ele>
        <time>2025-06-15T10:04:09Z</time>
      </trkpt>
      <trkpt lat="45.17068" lon="0.6729">
        <ele>103.2</ele>
        <time>2025-06-15T10:04:10Z</time>
      </trkpt>
      <trkpt lat="45.1707" lon="0.67285">
        <ele>103</ele>
        <time>2025-06-15T10:04:11Z</time>
      </trkpt>
      <trkpt lat="45.17069" lon="0.6728">
        <ele>103</ele>
        <time>2025-06-15T10:04:12Z</time>
      </trkpt>
      <trkpt lat="45.17068" lon="0.67274">
        <ele>103.2</ele>
        <time>2025-06-15T10:04:13Z</time>
      </trkpt>
      <trkpt lat="45.17065" lon="0.67267">
        <ele>103.2</ele>
        <time>2025-06-15T10:04:14Z</time>
      </trkpt>
      <trkpt lat="45.17062" lon="0.6726">
        <ele>103</ele>
        <time>2025-06-15T10:04:15Z</time>
      </trkpt>
      <trkpt lat="45.17059" lon="0.67253">
        <ele>103</ele>
        <time>2025-06-15T10:04:16Z</time>
      </trkpt>
      <trkpt lat="45.17056" lon="0.67245">
        <ele>103</ele>
        <time>2025-06-15T10:04:17Z</time>
      </trkpt>
      <trkpt lat="45.17053" lon="0.67237">
        <ele>102.8</ele>
        <time>2025-06-15T10:04:18Z</time>
      </trkpt>
      <trkpt lat="45.1705" lon="0.6723">
        <ele>102.6</ele>
        <time>2025-06-15T10:04:19Z</time>
      </trkpt>
      <trkpt lat="45.17046" lon="0.67222">
        <ele>102.6</ele>
        <time>2025-06-15T10:04:20Z</time>
      </trkpt>
      <trkpt lat="45.17042" lon="0.67215">
        <ele>102.4</ele>
        <time>2025-06-15T10:04:21Z</time>
      </trkpt>
      <trkpt lat="45.17039" lon="0.67209">
        <ele>102</ele>
        <time>2025-06-15T10:04:22Z</time>
      </trkpt>
      <trkpt lat="45.17038" lon="0.67203">
        <ele>101.8</ele>
        <time>2025-06-15T10:04:23Z</time>
      </trkpt>
      <trkpt lat="45.17039" lon="0.67197">
        <ele>101.8</ele>
        <time>2025-06-15T10:04:24Z</time>
      </trkpt>
      <trkpt lat="45.17041" lon="0.67192">
        <ele>101.8</ele>
        <time>2025-06-15T10:04:25Z</time>
      </trkpt>
      <trkpt lat="45.17045" lon="0.67188">
        <ele>102</ele>
        <time>2025-06-15T10:04:26Z</time>
      </trkpt>
      <trkpt lat="45.17049" lon="0.67184">
        <ele>102</ele>
        <time>2025-06-15T10:04:27Z</time>
      </trkpt>
      <trkpt lat="45.17054" lon="0.67181">
        <ele>102</ele>
        <time>2025-06-15T10:04:28Z</time>
      </trkpt>
      <trkpt lat="45.17058" lon="0.67177">
        <ele>102</ele>
        <time>2025-06-15T10:04:29Z</time>
      </trkpt>
      <trkpt lat="45.17063" lon="0.67173">
        <ele>102</ele>
        <time>2025-06-15T10:04:30Z</time>
      </trkpt>
      <trkpt lat="45.17068" lon="0.67169">
        <ele>102</ele>
        <time>2025-06-15T10:04:31Z</time>
      </trkpt>
      <trkpt lat="45.17073" lon="0.67165">
        <ele>102</ele>
        <time>2025-06-15T10:04:32Z</time>
      </trkpt>
      <trkpt lat="45.17078" lon="0.67162">
        <ele>101.8</ele>
        <time>2025-06-15T10:04:33Z</time>
      </trkpt>
      <trkpt lat="45.17083" lon="0.67158">
        <ele>102</ele>
        <time>2025-06-15T10:04:34Z</time>
      </trkpt>
      <trkpt lat="45.17089" lon="0.67154">
        <ele>102</ele>
        <time>2025-06-15T10:04:35Z</time>
      </trkpt>
      <trkpt lat="45.17094" lon="0.67151">
        <ele>101.8</ele>
        <time>2025-06-15T10:04:36Z</time>
      </trkpt>
      <trkpt lat="45.171" lon="0.67147">
        <ele>101.8</ele>
        <time>2025-06-15T10:04:37Z</time>
      </trkpt>
      <trkpt lat="45.17105" lon="0.67144">
        <ele>102</ele>
        <time>2025-06-15T10:04:38Z</time>
      </trkpt>
      <trkpt lat="45.17111" lon="0.67141">
        <ele>101.8</ele>
        <time>2025-06-15T10:04:39Z</time>
      </trkpt>
      <trkpt lat="45.17116" lon="0.67137">
        <ele>101.8</ele>
        <time>2025-06-15T10:04:40Z</time>
      </trkpt>
      <trkpt lat="45.17121" lon="0.67135">
        <ele>101.8</ele>
        <time>2025-06-15T10:04:41Z</time>
      </trkpt>
      <trkpt lat="45.17127" lon="0.67133">
        <ele>101.8</ele>
        <time>2025-06-15T10:04:42Z</time>
      </trkpt>
      <trkpt lat="45.17132" lon="0.6713">
        <ele>101.6</ele>
        <time>2025-06-15T10:04:43Z</time>
      </trkpt>
      <trkpt lat="45.17137" lon="0.67127">
        <ele>101.8</ele>
        <time>2025-06-15T10:04:44Z</time>
      </trkpt>
      <trkpt lat="45.17142" lon="0.67125">
        <ele>101.8</ele>
        <time>2025-06-15T10:04:45Z</time>
      </trkpt>
      <trkpt lat="45.17147" lon="0.67122">
        <ele>101.8</ele>
        <time>2025-06-15T10:04:46Z</time>
      </trkpt>
      <trkpt lat="45.17152" lon="0.67119">
        <ele>101.8</ele>
        <time>2025-06-15T10:04:47Z</time>
      </trkpt>
      <trkpt lat="45.17157" lon="0.67117">
        <ele>101.8</ele>
        <time>2025-06-15T10:04:48Z</time>
      </trkpt>
      <trkpt lat="45.17163" lon="0.67115">
        <ele>102</ele>
        <time>2025-06-15T10:04:49Z</time>
      </trkpt>
      <trkpt lat="45.17167" lon="0.67113">
        <ele>102</ele>
        <time>2025-06-15T10:04:50Z</time>
      </trkpt>
      <trkpt lat="45.17172" lon="0.6711">
        <ele>102.2</ele>
        <time>2025-06-15T10:04:51Z</time>
      </trkpt>
      <trkpt lat="45.17177" lon="0.67107">
        <ele>102.4</ele>
        <time>2025-06-15T10:04:52Z</time>
      </trkpt>
      <trkpt lat="45.17182" lon="0.67104">
        <ele>102.4</ele>
        <time>2025-06-15T10:04:53Z</time>
      </trkpt>
      <trkpt lat="45.17187" lon="0.67101">
        <ele>102.6</ele>
        <time>2025-06-15T10:04:54Z</time>
      </trkpt>
      <trkpt lat="45.17192" lon="0.67097">
        <ele>102.8</ele>
        <time>2025-06-15T10:04:55Z</time>
      </trkpt>
      <trkpt lat="45.17198" lon="0.67093">
        <ele>103</ele>
        <time>2025-06-15T10:04:56Z</time>
      </trkpt>
      <trkpt lat="45.17203" lon="0.6709">
        <ele>103.2</ele>
        <time>2025-06-15T10:04:57Z</time>
      </trkpt>
      <trkpt lat="45.17209" lon="0.67087">
        <ele>103.4</ele>
        <time>2025-06-15T10:04:58Z</time>
      </trkpt>
      <trkpt lat="45.17216" lon="0.67084">
        <ele>103.6</ele>
        <time>2025-06-15T10:04:59Z</time>
      </trkpt>
      <trkpt lat="45.17222" lon="0.67082">
        <ele>103.8</ele>
        <time>2025-06-15T10:05:00Z</time>
      </trkpt>
      <trkpt lat="45.17228" lon="0.6708">
        <ele>104</ele>
        <time>2025-06-15T10:05:01Z</time>
      </trkpt>
      <trkpt lat="45.17234" lon="0.67077">
        <ele>104.2</ele>
        <time>2025-06-15T10:05:02Z</time>
      </trkpt>
      <trkpt lat="45.1724" lon="0.67075">
        <ele>104.6</ele>
        <time>2025-06-15T10:05:03Z</time>
      </trkpt>
      <trkpt lat="45.17245" lon="0.67072">
        <ele>104.8</ele>
        <time>2025-06-15T10:05:04Z</time>
      </trkpt>
      <trkpt lat="45.1725" lon="0.67069">
        <ele>105.2</ele>
        <time>2025-06-15T10:05:05Z</time>
      </trkpt>
      <trkpt lat="45.17255" lon="0.67067">
        <ele>105.4</ele>
        <time>2025-06-15T10:05:06Z</time>
      </trkpt>
      <trkpt lat="45.1726" lon="0.67065">
        <ele>105.6</ele>
        <time>2025-06-15T10:05:07Z</time>
      </trkpt>
      <trkpt lat="45.17266" lon="0.67063">
        <ele>105.8</ele>
        <time>2025-06-15T10:05:08Z</time>
      </trkpt>
      <trkpt lat="45.17271" lon="0.6706">
        <ele>106</ele>
        <time>2025-06-15T10:05:09Z</time>
      </trkpt>
      <trkpt lat="45.17276" lon="0.67057">
        <ele>106.2</ele>
        <time>2025-06-15T10:05:10Z</time>
      </trkpt>
      <trkpt lat="45.17281" lon="0.67055">
        <ele>106.6</ele>
        <time>2025-06-15T10:05:11Z</time>
      </trkpt>
      <trkpt lat="45.17286" lon="0.67053">
        <ele>106.8</ele>
        <time>2025-06-15T10:05:12Z</time>
      </trkpt>
      <trkpt lat="45.17291" lon="0.67051">
        <ele>107</ele>
        <time>2025-06-15T10:05:13Z</time>
      </trkpt>
      <trkpt lat="45.17295" lon="0.67048">
        <ele>107.2</ele>
        <time>2025-06-15T10:05:14Z</time>
      </trkpt>
      <trkpt lat="45.173" lon="0.67045">
        <ele>107.4</ele>
        <time>2025-06-15T10:05:15Z</time>
      </trkpt>
      <trkpt lat="45.17305" lon="0.67042">
        <ele>107.6</ele>
        <time>2025-06-15T10:05:16Z</time>
      </trkpt>
      <trkpt lat="45.1731" lon="0.67038">
        <ele>107.6</ele>
        <time>2025-06-15T10:05:17Z</time>
      </trkpt>
      <trkpt lat="45.17315" lon="0.67034">
        <ele>107.8</ele>
        <time>2025-06-15T10:05:18Z</time>
      </trkpt>
      <trkpt lat="45.1732" lon="0.6703">
        <ele>108</ele>
        <time>2025-06-15T10:05:19Z</time>
      </trkpt>
      <trkpt lat="45.17324" lon="0.67026">
        <ele>108.2</ele>
        <time>2025-06-15T10:05:20Z</time>
      </trkpt>
      <trkpt lat="45.17329" lon="0.67022">
        <ele>108.2</ele>
        <time>2025-06-15T10:05:21Z</time>
      </trkpt>
      <trkpt lat="45.17334" lon="0.67019">
        <ele>108.4</ele>
        <time>2025-06-15T10:05:22Z</time>
      </trkpt>
      <trkpt lat="45.17339" lon="0.67015">
        <ele>108.4</ele>
        <time>2025-06-15T10:05:23Z</time>
      </trkpt>
      <trkpt lat="45.17344" lon="0.67012">
        <ele>108.8</ele>
        <time>2025-06-15T10:05:24Z</time>
      </trkpt>
      <trkpt lat="45.17349" lon="0.67009">
        <ele>108.8</ele>
        <time>2025-06-15T10:05:25Z</time>
      </trkpt>
      <trkpt lat="45.17355" lon="0.67005">
        <ele>109</ele>
        <time>2025-06-15T10:05:26Z</time>
      </trkpt>
      <trkpt lat="45.1736" lon="0.67002">
        <ele>109.2</ele>
        <time>2025-06-15T10:05:27Z</time>
      </trkpt>
      <trkpt lat="45.17365" lon="0.66999">
        <ele>109.4</ele>
        <time>2025-06-15T10:05:28Z</time>
      </trkpt>
      <trkpt lat="45.1737" lon="0.66996">
        <ele>109.4</ele>
        <time>2025-06-15T10:05:29Z</time>
      </trkpt>
      <trkpt lat="45.17375" lon="0.66996">
        <ele>109.6</ele>
        <time>2025-06-15T10:05:30Z</time>
      </trkpt>
      <trkpt lat="45.1738" lon="0.66998">
        <ele>110</ele>
        <time>2025-06-15T10:05:31Z</time>
      </trkpt>
      <trkpt lat="45.17383" lon="0.67001">
        <ele>110</ele>
        <time>2025-06-15T10:05:32Z</time>
      </trkpt>
      <trkpt lat="45.17384" lon="0.67006">
        <ele>110.4</ele>
        <time>2025-06-15T10:05:33Z</time>
      </trkpt>
      <trkpt lat="45.17385" lon="0.6701">
        <ele>110.6</ele>
        <time>2025-06-15T10:05:34Z</time>
      </trkpt>
      <trkpt lat="45.17386" lon="0.67015">
        <ele>110.6</ele>
        <time>2025-06-15T10:05:35Z</time>
      </trkpt>
      <trkpt lat="45.17386" lon="0.6702">
        <ele>110.8</ele>
        <time>2025-06-15T10:05:36Z</time>
      </trkpt>
      <trkpt lat="45.17387" lon="0.67025">
        <ele>111.2</ele>
        <time>2025-06-15T10:05:37Z</time>
      </trkpt>
      <trkpt lat="45.17387" lon="0.6703">
        <ele>111.2</ele>
        <time>2025-06-15T10:05:38Z</time>
      </trkpt>
      <trkpt lat="45.17387" lon="0.67035">
        <ele>111.4</ele>
        <time>2025-06-15T10:05:39Z</time>
      </trkpt>
      <trkpt lat="45.17387" lon="0.67041">
        <ele>111.4</ele>
        <time>2025-06-15T10:05:40Z</time>
      </trkpt>
      <trkpt lat="45.17387" lon="0.67046">
        <ele>111.4</ele>
        <time>2025-06-15T10:05:41Z</time>
      </trkpt>
      <trkpt lat="45.17386" lon="0.67051">
        <ele>111.2</ele>
        <time>2025-06-15T10:05:42Z</time>
      </trkpt>
      <trkpt lat="45.17387" lon="0.67057">
        <ele>111.2</ele>
        <time>2025-06-15T10:05:43Z</time>
      </trkpt>
      <trkpt lat="45.17389" lon="0.67061">
        <ele>111</ele>
        <time>2025-06-15T10:05:44Z</time>
      </trkpt>
      <trkpt lat="45.17392" lon="0.67062">
        <ele>110.8</ele>
        <time>2025-06-15T10:05:45Z</time>
      </trkpt>
      <trkpt lat="45.17396" lon="0.6706">
        <ele>110.6</ele>
        <time>2025-06-15T10:05:46Z</time>
      </trkpt>
      <trkpt lat="45.17399" lon="0.67058">
        <ele>110.4</ele>
        <time>2025-06-15T10:05:47Z</time>
      </trkpt>
      <trkpt lat="45.17403" lon="0.67056">
        <ele>110.2</ele>
        <time>2025-06-15T10:05:48Z</time>
      </trkpt>
      <trkpt lat="45.17406" lon="0.67054">
        <ele>110</ele>
        <time>2025-06-15T10:05:49Z</time>
      </trkpt>
      <trkpt lat="45.1741" lon="0.67052">
        <ele>109.8</ele>
        <time>2025-06-15T10:05:50Z</time>
      </trkpt>
      <trkpt lat="45.17415" lon="0.67051">
        <ele>109.6</ele>
        <time>2025-06-15T10:05:51Z</time>
      </trkpt>
      <trkpt lat="45.17419" lon="0.67051">
        <ele>109.2</ele>
        <time>2025-06-15T10:05:52Z</time>
      </trkpt>
      <trkpt lat="45.17423" lon="0.6705">
        <ele>109</ele>
        <time>2025-06-15T10:05:53Z</time>
      </trkpt>
      <trkpt lat="45.17428" lon="0.6705">
        <ele>108.8</ele>
        <time>2025-06-15T10:05:54Z</time>
      </trkpt>
      <trkpt lat="45.17432" lon="0.6705">
        <ele>108.6</ele>
        <time>2025-06-15T10:05:55Z</time>
      </trkpt>
      <trkpt lat="45.17437" lon="0.6705">
        <ele>108.4</ele>
        <time>2025-06-15T10:05:56Z</time>
      </trkpt>
      <trkpt lat="45.17442" lon="0.6705">
        <ele>108.2</ele>
        <time>2025-06-15T10:05:57Z</time>
      </trkpt>
      <trkpt lat="45.17447" lon="0.67051">
        <ele>108</ele>
        <time>2025-06-15T10:05:58Z</time>
      </trkpt>
      <trkpt lat="45.17452" lon="0.67052">
        <ele>107.8</ele>
        <time>2025-06-15T10:05:59Z</time>
      </trkpt>
      <trkpt lat="45.17457" lon="0.67052">
        <ele>107.6</ele>
        <time>2025-06-15T10:06:00Z</time>
      </trkpt>
      <trkpt lat="45.17463" lon="0.67052">
        <ele>107.4</ele>
        <time>2025-06-15T10:06:01Z</time>
      </trkpt>
      <trkpt lat="45.17468" lon="0.67052">
        <ele>107.4</ele>
        <time>2025-06-15T10:06:02Z</time>
      </trkpt>
      <trkpt lat="45.17474" lon="0.67052">
        <ele>107.2</ele>
        <time>2025-06-15T10:06:03Z</time>
      </trkpt>
      <trkpt lat="45.1748" lon="0.67051">
        <ele>107</ele>
        <time>2025-06-15T10:06:04Z</time>
      </trkpt>
      <trkpt lat="45.17486" lon="0.67051">
        <ele>107</ele>
        <time>2025-06-15T10:06:05Z</time>
      </trkpt>
      <trkpt lat="45.17492" lon="0.6705">
        <ele>107</ele>
        <time>2025-06-15T10:06:06Z</time>
      </trkpt>
      <trkpt lat="45.17498" lon="0.67049">
        <ele>107</ele>
        <time>2025-06-15T10:06:07Z</time>
      </trkpt>
      <trkpt lat="45.17505" lon="0.67047">
        <ele>107</ele>
        <time>2025-06-15T10:06:08Z</time>
      </trkpt>
      <trkpt lat="45.17511" lon="0.67048">
        <ele>107</ele>
        <time>2025-06-15T10:06:09Z</time>
      </trkpt>
      <trkpt lat="45.17516" lon="0.67049">
        <ele>107.2</ele>
        <time>2025-06-15T10:06:10Z</time>
      </trkpt>
      <trkpt lat="45.17522" lon="0.67051">
        <ele>107.4</ele>
        <time>2025-06-15T10:06:11Z</time>
      </trkpt>
      <trkpt lat="45.17528" lon="0.67053">
        <ele>107.4</ele>
        <time>2025-06-15T10:06:12Z</time>
      </trkpt>
      <trkpt lat="45.17535" lon="0.67055">
        <ele>107.6</ele>
        <time>2025-06-15T10:06:13Z</time>
      </trkpt>
      <trkpt lat="45.17542" lon="0.67057">
        <ele>107.6</ele>
        <time>2025-06-15T10:06:14Z</time>
      </trkpt>
      <trkpt lat="45.17549" lon="0.67057">
        <ele>107.6</ele>
        <time>2025-06-15T10:06:15Z</time>
      </trkpt>
      <trkpt lat="45.17556" lon="0.67057">
        <ele>107.6</ele>
        <time>2025-06-15T10:06:16Z</time>
      </trkpt>
      <trkpt lat="45.17562" lon="0.67059">
        <ele>107.8</ele>
        <time>2025-06-15T10:06:17Z</time>
      </trkpt>
      <trkpt lat="45.17568" lon="0.67061">
        <ele>108</ele>
        <time>2025-06-15T10:06:18Z</time>
      </trkpt>
      <trkpt lat="45.17574" lon="0.67064">
        <ele>108.2</ele>
        <time>2025-06-15T10:06:19Z</time>
      </trkpt>
      <trkpt lat="45.17581" lon="0.67067">
        <ele>108.4</ele>
        <time>2025-06-15T10:06:20Z</time>
      </trkpt>
      <trkpt lat="45.17588" lon="0.67068">
        <ele>108.6</ele>
        <time>2025-06-15T10:06:21Z</time>
      </trkpt>
      <trkpt lat="45.17595" lon="0.6707">
        <ele>108.8</ele>
        <time>2025-06-15T10:06:22Z</time>
      </trkpt>
      <trkpt lat="45.17603" lon="0.67069">
        <ele>109</ele>
        <time>2025-06-15T10:06:23Z</time>
      </trkpt>
      <trkpt lat="45.1761" lon="0.67069">
        <ele>108.8</ele>
        <time>2025-06-15T10:06:24Z</time>
      </trkpt>
      <trkpt lat="45.17617" lon="0.67067">
        <ele>108.8</ele>
        <time>2025-06-15T10:06:25Z</time>
      </trkpt>
      <trkpt lat="45.17625" lon="0.67064">
        <ele>109</ele>
        <time>2025-06-15T10:06:26Z</time>
      </trkpt>
      <trkpt lat="45.17631" lon="0.6706">
        <ele>109.2</ele>
        <time>2025-06-15T10:06:27Z</time>
      </trkpt>
      <trkpt lat="45.17638" lon="0.67057">
        <ele>109.2</ele>
        <time>2025-06-15T10:06:28Z</time>
      </trkpt>
      <trkpt lat="45.17645" lon="0.67056">
        <ele>109.6</ele>
        <time>2025-06-15T10:06:29Z</time>
      </trkpt>
      <trkpt lat="45.17652" lon="0.67055">
        <ele>109.8</ele>
        <time>2025-06-15T10:06:30Z</time>
      </trkpt>
      <trkpt lat="45.17659" lon="0.67055">
        <ele>109.8</ele>
        <time>2025-06-15T10:06:31Z</time>
      </trkpt>
      <trkpt lat="45.17667" lon="0.67056">
        <ele>109.8</ele>
        <time>2025-06-15T10:06:32Z</time>
      </trkpt>
      <trkpt lat="45.17675" lon="0.67057">
        <ele>110</ele>
        <time>2025-06-15T10:06:33Z</time>
      </trkpt>
      <trkpt lat="45.17683" lon="0.67059">
        <ele>110.4</ele>
        <time>2025-06-15T10:06:34Z</time>
      </trkpt>
      <trkpt lat="45.1769" lon="0.6706">
        <ele>110.6</ele>
        <time>2025-06-15T10:06:35Z</time>
      </trkpt>
      <trkpt lat="45.17697" lon="0.67061">
        <ele>110.8</ele>
        <time>2025-06-15T10:06:36Z</time>
      </trkpt>
      <trkpt lat="45.17703" lon="0.67062">
        <ele>111.2</ele>
        <time>2025-06-15T10:06:37Z</time>
      </trkpt>
      <trkpt lat="45.17709" lon="0.67062">
        <ele>111.4</ele>
        <time>2025-06-15T10:06:38Z</time>
      </trkpt>
      <trkpt lat="45.17715" lon="0.67061">
        <ele>111.8</ele>
        <time>2025-06-15T10:06:39Z</time>
      </trkpt>
      <trkpt lat="45.1772" lon="0.67061">
        <ele>112</ele>
        <time>2025-06-15T10:06:40Z</time>
      </trkpt>
      <trkpt lat="45.17724" lon="0.67061">
        <ele>112.2</ele>
        <time>2025-06-15T10:06:41Z</time>
      </trkpt>
      <trkpt lat="45.17729" lon="0.67061">
        <ele>112.2</ele>
        <time>2025-06-15T10:06:42Z</time>
      </trkpt>
      <trkpt lat="45.17734" lon="0.6706">
        <ele>112.6</ele>
        <time>2025-06-15T10:06:43Z</time>
      </trkpt>
      <trkpt lat="45.17739" lon="0.6706">
        <ele>113</ele>
        <time>2025-06-15T10:06:44Z</time>
      </trkpt>
      <trkpt lat="45.17744" lon="0.67061">
        <ele>113</ele>
        <time>2025-06-15T10:06:45Z</time>
      </trkpt>
      <trkpt lat="45.17748" lon="0.67062">
        <ele>113.2</ele>
        <time>2025-06-15T10:06:46Z</time>
      </trkpt>
      <trkpt lat="45.17753" lon="0.67063">
        <ele>113.4</ele>
        <time>2025-06-15T10:06:47Z</time>
      </trkpt>
      <trkpt lat="45.17758" lon="0.67064">
        <ele>113.4</ele>
        <time>2025-06-15T10:06:48Z</time>
      </trkpt>
      <trkpt lat="45.17763" lon="0.67066">
        <ele>113.6</ele>
        <time>2025-06-15T10:06:49Z</time>
      </trkpt>
      <trkpt lat="45.17769" lon="0.67069">
        <ele>113.6</ele>
        <time>2025-06-15T10:06:50Z</time>
      </trkpt>
      <trkpt lat="45.17774" lon="0.67073">
        <ele>113.8</ele>
        <time>2025-06-15T10:06:51Z</time>
      </trkpt>
      <trkpt lat="45.17776" lon="0.67078">
        <ele>113.8</ele>
        <time>2025-06-15T10:06:52Z</time>
      </trkpt>
      <trkpt lat="45.17778" lon="0.67085">
        <ele>113.8</ele>
        <time>2025-06-15T10:06:53Z</time>
      </trkpt>
      <trkpt lat="45.17778" lon="0.67093">
        <ele>114</ele>
        <time>2025-06-15T10:06:54Z</time>
      </trkpt>
      <trkpt lat="45.17778" lon="0.67101">
        <ele>114.4</ele>
        <time>2025-06-15T10:06:55Z</time>
      </trkpt>
      <trkpt lat="45.17778" lon="0.67108">
        <ele>114.6</ele>
        <time>2025-06-15T10:06:56Z</time>
      </trkpt>
      <trkpt lat="45.17778" lon="0.67115">
        <ele>114.8</ele>
        <time>2025-06-15T10:06:57Z</time>
      </trkpt>
      <trkpt lat="45.17777" lon="0.67123">
        <ele>115</ele>
        <time>2025-06-15T10:06:58Z</time>
      </trkpt>
      <trkpt lat="45.17776" lon="0.67132">
        <ele>115</ele>
        <time>2025-06-15T10:06:59Z</time>
      </trkpt>
      <trkpt lat="45.17774" lon="0.67142">
        <ele>115.2</ele>
        <time>2025-06-15T10:07:00Z</time>
      </trkpt>
      <trkpt lat="45.17771" lon="0.67152">
        <ele>115.2</ele>
        <time>2025-06-15T10:07:01Z</time>
      </trkpt>
      <trkpt lat="45.17769" lon="0.67162">
        <ele>115.2</ele>
        <time>2025-06-15T10:07:02Z</time>
      </trkpt>
      <trkpt lat="45.17767" lon="0.67171">
        <ele>115</ele>
        <time>2025-06-15T10:07:03Z</time>
      </trkpt>
      <trkpt lat="45.17765" lon="0.67181">
        <ele>115.4</ele>
        <time>2025-06-15T10:07:04Z</time>
      </trkpt>
      <trkpt lat="45.17763" lon="0.6719">
        <ele>115.8</ele>
        <time>2025-06-15T10:07:05Z</time>
      </trkpt>
      <trkpt lat="45.17762" lon="0.67198">
        <ele>116</ele>
        <time>2025-06-15T10:07:06Z</time>
      </trkpt>
      <trkpt lat="45.1776" lon="0.67207">
        <ele>116.2</ele>
        <time>2025-06-15T10:07:07Z</time>
      </trkpt>
      <trkpt lat="45.17759" lon="0.67217">
        <ele>116.2</ele>
        <time>2025-06-15T10:07:08Z</time>
      </trkpt>
      <trkpt lat="45.1776" lon="0.67228">
        <ele>116.4</ele>
        <time>2025-06-15T10:07:09Z</time>
      </trkpt>
      <trkpt lat="45.17759" lon="0.67238">
        <ele>116.4</ele>
        <time>2025-06-15T10:07:10Z</time>
      </trkpt>
      <trkpt lat="45.17759" lon="0.67246">
        <ele>116.6</ele>
        <time>2025-06-15T10:07:11Z</time>
      </trkpt>
      <trkpt lat="45.17759" lon="0.67251">
        <ele>116.8</ele>
        <time>2025-06-15T10:07:12Z</time>
      </trkpt>
      <trkpt lat="45.17761" lon="0.67254">
        <ele>117</ele>
        <time>2025-06-15T10:07:13Z</time>
      </trkpt>
      <trkpt lat="45.17763" lon="0.67255">
        <ele>117</ele>
        <time>2025-06-15T10:07:14Z</time>
      </trkpt>
      <trkpt lat="45.17766" lon="0.67256">
        <ele>117</ele>
        <time>2025-06-15T10:07:15Z</time>
      </trkpt>
      <trkpt lat="45.17769" lon="0.67257">
        <ele>117</ele>
        <time>2025-06-15T10:07:16Z</time>
      </trkpt>
      <trkpt lat="45.17771" lon="0.67258">
        <ele>117</ele>
        <time>2025-06-15T10:07:17Z</time>
      </trkpt>
      <trkpt lat="45.17774" lon="0.6726">
        <ele>117</ele>
        <time>2025-06-15T10:07:18Z</time>
      </trkpt>
      <trkpt lat="45.17778" lon="0.67262">
        <ele>117</ele>
        <time>2025-06-15T10:07:19Z</time>
      </trkpt>
      <trkpt lat="45.17783" lon="0.67265">
        <ele>116.8</ele>
        <time>2025-06-15T10:07:20Z</time>
      </trkpt>
      <trkpt lat="45.17787" lon="0.67266">
        <ele>116.8</ele>
        <time>2025-06-15T10:07:21Z</time>
      </trkpt>
      <trkpt lat="45.17791" lon="0.67268">
        <ele>116.8</ele>
        <time>2025-06-15T10:07:22Z</time>
      </trkpt>
      <trkpt lat="45.17795" lon="0.6727">
        <ele>116.6</ele>
        <time>2025-06-15T10:07:23Z</time>
      </trkpt>
      <trkpt lat="45.17799" lon="0.67273">
        <ele>116.6</ele>
        <time>2025-06-15T10:07:24Z</time>
      </trkpt>
      <trkpt lat="45.17803" lon="0.67275">
        <ele>116.4</ele>
        <time>2025-06-15T10:07:25Z</time>
      </trkpt>
      <trkpt lat="45.17807" lon="0.67278">
        <ele>116.4</ele>
        <time>2025-06-15T10:07:26Z</time>
      </trkpt>
      <trkpt lat="45.17811" lon="0.67281">
        <ele>116.4</ele>
        <time>2025-06-15T10:07:27Z</time>
      </trkpt>
      <trkpt lat="45.17814" lon="0.67285">
        <ele>116.4</ele>
        <time>2025-06-15T10:07:28Z</time>
      </trkpt>
      <trkpt lat="45.17816" lon="0.67288">
        <ele>116.2</ele>
        <time>2025-06-15T10:07:29Z</time>
      </trkpt>
      <trkpt lat="45.17817" lon="0.67292">
        <ele>116.2</ele>
        <time>2025-06-15T10:07:30Z</time>
      </trkpt>
      <trkpt lat="45.17816" lon="0.67294">
        <ele>116.2</ele>
        <time>2025-06-15T10:07:31Z</time>
      </trkpt>
      <trkpt lat="45.17815" lon="0.67298">
        <ele>116.2</ele>
        <time>2025-06-15T10:07:32Z</time>
      </trkpt>
      <trkpt lat="45.17813" lon="0.67301">
        <ele>116.4</ele>
        <time>2025-06-15T10:07:33Z</time>
      </trkpt>
      <trkpt lat="45.17811" lon="0.67304">
        <ele>116.4</ele>
        <time>2025-06-15T10:07:34Z</time>
      </trkpt>
      <trkpt lat="45.17809" lon="0.67307">
        <ele>116.4</ele>
        <time>2025-06-15T10:07:35Z</time>
      </trkpt>
      <trkpt lat="45.17807" lon="0.67311">
        <ele>116.4</ele>
        <time>2025-06-15T10:07:36Z</time>
      </trkpt>
      <trkpt lat="45.17805" lon="0.67315">
        <ele>116.4</ele>
        <time>2025-06-15T10:07:37Z</time>
      </trkpt>
      <trkpt lat="45.17803" lon="0.67319">
        <ele>116.6</ele>
        <time>2025-06-15T10:07:38Z</time>
      </trkpt>
      <trkpt lat="45.17802" lon="0.67323">
        <ele>116.6</ele>
        <time>2025-06-15T10:07:39Z</time>
      </trkpt>
      <trkpt lat="45.178" lon="0.67327">
        <ele>116.6</ele>
        <time>2025-06-15T10:07:40Z</time>
      </trkpt>
      <trkpt lat="45.17799" lon="0.67331">
        <ele>116.6</ele>
        <time>2025-06-15T10:07:41Z</time>
      </trkpt>
      <trkpt lat="45.17798" lon="0.67335">
        <ele>116.6</ele>
        <time>2025-06-15T10:07:42Z</time>
      </trkpt>
      <trkpt lat="45.17796" lon="0.67339">
        <ele>116.4</ele>
        <time>2025-06-15T10:07:43Z</time>
      </trkpt>
      <trkpt lat="45.17795" lon="0.67343">
        <ele>116.2</ele>
        <time>2025-06-15T10:07:44Z</time>
      </trkpt>
      <trkpt lat="45.17794" lon="0.67347">
        <ele>116.4</ele>
        <time>2025-06-15T10:07:45Z</time>
      </trkpt>
      <trkpt lat="45.17793" lon="0.67352">
        <ele>116.6</ele>
        <time>2025-06-15T10:07:46Z</time>
      </trkpt>
      <trkpt lat="45.17792" lon="0.67356">
        <ele>116.6</ele>
        <time>2025-06-15T10:07:47Z</time>
      </trkpt>
      <trkpt lat="45.1779" lon="0.67361">
        <ele>117</ele>
        <time>2025-06-15T10:07:48Z</time>
      </trkpt>
      <trkpt lat="45.17789" lon="0.67365">
        <ele>117.2</ele>
        <time>2025-06-15T10:07:49Z</time>
      </trkpt>
      <trkpt lat="45.17788" lon="0.6737">
        <ele>117.2</ele>
        <time>2025-06-15T10:07:50Z</time>
      </trkpt>
      <trkpt lat="45.17786" lon="0.67374">
        <ele>117</ele>
        <time>2025-06-15T10:07:51Z</time>
      </trkpt>
      <trkpt lat="45.17785" lon="0.67378">
        <ele>116.8</ele>
        <time>2025-06-15T10:07:52Z</time>
      </trkpt>
      <trkpt lat="45.17784" lon="0.67383">
        <ele>116.6</ele>
        <time>2025-06-15T10:07:53Z</time>
      </trkpt>
      <trkpt lat="45.17783" lon="0.67386">
        <ele>116.4</ele>
        <time>2025-06-15T10:07:54Z</time>
      </trkpt>
      <trkpt lat="45.17782" lon="0.6739">
        <ele>116.4</ele>
        <time>2025-06-15T10:07:55Z</time>
      </trkpt>
      <trkpt lat="45.17781" lon="0.67393">
        <ele>116.6</ele>
        <time>2025-06-15T10:07:56Z</time>
      </trkpt>
      <trkpt lat="45.1778" lon="0.67397">
        <ele>116.6</ele>
        <time>2025-06-15T10:07:57Z</time>
      </trkpt>
      <trkpt lat="45.17779" lon="0.674">
        <ele>116.6</ele>
        <time>2025-06-15T10:07:58Z</time>
      </trkpt>
      <trkpt lat="45.17778" lon="0.67403">
        <ele>116.8</ele>
        <time>2025-06-15T10:07:59Z</time>
      </trkpt>
      <trkpt lat="45.17777" lon="0.67406">
        <ele>116.8</ele>
        <time>2025-06-15T10:08:00Z</time>
      </trkpt>
      <trkpt lat="45.17777" lon="0.67409">
        <ele>116.6</ele>
        <time>2025-06-15T10:08:01Z</time>
      </trkpt>
      <trkpt lat="45.17775" lon="0.67413">
        <ele>116.6</ele>
        <time>2025-06-15T10:08:02Z</time>
      </trkpt>
      <trkpt lat="45.17774" lon="0.67416">
        <ele>116.4</ele>
        <time>2025-06-15T10:08:03Z</time>
      </trkpt>
      <trkpt lat="45.17773" lon="0.67419">
        <ele>116.4</ele>
        <time>2025-06-15T10:08:04Z</time>
      </trkpt>
      <trkpt lat="45.17772" lon="0.67423">
        <ele>116.2</ele>
        <time>2025-06-15T10:08:05Z</time>
      </trkpt>
      <trkpt lat="45.17771" lon="0.67426">
        <ele>116.2</ele>
        <time>2025-06-15T10:08:06Z</time>
      </trkpt>
      <trkpt lat="45.1777" lon="0.67429">
        <ele>116.2</ele>
        <time>2025-06-15T10:08:07Z</time>
      </trkpt>
      <trkpt lat="45.17769" lon="0.67433">
        <ele>116.2</ele>
        <time>2025-06-15T10:08:08Z</time>
      </trkpt>
      <trkpt lat="45.17768" lon="0.67436">
        <ele>116.2</ele>
        <time>2025-06-15T10:08:09Z</time>
      </trkpt>
      <trkpt lat="45.17768" lon="0.67439">
        <ele>116.2</ele>
        <time>2025-06-15T10:08:10Z</time>
      </trkpt>
      <trkpt lat="45.17767" lon="0.67442">
        <ele>116.2</ele>
        <time>2025-06-15T10:08:11Z</time>
      </trkpt>
      <trkpt lat="45.17766" lon="0.67445">
        <ele>116</ele>
        <time>2025-06-15T10:08:12Z</time>
      </trkpt>
      <trkpt lat="45.17766" lon="0.67448">
        <ele>116</ele>
        <time>2025-06-15T10:08:13Z</time>
      </trkpt>
      <trkpt lat="45.17765" lon="0.67451">
        <ele>116</ele>
        <time>2025-06-15T10:08:14Z</time>
      </trkpt>
      <trkpt lat="45.17764" lon="0.67455">
        <ele>116</ele>
        <time>2025-06-15T10:08:15Z</time>
      </trkpt>
      <trkpt lat="45.17763" lon="0.67458">
        <ele>116</ele>
        <time>2025-06-15T10:08:16Z</time>
      </trkpt>
      <trkpt lat="45.17763" lon="0.67461">
        <ele>115.8</ele>
        <time>2025-06-15T10:08:17Z</time>
      </trkpt>
      <trkpt lat="45.17762" lon="0.67464">
        <ele>115.8</ele>
        <time>2025-06-15T10:08:18Z</time>
      </trkpt>
      <trkpt lat="45.17761" lon="0.67468">
        <ele>115.8</ele>
        <time>2025-06-15T10:08:19Z</time>
      </trkpt>
      <trkpt lat="45.1776" lon="0.67471">
        <ele>115.8</ele>
        <time>2025-06-15T10:08:20Z</time>
      </trkpt>
      <trkpt lat="45.1776" lon="0.67474">
        <ele>115.8</ele>
        <time>2025-06-15T10:08:21Z</time>
      </trkpt>
      <trkpt lat="45.17758" lon="0.67477">
        <ele>115.8</ele>
        <time>2025-06-15T10:08:22Z</time>
      </trkpt>
      <trkpt lat="45.17758" lon="0.6748">
        <ele>115.8</ele>
        <time>2025-06-15T10:08:23Z</time>
      </trkpt>
      <trkpt lat="45.17757" lon="0.67483">
        <ele>115.8</ele>
        <time>2025-06-15T10:08:24Z</time>
      </trkpt>
      <trkpt lat="45.17757" lon="0.67486">
        <ele>115.6</ele>
        <time>2025-06-15T10:08:25Z</time>
      </trkpt>
      <trkpt lat="45.17757" lon="0.67489">
        <ele>115.6</ele>
        <time>2025-06-15T10:08:26Z</time>
      </trkpt>
      <trkpt lat="45.17756" lon="0.67491">
        <ele>115.6</ele>
        <time>2025-06-15T10:08:27Z</time>
      </trkpt>
      <trkpt lat="45.17756" lon="0.67494">
        <ele>115.6</ele>
        <time>2025-06-15T10:08:28Z</time>
      </trkpt>
      <trkpt lat="45.17755" lon="0.67496">
        <ele>115.6</ele>
        <time>2025-06-15T10:08:29Z</time>
      </trkpt>
      <trkpt lat="45.17754" lon="0.67498">
        <ele>115.4</ele>
        <time>2025-06-15T10:08:30Z</time>
      </trkpt>
      <trkpt lat="45.17753" lon="0.675">
        <ele>115.4</ele>
        <time>2025-06-15T10:08:31Z</time>
      </trkpt>
      <trkpt lat="45.17753" lon="0.67503">
        <ele>115.2</ele>
        <time>2025-06-15T10:08:32Z</time>
      </trkpt>
      <trkpt lat="45.17752" lon="0.67505">
        <ele>115.2</ele>
        <time>2025-06-15T10:08:33Z</time>
      </trkpt>
      <trkpt lat="45.17751" lon="0.67507">
        <ele>115.2</ele>
        <time>2025-06-15T10:08:34Z</time>
      </trkpt>
      <trkpt lat="45.1775" lon="0.67509">
        <ele>115</ele>
        <time>2025-06-15T10:08:35Z</time>
      </trkpt>
      <trkpt lat="45.17749" lon="0.67511">
        <ele>115</ele>
        <time>2025-06-15T10:08:36Z</time>
      </trkpt>
      <trkpt lat="45.17748" lon="0.67514">
        <ele>115</ele>
        <time>2025-06-15T10:08:37Z</time>
      </trkpt>
      <trkpt lat="45.17747" lon="0.67516">
        <ele>115.2</ele>
        <time>2025-06-15T10:08:38Z</time>
      </trkpt>
      <trkpt lat="45.17747" lon="0.67517">
        <ele>115.2</ele>
        <time>2025-06-15T10:08:39Z</time>
      </trkpt>
      <trkpt lat="45.17746" lon="0.6752">
        <ele>115.2</ele>
        <time>2025-06-15T10:08:40Z</time>
      </trkpt>
      <trkpt lat="45.17745" lon="0.67523">
        <ele>115.2</ele>
        <time>2025-06-15T10:08:41Z</time>
      </trkpt>
      <trkpt lat="45.17745" lon="0.67525">
        <ele>115.2</ele>
        <time>2025-06-15T10:08:42Z</time>
      </trkpt>
      <trkpt lat="45.17744" lon="0.67527">
        <ele>115.4</ele>
        <time>2025-06-15T10:08:43Z</time>
      </trkpt>
      <trkpt lat="45.17744" lon="0.6753">
        <ele>115.4</ele>
        <time>2025-06-15T10:08:44Z</time>
      </trkpt>
      <trkpt lat="45.17744" lon="0.67532">
        <ele>115.4</ele>
        <time>2025-06-15T10:08:45Z</time>
      </trkpt>
      <trkpt lat="45.17744" lon="0.67533">
        <ele>115.4</ele>
        <time>2025-06-15T10:08:46Z</time>
      </trkpt>
      <trkpt lat="45.17743" lon="0.67536">
        <ele>115.4</ele>
        <time>2025-06-15T10:08:47Z</time>
      </trkpt>
      <trkpt lat="45.17743" lon="0.67538">
        <ele>115.6</ele>
        <time>2025-06-15T10:08:48Z</time>
      </trkpt>
      <trkpt lat="45.17743" lon="0.67541">
        <ele>115.6</ele>
        <time>2025-06-15T10:08:49Z</time>
      </trkpt>
      <trkpt lat="45.17743" lon="0.67543">
        <ele>115.6</ele>
        <time>2025-06-15T10:08:50Z</time>
      </trkpt>
      <trkpt lat="45.17743" lon="0.67546">
        <ele>115.6</ele>
        <time>2025-06-15T10:08:51Z</time>
      </trkpt>
      <trkpt lat="45.17743" lon="0.67548">
        <ele>115.8</ele>
        <time>2025-06-15T10:08:52Z</time>
      </trkpt>
      <trkpt lat="45.17742" lon="0.6755">
        <ele>115.8</ele>
        <time>2025-06-15T10:08:53Z</time>
      </trkpt>
      <trkpt lat="45.17742" lon="0.67554">
        <ele>115.8</ele>
        <time>2025-06-15T10:08:54Z</time>
      </trkpt>
      <trkpt lat="45.17742" lon="0.67556">
        <ele>116</ele>
        <time>2025-06-15T10:08:55Z</time>
      </trkpt>
      <trkpt lat="45.17742" lon="0.67558">
        <ele>116</ele>
        <time>2025-06-15T10:08:56Z</time>
      </trkpt>
      <trkpt lat="45.17741" lon="0.6756">
        <ele>116</ele>
        <time>2025-06-15T10:08:57Z</time>
      </trkpt>
      <trkpt lat="45.17741" lon="0.67563">
        <ele>116.2</ele>
        <time>2025-06-15T10:08:58Z</time>
      </trkpt>
      <trkpt lat="45.1774" lon="0.67565">
        <ele>116.2</ele>
        <time>2025-06-15T10:08:59Z</time>
      </trkpt>
      <trkpt lat="45.1774" lon="0.67567">
        <ele>116.4</ele>
        <time>2025-06-15T10:09:00Z</time>
      </trkpt>
      <trkpt lat="45.1774" lon="0.6757">
        <ele>116.4</ele>
        <time>2025-06-15T10:09:01Z</time>
      </trkpt>
      <trkpt lat="45.17739" lon="0.67572">
        <ele>116.6</ele>
        <time>2025-06-15T10:09:02Z</time>
      </trkpt>
      <trkpt lat="45.17739" lon="0.67574">
        <ele>116.6</ele>
        <time>2025-06-15T10:09:03Z</time>
      </trkpt>
      <trkpt lat="45.17738" lon="0.67575">
        <ele>116.6</ele>
        <time>2025-06-15T10:09:04Z</time>
      </trkpt>
      <trkpt lat="45.17738" lon="0.67577">
        <ele>116.8</ele>
        <time>2025-06-15T10:09:05Z</time>
      </trkpt>
      <trkpt lat="45.17738" lon="0.67579">
        <ele>116.8</ele>
        <time>2025-06-15T10:09:06Z</time>
      </trkpt>
      <trkpt lat="45.17738" lon="0.67581">
        <ele>116.8</ele>
        <time>2025-06-15T10:09:07Z</time>
      </trkpt>
      <trkpt lat="45.17737" lon="0.67582">
        <ele>116.8</ele>
        <time>2025-06-15T10:09:08Z</time>
      </trkpt>
      <trkpt lat="45.17737" lon="0.67584">
        <ele>117</ele>
        <time>2025-06-15T10:09:09Z</time>
      </trkpt>
      <trkpt lat="45.17737" lon="0.67586">
        <ele>117</ele>
        <time>2025-06-15T10:09:10Z</time>
      </trkpt>
      <trkpt lat="45.17737" lon="0.67588">
        <ele>117</ele>
        <time>2025-06-15T10:09:11Z</time>
      </trkpt>
      <trkpt lat="45.17737" lon="0.67589">
        <ele>117</ele>
        <time>2025-06-15T10:09:12Z</time>
      </trkpt>
      <trkpt lat="45.17737" lon="0.67591">
        <ele>117.2</ele>
        <time>2025-06-15T10:09:13Z</time>
      </trkpt>
      <trkpt lat="45.17737" lon="0.67593">
        <ele>117.2</ele>
        <time>2025-06-15T10:09:14Z</time>
      </trkpt>
      <trkpt lat="45.17737" lon="0.67595">
        <ele>117.2</ele>
        <time>2025-06-15T10:09:15Z</time>
      </trkpt>
      <trkpt lat="45.17737" lon="0.67596">
        <ele>117.4</ele>
        <time>2025-06-15T10:09:16Z</time>
      </trkpt>
      <trkpt lat="45.17737" lon="0.67598">
        <ele>117.4</ele>
        <time>2025-06-15T10:09:17Z</time>
      </trkpt>
      <trkpt lat="45.17737" lon="0.676">
        <ele>117.4</ele>
        <time>2025-06-15T10:09:18Z</time>
      </trkpt>
      <trkpt lat="45.17737" lon="0.67602">
        <ele>117.6</ele>
        <time>2025-06-15T10:09:19Z</time>
      </trkpt>
      <trkpt lat="45.17737" lon="0.67604">
        <ele>117.6</ele>
        <time>2025-06-15T10:09:20Z</time>
      </trkpt>
      <trkpt lat="45.17737" lon="0.67607">
        <ele>117.6</ele>
        <time>2025-06-15T10:09:21Z</time>
      </trkpt>
      <trkpt lat="45.17738" lon="0.67609">
        <ele>117.8</ele>
        <time>2025-06-15T10:09:22Z</time>
      </trkpt>
      <trkpt lat="45.17738" lon="0.6761">
        <ele>117.8</ele>
        <time>2025-06-15T10:09:23Z</time>
      </trkpt>
      <trkpt lat="45.17738" lon="0.67612">
        <ele>117.8</ele>
        <time>2025-06-15T10:09:24Z</time>
      </trkpt>
      <trkpt lat="45.17738" lon="0.67613">
        <ele>118</ele>
        <time>2025-06-15T10:09:25Z</time>
      </trkpt>
      <trkpt lat="45.17739" lon="0.67615">
        <ele>118</ele>
        <time>2025-06-15T10:09:26Z</time>
      </trkpt>
      <trkpt lat="45.17739" lon="0.67617">
        <ele>118.2</ele>
        <time>2025-06-15T10:09:27Z</time>
      </trkpt>
      <trkpt lat="45.17739" lon="0.67619">
        <ele>118.2</ele>
        <time>2025-06-15T10:09:28Z</time>
      </trkpt>
      <trkpt lat="45.1774" lon="0.67621">
        <ele>118.4</ele>
        <time>2025-06-15T10:09:29Z</time>
      </trkpt>
      <trkpt lat="45.1774" lon="0.67623">
        <ele>118.4</ele>
        <time>2025-06-15T10:09:30Z</time>
      </trkpt>
      <trkpt lat="45.17741" lon="0.67625">
        <ele>118.4</ele>
        <time>2025-06-15T10:09:31Z</time>
      </trkpt>
      <trkpt lat="45.17741" lon="0.67627">
        <ele>118.6</ele>
        <time>2025-06-15T10:09:32Z</time>
      </trkpt>
      <trkpt lat="45.17741" lon="0.67628">
        <ele>118.6</ele>
        <time>2025-06-15T10:09:33Z</time>
      </trkpt>
      <trkpt lat="45.17741" lon="0.6763">
        <ele>118.8</ele>
        <time>2025-06-15T10:09:34Z</time>
      </trkpt>
      <trkpt lat="45.17741" lon="0.67631">
        <ele>118.8</ele>
        <time>2025-06-15T10:09:35Z</time>
      </trkpt>
      <trkpt lat="45.17741" lon="0.67632">
        <ele>118.8</ele>
        <time>2025-06-15T10:09:36Z</time>
      </trkpt>
      <trkpt lat="45.17742" lon="0.67633">
        <ele>119</ele>
        <time>2025-06-15T10:09:37Z</time>
      </trkpt>
      <trkpt lat="45.17741" lon="0.67635">
        <ele>119.2</ele>
        <time>2025-06-15T10:09:38Z</time>
      </trkpt>
      <trkpt lat="45.17742" lon="0.67636">
        <ele>119.2</ele>
        <time>2025-06-15T10:09:39Z</time>
      </trkpt>
      <trkpt lat="45.17742" lon="0.67638">
        <ele>119.4</ele>
        <time>2025-06-15T10:09:40Z</time>
      </trkpt>
      <trkpt lat="45.17742" lon="0.67639">
        <ele>119.4</ele>
        <time>2025-06-15T10:09:41Z</time>
      </trkpt>
      <trkpt lat="45.17742" lon="0.6764">
        <ele>119.4</ele>
        <time>2025-06-15T10:09:42Z</time>
      </trkpt>
      <trkpt lat="45.17742" lon="0.67642">
        <ele>119.6</ele>
        <time>2025-06-15T10:09:43Z</time>
      </trkpt>
      <trkpt lat="45.17742" lon="0.67644">
        <ele>119.8</ele>
        <time>2025-06-15T10:09:44Z</time>
      </trkpt>
      <trkpt lat="45.17742" lon="0.67645">
        <ele>119.8</ele>
        <time>2025-06-15T10:09:45Z</time>
      </trkpt>
      <trkpt lat="45.17742" lon="0.67647">
        <ele>120</ele>
        <time>2025-06-15T10:09:46Z</time>
      </trkpt>
      <trkpt lat="45.17743" lon="0.67648">
        <ele>120</ele>
        <time>2025-06-15T10:09:47Z</time>
      </trkpt>
      <trkpt lat="45.17743" lon="0.6765">
        <ele>120.2</ele>
        <time>2025-06-15T10:09:48Z</time>
      </trkpt>
      <trkpt lat="45.17743" lon="0.67651">
        <ele>120.2</ele>
        <time>2025-06-15T10:09:49Z</time>
      </trkpt>
      <trkpt lat="45.17744" lon="0.67653">
        <ele>120.4</ele>
        <time>2025-06-15T10:09:50Z</time>
      </trkpt>
      <trkpt lat="45.17744" lon="0.67654">
        <ele>120.6</ele>
        <time>2025-06-15T10:09:51Z</time>
      </trkpt>
      <trkpt lat="45.17745" lon="0.67655">
        <ele>120.6</ele>
        <time>2025-06-15T10:09:52Z</time>
      </trkpt>
      <trkpt lat="45.17745" lon="0.67658">
        <ele>120.8</ele>
        <time>2025-06-15T10:09:53Z</time>
      </trkpt>
      <trkpt lat="45.17745" lon="0.67659">
        <ele>121</ele>
        <time>2025-06-15T10:09:54Z</time>
      </trkpt>
      <trkpt lat="45.17745" lon="0.6766">
        <ele>121</ele>
        <time>2025-06-15T10:09:55Z</time>
      </trkpt>
      <trkpt lat="45.17746" lon="0.67662">
        <ele>121.2</ele>
        <time>2025-06-15T10:09:56Z</time>
      </trkpt>
      <trkpt lat="45.17746" lon="0.67664">
        <ele>121.4</ele>
        <time>2025-06-15T10:09:57Z</time>
      </trkpt>
      <trkpt lat="45.17747" lon="0.67665">
        <ele>121.4</ele>
        <time>2025-06-15T10:09:58Z</time>
      </trkpt>
      <trkpt lat="45.17747" lon="0.67666">
        <ele>121.6</ele>
        <time>2025-06-15T10:09:59Z</time>
      </trkpt>
      <trkpt lat="45.17747" lon="0.67667">
        <ele>121.8</ele>
        <time>2025-06-15T10:10:00Z</time>
      </trkpt>
      <trkpt lat="45.17747" lon="0.67668">
        <ele>122</ele>
        <time>2025-06-15T10:10:01Z</time>
      </trkpt>
      <trkpt lat="45.17747" lon="0.6767">
        <ele>122</ele>
        <time>2025-06-15T10:10:02Z</time>
      </trkpt>
      <trkpt lat="45.17748" lon="0.67671">
        <ele>122.2</ele>
        <time>2025-06-15T10:10:03Z</time>
      </trkpt>
      <trkpt lat="45.17748" lon="0.67672">
        <ele>122.2</ele>
        <time>2025-06-15T10:10:04Z</time>
      </trkpt>
      <trkpt lat="45.17749" lon="0.67674">
        <ele>122.4</ele>
        <time>2025-06-15T10:10:05Z</time>
      </trkpt>
      <trkpt lat="45.1775" lon="0.67675">
        <ele>122.4</ele>
        <time>2025-06-15T10:10:06Z</time>
      </trkpt>
      <trkpt lat="45.1775" lon="0.67677">
        <ele>122.6</ele>
        <time>2025-06-15T10:10:07Z</time>
      </trkpt>
      <trkpt lat="45.1775" lon="0.67678">
        <ele>122.8</ele>
        <time>2025-06-15T10:10:08Z</time>
      </trkpt>
      <trkpt lat="45.17751" lon="0.6768">
        <ele>122.8</ele>
        <time>2025-06-15T10:10:09Z</time>
      </trkpt>
      <trkpt lat="45.17751" lon="0.67681">
        <ele>123</ele>
        <time>2025-06-15T10:10:10Z</time>
      </trkpt>
      <trkpt lat="45.17752" lon="0.67683">
        <ele>123.2</ele>
        <time>2025-06-15T10:10:11Z</time>
      </trkpt>
      <trkpt lat="45.17752" lon="0.67685">
        <ele>123.2</ele>
        <time>2025-06-15T10:10:12Z</time>
      </trkpt>
      <trkpt lat="45.17753" lon="0.67686">
        <ele>123.4</ele>
        <time>2025-06-15T10:10:13Z</time>
      </trkpt>
      <trkpt lat="45.17753" lon="0.67688">
        <ele>123.4</ele>
        <time>2025-06-15T10:10:14Z</time>
      </trkpt>
      <trkpt lat="45.17754" lon="0.6769">
        <ele>123.6</ele>
        <time>2025-06-15T10:10:15Z</time>
      </trkpt>
      <trkpt lat="45.17754" lon="0.67692">
        <ele>123.6</ele>
        <time>2025-06-15T10:10:16Z</time>
      </trkpt>
      <trkpt lat="45.17755" lon="0.67695">
        <ele>123.8</ele>
        <time>2025-06-15T10:10:17Z</time>
      </trkpt>
      <trkpt lat="45.17755" lon="0.67696">
        <ele>124</ele>
        <time>2025-06-15T10:10:18Z</time>
      </trkpt>
      <trkpt lat="45.17755" lon="0.67698">
        <ele>124</ele>
        <time>2025-06-15T10:10:19Z</time>
      </trkpt>
      <trkpt lat="45.17756" lon="0.677">
        <ele>124.2</ele>
        <time>2025-06-15T10:10:20Z</time>
      </trkpt>
      <trkpt lat="45.17756" lon="0.67702">
        <ele>124.2</ele>
        <time>2025-06-15T10:10:21Z</time>
      </trkpt>
      <trkpt lat="45.17756" lon="0.67704">
        <ele>124.4</ele>
        <time>2025-06-15T10:10:22Z</time>
      </trkpt>
      <trkpt lat="45.17756" lon="0.67706">
        <ele>124.6</ele>
        <time>2025-06-15T10:10:23Z</time>
      </trkpt>
      <trkpt lat="45.17756" lon="0.67708">
        <ele>124.8</ele>
        <time>2025-06-15T10:10:24Z</time>
      </trkpt>
      <trkpt lat="45.17757" lon="0.67709">
        <ele>124.8</ele>
        <time>2025-06-15T10:10:25Z</time>
      </trkpt>
      <trkpt lat="45.17757" lon="0.67711">
        <ele>125</ele>
        <time>2025-06-15T10:10:26Z</time>
      </trkpt>
      <trkpt lat="45.17757" lon="0.67713">
        <ele>125</ele>
        <time>2025-06-15T10:10:27Z</time>
      </trkpt>
      <trkpt lat="45.17757" lon="0.67715">
        <ele>125.2</ele>
        <time>2025-06-15T10:10:28Z</time>
      </trkpt>
      <trkpt lat="45.17756" lon="0.67717">
        <ele>125.4</ele>
        <time>2025-06-15T10:10:29Z</time>
      </trkpt>
      <trkpt lat="45.17756" lon="0.67718">
        <ele>125.4</ele>
        <time>2025-06-15T10:10:30Z</time>
      </trkpt>
      <trkpt lat="45.17756" lon="0.6772">
        <ele>125.6</ele>
        <time>2025-06-15T10:10:31Z</time>
      </trkpt>
      <trkpt lat="45.17755" lon="0.67721">
        <ele>125.8</ele>
        <time>2025-06-15T10:10:32Z</time>
      </trkpt>
      <trkpt lat="45.17755" lon="0.67723">
        <ele>125.8</ele>
        <time>2025-06-15T10:10:33Z</time>
      </trkpt>
      <trkpt lat="45.17754" lon="0.67725">
        <ele>126</ele>
        <time>2025-06-15T10:10:34Z</time>
      </trkpt>
      <trkpt lat="45.17754" lon="0.67727">
        <ele>126</ele>
        <time>2025-06-15T10:10:35Z</time>
      </trkpt>
      <trkpt lat="45.17753" lon="0.67729">
        <ele>126.2</ele>
        <time>2025-06-15T10:10:36Z</time>
      </trkpt>
      <trkpt lat="45.17752" lon="0.6773">
        <ele>126.2</ele>
        <time>2025-06-15T10:10:37Z</time>
      </trkpt>
      <trkpt lat="45.17751" lon="0.67732">
        <ele>126.4</ele>
        <time>2025-06-15T10:10:38Z</time>
      </trkpt>
      <trkpt lat="45.17751" lon="0.67734">
        <ele>126.6</ele>
        <time>2025-06-15T10:10:39Z</time>
      </trkpt>
      <trkpt lat="45.1775" lon="0.67736">
        <ele>126.6</ele>
        <time>2025-06-15T10:10:40Z</time>
      </trkpt>
      <trkpt lat="45.17749" lon="0.67737">
        <ele>126.8</ele>
        <time>2025-06-15T10:10:41Z</time>
      </trkpt>
      <trkpt lat="45.17749" lon="0.67738">
        <ele>126.8</ele>
        <time>2025-06-15T10:10:42Z</time>
      </trkpt>
      <trkpt lat="45.17749" lon="0.6774">
        <ele>127</ele>
        <time>2025-06-15T10:10:43Z</time>
      </trkpt>
      <trkpt lat="45.17748" lon="0.67742">
        <ele>127</ele>
        <time>2025-06-15T10:10:44Z</time>
      </trkpt>
      <trkpt lat="45.17747" lon="0.67743">
        <ele>127.2</ele>
        <time>2025-06-15T10:10:45Z</time>
      </trkpt>
      <trkpt lat="45.17746" lon="0.67745">
        <ele>127.4</ele>
        <time>2025-06-15T10:10:46Z</time>
      </trkpt>
      <trkpt lat="45.17746" lon="0.67746">
        <ele>127.4</ele>
        <time>2025-06-15T10:10:47Z</time>
      </trkpt>
      <trkpt lat="45.17745" lon="0.67748">
        <ele>127.6</ele>
        <time>2025-06-15T10:10:48Z</time>
      </trkpt>
      <trkpt lat="45.17745" lon="0.67749">
        <ele>127.6</ele>
        <time>2025-06-15T10:10:49Z</time>
      </trkpt>
      <trkpt lat="45.17744" lon="0.67751">
        <ele>127.8</ele>
        <time>2025-06-15T10:10:50Z</time>
      </trkpt>
      <trkpt lat="45.17744" lon="0.67752">
        <ele>128</ele>
        <time>2025-06-15T10:10:51Z</time>
      </trkpt>
      <trkpt lat="45.17743" lon="0.67754">
        <ele>128.2</ele>
        <time>2025-06-15T10:10:52Z</time>
      </trkpt>
      <trkpt lat="45.17743" lon="0.67756">
        <ele>128.2</ele>
        <time>2025-06-15T10:10:53Z</time>
      </trkpt>
      <trkpt lat="45.17742" lon="0.67757">
        <ele>128.4</ele>
        <time>2025-06-15T10:10:54Z</time>
      </trkpt>
      <trkpt lat="45.17742" lon="0.67758">
        <ele>128.4</ele>
        <time>2025-06-15T10:10:55Z</time>
      </trkpt>
      <trkpt lat="45.17741" lon="0.67759">
        <ele>128.6</ele>
        <time>2025-06-15T10:10:56Z</time>
      </trkpt>
      <trkpt lat="45.17741" lon="0.6776">
        <ele>128.8</ele>
        <time>2025-06-15T10:10:57Z</time>
      </trkpt>
      <trkpt lat="45.17741" lon="0.67762">
        <ele>128.8</ele>
        <time>2025-06-15T10:10:58Z</time>
      </trkpt>
      <trkpt lat="45.1774" lon="0.67763">
        <ele>129</ele>
        <time>2025-06-15T10:10:59Z</time>
      </trkpt>
      <trkpt lat="45.1774" lon="0.67765">
        <ele>129</ele>
        <time>2025-06-15T10:11:00Z</time>
      </trkpt>
      <trkpt lat="45.17739" lon="0.67767">
        <ele>129.2</ele>
        <time>2025-06-15T10:11:01Z</time>
      </trkpt>
      <trkpt lat="45.17739" lon="0.67769">
        <ele>129.4</ele>
        <time>2025-06-15T10:11:02Z</time>
      </trkpt>
      <trkpt lat="45.17739" lon="0.67771">
        <ele>129.6</ele>
        <time>2025-06-15T10:11:03Z</time>
      </trkpt>
      <trkpt lat="45.17739" lon="0.67773">
        <ele>129.6</ele>
        <time>2025-06-15T10:11:04Z</time>
      </trkpt>
      <trkpt lat="45.17739" lon="0.67775">
        <ele>129.6</ele>
        <time>2025-06-15T10:11:05Z</time>
      </trkpt>
      <trkpt lat="45.17739" lon="0.67778">
        <ele>129.8</ele>
        <time>2025-06-15T10:11:06Z</time>
      </trkpt>
      <trkpt lat="45.17739" lon="0.67781">
        <ele>130</ele>
        <time>2025-06-15T10:11:07Z</time>
      </trkpt>
      <trkpt lat="45.17739" lon="0.67783">
        <ele>130</ele>
        <time>2025-06-15T10:11:08Z</time>
      </trkpt>
      <trkpt lat="45.1774" lon="0.67785">
        <ele>130</ele>
        <time>2025-06-15T10:11:09Z</time>
      </trkpt>
      <trkpt lat="45.1774" lon="0.67787">
        <ele>130.2</ele>
        <time>2025-06-15T10:11:10Z</time>
      </trkpt>
      <trkpt lat="45.17741" lon="0.67789">
        <ele>130</ele>
        <time>2025-06-15T10:11:11Z</time>
      </trkpt>
      <trkpt lat="45.17741" lon="0.67792">
        <ele>130</ele>
        <time>2025-06-15T10:11:12Z</time>
      </trkpt>
      <trkpt lat="45.17742" lon="0.67794">
        <ele>130</ele>
        <time>2025-06-15T10:11:13Z</time>
      </trkpt>
      <trkpt lat="45.17743" lon="0.67796">
        <ele>130</ele>
        <time>2025-06-15T10:11:14Z</time>
      </trkpt>
      <trkpt lat="45.17743" lon="0.67799">
        <ele>129.8</ele>
        <time>2025-06-15T10:11:15Z</time>
      </trkpt>
      <trkpt lat="45.17743" lon="0.67801">
        <ele>129.6</ele>
        <time>2025-06-15T10:11:16Z</time>
      </trkpt>
      <trkpt lat="45.17744" lon="0.67804">
        <ele>129.4</ele>
        <time>2025-06-15T10:11:17Z</time>
      </trkpt>
      <trkpt lat="45.17744" lon="0.67806">
        <ele>129.2</ele>
        <time>2025-06-15T10:11:18Z</time>
      </trkpt>
      <trkpt lat="45.17744" lon="0.67807">
        <ele>129</ele>
        <time>2025-06-15T10:11:19Z</time>
      </trkpt>
      <trkpt lat="45.17745" lon="0.67809">
        <ele>128.8</ele>
        <time>2025-06-15T10:11:20Z</time>
      </trkpt>
      <trkpt lat="45.17745" lon="0.67812">
        <ele>128.6</ele>
        <time>2025-06-15T10:11:21Z</time>
      </trkpt>
      <trkpt lat="45.17746" lon="0.67814">
        <ele>128.4</ele>
        <time>2025-06-15T10:11:22Z</time>
      </trkpt>
      <trkpt lat="45.17746" lon="0.67816">
        <ele>128.2</ele>
        <time>2025-06-15T10:11:23Z</time>
      </trkpt>
      <trkpt lat="45.17746" lon="0.67818">
        <ele>128</ele>
        <time>2025-06-15T10:11:24Z</time>
      </trkpt>
      <trkpt lat="45.17747" lon="0.6782">
        <ele>128</ele>
        <time>2025-06-15T10:11:25Z</time>
      </trkpt>
      <trkpt lat="45.17747" lon="0.67823">
        <ele>127.8</ele>
        <time>2025-06-15T10:11:26Z</time>
      </trkpt>
      <trkpt lat="45.17748" lon="0.67825">
        <ele>127.6</ele>
        <time>2025-06-15T10:11:27Z</time>
      </trkpt>
      <trkpt lat="45.17748" lon="0.67827">
        <ele>127.4</ele>
        <time>2025-06-15T10:11:28Z</time>
      </trkpt>
      <trkpt lat="45.17749" lon="0.67829">
        <ele>127.2</ele>
        <time>2025-06-15T10:11:29Z</time>
      </trkpt>
      <trkpt lat="45.1775" lon="0.67831">
        <ele>127.2</ele>
        <time>2025-06-15T10:11:30Z</time>
      </trkpt>
      <trkpt lat="45.1775" lon="0.67834">
        <ele>127</ele>
        <time>2025-06-15T10:11:31Z</time>
      </trkpt>
      <trkpt lat="45.17751" lon="0.67836">
        <ele>126.8</ele>
        <time>2025-06-15T10:11:32Z</time>
      </trkpt>
      <trkpt lat="45.17751" lon="0.67839">
        <ele>126.6</ele>
        <time>2025-06-15T10:11:33Z</time>
      </trkpt>
      <trkpt lat="45.17752" lon="0.67841">
        <ele>126.4</ele>
        <time>2025-06-15T10:11:34Z</time>
      </trkpt>
      <trkpt lat="45.17752" lon="0.67843">
        <ele>126.4</ele>
        <time>2025-06-15T10:11:35Z</time>
      </trkpt>
      <trkpt lat="45.17752" lon="0.67845">
        <ele>126.2</ele>
        <time>2025-06-15T10:11:36Z</time>
      </trkpt>
      <trkpt lat="45.17753" lon="0.67848">
        <ele>126</ele>
        <time>2025-06-15T10:11:37Z</time>
      </trkpt>
      <trkpt lat="45.17753" lon="0.6785">
        <ele>125.8</ele>
        <time>2025-06-15T10:11:38Z</time>
      </trkpt>
      <trkpt lat="45.17754" lon="0.67852">
        <ele>125.6</ele>
        <time>2025-06-15T10:11:39Z</time>
      </trkpt>
      <trkpt lat="45.17754" lon="0.67855">
        <ele>125.4</ele>
        <time>2025-06-15T10:11:40Z</time>
      </trkpt>
      <trkpt lat="45.17754" lon="0.67857">
        <ele>125.2</ele>
        <time>2025-06-15T10:11:41Z</time>
      </trkpt>
      <trkpt lat="45.17755" lon="0.67859">
        <ele>125.2</ele>
        <time>2025-06-15T10:11:42Z</time>
      </trkpt>
      <trkpt lat="45.17755" lon="0.67861">
        <ele>125</ele>
        <time>2025-06-15T10:11:43Z</time>
      </trkpt>
      <trkpt lat="45.17755" lon="0.67863">
        <ele>124.8</ele>
        <time>2025-06-15T10:11:44Z</time>
      </trkpt>
      <trkpt lat="45.17756" lon="0.67865">
        <ele>124.6</ele>
        <time>2025-06-15T10:11:45Z</time>
      </trkpt>
      <trkpt lat="45.17756" lon="0.67868">
        <ele>124.6</ele>
        <time>2025-06-15T10:11:46Z</time>
      </trkpt>
      <trkpt lat="45.17756" lon="0.67871">
        <ele>124.4</ele>
        <time>2025-06-15T10:11:47Z</time>
      </trkpt>
      <trkpt lat="45.17756" lon="0.67873">
        <ele>124.4</ele>
        <time>2025-06-15T10:11:48Z</time>
      </trkpt>
      <trkpt lat="45.17756" lon="0.67876">
        <ele>124.2</ele>
        <time>2025-06-15T10:11:49Z</time>
      </trkpt>
      <trkpt lat="45.17757" lon="0.67878">
        <ele>124</ele>
        <time>2025-06-15T10:11:50Z</time>
      </trkpt>
      <trkpt lat="45.17757" lon="0.67881">
        <ele>123.8</ele>
        <time>2025-06-15T10:11:51Z</time>
      </trkpt>
      <trkpt lat="45.17757" lon="0.67883">
        <ele>123.8</ele>
        <time>2025-06-15T10:11:52Z</time>
      </trkpt>
      <trkpt lat="45.17757" lon="0.67886">
        <ele>123.6</ele>
        <time>2025-06-15T10:11:53Z</time>
      </trkpt>
      <trkpt lat="45.17757" lon="0.67888">
        <ele>123.6</ele>
        <time>2025-06-15T10:11:54Z</time>
      </trkpt>
      <trkpt lat="45.17757" lon="0.6789">
        <ele>123.4</ele>
        <time>2025-06-15T10:11:55Z</time>
      </trkpt>
      <trkpt lat="45.17758" lon="0.67892">
        <ele>123.2</ele>
        <time>2025-06-15T10:11:56Z</time>
      </trkpt>
      <trkpt lat="45.17758" lon="0.67894">
        <ele>123.2</ele>
        <time>2025-06-15T10:11:57Z</time>
      </trkpt>
      <trkpt lat="45.17758" lon="0.67896">
        <ele>123.2</ele>
        <time>2025-06-15T10:11:58Z</time>
      </trkpt>
      <trkpt lat="45.17758" lon="0.67899">
        <ele>123.2</ele>
        <time>2025-06-15T10:11:59Z</time>
      </trkpt>
      <trkpt lat="45.17758" lon="0.67901">
        <ele>123.2</ele>
        <time>2025-06-15T10:12:00Z</time>
      </trkpt>
      <trkpt lat="45.17758" lon="0.67904">
        <ele>123.2</ele>
        <time>2025-06-15T10:12:01Z</time>
      </trkpt>
      <trkpt lat="45.17758" lon="0.67906">
        <ele>123.2</ele>
        <time>2025-06-15T10:12:02Z</time>
      </trkpt>
      <trkpt lat="45.17759" lon="0.67909">
        <ele>123.2</ele>
        <time>2025-06-15T10:12:03Z</time>
      </trkpt>
      <trkpt lat="45.17759" lon="0.67911">
        <ele>123.2</ele>
        <time>2025-06-15T10:12:04Z</time>
      </trkpt>
      <trkpt lat="45.17759" lon="0.67914">
        <ele>123.4</ele>
        <time>2025-06-15T10:12:05Z</time>
      </trkpt>
      <trkpt lat="45.17759" lon="0.67916">
        <ele>123.4</ele>
        <time>2025-06-15T10:12:06Z</time>
      </trkpt>
      <trkpt lat="45.17759" lon="0.67918">
        <ele>123.2</ele>
        <time>2025-06-15T10:12:07Z</time>
      </trkpt>
      <trkpt lat="45.17759" lon="0.67921">
        <ele>123.4</ele>
        <time>2025-06-15T10:12:08Z</time>
      </trkpt>
      <trkpt lat="45.17759" lon="0.67923">
        <ele>123.4</ele>
        <time>2025-06-15T10:12:09Z</time>
      </trkpt>
      <trkpt lat="45.1776" lon="0.67926">
        <ele>123.4</ele>
        <time>2025-06-15T10:12:10Z</time>
      </trkpt>
      <trkpt lat="45.1776" lon="0.67928">
        <ele>123.4</ele>
        <time>2025-06-15T10:12:11Z</time>
      </trkpt>
      <trkpt lat="45.1776" lon="0.67931">
        <ele>123.4</ele>
        <time>2025-06-15T10:12:12Z</time>
      </trkpt>
      <trkpt lat="45.1776" lon="0.67933">
        <ele>123.2</ele>
        <time>2025-06-15T10:12:13Z</time>
      </trkpt>
      <trkpt lat="45.1776" lon="0.67935">
        <ele>123.2</ele>
        <time>2025-06-15T10:12:14Z</time>
      </trkpt>
      <trkpt lat="45.17761" lon="0.67938">
        <ele>123.2</ele>
        <time>2025-06-15T10:12:15Z</time>
      </trkpt>
      <trkpt lat="45.17761" lon="0.6794">
        <ele>123</ele>
        <time>2025-06-15T10:12:16Z</time>
      </trkpt>
      <trkpt lat="45.17761" lon="0.67943">
        <ele>122.8</ele>
        <time>2025-06-15T10:12:17Z</time>
      </trkpt>
      <trkpt lat="45.17761" lon="0.67945">
        <ele>122.6</ele>
        <time>2025-06-15T10:12:18Z</time>
      </trkpt>
      <trkpt lat="45.17761" lon="0.67947">
        <ele>122.6</ele>
        <time>2025-06-15T10:12:19Z</time>
      </trkpt>
      <trkpt lat="45.17762" lon="0.67949">
        <ele>122.2</ele>
        <time>2025-06-15T10:12:20Z</time>
      </trkpt>
      <trkpt lat="45.17762" lon="0.67951">
        <ele>122</ele>
        <time>2025-06-15T10:12:21Z</time>
      </trkpt>
      <trkpt lat="45.17763" lon="0.67954">
        <ele>121.8</ele>
        <time>2025-06-15T10:12:22Z</time>
      </trkpt>
      <trkpt lat="45.17763" lon="0.67956">
        <ele>121.6</ele>
        <time>2025-06-15T10:12:23Z</time>
      </trkpt>
      <trkpt lat="45.17763" lon="0.67959">
        <ele>121.4</ele>
        <time>2025-06-15T10:12:24Z</time>
      </trkpt>
      <trkpt lat="45.17763" lon="0.6796">
        <ele>121.2</ele>
        <time>2025-06-15T10:12:25Z</time>
      </trkpt>
      <trkpt lat="45.17763" lon="0.67963">
        <ele>121</ele>
        <time>2025-06-15T10:12:26Z</time>
      </trkpt>
      <trkpt lat="45.17763" lon="0.67964">
        <ele>120.8</ele>
        <time>2025-06-15T10:12:27Z</time>
      </trkpt>
      <trkpt lat="45.17764" lon="0.67967">
        <ele>120.4</ele>
        <time>2025-06-15T10:12:28Z</time>
      </trkpt>
      <trkpt lat="45.17764" lon="0.6797">
        <ele>120.2</ele>
        <time>2025-06-15T10:12:29Z</time>
      </trkpt>
      <trkpt lat="45.17764" lon="0.67972">
        <ele>120</ele>
        <time>2025-06-15T10:12:30Z</time>
      </trkpt>
      <trkpt lat="45.17765" lon="0.67975">
        <ele>119.8</ele>
        <time>2025-06-15T10:12:31Z</time>
      </trkpt>
      <trkpt lat="45.17765" lon="0.67977">
        <ele>119.4</ele>
        <time>2025-06-15T10:12:32Z</time>
      </trkpt>
      <trkpt lat="45.17766" lon="0.6798">
        <ele>119.2</ele>
        <time>2025-06-15T10:12:33Z</time>
      </trkpt>
      <trkpt lat="45.17766" lon="0.67982">
        <ele>119</ele>
        <time>2025-06-15T10:12:34Z</time>
      </trkpt>
      <trkpt lat="45.17766" lon="0.67984">
        <ele>118.8</ele>
        <time>2025-06-15T10:12:35Z</time>
      </trkpt>
      <trkpt lat="45.17767" lon="0.67986">
        <ele>118.4</ele>
        <time>2025-06-15T10:12:36Z</time>
      </trkpt>
      <trkpt lat="45.17767" lon="0.67989">
        <ele>118.2</ele>
        <time>2025-06-15T10:12:37Z</time>
      </trkpt>
      <trkpt lat="45.17767" lon="0.67991">
        <ele>118</ele>
        <time>2025-06-15T10:12:38Z</time>
      </trkpt>
      <trkpt lat="45.17767" lon="0.67994">
        <ele>118</ele>
        <time>2025-06-15T10:12:39Z</time>
      </trkpt>
      <trkpt lat="45.17767" lon="0.67996">
        <ele>117.8</ele>
        <time>2025-06-15T10:12:40Z</time>
      </trkpt>
      <trkpt lat="45.17767" lon="0.67999">
        <ele>117.6</ele>
        <time>2025-06-15T10:12:41Z</time>
      </trkpt>
      <trkpt lat="45.17767" lon="0.68001">
        <ele>117.4</ele>
        <time>2025-06-15T10:12:42Z</time>
      </trkpt>
      <trkpt lat="45.17768" lon="0.68004">
        <ele>117.2</ele>
        <time>2025-06-15T10:12:43Z</time>
      </trkpt>
      <trkpt lat="45.17768" lon="0.68006">
        <ele>117</ele>
        <time>2025-06-15T10:12:44Z</time>
      </trkpt>
      <trkpt lat="45.17768" lon="0.68009">
        <ele>116.6</ele>
        <time>2025-06-15T10:12:45Z</time>
      </trkpt>
      <trkpt lat="45.17768" lon="0.68012">
        <ele>116.4</ele>
        <time>2025-06-15T10:12:46Z</time>
      </trkpt>
      <trkpt lat="45.17768" lon="0.68014">
        <ele>116.2</ele>
        <time>2025-06-15T10:12:47Z</time>
      </trkpt>
      <trkpt lat="45.17769" lon="0.68017">
        <ele>116</ele>
        <time>2025-06-15T10:12:48Z</time>
      </trkpt>
      <trkpt lat="45.17769" lon="0.68019">
        <ele>116</ele>
        <time>2025-06-15T10:12:49Z</time>
      </trkpt>
      <trkpt lat="45.17769" lon="0.68022">
        <ele>115.8</ele>
        <time>2025-06-15T10:12:50Z</time>
      </trkpt>
      <trkpt lat="45.17769" lon="0.68024">
        <ele>115.6</ele>
        <time>2025-06-15T10:12:51Z</time>
      </trkpt>
      <trkpt lat="45.17768" lon="0.68026">
        <ele>115.2</ele>
        <time>2025-06-15T10:12:52Z</time>
      </trkpt>
      <trkpt lat="45.17769" lon="0.68028">
        <ele>115</ele>
        <time>2025-06-15T10:12:53Z</time>
      </trkpt>
      <trkpt lat="45.17769" lon="0.68031">
        <ele>114.8</ele>
        <time>2025-06-15T10:12:54Z</time>
      </trkpt>
      <trkpt lat="45.17769" lon="0.68033">
        <ele>114.2</ele>
        <time>2025-06-15T10:12:55Z</time>
      </trkpt>
      <trkpt lat="45.17769" lon="0.68036">
        <ele>113.6</ele>
        <time>2025-06-15T10:12:56Z</time>
      </trkpt>
      <trkpt lat="45.1777" lon="0.68039">
        <ele>113.2</ele>
        <time>2025-06-15T10:12:57Z</time>
      </trkpt>
      <trkpt lat="45.1777" lon="0.68041">
        <ele>112.8</ele>
        <time>2025-06-15T10:12:58Z</time>
      </trkpt>
      <trkpt lat="45.1777" lon="0.68044">
        <ele>112.6</ele>
        <time>2025-06-15T10:12:59Z</time>
      </trkpt>
      <trkpt lat="45.17771" lon="0.68046">
        <ele>112.2</ele>
        <time>2025-06-15T10:13:00Z</time>
      </trkpt>
      <trkpt lat="45.17771" lon="0.68049">
        <ele>112</ele>
        <time>2025-06-15T10:13:01Z</time>
      </trkpt>
      <trkpt lat="45.17771" lon="0.68051">
        <ele>111.8</ele>
        <time>2025-06-15T10:13:02Z</time>
      </trkpt>
      <trkpt lat="45.17772" lon="0.68054">
        <ele>111.6</ele>
        <time>2025-06-15T10:13:03Z</time>
      </trkpt>
      <trkpt lat="45.17772" lon="0.68057">
        <ele>111.2</ele>
        <time>2025-06-15T10:13:04Z</time>
      </trkpt>
      <trkpt lat="45.17772" lon="0.68059">
        <ele>110.8</ele>
        <time>2025-06-15T10:13:05Z</time>
      </trkpt>
      <trkpt lat="45.17772" lon="0.68062">
        <ele>110.6</ele>
        <time>2025-06-15T10:13:06Z</time>
      </trkpt>
      <trkpt lat="45.17772" lon="0.68064">
        <ele>110.4</ele>
        <time>2025-06-15T10:13:07Z</time>
      </trkpt>
      <trkpt lat="45.17772" lon="0.68067">
        <ele>110.2</ele>
        <time>2025-06-15T10:13:08Z</time>
      </trkpt>
      <trkpt lat="45.17771" lon="0.68069">
        <ele>110</ele>
        <time>2025-06-15T10:13:09Z</time>
      </trkpt>
      <trkpt lat="45.17771" lon="0.68072">
        <ele>109.8</ele>
        <time>2025-06-15T10:13:10Z</time>
      </trkpt>
      <trkpt lat="45.17771" lon="0.68075">
        <ele>109.6</ele>
        <time>2025-06-15T10:13:11Z</time>
      </trkpt>
      <trkpt lat="45.17771" lon="0.68078">
        <ele>109.4</ele>
        <time>2025-06-15T10:13:12Z</time>
      </trkpt>
      <trkpt lat="45.17771" lon="0.68081">
        <ele>109.2</ele>
        <time>2025-06-15T10:13:13Z</time>
      </trkpt>
      <trkpt lat="45.17771" lon="0.68083">
        <ele>109.2</ele>
        <time>2025-06-15T10:13:14Z</time>
      </trkpt>
      <trkpt lat="45.17771" lon="0.68086">
        <ele>109</ele>
        <time>2025-06-15T10:13:15Z</time>
      </trkpt>
      <trkpt lat="45.17771" lon="0.68088">
        <ele>108.8</ele>
        <time>2025-06-15T10:13:16Z</time>
      </trkpt>
      <trkpt lat="45.17771" lon="0.68091">
        <ele>108.8</ele>
        <time>2025-06-15T10:13:17Z</time>
      </trkpt>
      <trkpt lat="45.17771" lon="0.68094">
        <ele>108.6</ele>
        <time>2025-06-15T10:13:18Z</time>
      </trkpt>
      <trkpt lat="45.17771" lon="0.68097">
        <ele>108.4</ele>
        <time>2025-06-15T10:13:19Z</time>
      </trkpt>
      <trkpt lat="45.17771" lon="0.681">
        <ele>108.4</ele>
        <time>2025-06-15T10:13:20Z</time>
      </trkpt>
      <trkpt lat="45.17771" lon="0.68103">
        <ele>108.2</ele>
        <time>2025-06-15T10:13:21Z</time>
      </trkpt>
      <trkpt lat="45.17771" lon="0.68106">
        <ele>108</ele>
        <time>2025-06-15T10:13:22Z</time>
      </trkpt>
      <trkpt lat="45.17771" lon="0.68109">
        <ele>108</ele>
        <time>2025-06-15T10:13:23Z</time>
      </trkpt>
      <trkpt lat="45.17771" lon="0.68112">
        <ele>107.8</ele>
        <time>2025-06-15T10:13:24Z</time>
      </trkpt>
      <trkpt lat="45.17771" lon="0.68115">
        <ele>107.8</ele>
        <time>2025-06-15T10:13:25Z</time>
      </trkpt>
      <trkpt lat="45.17771" lon="0.68118">
        <ele>107.6</ele>
        <time>2025-06-15T10:13:26Z</time>
      </trkpt>
      <trkpt lat="45.17771" lon="0.68121">
        <ele>107.4</ele>
        <time>2025-06-15T10:13:27Z</time>
      </trkpt>
      <trkpt lat="45.17771" lon="0.68124">
        <ele>107.2</ele>
        <time>2025-06-15T10:13:28Z</time>
      </trkpt>
      <trkpt lat="45.17772" lon="0.68127">
        <ele>107.2</ele>
        <time>2025-06-15T10:13:29Z</time>
      </trkpt>
      <trkpt lat="45.17772" lon="0.6813">
        <ele>107</ele>
        <time>2025-06-15T10:13:30Z</time>
      </trkpt>
      <trkpt lat="45.17772" lon="0.68133">
        <ele>106.8</ele>
        <time>2025-06-15T10:13:31Z</time>
      </trkpt>
      <trkpt lat="45.17773" lon="0.68136">
        <ele>106.6</ele>
        <time>2025-06-15T10:13:32Z</time>
      </trkpt>
      <trkpt lat="45.17773" lon="0.68139">
        <ele>106.2</ele>
        <time>2025-06-15T10:13:33Z</time>
      </trkpt>
      <trkpt lat="45.17773" lon="0.68142">
        <ele>106</ele>
        <time>2025-06-15T10:13:34Z</time>
      </trkpt>
      <trkpt lat="45.17773" lon="0.68145">
        <ele>105.8</ele>
        <time>2025-06-15T10:13:35Z</time>
      </trkpt>
      <trkpt lat="45.17773" lon="0.68148">
        <ele>105.6</ele>
        <time>2025-06-15T10:13:36Z</time>
      </trkpt>
      <trkpt lat="45.17774" lon="0.68151">
        <ele>105.4</ele>
        <time>2025-06-15T10:13:37Z</time>
      </trkpt>
      <trkpt lat="45.17774" lon="0.68155">
        <ele>105.2</ele>
        <time>2025-06-15T10:13:38Z</time>
      </trkpt>
      <trkpt lat="45.17774" lon="0.68158">
        <ele>105</ele>
        <time>2025-06-15T10:13:39Z</time>
      </trkpt>
      <trkpt lat="45.17774" lon="0.68162">
        <ele>104.8</ele>
        <time>2025-06-15T10:13:40Z</time>
      </trkpt>
      <trkpt lat="45.17775" lon="0.68165">
        <ele>104.6</ele>
        <time>2025-06-15T10:13:41Z</time>
      </trkpt>
      <trkpt lat="45.17775" lon="0.68168">
        <ele>104.4</ele>
        <time>2025-06-15T10:13:42Z</time>
      </trkpt>
      <trkpt lat="45.17776" lon="0.68172">
        <ele>104.2</ele>
        <time>2025-06-15T10:13:43Z</time>
      </trkpt>
      <trkpt lat="45.17776" lon="0.68175">
        <ele>104</ele>
        <time>2025-06-15T10:13:44Z</time>
      </trkpt>
      <trkpt lat="45.17776" lon="0.68179">
        <ele>104</ele>
        <time>2025-06-15T10:13:45Z</time>
      </trkpt>
      <trkpt lat="45.17777" lon="0.68182">
        <ele>103.8</ele>
        <time>2025-06-15T10:13:46Z</time>
      </trkpt>
      <trkpt lat="45.17777" lon="0.68185">
        <ele>103.6</ele>
        <time>2025-06-15T10:13:47Z</time>
      </trkpt>
      <trkpt lat="45.17778" lon="0.68189">
        <ele>103.4</ele>
        <time>2025-06-15T10:13:48Z</time>
      </trkpt>
      <trkpt lat="45.17778" lon="0.68192">
        <ele>103.2</ele>
        <time>2025-06-15T10:13:49Z</time>
      </trkpt>
      <trkpt lat="45.17779" lon="0.68195">
        <ele>103</ele>
        <time>2025-06-15T10:13:50Z</time>
      </trkpt>
      <trkpt lat="45.17779" lon="0.68199">
        <ele>103</ele>
        <time>2025-06-15T10:13:51Z</time>
      </trkpt>
      <trkpt lat="45.1778" lon="0.68202">
        <ele>102.8</ele>
        <time>2025-06-15T10:13:52Z</time>
      </trkpt>
      <trkpt lat="45.1778" lon="0.68206">
        <ele>102.6</ele>
        <time>2025-06-15T10:13:53Z</time>
      </trkpt>
      <trkpt lat="45.17781" lon="0.68209">
        <ele>102.6</ele>
        <time>2025-06-15T10:13:54Z</time>
      </trkpt>
      <trkpt lat="45.17781" lon="0.68212">
        <ele>102.4</ele>
        <time>2025-06-15T10:13:55Z</time>
      </trkpt>
      <trkpt lat="45.17782" lon="0.68216">
        <ele>102.4</ele>
        <time>2025-06-15T10:13:56Z</time>
      </trkpt>
      <trkpt lat="45.17783" lon="0.68219">
        <ele>102.2</ele>
        <time>2025-06-15T10:13:57Z</time>
      </trkpt>
      <trkpt lat="45.17783" lon="0.68222">
        <ele>102.2</ele>
        <time>2025-06-15T10:13:58Z</time>
      </trkpt>
      <trkpt lat="45.17784" lon="0.68226">
        <ele>102</ele>
        <time>2025-06-15T10:13:59Z</time>
      </trkpt>
      <trkpt lat="45.17785" lon="0.68229">
        <ele>102</ele>
        <time>2025-06-15T10:14:00Z</time>
      </trkpt>
      <trkpt lat="45.17785" lon="0.68233">
        <ele>101.8</ele>
        <time>2025-06-15T10:14:01Z</time>
      </trkpt>
      <trkpt lat="45.17786" lon="0.68236">
        <ele>101.8</ele>
        <time>2025-06-15T10:14:02Z</time>
      </trkpt>
      <trkpt lat="45.17786" lon="0.68239">
        <ele>101.6</ele>
        <time>2025-06-15T10:14:03Z</time>
      </trkpt>
      <trkpt lat="45.17787" lon="0.68243">
        <ele>101.6</ele>
        <time>2025-06-15T10:14:04Z</time>
      </trkpt>
      <trkpt lat="45.17788" lon="0.68246">
        <ele>101.4</ele>
        <time>2025-06-15T10:14:05Z</time>
      </trkpt>
      <trkpt lat="45.17789" lon="0.6825">
        <ele>101.2</ele>
        <time>2025-06-15T10:14:06Z</time>
      </trkpt>
      <trkpt lat="45.1779" lon="0.68253">
        <ele>101.2</ele>
        <time>2025-06-15T10:14:07Z</time>
      </trkpt>
      <trkpt lat="45.17791" lon="0.68257">
        <ele>101.2</ele>
        <time>2025-06-15T10:14:08Z</time>
      </trkpt>
      <trkpt lat="45.17792" lon="0.6826">
        <ele>101</ele>
        <time>2025-06-15T10:14:09Z</time>
      </trkpt>
      <trkpt lat="45.17793" lon="0.68264">
        <ele>101</ele>
        <time>2025-06-15T10:14:10Z</time>
      </trkpt>
      <trkpt lat="45.17793" lon="0.68267">
        <ele>100.8</ele>
        <time>2025-06-15T10:14:11Z</time>
      </trkpt>
      <trkpt lat="45.17795" lon="0.6827">
        <ele>100.6</ele>
        <time>2025-06-15T10:14:12Z</time>
      </trkpt>
      <trkpt lat="45.17796" lon="0.68273">
        <ele>100.6</ele>
        <time>2025-06-15T10:14:13Z</time>
      </trkpt>
      <trkpt lat="45.17797" lon="0.68276">
        <ele>100.4</ele>
        <time>2025-06-15T10:14:14Z</time>
      </trkpt>
      <trkpt lat="45.17798" lon="0.68279">
        <ele>100.2</ele>
        <time>2025-06-15T10:14:15Z</time>
      </trkpt>
      <trkpt lat="45.17799" lon="0.68283">
        <ele>100.2</ele>
        <time>2025-06-15T10:14:16Z</time>
      </trkpt>
      <trkpt lat="45.178" lon="0.68286">
        <ele>100</ele>
        <time>2025-06-15T10:14:17Z</time>
      </trkpt>
      <trkpt lat="45.17801" lon="0.68289">
        <ele>99.8</ele>
        <time>2025-06-15T10:14:18Z</time>
      </trkpt>
      <trkpt lat="45.17802" lon="0.68293">
        <ele>99.6</ele>
        <time>2025-06-15T10:14:19Z</time>
      </trkpt>
      <trkpt lat="45.17803" lon="0.68296">
        <ele>99.6</ele>
        <time>2025-06-15T10:14:20Z</time>
      </trkpt>
      <trkpt lat="45.17805" lon="0.68299">
        <ele>99.4</ele>
        <time>2025-06-15T10:14:21Z</time>
      </trkpt>
      <trkpt lat="45.17806" lon="0.68302">
        <ele>99.2</ele>
        <time>2025-06-15T10:14:22Z</time>
      </trkpt>
      <trkpt lat="45.17807" lon="0.68306">
        <ele>99.2</ele>
        <time>2025-06-15T10:14:23Z</time>
      </trkpt>
      <trkpt lat="45.17808" lon="0.68309">
        <ele>99</ele>
        <time>2025-06-15T10:14:24Z</time>
      </trkpt>
      <trkpt lat="45.17809" lon="0.68313">
        <ele>99</ele>
        <time>2025-06-15T10:14:25Z</time>
      </trkpt>
      <trkpt lat="45.1781" lon="0.68316">
        <ele>99</ele>
        <time>2025-06-15T10:14:26Z</time>
      </trkpt>
      <trkpt lat="45.17811" lon="0.6832">
        <ele>98.8</ele>
        <time>2025-06-15T10:14:27Z</time>
      </trkpt>
      <trkpt lat="45.17812" lon="0.68324">
        <ele>98.8</ele>
        <time>2025-06-15T10:14:28Z</time>
      </trkpt>
      <trkpt lat="45.17814" lon="0.68327">
        <ele>98.8</ele>
        <time>2025-06-15T10:14:29Z</time>
      </trkpt>
      <trkpt lat="45.17815" lon="0.68331">
        <ele>98.6</ele>
        <time>2025-06-15T10:14:30Z</time>
      </trkpt>
      <trkpt lat="45.17817" lon="0.68335">
        <ele>98.6</ele>
        <time>2025-06-15T10:14:31Z</time>
      </trkpt>
      <trkpt lat="45.17818" lon="0.68339">
        <ele>98.4</ele>
        <time>2025-06-15T10:14:32Z</time>
      </trkpt>
      <trkpt lat="45.17819" lon="0.68343">
        <ele>98.2</ele>
        <time>2025-06-15T10:14:33Z</time>
      </trkpt>
      <trkpt lat="45.17821" lon="0.68346">
        <ele>98.2</ele>
        <time>2025-06-15T10:14:34Z</time>
      </trkpt>
      <trkpt lat="45.17822" lon="0.6835">
        <ele>98</ele>
        <time>2025-06-15T10:14:35Z</time>
      </trkpt>
      <trkpt lat="45.17823" lon="0.68353">
        <ele>97.8</ele>
        <time>2025-06-15T10:14:36Z</time>
      </trkpt>
      <trkpt lat="45.17825" lon="0.68357">
        <ele>97.8</ele>
        <time>2025-06-15T10:14:37Z</time>
      </trkpt>
      <trkpt lat="45.17826" lon="0.6836">
        <ele>97.8</ele>
        <time>2025-06-15T10:14:38Z</time>
      </trkpt>
      <trkpt lat="45.17827" lon="0.68363">
        <ele>97.6</ele>
        <time>2025-06-15T10:14:39Z</time>
      </trkpt>
      <trkpt lat="45.17829" lon="0.68367">
        <ele>97.6</ele>
        <time>2025-06-15T10:14:40Z</time>
      </trkpt>
      <trkpt lat="45.1783" lon="0.68371">
        <ele>97.4</ele>
        <time>2025-06-15T10:14:41Z</time>
      </trkpt>
      <trkpt lat="45.1783" lon="0.68374">
        <ele>97.4</ele>
        <time>2025-06-15T10:14:42Z</time>
      </trkpt>
      <trkpt lat="45.17831" lon="0.68378">
        <ele>97.4</ele>
        <time>2025-06-15T10:14:43Z</time>
      </trkpt>
      <trkpt lat="45.17832" lon="0.68382">
        <ele>97.4</ele>
        <time>2025-06-15T10:14:44Z</time>
      </trkpt>
      <trkpt lat="45.17833" lon="0.68386">
        <ele>97.4</ele>
        <time>2025-06-15T10:14:45Z</time>
      </trkpt>
      <trkpt lat="45.17835" lon="0.6839">
        <ele>97.2</ele>
        <time>2025-06-15T10:14:46Z</time>
      </trkpt>
      <trkpt lat="45.17836" lon="0.68394">
        <ele>97.2</ele>
        <time>2025-06-15T10:14:47Z</time>
      </trkpt>
      <trkpt lat="45.17837" lon="0.68397">
        <ele>97</ele>
        <time>2025-06-15T10:14:48Z</time>
      </trkpt>
      <trkpt lat="45.17838" lon="0.68401">
        <ele>97</ele>
        <time>2025-06-15T10:14:49Z</time>
      </trkpt>
      <trkpt lat="45.17839" lon="0.68404">
        <ele>96.8</ele>
        <time>2025-06-15T10:14:50Z</time>
      </trkpt>
      <trkpt lat="45.1784" lon="0.68408">
        <ele>96.8</ele>
        <time>2025-06-15T10:14:51Z</time>
      </trkpt>
      <trkpt lat="45.17841" lon="0.68412">
        <ele>96.6</ele>
        <time>2025-06-15T10:14:52Z</time>
      </trkpt>
      <trkpt lat="45.17842" lon="0.68416">
        <ele>96.6</ele>
        <time>2025-06-15T10:14:53Z</time>
      </trkpt>
      <trkpt lat="45.17844" lon="0.6842">
        <ele>96.6</ele>
        <time>2025-06-15T10:14:54Z</time>
      </trkpt>
      <trkpt lat="45.17845" lon="0.68424">
        <ele>96.4</ele>
        <time>2025-06-15T10:14:55Z</time>
      </trkpt>
      <trkpt lat="45.17846" lon="0.68428">
        <ele>96.2</ele>
        <time>2025-06-15T10:14:56Z</time>
      </trkpt>
      <trkpt lat="45.17847" lon="0.68432">
        <ele>96.2</ele>
        <time>2025-06-15T10:14:57Z</time>
      </trkpt>
      <trkpt lat="45.17848" lon="0.68436">
        <ele>96</ele>
        <time>2025-06-15T10:14:58Z</time>
      </trkpt>
      <trkpt lat="45.17849" lon="0.6844">
        <ele>96</ele>
        <time>2025-06-15T10:14:59Z</time>
      </trkpt>
      <trkpt lat="45.1785" lon="0.68443">
        <ele>95.8</ele>
        <time>2025-06-15T10:15:00Z</time>
      </trkpt>
      <trkpt lat="45.17852" lon="0.68447">
        <ele>95.8</ele>
        <time>2025-06-15T10:15:01Z</time>
      </trkpt>
      <trkpt lat="45.17853" lon="0.6845">
        <ele>95.6</ele>
        <time>2025-06-15T10:15:02Z</time>
      </trkpt>
      <trkpt lat="45.17854" lon="0.68454">
        <ele>95.4</ele>
        <time>2025-06-15T10:15:03Z</time>
      </trkpt>
      <trkpt lat="45.17855" lon="0.68457">
        <ele>95.4</ele>
        <time>2025-06-15T10:15:04Z</time>
      </trkpt>
      <trkpt lat="45.17856" lon="0.68461">
        <ele>95.2</ele>
        <time>2025-06-15T10:15:05Z</time>
      </trkpt>
      <trkpt lat="45.17857" lon="0.68465">
        <ele>95.2</ele>
        <time>2025-06-15T10:15:06Z</time>
      </trkpt>
      <trkpt lat="45.17858" lon="0.68468">
        <ele>95.2</ele>
        <time>2025-06-15T10:15:07Z</time>
      </trkpt>
      <trkpt lat="45.17859" lon="0.68473">
        <ele>95.2</ele>
        <time>2025-06-15T10:15:08Z</time>
      </trkpt>
      <trkpt lat="45.1786" lon="0.68478">
        <ele>95</ele>
        <time>2025-06-15T10:15:09Z</time>
      </trkpt>
      <trkpt lat="45.17861" lon="0.68482">
        <ele>95</ele>
        <time>2025-06-15T10:15:10Z</time>
      </trkpt>
      <trkpt lat="45.17862" lon="0.68487">
        <ele>95</ele>
        <time>2025-06-15T10:15:11Z</time>
      </trkpt>
      <trkpt lat="45.17863" lon="0.68492">
        <ele>95</ele>
        <time>2025-06-15T10:15:12Z</time>
      </trkpt>
      <trkpt lat="45.17864" lon="0.68496">
        <ele>95</ele>
        <time>2025-06-15T10:15:13Z</time>
      </trkpt>
      <trkpt lat="45.17865" lon="0.685">
        <ele>95</ele>
        <time>2025-06-15T10:15:14Z</time>
      </trkpt>
      <trkpt lat="45.17866" lon="0.68504">
        <ele>94.8</ele>
        <time>2025-06-15T10:15:15Z</time>
      </trkpt>
      <trkpt lat="45.17866" lon="0.68509">
        <ele>94.8</ele>
        <time>2025-06-15T10:15:16Z</time>
      </trkpt>
      <trkpt lat="45.17867" lon="0.68513">
        <ele>94.6</ele>
        <time>2025-06-15T10:15:17Z</time>
      </trkpt>
      <trkpt lat="45.17868" lon="0.68517">
        <ele>94.4</ele>
        <time>2025-06-15T10:15:18Z</time>
      </trkpt>
      <trkpt lat="45.17869" lon="0.68521">
        <ele>94.2</ele>
        <time>2025-06-15T10:15:19Z</time>
      </trkpt>
      <trkpt lat="45.17869" lon="0.68525">
        <ele>94</ele>
        <time>2025-06-15T10:15:20Z</time>
      </trkpt>
      <trkpt lat="45.1787" lon="0.68529">
        <ele>94</ele>
        <time>2025-06-15T10:15:21Z</time>
      </trkpt>
      <trkpt lat="45.17871" lon="0.68532">
        <ele>93.8</ele>
        <time>2025-06-15T10:15:22Z</time>
      </trkpt>
      <trkpt lat="45.17872" lon="0.68536">
        <ele>93.8</ele>
        <time>2025-06-15T10:15:23Z</time>
      </trkpt>
      <trkpt lat="45.17873" lon="0.68539">
        <ele>93.6</ele>
        <time>2025-06-15T10:15:24Z</time>
      </trkpt>
      <trkpt lat="45.17875" lon="0.68542">
        <ele>93.4</ele>
        <time>2025-06-15T10:15:25Z</time>
      </trkpt>
      <trkpt lat="45.17876" lon="0.68546">
        <ele>93.4</ele>
        <time>2025-06-15T10:15:26Z</time>
      </trkpt>
      <trkpt lat="45.17878" lon="0.6855">
        <ele>93.2</ele>
        <time>2025-06-15T10:15:27Z</time>
      </trkpt>
      <trkpt lat="45.1788" lon="0.68554">
        <ele>93.2</ele>
        <time>2025-06-15T10:15:28Z</time>
      </trkpt>
      <trkpt lat="45.17882" lon="0.68558">
        <ele>93</ele>
        <time>2025-06-15T10:15:29Z</time>
      </trkpt>
      <trkpt lat="45.17884" lon="0.68563">
        <ele>92.8</ele>
        <time>2025-06-15T10:15:30Z</time>
      </trkpt>
      <trkpt lat="45.17886" lon="0.68568">
        <ele>92.8</ele>
        <time>2025-06-15T10:15:31Z</time>
      </trkpt>
      <trkpt lat="45.17888" lon="0.68573">
        <ele>92.6</ele>
        <time>2025-06-15T10:15:32Z</time>
      </trkpt>
      <trkpt lat="45.17891" lon="0.68577">
        <ele>92.4</ele>
        <time>2025-06-15T10:15:33Z</time>
      </trkpt>
      <trkpt lat="45.17894" lon="0.68582">
        <ele>92.2</ele>
        <time>2025-06-15T10:15:34Z</time>
      </trkpt>
      <trkpt lat="45.17896" lon="0.68587">
        <ele>92</ele>
        <time>2025-06-15T10:15:35Z</time>
      </trkpt>
      <trkpt lat="45.17898" lon="0.68592">
        <ele>91.8</ele>
        <time>2025-06-15T10:15:36Z</time>
      </trkpt>
      <trkpt lat="45.179" lon="0.68596">
        <ele>91.6</ele>
        <time>2025-06-15T10:15:37Z</time>
      </trkpt>
      <trkpt lat="45.17901" lon="0.68602">
        <ele>91.6</ele>
        <time>2025-06-15T10:15:38Z</time>
      </trkpt>
      <trkpt lat="45.17903" lon="0.68606">
        <ele>91.6</ele>
        <time>2025-06-15T10:15:39Z</time>
      </trkpt>
      <trkpt lat="45.17904" lon="0.68612">
        <ele>91.4</ele>
        <time>2025-06-15T10:15:40Z</time>
      </trkpt>
      <trkpt lat="45.17906" lon="0.68618">
        <ele>91.6</ele>
        <time>2025-06-15T10:15:41Z</time>
      </trkpt>
      <trkpt lat="45.17907" lon="0.68624">
        <ele>91.6</ele>
        <time>2025-06-15T10:15:42Z</time>
      </trkpt>
      <trkpt lat="45.17908" lon="0.68631">
        <ele>91.4</ele>
        <time>2025-06-15T10:15:43Z</time>
      </trkpt>
      <trkpt lat="45.17909" lon="0.68638">
        <ele>91.4</ele>
        <time>2025-06-15T10:15:44Z</time>
      </trkpt>
      <trkpt lat="45.1791" lon="0.68645">
        <ele>91.4</ele>
        <time>2025-06-15T10:15:45Z</time>
      </trkpt>
      <trkpt lat="45.17912" lon="0.68652">
        <ele>91.4</ele>
        <time>2025-06-15T10:15:46Z</time>
      </trkpt>
      <trkpt lat="45.17914" lon="0.6866">
        <ele>91.4</ele>
        <time>2025-06-15T10:15:47Z</time>
      </trkpt>
      <trkpt lat="45.17916" lon="0.68667">
        <ele>91.4</ele>
        <time>2025-06-15T10:15:48Z</time>
      </trkpt>
      <trkpt lat="45.17918" lon="0.68674">
        <ele>91.4</ele>
        <time>2025-06-15T10:15:49Z</time>
      </trkpt>
      <trkpt lat="45.1792" lon="0.6868">
        <ele>91.4</ele>
        <time>2025-06-15T10:15:50Z</time>
      </trkpt>
      <trkpt lat="45.17922" lon="0.68687">
        <ele>91.4</ele>
        <time>2025-06-15T10:15:51Z</time>
      </trkpt>
      <trkpt lat="45.17925" lon="0.68695">
        <ele>91.6</ele>
        <time>2025-06-15T10:15:52Z</time>
      </trkpt>
      <trkpt lat="45.17928" lon="0.68702">
        <ele>91.6</ele>
        <time>2025-06-15T10:15:53Z</time>
      </trkpt>
      <trkpt lat="45.17931" lon="0.68709">
        <ele>91.8</ele>
        <time>2025-06-15T10:15:54Z</time>
      </trkpt>
      <trkpt lat="45.17934" lon="0.68718">
        <ele>91.8</ele>
        <time>2025-06-15T10:15:55Z</time>
      </trkpt>
      <trkpt lat="45.17937" lon="0.68727">
        <ele>92</ele>
        <time>2025-06-15T10:15:56Z</time>
      </trkpt>
      <trkpt lat="45.1794" lon="0.68736">
        <ele>92</ele>
        <time>2025-06-15T10:15:57Z</time>
      </trkpt>
      <trkpt lat="45.17942" lon="0.68746">
        <ele>92.2</ele>
        <time>2025-06-15T10:15:58Z</time>
      </trkpt>
      <trkpt lat="45.17945" lon="0.68756">
        <ele>92.4</ele>
        <time>2025-06-15T10:15:59Z</time>
      </trkpt>
      <trkpt lat="45.17947" lon="0.68767">
        <ele>92.4</ele>
        <time>2025-06-15T10:16:00Z</time>
      </trkpt>
      <trkpt lat="45.17948" lon="0.68779">
        <ele>92.6</ele>
        <time>2025-06-15T10:16:01Z</time>
      </trkpt>
      <trkpt lat="45.17949" lon="0.68792">
        <ele>92.6</ele>
        <time>2025-06-15T10:16:02Z</time>
      </trkpt>
      <trkpt lat="45.17948" lon="0.68804">
        <ele>92.8</ele>
        <time>2025-06-15T10:16:03Z</time>
      </trkpt>
      <trkpt lat="45.17946" lon="0.68816">
        <ele>92.8</ele>
        <time>2025-06-15T10:16:04Z</time>
      </trkpt>
      <trkpt lat="45.17943" lon="0.68827">
        <ele>92.8</ele>
        <time>2025-06-15T10:16:05Z</time>
      </trkpt>
      <trkpt lat="45.1794" lon="0.68839">
        <ele>93</ele>
        <time>2025-06-15T10:16:06Z</time>
      </trkpt>
      <trkpt lat="45.17938" lon="0.68851">
        <ele>93</ele>
        <time>2025-06-15T10:16:07Z</time>
      </trkpt>
      <trkpt lat="45.17938" lon="0.68863">
        <ele>93.2</ele>
        <time>2025-06-15T10:16:08Z</time>
      </trkpt>
      <trkpt lat="45.17938" lon="0.68875">
        <ele>93.4</ele>
        <time>2025-06-15T10:16:09Z</time>
      </trkpt>
      <trkpt lat="45.17939" lon="0.68886">
        <ele>93.6</ele>
        <time>2025-06-15T10:16:10Z</time>
      </trkpt>
      <trkpt lat="45.1794" lon="0.68898">
        <ele>93.6</ele>
        <time>2025-06-15T10:16:11Z</time>
      </trkpt>
      <trkpt lat="45.17941" lon="0.68909">
        <ele>93.8</ele>
        <time>2025-06-15T10:16:12Z</time>
      </trkpt>
      <trkpt lat="45.17942" lon="0.68918">
        <ele>94</ele>
        <time>2025-06-15T10:16:13Z</time>
      </trkpt>
      <trkpt lat="45.17944" lon="0.68928">
        <ele>94.2</ele>
        <time>2025-06-15T10:16:14Z</time>
      </trkpt>
      <trkpt lat="45.17945" lon="0.68938">
        <ele>94.4</ele>
        <time>2025-06-15T10:16:15Z</time>
      </trkpt>
      <trkpt lat="45.17947" lon="0.68947">
        <ele>94.4</ele>
        <time>2025-06-15T10:16:16Z</time>
      </trkpt>
      <trkpt lat="45.17948" lon="0.68956">
        <ele>94.6</ele>
        <time>2025-06-15T10:16:17Z</time>
      </trkpt>
      <trkpt lat="45.17949" lon="0.68965">
        <ele>94.6</ele>
        <time>2025-06-15T10:16:18Z</time>
      </trkpt>
      <trkpt lat="45.17951" lon="0.68973">
        <ele>94.6</ele>
        <time>2025-06-15T10:16:19Z</time>
      </trkpt>
      <trkpt lat="45.17951" lon="0.68981">
        <ele>94.8</ele>
        <time>2025-06-15T10:16:20Z</time>
      </trkpt>
      <trkpt lat="45.17952" lon="0.68989">
        <ele>94.8</ele>
        <time>2025-06-15T10:16:21Z</time>
      </trkpt>
      <trkpt lat="45.17953" lon="0.68998">
        <ele>94.8</ele>
        <time>2025-06-15T10:16:22Z</time>
      </trkpt>
      <trkpt lat="45.17953" lon="0.69007">
        <ele>94.8</ele>
        <time>2025-06-15T10:16:23Z</time>
      </trkpt>
      <trkpt lat="45.17954" lon="0.69015">
        <ele>95</ele>
        <time>2025-06-15T10:16:24Z</time>
      </trkpt>
      <trkpt lat="45.17955" lon="0.69024">
        <ele>95</ele>
        <time>2025-06-15T10:16:25Z</time>
      </trkpt>
      <trkpt lat="45.17957" lon="0.69032">
        <ele>95</ele>
        <time>2025-06-15T10:16:26Z</time>
      </trkpt>
      <trkpt lat="45.17959" lon="0.69039">
        <ele>95</ele>
        <time>2025-06-15T10:16:27Z</time>
      </trkpt>
      <trkpt lat="45.17963" lon="0.69046">
        <ele>95</ele>
        <time>2025-06-15T10:16:28Z</time>
      </trkpt>
      <trkpt lat="45.17967" lon="0.69049">
        <ele>95</ele>
        <time>2025-06-15T10:16:29Z</time>
      </trkpt>
      <trkpt lat="45.17972" lon="0.69052">
        <ele>95</ele>
        <time>2025-06-15T10:16:30Z</time>
      </trkpt>
      <trkpt lat="45.17978" lon="0.69052">
        <ele>95</ele>
        <time>2025-06-15T10:16:31Z</time>
      </trkpt>
      <trkpt lat="45.17983" lon="0.69052">
        <ele>95</ele>
        <time>2025-06-15T10:16:32Z</time>
      </trkpt>
      <trkpt lat="45.1799" lon="0.69053">
        <ele>95</ele>
        <time>2025-06-15T10:16:33Z</time>
      </trkpt>
      <trkpt lat="45.17996" lon="0.69054">
        <ele>95</ele>
        <time>2025-06-15T10:16:34Z</time>
      </trkpt>
      <trkpt lat="45.18002" lon="0.69055">
        <ele>95.2</ele>
        <time>2025-06-15T10:16:35Z</time>
      </trkpt>
      <trkpt lat="45.18009" lon="0.69056">
        <ele>95.2</ele>
        <time>2025-06-15T10:16:36Z</time>
      </trkpt>
      <trkpt lat="45.18016" lon="0.69056">
        <ele>95.2</ele>
        <time>2025-06-15T10:16:37Z</time>
      </trkpt>
      <trkpt lat="45.18023" lon="0.69058">
        <ele>95.2</ele>
        <time>2025-06-15T10:16:38Z</time>
      </trkpt>
      <trkpt lat="45.1803" lon="0.69059">
        <ele>95.2</ele>
        <time>2025-06-15T10:16:39Z</time>
      </trkpt>
      <trkpt lat="45.18037" lon="0.69059">
        <ele>95.2</ele>
        <time>2025-06-15T10:16:40Z</time>
      </trkpt>
      <trkpt lat="45.18044" lon="0.6906">
        <ele>95</ele>
        <time>2025-06-15T10:16:41Z</time>
      </trkpt>
      <trkpt lat="45.18051" lon="0.69062">
        <ele>95</ele>
        <time>2025-06-15T10:16:42Z</time>
      </trkpt>
      <trkpt lat="45.18058" lon="0.69063">
        <ele>95</ele>
        <time>2025-06-15T10:16:43Z</time>
      </trkpt>
      <trkpt lat="45.18065" lon="0.69065">
        <ele>95</ele>
        <time>2025-06-15T10:16:44Z</time>
      </trkpt>
      <trkpt lat="45.18071" lon="0.69066">
        <ele>95.2</ele>
        <time>2025-06-15T10:16:45Z</time>
      </trkpt>
      <trkpt lat="45.18078" lon="0.69068">
        <ele>95.2</ele>
        <time>2025-06-15T10:16:46Z</time>
      </trkpt>
      <trkpt lat="45.18085" lon="0.69069">
        <ele>95.4</ele>
        <time>2025-06-15T10:16:47Z</time>
      </trkpt>
      <trkpt lat="45.18092" lon="0.6907">
        <ele>95.4</ele>
        <time>2025-06-15T10:16:48Z</time>
      </trkpt>
      <trkpt lat="45.18099" lon="0.69071">
        <ele>95.4</ele>
        <time>2025-06-15T10:16:49Z</time>
      </trkpt>
      <trkpt lat="45.18105" lon="0.69072">
        <ele>95.4</ele>
        <time>2025-06-15T10:16:50Z</time>
      </trkpt>
      <trkpt lat="45.18112" lon="0.69073">
        <ele>95.4</ele>
        <time>2025-06-15T10:16:51Z</time>
      </trkpt>
      <trkpt lat="45.18119" lon="0.69074">
        <ele>95.4</ele>
        <time>2025-06-15T10:16:52Z</time>
      </trkpt>
      <trkpt lat="45.18125" lon="0.69074">
        <ele>95.4</ele>
        <time>2025-06-15T10:16:53Z</time>
      </trkpt>
      <trkpt lat="45.18131" lon="0.69075">
        <ele>95.4</ele>
        <time>2025-06-15T10:16:54Z</time>
      </trkpt>
      <trkpt lat="45.18137" lon="0.69076">
        <ele>95.2</ele>
        <time>2025-06-15T10:16:55Z</time>
      </trkpt>
      <trkpt lat="45.18143" lon="0.69077">
        <ele>95.2</ele>
        <time>2025-06-15T10:16:56Z</time>
      </trkpt>
      <trkpt lat="45.18149" lon="0.69078">
        <ele>95.2</ele>
        <time>2025-06-15T10:16:57Z</time>
      </trkpt>
      <trkpt lat="45.18155" lon="0.69079">
        <ele>95.2</ele>
        <time>2025-06-15T10:16:58Z</time>
      </trkpt>
      <trkpt lat="45.1816" lon="0.69082">
        <ele>95.2</ele>
        <time>2025-06-15T10:16:59Z</time>
      </trkpt>
      <trkpt lat="45.18166" lon="0.69084">
        <ele>95.2</ele>
        <time>2025-06-15T10:17:00Z</time>
      </trkpt>
      <trkpt lat="45.18171" lon="0.69086">
        <ele>95.2</ele>
        <time>2025-06-15T10:17:01Z</time>
      </trkpt>
      <trkpt lat="45.18176" lon="0.69088">
        <ele>95.2</ele>
        <time>2025-06-15T10:17:02Z</time>
      </trkpt>
      <trkpt lat="45.18181" lon="0.6909">
        <ele>95.2</ele>
        <time>2025-06-15T10:17:03Z</time>
      </trkpt>
      <trkpt lat="45.18186" lon="0.69092">
        <ele>95</ele>
        <time>2025-06-15T10:17:04Z</time>
      </trkpt>
      <trkpt lat="45.18192" lon="0.69094">
        <ele>95</ele>
        <time>2025-06-15T10:17:05Z</time>
      </trkpt>
      <trkpt lat="45.18197" lon="0.69096">
        <ele>95</ele>
        <time>2025-06-15T10:17:06Z</time>
      </trkpt>
      <trkpt lat="45.18203" lon="0.69099">
        <ele>95</ele>
        <time>2025-06-15T10:17:07Z</time>
      </trkpt>
      <trkpt lat="45.18208" lon="0.69101">
        <ele>95</ele>
        <time>2025-06-15T10:17:08Z</time>
      </trkpt>
      <trkpt lat="45.18214" lon="0.69103">
        <ele>95.2</ele>
        <time>2025-06-15T10:17:09Z</time>
      </trkpt>
      <trkpt lat="45.18219" lon="0.69105">
        <ele>95.2</ele>
        <time>2025-06-15T10:17:10Z</time>
      </trkpt>
      <trkpt lat="45.18224" lon="0.69107">
        <ele>95.2</ele>
        <time>2025-06-15T10:17:11Z</time>
      </trkpt>
      <trkpt lat="45.1823" lon="0.69109">
        <ele>95.2</ele>
        <time>2025-06-15T10:17:12Z</time>
      </trkpt>
      <trkpt lat="45.18236" lon="0.69111">
        <ele>95.2</ele>
        <time>2025-06-15T10:17:13Z</time>
      </trkpt>
      <trkpt lat="45.18242" lon="0.69113">
        <ele>95.2</ele>
        <time>2025-06-15T10:17:14Z</time>
      </trkpt>
      <trkpt lat="45.18248" lon="0.69115">
        <ele>95.2</ele>
        <time>2025-06-15T10:17:15Z</time>
      </trkpt>
      <trkpt lat="45.18254" lon="0.69119">
        <ele>95.2</ele>
        <time>2025-06-15T10:17:16Z</time>
      </trkpt>
      <trkpt lat="45.18259" lon="0.69126">
        <ele>95</ele>
        <time>2025-06-15T10:17:17Z</time>
      </trkpt>
      <trkpt lat="45.18262" lon="0.69135">
        <ele>95</ele>
        <time>2025-06-15T10:17:18Z</time>
      </trkpt>
      <trkpt lat="45.18264" lon="0.69145">
        <ele>95</ele>
        <time>2025-06-15T10:17:19Z</time>
      </trkpt>
      <trkpt lat="45.18266" lon="0.69155">
        <ele>94.8</ele>
        <time>2025-06-15T10:17:20Z</time>
      </trkpt>
      <trkpt lat="45.18266" lon="0.69165">
        <ele>94.8</ele>
        <time>2025-06-15T10:17:21Z</time>
      </trkpt>
      <trkpt lat="45.18264" lon="0.69175">
        <ele>95</ele>
        <time>2025-06-15T10:17:22Z</time>
      </trkpt>
      <trkpt lat="45.18261" lon="0.69184">
        <ele>95</ele>
        <time>2025-06-15T10:17:23Z</time>
      </trkpt>
      <trkpt lat="45.18258" lon="0.69193">
        <ele>95.2</ele>
        <time>2025-06-15T10:17:24Z</time>
      </trkpt>
      <trkpt lat="45.18255" lon="0.69202">
        <ele>95.2</ele>
        <time>2025-06-15T10:17:25Z</time>
      </trkpt>
      <trkpt lat="45.18253" lon="0.69211">
        <ele>95.2</ele>
        <time>2025-06-15T10:17:26Z</time>
      </trkpt>
      <trkpt lat="45.1825" lon="0.6922">
        <ele>95.2</ele>
        <time>2025-06-15T10:17:27Z</time>
      </trkpt>
      <trkpt lat="45.18247" lon="0.69228">
        <ele>95.2</ele>
        <time>2025-06-15T10:17:28Z</time>
      </trkpt>
      <trkpt lat="45.18245" lon="0.69238">
        <ele>95.2</ele>
        <time>2025-06-15T10:17:29Z</time>
      </trkpt>
      <trkpt lat="45.18242" lon="0.69247">
        <ele>95.2</ele>
        <time>2025-06-15T10:17:30Z</time>
      </trkpt>
      <trkpt lat="45.18239" lon="0.69257">
        <ele>95.2</ele>
        <time>2025-06-15T10:17:31Z</time>
      </trkpt>
      <trkpt lat="45.18235" lon="0.69266">
        <ele>95.2</ele>
        <time>2025-06-15T10:17:32Z</time>
      </trkpt>
      <trkpt lat="45.18231" lon="0.69273">
        <ele>95.2</ele>
        <time>2025-06-15T10:17:33Z</time>
      </trkpt>
      <trkpt lat="45.18228" lon="0.6928">
        <ele>95.2</ele>
        <time>2025-06-15T10:17:34Z</time>
      </trkpt>
      <trkpt lat="45.18225" lon="0.69285">
        <ele>95.2</ele>
        <time>2025-06-15T10:17:35Z</time>
      </trkpt>
      <trkpt lat="45.18223" lon="0.69289">
        <ele>95.2</ele>
        <time>2025-06-15T10:17:36Z</time>
      </trkpt>
      <trkpt lat="45.18222" lon="0.69292">
        <ele>95</ele>
        <time>2025-06-15T10:17:37Z</time>
      </trkpt>
      <trkpt lat="45.18223" lon="0.69295">
        <ele>95</ele>
        <time>2025-06-15T10:17:38Z</time>
      </trkpt>
      <trkpt lat="45.18224" lon="0.69297">
        <ele>95</ele>
        <time>2025-06-15T10:17:39Z</time>
      </trkpt>
      <trkpt lat="45.18227" lon="0.693">
        <ele>95</ele>
        <time>2025-06-15T10:17:40Z</time>
      </trkpt>
      <trkpt lat="45.1823" lon="0.69302">
        <ele>95.2</ele>
        <time>2025-06-15T10:17:41Z</time>
      </trkpt>
      <trkpt lat="45.18235" lon="0.69305">
        <ele>95.2</ele>
        <time>2025-06-15T10:17:42Z</time>
      </trkpt>
      <trkpt lat="45.18239" lon="0.69309">
        <ele>95.4</ele>
        <time>2025-06-15T10:17:43Z</time>
      </trkpt>
      <trkpt lat="45.18243" lon="0.69313">
        <ele>95.4</ele>
        <time>2025-06-15T10:17:44Z</time>
      </trkpt>
      <trkpt lat="45.18249" lon="0.69318">
        <ele>95.6</ele>
        <time>2025-06-15T10:17:45Z</time>
      </trkpt>
      <trkpt lat="45.18254" lon="0.69322">
        <ele>95.6</ele>
        <time>2025-06-15T10:17:46Z</time>
      </trkpt>
      <trkpt lat="45.1826" lon="0.69328">
        <ele>95.8</ele>
        <time>2025-06-15T10:17:47Z</time>
      </trkpt>
      <trkpt lat="45.18267" lon="0.69333">
        <ele>95.8</ele>
        <time>2025-06-15T10:17:48Z</time>
      </trkpt>
      <trkpt lat="45.18273" lon="0.69337">
        <ele>96</ele>
        <time>2025-06-15T10:17:49Z</time>
      </trkpt>
      <trkpt lat="45.18278" lon="0.69341">
        <ele>96</ele>
        <time>2025-06-15T10:17:50Z</time>
      </trkpt>
      <trkpt lat="45.18283" lon="0.69345">
        <ele>96.2</ele>
        <time>2025-06-15T10:17:51Z</time>
      </trkpt>
      <trkpt lat="45.18288" lon="0.69349">
        <ele>96.2</ele>
        <time>2025-06-15T10:17:52Z</time>
      </trkpt>
      <trkpt lat="45.18293" lon="0.69353">
        <ele>96.4</ele>
        <time>2025-06-15T10:17:53Z</time>
      </trkpt>
      <trkpt lat="45.18296" lon="0.69356">
        <ele>96.6</ele>
        <time>2025-06-15T10:17:54Z</time>
      </trkpt>
      <trkpt lat="45.183" lon="0.6936">
        <ele>96.6</ele>
        <time>2025-06-15T10:17:55Z</time>
      </trkpt>
      <trkpt lat="45.18301" lon="0.69364">
        <ele>96.8</ele>
        <time>2025-06-15T10:17:56Z</time>
      </trkpt>
      <trkpt lat="45.183" lon="0.69369">
        <ele>96.8</ele>
        <time>2025-06-15T10:17:57Z</time>
      </trkpt>
      <trkpt lat="45.18299" lon="0.69374">
        <ele>97</ele>
        <time>2025-06-15T10:17:58Z</time>
      </trkpt>
      <trkpt lat="45.18298" lon="0.69379">
        <ele>97</ele>
        <time>2025-06-15T10:17:59Z</time>
      </trkpt>
      <trkpt lat="45.18296" lon="0.69384">
        <ele>97.4</ele>
        <time>2025-06-15T10:18:00Z</time>
      </trkpt>
      <trkpt lat="45.18294" lon="0.69389">
        <ele>97.6</ele>
        <time>2025-06-15T10:18:01Z</time>
      </trkpt>
      <trkpt lat="45.18293" lon="0.69392">
        <ele>97.6</ele>
        <time>2025-06-15T10:18:02Z</time>
      </trkpt>
      <trkpt lat="45.18292" lon="0.69395">
        <ele>97.8</ele>
        <time>2025-06-15T10:18:03Z</time>
      </trkpt>
      <trkpt lat="45.1829" lon="0.69397">
        <ele>98</ele>
        <time>2025-06-15T10:18:04Z</time>
      </trkpt>
      <trkpt lat="45.18289" lon="0.69398">
        <ele>98.2</ele>
        <time>2025-06-15T10:18:05Z</time>
      </trkpt>
      <trkpt lat="45.18287" lon="0.69398">
        <ele>98.4</ele>
        <time>2025-06-15T10:18:06Z</time>
      </trkpt>
      <trkpt lat="45.18284" lon="0.69399">
        <ele>98.6</ele>
        <time>2025-06-15T10:18:07Z</time>
      </trkpt>
      <trkpt lat="45.18282" lon="0.69401">
        <ele>98.8</ele>
        <time>2025-06-15T10:18:08Z</time>
      </trkpt>
      <trkpt lat="45.1828" lon="0.69404">
        <ele>99</ele>
        <time>2025-06-15T10:18:09Z</time>
      </trkpt>
      <trkpt lat="45.18279" lon="0.69407">
        <ele>99</ele>
        <time>2025-06-15T10:18:10Z</time>
      </trkpt>
      <trkpt lat="45.18277" lon="0.69411">
        <ele>99.2</ele>
        <time>2025-06-15T10:18:11Z</time>
      </trkpt>
      <trkpt lat="45.18275" lon="0.69414">
        <ele>99.4</ele>
        <time>2025-06-15T10:18:12Z</time>
      </trkpt>
      <trkpt lat="45.18273" lon="0.69417">
        <ele>99.6</ele>
        <time>2025-06-15T10:18:13Z</time>
      </trkpt>
      <trkpt lat="45.1827" lon="0.69421">
        <ele>99.6</ele>
        <time>2025-06-15T10:18:14Z</time>
      </trkpt>
      <trkpt lat="45.18266" lon="0.69425">
        <ele>99.8</ele>
        <time>2025-06-15T10:18:15Z</time>
      </trkpt>
      <trkpt lat="45.18261" lon="0.69428">
        <ele>99.8</ele>
        <time>2025-06-15T10:18:16Z</time>
      </trkpt>
      <trkpt lat="45.18255" lon="0.6943">
        <ele>99.8</ele>
        <time>2025-06-15T10:18:17Z</time>
      </trkpt>
      <trkpt lat="45.18249" lon="0.69433">
        <ele>100</ele>
        <time>2025-06-15T10:18:18Z</time>
      </trkpt>
      <trkpt lat="45.18245" lon="0.69436">
        <ele>100</ele>
        <time>2025-06-15T10:18:19Z</time>
      </trkpt>
      <trkpt lat="45.18241" lon="0.69442">
        <ele>100</ele>
        <time>2025-06-15T10:18:20Z</time>
      </trkpt>
      <trkpt lat="45.18239" lon="0.69448">
        <ele>100</ele>
        <time>2025-06-15T10:18:21Z</time>
      </trkpt>
      <trkpt lat="45.18236" lon="0.69454">
        <ele>100.4</ele>
        <time>2025-06-15T10:18:22Z</time>
      </trkpt>
      <trkpt lat="45.18234" lon="0.6946">
        <ele>100.4</ele>
        <time>2025-06-15T10:18:23Z</time>
      </trkpt>
      <trkpt lat="45.18232" lon="0.69466">
        <ele>100.6</ele>
        <time>2025-06-15T10:18:24Z</time>
      </trkpt>
      <trkpt lat="45.1823" lon="0.69471">
        <ele>100.6</ele>
        <time>2025-06-15T10:18:25Z</time>
      </trkpt>
      <trkpt lat="45.18229" lon="0.69475">
        <ele>100.6</ele>
        <time>2025-06-15T10:18:26Z</time>
      </trkpt>
      <trkpt lat="45.18229" lon="0.6948">
        <ele>100.8</ele>
        <time>2025-06-15T10:18:27Z</time>
      </trkpt>
      <trkpt lat="45.18229" lon="0.69484">
        <ele>100.8</ele>
        <time>2025-06-15T10:18:28Z</time>
      </trkpt>
      <trkpt lat="45.1823" lon="0.6949">
        <ele>100.8</ele>
        <time>2025-06-15T10:18:29Z</time>
      </trkpt>
      <trkpt lat="45.18232" lon="0.69497">
        <ele>101</ele>
        <time>2025-06-15T10:18:30Z</time>
      </trkpt>
      <trkpt lat="45.18234" lon="0.69504">
        <ele>101</ele>
        <time>2025-06-15T10:18:31Z</time>
      </trkpt>
      <trkpt lat="45.18237" lon="0.69511">
        <ele>101.2</ele>
        <time>2025-06-15T10:18:32Z</time>
      </trkpt>
      <trkpt lat="45.18241" lon="0.69518">
        <ele>101.2</ele>
        <time>2025-06-15T10:18:33Z</time>
      </trkpt>
      <trkpt lat="45.18245" lon="0.69524">
        <ele>101.2</ele>
        <time>2025-06-15T10:18:34Z</time>
      </trkpt>
      <trkpt lat="45.1825" lon="0.6953">
        <ele>101.2</ele>
        <time>2025-06-15T10:18:35Z</time>
      </trkpt>
      <trkpt lat="45.18256" lon="0.69536">
        <ele>101.2</ele>
        <time>2025-06-15T10:18:36Z</time>
      </trkpt>
      <trkpt lat="45.18262" lon="0.69541">
        <ele>101.2</ele>
        <time>2025-06-15T10:18:37Z</time>
      </trkpt>
      <trkpt lat="45.18268" lon="0.69545">
        <ele>101.4</ele>
        <time>2025-06-15T10:18:38Z</time>
      </trkpt>
      <trkpt lat="45.18273" lon="0.6955">
        <ele>101.4</ele>
        <time>2025-06-15T10:18:39Z</time>
      </trkpt>
      <trkpt lat="45.18279" lon="0.69555">
        <ele>101.4</ele>
        <time>2025-06-15T10:18:40Z</time>
      </trkpt>
      <trkpt lat="45.18285" lon="0.69559">
        <ele>101.4</ele>
        <time>2025-06-15T10:18:41Z</time>
      </trkpt>
      <trkpt lat="45.18291" lon="0.69563">
        <ele>101.4</ele>
        <time>2025-06-15T10:18:42Z</time>
      </trkpt>
      <trkpt lat="45.18298" lon="0.69567">
        <ele>101.4</ele>
        <time>2025-06-15T10:18:43Z</time>
      </trkpt>
      <trkpt lat="45.18304" lon="0.69572">
        <ele>101.6</ele>
        <time>2025-06-15T10:18:44Z</time>
      </trkpt>
      <trkpt lat="45.1831" lon="0.69577">
        <ele>101.6</ele>
        <time>2025-06-15T10:18:45Z</time>
      </trkpt>
      <trkpt lat="45.18316" lon="0.69582">
        <ele>101.6</ele>
        <time>2025-06-15T10:18:46Z</time>
      </trkpt>
      <trkpt lat="45.18322" lon="0.69588">
        <ele>101.4</ele>
        <time>2025-06-15T10:18:47Z</time>
      </trkpt>
      <trkpt lat="45.18327" lon="0.69594">
        <ele>101.4</ele>
        <time>2025-06-15T10:18:48Z</time>
      </trkpt>
      <trkpt lat="45.18333" lon="0.696">
        <ele>101.4</ele>
        <time>2025-06-15T10:18:49Z</time>
      </trkpt>
      <trkpt lat="45.18339" lon="0.69607">
        <ele>101.4</ele>
        <time>2025-06-15T10:18:50Z</time>
      </trkpt>
      <trkpt lat="45.18346" lon="0.69613">
        <ele>101.4</ele>
        <time>2025-06-15T10:18:51Z</time>
      </trkpt>
      <trkpt lat="45.18352" lon="0.6962">
        <ele>101.2</ele>
        <time>2025-06-15T10:18:52Z</time>
      </trkpt>
      <trkpt lat="45.18359" lon="0.69627">
        <ele>101.2</ele>
        <time>2025-06-15T10:18:53Z</time>
      </trkpt>
      <trkpt lat="45.18367" lon="0.69634">
        <ele>101.2</ele>
        <time>2025-06-15T10:18:54Z</time>
      </trkpt>
      <trkpt lat="45.18375" lon="0.69639">
        <ele>101.4</ele>
        <time>2025-06-15T10:18:55Z</time>
      </trkpt>
      <trkpt lat="45.18384" lon="0.69643">
        <ele>101.4</ele>
        <time>2025-06-15T10:18:56Z</time>
      </trkpt>
      <trkpt lat="45.18393" lon="0.69647">
        <ele>101.6</ele>
        <time>2025-06-15T10:18:57Z</time>
      </trkpt>
      <trkpt lat="45.18403" lon="0.69651">
        <ele>101.6</ele>
        <time>2025-06-15T10:18:58Z</time>
      </trkpt>
      <trkpt lat="45.18414" lon="0.69653">
        <ele>101.6</ele>
        <time>2025-06-15T10:18:59Z</time>
      </trkpt>
      <trkpt lat="45.18424" lon="0.69657">
        <ele>101.6</ele>
        <time>2025-06-15T10:19:00Z</time>
      </trkpt>
      <trkpt lat="45.18434" lon="0.69662">
        <ele>101.8</ele>
        <time>2025-06-15T10:19:01Z</time>
      </trkpt>
      <trkpt lat="45.18444" lon="0.6967">
        <ele>101.8</ele>
        <time>2025-06-15T10:19:02Z</time>
      </trkpt>
      <trkpt lat="45.18453" lon="0.69677">
        <ele>101.6</ele>
        <time>2025-06-15T10:19:03Z</time>
      </trkpt>
      <trkpt lat="45.18461" lon="0.69683">
        <ele>101.6</ele>
        <time>2025-06-15T10:19:04Z</time>
      </trkpt>
      <trkpt lat="45.18469" lon="0.69689">
        <ele>101.6</ele>
        <time>2025-06-15T10:19:05Z</time>
      </trkpt>
      <trkpt lat="45.18477" lon="0.69693">
        <ele>101.6</ele>
        <time>2025-06-15T10:19:06Z</time>
      </trkpt>
      <trkpt lat="45.18483" lon="0.69695">
        <ele>101.6</ele>
        <time>2025-06-15T10:19:07Z</time>
      </trkpt>
      <trkpt lat="45.18489" lon="0.69696">
        <ele>101.8</ele>
        <time>2025-06-15T10:19:08Z</time>
      </trkpt>
      <trkpt lat="45.18495" lon="0.69698">
        <ele>101.8</ele>
        <time>2025-06-15T10:19:09Z</time>
      </trkpt>
      <trkpt lat="45.18499" lon="0.69699">
        <ele>101.6</ele>
        <time>2025-06-15T10:19:10Z</time>
      </trkpt>
      <trkpt lat="45.18503" lon="0.69699">
        <ele>101.6</ele>
        <time>2025-06-15T10:19:11Z</time>
      </trkpt>
      <trkpt lat="45.18506" lon="0.69697">
        <ele>101.8</ele>
        <time>2025-06-15T10:19:12Z</time>
      </trkpt>
      <trkpt lat="45.18508" lon="0.69692">
        <ele>101.8</ele>
        <time>2025-06-15T10:19:13Z</time>
      </trkpt>
      <trkpt lat="45.18508" lon="0.69686">
        <ele>101.6</ele>
        <time>2025-06-15T10:19:14Z</time>
      </trkpt>
      <trkpt lat="45.18507" lon="0.69679">
        <ele>101.6</ele>
        <time>2025-06-15T10:19:15Z</time>
      </trkpt>
      <trkpt lat="45.18506" lon="0.69671">
        <ele>101.6</ele>
        <time>2025-06-15T10:19:16Z</time>
      </trkpt>
      <trkpt lat="45.18506" lon="0.69663">
        <ele>101.4</ele>
        <time>2025-06-15T10:19:17Z</time>
      </trkpt>
      <trkpt lat="45.18505" lon="0.69654">
        <ele>101.4</ele>
        <time>2025-06-15T10:19:18Z</time>
      </trkpt>
      <trkpt lat="45.18505" lon="0.69645">
        <ele>101.4</ele>
        <time>2025-06-15T10:19:19Z</time>
      </trkpt>
      <trkpt lat="45.18505" lon="0.69637">
        <ele>101.4</ele>
        <time>2025-06-15T10:19:20Z</time>
      </trkpt>
      <trkpt lat="45.18507" lon="0.69628">
        <ele>101.4</ele>
        <time>2025-06-15T10:19:21Z</time>
      </trkpt>
      <trkpt lat="45.18508" lon="0.6962">
        <ele>101.2</ele>
        <time>2025-06-15T10:19:22Z</time>
      </trkpt>
      <trkpt lat="45.18509" lon="0.69612">
        <ele>101.2</ele>
        <time>2025-06-15T10:19:23Z</time>
      </trkpt>
      <trkpt lat="45.18511" lon="0.69604">
        <ele>101.2</ele>
        <time>2025-06-15T10:19:24Z</time>
      </trkpt>
      <trkpt lat="45.18515" lon="0.69599">
        <ele>101.2</ele>
        <time>2025-06-15T10:19:25Z</time>
      </trkpt>
      <trkpt lat="45.18519" lon="0.69597">
        <ele>101.2</ele>
        <time>2025-06-15T10:19:26Z</time>
      </trkpt>
      <trkpt lat="45.18524" lon="0.69596">
        <ele>101.2</ele>
        <time>2025-06-15T10:19:27Z</time>
      </trkpt>
      <trkpt lat="45.1853" lon="0.69595">
        <ele>101.2</ele>
        <time>2025-06-15T10:19:28Z</time>
      </trkpt>
      <trkpt lat="45.18537" lon="0.69595">
        <ele>101.2</ele>
        <time>2025-06-15T10:19:29Z</time>
      </trkpt>
      <trkpt lat="45.18544" lon="0.69596">
        <ele>101.2</ele>
        <time>2025-06-15T10:19:30Z</time>
      </trkpt>
      <trkpt lat="45.1855" lon="0.696">
        <ele>101</ele>
        <time>2025-06-15T10:19:31Z</time>
      </trkpt>
      <trkpt lat="45.18557" lon="0.69605">
        <ele>101</ele>
        <time>2025-06-15T10:19:32Z</time>
      </trkpt>
      <trkpt lat="45.18563" lon="0.6961">
        <ele>101</ele>
        <time>2025-06-15T10:19:33Z</time>
      </trkpt>
      <trkpt lat="45.18569" lon="0.69615">
        <ele>101</ele>
        <time>2025-06-15T10:19:34Z</time>
      </trkpt>
      <trkpt lat="45.18576" lon="0.69621">
        <ele>101</ele>
        <time>2025-06-15T10:19:35Z</time>
      </trkpt>
      <trkpt lat="45.18583" lon="0.69626">
        <ele>101.2</ele>
        <time>2025-06-15T10:19:36Z</time>
      </trkpt>
      <trkpt lat="45.1859" lon="0.6963">
        <ele>101</ele>
        <time>2025-06-15T10:19:37Z</time>
      </trkpt>
      <trkpt lat="45.18596" lon="0.69633">
        <ele>101</ele>
        <time>2025-06-15T10:19:38Z</time>
      </trkpt>
      <trkpt lat="45.18603" lon="0.69636">
        <ele>101</ele>
        <time>2025-06-15T10:19:39Z</time>
      </trkpt>
      <trkpt lat="45.1861" lon="0.69637">
        <ele>101</ele>
        <time>2025-06-15T10:19:40Z</time>
      </trkpt>
      <trkpt lat="45.18616" lon="0.69637">
        <ele>101</ele>
        <time>2025-06-15T10:19:41Z</time>
      </trkpt>
      <trkpt lat="45.18628" lon="0.69637">
        <ele>101</ele>
        <time>2025-06-15T10:19:42Z</time>
      </trkpt>
      <trkpt lat="45.18636" lon="0.69635">
        <ele>101</ele>
        <time>2025-06-15T10:19:43Z</time>
      </trkpt>
      <trkpt lat="45.18644" lon="0.69632">
        <ele>100.8</ele>
        <time>2025-06-15T10:19:44Z</time>
      </trkpt>
      <trkpt lat="45.18651" lon="0.69628">
        <ele>100.8</ele>
        <time>2025-06-15T10:19:45Z</time>
      </trkpt>
      <trkpt lat="45.18659" lon="0.69625">
        <ele>100.6</ele>
        <time>2025-06-15T10:19:46Z</time>
      </trkpt>
      <trkpt lat="45.18666" lon="0.69622">
        <ele>100.6</ele>
        <time>2025-06-15T10:19:47Z</time>
      </trkpt>
      <trkpt lat="45.18674" lon="0.6962">
        <ele>100.4</ele>
        <time>2025-06-15T10:19:48Z</time>
      </trkpt>
      <trkpt lat="45.18681" lon="0.69617">
        <ele>100.4</ele>
        <time>2025-06-15T10:19:49Z</time>
      </trkpt>
      <trkpt lat="45.18689" lon="0.69614">
        <ele>100.4</ele>
        <time>2025-06-15T10:19:50Z</time>
      </trkpt>
      <trkpt lat="45.18696" lon="0.69611">
        <ele>100.4</ele>
        <time>2025-06-15T10:19:51Z</time>
      </trkpt>
      <trkpt lat="45.18703" lon="0.69608">
        <ele>100.4</ele>
        <time>2025-06-15T10:19:52Z</time>
      </trkpt>
      <trkpt lat="45.18711" lon="0.69606">
        <ele>100.4</ele>
        <time>2025-06-15T10:19:53Z</time>
      </trkpt>
      <trkpt lat="45.18718" lon="0.69603">
        <ele>100.2</ele>
        <time>2025-06-15T10:19:54Z</time>
      </trkpt>
      <trkpt lat="45.18726" lon="0.696">
        <ele>100.2</ele>
        <time>2025-06-15T10:19:55Z</time>
      </trkpt>
      <trkpt lat="45.18733" lon="0.69598">
        <ele>100.2</ele>
        <time>2025-06-15T10:19:56Z</time>
      </trkpt>
      <trkpt lat="45.18741" lon="0.69596">
        <ele>100.2</ele>
        <time>2025-06-15T10:19:57Z</time>
      </trkpt>
      <trkpt lat="45.18748" lon="0.69593">
        <ele>100.2</ele>
        <time>2025-06-15T10:19:58Z</time>
      </trkpt>
      <trkpt lat="45.18755" lon="0.6959">
        <ele>100.2</ele>
        <time>2025-06-15T10:19:59Z</time>
      </trkpt>
      <trkpt lat="45.18761" lon="0.69585">
        <ele>100</ele>
        <time>2025-06-15T10:20:00Z</time>
      </trkpt>
      <trkpt lat="45.18766" lon="0.69578">
        <ele>100</ele>
        <time>2025-06-15T10:20:01Z</time>
      </trkpt>
      <trkpt lat="45.18771" lon="0.69572">
        <ele>99.8</ele>
        <time>2025-06-15T10:20:02Z</time>
      </trkpt>
      <trkpt lat="45.18776" lon="0.69568">
        <ele>99.8</ele>
        <time>2025-06-15T10:20:03Z</time>
      </trkpt>
      <trkpt lat="45.1878" lon="0.6957">
        <ele>99.6</ele>
        <time>2025-06-15T10:20:04Z</time>
      </trkpt>
      <trkpt lat="45.18785" lon="0.69574">
        <ele>99.6</ele>
        <time>2025-06-15T10:20:05Z</time>
      </trkpt>
      <trkpt lat="45.18789" lon="0.6958">
        <ele>99.6</ele>
        <time>2025-06-15T10:20:06Z</time>
      </trkpt>
      <trkpt lat="45.18794" lon="0.69587">
        <ele>99.6</ele>
        <time>2025-06-15T10:20:07Z</time>
      </trkpt>
      <trkpt lat="45.18799" lon="0.69594">
        <ele>99.6</ele>
        <time>2025-06-15T10:20:08Z</time>
      </trkpt>
      <trkpt lat="45.18803" lon="0.69602">
        <ele>99.6</ele>
        <time>2025-06-15T10:20:09Z</time>
      </trkpt>
      <trkpt lat="45.18808" lon="0.6961">
        <ele>99.4</ele>
        <time>2025-06-15T10:20:10Z</time>
      </trkpt>
      <trkpt lat="45.18812" lon="0.69618">
        <ele>99.4</ele>
        <time>2025-06-15T10:20:11Z</time>
      </trkpt>
      <trkpt lat="45.18817" lon="0.69625">
        <ele>99.2</ele>
        <time>2025-06-15T10:20:12Z</time>
      </trkpt>
      <trkpt lat="45.18822" lon="0.69631">
        <ele>99</ele>
        <time>2025-06-15T10:20:13Z</time>
      </trkpt>
      <trkpt lat="45.18828" lon="0.69637">
        <ele>99</ele>
        <time>2025-06-15T10:20:14Z</time>
      </trkpt>
      <trkpt lat="45.18834" lon="0.69641">
        <ele>99</ele>
        <time>2025-06-15T10:20:15Z</time>
      </trkpt>
      <trkpt lat="45.18841" lon="0.69645">
        <ele>99</ele>
        <time>2025-06-15T10:20:16Z</time>
      </trkpt>
      <trkpt lat="45.18847" lon="0.69648">
        <ele>98.8</ele>
        <time>2025-06-15T10:20:17Z</time>
      </trkpt>
      <trkpt lat="45.18854" lon="0.69651">
        <ele>98.8</ele>
        <time>2025-06-15T10:20:18Z</time>
      </trkpt>
      <trkpt lat="45.1886" lon="0.69656">
        <ele>98.6</ele>
        <time>2025-06-15T10:20:19Z</time>
      </trkpt>
      <trkpt lat="45.18865" lon="0.69662">
        <ele>98.6</ele>
        <time>2025-06-15T10:20:20Z</time>
      </trkpt>
      <trkpt lat="45.1887" lon="0.69669">
        <ele>98.6</ele>
        <time>2025-06-15T10:20:21Z</time>
      </trkpt>
      <trkpt lat="45.18874" lon="0.69676">
        <ele>98.6</ele>
        <time>2025-06-15T10:20:22Z</time>
      </trkpt>
      <trkpt lat="45.18879" lon="0.69684">
        <ele>98.4</ele>
        <time>2025-06-15T10:20:23Z</time>
      </trkpt>
      <trkpt lat="45.18884" lon="0.69691">
        <ele>98.4</ele>
        <time>2025-06-15T10:20:24Z</time>
      </trkpt>
      <trkpt lat="45.18889" lon="0.69699">
        <ele>98.2</ele>
        <time>2025-06-15T10:20:25Z</time>
      </trkpt>
      <trkpt lat="45.18894" lon="0.69706">
        <ele>98.2</ele>
        <time>2025-06-15T10:20:26Z</time>
      </trkpt>
      <trkpt lat="45.18898" lon="0.69713">
        <ele>98</ele>
        <time>2025-06-15T10:20:27Z</time>
      </trkpt>
      <trkpt lat="45.18903" lon="0.69719">
        <ele>98</ele>
        <time>2025-06-15T10:20:28Z</time>
      </trkpt>
      <trkpt lat="45.18906" lon="0.69727">
        <ele>97.8</ele>
        <time>2025-06-15T10:20:29Z</time>
      </trkpt>
      <trkpt lat="45.1891" lon="0.69736">
        <ele>97.6</ele>
        <time>2025-06-15T10:20:30Z</time>
      </trkpt>
      <trkpt lat="45.18913" lon="0.69745">
        <ele>97.4</ele>
        <time>2025-06-15T10:20:31Z</time>
      </trkpt>
      <trkpt lat="45.18916" lon="0.69752">
        <ele>97.4</ele>
        <time>2025-06-15T10:20:32Z</time>
      </trkpt>
      <trkpt lat="45.1892" lon="0.69758">
        <ele>97.2</ele>
        <time>2025-06-15T10:20:33Z</time>
      </trkpt>
      <trkpt lat="45.18923" lon="0.69762">
        <ele>97</ele>
        <time>2025-06-15T10:20:34Z</time>
      </trkpt>
      <trkpt lat="45.18925" lon="0.69764">
        <ele>97</ele>
        <time>2025-06-15T10:20:35Z</time>
      </trkpt>
      <trkpt lat="45.18927" lon="0.69766">
        <ele>96.8</ele>
        <time>2025-06-15T10:20:36Z</time>
      </trkpt>
      <trkpt lat="45.18928" lon="0.69768">
        <ele>96.8</ele>
        <time>2025-06-15T10:20:37Z</time>
      </trkpt>
      <trkpt lat="45.18929" lon="0.6977">
        <ele>96.8</ele>
        <time>2025-06-15T10:20:38Z</time>
      </trkpt>
      <trkpt lat="45.18931" lon="0.69772">
        <ele>96.6</ele>
        <time>2025-06-15T10:20:39Z</time>
      </trkpt>
      <trkpt lat="45.18933" lon="0.69775">
        <ele>96.6</ele>
        <time>2025-06-15T10:20:40Z</time>
      </trkpt>
      <trkpt lat="45.18936" lon="0.69777">
        <ele>96.4</ele>
        <time>2025-06-15T10:20:41Z</time>
      </trkpt>
      <trkpt lat="45.18941" lon="0.6978">
        <ele>96.4</ele>
        <time>2025-06-15T10:20:42Z</time>
      </trkpt>
      <trkpt lat="45.18946" lon="0.69783">
        <ele>96.2</ele>
        <time>2025-06-15T10:20:43Z</time>
      </trkpt>
      <trkpt lat="45.18953" lon="0.69785">
        <ele>96.2</ele>
        <time>2025-06-15T10:20:44Z</time>
      </trkpt>
      <trkpt lat="45.1896" lon="0.69784">
        <ele>96.2</ele>
        <time>2025-06-15T10:20:45Z</time>
      </trkpt>
      <trkpt lat="45.18967" lon="0.69784">
        <ele>96</ele>
        <time>2025-06-15T10:20:46Z</time>
      </trkpt>
      <trkpt lat="45.18974" lon="0.69784">
        <ele>95.8</ele>
        <time>2025-06-15T10:20:47Z</time>
      </trkpt>
      <trkpt lat="45.18981" lon="0.69783">
        <ele>95.8</ele>
        <time>2025-06-15T10:20:48Z</time>
      </trkpt>
      <trkpt lat="45.18987" lon="0.69783">
        <ele>95.8</ele>
        <time>2025-06-15T10:20:49Z</time>
      </trkpt>
      <trkpt lat="45.18995" lon="0.69783">
        <ele>95.8</ele>
        <time>2025-06-15T10:20:50Z</time>
      </trkpt>
      <trkpt lat="45.19003" lon="0.69783">
        <ele>96</ele>
        <time>2025-06-15T10:20:51Z</time>
      </trkpt>
      <trkpt lat="45.1901" lon="0.69783">
        <ele>96</ele>
        <time>2025-06-15T10:20:52Z</time>
      </trkpt>
      <trkpt lat="45.19017" lon="0.69783">
        <ele>96.2</ele>
        <time>2025-06-15T10:20:53Z</time>
      </trkpt>
      <trkpt lat="45.19024" lon="0.69782">
        <ele>96.2</ele>
        <time>2025-06-15T10:20:54Z</time>
      </trkpt>
      <trkpt lat="45.1903" lon="0.69781">
        <ele>96.2</ele>
        <time>2025-06-15T10:20:55Z</time>
      </trkpt>
      <trkpt lat="45.19035" lon="0.6978">
        <ele>96.4</ele>
        <time>2025-06-15T10:20:56Z</time>
      </trkpt>
      <trkpt lat="45.1904" lon="0.69778">
        <ele>96.4</ele>
        <time>2025-06-15T10:20:57Z</time>
      </trkpt>
      <trkpt lat="45.19046" lon="0.69777">
        <ele>96.4</ele>
        <time>2025-06-15T10:20:58Z</time>
      </trkpt>
      <trkpt lat="45.19053" lon="0.69774">
        <ele>96.6</ele>
        <time>2025-06-15T10:20:59Z</time>
      </trkpt>
      <trkpt lat="45.19061" lon="0.69771">
        <ele>96.4</ele>
        <time>2025-06-15T10:21:00Z</time>
      </trkpt>
      <trkpt lat="45.19068" lon="0.69767">
        <ele>96.6</ele>
        <time>2025-06-15T10:21:01Z</time>
      </trkpt>
      <trkpt lat="45.19074" lon="0.69765">
        <ele>96.8</ele>
        <time>2025-06-15T10:21:02Z</time>
      </trkpt>
      <trkpt lat="45.19081" lon="0.69763">
        <ele>96.8</ele>
        <time>2025-06-15T10:21:03Z</time>
      </trkpt>
      <trkpt lat="45.19087" lon="0.6976">
        <ele>97</ele>
        <time>2025-06-15T10:21:04Z</time>
      </trkpt>
      <trkpt lat="45.19094" lon="0.69758">
        <ele>97.2</ele>
        <time>2025-06-15T10:21:05Z</time>
      </trkpt>
      <trkpt lat="45.191" lon="0.69757">
        <ele>97.4</ele>
        <time>2025-06-15T10:21:06Z</time>
      </trkpt>
      <trkpt lat="45.19106" lon="0.69754">
        <ele>97.4</ele>
        <time>2025-06-15T10:21:07Z</time>
      </trkpt>
      <trkpt lat="45.19111" lon="0.69752">
        <ele>97.6</ele>
        <time>2025-06-15T10:21:08Z</time>
      </trkpt>
      <trkpt lat="45.19116" lon="0.69751">
        <ele>97.8</ele>
        <time>2025-06-15T10:21:09Z</time>
      </trkpt>
      <trkpt lat="45.19121" lon="0.69749">
        <ele>98</ele>
        <time>2025-06-15T10:21:10Z</time>
      </trkpt>
      <trkpt lat="45.19125" lon="0.69748">
        <ele>98.2</ele>
        <time>2025-06-15T10:21:11Z</time>
      </trkpt>
      <trkpt lat="45.19131" lon="0.69746">
        <ele>98.4</ele>
        <time>2025-06-15T10:21:12Z</time>
      </trkpt>
      <trkpt lat="45.19137" lon="0.69745">
        <ele>98.4</ele>
        <time>2025-06-15T10:21:13Z</time>
      </trkpt>
      <trkpt lat="45.19143" lon="0.69744">
        <ele>98.6</ele>
        <time>2025-06-15T10:21:14Z</time>
      </trkpt>
      <trkpt lat="45.19149" lon="0.69742">
        <ele>98.8</ele>
        <time>2025-06-15T10:21:15Z</time>
      </trkpt>
      <trkpt lat="45.19154" lon="0.6974">
        <ele>98.8</ele>
        <time>2025-06-15T10:21:16Z</time>
      </trkpt>
      <trkpt lat="45.19158" lon="0.69739">
        <ele>99</ele>
        <time>2025-06-15T10:21:17Z</time>
      </trkpt>
      <trkpt lat="45.19161" lon="0.69738">
        <ele>99</ele>
        <time>2025-06-15T10:21:18Z</time>
      </trkpt>
      <trkpt lat="45.19165" lon="0.69737">
        <ele>99.2</ele>
        <time>2025-06-15T10:21:19Z</time>
      </trkpt>
      <trkpt lat="45.19168" lon="0.69736">
        <ele>99.2</ele>
        <time>2025-06-15T10:21:20Z</time>
      </trkpt>
      <trkpt lat="45.19171" lon="0.69735">
        <ele>99.4</ele>
        <time>2025-06-15T10:21:21Z</time>
      </trkpt>
      <trkpt lat="45.19175" lon="0.69733">
        <ele>99.4</ele>
        <time>2025-06-15T10:21:22Z</time>
      </trkpt>
      <trkpt lat="45.19178" lon="0.69732">
        <ele>99.6</ele>
        <time>2025-06-15T10:21:23Z</time>
      </trkpt>
      <trkpt lat="45.19182" lon="0.6973">
        <ele>99.6</ele>
        <time>2025-06-15T10:21:24Z</time>
      </trkpt>
      <trkpt lat="45.19185" lon="0.69728">
        <ele>99.8</ele>
        <time>2025-06-15T10:21:25Z</time>
      </trkpt>
      <trkpt lat="45.19188" lon="0.69726">
        <ele>100</ele>
        <time>2025-06-15T10:21:26Z</time>
      </trkpt>
      <trkpt lat="45.19191" lon="0.69723">
        <ele>100</ele>
        <time>2025-06-15T10:21:27Z</time>
      </trkpt>
      <trkpt lat="45.19193" lon="0.6972">
        <ele>100.2</ele>
        <time>2025-06-15T10:21:28Z</time>
      </trkpt>
      <trkpt lat="45.19194" lon="0.69718">
        <ele>100.2</ele>
        <time>2025-06-15T10:21:29Z</time>
      </trkpt>
      <trkpt lat="45.19196" lon="0.69716">
        <ele>100.4</ele>
        <time>2025-06-15T10:21:30Z</time>
      </trkpt>
      <trkpt lat="45.19197" lon="0.69715">
        <ele>100.4</ele>
        <time>2025-06-15T10:21:31Z</time>
      </trkpt>
      <trkpt lat="45.19198" lon="0.69714">
        <ele>100.6</ele>
        <time>2025-06-15T10:21:32Z</time>
      </trkpt>
      <trkpt lat="45.192" lon="0.69713">
        <ele>100.6</ele>
        <time>2025-06-15T10:21:33Z</time>
      </trkpt>
      <trkpt lat="45.19202" lon="0.69712">
        <ele>100.6</ele>
        <time>2025-06-15T10:21:34Z</time>
      </trkpt>
      <trkpt lat="45.19206" lon="0.6971">
        <ele>100.6</ele>
        <time>2025-06-15T10:21:35Z</time>
      </trkpt>
      <trkpt lat="45.19209" lon="0.69709">
        <ele>100.6</ele>
        <time>2025-06-15T10:21:36Z</time>
      </trkpt>
      <trkpt lat="45.19212" lon="0.69707">
        <ele>100.6</ele>
        <time>2025-06-15T10:21:37Z</time>
      </trkpt>
      <trkpt lat="45.19217" lon="0.69708">
        <ele>100.6</ele>
        <time>2025-06-15T10:21:38Z</time>
      </trkpt>
      <trkpt lat="45.1922" lon="0.69707">
        <ele>100.6</ele>
        <time>2025-06-15T10:21:39Z</time>
      </trkpt>
      <trkpt lat="45.19222" lon="0.69705">
        <ele>100.6</ele>
        <time>2025-06-15T10:21:40Z</time>
      </trkpt>
      <trkpt lat="45.19224" lon="0.697">
        <ele>100.6</ele>
        <time>2025-06-15T10:21:41Z</time>
      </trkpt>
      <trkpt lat="45.19225" lon="0.69696">
        <ele>100.4</ele>
        <time>2025-06-15T10:21:42Z</time>
      </trkpt>
      <trkpt lat="45.19228" lon="0.69695">
        <ele>100.4</ele>
        <time>2025-06-15T10:21:43Z</time>
      </trkpt>
      <trkpt lat="45.1923" lon="0.69696">
        <ele>100.4</ele>
        <time>2025-06-15T10:21:44Z</time>
      </trkpt>
      <trkpt lat="45.19232" lon="0.69699">
        <ele>100.2</ele>
        <time>2025-06-15T10:21:45Z</time>
      </trkpt>
      <trkpt lat="45.19233" lon="0.69703">
        <ele>100.2</ele>
        <time>2025-06-15T10:21:46Z</time>
      </trkpt>
      <trkpt lat="45.19234" lon="0.69708">
        <ele>100.2</ele>
        <time>2025-06-15T10:21:47Z</time>
      </trkpt>
      <trkpt lat="45.19235" lon="0.69712">
        <ele>100.2</ele>
        <time>2025-06-15T10:21:48Z</time>
      </trkpt>
      <trkpt lat="45.19236" lon="0.69717">
        <ele>100</ele>
        <time>2025-06-15T10:21:49Z</time>
      </trkpt>
      <trkpt lat="45.19237" lon="0.69723">
        <ele>99.8</ele>
        <time>2025-06-15T10:21:50Z</time>
      </trkpt>
      <trkpt lat="45.19237" lon="0.69728">
        <ele>99.6</ele>
        <time>2025-06-15T10:21:51Z</time>
      </trkpt>
      <trkpt lat="45.19238" lon="0.69733">
        <ele>99.6</ele>
        <time>2025-06-15T10:21:52Z</time>
      </trkpt>
      <trkpt lat="45.19239" lon="0.69738">
        <ele>99.4</ele>
        <time>2025-06-15T10:21:53Z</time>
      </trkpt>
      <trkpt lat="45.19241" lon="0.69744">
        <ele>99.2</ele>
        <time>2025-06-15T10:21:54Z</time>
      </trkpt>
      <trkpt lat="45.19242" lon="0.6975">
        <ele>99</ele>
        <time>2025-06-15T10:21:55Z</time>
      </trkpt>
      <trkpt lat="45.19243" lon="0.69756">
        <ele>98.8</ele>
        <time>2025-06-15T10:21:56Z</time>
      </trkpt>
      <trkpt lat="45.19244" lon="0.69761">
        <ele>98.6</ele>
        <time>2025-06-15T10:21:57Z</time>
      </trkpt>
      <trkpt lat="45.19245" lon="0.69767">
        <ele>98.4</ele>
        <time>2025-06-15T10:21:58Z</time>
      </trkpt>
      <trkpt lat="45.19246" lon="0.69774">
        <ele>98.2</ele>
        <time>2025-06-15T10:21:59Z</time>
      </trkpt>
      <trkpt lat="45.19247" lon="0.6978">
        <ele>97.8</ele>
        <time>2025-06-15T10:22:00Z</time>
      </trkpt>
      <trkpt lat="45.19249" lon="0.69787">
        <ele>97.6</ele>
        <time>2025-06-15T10:22:01Z</time>
      </trkpt>
      <trkpt lat="45.1925" lon="0.69794">
        <ele>97.4</ele>
        <time>2025-06-15T10:22:02Z</time>
      </trkpt>
      <trkpt lat="45.19251" lon="0.69801">
        <ele>97.2</ele>
        <time>2025-06-15T10:22:03Z</time>
      </trkpt>
      <trkpt lat="45.19253" lon="0.69808">
        <ele>96.8</ele>
        <time>2025-06-15T10:22:04Z</time>
      </trkpt>
      <trkpt lat="45.19254" lon="0.69815">
        <ele>96.6</ele>
        <time>2025-06-15T10:22:05Z</time>
      </trkpt>
      <trkpt lat="45.19252" lon="0.69821">
        <ele>96.2</ele>
        <time>2025-06-15T10:22:06Z</time>
      </trkpt>
      <trkpt lat="45.19248" lon="0.69825">
        <ele>96</ele>
        <time>2025-06-15T10:22:07Z</time>
      </trkpt>
      <trkpt lat="45.19244" lon="0.69827">
        <ele>95.8</ele>
        <time>2025-06-15T10:22:08Z</time>
      </trkpt>
      <trkpt lat="45.19239" lon="0.6983">
        <ele>95.6</ele>
        <time>2025-06-15T10:22:09Z</time>
      </trkpt>
      <trkpt lat="45.19233" lon="0.69832">
        <ele>95.4</ele>
        <time>2025-06-15T10:22:10Z</time>
      </trkpt>
      <trkpt lat="45.19229" lon="0.69834">
        <ele>95</ele>
        <time>2025-06-15T10:22:11Z</time>
      </trkpt>
      <trkpt lat="45.19224" lon="0.69836">
        <ele>94.8</ele>
        <time>2025-06-15T10:22:12Z</time>
      </trkpt>
      <trkpt lat="45.19221" lon="0.69838">
        <ele>94.6</ele>
        <time>2025-06-15T10:22:13Z</time>
      </trkpt>
      <trkpt lat="45.19218" lon="0.69837">
        <ele>94.4</ele>
        <time>2025-06-15T10:22:14Z</time>
      </trkpt>
      <trkpt lat="45.19218" lon="0.69835">
        <ele>94.2</ele>
        <time>2025-06-15T10:22:15Z</time>
      </trkpt>
      <trkpt lat="45.19219" lon="0.69833">
        <ele>93.8</ele>
        <time>2025-06-15T10:22:16Z</time>
      </trkpt>
      <trkpt lat="45.19221" lon="0.69832">
        <ele>93.6</ele>
        <time>2025-06-15T10:22:17Z</time>
      </trkpt>
      <trkpt lat="45.19223" lon="0.69831">
        <ele>93.4</ele>
        <time>2025-06-15T10:22:18Z</time>
      </trkpt>
      <trkpt lat="45.19226" lon="0.6983">
        <ele>93.2</ele>
        <time>2025-06-15T10:22:19Z</time>
      </trkpt>
      <trkpt lat="45.1923" lon="0.69828">
        <ele>93</ele>
        <time>2025-06-15T10:22:20Z</time>
      </trkpt>
      <trkpt lat="45.19233" lon="0.69826">
        <ele>92.8</ele>
        <time>2025-06-15T10:22:21Z</time>
      </trkpt>
      <trkpt lat="45.19237" lon="0.69824">
        <ele>92.6</ele>
        <time>2025-06-15T10:22:22Z</time>
      </trkpt>
      <trkpt lat="45.19241" lon="0.69823">
        <ele>92.4</ele>
        <time>2025-06-15T10:22:23Z</time>
      </trkpt>
      <trkpt lat="45.19245" lon="0.69822">
        <ele>92.4</ele>
        <time>2025-06-15T10:22:24Z</time>
      </trkpt>
      <trkpt lat="45.1925" lon="0.69822">
        <ele>92.2</ele>
        <time>2025-06-15T10:22:25Z</time>
      </trkpt>
      <trkpt lat="45.19255" lon="0.69819">
        <ele>92.2</ele>
        <time>2025-06-15T10:22:26Z</time>
      </trkpt>
      <trkpt lat="45.1926" lon="0.69816">
        <ele>92</ele>
        <time>2025-06-15T10:22:27Z</time>
      </trkpt>
      <trkpt lat="45.19265" lon="0.69813">
        <ele>91.8</ele>
        <time>2025-06-15T10:22:28Z</time>
      </trkpt>
      <trkpt lat="45.19269" lon="0.6981">
        <ele>91.6</ele>
        <time>2025-06-15T10:22:29Z</time>
      </trkpt>
      <trkpt lat="45.19274" lon="0.69808">
        <ele>91.4</ele>
        <time>2025-06-15T10:22:30Z</time>
      </trkpt>
      <trkpt lat="45.19279" lon="0.69806">
        <ele>91</ele>
        <time>2025-06-15T10:22:31Z</time>
      </trkpt>
      <trkpt lat="45.19284" lon="0.69804">
        <ele>90.8</ele>
        <time>2025-06-15T10:22:32Z</time>
      </trkpt>
      <trkpt lat="45.19288" lon="0.69802">
        <ele>90.4</ele>
        <time>2025-06-15T10:22:33Z</time>
      </trkpt>
      <trkpt lat="45.19293" lon="0.69801">
        <ele>90</ele>
        <time>2025-06-15T10:22:34Z</time>
      </trkpt>
      <trkpt lat="45.19298" lon="0.69799">
        <ele>89.6</ele>
        <time>2025-06-15T10:22:35Z</time>
      </trkpt>
      <trkpt lat="45.19303" lon="0.69797">
        <ele>89.2</ele>
        <time>2025-06-15T10:22:36Z</time>
      </trkpt>
      <trkpt lat="45.19308" lon="0.69796">
        <ele>88.8</ele>
        <time>2025-06-15T10:22:37Z</time>
      </trkpt>
      <trkpt lat="45.19312" lon="0.69795">
        <ele>88.2</ele>
        <time>2025-06-15T10:22:38Z</time>
      </trkpt>
      <trkpt lat="45.19317" lon="0.69795">
        <ele>87.8</ele>
        <time>2025-06-15T10:22:39Z</time>
      </trkpt>
      <trkpt lat="45.19322" lon="0.69795">
        <ele>87.4</ele>
        <time>2025-06-15T10:22:40Z</time>
      </trkpt>
      <trkpt lat="45.19327" lon="0.69794">
        <ele>87</ele>
        <time>2025-06-15T10:22:41Z</time>
      </trkpt>
      <trkpt lat="45.19332" lon="0.69792">
        <ele>86.6</ele>
        <time>2025-06-15T10:22:42Z</time>
      </trkpt>
      <trkpt lat="45.19337" lon="0.6979">
        <ele>86.4</ele>
        <time>2025-06-15T10:22:43Z</time>
      </trkpt>
      <trkpt lat="45.19342" lon="0.69789">
        <ele>85.8</ele>
        <time>2025-06-15T10:22:44Z</time>
      </trkpt>
      <trkpt lat="45.19346" lon="0.69787">
        <ele>85.6</ele>
        <time>2025-06-15T10:22:45Z</time>
      </trkpt>
      <trkpt lat="45.19351" lon="0.69785">
        <ele>85.2</ele>
        <time>2025-06-15T10:22:46Z</time>
      </trkpt>
      <trkpt lat="45.19356" lon="0.69784">
        <ele>84.8</ele>
        <time>2025-06-15T10:22:47Z</time>
      </trkpt>
      <trkpt lat="45.19361" lon="0.69782">
        <ele>84.4</ele>
        <time>2025-06-15T10:22:48Z</time>
      </trkpt>
      <trkpt lat="45.19366" lon="0.69781">
        <ele>84.2</ele>
        <time>2025-06-15T10:22:49Z</time>
      </trkpt>
      <trkpt lat="45.19371" lon="0.69779">
        <ele>83.8</ele>
        <time>2025-06-15T10:22:50Z</time>
      </trkpt>
      <trkpt lat="45.19377" lon="0.69777">
        <ele>83.4</ele>
        <time>2025-06-15T10:22:51Z</time>
      </trkpt>
      <trkpt lat="45.19382" lon="0.69775">
        <ele>83.2</ele>
        <time>2025-06-15T10:22:52Z</time>
      </trkpt>
      <trkpt lat="45.19387" lon="0.69773">
        <ele>82.8</ele>
        <time>2025-06-15T10:22:53Z</time>
      </trkpt>
      <trkpt lat="45.19392" lon="0.6977">
        <ele>82.6</ele>
        <time>2025-06-15T10:22:54Z</time>
      </trkpt>
      <trkpt lat="45.19397" lon="0.69768">
        <ele>82.4</ele>
        <time>2025-06-15T10:22:55Z</time>
      </trkpt>
      <trkpt lat="45.19402" lon="0.69765">
        <ele>82.2</ele>
        <time>2025-06-15T10:22:56Z</time>
      </trkpt>
      <trkpt lat="45.19406" lon="0.69763">
        <ele>82</ele>
        <time>2025-06-15T10:22:57Z</time>
      </trkpt>
      <trkpt lat="45.19411" lon="0.6976">
        <ele>81.8</ele>
        <time>2025-06-15T10:22:58Z</time>
      </trkpt>
      <trkpt lat="45.19417" lon="0.69758">
        <ele>81.6</ele>
        <time>2025-06-15T10:22:59Z</time>
      </trkpt>
      <trkpt lat="45.19422" lon="0.69755">
        <ele>81.4</ele>
        <time>2025-06-15T10:23:00Z</time>
      </trkpt>
      <trkpt lat="45.19427" lon="0.69753">
        <ele>81.2</ele>
        <time>2025-06-15T10:23:01Z</time>
      </trkpt>
      <trkpt lat="45.19433" lon="0.6975">
        <ele>81</ele>
        <time>2025-06-15T10:23:02Z</time>
      </trkpt>
      <trkpt lat="45.19439" lon="0.69747">
        <ele>80.8</ele>
        <time>2025-06-15T10:23:03Z</time>
      </trkpt>
      <trkpt lat="45.19444" lon="0.69745">
        <ele>80.6</ele>
        <time>2025-06-15T10:23:04Z</time>
      </trkpt>
      <trkpt lat="45.1945" lon="0.69742">
        <ele>80.2</ele>
        <time>2025-06-15T10:23:05Z</time>
      </trkpt>
      <trkpt lat="45.19455" lon="0.69739">
        <ele>80</ele>
        <time>2025-06-15T10:23:06Z</time>
      </trkpt>
      <trkpt lat="45.19461" lon="0.69737">
        <ele>79.8</ele>
        <time>2025-06-15T10:23:07Z</time>
      </trkpt>
      <trkpt lat="45.19466" lon="0.69734">
        <ele>79.6</ele>
        <time>2025-06-15T10:23:08Z</time>
      </trkpt>
      <trkpt lat="45.19472" lon="0.69731">
        <ele>79.6</ele>
        <time>2025-06-15T10:23:09Z</time>
      </trkpt>
      <trkpt lat="45.19478" lon="0.69729">
        <ele>79.4</ele>
        <time>2025-06-15T10:23:10Z</time>
      </trkpt>
      <trkpt lat="45.19483" lon="0.69726">
        <ele>79.2</ele>
        <time>2025-06-15T10:23:11Z</time>
      </trkpt>
      <trkpt lat="45.19489" lon="0.69724">
        <ele>79.2</ele>
        <time>2025-06-15T10:23:12Z</time>
      </trkpt>
      <trkpt lat="45.19494" lon="0.6972">
        <ele>79</ele>
        <time>2025-06-15T10:23:13Z</time>
      </trkpt>
      <trkpt lat="45.19499" lon="0.69718">
        <ele>78.8</ele>
        <time>2025-06-15T10:23:14Z</time>
      </trkpt>
      <trkpt lat="45.19504" lon="0.69715">
        <ele>78.6</ele>
        <time>2025-06-15T10:23:15Z</time>
      </trkpt>
      <trkpt lat="45.1951" lon="0.69712">
        <ele>78.4</ele>
        <time>2025-06-15T10:23:16Z</time>
      </trkpt>
      <trkpt lat="45.19515" lon="0.6971">
        <ele>78.2</ele>
        <time>2025-06-15T10:23:17Z</time>
      </trkpt>
      <trkpt lat="45.19521" lon="0.69707">
        <ele>78.2</ele>
        <time>2025-06-15T10:23:18Z</time>
      </trkpt>
      <trkpt lat="45.19527" lon="0.69704">
        <ele>78</ele>
        <time>2025-06-15T10:23:19Z</time>
      </trkpt>
      <trkpt lat="45.19533" lon="0.69701">
        <ele>78</ele>
        <time>2025-06-15T10:23:20Z</time>
      </trkpt>
      <trkpt lat="45.19539" lon="0.69699">
        <ele>77.8</ele>
        <time>2025-06-15T10:23:21Z</time>
      </trkpt>
      <trkpt lat="45.19545" lon="0.69696">
        <ele>77.8</ele>
        <time>2025-06-15T10:23:22Z</time>
      </trkpt>
      <trkpt lat="45.19551" lon="0.69693">
        <ele>77.8</ele>
        <time>2025-06-15T10:23:23Z</time>
      </trkpt>
      <trkpt lat="45.19557" lon="0.69691">
        <ele>77.8</ele>
        <time>2025-06-15T10:23:24Z</time>
      </trkpt>
      <trkpt lat="45.19563" lon="0.69689">
        <ele>77.6</ele>
        <time>2025-06-15T10:23:25Z</time>
      </trkpt>
      <trkpt lat="45.19569" lon="0.69687">
        <ele>77.6</ele>
        <time>2025-06-15T10:23:26Z</time>
      </trkpt>
      <trkpt lat="45.19575" lon="0.69684">
        <ele>77.6</ele>
        <time>2025-06-15T10:23:27Z</time>
      </trkpt>
      <trkpt lat="45.19581" lon="0.69682">
        <ele>77.6</ele>
        <time>2025-06-15T10:23:28Z</time>
      </trkpt>
      <trkpt lat="45.19587" lon="0.6968">
        <ele>77.6</ele>
        <time>2025-06-15T10:23:29Z</time>
      </trkpt>
      <trkpt lat="45.19593" lon="0.69677">
        <ele>77.6</ele>
        <time>2025-06-15T10:23:30Z</time>
      </trkpt>
      <trkpt lat="45.19598" lon="0.69674">
        <ele>77.4</ele>
        <time>2025-06-15T10:23:31Z</time>
      </trkpt>
      <trkpt lat="45.19604" lon="0.69672">
        <ele>77.4</ele>
        <time>2025-06-15T10:23:32Z</time>
      </trkpt>
      <trkpt lat="45.1961" lon="0.69669">
        <ele>77.4</ele>
        <time>2025-06-15T10:23:33Z</time>
      </trkpt>
      <trkpt lat="45.19614" lon="0.69666">
        <ele>77.4</ele>
        <time>2025-06-15T10:23:34Z</time>
      </trkpt>
      <trkpt lat="45.1962" lon="0.69663">
        <ele>77.4</ele>
        <time>2025-06-15T10:23:35Z</time>
      </trkpt>
      <trkpt lat="45.19626" lon="0.6966">
        <ele>77.2</ele>
        <time>2025-06-15T10:23:36Z</time>
      </trkpt>
      <trkpt lat="45.19632" lon="0.69657">
        <ele>77.2</ele>
        <time>2025-06-15T10:23:37Z</time>
      </trkpt>
      <trkpt lat="45.19638" lon="0.69654">
        <ele>77.2</ele>
        <time>2025-06-15T10:23:38Z</time>
      </trkpt>
      <trkpt lat="45.19644" lon="0.69649">
        <ele>77</ele>
        <time>2025-06-15T10:23:39Z</time>
      </trkpt>
      <trkpt lat="45.1965" lon="0.69645">
        <ele>77</ele>
        <time>2025-06-15T10:23:40Z</time>
      </trkpt>
      <trkpt lat="45.19656" lon="0.69641">
        <ele>77</ele>
        <time>2025-06-15T10:23:41Z</time>
      </trkpt>
      <trkpt lat="45.19662" lon="0.69638">
        <ele>76.8</ele>
        <time>2025-06-15T10:23:42Z</time>
      </trkpt>
      <trkpt lat="45.19668" lon="0.69634">
        <ele>76.8</ele>
        <time>2025-06-15T10:23:43Z</time>
      </trkpt>
      <trkpt lat="45.19674" lon="0.69631">
        <ele>76.8</ele>
        <time>2025-06-15T10:23:44Z</time>
      </trkpt>
      <trkpt lat="45.19681" lon="0.69628">
        <ele>76.6</ele>
        <time>2025-06-15T10:23:45Z</time>
      </trkpt>
      <trkpt lat="45.19687" lon="0.69625">
        <ele>76.6</ele>
        <time>2025-06-15T10:23:46Z</time>
      </trkpt>
      <trkpt lat="45.19693" lon="0.69622">
        <ele>76.6</ele>
        <time>2025-06-15T10:23:47Z</time>
      </trkpt>
      <trkpt lat="45.19699" lon="0.69619">
        <ele>76.4</ele>
        <time>2025-06-15T10:23:48Z</time>
      </trkpt>
      <trkpt lat="45.19706" lon="0.69616">
        <ele>76.4</ele>
        <time>2025-06-15T10:23:49Z</time>
      </trkpt>
      <trkpt lat="45.19712" lon="0.69613">
        <ele>76.2</ele>
        <time>2025-06-15T10:23:50Z</time>
      </trkpt>
      <trkpt lat="45.19718" lon="0.69609">
        <ele>76.2</ele>
        <time>2025-06-15T10:23:51Z</time>
      </trkpt>
      <trkpt lat="45.19724" lon="0.69606">
        <ele>76</ele>
        <time>2025-06-15T10:23:52Z</time>
      </trkpt>
      <trkpt lat="45.1973" lon="0.69604">
        <ele>76</ele>
        <time>2025-06-15T10:23:53Z</time>
      </trkpt>
      <trkpt lat="45.19736" lon="0.69601">
        <ele>76</ele>
        <time>2025-06-15T10:23:54Z</time>
      </trkpt>
      <trkpt lat="45.19742" lon="0.69598">
        <ele>76</ele>
        <time>2025-06-15T10:23:55Z</time>
      </trkpt>
      <trkpt lat="45.19748" lon="0.69595">
        <ele>76</ele>
        <time>2025-06-15T10:23:56Z</time>
      </trkpt>
      <trkpt lat="45.19754" lon="0.69592">
        <ele>75.8</ele>
        <time>2025-06-15T10:23:57Z</time>
      </trkpt>
      <trkpt lat="45.1976" lon="0.69589">
        <ele>76</ele>
        <time>2025-06-15T10:23:58Z</time>
      </trkpt>
      <trkpt lat="45.19766" lon="0.69586">
        <ele>76</ele>
        <time>2025-06-15T10:23:59Z</time>
      </trkpt>
      <trkpt lat="45.19772" lon="0.69584">
        <ele>75.8</ele>
        <time>2025-06-15T10:24:00Z</time>
      </trkpt>
      <trkpt lat="45.19778" lon="0.69581">
        <ele>75.8</ele>
        <time>2025-06-15T10:24:01Z</time>
      </trkpt>
      <trkpt lat="45.19784" lon="0.69578">
        <ele>75.8</ele>
        <time>2025-06-15T10:24:02Z</time>
      </trkpt>
      <trkpt lat="45.1979" lon="0.69575">
        <ele>75.8</ele>
        <time>2025-06-15T10:24:03Z</time>
      </trkpt>
      <trkpt lat="45.19796" lon="0.69572">
        <ele>75.8</ele>
        <time>2025-06-15T10:24:04Z</time>
      </trkpt>
      <trkpt lat="45.19801" lon="0.69569">
        <ele>75.8</ele>
        <time>2025-06-15T10:24:05Z</time>
      </trkpt>
      <trkpt lat="45.19807" lon="0.69566">
        <ele>75.8</ele>
        <time>2025-06-15T10:24:06Z</time>
      </trkpt>
      <trkpt lat="45.19813" lon="0.69563">
        <ele>75.8</ele>
        <time>2025-06-15T10:24:07Z</time>
      </trkpt>
      <trkpt lat="45.19818" lon="0.6956">
        <ele>75.8</ele>
        <time>2025-06-15T10:24:08Z</time>
      </trkpt>
      <trkpt lat="45.19824" lon="0.69557">
        <ele>75.8</ele>
        <time>2025-06-15T10:24:09Z</time>
      </trkpt>
      <trkpt lat="45.19829" lon="0.69554">
        <ele>75.8</ele>
        <time>2025-06-15T10:24:10Z</time>
      </trkpt>
      <trkpt lat="45.19834" lon="0.6955">
        <ele>75.8</ele>
        <time>2025-06-15T10:24:11Z</time>
      </trkpt>
      <trkpt lat="45.19839" lon="0.69547">
        <ele>75.8</ele>
        <time>2025-06-15T10:24:12Z</time>
      </trkpt>
      <trkpt lat="45.19845" lon="0.69543">
        <ele>75.8</ele>
        <time>2025-06-15T10:24:13Z</time>
      </trkpt>
      <trkpt lat="45.1985" lon="0.69539">
        <ele>75.8</ele>
        <time>2025-06-15T10:24:14Z</time>
      </trkpt>
      <trkpt lat="45.19855" lon="0.69535">
        <ele>75.6</ele>
        <time>2025-06-15T10:24:15Z</time>
      </trkpt>
      <trkpt lat="45.19861" lon="0.69531">
        <ele>75.6</ele>
        <time>2025-06-15T10:24:16Z</time>
      </trkpt>
      <trkpt lat="45.19866" lon="0.69528">
        <ele>75.6</ele>
        <time>2025-06-15T10:24:17Z</time>
      </trkpt>
      <trkpt lat="45.19871" lon="0.69524">
        <ele>75.6</ele>
        <time>2025-06-15T10:24:18Z</time>
      </trkpt>
      <trkpt lat="45.19877" lon="0.69523">
        <ele>75.6</ele>
        <time>2025-06-15T10:24:19Z</time>
      </trkpt>
      <trkpt lat="45.19881" lon="0.69525">
        <ele>75.6</ele>
        <time>2025-06-15T10:24:20Z</time>
      </trkpt>
      <trkpt lat="45.19883" lon="0.69528">
        <ele>75.6</ele>
        <time>2025-06-15T10:24:21Z</time>
      </trkpt>
      <trkpt lat="45.19884" lon="0.69532">
        <ele>75.6</ele>
        <time>2025-06-15T10:24:22Z</time>
      </trkpt>
      <trkpt lat="45.19883" lon="0.69534">
        <ele>75.8</ele>
        <time>2025-06-15T10:24:23Z</time>
      </trkpt>
      <trkpt lat="45.19883" lon="0.6954">
        <ele>75.8</ele>
        <time>2025-06-15T10:24:24Z</time>
      </trkpt>
      <trkpt lat="45.19881" lon="0.69545">
        <ele>76</ele>
        <time>2025-06-15T10:24:25Z</time>
      </trkpt>
      <trkpt lat="45.19878" lon="0.69549">
        <ele>76.2</ele>
        <time>2025-06-15T10:24:26Z</time>
      </trkpt>
      <trkpt lat="45.19875" lon="0.69554">
        <ele>76.2</ele>
        <time>2025-06-15T10:24:27Z</time>
      </trkpt>
      <trkpt lat="45.19873" lon="0.69561">
        <ele>76.4</ele>
        <time>2025-06-15T10:24:28Z</time>
      </trkpt>
      <trkpt lat="45.19873" lon="0.69568">
        <ele>76.6</ele>
        <time>2025-06-15T10:24:29Z</time>
      </trkpt>
      <trkpt lat="45.19871" lon="0.69576">
        <ele>76.6</ele>
        <time>2025-06-15T10:24:30Z</time>
      </trkpt>
      <trkpt lat="45.19868" lon="0.69584">
        <ele>76.8</ele>
        <time>2025-06-15T10:24:31Z</time>
      </trkpt>
      <trkpt lat="45.19864" lon="0.69591">
        <ele>76.8</ele>
        <time>2025-06-15T10:24:32Z</time>
      </trkpt>
      <trkpt lat="45.19861" lon="0.69599">
        <ele>77</ele>
        <time>2025-06-15T10:24:33Z</time>
      </trkpt>
      <trkpt lat="45.1986" lon="0.69607">
        <ele>77</ele>
        <time>2025-06-15T10:24:34Z</time>
      </trkpt>
      <trkpt lat="45.19861" lon="0.69615">
        <ele>77</ele>
        <time>2025-06-15T10:24:35Z</time>
      </trkpt>
      <trkpt lat="45.19863" lon="0.69623">
        <ele>77.2</ele>
        <time>2025-06-15T10:24:36Z</time>
      </trkpt>
      <trkpt lat="45.19863" lon="0.6963">
        <ele>77.2</ele>
        <time>2025-06-15T10:24:37Z</time>
      </trkpt>
      <trkpt lat="45.19862" lon="0.69638">
        <ele>77.4</ele>
        <time>2025-06-15T10:24:38Z</time>
      </trkpt>
      <trkpt lat="45.19861" lon="0.69646">
        <ele>77.4</ele>
        <time>2025-06-15T10:24:39Z</time>
      </trkpt>
      <trkpt lat="45.19858" lon="0.69654">
        <ele>77.6</ele>
        <time>2025-06-15T10:24:40Z</time>
      </trkpt>
      <trkpt lat="45.19856" lon="0.69661">
        <ele>77.6</ele>
        <time>2025-06-15T10:24:41Z</time>
      </trkpt>
      <trkpt lat="45.19853" lon="0.69668">
        <ele>77.8</ele>
        <time>2025-06-15T10:24:42Z</time>
      </trkpt>
      <trkpt lat="45.19851" lon="0.69675">
        <ele>77.8</ele>
        <time>2025-06-15T10:24:43Z</time>
      </trkpt>
      <trkpt lat="45.19849" lon="0.6968">
        <ele>78</ele>
        <time>2025-06-15T10:24:44Z</time>
      </trkpt>
      <trkpt lat="45.19847" lon="0.69685">
        <ele>78</ele>
        <time>2025-06-15T10:24:45Z</time>
      </trkpt>
      <trkpt lat="45.19845" lon="0.69689">
        <ele>78</ele>
        <time>2025-06-15T10:24:46Z</time>
      </trkpt>
      <trkpt lat="45.19844" lon="0.69694">
        <ele>78</ele>
        <time>2025-06-15T10:24:47Z</time>
      </trkpt>
      <trkpt lat="45.19845" lon="0.69698">
        <ele>78</ele>
        <time>2025-06-15T10:24:48Z</time>
      </trkpt>
      <trkpt lat="45.19846" lon="0.69702">
        <ele>78.2</ele>
        <time>2025-06-15T10:24:49Z</time>
      </trkpt>
      <trkpt lat="45.19847" lon="0.69707">
        <ele>78.2</ele>
        <time>2025-06-15T10:24:50Z</time>
      </trkpt>
      <trkpt lat="45.19849" lon="0.69713">
        <ele>78.4</ele>
        <time>2025-06-15T10:24:51Z</time>
      </trkpt>
      <trkpt lat="45.19851" lon="0.69719">
        <ele>78.4</ele>
        <time>2025-06-15T10:24:52Z</time>
      </trkpt>
      <trkpt lat="45.19853" lon="0.69724">
        <ele>78.4</ele>
        <time>2025-06-15T10:24:53Z</time>
      </trkpt>
      <trkpt lat="45.19855" lon="0.6973">
        <ele>78.4</ele>
        <time>2025-06-15T10:24:54Z</time>
      </trkpt>
      <trkpt lat="45.19857" lon="0.69736">
        <ele>78.6</ele>
        <time>2025-06-15T10:24:55Z</time>
      </trkpt>
      <trkpt lat="45.1986" lon="0.69742">
        <ele>78.6</ele>
        <time>2025-06-15T10:24:56Z</time>
      </trkpt>
      <trkpt lat="45.19862" lon="0.69748">
        <ele>78.6</ele>
        <time>2025-06-15T10:24:57Z</time>
      </trkpt>
      <trkpt lat="45.19864" lon="0.69754">
        <ele>78.8</ele>
        <time>2025-06-15T10:24:58Z</time>
      </trkpt>
      <trkpt lat="45.19866" lon="0.6976">
        <ele>78.8</ele>
        <time>2025-06-15T10:24:59Z</time>
      </trkpt>
      <trkpt lat="45.19868" lon="0.69765">
        <ele>78.8</ele>
        <time>2025-06-15T10:25:00Z</time>
      </trkpt>
      <trkpt lat="45.19871" lon="0.69771">
        <ele>78.8</ele>
        <time>2025-06-15T10:25:01Z</time>
      </trkpt>
      <trkpt lat="45.19873" lon="0.69776">
        <ele>78.8</ele>
        <time>2025-06-15T10:25:02Z</time>
      </trkpt>
      <trkpt lat="45.19875" lon="0.6978">
        <ele>78.8</ele>
        <time>2025-06-15T10:25:03Z</time>
      </trkpt>
      <trkpt lat="45.19877" lon="0.69785">
        <ele>78.8</ele>
        <time>2025-06-15T10:25:04Z</time>
      </trkpt>
      <trkpt lat="45.19879" lon="0.69789">
        <ele>78.8</ele>
        <time>2025-06-15T10:25:05Z</time>
      </trkpt>
      <trkpt lat="45.1988" lon="0.69793">
        <ele>78.8</ele>
        <time>2025-06-15T10:25:06Z</time>
      </trkpt>
      <trkpt lat="45.1988" lon="0.69797">
        <ele>79</ele>
        <time>2025-06-15T10:25:07Z</time>
      </trkpt>
      <trkpt lat="45.19879" lon="0.69801">
        <ele>79</ele>
        <time>2025-06-15T10:25:08Z</time>
      </trkpt>
      <trkpt lat="45.19877" lon="0.69804">
        <ele>79</ele>
        <time>2025-06-15T10:25:09Z</time>
      </trkpt>
      <trkpt lat="45.19874" lon="0.69807">
        <ele>79</ele>
        <time>2025-06-15T10:25:10Z</time>
      </trkpt>
      <trkpt lat="45.19871" lon="0.69811">
        <ele>79</ele>
        <time>2025-06-15T10:25:11Z</time>
      </trkpt>
      <trkpt lat="45.19867" lon="0.69814">
        <ele>79</ele>
        <time>2025-06-15T10:25:12Z</time>
      </trkpt>
      <trkpt lat="45.19863" lon="0.69818">
        <ele>78.8</ele>
        <time>2025-06-15T10:25:13Z</time>
      </trkpt>
      <trkpt lat="45.19859" lon="0.69821">
        <ele>78.8</ele>
        <time>2025-06-15T10:25:14Z</time>
      </trkpt>
      <trkpt lat="45.19855" lon="0.69825">
        <ele>78.8</ele>
        <time>2025-06-15T10:25:15Z</time>
      </trkpt>
      <trkpt lat="45.19851" lon="0.69828">
        <ele>78.8</ele>
        <time>2025-06-15T10:25:16Z</time>
      </trkpt>
      <trkpt lat="45.19847" lon="0.69831">
        <ele>78.6</ele>
        <time>2025-06-15T10:25:17Z</time>
      </trkpt>
      <trkpt lat="45.19843" lon="0.69834">
        <ele>78.6</ele>
        <time>2025-06-15T10:25:18Z</time>
      </trkpt>
      <trkpt lat="45.19839" lon="0.69836">
        <ele>78.6</ele>
        <time>2025-06-15T10:25:19Z</time>
      </trkpt>
      <trkpt lat="45.19835" lon="0.69838">
        <ele>78.4</ele>
        <time>2025-06-15T10:25:20Z</time>
      </trkpt>
      <trkpt lat="45.19831" lon="0.6984">
        <ele>78.4</ele>
        <time>2025-06-15T10:25:21Z</time>
      </trkpt>
      <trkpt lat="45.19828" lon="0.69842">
        <ele>78.4</ele>
        <time>2025-06-15T10:25:22Z</time>
      </trkpt>
      <trkpt lat="45.19825" lon="0.69845">
        <ele>78.4</ele>
        <time>2025-06-15T10:25:23Z</time>
      </trkpt>
      <trkpt lat="45.19821" lon="0.69847">
        <ele>78.2</ele>
        <time>2025-06-15T10:25:24Z</time>
      </trkpt>
      <trkpt lat="45.19818" lon="0.69848">
        <ele>78.2</ele>
        <time>2025-06-15T10:25:25Z</time>
      </trkpt>
      <trkpt lat="45.19815" lon="0.69849">
        <ele>78.2</ele>
        <time>2025-06-15T10:25:26Z</time>
      </trkpt>
      <trkpt lat="45.19811" lon="0.69852">
        <ele>78.2</ele>
        <time>2025-06-15T10:25:27Z</time>
      </trkpt>
      <trkpt lat="45.19808" lon="0.69854">
        <ele>78</ele>
        <time>2025-06-15T10:25:28Z</time>
      </trkpt>
      <trkpt lat="45.19805" lon="0.69856">
        <ele>78</ele>
        <time>2025-06-15T10:25:29Z</time>
      </trkpt>
      <trkpt lat="45.19802" lon="0.69859">
        <ele>78</ele>
        <time>2025-06-15T10:25:30Z</time>
      </trkpt>
      <trkpt lat="45.198" lon="0.69861">
        <ele>77.8</ele>
        <time>2025-06-15T10:25:31Z</time>
      </trkpt>
      <trkpt lat="45.19796" lon="0.69861">
        <ele>77.8</ele>
        <time>2025-06-15T10:25:32Z</time>
      </trkpt>
      <trkpt lat="45.19795" lon="0.69858">
        <ele>77.8</ele>
        <time>2025-06-15T10:25:33Z</time>
      </trkpt>
      <trkpt lat="45.19794" lon="0.69854">
        <ele>77.6</ele>
        <time>2025-06-15T10:25:34Z</time>
      </trkpt>
      <trkpt lat="45.19793" lon="0.6985">
        <ele>77.6</ele>
        <time>2025-06-15T10:25:35Z</time>
      </trkpt>
      <trkpt lat="45.19791" lon="0.69846">
        <ele>77.4</ele>
        <time>2025-06-15T10:25:36Z</time>
      </trkpt>
      <trkpt lat="45.19789" lon="0.69842">
        <ele>77.4</ele>
        <time>2025-06-15T10:25:37Z</time>
      </trkpt>
      <trkpt lat="45.19788" lon="0.69839">
        <ele>77.2</ele>
        <time>2025-06-15T10:25:38Z</time>
      </trkpt>
      <trkpt lat="45.19787" lon="0.69838">
        <ele>77</ele>
        <time>2025-06-15T10:25:39Z</time>
      </trkpt>
      <trkpt lat="45.19786" lon="0.69838">
        <ele>77</ele>
        <time>2025-06-15T10:25:40Z</time>
      </trkpt>
      <trkpt lat="45.19786" lon="0.69838">
        <ele>77</ele>
        <time>2025-06-15T10:25:41Z</time>
      </trkpt>
      <trkpt lat="45.19784" lon="0.69824">
        <ele>73.2</ele>
        <time>2025-06-15T10:26:10Z</time>
      </trkpt>
      <trkpt lat="45.19782" lon="0.6982">
        <ele>73</ele>
        <time>2025-06-15T10:26:11Z</time>
      </trkpt>
      <trkpt lat="45.1978" lon="0.69816">
        <ele>72.8</ele>
        <time>2025-06-15T10:26:12Z</time>
      </trkpt>
      <trkpt lat="45.19778" lon="0.69811">
        <ele>72.8</ele>
        <time>2025-06-15T10:26:13Z</time>
      </trkpt>
    </trkseg>
  </trk>
</gpx>